<?xml version='1.0' encoding='UTF-8'?><gpx version="1.1" creator="JPX - https://github.com/jenetics/jpx" xmlns="http://www.topografix.com/GPX/1/1"><trk><trkseg><trkpt lat="44.1329832" lon="12.2648529"><ele>36.0</ele><time>2026-04-04T10:28:06.23Z</time></trkpt><trkpt lat="44.1329357" lon="12.264948"><ele>36.0</ele><time>2026-04-04T10:28:07.23Z</time></trkpt><trkpt lat="44.1328767" lon="12.2650585"><ele>36.0</ele><time>2026-04-04T10:28:08.229Z</time></trkpt><trkpt lat="44.132806" lon="12.2652076"><ele>36.0</ele><time>2026-04-04T10:28:09.23Z</time></trkpt><trkpt lat="44.1327395" lon="12.2653403"><ele>36.0</ele><time>2026-04-04T10:28:10.229Z</time></trkpt><trkpt lat="44.1326733" lon="12.2654844"><ele>35.75</ele><time>2026-04-04T10:28:11.228Z</time></trkpt><trkpt lat="44.1325973" lon="12.2656387"><ele>35.5</ele><time>2026-04-04T10:28:12.229Z</time></trkpt><trkpt lat="44.1325292" lon="12.2657998"><ele>35.25</ele><time>2026-04-04T10:28:13.229Z</time></trkpt><trkpt lat="44.1324625" lon="12.2659634"><ele>35.0</ele><time>2026-04-04T10:28:14.23Z</time></trkpt><trkpt lat="44.1323976" lon="12.2661239"><ele>34.25</ele><time>2026-04-04T10:28:15.23Z</time></trkpt><trkpt lat="44.1323253" lon="12.2662905"><ele>33.5</ele><time>2026-04-04T10:28:16.23Z</time></trkpt><trkpt lat="44.1322611" lon="12.2664583"><ele>32.75</ele><time>2026-04-04T10:28:17.23Z</time></trkpt><trkpt lat="44.1321948" lon="12.2666206"><ele>32.0</ele><time>2026-04-04T10:28:18.229Z</time></trkpt><trkpt lat="44.1321297" lon="12.2667858"><ele>32.0</ele><time>2026-04-04T10:28:19.23Z</time></trkpt><trkpt lat="44.1320601" lon="12.266955"><ele>32.0</ele><time>2026-04-04T10:28:20.23Z</time></trkpt><trkpt lat="44.1319972" lon="12.2671224"><ele>32.0</ele><time>2026-04-04T10:28:21.228Z</time></trkpt><trkpt lat="44.1319331" lon="12.2672978"><ele>32.0</ele><time>2026-04-04T10:28:22.229Z</time></trkpt><trkpt lat="44.1318741" lon="12.2674701"><ele>32.0</ele><time>2026-04-04T10:28:23.229Z</time></trkpt><trkpt lat="44.131815" lon="12.2676413"><ele>32.0</ele><time>2026-04-04T10:28:24.229Z</time></trkpt><trkpt lat="44.1317609" lon="12.2678131"><ele>32.0</ele><time>2026-04-04T10:28:25.23Z</time></trkpt><trkpt lat="44.131721" lon="12.2679702"><ele>32.0</ele><time>2026-04-04T10:28:26.229Z</time></trkpt><trkpt lat="44.1316969" lon="12.2681148"><ele>31.8</ele><time>2026-04-04T10:28:27.23Z</time></trkpt><trkpt lat="44.1316757" lon="12.2682437"><ele>31.6</ele><time>2026-04-04T10:28:28.23Z</time></trkpt><trkpt lat="44.1316613" lon="12.2683678"><ele>31.400000000000002</ele><time>2026-04-04T10:28:29.229Z</time></trkpt><trkpt lat="44.1316205" lon="12.2684925"><ele>31.200000000000003</ele><time>2026-04-04T10:28:30.229Z</time></trkpt><trkpt lat="44.1315653" lon="12.2686003"><ele>31.0</ele><time>2026-04-04T10:28:31.229Z</time></trkpt><trkpt lat="44.1315057" lon="12.2687218"><ele>30.8</ele><time>2026-04-04T10:28:32.229Z</time></trkpt><trkpt lat="44.1314542" lon="12.2688464"><ele>30.6</ele><time>2026-04-04T10:28:33.23Z</time></trkpt><trkpt lat="44.1314091" lon="12.2689683"><ele>30.4</ele><time>2026-04-04T10:28:34.229Z</time></trkpt><trkpt lat="44.1313587" lon="12.2690784"><ele>30.2</ele><time>2026-04-04T10:28:35.229Z</time></trkpt><trkpt lat="44.1313055" lon="12.2691905"><ele>30.0</ele><time>2026-04-04T10:28:36.229Z</time></trkpt><trkpt lat="44.1312454" lon="12.2693126"><ele>30.75</ele><time>2026-04-04T10:28:37.228Z</time></trkpt><trkpt lat="44.131188" lon="12.2694531"><ele>31.5</ele><time>2026-04-04T10:28:38.229Z</time></trkpt><trkpt lat="44.1311386" lon="12.2695933"><ele>32.25</ele><time>2026-04-04T10:28:39.229Z</time></trkpt><trkpt lat="44.1310874" lon="12.2697313"><ele>33.0</ele><time>2026-04-04T10:28:40.23Z</time></trkpt><trkpt lat="44.1310326" lon="12.2698773"><ele>33.0</ele><time>2026-04-04T10:28:41.23Z</time></trkpt><trkpt lat="44.1309773" lon="12.2700053"><ele>33.0</ele><time>2026-04-04T10:28:42.229Z</time></trkpt><trkpt lat="44.1309269" lon="12.2701277"><ele>33.0</ele><time>2026-04-04T10:28:43.229Z</time></trkpt><trkpt lat="44.1308794" lon="12.2702298"><ele>33.0</ele><time>2026-04-04T10:28:44.229Z</time></trkpt><trkpt lat="44.1308355" lon="12.2703174"><ele>33.0</ele><time>2026-04-04T10:28:45.229Z</time></trkpt><trkpt lat="44.1307854" lon="12.2704253"><ele>33.0</ele><time>2026-04-04T10:28:47.228Z</time></trkpt><trkpt lat="44.1307322" lon="12.2705101"><ele>33.0</ele><time>2026-04-04T10:29:06.23Z</time></trkpt><trkpt lat="44.1306819" lon="12.2705764"><ele>33.0</ele><time>2026-04-04T10:29:07.229Z</time></trkpt><trkpt lat="44.1306156" lon="12.270671"><ele>33.0</ele><time>2026-04-04T10:29:08.229Z</time></trkpt><trkpt lat="44.1305408" lon="12.2707659"><ele>33.0</ele><time>2026-04-04T10:29:09.229Z</time></trkpt><trkpt lat="44.1304471" lon="12.2708713"><ele>33.0</ele><time>2026-04-04T10:29:10.229Z</time></trkpt><trkpt lat="44.1303448" lon="12.2709936"><ele>33.0</ele><time>2026-04-04T10:29:11.229Z</time></trkpt><trkpt lat="44.1302387" lon="12.2711194"><ele>33.0</ele><time>2026-04-04T10:29:12.229Z</time></trkpt><trkpt lat="44.1301153" lon="12.2712605"><ele>33.0</ele><time>2026-04-04T10:29:13.23Z</time></trkpt><trkpt lat="44.1299961" lon="12.271407"><ele>32.666666666666664</ele><time>2026-04-04T10:29:14.23Z</time></trkpt><trkpt lat="44.1298712" lon="12.2715569"><ele>32.33333333333333</ele><time>2026-04-04T10:29:15.229Z</time></trkpt><trkpt lat="44.1297338" lon="12.2717165"><ele>32.0</ele><time>2026-04-04T10:29:16.229Z</time></trkpt><trkpt lat="44.1296035" lon="12.271887"><ele>32.0</ele><time>2026-04-04T10:29:17.229Z</time></trkpt><trkpt lat="44.1294765" lon="12.2720727"><ele>32.0</ele><time>2026-04-04T10:29:18.229Z</time></trkpt><trkpt lat="44.129357" lon="12.2722749"><ele>32.0</ele><time>2026-04-04T10:29:19.228Z</time></trkpt><trkpt lat="44.1292452" lon="12.2724832"><ele>32.33333333333333</ele><time>2026-04-04T10:29:20.229Z</time></trkpt><trkpt lat="44.1291414" lon="12.2726977"><ele>32.666666666666664</ele><time>2026-04-04T10:29:21.229Z</time></trkpt><trkpt lat="44.1290408" lon="12.27292"><ele>33.0</ele><time>2026-04-04T10:29:22.23Z</time></trkpt><trkpt lat="44.1289452" lon="12.2731598"><ele>32.333333333333336</ele><time>2026-04-04T10:29:23.229Z</time></trkpt><trkpt lat="44.1288501" lon="12.2733968"><ele>31.666666666666668</ele><time>2026-04-04T10:29:24.229Z</time></trkpt><trkpt lat="44.1287499" lon="12.2736381"><ele>31.0</ele><time>2026-04-04T10:29:25.229Z</time></trkpt><trkpt lat="44.1286613" lon="12.2738796"><ele>31.666666666666668</ele><time>2026-04-04T10:29:26.23Z</time></trkpt><trkpt lat="44.1285689" lon="12.274119"><ele>32.333333333333336</ele><time>2026-04-04T10:29:27.23Z</time></trkpt><trkpt lat="44.1284841" lon="12.2743548"><ele>33.0</ele><time>2026-04-04T10:29:28.229Z</time></trkpt><trkpt lat="44.1284105" lon="12.2745794"><ele>33.0</ele><time>2026-04-04T10:29:29.229Z</time></trkpt><trkpt lat="44.1283366" lon="12.2747882"><ele>33.0</ele><time>2026-04-04T10:29:30.229Z</time></trkpt><trkpt lat="44.12825" lon="12.2749896"><ele>33.0</ele><time>2026-04-04T10:29:31.229Z</time></trkpt><trkpt lat="44.1281719" lon="12.2752138"><ele>33.0</ele><time>2026-04-04T10:29:32.229Z</time></trkpt><trkpt lat="44.1280992" lon="12.2754531"><ele>33.0</ele><time>2026-04-04T10:29:33.229Z</time></trkpt><trkpt lat="44.1280324" lon="12.2756982"><ele>33.0</ele><time>2026-04-04T10:29:34.229Z</time></trkpt><trkpt lat="44.1279677" lon="12.2759366"><ele>33.0</ele><time>2026-04-04T10:29:35.23Z</time></trkpt><trkpt lat="44.1279012" lon="12.2761768"><ele>33.0</ele><time>2026-04-04T10:29:36.229Z</time></trkpt><trkpt lat="44.1278397" lon="12.2764131"><ele>33.0</ele><time>2026-04-04T10:29:37.23Z</time></trkpt><trkpt lat="44.1277745" lon="12.2766406"><ele>33.0</ele><time>2026-04-04T10:29:38.23Z</time></trkpt><trkpt lat="44.127704" lon="12.2768648"><ele>33.0</ele><time>2026-04-04T10:29:39.229Z</time></trkpt><trkpt lat="44.1276351" lon="12.2770838"><ele>33.0</ele><time>2026-04-04T10:29:40.229Z</time></trkpt><trkpt lat="44.1275662" lon="12.277311"><ele>33.0</ele><time>2026-04-04T10:29:41.229Z</time></trkpt><trkpt lat="44.1274894" lon="12.2775267"><ele>33.0</ele><time>2026-04-04T10:29:42.229Z</time></trkpt><trkpt lat="44.127411" lon="12.2777378"><ele>33.0</ele><time>2026-04-04T10:29:43.229Z</time></trkpt><trkpt lat="44.1273241" lon="12.2779428"><ele>33.333333333333336</ele><time>2026-04-04T10:29:44.229Z</time></trkpt><trkpt lat="44.1272327" lon="12.2781524"><ele>33.66666666666667</ele><time>2026-04-04T10:29:45.23Z</time></trkpt><trkpt lat="44.1271389" lon="12.2783607"><ele>34.0</ele><time>2026-04-04T10:29:46.23Z</time></trkpt><trkpt lat="44.1270461" lon="12.278572"><ele>34.0</ele><time>2026-04-04T10:29:47.229Z</time></trkpt><trkpt lat="44.1269553" lon="12.2787847"><ele>34.0</ele><time>2026-04-04T10:29:48.23Z</time></trkpt><trkpt lat="44.126865" lon="12.2790027"><ele>34.0</ele><time>2026-04-04T10:29:49.229Z</time></trkpt><trkpt lat="44.1267744" lon="12.2792202"><ele>34.0</ele><time>2026-04-04T10:29:50.229Z</time></trkpt><trkpt lat="44.126686" lon="12.2794407"><ele>34.0</ele><time>2026-04-04T10:29:51.229Z</time></trkpt><trkpt lat="44.1265984" lon="12.2796546"><ele>34.0</ele><time>2026-04-04T10:29:52.23Z</time></trkpt><trkpt lat="44.1265111" lon="12.2798632"><ele>34.0</ele><time>2026-04-04T10:29:53.229Z</time></trkpt><trkpt lat="44.1264193" lon="12.2800581"><ele>34.0</ele><time>2026-04-04T10:29:54.229Z</time></trkpt><trkpt lat="44.1263294" lon="12.2802521"><ele>34.0</ele><time>2026-04-04T10:29:55.229Z</time></trkpt><trkpt lat="44.1262375" lon="12.2804513"><ele>33.66666666666667</ele><time>2026-04-04T10:29:56.229Z</time></trkpt><trkpt lat="44.1261451" lon="12.2806344"><ele>33.333333333333336</ele><time>2026-04-04T10:29:57.229Z</time></trkpt><trkpt lat="44.1260519" lon="12.2808158"><ele>33.0</ele><time>2026-04-04T10:29:58.23Z</time></trkpt><trkpt lat="44.1259597" lon="12.2810018"><ele>33.0</ele><time>2026-04-04T10:29:59.229Z</time></trkpt><trkpt lat="44.1258664" lon="12.2811984"><ele>33.0</ele><time>2026-04-04T10:30:00.23Z</time></trkpt><trkpt lat="44.1257717" lon="12.2813861"><ele>33.0</ele><time>2026-04-04T10:30:01.23Z</time></trkpt><trkpt lat="44.1256764" lon="12.2815691"><ele>32.666666666666664</ele><time>2026-04-04T10:30:02.23Z</time></trkpt><trkpt lat="44.1255796" lon="12.2817546"><ele>32.33333333333333</ele><time>2026-04-04T10:30:03.229Z</time></trkpt><trkpt lat="44.125482" lon="12.2819343"><ele>32.0</ele><time>2026-04-04T10:30:04.229Z</time></trkpt><trkpt lat="44.1253842" lon="12.2821178"><ele>32.0</ele><time>2026-04-04T10:30:05.23Z</time></trkpt><trkpt lat="44.1252896" lon="12.2822947"><ele>32.0</ele><time>2026-04-04T10:30:06.229Z</time></trkpt><trkpt lat="44.1252004" lon="12.2824784"><ele>32.0</ele><time>2026-04-04T10:30:07.229Z</time></trkpt><trkpt lat="44.1251077" lon="12.2826506"><ele>32.0</ele><time>2026-04-04T10:30:08.229Z</time></trkpt><trkpt lat="44.1250285" lon="12.28284"><ele>32.0</ele><time>2026-04-04T10:30:09.23Z</time></trkpt><trkpt lat="44.1249571" lon="12.2830381"><ele>32.0</ele><time>2026-04-04T10:30:10.229Z</time></trkpt><trkpt lat="44.1249036" lon="12.2832513"><ele>32.0</ele><time>2026-04-04T10:30:11.23Z</time></trkpt><trkpt lat="44.1248483" lon="12.2834616"><ele>32.0</ele><time>2026-04-04T10:30:12.229Z</time></trkpt><trkpt lat="44.1248021" lon="12.2836811"><ele>32.0</ele><time>2026-04-04T10:30:13.23Z</time></trkpt><trkpt lat="44.1247573" lon="12.2838944"><ele>32.0</ele><time>2026-04-04T10:30:14.229Z</time></trkpt><trkpt lat="44.1247136" lon="12.2841013"><ele>32.0</ele><time>2026-04-04T10:30:15.228Z</time></trkpt><trkpt lat="44.124675" lon="12.284304"><ele>32.0</ele><time>2026-04-04T10:30:16.229Z</time></trkpt><trkpt lat="44.124637" lon="12.2845185"><ele>32.0</ele><time>2026-04-04T10:30:17.229Z</time></trkpt><trkpt lat="44.1245975" lon="12.2847349"><ele>32.0</ele><time>2026-04-04T10:30:18.229Z</time></trkpt><trkpt lat="44.1245559" lon="12.2849585"><ele>32.0</ele><time>2026-04-04T10:30:19.23Z</time></trkpt><trkpt lat="44.1245107" lon="12.2851759"><ele>32.0</ele><time>2026-04-04T10:30:20.229Z</time></trkpt><trkpt lat="44.1244522" lon="12.2853856"><ele>32.0</ele><time>2026-04-04T10:30:21.229Z</time></trkpt><trkpt lat="44.1243904" lon="12.2855869"><ele>32.0</ele><time>2026-04-04T10:30:22.229Z</time></trkpt><trkpt lat="44.1243205" lon="12.2857809"><ele>32.0</ele><time>2026-04-04T10:30:23.229Z</time></trkpt><trkpt lat="44.1242426" lon="12.2859647"><ele>32.0</ele><time>2026-04-04T10:30:24.229Z</time></trkpt><trkpt lat="44.1241566" lon="12.2861454"><ele>32.0</ele><time>2026-04-04T10:30:25.229Z</time></trkpt><trkpt lat="44.1240675" lon="12.2863145"><ele>32.666666666666664</ele><time>2026-04-04T10:30:26.229Z</time></trkpt><trkpt lat="44.1239764" lon="12.2864897"><ele>33.333333333333336</ele><time>2026-04-04T10:30:27.229Z</time></trkpt><trkpt lat="44.1238873" lon="12.2866565"><ele>34.0</ele><time>2026-04-04T10:30:28.229Z</time></trkpt><trkpt lat="44.1238006" lon="12.2868236"><ele>34.0</ele><time>2026-04-04T10:30:29.229Z</time></trkpt><trkpt lat="44.1237105" lon="12.2869913"><ele>34.0</ele><time>2026-04-04T10:30:30.23Z</time></trkpt><trkpt lat="44.1236145" lon="12.2871783"><ele>34.0</ele><time>2026-04-04T10:30:31.229Z</time></trkpt><trkpt lat="44.1235147" lon="12.2873854"><ele>34.0</ele><time>2026-04-04T10:30:32.229Z</time></trkpt><trkpt lat="44.1234061" lon="12.2876056"><ele>34.0</ele><time>2026-04-04T10:30:33.23Z</time></trkpt><trkpt lat="44.1232896" lon="12.2878206"><ele>34.0</ele><time>2026-04-04T10:30:34.23Z</time></trkpt><trkpt lat="44.1231714" lon="12.2880339"><ele>34.0</ele><time>2026-04-04T10:30:35.229Z</time></trkpt><trkpt lat="44.1230626" lon="12.2882501"><ele>34.0</ele><time>2026-04-04T10:30:36.229Z</time></trkpt><trkpt lat="44.1229597" lon="12.2884596"><ele>34.0</ele><time>2026-04-04T10:30:37.229Z</time></trkpt><trkpt lat="44.1228555" lon="12.2886618"><ele>34.0</ele><time>2026-04-04T10:30:38.229Z</time></trkpt><trkpt lat="44.1227481" lon="12.2888639"><ele>34.0</ele><time>2026-04-04T10:30:39.229Z</time></trkpt><trkpt lat="44.1226441" lon="12.2890667"><ele>34.0</ele><time>2026-04-04T10:30:40.229Z</time></trkpt><trkpt lat="44.1225337" lon="12.289262"><ele>34.0</ele><time>2026-04-04T10:30:41.229Z</time></trkpt><trkpt lat="44.1224357" lon="12.2894701"><ele>34.0</ele><time>2026-04-04T10:30:42.228Z</time></trkpt><trkpt lat="44.1223346" lon="12.289667"><ele>34.0</ele><time>2026-04-04T10:30:43.23Z</time></trkpt><trkpt lat="44.1222361" lon="12.289862"><ele>34.0</ele><time>2026-04-04T10:30:44.229Z</time></trkpt><trkpt lat="44.1221306" lon="12.2900437"><ele>34.0</ele><time>2026-04-04T10:30:45.228Z</time></trkpt><trkpt lat="44.1220342" lon="12.2902282"><ele>34.0</ele><time>2026-04-04T10:30:46.229Z</time></trkpt><trkpt lat="44.1219369" lon="12.2904135"><ele>34.0</ele><time>2026-04-04T10:30:47.229Z</time></trkpt><trkpt lat="44.1218371" lon="12.2905889"><ele>34.0</ele><time>2026-04-04T10:30:48.229Z</time></trkpt><trkpt lat="44.1217363" lon="12.2907559"><ele>34.0</ele><time>2026-04-04T10:30:49.229Z</time></trkpt><trkpt lat="44.1216316" lon="12.2909122"><ele>34.0</ele><time>2026-04-04T10:30:50.23Z</time></trkpt><trkpt lat="44.1215186" lon="12.2910661"><ele>34.0</ele><time>2026-04-04T10:30:51.23Z</time></trkpt><trkpt lat="44.1214078" lon="12.2912141"><ele>34.0</ele><time>2026-04-04T10:30:52.229Z</time></trkpt><trkpt lat="44.1212977" lon="12.2913609"><ele>34.0</ele><time>2026-04-04T10:30:53.229Z</time></trkpt><trkpt lat="44.1211918" lon="12.2915182"><ele>34.0</ele><time>2026-04-04T10:30:54.229Z</time></trkpt><trkpt lat="44.1210863" lon="12.291685"><ele>34.0</ele><time>2026-04-04T10:30:55.229Z</time></trkpt><trkpt lat="44.1209835" lon="12.2918511"><ele>34.0</ele><time>2026-04-04T10:30:56.229Z</time></trkpt><trkpt lat="44.1208914" lon="12.2920441"><ele>34.0</ele><time>2026-04-04T10:30:57.23Z</time></trkpt><trkpt lat="44.1208224" lon="12.2922613"><ele>34.0</ele><time>2026-04-04T10:30:58.23Z</time></trkpt><trkpt lat="44.1207487" lon="12.2924728"><ele>34.333333333333336</ele><time>2026-04-04T10:30:59.23Z</time></trkpt><trkpt lat="44.1206745" lon="12.2926718"><ele>34.666666666666664</ele><time>2026-04-04T10:31:00.228Z</time></trkpt><trkpt lat="44.1206013" lon="12.292873"><ele>35.0</ele><time>2026-04-04T10:31:01.23Z</time></trkpt><trkpt lat="44.1205254" lon="12.2930789"><ele>35.33333333333333</ele><time>2026-04-04T10:31:02.229Z</time></trkpt><trkpt lat="44.1204487" lon="12.2932968"><ele>35.666666666666664</ele><time>2026-04-04T10:31:03.229Z</time></trkpt><trkpt lat="44.1203722" lon="12.2934953"><ele>36.0</ele><time>2026-04-04T10:31:04.23Z</time></trkpt><trkpt lat="44.1202927" lon="12.2936985"><ele>36.0</ele><time>2026-04-04T10:31:05.229Z</time></trkpt><trkpt lat="44.1202082" lon="12.2938949"><ele>36.0</ele><time>2026-04-04T10:31:06.229Z</time></trkpt><trkpt lat="44.1201253" lon="12.2940967"><ele>36.0</ele><time>2026-04-04T10:31:07.23Z</time></trkpt><trkpt lat="44.1200392" lon="12.2943003"><ele>36.0</ele><time>2026-04-04T10:31:08.229Z</time></trkpt><trkpt lat="44.1199589" lon="12.2945045"><ele>36.0</ele><time>2026-04-04T10:31:09.23Z</time></trkpt><trkpt lat="44.1198802" lon="12.2947106"><ele>36.0</ele><time>2026-04-04T10:31:10.23Z</time></trkpt><trkpt lat="44.1197985" lon="12.2949213"><ele>36.333333333333336</ele><time>2026-04-04T10:31:11.229Z</time></trkpt><trkpt lat="44.119722" lon="12.2951293"><ele>36.66666666666667</ele><time>2026-04-04T10:31:12.23Z</time></trkpt><trkpt lat="44.1196378" lon="12.2953319"><ele>37.0</ele><time>2026-04-04T10:31:13.23Z</time></trkpt><trkpt lat="44.1195548" lon="12.2955387"><ele>36.333333333333336</ele><time>2026-04-04T10:31:14.229Z</time></trkpt><trkpt lat="44.1194709" lon="12.2957471"><ele>35.666666666666664</ele><time>2026-04-04T10:31:15.229Z</time></trkpt><trkpt lat="44.1193914" lon="12.2959627"><ele>35.0</ele><time>2026-04-04T10:31:16.229Z</time></trkpt><trkpt lat="44.1193097" lon="12.2961779"><ele>35.0</ele><time>2026-04-04T10:31:17.229Z</time></trkpt><trkpt lat="44.1192312" lon="12.2964018"><ele>35.0</ele><time>2026-04-04T10:31:18.229Z</time></trkpt><trkpt lat="44.119154" lon="12.2966202"><ele>35.0</ele><time>2026-04-04T10:31:19.229Z</time></trkpt><trkpt lat="44.1190681" lon="12.296838"><ele>35.33333333333333</ele><time>2026-04-04T10:31:20.23Z</time></trkpt><trkpt lat="44.1189832" lon="12.2970678"><ele>35.666666666666664</ele><time>2026-04-04T10:31:21.229Z</time></trkpt><trkpt lat="44.1188994" lon="12.2972957"><ele>36.0</ele><time>2026-04-04T10:31:22.229Z</time></trkpt><trkpt lat="44.1188167" lon="12.2975236"><ele>36.0</ele><time>2026-04-04T10:31:23.23Z</time></trkpt><trkpt lat="44.1187313" lon="12.2977512"><ele>36.0</ele><time>2026-04-04T10:31:24.23Z</time></trkpt><trkpt lat="44.1186459" lon="12.2979934"><ele>36.0</ele><time>2026-04-04T10:31:25.229Z</time></trkpt><trkpt lat="44.118562" lon="12.2982238"><ele>35.333333333333336</ele><time>2026-04-04T10:31:26.23Z</time></trkpt><trkpt lat="44.118484" lon="12.2984609"><ele>34.66666666666667</ele><time>2026-04-04T10:31:27.229Z</time></trkpt><trkpt lat="44.1184121" lon="12.2987052"><ele>34.0</ele><time>2026-04-04T10:31:28.23Z</time></trkpt><trkpt lat="44.1183405" lon="12.2989434"><ele>34.0</ele><time>2026-04-04T10:31:29.229Z</time></trkpt><trkpt lat="44.118258" lon="12.2991647"><ele>34.0</ele><time>2026-04-04T10:31:30.229Z</time></trkpt><trkpt lat="44.1181776" lon="12.2993883"><ele>34.0</ele><time>2026-04-04T10:31:31.23Z</time></trkpt><trkpt lat="44.1180937" lon="12.2996116"><ele>33.66666666666667</ele><time>2026-04-04T10:31:32.229Z</time></trkpt><trkpt lat="44.1180012" lon="12.2998297"><ele>33.333333333333336</ele><time>2026-04-04T10:31:33.229Z</time></trkpt><trkpt lat="44.1179061" lon="12.3000471"><ele>33.0</ele><time>2026-04-04T10:31:34.229Z</time></trkpt><trkpt lat="44.1178014" lon="12.3002578"><ele>33.0</ele><time>2026-04-04T10:31:35.23Z</time></trkpt><trkpt lat="44.1176965" lon="12.3004667"><ele>33.0</ele><time>2026-04-04T10:31:36.229Z</time></trkpt><trkpt lat="44.1175935" lon="12.3006729"><ele>33.0</ele><time>2026-04-04T10:31:37.229Z</time></trkpt><trkpt lat="44.1174877" lon="12.3008806"><ele>33.0</ele><time>2026-04-04T10:31:38.229Z</time></trkpt><trkpt lat="44.1173863" lon="12.3010899"><ele>33.0</ele><time>2026-04-04T10:31:39.229Z</time></trkpt><trkpt lat="44.1172886" lon="12.3012945"><ele>33.0</ele><time>2026-04-04T10:31:40.23Z</time></trkpt><trkpt lat="44.1171839" lon="12.3014884"><ele>33.0</ele><time>2026-04-04T10:31:41.23Z</time></trkpt><trkpt lat="44.1170825" lon="12.3016708"><ele>33.0</ele><time>2026-04-04T10:31:42.229Z</time></trkpt><trkpt lat="44.1169834" lon="12.3018551"><ele>33.0</ele><time>2026-04-04T10:31:43.229Z</time></trkpt><trkpt lat="44.116885" lon="12.3020462"><ele>33.0</ele><time>2026-04-04T10:31:44.229Z</time></trkpt><trkpt lat="44.1167845" lon="12.302245"><ele>33.0</ele><time>2026-04-04T10:31:45.229Z</time></trkpt><trkpt lat="44.1166813" lon="12.3024553"><ele>33.0</ele><time>2026-04-04T10:31:46.229Z</time></trkpt><trkpt lat="44.1165782" lon="12.302659"><ele>33.333333333333336</ele><time>2026-04-04T10:31:47.229Z</time></trkpt><trkpt lat="44.1164752" lon="12.3028701"><ele>33.66666666666667</ele><time>2026-04-04T10:31:48.23Z</time></trkpt><trkpt lat="44.1163727" lon="12.3030732"><ele>34.0</ele><time>2026-04-04T10:31:49.23Z</time></trkpt><trkpt lat="44.116267" lon="12.303273"><ele>34.333333333333336</ele><time>2026-04-04T10:31:50.229Z</time></trkpt><trkpt lat="44.1161637" lon="12.3034699"><ele>34.666666666666664</ele><time>2026-04-04T10:31:51.23Z</time></trkpt><trkpt lat="44.1160628" lon="12.303662"><ele>35.0</ele><time>2026-04-04T10:31:52.229Z</time></trkpt><trkpt lat="44.1159608" lon="12.3038409"><ele>35.0</ele><time>2026-04-04T10:31:53.229Z</time></trkpt><trkpt lat="44.1158665" lon="12.3040173"><ele>35.0</ele><time>2026-04-04T10:31:54.229Z</time></trkpt><trkpt lat="44.1157744" lon="12.3041736"><ele>35.0</ele><time>2026-04-04T10:31:55.229Z</time></trkpt><trkpt lat="44.1156859" lon="12.3043248"><ele>35.0</ele><time>2026-04-04T10:31:56.229Z</time></trkpt><trkpt lat="44.1155981" lon="12.304466"><ele>35.0</ele><time>2026-04-04T10:31:57.229Z</time></trkpt><trkpt lat="44.115511" lon="12.3046074"><ele>35.0</ele><time>2026-04-04T10:31:58.229Z</time></trkpt><trkpt lat="44.1154252" lon="12.3047455"><ele>35.0</ele><time>2026-04-04T10:31:59.229Z</time></trkpt><trkpt lat="44.115343" lon="12.3048818"><ele>35.0</ele><time>2026-04-04T10:32:00.229Z</time></trkpt><trkpt lat="44.1152621" lon="12.3050117"><ele>35.25</ele><time>2026-04-04T10:32:01.229Z</time></trkpt><trkpt lat="44.1151856" lon="12.3051554"><ele>35.5</ele><time>2026-04-04T10:32:02.229Z</time></trkpt><trkpt lat="44.1151092" lon="12.3052801"><ele>35.75</ele><time>2026-04-04T10:32:03.229Z</time></trkpt><trkpt lat="44.1150321" lon="12.3053941"><ele>36.0</ele><time>2026-04-04T10:32:04.23Z</time></trkpt><trkpt lat="44.1149532" lon="12.3055053"><ele>35.8</ele><time>2026-04-04T10:32:05.229Z</time></trkpt><trkpt lat="44.1148724" lon="12.3056079"><ele>35.6</ele><time>2026-04-04T10:32:06.229Z</time></trkpt><trkpt lat="44.1147862" lon="12.3056963"><ele>35.4</ele><time>2026-04-04T10:32:07.229Z</time></trkpt><trkpt lat="44.1146964" lon="12.3057856"><ele>35.2</ele><time>2026-04-04T10:32:08.229Z</time></trkpt><trkpt lat="44.114618" lon="12.3058886"><ele>35.0</ele><time>2026-04-04T10:32:09.23Z</time></trkpt><trkpt lat="44.1145513" lon="12.3060057"><ele>35.0</ele><time>2026-04-04T10:32:10.23Z</time></trkpt><trkpt lat="44.1144998" lon="12.3061311"><ele>35.0</ele><time>2026-04-04T10:32:11.229Z</time></trkpt><trkpt lat="44.1144693" lon="12.3062774"><ele>35.0</ele><time>2026-04-04T10:32:12.23Z</time></trkpt><trkpt lat="44.1144538" lon="12.3064178"><ele>35.0</ele><time>2026-04-04T10:32:13.229Z</time></trkpt><trkpt lat="44.1144517" lon="12.3065566"><ele>35.0</ele><time>2026-04-04T10:32:14.229Z</time></trkpt><trkpt lat="44.1144476" lon="12.306685"><ele>35.0</ele><time>2026-04-04T10:32:15.229Z</time></trkpt><trkpt lat="44.1144355" lon="12.3068093"><ele>35.0</ele><time>2026-04-04T10:32:16.229Z</time></trkpt><trkpt lat="44.1144119" lon="12.3069317"><ele>35.0</ele><time>2026-04-04T10:32:17.229Z</time></trkpt><trkpt lat="44.1143663" lon="12.3070476"><ele>35.0</ele><time>2026-04-04T10:32:18.229Z</time></trkpt><trkpt lat="44.1143215" lon="12.3071643"><ele>35.0</ele><time>2026-04-04T10:32:19.229Z</time></trkpt><trkpt lat="44.1142719" lon="12.307277"><ele>35.0</ele><time>2026-04-04T10:32:20.229Z</time></trkpt><trkpt lat="44.1142189" lon="12.3073951"><ele>35.0</ele><time>2026-04-04T10:32:21.229Z</time></trkpt><trkpt lat="44.1141668" lon="12.3075236"><ele>35.0</ele><time>2026-04-04T10:32:22.229Z</time></trkpt><trkpt lat="44.1141148" lon="12.3076517"><ele>35.0</ele><time>2026-04-04T10:32:23.23Z</time></trkpt><trkpt lat="44.1140563" lon="12.3077795"><ele>35.0</ele><time>2026-04-04T10:32:24.23Z</time></trkpt><trkpt lat="44.113993" lon="12.3079147"><ele>35.5</ele><time>2026-04-04T10:32:25.23Z</time></trkpt><trkpt lat="44.1139206" lon="12.3080615"><ele>36.0</ele><time>2026-04-04T10:32:26.229Z</time></trkpt><trkpt lat="44.113843" lon="12.3082153"><ele>36.5</ele><time>2026-04-04T10:32:27.229Z</time></trkpt><trkpt lat="44.1137675" lon="12.308366"><ele>37.0</ele><time>2026-04-04T10:32:28.23Z</time></trkpt><trkpt lat="44.1136874" lon="12.30852"><ele>37.25</ele><time>2026-04-04T10:32:29.229Z</time></trkpt><trkpt lat="44.1136038" lon="12.3086755"><ele>37.5</ele><time>2026-04-04T10:32:30.23Z</time></trkpt><trkpt lat="44.1135155" lon="12.3088373"><ele>37.75</ele><time>2026-04-04T10:32:31.23Z</time></trkpt><trkpt lat="44.1134238" lon="12.3090026"><ele>38.0</ele><time>2026-04-04T10:32:32.229Z</time></trkpt><trkpt lat="44.1133267" lon="12.3091716"><ele>38.0</ele><time>2026-04-04T10:32:33.229Z</time></trkpt><trkpt lat="44.1132311" lon="12.309348"><ele>38.0</ele><time>2026-04-04T10:32:34.23Z</time></trkpt><trkpt lat="44.113136" lon="12.3095285"><ele>38.0</ele><time>2026-04-04T10:32:35.23Z</time></trkpt><trkpt lat="44.1130464" lon="12.3097141"><ele>37.666666666666664</ele><time>2026-04-04T10:32:36.229Z</time></trkpt><trkpt lat="44.1129591" lon="12.309894"><ele>37.333333333333336</ele><time>2026-04-04T10:32:37.229Z</time></trkpt><trkpt lat="44.1128715" lon="12.3100694"><ele>37.0</ele><time>2026-04-04T10:32:38.229Z</time></trkpt><trkpt lat="44.1127844" lon="12.3102506"><ele>37.0</ele><time>2026-04-04T10:32:39.23Z</time></trkpt><trkpt lat="44.1126914" lon="12.3104374"><ele>37.0</ele><time>2026-04-04T10:32:40.23Z</time></trkpt><trkpt lat="44.1126018" lon="12.3106241"><ele>37.0</ele><time>2026-04-04T10:32:41.229Z</time></trkpt><trkpt lat="44.1125131" lon="12.3108061"><ele>37.333333333333336</ele><time>2026-04-04T10:32:42.229Z</time></trkpt><trkpt lat="44.1124242" lon="12.3109945"><ele>37.666666666666664</ele><time>2026-04-04T10:32:43.23Z</time></trkpt><trkpt lat="44.1123362" lon="12.3111794"><ele>38.0</ele><time>2026-04-04T10:32:44.229Z</time></trkpt><trkpt lat="44.1122416" lon="12.3113622"><ele>37.666666666666664</ele><time>2026-04-04T10:32:45.229Z</time></trkpt><trkpt lat="44.1121517" lon="12.3115516"><ele>37.333333333333336</ele><time>2026-04-04T10:32:46.229Z</time></trkpt><trkpt lat="44.1120604" lon="12.311745"><ele>37.0</ele><time>2026-04-04T10:32:47.23Z</time></trkpt><trkpt lat="44.111967" lon="12.3119402"><ele>37.0</ele><time>2026-04-04T10:32:48.23Z</time></trkpt><trkpt lat="44.1118739" lon="12.3121339"><ele>37.0</ele><time>2026-04-04T10:32:49.229Z</time></trkpt><trkpt lat="44.1117852" lon="12.3123388"><ele>37.0</ele><time>2026-04-04T10:32:50.229Z</time></trkpt><trkpt lat="44.1117023" lon="12.3125385"><ele>37.0</ele><time>2026-04-04T10:32:51.229Z</time></trkpt><trkpt lat="44.1116231" lon="12.3127415"><ele>37.0</ele><time>2026-04-04T10:32:52.23Z</time></trkpt><trkpt lat="44.11154" lon="12.312941"><ele>37.0</ele><time>2026-04-04T10:32:53.229Z</time></trkpt><trkpt lat="44.1114637" lon="12.3131434"><ele>37.333333333333336</ele><time>2026-04-04T10:32:54.229Z</time></trkpt><trkpt lat="44.1113879" lon="12.3133395"><ele>37.666666666666664</ele><time>2026-04-04T10:32:55.229Z</time></trkpt><trkpt lat="44.1113164" lon="12.3135431"><ele>38.0</ele><time>2026-04-04T10:32:56.229Z</time></trkpt><trkpt lat="44.111244" lon="12.3137398"><ele>38.0</ele><time>2026-04-04T10:32:57.229Z</time></trkpt><trkpt lat="44.1111725" lon="12.3139337"><ele>38.0</ele><time>2026-04-04T10:32:58.229Z</time></trkpt><trkpt lat="44.111096" lon="12.3141191"><ele>38.0</ele><time>2026-04-04T10:32:59.229Z</time></trkpt><trkpt lat="44.1110157" lon="12.3142995"><ele>38.0</ele><time>2026-04-04T10:33:00.229Z</time></trkpt><trkpt lat="44.1109373" lon="12.3144809"><ele>38.0</ele><time>2026-04-04T10:33:01.229Z</time></trkpt><trkpt lat="44.1108509" lon="12.3146518"><ele>38.0</ele><time>2026-04-04T10:33:02.229Z</time></trkpt><trkpt lat="44.1107713" lon="12.3148325"><ele>38.25</ele><time>2026-04-04T10:33:03.229Z</time></trkpt><trkpt lat="44.1106991" lon="12.3150178"><ele>38.5</ele><time>2026-04-04T10:33:04.229Z</time></trkpt><trkpt lat="44.1106346" lon="12.3151871"><ele>38.75</ele><time>2026-04-04T10:33:05.229Z</time></trkpt><trkpt lat="44.1105722" lon="12.3153477"><ele>39.0</ele><time>2026-04-04T10:33:06.23Z</time></trkpt><trkpt lat="44.1105152" lon="12.3155038"><ele>38.75</ele><time>2026-04-04T10:33:07.229Z</time></trkpt><trkpt lat="44.1104638" lon="12.3156557"><ele>38.5</ele><time>2026-04-04T10:33:08.23Z</time></trkpt><trkpt lat="44.1104155" lon="12.3157986"><ele>38.25</ele><time>2026-04-04T10:33:09.229Z</time></trkpt><trkpt lat="44.1103644" lon="12.3159453"><ele>38.0</ele><time>2026-04-04T10:33:10.228Z</time></trkpt><trkpt lat="44.1103188" lon="12.3160876"><ele>38.0</ele><time>2026-04-04T10:33:11.229Z</time></trkpt><trkpt lat="44.110271" lon="12.3162294"><ele>38.0</ele><time>2026-04-04T10:33:12.229Z</time></trkpt><trkpt lat="44.1102292" lon="12.3163566"><ele>38.0</ele><time>2026-04-04T10:33:13.229Z</time></trkpt><trkpt lat="44.1101823" lon="12.3164906"><ele>38.0</ele><time>2026-04-04T10:33:14.229Z</time></trkpt><trkpt lat="44.110132" lon="12.3166159"><ele>38.0</ele><time>2026-04-04T10:33:15.228Z</time></trkpt><trkpt lat="44.1100908" lon="12.3167556"><ele>38.0</ele><time>2026-04-04T10:33:16.229Z</time></trkpt><trkpt lat="44.1100483" lon="12.3169004"><ele>38.0</ele><time>2026-04-04T10:33:17.228Z</time></trkpt><trkpt lat="44.110011" lon="12.3170516"><ele>38.0</ele><time>2026-04-04T10:33:18.229Z</time></trkpt><trkpt lat="44.1099649" lon="12.3172051"><ele>38.0</ele><time>2026-04-04T10:33:19.229Z</time></trkpt><trkpt lat="44.1099228" lon="12.3173681"><ele>38.0</ele><time>2026-04-04T10:33:20.229Z</time></trkpt><trkpt lat="44.1098828" lon="12.3175179"><ele>38.0</ele><time>2026-04-04T10:33:21.23Z</time></trkpt><trkpt lat="44.1098434" lon="12.3176601"><ele>38.0</ele><time>2026-04-04T10:33:22.229Z</time></trkpt><trkpt lat="44.1098093" lon="12.3177936"><ele>38.0</ele><time>2026-04-04T10:33:23.229Z</time></trkpt><trkpt lat="44.1097772" lon="12.3179075"><ele>38.0</ele><time>2026-04-04T10:33:24.229Z</time></trkpt><trkpt lat="44.1097512" lon="12.3179979"><ele>37.83333333333333</ele><time>2026-04-04T10:33:25.229Z</time></trkpt><trkpt lat="44.1097134" lon="12.3181106"><ele>37.666666666666664</ele><time>2026-04-04T10:33:27.229Z</time></trkpt><trkpt lat="44.1096497" lon="12.3182136"><ele>37.5</ele><time>2026-04-04T10:33:30.229Z</time></trkpt><trkpt lat="44.1095919" lon="12.3182665"><ele>37.333333333333336</ele><time>2026-04-04T10:33:31.23Z</time></trkpt><trkpt lat="44.1095241" lon="12.3182989"><ele>37.16666666666667</ele><time>2026-04-04T10:33:32.229Z</time></trkpt><trkpt lat="44.109442" lon="12.3183407"><ele>37.0</ele><time>2026-04-04T10:33:33.229Z</time></trkpt><trkpt lat="44.1093837" lon="12.31844"><ele>37.0</ele><time>2026-04-04T10:33:34.229Z</time></trkpt><trkpt lat="44.1093635" lon="12.3185323"><ele>37.0</ele><time>2026-04-04T10:33:35.229Z</time></trkpt><trkpt lat="44.1093673" lon="12.3186426"><ele>37.0</ele><time>2026-04-04T10:33:36.227Z</time></trkpt><trkpt lat="44.1094032" lon="12.318758"><ele>37.0</ele><time>2026-04-04T10:33:37.229Z</time></trkpt><trkpt lat="44.1094397" lon="12.3188776"><ele>37.0</ele><time>2026-04-04T10:33:38.229Z</time></trkpt><trkpt lat="44.1094471" lon="12.3190321"><ele>37.0</ele><time>2026-04-04T10:33:39.229Z</time></trkpt><trkpt lat="44.109444" lon="12.3191709"><ele>37.0</ele><time>2026-04-04T10:33:40.228Z</time></trkpt><trkpt lat="44.1094289" lon="12.3193203"><ele>37.0</ele><time>2026-04-04T10:33:41.23Z</time></trkpt><trkpt lat="44.1093982" lon="12.319474"><ele>37.0</ele><time>2026-04-04T10:33:42.229Z</time></trkpt><trkpt lat="44.109361" lon="12.3196298"><ele>37.0</ele><time>2026-04-04T10:33:43.23Z</time></trkpt><trkpt lat="44.1093219" lon="12.319786"><ele>37.0</ele><time>2026-04-04T10:33:44.229Z</time></trkpt><trkpt lat="44.1092855" lon="12.3199576"><ele>37.0</ele><time>2026-04-04T10:33:45.23Z</time></trkpt><trkpt lat="44.1092362" lon="12.3201301"><ele>37.0</ele><time>2026-04-04T10:33:46.229Z</time></trkpt><trkpt lat="44.1091895" lon="12.3203022"><ele>37.0</ele><time>2026-04-04T10:33:47.229Z</time></trkpt><trkpt lat="44.1091386" lon="12.3204784"><ele>37.0</ele><time>2026-04-04T10:33:48.229Z</time></trkpt><trkpt lat="44.1090814" lon="12.3206625"><ele>37.0</ele><time>2026-04-04T10:33:49.23Z</time></trkpt><trkpt lat="44.1090215" lon="12.3208431"><ele>37.0</ele><time>2026-04-04T10:33:50.229Z</time></trkpt><trkpt lat="44.1089596" lon="12.321019"><ele>37.0</ele><time>2026-04-04T10:33:51.23Z</time></trkpt><trkpt lat="44.1088931" lon="12.3211901"><ele>37.0</ele><time>2026-04-04T10:33:52.229Z</time></trkpt><trkpt lat="44.1088256" lon="12.3213632"><ele>37.0</ele><time>2026-04-04T10:33:53.229Z</time></trkpt><trkpt lat="44.1087522" lon="12.3215263"><ele>37.0</ele><time>2026-04-04T10:33:54.229Z</time></trkpt><trkpt lat="44.1086808" lon="12.3216962"><ele>37.0</ele><time>2026-04-04T10:33:55.229Z</time></trkpt><trkpt lat="44.1086098" lon="12.3218684"><ele>37.0</ele><time>2026-04-04T10:33:56.229Z</time></trkpt><trkpt lat="44.1085388" lon="12.3220416"><ele>37.0</ele><time>2026-04-04T10:33:57.229Z</time></trkpt><trkpt lat="44.1084664" lon="12.3222088"><ele>37.0</ele><time>2026-04-04T10:33:58.229Z</time></trkpt><trkpt lat="44.1083923" lon="12.3223873"><ele>37.0</ele><time>2026-04-04T10:33:59.23Z</time></trkpt><trkpt lat="44.1083163" lon="12.3225703"><ele>37.0</ele><time>2026-04-04T10:34:00.229Z</time></trkpt><trkpt lat="44.1082412" lon="12.3227526"><ele>37.0</ele><time>2026-04-04T10:34:01.23Z</time></trkpt><trkpt lat="44.1081654" lon="12.3229381"><ele>37.0</ele><time>2026-04-04T10:34:02.229Z</time></trkpt><trkpt lat="44.1080889" lon="12.3231222"><ele>37.333333333333336</ele><time>2026-04-04T10:34:03.229Z</time></trkpt><trkpt lat="44.1080127" lon="12.3233209"><ele>37.666666666666664</ele><time>2026-04-04T10:34:04.229Z</time></trkpt><trkpt lat="44.1079378" lon="12.3235246"><ele>38.0</ele><time>2026-04-04T10:34:05.229Z</time></trkpt><trkpt lat="44.1078689" lon="12.3237271"><ele>38.0</ele><time>2026-04-04T10:34:06.229Z</time></trkpt><trkpt lat="44.107798" lon="12.323935"><ele>38.0</ele><time>2026-04-04T10:34:07.229Z</time></trkpt><trkpt lat="44.1077329" lon="12.3241375"><ele>38.0</ele><time>2026-04-04T10:34:08.229Z</time></trkpt><trkpt lat="44.1076717" lon="12.3243377"><ele>38.0</ele><time>2026-04-04T10:34:09.229Z</time></trkpt><trkpt lat="44.1076148" lon="12.3245412"><ele>38.0</ele><time>2026-04-04T10:34:10.23Z</time></trkpt><trkpt lat="44.1075582" lon="12.3247488"><ele>38.0</ele><time>2026-04-04T10:34:11.229Z</time></trkpt><trkpt lat="44.1075112" lon="12.3249681"><ele>37.666666666666664</ele><time>2026-04-04T10:34:12.23Z</time></trkpt><trkpt lat="44.1074664" lon="12.3251833"><ele>37.333333333333336</ele><time>2026-04-04T10:34:13.229Z</time></trkpt><trkpt lat="44.1074287" lon="12.3254062"><ele>37.0</ele><time>2026-04-04T10:34:14.229Z</time></trkpt><trkpt lat="44.1073864" lon="12.3256287"><ele>36.66666666666667</ele><time>2026-04-04T10:34:15.229Z</time></trkpt><trkpt lat="44.1073434" lon="12.3258476"><ele>36.333333333333336</ele><time>2026-04-04T10:34:16.229Z</time></trkpt><trkpt lat="44.1072997" lon="12.3260654"><ele>36.0</ele><time>2026-04-04T10:34:17.229Z</time></trkpt><trkpt lat="44.1072467" lon="12.326283"><ele>36.0</ele><time>2026-04-04T10:34:18.229Z</time></trkpt><trkpt lat="44.1071862" lon="12.3265014"><ele>36.0</ele><time>2026-04-04T10:34:19.229Z</time></trkpt><trkpt lat="44.1071166" lon="12.32673"><ele>36.0</ele><time>2026-04-04T10:34:20.23Z</time></trkpt><trkpt lat="44.1070475" lon="12.3269473"><ele>36.0</ele><time>2026-04-04T10:34:21.229Z</time></trkpt><trkpt lat="44.1069675" lon="12.3271643"><ele>36.0</ele><time>2026-04-04T10:34:22.23Z</time></trkpt><trkpt lat="44.1068912" lon="12.3273803"><ele>36.0</ele><time>2026-04-04T10:34:23.229Z</time></trkpt><trkpt lat="44.1068163" lon="12.3275949"><ele>35.333333333333336</ele><time>2026-04-04T10:34:24.229Z</time></trkpt><trkpt lat="44.1067471" lon="12.3278152"><ele>34.66666666666667</ele><time>2026-04-04T10:34:25.229Z</time></trkpt><trkpt lat="44.1066798" lon="12.3280357"><ele>34.0</ele><time>2026-04-04T10:34:26.229Z</time></trkpt><trkpt lat="44.1066121" lon="12.3282587"><ele>34.333333333333336</ele><time>2026-04-04T10:34:27.229Z</time></trkpt><trkpt lat="44.1065497" lon="12.3284808"><ele>34.666666666666664</ele><time>2026-04-04T10:34:28.23Z</time></trkpt><trkpt lat="44.1064886" lon="12.3287051"><ele>35.0</ele><time>2026-04-04T10:34:29.229Z</time></trkpt><trkpt lat="44.1064339" lon="12.3289342"><ele>35.0</ele><time>2026-04-04T10:34:30.229Z</time></trkpt><trkpt lat="44.1063771" lon="12.3291702"><ele>35.0</ele><time>2026-04-04T10:34:31.229Z</time></trkpt><trkpt lat="44.1063201" lon="12.3294081"><ele>35.0</ele><time>2026-04-04T10:34:32.229Z</time></trkpt><trkpt lat="44.1062615" lon="12.3296369"><ele>35.0</ele><time>2026-04-04T10:34:33.229Z</time></trkpt><trkpt lat="44.1062048" lon="12.3298739"><ele>35.0</ele><time>2026-04-04T10:34:34.229Z</time></trkpt><trkpt lat="44.10615" lon="12.3301084"><ele>35.0</ele><time>2026-04-04T10:34:35.229Z</time></trkpt><trkpt lat="44.1060967" lon="12.3303381"><ele>35.33333333333333</ele><time>2026-04-04T10:34:36.229Z</time></trkpt><trkpt lat="44.10604" lon="12.3305671"><ele>35.666666666666664</ele><time>2026-04-04T10:34:37.229Z</time></trkpt><trkpt lat="44.1059844" lon="12.3307952"><ele>36.0</ele><time>2026-04-04T10:34:38.229Z</time></trkpt><trkpt lat="44.1059326" lon="12.3310203"><ele>36.0</ele><time>2026-04-04T10:34:39.229Z</time></trkpt><trkpt lat="44.1058837" lon="12.3312328"><ele>36.0</ele><time>2026-04-04T10:34:40.229Z</time></trkpt><trkpt lat="44.1058388" lon="12.331427"><ele>36.0</ele><time>2026-04-04T10:34:41.229Z</time></trkpt><trkpt lat="44.1057903" lon="12.3316138"><ele>36.0</ele><time>2026-04-04T10:34:42.23Z</time></trkpt><trkpt lat="44.105739" lon="12.3317856"><ele>35.6</ele><time>2026-04-04T10:34:43.23Z</time></trkpt><trkpt lat="44.1056893" lon="12.3319426"><ele>35.2</ele><time>2026-04-04T10:34:44.229Z</time></trkpt><trkpt lat="44.1056411" lon="12.3320889"><ele>34.8</ele><time>2026-04-04T10:34:45.229Z</time></trkpt><trkpt lat="44.1055942" lon="12.3322283"><ele>34.4</ele><time>2026-04-04T10:34:46.229Z</time></trkpt><trkpt lat="44.1055522" lon="12.3323435"><ele>34.0</ele><time>2026-04-04T10:34:47.23Z</time></trkpt><trkpt lat="44.1055046" lon="12.3324616"><ele>34.0</ele><time>2026-04-04T10:34:48.229Z</time></trkpt><trkpt lat="44.1054573" lon="12.3325557"><ele>34.0</ele><time>2026-04-04T10:34:49.229Z</time></trkpt><trkpt lat="44.1054186" lon="12.3326527"><ele>34.0</ele><time>2026-04-04T10:34:50.23Z</time></trkpt><trkpt lat="44.1053862" lon="12.3327394"><ele>34.0</ele><time>2026-04-04T10:34:51.229Z</time></trkpt><trkpt lat="44.1053404" lon="12.332876"><ele>34.0</ele><time>2026-04-04T10:34:53.229Z</time></trkpt><trkpt lat="44.1053176" lon="12.3329613"><ele>34.0</ele><time>2026-04-04T10:34:55.23Z</time></trkpt><trkpt lat="44.1052812" lon="12.3330805"><ele>34.0</ele><time>2026-04-04T10:35:27.23Z</time></trkpt><trkpt lat="44.1052458" lon="12.3331909"><ele>34.0</ele><time>2026-04-04T10:35:28.229Z</time></trkpt><trkpt lat="44.1051815" lon="12.3333411"><ele>34.0</ele><time>2026-04-04T10:35:29.229Z</time></trkpt><trkpt lat="44.1051205" lon="12.333514"><ele>34.0</ele><time>2026-04-04T10:35:30.229Z</time></trkpt><trkpt lat="44.1050467" lon="12.3337107"><ele>34.0</ele><time>2026-04-04T10:35:31.23Z</time></trkpt><trkpt lat="44.1049731" lon="12.3339164"><ele>34.0</ele><time>2026-04-04T10:35:32.229Z</time></trkpt><trkpt lat="44.1048909" lon="12.3341322"><ele>34.0</ele><time>2026-04-04T10:35:33.23Z</time></trkpt><trkpt lat="44.1047969" lon="12.3343875"><ele>34.0</ele><time>2026-04-04T10:35:34.2Z</time></trkpt><trkpt lat="44.1046873" lon="12.3346886"><ele>34.0</ele><time>2026-04-04T10:35:35.199Z</time></trkpt><trkpt lat="44.1045814" lon="12.3349638"><ele>33.5</ele><time>2026-04-04T10:35:36.2Z</time></trkpt><trkpt lat="44.1044653" lon="12.3352512"><ele>33.0</ele><time>2026-04-04T10:35:37.199Z</time></trkpt><trkpt lat="44.1043446" lon="12.335543"><ele>33.0</ele><time>2026-04-04T10:35:38.201Z</time></trkpt><trkpt lat="44.1042375" lon="12.3357927"><ele>33.0</ele><time>2026-04-04T10:35:39.199Z</time></trkpt><trkpt lat="44.1041258" lon="12.3360541"><ele>33.0</ele><time>2026-04-04T10:35:40.2Z</time></trkpt><trkpt lat="44.1040101" lon="12.3363049"><ele>32.666666666666664</ele><time>2026-04-04T10:35:41.199Z</time></trkpt><trkpt lat="44.1038917" lon="12.3365444"><ele>32.33333333333333</ele><time>2026-04-04T10:35:42.199Z</time></trkpt><trkpt lat="44.1037607" lon="12.3367913"><ele>32.0</ele><time>2026-04-04T10:35:43.2Z</time></trkpt><trkpt lat="44.1036441" lon="12.3370079"><ele>31.666666666666664</ele><time>2026-04-04T10:35:44.199Z</time></trkpt><trkpt lat="44.1035207" lon="12.3372282"><ele>31.333333333333336</ele><time>2026-04-04T10:35:45.2Z</time></trkpt><trkpt lat="44.1034011" lon="12.3374369"><ele>31.0</ele><time>2026-04-04T10:35:46.199Z</time></trkpt><trkpt lat="44.1032914" lon="12.3376279"><ele>31.333333333333336</ele><time>2026-04-04T10:35:47.199Z</time></trkpt><trkpt lat="44.1031883" lon="12.3378049"><ele>31.666666666666664</ele><time>2026-04-04T10:35:48.2Z</time></trkpt><trkpt lat="44.1030872" lon="12.3379629"><ele>32.0</ele><time>2026-04-04T10:35:49.2Z</time></trkpt><trkpt lat="44.1029811" lon="12.3380979"><ele>31.5</ele><time>2026-04-04T10:35:50.199Z</time></trkpt><trkpt lat="44.1028558" lon="12.338198"><ele>31.0</ele><time>2026-04-04T10:35:51.199Z</time></trkpt><trkpt lat="44.1027521" lon="12.3382637"><ele>30.5</ele><time>2026-04-04T10:35:52.199Z</time></trkpt><trkpt lat="44.1026499" lon="12.3383628"><ele>30.0</ele><time>2026-04-04T10:35:53.199Z</time></trkpt><trkpt lat="44.1025577" lon="12.3384921"><ele>30.0</ele><time>2026-04-04T10:35:54.199Z</time></trkpt><trkpt lat="44.1025022" lon="12.3386407"><ele>30.0</ele><time>2026-04-04T10:35:55.2Z</time></trkpt><trkpt lat="44.1024648" lon="12.3388239"><ele>30.0</ele><time>2026-04-04T10:35:56.199Z</time></trkpt><trkpt lat="44.1024239" lon="12.3390132"><ele>30.0</ele><time>2026-04-04T10:35:57.2Z</time></trkpt><trkpt lat="44.1023649" lon="12.3391989"><ele>30.333333333333336</ele><time>2026-04-04T10:35:58.199Z</time></trkpt><trkpt lat="44.1022825" lon="12.3393891"><ele>30.666666666666668</ele><time>2026-04-04T10:35:59.199Z</time></trkpt><trkpt lat="44.1021883" lon="12.3395621"><ele>31.0</ele><time>2026-04-04T10:36:00.199Z</time></trkpt><trkpt lat="44.1020898" lon="12.3397377"><ele>30.333333333333336</ele><time>2026-04-04T10:36:01.2Z</time></trkpt><trkpt lat="44.1019925" lon="12.3399082"><ele>29.666666666666664</ele><time>2026-04-04T10:36:02.199Z</time></trkpt><trkpt lat="44.1018794" lon="12.3401117"><ele>29.0</ele><time>2026-04-04T10:36:03.199Z</time></trkpt><trkpt lat="44.1017758" lon="12.3402976"><ele>29.0</ele><time>2026-04-04T10:36:04.2Z</time></trkpt><trkpt lat="44.1016778" lon="12.3404743"><ele>29.0</ele><time>2026-04-04T10:36:05.199Z</time></trkpt><trkpt lat="44.1015646" lon="12.3406775"><ele>29.0</ele><time>2026-04-04T10:36:06.199Z</time></trkpt><trkpt lat="44.1014557" lon="12.3408707"><ele>29.333333333333332</ele><time>2026-04-04T10:36:07.199Z</time></trkpt><trkpt lat="44.1013462" lon="12.3410654"><ele>29.666666666666664</ele><time>2026-04-04T10:36:08.199Z</time></trkpt><trkpt lat="44.1012339" lon="12.3412575"><ele>30.0</ele><time>2026-04-04T10:36:09.199Z</time></trkpt><trkpt lat="44.1011246" lon="12.3414463"><ele>29.333333333333336</ele><time>2026-04-04T10:36:10.2Z</time></trkpt><trkpt lat="44.1010129" lon="12.341629"><ele>28.666666666666668</ele><time>2026-04-04T10:36:11.199Z</time></trkpt><trkpt lat="44.1008996" lon="12.3418142"><ele>28.0</ele><time>2026-04-04T10:36:12.199Z</time></trkpt><trkpt lat="44.1007916" lon="12.3419876"><ele>28.0</ele><time>2026-04-04T10:36:13.199Z</time></trkpt><trkpt lat="44.1006712" lon="12.3421901"><ele>28.0</ele><time>2026-04-04T10:36:14.2Z</time></trkpt><trkpt lat="44.1005631" lon="12.3423892"><ele>28.0</ele><time>2026-04-04T10:36:15.199Z</time></trkpt><trkpt lat="44.1004596" lon="12.3426039"><ele>28.0</ele><time>2026-04-04T10:36:16.2Z</time></trkpt><trkpt lat="44.1003663" lon="12.3428262"><ele>28.0</ele><time>2026-04-04T10:36:17.199Z</time></trkpt><trkpt lat="44.100287" lon="12.3430421"><ele>28.0</ele><time>2026-04-04T10:36:18.199Z</time></trkpt><trkpt lat="44.1002043" lon="12.3432922"><ele>28.0</ele><time>2026-04-04T10:36:19.199Z</time></trkpt><trkpt lat="44.1001356" lon="12.3435405"><ele>28.0</ele><time>2026-04-04T10:36:20.199Z</time></trkpt><trkpt lat="44.1000711" lon="12.3437684"><ele>28.0</ele><time>2026-04-04T10:36:21.199Z</time></trkpt><trkpt lat="44.1000008" lon="12.3440272"><ele>28.0</ele><time>2026-04-04T10:36:22.2Z</time></trkpt><trkpt lat="44.0999369" lon="12.3442722"><ele>28.0</ele><time>2026-04-04T10:36:23.199Z</time></trkpt><trkpt lat="44.0998677" lon="12.3445107"><ele>28.0</ele><time>2026-04-04T10:36:24.199Z</time></trkpt><trkpt lat="44.0997983" lon="12.3447479"><ele>28.0</ele><time>2026-04-04T10:36:25.199Z</time></trkpt><trkpt lat="44.0997247" lon="12.3449787"><ele>28.0</ele><time>2026-04-04T10:36:26.199Z</time></trkpt><trkpt lat="44.0996488" lon="12.3452096"><ele>28.0</ele><time>2026-04-04T10:36:27.199Z</time></trkpt><trkpt lat="44.0995736" lon="12.3454365"><ele>28.0</ele><time>2026-04-04T10:36:28.199Z</time></trkpt><trkpt lat="44.0995087" lon="12.3456537"><ele>28.0</ele><time>2026-04-04T10:36:29.199Z</time></trkpt><trkpt lat="44.0994432" lon="12.3459065"><ele>28.0</ele><time>2026-04-04T10:36:30.199Z</time></trkpt><trkpt lat="44.0993907" lon="12.346152"><ele>28.0</ele><time>2026-04-04T10:36:31.199Z</time></trkpt><trkpt lat="44.0993479" lon="12.346397"><ele>28.0</ele><time>2026-04-04T10:36:32.2Z</time></trkpt><trkpt lat="44.0993141" lon="12.3466309"><ele>28.0</ele><time>2026-04-04T10:36:33.199Z</time></trkpt><trkpt lat="44.0992877" lon="12.3468373"><ele>28.0</ele><time>2026-04-04T10:36:34.199Z</time></trkpt><trkpt lat="44.099263" lon="12.3470653"><ele>28.0</ele><time>2026-04-04T10:36:35.199Z</time></trkpt><trkpt lat="44.0992397" lon="12.3472626"><ele>28.0</ele><time>2026-04-04T10:36:36.199Z</time></trkpt><trkpt lat="44.0992166" lon="12.3474246"><ele>28.0</ele><time>2026-04-04T10:36:37.2Z</time></trkpt><trkpt lat="44.0991816" lon="12.3475927"><ele>28.25</ele><time>2026-04-04T10:36:38.199Z</time></trkpt><trkpt lat="44.0991333" lon="12.3477391"><ele>28.5</ele><time>2026-04-04T10:36:39.199Z</time></trkpt><trkpt lat="44.0990858" lon="12.3478894"><ele>28.75</ele><time>2026-04-04T10:36:40.199Z</time></trkpt><trkpt lat="44.0990589" lon="12.3480569"><ele>29.0</ele><time>2026-04-04T10:36:41.2Z</time></trkpt><trkpt lat="44.0990485" lon="12.3482391"><ele>29.0</ele><time>2026-04-04T10:36:42.199Z</time></trkpt><trkpt lat="44.0990411" lon="12.3484273"><ele>29.0</ele><time>2026-04-04T10:36:43.199Z</time></trkpt><trkpt lat="44.0990169" lon="12.3486216"><ele>29.0</ele><time>2026-04-04T10:36:44.199Z</time></trkpt><trkpt lat="44.0989787" lon="12.3488087"><ele>29.0</ele><time>2026-04-04T10:36:45.199Z</time></trkpt><trkpt lat="44.0989287" lon="12.3490356"><ele>29.0</ele><time>2026-04-04T10:36:46.2Z</time></trkpt><trkpt lat="44.0988812" lon="12.3492441"><ele>29.0</ele><time>2026-04-04T10:36:47.199Z</time></trkpt><trkpt lat="44.0988375" lon="12.349443"><ele>29.0</ele><time>2026-04-04T10:36:48.2Z</time></trkpt><trkpt lat="44.0987886" lon="12.3496723"><ele>28.333333333333332</ele><time>2026-04-04T10:36:49.2Z</time></trkpt><trkpt lat="44.0987497" lon="12.3498762"><ele>27.666666666666664</ele><time>2026-04-04T10:36:50.199Z</time></trkpt><trkpt lat="44.0987043" lon="12.35011"><ele>27.0</ele><time>2026-04-04T10:36:51.199Z</time></trkpt><trkpt lat="44.0986601" lon="12.3503312"><ele>27.333333333333336</ele><time>2026-04-04T10:36:52.2Z</time></trkpt><trkpt lat="44.098614" lon="12.3505515"><ele>27.666666666666668</ele><time>2026-04-04T10:36:53.199Z</time></trkpt><trkpt lat="44.0985594" lon="12.3508243"><ele>28.0</ele><time>2026-04-04T10:36:54.199Z</time></trkpt><trkpt lat="44.0985067" lon="12.3511023"><ele>27.666666666666668</ele><time>2026-04-04T10:36:55.2Z</time></trkpt><trkpt lat="44.0984561" lon="12.3513802"><ele>27.333333333333336</ele><time>2026-04-04T10:36:56.199Z</time></trkpt><trkpt lat="44.0983878" lon="12.3517047"><ele>27.0</ele><time>2026-04-04T10:36:57.199Z</time></trkpt><trkpt lat="44.0983179" lon="12.3519996"><ele>27.333333333333336</ele><time>2026-04-04T10:36:58.2Z</time></trkpt><trkpt lat="44.0982493" lon="12.3522845"><ele>27.666666666666668</ele><time>2026-04-04T10:36:59.2Z</time></trkpt><trkpt lat="44.098184" lon="12.352563"><ele>28.0</ele><time>2026-04-04T10:37:00.199Z</time></trkpt><trkpt lat="44.0981228" lon="12.3528199"><ele>28.333333333333336</ele><time>2026-04-04T10:37:01.199Z</time></trkpt><trkpt lat="44.0980553" lon="12.3531049"><ele>28.666666666666664</ele><time>2026-04-04T10:37:02.2Z</time></trkpt><trkpt lat="44.0979927" lon="12.3533694"><ele>29.0</ele><time>2026-04-04T10:37:03.199Z</time></trkpt><trkpt lat="44.0979308" lon="12.3536335"><ele>29.333333333333332</ele><time>2026-04-04T10:37:04.199Z</time></trkpt><trkpt lat="44.0978693" lon="12.3538931"><ele>29.666666666666664</ele><time>2026-04-04T10:37:05.199Z</time></trkpt><trkpt lat="44.0978092" lon="12.3541343"><ele>30.0</ele><time>2026-04-04T10:37:06.2Z</time></trkpt><trkpt lat="44.0977453" lon="12.3544111"><ele>30.0</ele><time>2026-04-04T10:37:07.199Z</time></trkpt><trkpt lat="44.0976879" lon="12.3546726"><ele>30.0</ele><time>2026-04-04T10:37:08.199Z</time></trkpt><trkpt lat="44.0976346" lon="12.3549177"><ele>30.0</ele><time>2026-04-04T10:37:09.199Z</time></trkpt><trkpt lat="44.0975745" lon="12.3551938"><ele>30.0</ele><time>2026-04-04T10:37:10.2Z</time></trkpt><trkpt lat="44.0975204" lon="12.3554512"><ele>30.0</ele><time>2026-04-04T10:37:11.2Z</time></trkpt><trkpt lat="44.097465" lon="12.3557151"><ele>30.0</ele><time>2026-04-04T10:37:12.199Z</time></trkpt><trkpt lat="44.0974144" lon="12.3559796"><ele>29.666666666666664</ele><time>2026-04-04T10:37:13.199Z</time></trkpt><trkpt lat="44.0973634" lon="12.3562441"><ele>29.333333333333332</ele><time>2026-04-04T10:37:14.199Z</time></trkpt><trkpt lat="44.097315" lon="12.356507"><ele>29.0</ele><time>2026-04-04T10:37:15.199Z</time></trkpt><trkpt lat="44.097267" lon="12.3567716"><ele>29.0</ele><time>2026-04-04T10:37:16.199Z</time></trkpt><trkpt lat="44.0972221" lon="12.357022"><ele>29.0</ele><time>2026-04-04T10:37:17.199Z</time></trkpt><trkpt lat="44.0971685" lon="12.357299"><ele>29.0</ele><time>2026-04-04T10:37:18.2Z</time></trkpt><trkpt lat="44.0971141" lon="12.3575573"><ele>29.0</ele><time>2026-04-04T10:37:19.199Z</time></trkpt><trkpt lat="44.0970536" lon="12.3577943"><ele>29.0</ele><time>2026-04-04T10:37:20.199Z</time></trkpt><trkpt lat="44.0969757" lon="12.3580605"><ele>29.0</ele><time>2026-04-04T10:37:21.199Z</time></trkpt><trkpt lat="44.096897" lon="12.3582896"><ele>29.0</ele><time>2026-04-04T10:37:22.2Z</time></trkpt><trkpt lat="44.0967968" lon="12.358545"><ele>29.0</ele><time>2026-04-04T10:37:23.199Z</time></trkpt><trkpt lat="44.0966943" lon="12.3587809"><ele>29.0</ele><time>2026-04-04T10:37:24.199Z</time></trkpt><trkpt lat="44.0965915" lon="12.3589978"><ele>29.0</ele><time>2026-04-04T10:37:25.199Z</time></trkpt><trkpt lat="44.0964648" lon="12.3592396"><ele>29.0</ele><time>2026-04-04T10:37:26.199Z</time></trkpt><trkpt lat="44.0963459" lon="12.3594672"><ele>29.0</ele><time>2026-04-04T10:37:27.2Z</time></trkpt><trkpt lat="44.0962335" lon="12.3596799"><ele>29.333333333333332</ele><time>2026-04-04T10:37:28.2Z</time></trkpt><trkpt lat="44.0961056" lon="12.359923"><ele>29.666666666666664</ele><time>2026-04-04T10:37:29.199Z</time></trkpt><trkpt lat="44.095985" lon="12.3601514"><ele>30.0</ele><time>2026-04-04T10:37:30.199Z</time></trkpt><trkpt lat="44.0958675" lon="12.3603869"><ele>30.0</ele><time>2026-04-04T10:37:31.2Z</time></trkpt><trkpt lat="44.0957497" lon="12.3606193"><ele>30.0</ele><time>2026-04-04T10:37:32.199Z</time></trkpt><trkpt lat="44.0956435" lon="12.3608363"><ele>30.0</ele><time>2026-04-04T10:37:33.199Z</time></trkpt><trkpt lat="44.0955285" lon="12.3610788"><ele>30.0</ele><time>2026-04-04T10:37:34.199Z</time></trkpt><trkpt lat="44.0954207" lon="12.3613087"><ele>30.0</ele><time>2026-04-04T10:37:35.199Z</time></trkpt><trkpt lat="44.0953158" lon="12.361535"><ele>30.0</ele><time>2026-04-04T10:37:36.2Z</time></trkpt><trkpt lat="44.0952111" lon="12.3617599"><ele>29.666666666666664</ele><time>2026-04-04T10:37:37.199Z</time></trkpt><trkpt lat="44.0951132" lon="12.3619662"><ele>29.333333333333332</ele><time>2026-04-04T10:37:38.2Z</time></trkpt><trkpt lat="44.095" lon="12.3622054"><ele>29.0</ele><time>2026-04-04T10:37:39.2Z</time></trkpt><trkpt lat="44.0948941" lon="12.3624223"><ele>30.0</ele><time>2026-04-04T10:37:40.199Z</time></trkpt><trkpt lat="44.0947962" lon="12.3626263"><ele>31.0</ele><time>2026-04-04T10:37:41.199Z</time></trkpt><trkpt lat="44.0946889" lon="12.3628618"><ele>32.0</ele><time>2026-04-04T10:37:42.199Z</time></trkpt><trkpt lat="44.0945909" lon="12.3630845"><ele>33.33333333333333</ele><time>2026-04-04T10:37:43.2Z</time></trkpt><trkpt lat="44.094502" lon="12.3632918"><ele>34.666666666666664</ele><time>2026-04-04T10:37:44.199Z</time></trkpt><trkpt lat="44.0944033" lon="12.3635308"><ele>36.0</ele><time>2026-04-04T10:37:45.199Z</time></trkpt><trkpt lat="44.094311" lon="12.3637553"><ele>35.666666666666664</ele><time>2026-04-04T10:37:46.2Z</time></trkpt><trkpt lat="44.0942172" lon="12.3639749"><ele>35.33333333333333</ele><time>2026-04-04T10:37:47.2Z</time></trkpt><trkpt lat="44.094124" lon="12.3641953"><ele>35.0</ele><time>2026-04-04T10:37:48.199Z</time></trkpt><trkpt lat="44.0940365" lon="12.3644034"><ele>35.0</ele><time>2026-04-04T10:37:49.199Z</time></trkpt><trkpt lat="44.0939342" lon="12.3646327"><ele>35.0</ele><time>2026-04-04T10:37:50.199Z</time></trkpt><trkpt lat="44.0938363" lon="12.3648495"><ele>35.0</ele><time>2026-04-04T10:37:51.199Z</time></trkpt><trkpt lat="44.0937508" lon="12.3650581"><ele>35.0</ele><time>2026-04-04T10:37:52.199Z</time></trkpt><trkpt lat="44.0936532" lon="12.3652931"><ele>35.0</ele><time>2026-04-04T10:37:53.199Z</time></trkpt><trkpt lat="44.0935665" lon="12.3654941"><ele>35.0</ele><time>2026-04-04T10:37:54.199Z</time></trkpt><trkpt lat="44.0934673" lon="12.3657195"><ele>34.666666666666664</ele><time>2026-04-04T10:37:55.199Z</time></trkpt><trkpt lat="44.0933741" lon="12.3659264"><ele>34.333333333333336</ele><time>2026-04-04T10:37:56.199Z</time></trkpt><trkpt lat="44.093284" lon="12.3661145"><ele>34.0</ele><time>2026-04-04T10:37:57.2Z</time></trkpt><trkpt lat="44.0931795" lon="12.3663228"><ele>35.0</ele><time>2026-04-04T10:37:58.199Z</time></trkpt><trkpt lat="44.0930802" lon="12.3665115"><ele>36.0</ele><time>2026-04-04T10:37:59.199Z</time></trkpt><trkpt lat="44.0929889" lon="12.3666798"><ele>37.0</ele><time>2026-04-04T10:38:00.199Z</time></trkpt><trkpt lat="44.0928886" lon="12.366859"><ele>37.0</ele><time>2026-04-04T10:38:01.2Z</time></trkpt><trkpt lat="44.0927972" lon="12.3670232"><ele>37.0</ele><time>2026-04-04T10:38:02.2Z</time></trkpt><trkpt lat="44.0927056" lon="12.3671848"><ele>37.0</ele><time>2026-04-04T10:38:03.199Z</time></trkpt><trkpt lat="44.0926132" lon="12.367345"><ele>37.0</ele><time>2026-04-04T10:38:04.199Z</time></trkpt><trkpt lat="44.0925293" lon="12.3674921"><ele>36.75</ele><time>2026-04-04T10:38:05.199Z</time></trkpt><trkpt lat="44.0924372" lon="12.3676609"><ele>36.5</ele><time>2026-04-04T10:38:06.2Z</time></trkpt><trkpt lat="44.0923573" lon="12.3678146"><ele>36.25</ele><time>2026-04-04T10:38:07.199Z</time></trkpt><trkpt lat="44.092283" lon="12.3679638"><ele>36.0</ele><time>2026-04-04T10:38:08.2Z</time></trkpt><trkpt lat="44.0922113" lon="12.368106"><ele>36.0</ele><time>2026-04-04T10:38:09.199Z</time></trkpt><trkpt lat="44.0921464" lon="12.3682293"><ele>36.0</ele><time>2026-04-04T10:38:10.199Z</time></trkpt><trkpt lat="44.0920725" lon="12.3683567"><ele>36.0</ele><time>2026-04-04T10:38:11.2Z</time></trkpt><trkpt lat="44.0919908" lon="12.368452"><ele>36.0</ele><time>2026-04-04T10:38:12.199Z</time></trkpt><trkpt lat="44.0919045" lon="12.3685172"><ele>36.0</ele><time>2026-04-04T10:38:13.199Z</time></trkpt><trkpt lat="44.091808" lon="12.3685965"><ele>36.0</ele><time>2026-04-04T10:38:14.2Z</time></trkpt><trkpt lat="44.0917343" lon="12.3686935"><ele>36.0</ele><time>2026-04-04T10:38:15.199Z</time></trkpt><trkpt lat="44.0916887" lon="12.3688029"><ele>36.0</ele><time>2026-04-04T10:38:16.199Z</time></trkpt><trkpt lat="44.0916573" lon="12.3689501"><ele>36.0</ele><time>2026-04-04T10:38:17.199Z</time></trkpt><trkpt lat="44.0916405" lon="12.3691041"><ele>36.0</ele><time>2026-04-04T10:38:18.199Z</time></trkpt><trkpt lat="44.0916169" lon="12.3692681"><ele>36.0</ele><time>2026-04-04T10:38:19.199Z</time></trkpt><trkpt lat="44.0915823" lon="12.3694393"><ele>36.0</ele><time>2026-04-04T10:38:20.199Z</time></trkpt><trkpt lat="44.0915399" lon="12.3696011"><ele>36.0</ele><time>2026-04-04T10:38:21.199Z</time></trkpt><trkpt lat="44.0914939" lon="12.3697963"><ele>36.0</ele><time>2026-04-04T10:38:22.199Z</time></trkpt><trkpt lat="44.0914571" lon="12.3699855"><ele>36.0</ele><time>2026-04-04T10:38:23.2Z</time></trkpt><trkpt lat="44.0914236" lon="12.3701613"><ele>36.0</ele><time>2026-04-04T10:38:24.199Z</time></trkpt><trkpt lat="44.0913863" lon="12.3703593"><ele>36.0</ele><time>2026-04-04T10:38:25.199Z</time></trkpt><trkpt lat="44.0913543" lon="12.3705298"><ele>36.0</ele><time>2026-04-04T10:38:26.2Z</time></trkpt><trkpt lat="44.09132" lon="12.3707186"><ele>36.25</ele><time>2026-04-04T10:38:27.199Z</time></trkpt><trkpt lat="44.0912909" lon="12.3708937"><ele>36.5</ele><time>2026-04-04T10:38:28.199Z</time></trkpt><trkpt lat="44.0912648" lon="12.371054"><ele>36.75</ele><time>2026-04-04T10:38:29.199Z</time></trkpt><trkpt lat="44.0912405" lon="12.371241"><ele>37.0</ele><time>2026-04-04T10:38:30.199Z</time></trkpt><trkpt lat="44.0912253" lon="12.3714191"><ele>37.0</ele><time>2026-04-04T10:38:31.199Z</time></trkpt><trkpt lat="44.091219" lon="12.3715861"><ele>37.0</ele><time>2026-04-04T10:38:32.199Z</time></trkpt><trkpt lat="44.0912198" lon="12.3717781"><ele>37.0</ele><time>2026-04-04T10:38:33.199Z</time></trkpt><trkpt lat="44.0912243" lon="12.3719574"><ele>37.0</ele><time>2026-04-04T10:38:34.2Z</time></trkpt><trkpt lat="44.091232" lon="12.372138"><ele>36.75</ele><time>2026-04-04T10:38:35.199Z</time></trkpt><trkpt lat="44.0912401" lon="12.3723142"><ele>36.5</ele><time>2026-04-04T10:38:36.199Z</time></trkpt><trkpt lat="44.0912491" lon="12.3724766"><ele>36.25</ele><time>2026-04-04T10:38:37.2Z</time></trkpt><trkpt lat="44.0912593" lon="12.3726624"><ele>36.0</ele><time>2026-04-04T10:38:38.2Z</time></trkpt><trkpt lat="44.0912693" lon="12.3728433"><ele>36.0</ele><time>2026-04-04T10:38:39.199Z</time></trkpt><trkpt lat="44.091277" lon="12.3730141"><ele>36.0</ele><time>2026-04-04T10:38:40.199Z</time></trkpt><trkpt lat="44.0912874" lon="12.3732156"><ele>36.0</ele><time>2026-04-04T10:38:41.199Z</time></trkpt><trkpt lat="44.0912995" lon="12.3733922"><ele>36.0</ele><time>2026-04-04T10:38:42.199Z</time></trkpt><trkpt lat="44.0913119" lon="12.3735983"><ele>35.75</ele><time>2026-04-04T10:38:43.199Z</time></trkpt><trkpt lat="44.0913228" lon="12.3737971"><ele>35.5</ele><time>2026-04-04T10:38:44.199Z</time></trkpt><trkpt lat="44.0913333" lon="12.3739834"><ele>35.25</ele><time>2026-04-04T10:38:45.2Z</time></trkpt><trkpt lat="44.0913462" lon="12.3741985"><ele>35.0</ele><time>2026-04-04T10:38:46.199Z</time></trkpt><trkpt lat="44.0913565" lon="12.3744009"><ele>34.75</ele><time>2026-04-04T10:38:47.199Z</time></trkpt><trkpt lat="44.0913664" lon="12.3745894"><ele>34.5</ele><time>2026-04-04T10:38:48.199Z</time></trkpt><trkpt lat="44.0913802" lon="12.3748044"><ele>34.25</ele><time>2026-04-04T10:38:49.199Z</time></trkpt><trkpt lat="44.0913887" lon="12.3750044"><ele>34.0</ele><time>2026-04-04T10:38:50.199Z</time></trkpt><trkpt lat="44.0913986" lon="12.3751987"><ele>34.0</ele><time>2026-04-04T10:38:51.199Z</time></trkpt><trkpt lat="44.091408" lon="12.3753935"><ele>34.0</ele><time>2026-04-04T10:38:52.2Z</time></trkpt><trkpt lat="44.0914166" lon="12.3755747"><ele>34.0</ele><time>2026-04-04T10:38:53.199Z</time></trkpt><trkpt lat="44.0914275" lon="12.3757771"><ele>34.0</ele><time>2026-04-04T10:38:54.199Z</time></trkpt><trkpt lat="44.0914361" lon="12.3759666"><ele>34.0</ele><time>2026-04-04T10:38:55.199Z</time></trkpt><trkpt lat="44.0914462" lon="12.3761353"><ele>34.0</ele><time>2026-04-04T10:38:56.2Z</time></trkpt><trkpt lat="44.0914592" lon="12.3763253"><ele>34.0</ele><time>2026-04-04T10:38:57.2Z</time></trkpt><trkpt lat="44.0914673" lon="12.3764876"><ele>34.0</ele><time>2026-04-04T10:38:58.199Z</time></trkpt><trkpt lat="44.0914712" lon="12.3766587"><ele>34.0</ele><time>2026-04-04T10:38:59.199Z</time></trkpt><trkpt lat="44.0914668" lon="12.3768092"><ele>34.0</ele><time>2026-04-04T10:39:00.2Z</time></trkpt><trkpt lat="44.0914451" lon="12.3769314"><ele>34.0</ele><time>2026-04-04T10:39:01.199Z</time></trkpt><trkpt lat="44.0914041" lon="12.3770561"><ele>34.0</ele><time>2026-04-04T10:39:02.199Z</time></trkpt><trkpt lat="44.0913523" lon="12.3771501"><ele>34.0</ele><time>2026-04-04T10:39:03.199Z</time></trkpt><trkpt lat="44.0913115" lon="12.3772431"><ele>34.0</ele><time>2026-04-04T10:39:04.199Z</time></trkpt><trkpt lat="44.0912934" lon="12.3773582"><ele>34.0</ele><time>2026-04-04T10:39:05.2Z</time></trkpt><trkpt lat="44.0913141" lon="12.3774652"><ele>34.0</ele><time>2026-04-04T10:39:06.199Z</time></trkpt><trkpt lat="44.0913709" lon="12.3775588"><ele>34.0</ele><time>2026-04-04T10:39:07.199Z</time></trkpt><trkpt lat="44.0914418" lon="12.3776575"><ele>34.0</ele><time>2026-04-04T10:39:08.2Z</time></trkpt><trkpt lat="44.091498" lon="12.3777711"><ele>34.0</ele><time>2026-04-04T10:39:09.199Z</time></trkpt><trkpt lat="44.09154" lon="12.3779309"><ele>34.0</ele><time>2026-04-04T10:39:10.199Z</time></trkpt><trkpt lat="44.0915522" lon="12.3780989"><ele>34.0</ele><time>2026-04-04T10:39:11.2Z</time></trkpt><trkpt lat="44.0915652" lon="12.378261"><ele>34.0</ele><time>2026-04-04T10:39:12.199Z</time></trkpt><trkpt lat="44.0915787" lon="12.3784475"><ele>33.5</ele><time>2026-04-04T10:39:13.199Z</time></trkpt><trkpt lat="44.0915905" lon="12.378619"><ele>33.0</ele><time>2026-04-04T10:39:14.199Z</time></trkpt><trkpt lat="44.0916069" lon="12.3788151"><ele>32.5</ele><time>2026-04-04T10:39:15.199Z</time></trkpt><trkpt lat="44.0916181" lon="12.3789929"><ele>32.0</ele><time>2026-04-04T10:39:16.2Z</time></trkpt><trkpt lat="44.0916281" lon="12.3791547"><ele>32.0</ele><time>2026-04-04T10:39:17.199Z</time></trkpt><trkpt lat="44.0916386" lon="12.3793379"><ele>32.0</ele><time>2026-04-04T10:39:18.199Z</time></trkpt><trkpt lat="44.0916478" lon="12.3795095"><ele>32.0</ele><time>2026-04-04T10:39:19.199Z</time></trkpt><trkpt lat="44.0916566" lon="12.3796696"><ele>32.0</ele><time>2026-04-04T10:39:20.2Z</time></trkpt><trkpt lat="44.0916661" lon="12.3798558"><ele>32.25</ele><time>2026-04-04T10:39:21.199Z</time></trkpt><trkpt lat="44.0916752" lon="12.3800314"><ele>32.5</ele><time>2026-04-04T10:39:22.199Z</time></trkpt><trkpt lat="44.0916846" lon="12.3802076"><ele>32.75</ele><time>2026-04-04T10:39:23.2Z</time></trkpt><trkpt lat="44.0916942" lon="12.3803814"><ele>33.0</ele><time>2026-04-04T10:39:24.2Z</time></trkpt><trkpt lat="44.091704" lon="12.3805386"><ele>33.0</ele><time>2026-04-04T10:39:25.199Z</time></trkpt><trkpt lat="44.0917149" lon="12.380711"><ele>33.0</ele><time>2026-04-04T10:39:26.199Z</time></trkpt><trkpt lat="44.0917225" lon="12.3808695"><ele>33.0</ele><time>2026-04-04T10:39:27.2Z</time></trkpt><trkpt lat="44.0917307" lon="12.3810186"><ele>33.0</ele><time>2026-04-04T10:39:28.199Z</time></trkpt><trkpt lat="44.091739" lon="12.3811859"><ele>33.0</ele><time>2026-04-04T10:39:29.199Z</time></trkpt><trkpt lat="44.091748" lon="12.3813345"><ele>33.0</ele><time>2026-04-04T10:39:30.199Z</time></trkpt><trkpt lat="44.0917595" lon="12.3815049"><ele>33.0</ele><time>2026-04-04T10:39:31.2Z</time></trkpt><trkpt lat="44.0917687" lon="12.3816671"><ele>33.0</ele><time>2026-04-04T10:39:32.199Z</time></trkpt><trkpt lat="44.0917763" lon="12.3818205"><ele>33.0</ele><time>2026-04-04T10:39:33.199Z</time></trkpt><trkpt lat="44.0917842" lon="12.3819969"><ele>33.0</ele><time>2026-04-04T10:39:34.2Z</time></trkpt><trkpt lat="44.0917913" lon="12.3821637"><ele>33.0</ele><time>2026-04-04T10:39:35.199Z</time></trkpt><trkpt lat="44.0918012" lon="12.3823214"><ele>33.0</ele><time>2026-04-04T10:39:36.2Z</time></trkpt><trkpt lat="44.0918132" lon="12.3825024"><ele>33.0</ele><time>2026-04-04T10:39:37.199Z</time></trkpt><trkpt lat="44.0918229" lon="12.3826716"><ele>33.0</ele><time>2026-04-04T10:39:38.199Z</time></trkpt><trkpt lat="44.0918325" lon="12.3828388"><ele>33.0</ele><time>2026-04-04T10:39:39.199Z</time></trkpt><trkpt lat="44.091842" lon="12.3830019"><ele>33.0</ele><time>2026-04-04T10:39:40.199Z</time></trkpt><trkpt lat="44.0918496" lon="12.3831536"><ele>33.0</ele><time>2026-04-04T10:39:41.199Z</time></trkpt><trkpt lat="44.0918564" lon="12.3833269"><ele>33.0</ele><time>2026-04-04T10:39:42.2Z</time></trkpt><trkpt lat="44.0918634" lon="12.383492"><ele>33.0</ele><time>2026-04-04T10:39:43.199Z</time></trkpt><trkpt lat="44.0918692" lon="12.3836519"><ele>33.0</ele><time>2026-04-04T10:39:44.199Z</time></trkpt><trkpt lat="44.0918791" lon="12.3838329"><ele>33.25</ele><time>2026-04-04T10:39:45.199Z</time></trkpt><trkpt lat="44.0918864" lon="12.3839887"><ele>33.5</ele><time>2026-04-04T10:39:46.2Z</time></trkpt><trkpt lat="44.0918943" lon="12.3841591"><ele>33.75</ele><time>2026-04-04T10:39:47.199Z</time></trkpt><trkpt lat="44.0919032" lon="12.3843158"><ele>34.0</ele><time>2026-04-04T10:39:48.199Z</time></trkpt><trkpt lat="44.0919112" lon="12.3844602"><ele>34.0</ele><time>2026-04-04T10:39:49.199Z</time></trkpt><trkpt lat="44.0919177" lon="12.3846235"><ele>34.0</ele><time>2026-04-04T10:39:50.199Z</time></trkpt><trkpt lat="44.0919279" lon="12.3847789"><ele>34.0</ele><time>2026-04-04T10:39:51.199Z</time></trkpt><trkpt lat="44.091935" lon="12.3849265"><ele>34.0</ele><time>2026-04-04T10:39:52.199Z</time></trkpt><trkpt lat="44.0919441" lon="12.3850943"><ele>34.2</ele><time>2026-04-04T10:39:53.199Z</time></trkpt><trkpt lat="44.0919526" lon="12.3852484"><ele>34.4</ele><time>2026-04-04T10:39:54.199Z</time></trkpt><trkpt lat="44.0919602" lon="12.3853975"><ele>34.6</ele><time>2026-04-04T10:39:55.199Z</time></trkpt><trkpt lat="44.0919694" lon="12.3855437"><ele>34.8</ele><time>2026-04-04T10:39:56.199Z</time></trkpt><trkpt lat="44.0919774" lon="12.3856772"><ele>35.0</ele><time>2026-04-04T10:39:57.199Z</time></trkpt><trkpt lat="44.0919849" lon="12.3858255"><ele>35.0</ele><time>2026-04-04T10:39:58.199Z</time></trkpt><trkpt lat="44.0919926" lon="12.3859625"><ele>35.0</ele><time>2026-04-04T10:39:59.199Z</time></trkpt><trkpt lat="44.0920013" lon="12.3860899"><ele>35.0</ele><time>2026-04-04T10:40:00.199Z</time></trkpt><trkpt lat="44.0920065" lon="12.3862343"><ele>35.0</ele><time>2026-04-04T10:40:01.199Z</time></trkpt><trkpt lat="44.0920146" lon="12.3863622"><ele>35.0</ele><time>2026-04-04T10:40:02.199Z</time></trkpt><trkpt lat="44.0920233" lon="12.3865098"><ele>34.6</ele><time>2026-04-04T10:40:03.199Z</time></trkpt><trkpt lat="44.0920323" lon="12.3866533"><ele>34.2</ele><time>2026-04-04T10:40:04.199Z</time></trkpt><trkpt lat="44.0920422" lon="12.3867931"><ele>33.8</ele><time>2026-04-04T10:40:05.199Z</time></trkpt><trkpt lat="44.0920527" lon="12.3869548"><ele>33.4</ele><time>2026-04-04T10:40:06.199Z</time></trkpt><trkpt lat="44.0920649" lon="12.3871104"><ele>33.0</ele><time>2026-04-04T10:40:07.199Z</time></trkpt><trkpt lat="44.0920743" lon="12.3872522"><ele>33.0</ele><time>2026-04-04T10:40:08.2Z</time></trkpt><trkpt lat="44.0920848" lon="12.3874108"><ele>33.0</ele><time>2026-04-04T10:40:09.199Z</time></trkpt><trkpt lat="44.0920934" lon="12.3875555"><ele>33.0</ele><time>2026-04-04T10:40:10.2Z</time></trkpt><trkpt lat="44.0921009" lon="12.3876958"><ele>33.0</ele><time>2026-04-04T10:40:11.199Z</time></trkpt><trkpt lat="44.0921064" lon="12.3878307"><ele>33.0</ele><time>2026-04-04T10:40:12.2Z</time></trkpt><trkpt lat="44.0921139" lon="12.3879536"><ele>33.0</ele><time>2026-04-04T10:40:13.199Z</time></trkpt><trkpt lat="44.0921308" lon="12.3880942"><ele>33.0</ele><time>2026-04-04T10:40:14.199Z</time></trkpt><trkpt lat="44.0921377" lon="12.3882265"><ele>33.0</ele><time>2026-04-04T10:40:15.199Z</time></trkpt><trkpt lat="44.09214" lon="12.3883509"><ele>33.0</ele><time>2026-04-04T10:40:16.199Z</time></trkpt><trkpt lat="44.0921474" lon="12.3884965"><ele>33.0</ele><time>2026-04-04T10:40:17.2Z</time></trkpt><trkpt lat="44.0921537" lon="12.3886268"><ele>33.0</ele><time>2026-04-04T10:40:18.199Z</time></trkpt><trkpt lat="44.0921618" lon="12.388778"><ele>33.0</ele><time>2026-04-04T10:40:19.199Z</time></trkpt><trkpt lat="44.0921691" lon="12.388919"><ele>33.0</ele><time>2026-04-04T10:40:20.199Z</time></trkpt><trkpt lat="44.0921752" lon="12.3890424"><ele>33.0</ele><time>2026-04-04T10:40:21.199Z</time></trkpt><trkpt lat="44.0921811" lon="12.3891734"><ele>33.0</ele><time>2026-04-04T10:40:22.199Z</time></trkpt><trkpt lat="44.0921853" lon="12.3892885"><ele>32.833333333333336</ele><time>2026-04-04T10:40:23.199Z</time></trkpt><trkpt lat="44.0921899" lon="12.3893897"><ele>32.666666666666664</ele><time>2026-04-04T10:40:24.199Z</time></trkpt><trkpt lat="44.0921944" lon="12.3894921"><ele>32.5</ele><time>2026-04-04T10:40:25.199Z</time></trkpt><trkpt lat="44.0922024" lon="12.3896468"><ele>32.33333333333333</ele><time>2026-04-04T10:40:27.199Z</time></trkpt><trkpt lat="44.0921985" lon="12.3897557"><ele>32.166666666666664</ele><time>2026-04-04T10:40:29.2Z</time></trkpt><trkpt lat="44.092203" lon="12.3899078"><ele>32.0</ele><time>2026-04-04T10:40:31.199Z</time></trkpt><trkpt lat="44.0922107" lon="12.3900402"><ele>31.999999999999996</ele><time>2026-04-04T10:40:33.2Z</time></trkpt><trkpt lat="44.0922172" lon="12.3901464"><ele>32.0</ele><time>2026-04-04T10:40:35.199Z</time></trkpt><trkpt lat="44.0922244" lon="12.390249"><ele>32.0</ele><time>2026-04-04T10:40:37.199Z</time></trkpt><trkpt lat="44.0921965" lon="12.3903727"><ele>32.0</ele><time>2026-04-04T10:40:39.2Z</time></trkpt><trkpt lat="44.0921118" lon="12.3904764"><ele>31.999999999999996</ele><time>2026-04-04T10:40:41.2Z</time></trkpt><trkpt lat="44.0920709" lon="12.3905439"><ele>32.0</ele><time>2026-04-04T10:40:42.199Z</time></trkpt><trkpt lat="44.091988" lon="12.3906461"><ele>32.0</ele><time>2026-04-04T10:40:44.2Z</time></trkpt><trkpt lat="44.0918987" lon="12.3907206"><ele>32.0</ele><time>2026-04-04T10:40:46.199Z</time></trkpt><trkpt lat="44.0918081" lon="12.3907697"><ele>32.0</ele><time>2026-04-04T10:40:48.199Z</time></trkpt><trkpt lat="44.0917226" lon="12.3907922"><ele>32.0</ele><time>2026-04-04T10:40:50.199Z</time></trkpt><trkpt lat="44.0916333" lon="12.3908124"><ele>32.0</ele><time>2026-04-04T10:40:52.199Z</time></trkpt><trkpt lat="44.0915464" lon="12.3908285"><ele>32.4</ele><time>2026-04-04T10:40:54.199Z</time></trkpt><trkpt lat="44.0914465" lon="12.3908323"><ele>32.800000000000004</ele><time>2026-04-04T10:40:56.199Z</time></trkpt><trkpt lat="44.0913754" lon="12.3908464"><ele>33.2</ele><time>2026-04-04T10:40:57.199Z</time></trkpt><trkpt lat="44.091289" lon="12.3908671"><ele>33.6</ele><time>2026-04-04T10:40:58.199Z</time></trkpt><trkpt lat="44.0912031" lon="12.390892"><ele>34.0</ele><time>2026-04-04T10:40:59.199Z</time></trkpt><trkpt lat="44.0910903" lon="12.3909097"><ele>34.0</ele><time>2026-04-04T10:41:00.199Z</time></trkpt><trkpt lat="44.0909721" lon="12.390923"><ele>34.0</ele><time>2026-04-04T10:41:01.199Z</time></trkpt><trkpt lat="44.0908508" lon="12.3909321"><ele>34.0</ele><time>2026-04-04T10:41:02.199Z</time></trkpt><trkpt lat="44.0907255" lon="12.3909462"><ele>34.0</ele><time>2026-04-04T10:41:03.199Z</time></trkpt><trkpt lat="44.0905975" lon="12.3909572"><ele>33.75</ele><time>2026-04-04T10:41:04.2Z</time></trkpt><trkpt lat="44.0904677" lon="12.3909716"><ele>33.5</ele><time>2026-04-04T10:41:05.2Z</time></trkpt><trkpt lat="44.0903358" lon="12.3909847"><ele>33.25</ele><time>2026-04-04T10:41:06.199Z</time></trkpt><trkpt lat="44.0902034" lon="12.3909997"><ele>33.0</ele><time>2026-04-04T10:41:07.199Z</time></trkpt><trkpt lat="44.0900725" lon="12.3910195"><ele>33.0</ele><time>2026-04-04T10:41:08.199Z</time></trkpt><trkpt lat="44.0899387" lon="12.3910292"><ele>33.0</ele><time>2026-04-04T10:41:09.199Z</time></trkpt><trkpt lat="44.0898078" lon="12.3910386"><ele>33.0</ele><time>2026-04-04T10:41:10.199Z</time></trkpt><trkpt lat="44.0896761" lon="12.3910508"><ele>33.0</ele><time>2026-04-04T10:41:11.199Z</time></trkpt><trkpt lat="44.089547" lon="12.3910647"><ele>33.25</ele><time>2026-04-04T10:41:12.2Z</time></trkpt><trkpt lat="44.0894162" lon="12.3910739"><ele>33.5</ele><time>2026-04-04T10:41:13.199Z</time></trkpt><trkpt lat="44.0892795" lon="12.3910794"><ele>33.75</ele><time>2026-04-04T10:41:14.199Z</time></trkpt><trkpt lat="44.0891608" lon="12.3910775"><ele>34.0</ele><time>2026-04-04T10:41:15.2Z</time></trkpt><trkpt lat="44.0890361" lon="12.3910685"><ele>34.0</ele><time>2026-04-04T10:41:16.199Z</time></trkpt><trkpt lat="44.0889039" lon="12.3910541"><ele>34.0</ele><time>2026-04-04T10:41:17.199Z</time></trkpt><trkpt lat="44.0887693" lon="12.391044"><ele>34.0</ele><time>2026-04-04T10:41:18.2Z</time></trkpt><trkpt lat="44.0886272" lon="12.3910204"><ele>34.0</ele><time>2026-04-04T10:41:19.2Z</time></trkpt><trkpt lat="44.0884734" lon="12.3909869"><ele>34.0</ele><time>2026-04-04T10:41:20.2Z</time></trkpt><trkpt lat="44.088316" lon="12.3909367"><ele>34.0</ele><time>2026-04-04T10:41:21.2Z</time></trkpt><trkpt lat="44.0881541" lon="12.3908627"><ele>34.0</ele><time>2026-04-04T10:41:22.2Z</time></trkpt><trkpt lat="44.0879953" lon="12.3907718"><ele>34.0</ele><time>2026-04-04T10:41:23.199Z</time></trkpt><trkpt lat="44.0878362" lon="12.3906769"><ele>34.0</ele><time>2026-04-04T10:41:24.2Z</time></trkpt><trkpt lat="44.0876757" lon="12.3905847"><ele>34.0</ele><time>2026-04-04T10:41:25.199Z</time></trkpt><trkpt lat="44.0875115" lon="12.3904937"><ele>34.66666666666667</ele><time>2026-04-04T10:41:26.199Z</time></trkpt><trkpt lat="44.0873497" lon="12.3904038"><ele>35.333333333333336</ele><time>2026-04-04T10:41:27.2Z</time></trkpt><trkpt lat="44.0871866" lon="12.390316"><ele>36.0</ele><time>2026-04-04T10:41:28.199Z</time></trkpt><trkpt lat="44.0870278" lon="12.3902361"><ele>36.0</ele><time>2026-04-04T10:41:29.199Z</time></trkpt><trkpt lat="44.0868596" lon="12.3901459"><ele>36.0</ele><time>2026-04-04T10:41:30.199Z</time></trkpt><trkpt lat="44.0867099" lon="12.390063"><ele>36.0</ele><time>2026-04-04T10:41:31.199Z</time></trkpt><trkpt lat="44.0865475" lon="12.3899759"><ele>36.0</ele><time>2026-04-04T10:41:32.199Z</time></trkpt><trkpt lat="44.0863824" lon="12.3898851"><ele>36.0</ele><time>2026-04-04T10:41:33.2Z</time></trkpt><trkpt lat="44.0862151" lon="12.3897915"><ele>36.0</ele><time>2026-04-04T10:41:34.199Z</time></trkpt><trkpt lat="44.0860451" lon="12.3897002"><ele>35.666666666666664</ele><time>2026-04-04T10:41:35.2Z</time></trkpt><trkpt lat="44.08587" lon="12.3896125"><ele>35.33333333333333</ele><time>2026-04-04T10:41:36.199Z</time></trkpt><trkpt lat="44.0856847" lon="12.3895407"><ele>35.0</ele><time>2026-04-04T10:41:37.199Z</time></trkpt><trkpt lat="44.0855014" lon="12.3894756"><ele>34.666666666666664</ele><time>2026-04-04T10:41:38.2Z</time></trkpt><trkpt lat="44.0853145" lon="12.3894268"><ele>34.333333333333336</ele><time>2026-04-04T10:41:39.2Z</time></trkpt><trkpt lat="44.0851232" lon="12.3893956"><ele>34.0</ele><time>2026-04-04T10:41:40.199Z</time></trkpt><trkpt lat="44.0849304" lon="12.3893781"><ele>33.66666666666667</ele><time>2026-04-04T10:41:41.199Z</time></trkpt><trkpt lat="44.0847345" lon="12.3893752"><ele>33.333333333333336</ele><time>2026-04-04T10:41:42.2Z</time></trkpt><trkpt lat="44.0845373" lon="12.389389"><ele>33.0</ele><time>2026-04-04T10:41:43.2Z</time></trkpt><trkpt lat="44.0843385" lon="12.3894154"><ele>33.0</ele><time>2026-04-04T10:41:44.199Z</time></trkpt><trkpt lat="44.0841389" lon="12.389451"><ele>33.0</ele><time>2026-04-04T10:41:45.199Z</time></trkpt><trkpt lat="44.0839246" lon="12.3894937"><ele>33.0</ele><time>2026-04-04T10:41:46.2Z</time></trkpt><trkpt lat="44.083734" lon="12.3895328"><ele>33.0</ele><time>2026-04-04T10:41:47.199Z</time></trkpt><trkpt lat="44.0835328" lon="12.3895745"><ele>33.0</ele><time>2026-04-04T10:41:48.199Z</time></trkpt><trkpt lat="44.0833319" lon="12.3896156"><ele>33.0</ele><time>2026-04-04T10:41:49.199Z</time></trkpt><trkpt lat="44.083133" lon="12.3896539"><ele>33.666666666666664</ele><time>2026-04-04T10:41:50.2Z</time></trkpt><trkpt lat="44.0829329" lon="12.389697"><ele>34.33333333333333</ele><time>2026-04-04T10:41:51.199Z</time></trkpt><trkpt lat="44.0827357" lon="12.3897334"><ele>35.0</ele><time>2026-04-04T10:41:52.2Z</time></trkpt><trkpt lat="44.0825396" lon="12.3897754"><ele>35.666666666666664</ele><time>2026-04-04T10:41:53.2Z</time></trkpt><trkpt lat="44.0823582" lon="12.3898102"><ele>36.333333333333336</ele><time>2026-04-04T10:41:54.199Z</time></trkpt><trkpt lat="44.0821544" lon="12.3898517"><ele>37.0</ele><time>2026-04-04T10:41:55.199Z</time></trkpt><trkpt lat="44.0819667" lon="12.3898859"><ele>37.0</ele><time>2026-04-04T10:41:56.199Z</time></trkpt><trkpt lat="44.0817793" lon="12.3899196"><ele>37.0</ele><time>2026-04-04T10:41:57.199Z</time></trkpt><trkpt lat="44.0815947" lon="12.3899559"><ele>37.0</ele><time>2026-04-04T10:41:58.199Z</time></trkpt><trkpt lat="44.081413" lon="12.3899942"><ele>38.333333333333336</ele><time>2026-04-04T10:41:59.199Z</time></trkpt><trkpt lat="44.0812324" lon="12.3900289"><ele>39.666666666666664</ele><time>2026-04-04T10:42:00.2Z</time></trkpt><trkpt lat="44.0810521" lon="12.3900608"><ele>41.0</ele><time>2026-04-04T10:42:01.199Z</time></trkpt><trkpt lat="44.0808793" lon="12.3900897"><ele>42.33333333333333</ele><time>2026-04-04T10:42:02.2Z</time></trkpt><trkpt lat="44.0807121" lon="12.3901073"><ele>43.666666666666664</ele><time>2026-04-04T10:42:03.2Z</time></trkpt><trkpt lat="44.0805502" lon="12.3901211"><ele>45.0</ele><time>2026-04-04T10:42:04.2Z</time></trkpt><trkpt lat="44.0803864" lon="12.3901236"><ele>45.0</ele><time>2026-04-04T10:42:05.199Z</time></trkpt><trkpt lat="44.0802214" lon="12.3901083"><ele>45.0</ele><time>2026-04-04T10:42:06.199Z</time></trkpt><trkpt lat="44.080056" lon="12.3900844"><ele>45.0</ele><time>2026-04-04T10:42:07.199Z</time></trkpt><trkpt lat="44.0798926" lon="12.3900446"><ele>45.333333333333336</ele><time>2026-04-04T10:42:08.2Z</time></trkpt><trkpt lat="44.0797311" lon="12.389987"><ele>45.66666666666667</ele><time>2026-04-04T10:42:09.2Z</time></trkpt><trkpt lat="44.079568" lon="12.389918"><ele>46.0</ele><time>2026-04-04T10:42:10.2Z</time></trkpt><trkpt lat="44.079409" lon="12.3898294"><ele>46.0</ele><time>2026-04-04T10:42:11.199Z</time></trkpt><trkpt lat="44.0792668" lon="12.3897327"><ele>46.0</ele><time>2026-04-04T10:42:12.199Z</time></trkpt><trkpt lat="44.0791366" lon="12.3896254"><ele>46.0</ele><time>2026-04-04T10:42:13.199Z</time></trkpt><trkpt lat="44.0790127" lon="12.3895131"><ele>46.0</ele><time>2026-04-04T10:42:14.2Z</time></trkpt><trkpt lat="44.0788946" lon="12.3893998"><ele>46.0</ele><time>2026-04-04T10:42:15.199Z</time></trkpt><trkpt lat="44.0787847" lon="12.3892823"><ele>46.0</ele><time>2026-04-04T10:42:16.2Z</time></trkpt><trkpt lat="44.0786765" lon="12.3891607"><ele>46.0</ele><time>2026-04-04T10:42:17.199Z</time></trkpt><trkpt lat="44.0785698" lon="12.389025"><ele>46.0</ele><time>2026-04-04T10:42:18.199Z</time></trkpt><trkpt lat="44.0784763" lon="12.3888974"><ele>46.0</ele><time>2026-04-04T10:42:19.199Z</time></trkpt><trkpt lat="44.0783749" lon="12.3887601"><ele>46.0</ele><time>2026-04-04T10:42:20.199Z</time></trkpt><trkpt lat="44.0782739" lon="12.3886263"><ele>46.0</ele><time>2026-04-04T10:42:21.199Z</time></trkpt><trkpt lat="44.0781751" lon="12.3885035"><ele>47.5</ele><time>2026-04-04T10:42:22.2Z</time></trkpt><trkpt lat="44.0780723" lon="12.3883871"><ele>49.0</ele><time>2026-04-04T10:42:23.2Z</time></trkpt><trkpt lat="44.077968" lon="12.3882773"><ele>50.5</ele><time>2026-04-04T10:42:24.2Z</time></trkpt><trkpt lat="44.0778586" lon="12.3881763"><ele>52.0</ele><time>2026-04-04T10:42:25.199Z</time></trkpt><trkpt lat="44.0777547" lon="12.3880931"><ele>51.0</ele><time>2026-04-04T10:42:26.199Z</time></trkpt><trkpt lat="44.0776383" lon="12.3880086"><ele>50.0</ele><time>2026-04-04T10:42:27.2Z</time></trkpt><trkpt lat="44.0775295" lon="12.3879381"><ele>49.0</ele><time>2026-04-04T10:42:28.199Z</time></trkpt><trkpt lat="44.0774192" lon="12.3878739"><ele>48.0</ele><time>2026-04-04T10:42:29.2Z</time></trkpt><trkpt lat="44.0773084" lon="12.3878216"><ele>50.0</ele><time>2026-04-04T10:42:30.199Z</time></trkpt><trkpt lat="44.0771931" lon="12.3877829"><ele>52.0</ele><time>2026-04-04T10:42:31.2Z</time></trkpt><trkpt lat="44.0770574" lon="12.3877645"><ele>54.0</ele><time>2026-04-04T10:42:32.2Z</time></trkpt><trkpt lat="44.0768963" lon="12.3877701"><ele>56.0</ele><time>2026-04-04T10:42:33.199Z</time></trkpt><trkpt lat="44.0767172" lon="12.3877839"><ele>57.0</ele><time>2026-04-04T10:42:34.199Z</time></trkpt><trkpt lat="44.0765225" lon="12.3877887"><ele>58.0</ele><time>2026-04-04T10:42:35.199Z</time></trkpt><trkpt lat="44.0763209" lon="12.3877803"><ele>59.0</ele><time>2026-04-04T10:42:36.199Z</time></trkpt><trkpt lat="44.0761226" lon="12.3877657"><ele>59.0</ele><time>2026-04-04T10:42:37.199Z</time></trkpt><trkpt lat="44.0759292" lon="12.3877447"><ele>59.0</ele><time>2026-04-04T10:42:38.199Z</time></trkpt><trkpt lat="44.0757393" lon="12.3877275"><ele>59.0</ele><time>2026-04-04T10:42:39.199Z</time></trkpt><trkpt lat="44.0755546" lon="12.3877092"><ele>59.0</ele><time>2026-04-04T10:42:40.199Z</time></trkpt><trkpt lat="44.0753806" lon="12.3876916"><ele>59.0</ele><time>2026-04-04T10:42:41.199Z</time></trkpt><trkpt lat="44.0752277" lon="12.3876696"><ele>59.0</ele><time>2026-04-04T10:42:42.199Z</time></trkpt><trkpt lat="44.0750656" lon="12.387652"><ele>59.5</ele><time>2026-04-04T10:42:43.199Z</time></trkpt><trkpt lat="44.074917" lon="12.3876347"><ele>60.0</ele><time>2026-04-04T10:42:44.199Z</time></trkpt><trkpt lat="44.0747705" lon="12.3876172"><ele>60.5</ele><time>2026-04-04T10:42:45.199Z</time></trkpt><trkpt lat="44.0746326" lon="12.3876015"><ele>61.0</ele><time>2026-04-04T10:42:46.199Z</time></trkpt><trkpt lat="44.0744913" lon="12.3875789"><ele>61.0</ele><time>2026-04-04T10:42:47.199Z</time></trkpt><trkpt lat="44.0743488" lon="12.38756"><ele>61.0</ele><time>2026-04-04T10:42:48.199Z</time></trkpt><trkpt lat="44.0742092" lon="12.3875366"><ele>61.0</ele><time>2026-04-04T10:42:49.2Z</time></trkpt><trkpt lat="44.0740701" lon="12.3874917"><ele>61.0</ele><time>2026-04-04T10:42:50.199Z</time></trkpt><trkpt lat="44.0739353" lon="12.387426"><ele>61.0</ele><time>2026-04-04T10:42:51.199Z</time></trkpt><trkpt lat="44.0738005" lon="12.3873369"><ele>61.0</ele><time>2026-04-04T10:42:52.199Z</time></trkpt><trkpt lat="44.0736688" lon="12.3872369"><ele>61.0</ele><time>2026-04-04T10:42:53.199Z</time></trkpt><trkpt lat="44.0735418" lon="12.3871258"><ele>61.0</ele><time>2026-04-04T10:42:54.199Z</time></trkpt><trkpt lat="44.0734105" lon="12.3870181"><ele>61.0</ele><time>2026-04-04T10:42:55.199Z</time></trkpt><trkpt lat="44.0732739" lon="12.3869167"><ele>61.0</ele><time>2026-04-04T10:42:56.199Z</time></trkpt><trkpt lat="44.0731337" lon="12.3868273"><ele>61.0</ele><time>2026-04-04T10:42:57.199Z</time></trkpt><trkpt lat="44.0729954" lon="12.3867591"><ele>62.0</ele><time>2026-04-04T10:42:58.199Z</time></trkpt><trkpt lat="44.0728334" lon="12.3867002"><ele>63.0</ele><time>2026-04-04T10:42:59.199Z</time></trkpt><trkpt lat="44.0726763" lon="12.3866633"><ele>64.0</ele><time>2026-04-04T10:43:00.199Z</time></trkpt><trkpt lat="44.0725177" lon="12.3866359"><ele>65.66666666666666</ele><time>2026-04-04T10:43:01.2Z</time></trkpt><trkpt lat="44.0723577" lon="12.3866182"><ele>67.33333333333333</ele><time>2026-04-04T10:43:02.2Z</time></trkpt><trkpt lat="44.0721971" lon="12.3866072"><ele>69.0</ele><time>2026-04-04T10:43:03.199Z</time></trkpt><trkpt lat="44.0720409" lon="12.3865984"><ele>69.0</ele><time>2026-04-04T10:43:04.199Z</time></trkpt><trkpt lat="44.0718896" lon="12.3865936"><ele>69.0</ele><time>2026-04-04T10:43:05.2Z</time></trkpt><trkpt lat="44.0717446" lon="12.3865884"><ele>69.0</ele><time>2026-04-04T10:43:06.2Z</time></trkpt><trkpt lat="44.0716057" lon="12.3865805"><ele>69.0</ele><time>2026-04-04T10:43:07.199Z</time></trkpt><trkpt lat="44.0714698" lon="12.3865722"><ele>69.75</ele><time>2026-04-04T10:43:08.2Z</time></trkpt><trkpt lat="44.0713368" lon="12.3865608"><ele>70.5</ele><time>2026-04-04T10:43:09.2Z</time></trkpt><trkpt lat="44.0712047" lon="12.3865463"><ele>71.25</ele><time>2026-04-04T10:43:10.199Z</time></trkpt><trkpt lat="44.0710723" lon="12.3865231"><ele>72.0</ele><time>2026-04-04T10:43:11.199Z</time></trkpt><trkpt lat="44.0709412" lon="12.3864914"><ele>72.0</ele><time>2026-04-04T10:43:12.199Z</time></trkpt><trkpt lat="44.0708074" lon="12.3864559"><ele>72.0</ele><time>2026-04-04T10:43:13.2Z</time></trkpt><trkpt lat="44.070679" lon="12.3864181"><ele>72.0</ele><time>2026-04-04T10:43:14.199Z</time></trkpt><trkpt lat="44.0705295" lon="12.3863725"><ele>72.0</ele><time>2026-04-04T10:43:15.199Z</time></trkpt><trkpt lat="44.0703938" lon="12.3863222"><ele>73.75</ele><time>2026-04-04T10:43:16.2Z</time></trkpt><trkpt lat="44.0702754" lon="12.3862591"><ele>75.5</ele><time>2026-04-04T10:43:17.199Z</time></trkpt><trkpt lat="44.0701647" lon="12.3861789"><ele>77.25</ele><time>2026-04-04T10:43:18.199Z</time></trkpt><trkpt lat="44.0700655" lon="12.3860766"><ele>79.0</ele><time>2026-04-04T10:43:19.199Z</time></trkpt><trkpt lat="44.0699838" lon="12.3859484"><ele>77.75</ele><time>2026-04-04T10:43:20.199Z</time></trkpt><trkpt lat="44.0699227" lon="12.3857991"><ele>76.5</ele><time>2026-04-04T10:43:21.199Z</time></trkpt><trkpt lat="44.0698767" lon="12.3856231"><ele>75.25</ele><time>2026-04-04T10:43:22.199Z</time></trkpt><trkpt lat="44.0698401" lon="12.3854111"><ele>74.0</ele><time>2026-04-04T10:43:23.199Z</time></trkpt><trkpt lat="44.0698149" lon="12.3851686"><ele>74.0</ele><time>2026-04-04T10:43:24.199Z</time></trkpt><trkpt lat="44.0697951" lon="12.3849195"><ele>74.0</ele><time>2026-04-04T10:43:25.2Z</time></trkpt><trkpt lat="44.0697761" lon="12.3846804"><ele>74.0</ele><time>2026-04-04T10:43:26.199Z</time></trkpt><trkpt lat="44.0697601" lon="12.3844571"><ele>74.0</ele><time>2026-04-04T10:43:27.2Z</time></trkpt><trkpt lat="44.0697477" lon="12.3842543"><ele>74.0</ele><time>2026-04-04T10:43:28.199Z</time></trkpt><trkpt lat="44.0697339" lon="12.3840633"><ele>74.0</ele><time>2026-04-04T10:43:29.2Z</time></trkpt><trkpt lat="44.0697211" lon="12.3838852"><ele>74.0</ele><time>2026-04-04T10:43:30.199Z</time></trkpt><trkpt lat="44.069709" lon="12.3836838"><ele>75.0</ele><time>2026-04-04T10:43:31.2Z</time></trkpt><trkpt lat="44.0696946" lon="12.3834987"><ele>76.0</ele><time>2026-04-04T10:43:32.199Z</time></trkpt><trkpt lat="44.0696839" lon="12.3833224"><ele>77.0</ele><time>2026-04-04T10:43:33.199Z</time></trkpt><trkpt lat="44.0696702" lon="12.3831532"><ele>78.0</ele><time>2026-04-04T10:43:34.199Z</time></trkpt><trkpt lat="44.0696513" lon="12.3829888"><ele>79.25</ele><time>2026-04-04T10:43:35.199Z</time></trkpt><trkpt lat="44.0696254" lon="12.3828313"><ele>80.5</ele><time>2026-04-04T10:43:36.199Z</time></trkpt><trkpt lat="44.069579" lon="12.3826835"><ele>81.75</ele><time>2026-04-04T10:43:37.199Z</time></trkpt><trkpt lat="44.0695018" lon="12.3825509"><ele>83.0</ele><time>2026-04-04T10:43:38.2Z</time></trkpt><trkpt lat="44.0693873" lon="12.3824376"><ele>83.0</ele><time>2026-04-04T10:43:39.199Z</time></trkpt><trkpt lat="44.0692326" lon="12.3823329"><ele>83.0</ele><time>2026-04-04T10:43:40.2Z</time></trkpt><trkpt lat="44.0690486" lon="12.3822213"><ele>83.0</ele><time>2026-04-04T10:43:41.2Z</time></trkpt><trkpt lat="44.0688577" lon="12.3821098"><ele>83.0</ele><time>2026-04-04T10:43:42.199Z</time></trkpt><trkpt lat="44.0686623" lon="12.3819918"><ele>83.0</ele><time>2026-04-04T10:43:43.199Z</time></trkpt><trkpt lat="44.0684698" lon="12.3818785"><ele>83.0</ele><time>2026-04-04T10:43:44.2Z</time></trkpt><trkpt lat="44.0682812" lon="12.3817747"><ele>83.33333333333334</ele><time>2026-04-04T10:43:45.199Z</time></trkpt><trkpt lat="44.0681093" lon="12.3816788"><ele>83.66666666666667</ele><time>2026-04-04T10:43:46.199Z</time></trkpt><trkpt lat="44.0679187" lon="12.3815758"><ele>84.0</ele><time>2026-04-04T10:43:47.2Z</time></trkpt><trkpt lat="44.067745" lon="12.3814838"><ele>84.0</ele><time>2026-04-04T10:43:48.2Z</time></trkpt><trkpt lat="44.0675767" lon="12.3813913"><ele>84.0</ele><time>2026-04-04T10:43:49.2Z</time></trkpt><trkpt lat="44.0674082" lon="12.3813031"><ele>84.0</ele><time>2026-04-04T10:43:50.199Z</time></trkpt><trkpt lat="44.0672429" lon="12.3812157"><ele>84.0</ele><time>2026-04-04T10:43:51.199Z</time></trkpt><trkpt lat="44.0670784" lon="12.3811307"><ele>84.0</ele><time>2026-04-04T10:43:52.199Z</time></trkpt><trkpt lat="44.0669167" lon="12.3810499"><ele>84.0</ele><time>2026-04-04T10:43:53.199Z</time></trkpt><trkpt lat="44.0667571" lon="12.380974"><ele>83.33333333333333</ele><time>2026-04-04T10:43:54.2Z</time></trkpt><trkpt lat="44.066597" lon="12.3809002"><ele>82.66666666666666</ele><time>2026-04-04T10:43:55.2Z</time></trkpt><trkpt lat="44.0664409" lon="12.380824"><ele>82.0</ele><time>2026-04-04T10:43:56.199Z</time></trkpt><trkpt lat="44.066284" lon="12.3807495"><ele>82.0</ele><time>2026-04-04T10:43:57.199Z</time></trkpt><trkpt lat="44.0661288" lon="12.3806783"><ele>82.0</ele><time>2026-04-04T10:43:58.199Z</time></trkpt><trkpt lat="44.0659732" lon="12.3806008"><ele>82.0</ele><time>2026-04-04T10:43:59.199Z</time></trkpt><trkpt lat="44.0658153" lon="12.3805226"><ele>83.33333333333333</ele><time>2026-04-04T10:44:00.199Z</time></trkpt><trkpt lat="44.0656591" lon="12.3804433"><ele>84.66666666666667</ele><time>2026-04-04T10:44:01.2Z</time></trkpt><trkpt lat="44.0655133" lon="12.3803706"><ele>86.0</ele><time>2026-04-04T10:44:02.199Z</time></trkpt><trkpt lat="44.0653456" lon="12.3802962"><ele>86.0</ele><time>2026-04-04T10:44:03.199Z</time></trkpt><trkpt lat="44.0651855" lon="12.3802371"><ele>86.0</ele><time>2026-04-04T10:44:04.199Z</time></trkpt><trkpt lat="44.0650247" lon="12.3801888"><ele>86.0</ele><time>2026-04-04T10:44:05.199Z</time></trkpt><trkpt lat="44.0648581" lon="12.3801632"><ele>85.66666666666667</ele><time>2026-04-04T10:44:06.199Z</time></trkpt><trkpt lat="44.0646867" lon="12.3801472"><ele>85.33333333333333</ele><time>2026-04-04T10:44:07.199Z</time></trkpt><trkpt lat="44.0645104" lon="12.3801386"><ele>85.0</ele><time>2026-04-04T10:44:08.2Z</time></trkpt><trkpt lat="44.0643339" lon="12.380132"><ele>85.0</ele><time>2026-04-04T10:44:09.199Z</time></trkpt><trkpt lat="44.0641558" lon="12.3801275"><ele>85.0</ele><time>2026-04-04T10:44:10.199Z</time></trkpt><trkpt lat="44.0639789" lon="12.380123"><ele>85.0</ele><time>2026-04-04T10:44:11.199Z</time></trkpt><trkpt lat="44.0638061" lon="12.3801218"><ele>87.0</ele><time>2026-04-04T10:44:12.199Z</time></trkpt><trkpt lat="44.0636376" lon="12.3801252"><ele>89.0</ele><time>2026-04-04T10:44:13.2Z</time></trkpt><trkpt lat="44.0634708" lon="12.3801251"><ele>91.0</ele><time>2026-04-04T10:44:14.199Z</time></trkpt><trkpt lat="44.0633023" lon="12.3801171"><ele>92.66666666666666</ele><time>2026-04-04T10:44:15.199Z</time></trkpt><trkpt lat="44.0631361" lon="12.3801058"><ele>94.33333333333333</ele><time>2026-04-04T10:44:16.199Z</time></trkpt><trkpt lat="44.0629727" lon="12.380095"><ele>96.0</ele><time>2026-04-04T10:44:17.2Z</time></trkpt><trkpt lat="44.0628229" lon="12.3800859"><ele>96.0</ele><time>2026-04-04T10:44:18.199Z</time></trkpt><trkpt lat="44.0626583" lon="12.3800778"><ele>96.0</ele><time>2026-04-04T10:44:19.199Z</time></trkpt><trkpt lat="44.0625156" lon="12.3800703"><ele>96.0</ele><time>2026-04-04T10:44:20.199Z</time></trkpt><trkpt lat="44.0623866" lon="12.3800649"><ele>96.0</ele><time>2026-04-04T10:44:21.199Z</time></trkpt><trkpt lat="44.0622733" lon="12.3800599"><ele>96.83333333333333</ele><time>2026-04-04T10:44:22.2Z</time></trkpt><trkpt lat="44.0621737" lon="12.3800532"><ele>97.66666666666666</ele><time>2026-04-04T10:44:23.199Z</time></trkpt><trkpt lat="44.0620888" lon="12.3800518"><ele>98.5</ele><time>2026-04-04T10:44:24.2Z</time></trkpt><trkpt lat="44.0620235" lon="12.3800705"><ele>99.33333333333333</ele><time>2026-04-04T10:44:25.199Z</time></trkpt><trkpt lat="44.0619637" lon="12.3801944"><ele>100.16666666666666</ele><time>2026-04-04T10:44:27.199Z</time></trkpt><trkpt lat="44.0619608" lon="12.3802905"><ele>101.0</ele><time>2026-04-04T10:44:28.2Z</time></trkpt><trkpt lat="44.0619619" lon="12.3804026"><ele>100.99999999999999</ele><time>2026-04-04T10:44:29.199Z</time></trkpt><trkpt lat="44.061953" lon="12.3805143"><ele>101.0</ele><time>2026-04-04T10:44:30.199Z</time></trkpt><trkpt lat="44.0619254" lon="12.3806157"><ele>101.0</ele><time>2026-04-04T10:44:31.199Z</time></trkpt><trkpt lat="44.0618739" lon="12.3807117"><ele>101.0</ele><time>2026-04-04T10:44:32.199Z</time></trkpt><trkpt lat="44.0618108" lon="12.3808005"><ele>100.99999999999999</ele><time>2026-04-04T10:44:33.199Z</time></trkpt><trkpt lat="44.0617347" lon="12.3808799"><ele>101.0</ele><time>2026-04-04T10:44:34.199Z</time></trkpt><trkpt lat="44.0616414" lon="12.3809651"><ele>98.5</ele><time>2026-04-04T10:44:35.2Z</time></trkpt><trkpt lat="44.0615504" lon="12.3810475"><ele>96.0</ele><time>2026-04-04T10:44:36.2Z</time></trkpt><trkpt lat="44.0614551" lon="12.3811235"><ele>93.5</ele><time>2026-04-04T10:44:37.199Z</time></trkpt><trkpt lat="44.06135" lon="12.3812089"><ele>91.0</ele><time>2026-04-04T10:44:38.2Z</time></trkpt><trkpt lat="44.0612507" lon="12.3812983"><ele>90.0</ele><time>2026-04-04T10:44:39.199Z</time></trkpt><trkpt lat="44.0611548" lon="12.3813942"><ele>89.0</ele><time>2026-04-04T10:44:40.199Z</time></trkpt><trkpt lat="44.0610684" lon="12.3814907"><ele>88.0</ele><time>2026-04-04T10:44:41.2Z</time></trkpt><trkpt lat="44.0609887" lon="12.3815974"><ele>87.0</ele><time>2026-04-04T10:44:42.199Z</time></trkpt><trkpt lat="44.060914" lon="12.3817103"><ele>87.0</ele><time>2026-04-04T10:44:43.2Z</time></trkpt><trkpt lat="44.0608435" lon="12.3818223"><ele>87.0</ele><time>2026-04-04T10:44:44.199Z</time></trkpt><trkpt lat="44.0607693" lon="12.3819238"><ele>87.0</ele><time>2026-04-04T10:44:45.199Z</time></trkpt><trkpt lat="44.0606862" lon="12.3820113"><ele>87.0</ele><time>2026-04-04T10:44:46.2Z</time></trkpt><trkpt lat="44.0605925" lon="12.3820792"><ele>87.0</ele><time>2026-04-04T10:44:47.199Z</time></trkpt><trkpt lat="44.0604927" lon="12.3821554"><ele>85.0</ele><time>2026-04-04T10:44:48.199Z</time></trkpt><trkpt lat="44.0603889" lon="12.382234"><ele>83.0</ele><time>2026-04-04T10:44:49.199Z</time></trkpt><trkpt lat="44.0602891" lon="12.3823028"><ele>81.0</ele><time>2026-04-04T10:44:50.199Z</time></trkpt><trkpt lat="44.0601736" lon="12.3823852"><ele>79.0</ele><time>2026-04-04T10:44:51.2Z</time></trkpt><trkpt lat="44.0600616" lon="12.3824669"><ele>79.0</ele><time>2026-04-04T10:44:52.2Z</time></trkpt><trkpt lat="44.0599548" lon="12.3825522"><ele>79.0</ele><time>2026-04-04T10:44:53.199Z</time></trkpt><trkpt lat="44.0598508" lon="12.3826419"><ele>79.0</ele><time>2026-04-04T10:44:54.2Z</time></trkpt><trkpt lat="44.0597483" lon="12.3827367"><ele>79.0</ele><time>2026-04-04T10:44:55.2Z</time></trkpt><trkpt lat="44.0596474" lon="12.3828249"><ele>77.8</ele><time>2026-04-04T10:44:56.199Z</time></trkpt><trkpt lat="44.0595481" lon="12.3829081"><ele>76.60000000000001</ele><time>2026-04-04T10:44:57.199Z</time></trkpt><trkpt lat="44.059451" lon="12.3829681"><ele>75.4</ele><time>2026-04-04T10:44:58.199Z</time></trkpt><trkpt lat="44.0593481" lon="12.3830063"><ele>74.2</ele><time>2026-04-04T10:44:59.199Z</time></trkpt><trkpt lat="44.059236" lon="12.3830165"><ele>73.0</ele><time>2026-04-04T10:45:00.199Z</time></trkpt><trkpt lat="44.0591207" lon="12.3829936"><ele>73.0</ele><time>2026-04-04T10:45:01.2Z</time></trkpt><trkpt lat="44.0590084" lon="12.3829643"><ele>73.0</ele><time>2026-04-04T10:45:02.199Z</time></trkpt><trkpt lat="44.0588986" lon="12.3829273"><ele>73.0</ele><time>2026-04-04T10:45:03.2Z</time></trkpt><trkpt lat="44.0587888" lon="12.3828953"><ele>73.0</ele><time>2026-04-04T10:45:04.2Z</time></trkpt><trkpt lat="44.0586762" lon="12.3829007"><ele>73.0</ele><time>2026-04-04T10:45:05.199Z</time></trkpt><trkpt lat="44.0585736" lon="12.3829412"><ele>73.0</ele><time>2026-04-04T10:45:06.199Z</time></trkpt><trkpt lat="44.0584657" lon="12.3830192"><ele>73.0</ele><time>2026-04-04T10:45:07.199Z</time></trkpt><trkpt lat="44.0583717" lon="12.3831113"><ele>73.0</ele><time>2026-04-04T10:45:08.2Z</time></trkpt><trkpt lat="44.0582777" lon="12.3832159"><ele>71.25</ele><time>2026-04-04T10:45:09.199Z</time></trkpt><trkpt lat="44.0581813" lon="12.3833156"><ele>69.5</ele><time>2026-04-04T10:45:10.199Z</time></trkpt><trkpt lat="44.0580792" lon="12.3834033"><ele>67.75</ele><time>2026-04-04T10:45:11.199Z</time></trkpt><trkpt lat="44.0579671" lon="12.3834681"><ele>66.0</ele><time>2026-04-04T10:45:12.199Z</time></trkpt><trkpt lat="44.0578478" lon="12.3835142"><ele>66.0</ele><time>2026-04-04T10:45:13.199Z</time></trkpt><trkpt lat="44.057723" lon="12.383551"><ele>66.0</ele><time>2026-04-04T10:45:14.199Z</time></trkpt><trkpt lat="44.0575941" lon="12.3835791"><ele>66.0</ele><time>2026-04-04T10:45:15.199Z</time></trkpt><trkpt lat="44.0574646" lon="12.3836086"><ele>66.0</ele><time>2026-04-04T10:45:16.199Z</time></trkpt><trkpt lat="44.0573376" lon="12.3836438"><ele>66.39999999999999</ele><time>2026-04-04T10:45:17.199Z</time></trkpt><trkpt lat="44.0572162" lon="12.3836743"><ele>66.8</ele><time>2026-04-04T10:45:18.199Z</time></trkpt><trkpt lat="44.0571025" lon="12.3837052"><ele>67.19999999999999</ele><time>2026-04-04T10:45:19.2Z</time></trkpt><trkpt lat="44.0570006" lon="12.3837419"><ele>67.6</ele><time>2026-04-04T10:45:20.199Z</time></trkpt><trkpt lat="44.0569144" lon="12.3837941"><ele>68.0</ele><time>2026-04-04T10:45:21.199Z</time></trkpt><trkpt lat="44.0568486" lon="12.3838722"><ele>67.2</ele><time>2026-04-04T10:45:22.199Z</time></trkpt><trkpt lat="44.0567975" lon="12.3839865"><ele>66.4</ele><time>2026-04-04T10:45:23.199Z</time></trkpt><trkpt lat="44.0567763" lon="12.3841188"><ele>65.60000000000001</ele><time>2026-04-04T10:45:24.2Z</time></trkpt><trkpt lat="44.0567824" lon="12.3842678"><ele>64.8</ele><time>2026-04-04T10:45:25.2Z</time></trkpt><trkpt lat="44.056813" lon="12.3844289"><ele>64.0</ele><time>2026-04-04T10:45:26.199Z</time></trkpt><trkpt lat="44.0568567" lon="12.3845883"><ele>63.25</ele><time>2026-04-04T10:45:27.2Z</time></trkpt><trkpt lat="44.0569014" lon="12.3847513"><ele>62.5</ele><time>2026-04-04T10:45:28.199Z</time></trkpt><trkpt lat="44.056948" lon="12.384923"><ele>61.75</ele><time>2026-04-04T10:45:29.199Z</time></trkpt><trkpt lat="44.0569969" lon="12.3851033"><ele>61.0</ele><time>2026-04-04T10:45:30.2Z</time></trkpt><trkpt lat="44.0570466" lon="12.3852935"><ele>61.0</ele><time>2026-04-04T10:45:31.199Z</time></trkpt><trkpt lat="44.0570981" lon="12.3854809"><ele>61.0</ele><time>2026-04-04T10:45:32.2Z</time></trkpt><trkpt lat="44.0571486" lon="12.3856697"><ele>61.0</ele><time>2026-04-04T10:45:33.199Z</time></trkpt><trkpt lat="44.0571994" lon="12.3858634"><ele>61.0</ele><time>2026-04-04T10:45:34.2Z</time></trkpt><trkpt lat="44.0572487" lon="12.3860594"><ele>60.75</ele><time>2026-04-04T10:45:35.2Z</time></trkpt><trkpt lat="44.0572974" lon="12.3862598"><ele>60.5</ele><time>2026-04-04T10:45:36.199Z</time></trkpt><trkpt lat="44.0573465" lon="12.3864579"><ele>60.25</ele><time>2026-04-04T10:45:37.2Z</time></trkpt><trkpt lat="44.0573932" lon="12.3866456"><ele>60.0</ele><time>2026-04-04T10:45:38.2Z</time></trkpt><trkpt lat="44.0574437" lon="12.3868581"><ele>59.5</ele><time>2026-04-04T10:45:39.199Z</time></trkpt><trkpt lat="44.0574829" lon="12.3870566"><ele>59.0</ele><time>2026-04-04T10:45:40.199Z</time></trkpt><trkpt lat="44.0575133" lon="12.3872402"><ele>58.5</ele><time>2026-04-04T10:45:41.199Z</time></trkpt><trkpt lat="44.057545" lon="12.3874487"><ele>58.0</ele><time>2026-04-04T10:45:42.199Z</time></trkpt><trkpt lat="44.0575622" lon="12.3876377"><ele>58.0</ele><time>2026-04-04T10:45:43.2Z</time></trkpt><trkpt lat="44.0575729" lon="12.3878211"><ele>58.0</ele><time>2026-04-04T10:45:44.2Z</time></trkpt><trkpt lat="44.0575779" lon="12.3880029"><ele>58.0</ele><time>2026-04-04T10:45:45.199Z</time></trkpt><trkpt lat="44.0575786" lon="12.3881871"><ele>58.0</ele><time>2026-04-04T10:45:46.199Z</time></trkpt><trkpt lat="44.0575776" lon="12.3883742"><ele>58.25</ele><time>2026-04-04T10:45:47.199Z</time></trkpt><trkpt lat="44.0575789" lon="12.3885615"><ele>58.5</ele><time>2026-04-04T10:45:48.199Z</time></trkpt><trkpt lat="44.0575857" lon="12.38874"><ele>58.75</ele><time>2026-04-04T10:45:49.199Z</time></trkpt><trkpt lat="44.0575994" lon="12.3889463"><ele>59.0</ele><time>2026-04-04T10:45:50.2Z</time></trkpt><trkpt lat="44.0576162" lon="12.3891381"><ele>58.25</ele><time>2026-04-04T10:45:51.199Z</time></trkpt><trkpt lat="44.0576322" lon="12.3893237"><ele>57.5</ele><time>2026-04-04T10:45:52.2Z</time></trkpt><trkpt lat="44.0576465" lon="12.3894983"><ele>56.75</ele><time>2026-04-04T10:45:53.2Z</time></trkpt><trkpt lat="44.0576572" lon="12.3896516"><ele>56.0</ele><time>2026-04-04T10:45:54.199Z</time></trkpt><trkpt lat="44.0576646" lon="12.3898199"><ele>55.5</ele><time>2026-04-04T10:45:55.199Z</time></trkpt><trkpt lat="44.0576625" lon="12.3899773"><ele>55.0</ele><time>2026-04-04T10:45:56.2Z</time></trkpt><trkpt lat="44.0576473" lon="12.3901278"><ele>54.5</ele><time>2026-04-04T10:45:57.2Z</time></trkpt><trkpt lat="44.0576076" lon="12.3902982"><ele>54.0</ele><time>2026-04-04T10:45:58.2Z</time></trkpt><trkpt lat="44.0575487" lon="12.3904569"><ele>53.25</ele><time>2026-04-04T10:45:59.199Z</time></trkpt><trkpt lat="44.0574772" lon="12.3906173"><ele>52.5</ele><time>2026-04-04T10:46:00.2Z</time></trkpt><trkpt lat="44.0573985" lon="12.3907766"><ele>51.75</ele><time>2026-04-04T10:46:01.199Z</time></trkpt><trkpt lat="44.057314" lon="12.3909392"><ele>51.0</ele><time>2026-04-04T10:46:02.2Z</time></trkpt><trkpt lat="44.0572274" lon="12.3911056"><ele>50.66666666666667</ele><time>2026-04-04T10:46:03.199Z</time></trkpt><trkpt lat="44.0571409" lon="12.3912739"><ele>50.333333333333336</ele><time>2026-04-04T10:46:04.199Z</time></trkpt><trkpt lat="44.0570526" lon="12.3914487"><ele>50.0</ele><time>2026-04-04T10:46:05.2Z</time></trkpt><trkpt lat="44.0569616" lon="12.3916232"><ele>49.0</ele><time>2026-04-04T10:46:06.2Z</time></trkpt><trkpt lat="44.056867" lon="12.3917959"><ele>48.0</ele><time>2026-04-04T10:46:07.199Z</time></trkpt><trkpt lat="44.0567713" lon="12.3919678"><ele>47.0</ele><time>2026-04-04T10:46:08.199Z</time></trkpt><trkpt lat="44.0566748" lon="12.3921382"><ele>47.33333333333333</ele><time>2026-04-04T10:46:09.199Z</time></trkpt><trkpt lat="44.0565827" lon="12.3922982"><ele>47.666666666666664</ele><time>2026-04-04T10:46:10.199Z</time></trkpt><trkpt lat="44.0564822" lon="12.3924778"><ele>48.0</ele><time>2026-04-04T10:46:11.199Z</time></trkpt><trkpt lat="44.0563973" lon="12.392662"><ele>48.0</ele><time>2026-04-04T10:46:12.199Z</time></trkpt><trkpt lat="44.0563284" lon="12.3928424"><ele>48.0</ele><time>2026-04-04T10:46:13.2Z</time></trkpt><trkpt lat="44.0562623" lon="12.3930568"><ele>48.0</ele><time>2026-04-04T10:46:14.2Z</time></trkpt><trkpt lat="44.0562132" lon="12.3932637"><ele>47.0</ele><time>2026-04-04T10:46:15.199Z</time></trkpt><trkpt lat="44.0561743" lon="12.3934752"><ele>46.0</ele><time>2026-04-04T10:46:16.199Z</time></trkpt><trkpt lat="44.0561496" lon="12.3936903"><ele>45.0</ele><time>2026-04-04T10:46:17.199Z</time></trkpt><trkpt lat="44.0561403" lon="12.3939045"><ele>45.0</ele><time>2026-04-04T10:46:18.199Z</time></trkpt><trkpt lat="44.0561448" lon="12.3941203"><ele>45.0</ele><time>2026-04-04T10:46:19.199Z</time></trkpt><trkpt lat="44.0561561" lon="12.3943354"><ele>45.0</ele><time>2026-04-04T10:46:20.199Z</time></trkpt><trkpt lat="44.0561678" lon="12.3945333"><ele>45.333333333333336</ele><time>2026-04-04T10:46:21.199Z</time></trkpt><trkpt lat="44.0561792" lon="12.3947569"><ele>45.66666666666667</ele><time>2026-04-04T10:46:22.199Z</time></trkpt><trkpt lat="44.056189" lon="12.3949655"><ele>46.0</ele><time>2026-04-04T10:46:23.199Z</time></trkpt><trkpt lat="44.0561971" lon="12.3951701"><ele>46.0</ele><time>2026-04-04T10:46:24.199Z</time></trkpt><trkpt lat="44.0562075" lon="12.3953767"><ele>46.0</ele><time>2026-04-04T10:46:25.2Z</time></trkpt><trkpt lat="44.0562181" lon="12.3955691"><ele>46.0</ele><time>2026-04-04T10:46:26.199Z</time></trkpt><trkpt lat="44.05623" lon="12.3957899"><ele>46.0</ele><time>2026-04-04T10:46:27.199Z</time></trkpt><trkpt lat="44.0562407" lon="12.395996"><ele>45.75</ele><time>2026-04-04T10:46:28.199Z</time></trkpt><trkpt lat="44.0562491" lon="12.3961879"><ele>45.5</ele><time>2026-04-04T10:46:29.2Z</time></trkpt><trkpt lat="44.0562604" lon="12.3964054"><ele>45.25</ele><time>2026-04-04T10:46:30.2Z</time></trkpt><trkpt lat="44.056272" lon="12.3966085"><ele>45.0</ele><time>2026-04-04T10:46:31.2Z</time></trkpt><trkpt lat="44.0562837" lon="12.3968081"><ele>45.0</ele><time>2026-04-04T10:46:32.199Z</time></trkpt><trkpt lat="44.0562955" lon="12.3970112"><ele>45.0</ele><time>2026-04-04T10:46:33.199Z</time></trkpt><trkpt lat="44.0563051" lon="12.3972053"><ele>45.0</ele><time>2026-04-04T10:46:34.2Z</time></trkpt><trkpt lat="44.0563145" lon="12.3973876"><ele>45.0</ele><time>2026-04-04T10:46:35.199Z</time></trkpt><trkpt lat="44.0563253" lon="12.3975538"><ele>45.0</ele><time>2026-04-04T10:46:36.199Z</time></trkpt><trkpt lat="44.0563356" lon="12.3976971"><ele>45.0</ele><time>2026-04-04T10:46:37.2Z</time></trkpt><trkpt lat="44.056347" lon="12.3978479"><ele>45.0</ele><time>2026-04-04T10:46:38.199Z</time></trkpt><trkpt lat="44.0563541" lon="12.3979827"><ele>45.0</ele><time>2026-04-04T10:46:39.199Z</time></trkpt><trkpt lat="44.0563563" lon="12.398114"><ele>45.0</ele><time>2026-04-04T10:46:40.199Z</time></trkpt><trkpt lat="44.0563498" lon="12.3982528"><ele>45.75</ele><time>2026-04-04T10:46:41.2Z</time></trkpt><trkpt lat="44.0563261" lon="12.3983828"><ele>46.5</ele><time>2026-04-04T10:46:42.199Z</time></trkpt><trkpt lat="44.056289" lon="12.3985468"><ele>47.25</ele><time>2026-04-04T10:46:43.199Z</time></trkpt><trkpt lat="44.0562508" lon="12.3987079"><ele>48.0</ele><time>2026-04-04T10:46:44.199Z</time></trkpt><trkpt lat="44.0562131" lon="12.3988635"><ele>48.0</ele><time>2026-04-04T10:46:45.199Z</time></trkpt><trkpt lat="44.0561734" lon="12.3990465"><ele>48.0</ele><time>2026-04-04T10:46:46.199Z</time></trkpt><trkpt lat="44.0561368" lon="12.3992187"><ele>48.0</ele><time>2026-04-04T10:46:47.199Z</time></trkpt><trkpt lat="44.0561004" lon="12.3993914"><ele>48.0</ele><time>2026-04-04T10:46:48.199Z</time></trkpt><trkpt lat="44.05606" lon="12.399558"><ele>48.25</ele><time>2026-04-04T10:46:49.2Z</time></trkpt><trkpt lat="44.0560152" lon="12.3997262"><ele>48.5</ele><time>2026-04-04T10:46:50.199Z</time></trkpt><trkpt lat="44.0559728" lon="12.3998984"><ele>48.75</ele><time>2026-04-04T10:46:51.2Z</time></trkpt><trkpt lat="44.0559254" lon="12.400064"><ele>49.0</ele><time>2026-04-04T10:46:52.199Z</time></trkpt><trkpt lat="44.0558817" lon="12.4002109"><ele>49.0</ele><time>2026-04-04T10:46:53.199Z</time></trkpt><trkpt lat="44.0558372" lon="12.4003638"><ele>49.0</ele><time>2026-04-04T10:46:54.199Z</time></trkpt><trkpt lat="44.0557952" lon="12.4005019"><ele>49.0</ele><time>2026-04-04T10:46:55.2Z</time></trkpt><trkpt lat="44.0557502" lon="12.4006396"><ele>49.0</ele><time>2026-04-04T10:46:56.2Z</time></trkpt><trkpt lat="44.0556965" lon="12.4007773"><ele>49.0</ele><time>2026-04-04T10:46:57.199Z</time></trkpt><trkpt lat="44.0556539" lon="12.4009121"><ele>48.83333333333333</ele><time>2026-04-04T10:46:58.2Z</time></trkpt><trkpt lat="44.0556098" lon="12.4010546"><ele>48.666666666666664</ele><time>2026-04-04T10:46:59.199Z</time></trkpt><trkpt lat="44.0555731" lon="12.4011733"><ele>48.5</ele><time>2026-04-04T10:47:00.2Z</time></trkpt><trkpt lat="44.0555383" lon="12.4012743"><ele>48.33333333333333</ele><time>2026-04-04T10:47:01.199Z</time></trkpt><trkpt lat="44.0555048" lon="12.4013784"><ele>48.166666666666664</ele><time>2026-04-04T10:47:02.2Z</time></trkpt><trkpt lat="44.0554796" lon="12.4014842"><ele>48.0</ele><time>2026-04-04T10:47:03.2Z</time></trkpt><trkpt lat="44.0554263" lon="12.4016324"><ele>48.333333333333336</ele><time>2026-04-04T10:47:05.199Z</time></trkpt><trkpt lat="44.0553327" lon="12.4017108"><ele>48.66666666666667</ele><time>2026-04-04T10:47:07.2Z</time></trkpt><trkpt lat="44.055274" lon="12.4017662"><ele>49.0</ele><time>2026-04-04T10:47:08.2Z</time></trkpt><trkpt lat="44.0552318" lon="12.4018506"><ele>49.333333333333336</ele><time>2026-04-04T10:47:09.199Z</time></trkpt><trkpt lat="44.0551874" lon="12.4019563"><ele>49.66666666666667</ele><time>2026-04-04T10:47:10.199Z</time></trkpt><trkpt lat="44.0551273" lon="12.4020455"><ele>50.0</ele><time>2026-04-04T10:47:11.2Z</time></trkpt><trkpt lat="44.0550289" lon="12.4021088"><ele>49.75</ele><time>2026-04-04T10:47:12.199Z</time></trkpt><trkpt lat="44.054906" lon="12.4021926"><ele>49.5</ele><time>2026-04-04T10:47:13.199Z</time></trkpt><trkpt lat="44.0547836" lon="12.4022735"><ele>49.25</ele><time>2026-04-04T10:47:14.2Z</time></trkpt><trkpt lat="44.0546341" lon="12.4023696"><ele>49.0</ele><time>2026-04-04T10:47:15.2Z</time></trkpt><trkpt lat="44.0544809" lon="12.4024718"><ele>49.0</ele><time>2026-04-04T10:47:16.199Z</time></trkpt><trkpt lat="44.0543378" lon="12.4025724"><ele>49.0</ele><time>2026-04-04T10:47:17.199Z</time></trkpt><trkpt lat="44.0541709" lon="12.40268"><ele>49.0</ele><time>2026-04-04T10:47:18.199Z</time></trkpt><trkpt lat="44.0540083" lon="12.402784"><ele>49.33333333333333</ele><time>2026-04-04T10:47:19.199Z</time></trkpt><trkpt lat="44.0538423" lon="12.4028877"><ele>49.66666666666667</ele><time>2026-04-04T10:47:20.2Z</time></trkpt><trkpt lat="44.0536774" lon="12.4029919"><ele>50.0</ele><time>2026-04-04T10:47:21.2Z</time></trkpt><trkpt lat="44.0535177" lon="12.4031062"><ele>50.0</ele><time>2026-04-04T10:47:22.199Z</time></trkpt><trkpt lat="44.0533582" lon="12.4032034"><ele>50.0</ele><time>2026-04-04T10:47:23.199Z</time></trkpt><trkpt lat="44.0532018" lon="12.4033035"><ele>50.0</ele><time>2026-04-04T10:47:24.199Z</time></trkpt><trkpt lat="44.0530576" lon="12.4033994"><ele>50.0</ele><time>2026-04-04T10:47:25.2Z</time></trkpt><trkpt lat="44.0528958" lon="12.4035032"><ele>50.0</ele><time>2026-04-04T10:47:26.2Z</time></trkpt><trkpt lat="44.0527446" lon="12.4036023"><ele>50.0</ele><time>2026-04-04T10:47:27.199Z</time></trkpt><trkpt lat="44.0525945" lon="12.4036987"><ele>50.333333333333336</ele><time>2026-04-04T10:47:28.199Z</time></trkpt><trkpt lat="44.0524494" lon="12.4037915"><ele>50.66666666666667</ele><time>2026-04-04T10:47:29.199Z</time></trkpt><trkpt lat="44.0523203" lon="12.4038711"><ele>51.0</ele><time>2026-04-04T10:47:30.2Z</time></trkpt><trkpt lat="44.0521816" lon="12.4039461"><ele>51.0</ele><time>2026-04-04T10:47:31.199Z</time></trkpt><trkpt lat="44.0520521" lon="12.4039889"><ele>51.0</ele><time>2026-04-04T10:47:32.199Z</time></trkpt><trkpt lat="44.0519253" lon="12.4039947"><ele>51.0</ele><time>2026-04-04T10:47:33.199Z</time></trkpt><trkpt lat="44.0517772" lon="12.4039534"><ele>51.0</ele><time>2026-04-04T10:47:34.199Z</time></trkpt><trkpt lat="44.0516381" lon="12.4038738"><ele>52.0</ele><time>2026-04-04T10:47:35.199Z</time></trkpt><trkpt lat="44.0514972" lon="12.4037631"><ele>53.0</ele><time>2026-04-04T10:47:36.199Z</time></trkpt><trkpt lat="44.0513631" lon="12.4036417"><ele>54.0</ele><time>2026-04-04T10:47:37.199Z</time></trkpt><trkpt lat="44.0512308" lon="12.4035185"><ele>54.0</ele><time>2026-04-04T10:47:38.199Z</time></trkpt><trkpt lat="44.0510957" lon="12.4034005"><ele>54.0</ele><time>2026-04-04T10:47:39.199Z</time></trkpt><trkpt lat="44.0509599" lon="12.4032777"><ele>54.0</ele><time>2026-04-04T10:47:40.199Z</time></trkpt><trkpt lat="44.0508316" lon="12.4031716"><ele>54.33333333333333</ele><time>2026-04-04T10:47:41.199Z</time></trkpt><trkpt lat="44.050679" lon="12.4030618"><ele>54.666666666666664</ele><time>2026-04-04T10:47:42.199Z</time></trkpt><trkpt lat="44.0505305" lon="12.4029746"><ele>55.0</ele><time>2026-04-04T10:47:43.2Z</time></trkpt><trkpt lat="44.0503814" lon="12.4028972"><ele>55.5</ele><time>2026-04-04T10:47:44.199Z</time></trkpt><trkpt lat="44.0502376" lon="12.4028275"><ele>56.0</ele><time>2026-04-04T10:47:45.199Z</time></trkpt><trkpt lat="44.0501111" lon="12.4027675"><ele>56.5</ele><time>2026-04-04T10:47:46.199Z</time></trkpt><trkpt lat="44.0499772" lon="12.4027134"><ele>57.0</ele><time>2026-04-04T10:47:47.199Z</time></trkpt><trkpt lat="44.0498541" lon="12.4026893"><ele>57.25</ele><time>2026-04-04T10:47:48.199Z</time></trkpt><trkpt lat="44.0497415" lon="12.4027042"><ele>57.5</ele><time>2026-04-04T10:47:49.199Z</time></trkpt><trkpt lat="44.0496182" lon="12.4027714"><ele>57.75</ele><time>2026-04-04T10:47:50.2Z</time></trkpt><trkpt lat="44.0495072" lon="12.4028824"><ele>58.0</ele><time>2026-04-04T10:47:51.199Z</time></trkpt><trkpt lat="44.0494026" lon="12.4030287"><ele>57.33333333333333</ele><time>2026-04-04T10:47:52.199Z</time></trkpt><trkpt lat="44.0493094" lon="12.4031942"><ele>56.66666666666667</ele><time>2026-04-04T10:47:53.2Z</time></trkpt><trkpt lat="44.0492251" lon="12.4033779"><ele>56.0</ele><time>2026-04-04T10:47:54.199Z</time></trkpt><trkpt lat="44.0491485" lon="12.4035867"><ele>56.0</ele><time>2026-04-04T10:47:55.199Z</time></trkpt><trkpt lat="44.0490826" lon="12.4038116"><ele>56.0</ele><time>2026-04-04T10:47:56.2Z</time></trkpt><trkpt lat="44.0490268" lon="12.4040236"><ele>56.0</ele><time>2026-04-04T10:47:57.199Z</time></trkpt><trkpt lat="44.048965" lon="12.4042616"><ele>55.333333333333336</ele><time>2026-04-04T10:47:58.199Z</time></trkpt><trkpt lat="44.0489099" lon="12.4044863"><ele>54.66666666666667</ele><time>2026-04-04T10:47:59.2Z</time></trkpt><trkpt lat="44.0488509" lon="12.40471"><ele>54.0</ele><time>2026-04-04T10:48:00.2Z</time></trkpt><trkpt lat="44.0487803" lon="12.4049314"><ele>53.0</ele><time>2026-04-04T10:48:01.2Z</time></trkpt><trkpt lat="44.0487007" lon="12.4051341"><ele>52.0</ele><time>2026-04-04T10:48:02.2Z</time></trkpt><trkpt lat="44.0485919" lon="12.4053555"><ele>51.0</ele><time>2026-04-04T10:48:03.2Z</time></trkpt><trkpt lat="44.0484788" lon="12.4055579"><ele>51.0</ele><time>2026-04-04T10:48:04.199Z</time></trkpt><trkpt lat="44.0483667" lon="12.4057447"><ele>51.0</ele><time>2026-04-04T10:48:05.199Z</time></trkpt><trkpt lat="44.0482336" lon="12.4059504"><ele>51.0</ele><time>2026-04-04T10:48:06.2Z</time></trkpt><trkpt lat="44.0481028" lon="12.4061315"><ele>51.66666666666667</ele><time>2026-04-04T10:48:07.2Z</time></trkpt><trkpt lat="44.0479598" lon="12.4062953"><ele>52.333333333333336</ele><time>2026-04-04T10:48:08.199Z</time></trkpt><trkpt lat="44.0478057" lon="12.4064468"><ele>53.0</ele><time>2026-04-04T10:48:09.199Z</time></trkpt><trkpt lat="44.0476454" lon="12.4065929"><ele>53.0</ele><time>2026-04-04T10:48:10.2Z</time></trkpt><trkpt lat="44.047482" lon="12.4067375"><ele>53.0</ele><time>2026-04-04T10:48:11.2Z</time></trkpt><trkpt lat="44.0473181" lon="12.4068812"><ele>53.0</ele><time>2026-04-04T10:48:12.199Z</time></trkpt><trkpt lat="44.0471653" lon="12.4070168"><ele>53.0</ele><time>2026-04-04T10:48:13.199Z</time></trkpt><trkpt lat="44.046992" lon="12.407168"><ele>53.0</ele><time>2026-04-04T10:48:14.2Z</time></trkpt><trkpt lat="44.0468297" lon="12.4073097"><ele>53.0</ele><time>2026-04-04T10:48:15.199Z</time></trkpt><trkpt lat="44.0466693" lon="12.4074513"><ele>52.66666666666667</ele><time>2026-04-04T10:48:16.2Z</time></trkpt><trkpt lat="44.04651" lon="12.4075924"><ele>52.33333333333333</ele><time>2026-04-04T10:48:17.199Z</time></trkpt><trkpt lat="44.0463658" lon="12.407718"><ele>52.0</ele><time>2026-04-04T10:48:18.2Z</time></trkpt><trkpt lat="44.0462117" lon="12.4078503"><ele>52.0</ele><time>2026-04-04T10:48:19.2Z</time></trkpt><trkpt lat="44.0460787" lon="12.4079716"><ele>52.0</ele><time>2026-04-04T10:48:20.199Z</time></trkpt><trkpt lat="44.0459624" lon="12.4080718"><ele>52.0</ele><time>2026-04-04T10:48:21.199Z</time></trkpt><trkpt lat="44.0458429" lon="12.4081737"><ele>52.0</ele><time>2026-04-04T10:48:22.199Z</time></trkpt><trkpt lat="44.0457432" lon="12.4082583"><ele>52.2</ele><time>2026-04-04T10:48:23.199Z</time></trkpt><trkpt lat="44.0456504" lon="12.4083355"><ele>52.400000000000006</ele><time>2026-04-04T10:48:24.199Z</time></trkpt><trkpt lat="44.0455561" lon="12.4083991"><ele>52.599999999999994</ele><time>2026-04-04T10:48:25.199Z</time></trkpt><trkpt lat="44.0454636" lon="12.4084488"><ele>52.8</ele><time>2026-04-04T10:48:26.199Z</time></trkpt><trkpt lat="44.0453801" lon="12.4084928"><ele>53.0</ele><time>2026-04-04T10:48:27.2Z</time></trkpt><trkpt lat="44.0453126" lon="12.4085326"><ele>53.0</ele><time>2026-04-04T10:48:28.199Z</time></trkpt><trkpt lat="44.0452052" lon="12.4086209"><ele>53.0</ele><time>2026-04-04T10:48:30.199Z</time></trkpt><trkpt lat="44.0451461" lon="12.4086824"><ele>53.0</ele><time>2026-04-04T10:48:31.199Z</time></trkpt><trkpt lat="44.0450806" lon="12.4087866"><ele>53.0</ele><time>2026-04-04T10:48:32.199Z</time></trkpt><trkpt lat="44.0450131" lon="12.40891"><ele>53.0</ele><time>2026-04-04T10:48:33.2Z</time></trkpt><trkpt lat="44.0449433" lon="12.4090343"><ele>53.0</ele><time>2026-04-04T10:48:34.199Z</time></trkpt><trkpt lat="44.044851" lon="12.4091854"><ele>53.0</ele><time>2026-04-04T10:48:35.199Z</time></trkpt><trkpt lat="44.0447527" lon="12.4093426"><ele>53.0</ele><time>2026-04-04T10:48:36.199Z</time></trkpt><trkpt lat="44.044658" lon="12.4094978"><ele>53.0</ele><time>2026-04-04T10:48:37.199Z</time></trkpt><trkpt lat="44.0445505" lon="12.4096744"><ele>53.0</ele><time>2026-04-04T10:48:38.199Z</time></trkpt><trkpt lat="44.0444461" lon="12.4098383"><ele>53.0</ele><time>2026-04-04T10:48:39.199Z</time></trkpt><trkpt lat="44.0443392" lon="12.4100055"><ele>53.0</ele><time>2026-04-04T10:48:40.199Z</time></trkpt><trkpt lat="44.0442306" lon="12.4101791"><ele>53.66666666666667</ele><time>2026-04-04T10:48:41.199Z</time></trkpt><trkpt lat="44.0441227" lon="12.410353"><ele>54.33333333333333</ele><time>2026-04-04T10:48:42.2Z</time></trkpt><trkpt lat="44.0440151" lon="12.4105214"><ele>55.0</ele><time>2026-04-04T10:48:43.199Z</time></trkpt><trkpt lat="44.043908" lon="12.4106882"><ele>55.0</ele><time>2026-04-04T10:48:44.199Z</time></trkpt><trkpt lat="44.0438092" lon="12.4108581"><ele>55.0</ele><time>2026-04-04T10:48:45.199Z</time></trkpt><trkpt lat="44.0436952" lon="12.4110361"><ele>55.0</ele><time>2026-04-04T10:48:46.199Z</time></trkpt><trkpt lat="44.0435902" lon="12.411204"><ele>54.666666666666664</ele><time>2026-04-04T10:48:47.199Z</time></trkpt><trkpt lat="44.0434866" lon="12.4113716"><ele>54.33333333333333</ele><time>2026-04-04T10:48:48.199Z</time></trkpt><trkpt lat="44.043381" lon="12.4115385"><ele>54.0</ele><time>2026-04-04T10:48:49.199Z</time></trkpt><trkpt lat="44.0432824" lon="12.4116924"><ele>53.66666666666667</ele><time>2026-04-04T10:48:50.199Z</time></trkpt><trkpt lat="44.0431753" lon="12.4118566"><ele>53.333333333333336</ele><time>2026-04-04T10:48:51.2Z</time></trkpt><trkpt lat="44.0430591" lon="12.412024"><ele>53.0</ele><time>2026-04-04T10:48:52.199Z</time></trkpt><trkpt lat="44.0429505" lon="12.4121609"><ele>53.66666666666667</ele><time>2026-04-04T10:48:53.199Z</time></trkpt><trkpt lat="44.0428191" lon="12.4123027"><ele>54.33333333333333</ele><time>2026-04-04T10:48:54.199Z</time></trkpt><trkpt lat="44.0426882" lon="12.412423"><ele>55.0</ele><time>2026-04-04T10:48:55.199Z</time></trkpt><trkpt lat="44.0425634" lon="12.4125312"><ele>54.666666666666664</ele><time>2026-04-04T10:48:56.2Z</time></trkpt><trkpt lat="44.0424186" lon="12.4126507"><ele>54.33333333333333</ele><time>2026-04-04T10:48:57.2Z</time></trkpt><trkpt lat="44.0422778" lon="12.4127582"><ele>54.0</ele><time>2026-04-04T10:48:58.2Z</time></trkpt><trkpt lat="44.0421445" lon="12.4128582"><ele>54.0</ele><time>2026-04-04T10:48:59.199Z</time></trkpt><trkpt lat="44.0419922" lon="12.4129708"><ele>54.0</ele><time>2026-04-04T10:49:00.199Z</time></trkpt><trkpt lat="44.0418593" lon="12.4130625"><ele>54.0</ele><time>2026-04-04T10:49:01.2Z</time></trkpt><trkpt lat="44.0417042" lon="12.4131607"><ele>52.0</ele><time>2026-04-04T10:49:02.2Z</time></trkpt><trkpt lat="44.0415526" lon="12.4132412"><ele>50.0</ele><time>2026-04-04T10:49:03.199Z</time></trkpt><trkpt lat="44.0413944" lon="12.4133088"><ele>48.0</ele><time>2026-04-04T10:49:04.199Z</time></trkpt><trkpt lat="44.0412327" lon="12.4133649"><ele>48.0</ele><time>2026-04-04T10:49:05.199Z</time></trkpt><trkpt lat="44.0410789" lon="12.4134097"><ele>48.0</ele><time>2026-04-04T10:49:06.2Z</time></trkpt><trkpt lat="44.0409006" lon="12.4134515"><ele>48.0</ele><time>2026-04-04T10:49:07.2Z</time></trkpt><trkpt lat="44.0407305" lon="12.413484"><ele>47.666666666666664</ele><time>2026-04-04T10:49:08.199Z</time></trkpt><trkpt lat="44.040571" lon="12.4135155"><ele>47.33333333333333</ele><time>2026-04-04T10:49:09.199Z</time></trkpt><trkpt lat="44.0403868" lon="12.4135503"><ele>47.0</ele><time>2026-04-04T10:49:10.199Z</time></trkpt><trkpt lat="44.0402112" lon="12.4135846"><ele>47.0</ele><time>2026-04-04T10:49:11.199Z</time></trkpt><trkpt lat="44.0400428" lon="12.413618"><ele>47.0</ele><time>2026-04-04T10:49:12.199Z</time></trkpt><trkpt lat="44.0398565" lon="12.413654"><ele>47.0</ele><time>2026-04-04T10:49:13.2Z</time></trkpt><trkpt lat="44.039681" lon="12.4136847"><ele>47.33333333333333</ele><time>2026-04-04T10:49:14.199Z</time></trkpt><trkpt lat="44.0395041" lon="12.413718"><ele>47.666666666666664</ele><time>2026-04-04T10:49:15.199Z</time></trkpt><trkpt lat="44.0393241" lon="12.4137519"><ele>48.0</ele><time>2026-04-04T10:49:16.199Z</time></trkpt><trkpt lat="44.0391536" lon="12.4137841"><ele>48.0</ele><time>2026-04-04T10:49:17.199Z</time></trkpt><trkpt lat="44.0389551" lon="12.4138204"><ele>48.0</ele><time>2026-04-04T10:49:18.199Z</time></trkpt><trkpt lat="44.0387691" lon="12.4138582"><ele>48.0</ele><time>2026-04-04T10:49:19.199Z</time></trkpt><trkpt lat="44.0385919" lon="12.4139034"><ele>48.0</ele><time>2026-04-04T10:49:20.2Z</time></trkpt><trkpt lat="44.0383881" lon="12.413971"><ele>48.0</ele><time>2026-04-04T10:49:21.2Z</time></trkpt><trkpt lat="44.0382068" lon="12.4140389"><ele>48.0</ele><time>2026-04-04T10:49:22.199Z</time></trkpt><trkpt lat="44.0380106" lon="12.4141185"><ele>48.33333333333333</ele><time>2026-04-04T10:49:23.2Z</time></trkpt><trkpt lat="44.0377983" lon="12.4142074"><ele>48.666666666666664</ele><time>2026-04-04T10:49:24.2Z</time></trkpt><trkpt lat="44.0376118" lon="12.4142865"><ele>49.0</ele><time>2026-04-04T10:49:25.199Z</time></trkpt><trkpt lat="44.0374044" lon="12.4143747"><ele>51.0</ele><time>2026-04-04T10:49:26.199Z</time></trkpt><trkpt lat="44.0372099" lon="12.414455"><ele>53.0</ele><time>2026-04-04T10:49:27.199Z</time></trkpt><trkpt lat="44.0370272" lon="12.4145309"><ele>55.0</ele><time>2026-04-04T10:49:28.2Z</time></trkpt><trkpt lat="44.0368192" lon="12.4146191"><ele>56.0</ele><time>2026-04-04T10:49:29.199Z</time></trkpt><trkpt lat="44.0366227" lon="12.414699"><ele>57.0</ele><time>2026-04-04T10:49:30.199Z</time></trkpt><trkpt lat="44.0364271" lon="12.4147758"><ele>58.0</ele><time>2026-04-04T10:49:31.199Z</time></trkpt><trkpt lat="44.036229" lon="12.414857"><ele>58.0</ele><time>2026-04-04T10:49:32.199Z</time></trkpt><trkpt lat="44.0360432" lon="12.4149345"><ele>58.0</ele><time>2026-04-04T10:49:33.199Z</time></trkpt><trkpt lat="44.0358361" lon="12.415019"><ele>58.0</ele><time>2026-04-04T10:49:34.2Z</time></trkpt><trkpt lat="44.0356446" lon="12.4150954"><ele>59.0</ele><time>2026-04-04T10:49:35.199Z</time></trkpt><trkpt lat="44.0354725" lon="12.4151656"><ele>60.0</ele><time>2026-04-04T10:49:36.199Z</time></trkpt><trkpt lat="44.0352862" lon="12.41524"><ele>61.0</ele><time>2026-04-04T10:49:37.2Z</time></trkpt><trkpt lat="44.0351313" lon="12.4153048"><ele>61.0</ele><time>2026-04-04T10:49:38.199Z</time></trkpt><trkpt lat="44.0349726" lon="12.4153784"><ele>61.0</ele><time>2026-04-04T10:49:39.2Z</time></trkpt><trkpt lat="44.0348121" lon="12.4154689"><ele>61.0</ele><time>2026-04-04T10:49:40.199Z</time></trkpt><trkpt lat="44.0346783" lon="12.4155548"><ele>62.0</ele><time>2026-04-04T10:49:41.199Z</time></trkpt><trkpt lat="44.0345339" lon="12.4156712"><ele>63.0</ele><time>2026-04-04T10:49:42.199Z</time></trkpt><trkpt lat="44.0343963" lon="12.4157916"><ele>64.0</ele><time>2026-04-04T10:49:43.199Z</time></trkpt><trkpt lat="44.0342713" lon="12.4159193"><ele>66.33333333333333</ele><time>2026-04-04T10:49:44.2Z</time></trkpt><trkpt lat="44.0341363" lon="12.4160733"><ele>68.66666666666667</ele><time>2026-04-04T10:49:45.2Z</time></trkpt><trkpt lat="44.0340145" lon="12.4162541"><ele>71.0</ele><time>2026-04-04T10:49:46.199Z</time></trkpt><trkpt lat="44.0338984" lon="12.4164439"><ele>72.66666666666667</ele><time>2026-04-04T10:49:47.199Z</time></trkpt><trkpt lat="44.0337687" lon="12.4166695"><ele>74.33333333333333</ele><time>2026-04-04T10:49:48.199Z</time></trkpt><trkpt lat="44.0336642" lon="12.4168738"><ele>76.0</ele><time>2026-04-04T10:49:49.199Z</time></trkpt><trkpt lat="44.0335652" lon="12.4171122"><ele>75.0</ele><time>2026-04-04T10:49:50.199Z</time></trkpt><trkpt lat="44.0334891" lon="12.4173424"><ele>74.0</ele><time>2026-04-04T10:49:51.199Z</time></trkpt><trkpt lat="44.0334257" lon="12.4175636"><ele>73.0</ele><time>2026-04-04T10:49:52.199Z</time></trkpt><trkpt lat="44.0333579" lon="12.4178188"><ele>72.33333333333333</ele><time>2026-04-04T10:49:53.199Z</time></trkpt><trkpt lat="44.0333016" lon="12.418039"><ele>71.66666666666667</ele><time>2026-04-04T10:49:54.2Z</time></trkpt><trkpt lat="44.033244" lon="12.4182644"><ele>71.0</ele><time>2026-04-04T10:49:55.199Z</time></trkpt><trkpt lat="44.0331868" lon="12.4184965"><ele>71.0</ele><time>2026-04-04T10:49:56.199Z</time></trkpt><trkpt lat="44.0331383" lon="12.4186816"><ele>71.0</ele><time>2026-04-04T10:49:57.199Z</time></trkpt><trkpt lat="44.0330834" lon="12.4188771"><ele>71.0</ele><time>2026-04-04T10:49:58.199Z</time></trkpt><trkpt lat="44.0330381" lon="12.4190523"><ele>71.0</ele><time>2026-04-04T10:49:59.199Z</time></trkpt><trkpt lat="44.0330007" lon="12.4192054"><ele>70.39999999999999</ele><time>2026-04-04T10:50:00.2Z</time></trkpt><trkpt lat="44.0329629" lon="12.4193594"><ele>69.8</ele><time>2026-04-04T10:50:01.199Z</time></trkpt><trkpt lat="44.0329319" lon="12.419474"><ele>69.19999999999999</ele><time>2026-04-04T10:50:02.199Z</time></trkpt><trkpt lat="44.0329003" lon="12.4195654"><ele>68.6</ele><time>2026-04-04T10:50:03.199Z</time></trkpt><trkpt lat="44.0328512" lon="12.4196605"><ele>68.0</ele><time>2026-04-04T10:50:05.2Z</time></trkpt><trkpt lat="44.03275" lon="12.4197011"><ele>68.0</ele><time>2026-04-04T10:50:08.199Z</time></trkpt><trkpt lat="44.0326831" lon="12.4196689"><ele>68.0</ele><time>2026-04-04T10:50:09.199Z</time></trkpt><trkpt lat="44.0326161" lon="12.419599"><ele>68.0</ele><time>2026-04-04T10:50:10.199Z</time></trkpt><trkpt lat="44.0325457" lon="12.4195116"><ele>68.0</ele><time>2026-04-04T10:50:11.199Z</time></trkpt><trkpt lat="44.032461" lon="12.4194135"><ele>68.0</ele><time>2026-04-04T10:50:12.199Z</time></trkpt><trkpt lat="44.0323647" lon="12.4193085"><ele>67.75</ele><time>2026-04-04T10:50:13.2Z</time></trkpt><trkpt lat="44.0322573" lon="12.4191987"><ele>67.5</ele><time>2026-04-04T10:50:14.199Z</time></trkpt><trkpt lat="44.032138" lon="12.4190871"><ele>67.25</ele><time>2026-04-04T10:50:15.2Z</time></trkpt><trkpt lat="44.0319947" lon="12.4189771"><ele>67.0</ele><time>2026-04-04T10:50:16.199Z</time></trkpt><trkpt lat="44.031826" lon="12.4188653"><ele>68.0</ele><time>2026-04-04T10:50:17.2Z</time></trkpt><trkpt lat="44.0316361" lon="12.4187534"><ele>69.0</ele><time>2026-04-04T10:50:18.199Z</time></trkpt><trkpt lat="44.0314375" lon="12.418646"><ele>70.0</ele><time>2026-04-04T10:50:19.199Z</time></trkpt><trkpt lat="44.0312391" lon="12.4185436"><ele>70.0</ele><time>2026-04-04T10:50:20.2Z</time></trkpt><trkpt lat="44.0310426" lon="12.4184484"><ele>70.0</ele><time>2026-04-04T10:50:21.2Z</time></trkpt><trkpt lat="44.0308491" lon="12.4183534"><ele>70.0</ele><time>2026-04-04T10:50:22.2Z</time></trkpt><trkpt lat="44.0306608" lon="12.4182562"><ele>69.33333333333333</ele><time>2026-04-04T10:50:23.199Z</time></trkpt><trkpt lat="44.0304753" lon="12.4181548"><ele>68.66666666666667</ele><time>2026-04-04T10:50:24.2Z</time></trkpt><trkpt lat="44.0302921" lon="12.4180438"><ele>68.0</ele><time>2026-04-04T10:50:25.199Z</time></trkpt><trkpt lat="44.0301215" lon="12.4179361"><ele>68.33333333333334</ele><time>2026-04-04T10:50:26.2Z</time></trkpt><trkpt lat="44.0299264" lon="12.4178049"><ele>68.66666666666667</ele><time>2026-04-04T10:50:27.2Z</time></trkpt><trkpt lat="44.0297422" lon="12.4176815"><ele>69.0</ele><time>2026-04-04T10:50:28.199Z</time></trkpt><trkpt lat="44.0295629" lon="12.4175608"><ele>69.0</ele><time>2026-04-04T10:50:29.199Z</time></trkpt><trkpt lat="44.0293852" lon="12.4174393"><ele>69.0</ele><time>2026-04-04T10:50:30.199Z</time></trkpt><trkpt lat="44.0292069" lon="12.417319"><ele>69.0</ele><time>2026-04-04T10:50:31.199Z</time></trkpt><trkpt lat="44.0290325" lon="12.4171995"><ele>69.66666666666667</ele><time>2026-04-04T10:50:32.2Z</time></trkpt><trkpt lat="44.0288597" lon="12.4170826"><ele>70.33333333333334</ele><time>2026-04-04T10:50:33.199Z</time></trkpt><trkpt lat="44.0286892" lon="12.4169651"><ele>71.0</ele><time>2026-04-04T10:50:34.199Z</time></trkpt><trkpt lat="44.0285202" lon="12.4168478"><ele>71.0</ele><time>2026-04-04T10:50:35.199Z</time></trkpt><trkpt lat="44.0283521" lon="12.4167335"><ele>71.0</ele><time>2026-04-04T10:50:36.199Z</time></trkpt><trkpt lat="44.0281869" lon="12.4166171"><ele>71.0</ele><time>2026-04-04T10:50:37.2Z</time></trkpt><trkpt lat="44.0280198" lon="12.4164986"><ele>70.66666666666667</ele><time>2026-04-04T10:50:38.199Z</time></trkpt><trkpt lat="44.0278578" lon="12.4163742"><ele>70.33333333333333</ele><time>2026-04-04T10:50:39.199Z</time></trkpt><trkpt lat="44.0276994" lon="12.4162396"><ele>70.0</ele><time>2026-04-04T10:50:40.199Z</time></trkpt><trkpt lat="44.0275407" lon="12.4160942"><ele>70.66666666666666</ele><time>2026-04-04T10:50:41.199Z</time></trkpt><trkpt lat="44.0273933" lon="12.4159469"><ele>71.33333333333333</ele><time>2026-04-04T10:50:42.199Z</time></trkpt><trkpt lat="44.0272283" lon="12.4157785"><ele>72.0</ele><time>2026-04-04T10:50:43.199Z</time></trkpt><trkpt lat="44.0270715" lon="12.4156198"><ele>72.33333333333333</ele><time>2026-04-04T10:50:44.199Z</time></trkpt><trkpt lat="44.0269166" lon="12.4154625"><ele>72.66666666666666</ele><time>2026-04-04T10:50:45.199Z</time></trkpt><trkpt lat="44.0267587" lon="12.4153051"><ele>73.0</ele><time>2026-04-04T10:50:46.199Z</time></trkpt><trkpt lat="44.0266035" lon="12.4151485"><ele>73.0</ele><time>2026-04-04T10:50:47.2Z</time></trkpt><trkpt lat="44.0264503" lon="12.4149992"><ele>73.0</ele><time>2026-04-04T10:50:48.199Z</time></trkpt><trkpt lat="44.0262941" lon="12.4148549"><ele>73.0</ele><time>2026-04-04T10:50:49.2Z</time></trkpt><trkpt lat="44.0261218" lon="12.4147178"><ele>73.0</ele><time>2026-04-04T10:50:50.199Z</time></trkpt><trkpt lat="44.0259674" lon="12.4146156"><ele>73.0</ele><time>2026-04-04T10:50:51.199Z</time></trkpt><trkpt lat="44.0257978" lon="12.414525"><ele>73.0</ele><time>2026-04-04T10:50:52.199Z</time></trkpt><trkpt lat="44.0256329" lon="12.4144505"><ele>73.0</ele><time>2026-04-04T10:50:53.199Z</time></trkpt><trkpt lat="44.0254731" lon="12.4143837"><ele>73.0</ele><time>2026-04-04T10:50:54.2Z</time></trkpt><trkpt lat="44.0253096" lon="12.4143154"><ele>73.0</ele><time>2026-04-04T10:50:55.2Z</time></trkpt><trkpt lat="44.0251694" lon="12.4142565"><ele>73.0</ele><time>2026-04-04T10:50:56.199Z</time></trkpt><trkpt lat="44.0250263" lon="12.414198"><ele>73.0</ele><time>2026-04-04T10:50:57.199Z</time></trkpt><trkpt lat="44.024887" lon="12.4141412"><ele>73.0</ele><time>2026-04-04T10:50:58.2Z</time></trkpt><trkpt lat="44.0247471" lon="12.4140862"><ele>73.0</ele><time>2026-04-04T10:50:59.2Z</time></trkpt><trkpt lat="44.0246049" lon="12.4140254"><ele>72.0</ele><time>2026-04-04T10:51:00.199Z</time></trkpt><trkpt lat="44.0244632" lon="12.4139661"><ele>71.0</ele><time>2026-04-04T10:51:01.199Z</time></trkpt><trkpt lat="44.0243201" lon="12.4138994"><ele>70.0</ele><time>2026-04-04T10:51:02.199Z</time></trkpt><trkpt lat="44.0241782" lon="12.4138252"><ele>70.66666666666666</ele><time>2026-04-04T10:51:03.2Z</time></trkpt><trkpt lat="44.0240407" lon="12.41374"><ele>71.33333333333333</ele><time>2026-04-04T10:51:04.199Z</time></trkpt><trkpt lat="44.0239022" lon="12.413644"><ele>72.0</ele><time>2026-04-04T10:51:05.2Z</time></trkpt><trkpt lat="44.0237577" lon="12.4135286"><ele>72.0</ele><time>2026-04-04T10:51:06.199Z</time></trkpt><trkpt lat="44.023627" lon="12.4134252"><ele>72.0</ele><time>2026-04-04T10:51:07.2Z</time></trkpt><trkpt lat="44.0234845" lon="12.4133124"><ele>72.0</ele><time>2026-04-04T10:51:08.199Z</time></trkpt><trkpt lat="44.0233441" lon="12.4132019"><ele>72.33333333333333</ele><time>2026-04-04T10:51:09.199Z</time></trkpt><trkpt lat="44.0232052" lon="12.4130906"><ele>72.66666666666666</ele><time>2026-04-04T10:51:10.199Z</time></trkpt><trkpt lat="44.0230701" lon="12.4129785"><ele>73.0</ele><time>2026-04-04T10:51:11.199Z</time></trkpt><trkpt lat="44.0229378" lon="12.4128677"><ele>73.0</ele><time>2026-04-04T10:51:12.2Z</time></trkpt><trkpt lat="44.0228092" lon="12.4127588"><ele>73.0</ele><time>2026-04-04T10:51:13.199Z</time></trkpt><trkpt lat="44.0226861" lon="12.412653"><ele>73.0</ele><time>2026-04-04T10:51:14.199Z</time></trkpt><trkpt lat="44.0225617" lon="12.4125524"><ele>73.0</ele><time>2026-04-04T10:51:15.199Z</time></trkpt><trkpt lat="44.0224455" lon="12.4124582"><ele>73.25</ele><time>2026-04-04T10:51:16.199Z</time></trkpt><trkpt lat="44.0223286" lon="12.4123678"><ele>73.5</ele><time>2026-04-04T10:51:17.199Z</time></trkpt><trkpt lat="44.0222133" lon="12.4122818"><ele>73.75</ele><time>2026-04-04T10:51:18.199Z</time></trkpt><trkpt lat="44.0220934" lon="12.412198"><ele>74.0</ele><time>2026-04-04T10:51:19.199Z</time></trkpt><trkpt lat="44.0219703" lon="12.4121149"><ele>74.5</ele><time>2026-04-04T10:51:20.199Z</time></trkpt><trkpt lat="44.0218426" lon="12.4120332"><ele>75.0</ele><time>2026-04-04T10:51:21.199Z</time></trkpt><trkpt lat="44.021703" lon="12.4119532"><ele>75.5</ele><time>2026-04-04T10:51:22.199Z</time></trkpt><trkpt lat="44.0215775" lon="12.411887"><ele>76.0</ele><time>2026-04-04T10:51:23.199Z</time></trkpt><trkpt lat="44.0214416" lon="12.4118174"><ele>76.0</ele><time>2026-04-04T10:51:24.2Z</time></trkpt><trkpt lat="44.0213047" lon="12.4117483"><ele>76.0</ele><time>2026-04-04T10:51:25.199Z</time></trkpt><trkpt lat="44.0211659" lon="12.4116784"><ele>76.0</ele><time>2026-04-04T10:51:26.199Z</time></trkpt><trkpt lat="44.0210313" lon="12.4116116"><ele>76.0</ele><time>2026-04-04T10:51:27.2Z</time></trkpt><trkpt lat="44.0208992" lon="12.4115464"><ele>76.0</ele><time>2026-04-04T10:51:28.2Z</time></trkpt><trkpt lat="44.0207718" lon="12.4114852"><ele>76.0</ele><time>2026-04-04T10:51:29.2Z</time></trkpt><trkpt lat="44.0206472" lon="12.4114261"><ele>76.0</ele><time>2026-04-04T10:51:30.199Z</time></trkpt><trkpt lat="44.020524" lon="12.4113673"><ele>76.0</ele><time>2026-04-04T10:51:31.199Z</time></trkpt><trkpt lat="44.0204016" lon="12.411307"><ele>76.0</ele><time>2026-04-04T10:51:32.199Z</time></trkpt><trkpt lat="44.020278" lon="12.4112459"><ele>76.0</ele><time>2026-04-04T10:51:33.199Z</time></trkpt><trkpt lat="44.020153" lon="12.4111879"><ele>76.0</ele><time>2026-04-04T10:51:34.199Z</time></trkpt><trkpt lat="44.0200251" lon="12.4111258"><ele>76.0</ele><time>2026-04-04T10:51:35.2Z</time></trkpt><trkpt lat="44.0198954" lon="12.4110628"><ele>76.25</ele><time>2026-04-04T10:51:36.199Z</time></trkpt><trkpt lat="44.0197619" lon="12.4109962"><ele>76.5</ele><time>2026-04-04T10:51:37.199Z</time></trkpt><trkpt lat="44.0196179" lon="12.4109221"><ele>76.75</ele><time>2026-04-04T10:51:38.2Z</time></trkpt><trkpt lat="44.0194887" lon="12.410855"><ele>77.0</ele><time>2026-04-04T10:51:39.199Z</time></trkpt><trkpt lat="44.0193478" lon="12.4107832"><ele>77.0</ele><time>2026-04-04T10:51:40.2Z</time></trkpt><trkpt lat="44.0192064" lon="12.4107109"><ele>77.0</ele><time>2026-04-04T10:51:41.199Z</time></trkpt><trkpt lat="44.0190628" lon="12.4106381"><ele>77.0</ele><time>2026-04-04T10:51:42.199Z</time></trkpt><trkpt lat="44.018918" lon="12.4105639"><ele>77.66666666666667</ele><time>2026-04-04T10:51:43.2Z</time></trkpt><trkpt lat="44.0187721" lon="12.4104905"><ele>78.33333333333333</ele><time>2026-04-04T10:51:44.199Z</time></trkpt><trkpt lat="44.0186272" lon="12.4104183"><ele>79.0</ele><time>2026-04-04T10:51:45.199Z</time></trkpt><trkpt lat="44.0184836" lon="12.4103469"><ele>79.0</ele><time>2026-04-04T10:51:46.2Z</time></trkpt><trkpt lat="44.0183407" lon="12.4102746"><ele>79.0</ele><time>2026-04-04T10:51:47.199Z</time></trkpt><trkpt lat="44.0182046" lon="12.4102052"><ele>79.0</ele><time>2026-04-04T10:51:48.199Z</time></trkpt><trkpt lat="44.0180722" lon="12.4101389"><ele>79.0</ele><time>2026-04-04T10:51:49.199Z</time></trkpt><trkpt lat="44.0179456" lon="12.4100737"><ele>78.75</ele><time>2026-04-04T10:51:50.199Z</time></trkpt><trkpt lat="44.0178217" lon="12.4100119"><ele>78.5</ele><time>2026-04-04T10:51:51.199Z</time></trkpt><trkpt lat="44.0176954" lon="12.4099492"><ele>78.25</ele><time>2026-04-04T10:51:52.199Z</time></trkpt><trkpt lat="44.0175725" lon="12.4098851"><ele>78.0</ele><time>2026-04-04T10:51:53.199Z</time></trkpt><trkpt lat="44.0174443" lon="12.4098189"><ele>78.0</ele><time>2026-04-04T10:51:54.199Z</time></trkpt><trkpt lat="44.0173347" lon="12.4097642"><ele>78.0</ele><time>2026-04-04T10:51:55.2Z</time></trkpt><trkpt lat="44.0172208" lon="12.4097033"><ele>78.0</ele><time>2026-04-04T10:51:56.199Z</time></trkpt><trkpt lat="44.0171055" lon="12.4096452"><ele>78.0</ele><time>2026-04-04T10:51:57.199Z</time></trkpt><trkpt lat="44.0169904" lon="12.4095871"><ele>78.25</ele><time>2026-04-04T10:51:58.199Z</time></trkpt><trkpt lat="44.0168728" lon="12.4095275"><ele>78.5</ele><time>2026-04-04T10:51:59.199Z</time></trkpt><trkpt lat="44.0167545" lon="12.4094678"><ele>78.75</ele><time>2026-04-04T10:52:00.2Z</time></trkpt><trkpt lat="44.0166346" lon="12.4094092"><ele>79.0</ele><time>2026-04-04T10:52:01.199Z</time></trkpt><trkpt lat="44.0165113" lon="12.4093518"><ele>79.25</ele><time>2026-04-04T10:52:02.199Z</time></trkpt><trkpt lat="44.0163871" lon="12.4092952"><ele>79.5</ele><time>2026-04-04T10:52:03.199Z</time></trkpt><trkpt lat="44.016266" lon="12.4092413"><ele>79.75</ele><time>2026-04-04T10:52:04.2Z</time></trkpt><trkpt lat="44.0161436" lon="12.4091859"><ele>80.0</ele><time>2026-04-04T10:52:05.199Z</time></trkpt><trkpt lat="44.0160109" lon="12.409129"><ele>80.0</ele><time>2026-04-04T10:52:06.199Z</time></trkpt><trkpt lat="44.0158688" lon="12.4090643"><ele>80.0</ele><time>2026-04-04T10:52:07.2Z</time></trkpt><trkpt lat="44.0157339" lon="12.4089871"><ele>80.0</ele><time>2026-04-04T10:52:08.199Z</time></trkpt><trkpt lat="44.0156089" lon="12.4089117"><ele>80.0</ele><time>2026-04-04T10:52:09.199Z</time></trkpt><trkpt lat="44.0154827" lon="12.4088425"><ele>80.5</ele><time>2026-04-04T10:52:10.199Z</time></trkpt><trkpt lat="44.0153731" lon="12.4087872"><ele>81.0</ele><time>2026-04-04T10:52:11.199Z</time></trkpt><trkpt lat="44.0152604" lon="12.4087281"><ele>81.5</ele><time>2026-04-04T10:52:12.2Z</time></trkpt><trkpt lat="44.0151481" lon="12.4086721"><ele>82.0</ele><time>2026-04-04T10:52:13.2Z</time></trkpt><trkpt lat="44.015039" lon="12.4086173"><ele>81.75</ele><time>2026-04-04T10:52:14.199Z</time></trkpt><trkpt lat="44.0149312" lon="12.408559"><ele>81.5</ele><time>2026-04-04T10:52:15.199Z</time></trkpt><trkpt lat="44.0148162" lon="12.4084982"><ele>81.25</ele><time>2026-04-04T10:52:16.2Z</time></trkpt><trkpt lat="44.0146855" lon="12.4084296"><ele>81.0</ele><time>2026-04-04T10:52:17.199Z</time></trkpt><trkpt lat="44.0145393" lon="12.4083467"><ele>81.0</ele><time>2026-04-04T10:52:18.199Z</time></trkpt><trkpt lat="44.0143917" lon="12.4082481"><ele>81.0</ele><time>2026-04-04T10:52:19.2Z</time></trkpt><trkpt lat="44.0142495" lon="12.4081411"><ele>81.0</ele><time>2026-04-04T10:52:20.199Z</time></trkpt><trkpt lat="44.0141146" lon="12.4080372"><ele>81.25</ele><time>2026-04-04T10:52:21.199Z</time></trkpt><trkpt lat="44.0139882" lon="12.4079408"><ele>81.5</ele><time>2026-04-04T10:52:22.2Z</time></trkpt><trkpt lat="44.0138718" lon="12.4078475"><ele>81.75</ele><time>2026-04-04T10:52:23.199Z</time></trkpt><trkpt lat="44.0137599" lon="12.4077567"><ele>82.0</ele><time>2026-04-04T10:52:24.199Z</time></trkpt><trkpt lat="44.0136547" lon="12.4076691"><ele>82.0</ele><time>2026-04-04T10:52:25.2Z</time></trkpt><trkpt lat="44.0135426" lon="12.4075769"><ele>82.0</ele><time>2026-04-04T10:52:26.199Z</time></trkpt><trkpt lat="44.0134395" lon="12.4074933"><ele>82.0</ele><time>2026-04-04T10:52:27.199Z</time></trkpt><trkpt lat="44.0133235" lon="12.4074026"><ele>82.0</ele><time>2026-04-04T10:52:28.199Z</time></trkpt><trkpt lat="44.0131952" lon="12.4073076"><ele>82.0</ele><time>2026-04-04T10:52:29.199Z</time></trkpt><trkpt lat="44.0130508" lon="12.407205"><ele>82.0</ele><time>2026-04-04T10:52:30.199Z</time></trkpt><trkpt lat="44.0128984" lon="12.4070774"><ele>82.0</ele><time>2026-04-04T10:52:31.199Z</time></trkpt><trkpt lat="44.0127467" lon="12.4069468"><ele>82.0</ele><time>2026-04-04T10:52:32.199Z</time></trkpt><trkpt lat="44.0126071" lon="12.40682"><ele>82.0</ele><time>2026-04-04T10:52:33.199Z</time></trkpt><trkpt lat="44.012474" lon="12.4067055"><ele>82.0</ele><time>2026-04-04T10:52:34.199Z</time></trkpt><trkpt lat="44.0123514" lon="12.4066031"><ele>82.25</ele><time>2026-04-04T10:52:35.2Z</time></trkpt><trkpt lat="44.0122334" lon="12.406506"><ele>82.5</ele><time>2026-04-04T10:52:36.199Z</time></trkpt><trkpt lat="44.0121174" lon="12.4064113"><ele>82.75</ele><time>2026-04-04T10:52:37.199Z</time></trkpt><trkpt lat="44.0120019" lon="12.4063159"><ele>83.0</ele><time>2026-04-04T10:52:38.199Z</time></trkpt><trkpt lat="44.0118885" lon="12.4062224"><ele>83.25</ele><time>2026-04-04T10:52:39.2Z</time></trkpt><trkpt lat="44.0117811" lon="12.4061343"><ele>83.5</ele><time>2026-04-04T10:52:40.199Z</time></trkpt><trkpt lat="44.0116778" lon="12.406049"><ele>83.75</ele><time>2026-04-04T10:52:41.199Z</time></trkpt><trkpt lat="44.0115689" lon="12.405962"><ele>84.0</ele><time>2026-04-04T10:52:42.2Z</time></trkpt><trkpt lat="44.0114744" lon="12.4058839"><ele>84.25</ele><time>2026-04-04T10:52:43.199Z</time></trkpt><trkpt lat="44.0113724" lon="12.4057979"><ele>84.5</ele><time>2026-04-04T10:52:44.199Z</time></trkpt><trkpt lat="44.0112685" lon="12.4057121"><ele>84.75</ele><time>2026-04-04T10:52:45.199Z</time></trkpt><trkpt lat="44.0111603" lon="12.4056274"><ele>85.0</ele><time>2026-04-04T10:52:46.199Z</time></trkpt><trkpt lat="44.0110535" lon="12.4055449"><ele>84.75</ele><time>2026-04-04T10:52:47.199Z</time></trkpt><trkpt lat="44.0109466" lon="12.4054656"><ele>84.5</ele><time>2026-04-04T10:52:48.2Z</time></trkpt><trkpt lat="44.0108265" lon="12.4053892"><ele>84.25</ele><time>2026-04-04T10:52:49.199Z</time></trkpt><trkpt lat="44.0106715" lon="12.405322"><ele>84.0</ele><time>2026-04-04T10:52:50.199Z</time></trkpt><trkpt lat="44.010486" lon="12.4052456"><ele>84.66666666666667</ele><time>2026-04-04T10:52:51.199Z</time></trkpt><trkpt lat="44.0102894" lon="12.4051526"><ele>85.33333333333334</ele><time>2026-04-04T10:52:52.2Z</time></trkpt><trkpt lat="44.0100965" lon="12.4050587"><ele>86.0</ele><time>2026-04-04T10:52:53.199Z</time></trkpt><trkpt lat="44.0099019" lon="12.4049703"><ele>86.0</ele><time>2026-04-04T10:52:54.199Z</time></trkpt><trkpt lat="44.0097019" lon="12.4048821"><ele>86.0</ele><time>2026-04-04T10:52:55.2Z</time></trkpt><trkpt lat="44.0095084" lon="12.4048018"><ele>86.0</ele><time>2026-04-04T10:52:56.199Z</time></trkpt><trkpt lat="44.0093162" lon="12.4047195"><ele>86.33333333333334</ele><time>2026-04-04T10:52:57.199Z</time></trkpt><trkpt lat="44.0091112" lon="12.4046331"><ele>86.66666666666667</ele><time>2026-04-04T10:52:58.199Z</time></trkpt><trkpt lat="44.0089322" lon="12.4045585"><ele>87.0</ele><time>2026-04-04T10:52:59.199Z</time></trkpt><trkpt lat="44.0087406" lon="12.4044791"><ele>87.0</ele><time>2026-04-04T10:53:00.199Z</time></trkpt><trkpt lat="44.0085489" lon="12.4043974"><ele>87.0</ele><time>2026-04-04T10:53:01.199Z</time></trkpt><trkpt lat="44.0083573" lon="12.404314"><ele>87.0</ele><time>2026-04-04T10:53:02.199Z</time></trkpt><trkpt lat="44.0081651" lon="12.4042315"><ele>86.66666666666667</ele><time>2026-04-04T10:53:03.199Z</time></trkpt><trkpt lat="44.0079733" lon="12.4041471"><ele>86.33333333333334</ele><time>2026-04-04T10:53:04.2Z</time></trkpt><trkpt lat="44.00778" lon="12.4040632"><ele>86.0</ele><time>2026-04-04T10:53:05.199Z</time></trkpt><trkpt lat="44.0075861" lon="12.4039758"><ele>86.33333333333334</ele><time>2026-04-04T10:53:06.199Z</time></trkpt><trkpt lat="44.0073932" lon="12.4038797"><ele>86.66666666666667</ele><time>2026-04-04T10:53:07.199Z</time></trkpt><trkpt lat="44.0072008" lon="12.4037757"><ele>87.0</ele><time>2026-04-04T10:53:08.199Z</time></trkpt><trkpt lat="44.0070133" lon="12.4036552"><ele>87.0</ele><time>2026-04-04T10:53:09.2Z</time></trkpt><trkpt lat="44.0068299" lon="12.403515"><ele>87.0</ele><time>2026-04-04T10:53:10.199Z</time></trkpt><trkpt lat="44.0066501" lon="12.4033585"><ele>87.0</ele><time>2026-04-04T10:53:11.199Z</time></trkpt><trkpt lat="44.0064703" lon="12.4031961"><ele>87.0</ele><time>2026-04-04T10:53:12.2Z</time></trkpt><trkpt lat="44.0062946" lon="12.4030331"><ele>87.0</ele><time>2026-04-04T10:53:13.199Z</time></trkpt><trkpt lat="44.006107" lon="12.402858"><ele>87.0</ele><time>2026-04-04T10:53:14.199Z</time></trkpt><trkpt lat="44.0059443" lon="12.4027073"><ele>88.0</ele><time>2026-04-04T10:53:15.199Z</time></trkpt><trkpt lat="44.0057709" lon="12.4025485"><ele>89.0</ele><time>2026-04-04T10:53:16.199Z</time></trkpt><trkpt lat="44.005601" lon="12.4023923"><ele>90.0</ele><time>2026-04-04T10:53:17.199Z</time></trkpt><trkpt lat="44.0054315" lon="12.4022395"><ele>90.33333333333333</ele><time>2026-04-04T10:53:18.199Z</time></trkpt><trkpt lat="44.0052737" lon="12.4020971"><ele>90.66666666666666</ele><time>2026-04-04T10:53:19.199Z</time></trkpt><trkpt lat="44.0051279" lon="12.4019602"><ele>91.0</ele><time>2026-04-04T10:53:20.2Z</time></trkpt><trkpt lat="44.0049861" lon="12.4018335"><ele>90.5</ele><time>2026-04-04T10:53:21.2Z</time></trkpt><trkpt lat="44.0048584" lon="12.4017229"><ele>90.0</ele><time>2026-04-04T10:53:22.199Z</time></trkpt><trkpt lat="44.0047454" lon="12.4016274"><ele>89.5</ele><time>2026-04-04T10:53:23.199Z</time></trkpt><trkpt lat="44.004652" lon="12.4015489"><ele>89.0</ele><time>2026-04-04T10:53:24.199Z</time></trkpt><trkpt lat="44.0045715" lon="12.401483"><ele>89.0</ele><time>2026-04-04T10:53:25.199Z</time></trkpt><trkpt lat="44.0044846" lon="12.4014027"><ele>89.0</ele><time>2026-04-04T10:53:26.199Z</time></trkpt><trkpt lat="44.0043996" lon="12.4013395"><ele>89.0</ele><time>2026-04-04T10:53:27.199Z</time></trkpt><trkpt lat="44.0043092" lon="12.4013171"><ele>89.0</ele><time>2026-04-04T10:53:28.199Z</time></trkpt><trkpt lat="44.0042088" lon="12.4013352"><ele>89.0</ele><time>2026-04-04T10:53:29.2Z</time></trkpt><trkpt lat="44.004087" lon="12.4013753"><ele>89.25</ele><time>2026-04-04T10:53:30.2Z</time></trkpt><trkpt lat="44.0039649" lon="12.4013888"><ele>89.5</ele><time>2026-04-04T10:53:31.199Z</time></trkpt><trkpt lat="44.0038276" lon="12.4014027"><ele>89.75</ele><time>2026-04-04T10:53:32.199Z</time></trkpt><trkpt lat="44.003679" lon="12.4014139"><ele>90.0</ele><time>2026-04-04T10:53:33.199Z</time></trkpt><trkpt lat="44.0035277" lon="12.4014346"><ele>90.0</ele><time>2026-04-04T10:53:34.199Z</time></trkpt><trkpt lat="44.0033668" lon="12.4014608"><ele>90.0</ele><time>2026-04-04T10:53:35.2Z</time></trkpt><trkpt lat="44.0032077" lon="12.4014848"><ele>90.0</ele><time>2026-04-04T10:53:36.199Z</time></trkpt><trkpt lat="44.0030464" lon="12.401509"><ele>90.66666666666667</ele><time>2026-04-04T10:53:37.199Z</time></trkpt><trkpt lat="44.002893" lon="12.4015321"><ele>91.33333333333334</ele><time>2026-04-04T10:53:38.199Z</time></trkpt><trkpt lat="44.002716" lon="12.4015575"><ele>92.0</ele><time>2026-04-04T10:53:39.199Z</time></trkpt><trkpt lat="44.0025504" lon="12.4015822"><ele>92.33333333333334</ele><time>2026-04-04T10:53:40.199Z</time></trkpt><trkpt lat="44.002392" lon="12.4016041"><ele>92.66666666666667</ele><time>2026-04-04T10:53:41.199Z</time></trkpt><trkpt lat="44.0022155" lon="12.4016294"><ele>93.0</ele><time>2026-04-04T10:53:42.2Z</time></trkpt><trkpt lat="44.0020445" lon="12.4016539"><ele>93.0</ele><time>2026-04-04T10:53:43.2Z</time></trkpt><trkpt lat="44.0018686" lon="12.4016804"><ele>93.0</ele><time>2026-04-04T10:53:44.2Z</time></trkpt><trkpt lat="44.0016914" lon="12.4017068"><ele>93.0</ele><time>2026-04-04T10:53:45.199Z</time></trkpt><trkpt lat="44.0015067" lon="12.4017335"><ele>92.33333333333333</ele><time>2026-04-04T10:53:46.2Z</time></trkpt><trkpt lat="44.0013443" lon="12.401757"><ele>91.66666666666666</ele><time>2026-04-04T10:53:47.199Z</time></trkpt><trkpt lat="44.0011701" lon="12.4017855"><ele>91.0</ele><time>2026-04-04T10:53:48.2Z</time></trkpt><trkpt lat="44.0009929" lon="12.4018074"><ele>91.66666666666666</ele><time>2026-04-04T10:53:49.199Z</time></trkpt><trkpt lat="44.0008144" lon="12.4018328"><ele>92.33333333333333</ele><time>2026-04-04T10:53:50.2Z</time></trkpt><trkpt lat="44.0006356" lon="12.4018562"><ele>93.0</ele><time>2026-04-04T10:53:51.199Z</time></trkpt><trkpt lat="44.0004574" lon="12.4018816"><ele>93.0</ele><time>2026-04-04T10:53:52.199Z</time></trkpt><trkpt lat="44.0002763" lon="12.401916"><ele>93.0</ele><time>2026-04-04T10:53:53.2Z</time></trkpt><trkpt lat="44.0001006" lon="12.4019419"><ele>93.0</ele><time>2026-04-04T10:53:54.2Z</time></trkpt><trkpt lat="43.999925" lon="12.4019722"><ele>93.0</ele><time>2026-04-04T10:53:55.199Z</time></trkpt><trkpt lat="43.9997489" lon="12.4020036"><ele>93.0</ele><time>2026-04-04T10:53:56.2Z</time></trkpt><trkpt lat="43.9995721" lon="12.4020322"><ele>93.0</ele><time>2026-04-04T10:53:57.199Z</time></trkpt><trkpt lat="43.9993956" lon="12.4020571"><ele>93.0</ele><time>2026-04-04T10:53:58.199Z</time></trkpt><trkpt lat="43.9992195" lon="12.4020823"><ele>93.0</ele><time>2026-04-04T10:53:59.2Z</time></trkpt><trkpt lat="43.9990512" lon="12.4021063"><ele>93.0</ele><time>2026-04-04T10:54:00.199Z</time></trkpt><trkpt lat="43.9988923" lon="12.4021303"><ele>93.25</ele><time>2026-04-04T10:54:01.2Z</time></trkpt><trkpt lat="43.9987359" lon="12.4021541"><ele>93.5</ele><time>2026-04-04T10:54:02.199Z</time></trkpt><trkpt lat="43.9986086" lon="12.4021722"><ele>93.75</ele><time>2026-04-04T10:54:03.2Z</time></trkpt><trkpt lat="43.9984869" lon="12.4021847"><ele>94.0</ele><time>2026-04-04T10:54:04.199Z</time></trkpt><trkpt lat="43.9983814" lon="12.4021938"><ele>93.5</ele><time>2026-04-04T10:54:05.199Z</time></trkpt><trkpt lat="43.9982777" lon="12.4021982"><ele>93.0</ele><time>2026-04-04T10:54:06.199Z</time></trkpt><trkpt lat="43.9981672" lon="12.4021979"><ele>92.5</ele><time>2026-04-04T10:54:07.199Z</time></trkpt><trkpt lat="43.9980466" lon="12.4022095"><ele>92.0</ele><time>2026-04-04T10:54:08.199Z</time></trkpt><trkpt lat="43.9979213" lon="12.4022464"><ele>92.0</ele><time>2026-04-04T10:54:09.2Z</time></trkpt><trkpt lat="43.9977826" lon="12.4022852"><ele>92.0</ele><time>2026-04-04T10:54:10.199Z</time></trkpt><trkpt lat="43.9976246" lon="12.4023185"><ele>92.0</ele><time>2026-04-04T10:54:11.199Z</time></trkpt><trkpt lat="43.9974428" lon="12.4023459"><ele>93.0</ele><time>2026-04-04T10:54:12.199Z</time></trkpt><trkpt lat="43.9972521" lon="12.4023777"><ele>94.0</ele><time>2026-04-04T10:54:13.199Z</time></trkpt><trkpt lat="43.9970511" lon="12.402411"><ele>95.0</ele><time>2026-04-04T10:54:14.199Z</time></trkpt><trkpt lat="43.9968524" lon="12.4024371"><ele>95.66666666666667</ele><time>2026-04-04T10:54:15.199Z</time></trkpt><trkpt lat="43.9966557" lon="12.4024632"><ele>96.33333333333334</ele><time>2026-04-04T10:54:16.199Z</time></trkpt><trkpt lat="43.9964651" lon="12.4024904"><ele>97.0</ele><time>2026-04-04T10:54:17.199Z</time></trkpt><trkpt lat="43.9962666" lon="12.4025166"><ele>97.0</ele><time>2026-04-04T10:54:18.199Z</time></trkpt><trkpt lat="43.9960933" lon="12.4025367"><ele>97.0</ele><time>2026-04-04T10:54:19.199Z</time></trkpt><trkpt lat="43.995908" lon="12.4025424"><ele>97.0</ele><time>2026-04-04T10:54:20.199Z</time></trkpt><trkpt lat="43.9957229" lon="12.4025224"><ele>98.0</ele><time>2026-04-04T10:54:21.199Z</time></trkpt><trkpt lat="43.9955372" lon="12.4024788"><ele>99.0</ele><time>2026-04-04T10:54:22.2Z</time></trkpt><trkpt lat="43.9953531" lon="12.4024073"><ele>100.0</ele><time>2026-04-04T10:54:23.199Z</time></trkpt><trkpt lat="43.9951769" lon="12.4022995"><ele>100.0</ele><time>2026-04-04T10:54:24.199Z</time></trkpt><trkpt lat="43.9949999" lon="12.4021853"><ele>100.0</ele><time>2026-04-04T10:54:25.199Z</time></trkpt><trkpt lat="43.9948229" lon="12.4020674"><ele>100.0</ele><time>2026-04-04T10:54:26.2Z</time></trkpt><trkpt lat="43.9946506" lon="12.4019505"><ele>101.33333333333334</ele><time>2026-04-04T10:54:27.199Z</time></trkpt><trkpt lat="43.9944817" lon="12.4018354"><ele>102.66666666666666</ele><time>2026-04-04T10:54:28.199Z</time></trkpt><trkpt lat="43.9943144" lon="12.4017274"><ele>104.0</ele><time>2026-04-04T10:54:29.2Z</time></trkpt><trkpt lat="43.9941508" lon="12.4016185"><ele>104.0</ele><time>2026-04-04T10:54:30.199Z</time></trkpt><trkpt lat="43.9939856" lon="12.4015154"><ele>104.0</ele><time>2026-04-04T10:54:31.199Z</time></trkpt><trkpt lat="43.993822" lon="12.401417"><ele>104.0</ele><time>2026-04-04T10:54:32.199Z</time></trkpt><trkpt lat="43.9936487" lon="12.4013302"><ele>105.66666666666666</ele><time>2026-04-04T10:54:33.199Z</time></trkpt><trkpt lat="43.9934631" lon="12.4012627"><ele>107.33333333333334</ele><time>2026-04-04T10:54:34.199Z</time></trkpt><trkpt lat="43.9932669" lon="12.4012116"><ele>109.0</ele><time>2026-04-04T10:54:35.199Z</time></trkpt><trkpt lat="43.9930679" lon="12.4011757"><ele>109.66666666666667</ele><time>2026-04-04T10:54:36.2Z</time></trkpt><trkpt lat="43.9928691" lon="12.4011459"><ele>110.33333333333334</ele><time>2026-04-04T10:54:37.199Z</time></trkpt><trkpt lat="43.9926744" lon="12.4011205"><ele>111.0</ele><time>2026-04-04T10:54:38.199Z</time></trkpt><trkpt lat="43.9924802" lon="12.401099"><ele>111.66666666666666</ele><time>2026-04-04T10:54:39.199Z</time></trkpt><trkpt lat="43.9922846" lon="12.4010768"><ele>112.33333333333333</ele><time>2026-04-04T10:54:40.199Z</time></trkpt><trkpt lat="43.9920888" lon="12.4010596"><ele>113.0</ele><time>2026-04-04T10:54:41.199Z</time></trkpt><trkpt lat="43.9918937" lon="12.4010469"><ele>113.0</ele><time>2026-04-04T10:54:42.2Z</time></trkpt><trkpt lat="43.9917002" lon="12.4010332"><ele>113.0</ele><time>2026-04-04T10:54:43.2Z</time></trkpt><trkpt lat="43.9915057" lon="12.4010228"><ele>113.0</ele><time>2026-04-04T10:54:44.199Z</time></trkpt><trkpt lat="43.9913141" lon="12.4010096"><ele>113.33333333333333</ele><time>2026-04-04T10:54:45.199Z</time></trkpt><trkpt lat="43.9911241" lon="12.4009936"><ele>113.66666666666666</ele><time>2026-04-04T10:54:46.199Z</time></trkpt><trkpt lat="43.9909376" lon="12.4009785"><ele>114.0</ele><time>2026-04-04T10:54:47.199Z</time></trkpt><trkpt lat="43.9907507" lon="12.4009635"><ele>114.0</ele><time>2026-04-04T10:54:48.199Z</time></trkpt><trkpt lat="43.990563" lon="12.4009498"><ele>114.0</ele><time>2026-04-04T10:54:49.199Z</time></trkpt><trkpt lat="43.9903661" lon="12.4009384"><ele>114.0</ele><time>2026-04-04T10:54:50.199Z</time></trkpt><trkpt lat="43.9901915" lon="12.4009461"><ele>114.0</ele><time>2026-04-04T10:54:51.199Z</time></trkpt><trkpt lat="43.9900125" lon="12.4009754"><ele>114.0</ele><time>2026-04-04T10:54:52.199Z</time></trkpt><trkpt lat="43.9898433" lon="12.40102"><ele>114.0</ele><time>2026-04-04T10:54:53.199Z</time></trkpt><trkpt lat="43.9896857" lon="12.4010778"><ele>113.0</ele><time>2026-04-04T10:54:54.199Z</time></trkpt><trkpt lat="43.9895367" lon="12.4011467"><ele>112.0</ele><time>2026-04-04T10:54:55.2Z</time></trkpt><trkpt lat="43.9893949" lon="12.401222"><ele>111.0</ele><time>2026-04-04T10:54:56.2Z</time></trkpt><trkpt lat="43.9892571" lon="12.4012931"><ele>110.0</ele><time>2026-04-04T10:54:57.199Z</time></trkpt><trkpt lat="43.9891214" lon="12.4013481"><ele>109.0</ele><time>2026-04-04T10:54:58.199Z</time></trkpt><trkpt lat="43.9889876" lon="12.4013881"><ele>108.0</ele><time>2026-04-04T10:54:59.2Z</time></trkpt><trkpt lat="43.9888523" lon="12.4014233"><ele>107.0</ele><time>2026-04-04T10:55:00.2Z</time></trkpt><trkpt lat="43.9887206" lon="12.4014559"><ele>107.0</ele><time>2026-04-04T10:55:01.199Z</time></trkpt><trkpt lat="43.9885935" lon="12.4014893"><ele>107.0</ele><time>2026-04-04T10:55:02.2Z</time></trkpt><trkpt lat="43.9884687" lon="12.4015331"><ele>107.0</ele><time>2026-04-04T10:55:03.2Z</time></trkpt><trkpt lat="43.9883531" lon="12.4015989"><ele>107.0</ele><time>2026-04-04T10:55:04.199Z</time></trkpt><trkpt lat="43.9882416" lon="12.4016775"><ele>108.25</ele><time>2026-04-04T10:55:05.199Z</time></trkpt><trkpt lat="43.9881289" lon="12.4017777"><ele>109.5</ele><time>2026-04-04T10:55:06.2Z</time></trkpt><trkpt lat="43.9880393" lon="12.4018741"><ele>110.75</ele><time>2026-04-04T10:55:07.199Z</time></trkpt><trkpt lat="43.9879452" lon="12.4019874"><ele>112.0</ele><time>2026-04-04T10:55:08.199Z</time></trkpt><trkpt lat="43.9878539" lon="12.4020993"><ele>112.75</ele><time>2026-04-04T10:55:09.2Z</time></trkpt><trkpt lat="43.9877649" lon="12.4022127"><ele>113.5</ele><time>2026-04-04T10:55:10.199Z</time></trkpt><trkpt lat="43.9876728" lon="12.4023265"><ele>114.25</ele><time>2026-04-04T10:55:11.2Z</time></trkpt><trkpt lat="43.9875759" lon="12.4024359"><ele>115.0</ele><time>2026-04-04T10:55:12.199Z</time></trkpt><trkpt lat="43.9874719" lon="12.402532"><ele>115.0</ele><time>2026-04-04T10:55:13.199Z</time></trkpt><trkpt lat="43.9873598" lon="12.4026072"><ele>115.0</ele><time>2026-04-04T10:55:14.199Z</time></trkpt><trkpt lat="43.9872472" lon="12.4026696"><ele>115.0</ele><time>2026-04-04T10:55:15.199Z</time></trkpt><trkpt lat="43.9871376" lon="12.402709"><ele>115.0</ele><time>2026-04-04T10:55:16.199Z</time></trkpt><trkpt lat="43.9870266" lon="12.4027271"><ele>115.0</ele><time>2026-04-04T10:55:17.199Z</time></trkpt><trkpt lat="43.9869103" lon="12.4027221"><ele>115.0</ele><time>2026-04-04T10:55:18.2Z</time></trkpt><trkpt lat="43.9867934" lon="12.4026947"><ele>115.0</ele><time>2026-04-04T10:55:19.199Z</time></trkpt><trkpt lat="43.9866793" lon="12.4026536"><ele>115.0</ele><time>2026-04-04T10:55:20.199Z</time></trkpt><trkpt lat="43.9865729" lon="12.4025822"><ele>115.75</ele><time>2026-04-04T10:55:21.199Z</time></trkpt><trkpt lat="43.9864635" lon="12.4025015"><ele>116.5</ele><time>2026-04-04T10:55:22.199Z</time></trkpt><trkpt lat="43.9863703" lon="12.4024176"><ele>117.25</ele><time>2026-04-04T10:55:23.199Z</time></trkpt><trkpt lat="43.9862672" lon="12.4023401"><ele>118.0</ele><time>2026-04-04T10:55:24.2Z</time></trkpt><trkpt lat="43.9861596" lon="12.4022769"><ele>118.0</ele><time>2026-04-04T10:55:25.199Z</time></trkpt><trkpt lat="43.9860497" lon="12.4022347"><ele>118.00000000000001</ele><time>2026-04-04T10:55:26.2Z</time></trkpt><trkpt lat="43.9859394" lon="12.40222"><ele>118.00000000000001</ele><time>2026-04-04T10:55:27.199Z</time></trkpt><trkpt lat="43.9858298" lon="12.4022341"><ele>118.0</ele><time>2026-04-04T10:55:28.199Z</time></trkpt><trkpt lat="43.985724" lon="12.4022742"><ele>118.0</ele><time>2026-04-04T10:55:29.199Z</time></trkpt><trkpt lat="43.9856259" lon="12.4023337"><ele>117.4</ele><time>2026-04-04T10:55:30.199Z</time></trkpt><trkpt lat="43.9855333" lon="12.4024175"><ele>116.80000000000001</ele><time>2026-04-04T10:55:31.199Z</time></trkpt><trkpt lat="43.9854429" lon="12.4025065"><ele>116.2</ele><time>2026-04-04T10:55:32.199Z</time></trkpt><trkpt lat="43.9853546" lon="12.4025983"><ele>115.6</ele><time>2026-04-04T10:55:33.199Z</time></trkpt><trkpt lat="43.9852647" lon="12.4026853"><ele>115.0</ele><time>2026-04-04T10:55:34.199Z</time></trkpt><trkpt lat="43.9851685" lon="12.4027585"><ele>115.0</ele><time>2026-04-04T10:55:35.199Z</time></trkpt><trkpt lat="43.985064" lon="12.4028211"><ele>115.0</ele><time>2026-04-04T10:55:36.199Z</time></trkpt><trkpt lat="43.9849529" lon="12.4028677"><ele>115.0</ele><time>2026-04-04T10:55:37.2Z</time></trkpt><trkpt lat="43.9848307" lon="12.4028939"><ele>115.0</ele><time>2026-04-04T10:55:38.2Z</time></trkpt><trkpt lat="43.9847212" lon="12.4028996"><ele>116.75</ele><time>2026-04-04T10:55:39.2Z</time></trkpt><trkpt lat="43.9846049" lon="12.4029008"><ele>118.5</ele><time>2026-04-04T10:55:40.199Z</time></trkpt><trkpt lat="43.9844876" lon="12.4028961"><ele>120.25</ele><time>2026-04-04T10:55:41.2Z</time></trkpt><trkpt lat="43.9843762" lon="12.4028889"><ele>122.0</ele><time>2026-04-04T10:55:42.199Z</time></trkpt><trkpt lat="43.9842637" lon="12.4028971"><ele>122.5</ele><time>2026-04-04T10:55:43.2Z</time></trkpt><trkpt lat="43.9841479" lon="12.402935"><ele>123.0</ele><time>2026-04-04T10:55:44.2Z</time></trkpt><trkpt lat="43.9840347" lon="12.4030033"><ele>123.5</ele><time>2026-04-04T10:55:45.199Z</time></trkpt><trkpt lat="43.9839306" lon="12.4030918"><ele>124.0</ele><time>2026-04-04T10:55:46.199Z</time></trkpt><trkpt lat="43.9838123" lon="12.4032117"><ele>122.25</ele><time>2026-04-04T10:55:47.199Z</time></trkpt><trkpt lat="43.983701" lon="12.4033358"><ele>120.5</ele><time>2026-04-04T10:55:48.2Z</time></trkpt><trkpt lat="43.9835916" lon="12.4034681"><ele>118.75</ele><time>2026-04-04T10:55:49.199Z</time></trkpt><trkpt lat="43.9834848" lon="12.4036107"><ele>117.0</ele><time>2026-04-04T10:55:50.199Z</time></trkpt><trkpt lat="43.9833817" lon="12.4037546"><ele>115.0</ele><time>2026-04-04T10:55:51.2Z</time></trkpt><trkpt lat="43.9832813" lon="12.4039057"><ele>113.0</ele><time>2026-04-04T10:55:52.2Z</time></trkpt><trkpt lat="43.9831868" lon="12.4040682"><ele>111.0</ele><time>2026-04-04T10:55:53.199Z</time></trkpt><trkpt lat="43.9831016" lon="12.4042429"><ele>111.0</ele><time>2026-04-04T10:55:54.2Z</time></trkpt><trkpt lat="43.9830262" lon="12.4044261"><ele>111.0</ele><time>2026-04-04T10:55:55.199Z</time></trkpt><trkpt lat="43.9829539" lon="12.4046194"><ele>111.0</ele><time>2026-04-04T10:55:56.199Z</time></trkpt><trkpt lat="43.9828848" lon="12.4048294"><ele>108.0</ele><time>2026-04-04T10:55:57.2Z</time></trkpt><trkpt lat="43.9828175" lon="12.4050684"><ele>105.0</ele><time>2026-04-04T10:55:58.199Z</time></trkpt><trkpt lat="43.982745" lon="12.4053374"><ele>102.0</ele><time>2026-04-04T10:55:59.199Z</time></trkpt><trkpt lat="43.9826605" lon="12.4056153"><ele>102.0</ele><time>2026-04-04T10:56:00.2Z</time></trkpt><trkpt lat="43.9825685" lon="12.4058912"><ele>102.0</ele><time>2026-04-04T10:56:01.199Z</time></trkpt><trkpt lat="43.982481" lon="12.4061499"><ele>102.0</ele><time>2026-04-04T10:56:02.199Z</time></trkpt><trkpt lat="43.9824066" lon="12.4063822"><ele>103.75</ele><time>2026-04-04T10:56:03.199Z</time></trkpt><trkpt lat="43.9823455" lon="12.4065717"><ele>105.5</ele><time>2026-04-04T10:56:04.2Z</time></trkpt><trkpt lat="43.9822912" lon="12.4067299"><ele>107.25</ele><time>2026-04-04T10:56:05.2Z</time></trkpt><trkpt lat="43.9822318" lon="12.4068595"><ele>109.0</ele><time>2026-04-04T10:56:06.2Z</time></trkpt><trkpt lat="43.9821578" lon="12.4069526"><ele>109.0</ele><time>2026-04-04T10:56:07.2Z</time></trkpt><trkpt lat="43.9820584" lon="12.4070058"><ele>109.0</ele><time>2026-04-04T10:56:08.2Z</time></trkpt><trkpt lat="43.9819377" lon="12.4070139"><ele>109.0</ele><time>2026-04-04T10:56:09.199Z</time></trkpt><trkpt lat="43.981804" lon="12.4069872"><ele>109.0</ele><time>2026-04-04T10:56:10.2Z</time></trkpt><trkpt lat="43.9816644" lon="12.4069408"><ele>108.5</ele><time>2026-04-04T10:56:11.199Z</time></trkpt><trkpt lat="43.9815286" lon="12.4069181"><ele>108.0</ele><time>2026-04-04T10:56:12.2Z</time></trkpt><trkpt lat="43.9814028" lon="12.4069239"><ele>107.5</ele><time>2026-04-04T10:56:13.199Z</time></trkpt><trkpt lat="43.9812941" lon="12.4069723"><ele>107.0</ele><time>2026-04-04T10:56:14.199Z</time></trkpt><trkpt lat="43.9811991" lon="12.4070641"><ele>109.0</ele><time>2026-04-04T10:56:15.199Z</time></trkpt><trkpt lat="43.9811209" lon="12.4071945"><ele>111.0</ele><time>2026-04-04T10:56:16.2Z</time></trkpt><trkpt lat="43.9810516" lon="12.4073535"><ele>113.0</ele><time>2026-04-04T10:56:17.2Z</time></trkpt><trkpt lat="43.9809803" lon="12.4075022"><ele>115.0</ele><time>2026-04-04T10:56:18.2Z</time></trkpt><trkpt lat="43.9808813" lon="12.4076626"><ele>115.66666666666667</ele><time>2026-04-04T10:56:19.199Z</time></trkpt><trkpt lat="43.98077" lon="12.407796"><ele>116.33333333333334</ele><time>2026-04-04T10:56:20.2Z</time></trkpt><trkpt lat="43.9806449" lon="12.4079152"><ele>117.0</ele><time>2026-04-04T10:56:21.199Z</time></trkpt><trkpt lat="43.9805121" lon="12.4080262"><ele>118.66666666666666</ele><time>2026-04-04T10:56:22.199Z</time></trkpt><trkpt lat="43.9803742" lon="12.4081312"><ele>120.33333333333333</ele><time>2026-04-04T10:56:23.199Z</time></trkpt><trkpt lat="43.9802285" lon="12.4082333"><ele>122.0</ele><time>2026-04-04T10:56:24.199Z</time></trkpt><trkpt lat="43.9800798" lon="12.4083224"><ele>121.0</ele><time>2026-04-04T10:56:25.199Z</time></trkpt><trkpt lat="43.979914" lon="12.4084038"><ele>120.0</ele><time>2026-04-04T10:56:26.2Z</time></trkpt><trkpt lat="43.9797617" lon="12.4084678"><ele>119.0</ele><time>2026-04-04T10:56:27.199Z</time></trkpt><trkpt lat="43.9795962" lon="12.4085341"><ele>119.0</ele><time>2026-04-04T10:56:28.199Z</time></trkpt><trkpt lat="43.9794318" lon="12.4086031"><ele>119.0</ele><time>2026-04-04T10:56:29.199Z</time></trkpt><trkpt lat="43.9792703" lon="12.4086719"><ele>119.0</ele><time>2026-04-04T10:56:30.2Z</time></trkpt><trkpt lat="43.9791124" lon="12.4087394"><ele>119.0</ele><time>2026-04-04T10:56:31.199Z</time></trkpt><trkpt lat="43.9789537" lon="12.4088058"><ele>119.0</ele><time>2026-04-04T10:56:32.199Z</time></trkpt><trkpt lat="43.9787973" lon="12.4088722"><ele>119.0</ele><time>2026-04-04T10:56:33.199Z</time></trkpt><trkpt lat="43.9786502" lon="12.4089324"><ele>122.0</ele><time>2026-04-04T10:56:34.2Z</time></trkpt><trkpt lat="43.9784836" lon="12.4090028"><ele>125.0</ele><time>2026-04-04T10:56:35.199Z</time></trkpt><trkpt lat="43.9783259" lon="12.40907"><ele>128.0</ele><time>2026-04-04T10:56:36.199Z</time></trkpt><trkpt lat="43.9781676" lon="12.4091379"><ele>128.0</ele><time>2026-04-04T10:56:37.199Z</time></trkpt><trkpt lat="43.9780093" lon="12.409207"><ele>128.0</ele><time>2026-04-04T10:56:38.199Z</time></trkpt><trkpt lat="43.9778502" lon="12.4092776"><ele>128.0</ele><time>2026-04-04T10:56:39.199Z</time></trkpt><trkpt lat="43.9776902" lon="12.4093467"><ele>128.0</ele><time>2026-04-04T10:56:40.2Z</time></trkpt><trkpt lat="43.9775299" lon="12.4094096"><ele>128.0</ele><time>2026-04-04T10:56:41.199Z</time></trkpt><trkpt lat="43.9773659" lon="12.4094621"><ele>128.0</ele><time>2026-04-04T10:56:42.199Z</time></trkpt><trkpt lat="43.977201" lon="12.4095067"><ele>125.66666666666666</ele><time>2026-04-04T10:56:43.2Z</time></trkpt><trkpt lat="43.9770333" lon="12.4095374"><ele>123.33333333333334</ele><time>2026-04-04T10:56:44.2Z</time></trkpt><trkpt lat="43.9768665" lon="12.4095611"><ele>121.0</ele><time>2026-04-04T10:56:45.199Z</time></trkpt><trkpt lat="43.9767011" lon="12.4095844"><ele>119.66666666666667</ele><time>2026-04-04T10:56:46.199Z</time></trkpt><trkpt lat="43.9765382" lon="12.4096051"><ele>118.33333333333334</ele><time>2026-04-04T10:56:47.199Z</time></trkpt><trkpt lat="43.976378" lon="12.409619"><ele>117.0</ele><time>2026-04-04T10:56:48.199Z</time></trkpt><trkpt lat="43.9762237" lon="12.4096225"><ele>117.0</ele><time>2026-04-04T10:56:49.199Z</time></trkpt><trkpt lat="43.9760829" lon="12.4096111"><ele>117.0</ele><time>2026-04-04T10:56:50.199Z</time></trkpt><trkpt lat="43.9759315" lon="12.4095906"><ele>117.0</ele><time>2026-04-04T10:56:51.199Z</time></trkpt><trkpt lat="43.9757965" lon="12.409572"><ele>117.0</ele><time>2026-04-04T10:56:52.199Z</time></trkpt><trkpt lat="43.9756691" lon="12.4095818"><ele>116.75</ele><time>2026-04-04T10:56:53.199Z</time></trkpt><trkpt lat="43.9755485" lon="12.4096192"><ele>116.5</ele><time>2026-04-04T10:56:54.2Z</time></trkpt><trkpt lat="43.9754328" lon="12.4096992"><ele>116.25</ele><time>2026-04-04T10:56:55.199Z</time></trkpt><trkpt lat="43.9753252" lon="12.4098202"><ele>116.0</ele><time>2026-04-04T10:56:56.199Z</time></trkpt><trkpt lat="43.9752244" lon="12.4099682"><ele>117.66666666666666</ele><time>2026-04-04T10:56:57.199Z</time></trkpt><trkpt lat="43.9751236" lon="12.4101309"><ele>119.33333333333334</ele><time>2026-04-04T10:56:58.2Z</time></trkpt><trkpt lat="43.9750194" lon="12.4102989"><ele>121.0</ele><time>2026-04-04T10:56:59.2Z</time></trkpt><trkpt lat="43.9749117" lon="12.4104643"><ele>123.25</ele><time>2026-04-04T10:57:00.199Z</time></trkpt><trkpt lat="43.9748048" lon="12.4106173"><ele>125.5</ele><time>2026-04-04T10:57:01.199Z</time></trkpt><trkpt lat="43.974701" lon="12.4107524"><ele>127.75</ele><time>2026-04-04T10:57:02.199Z</time></trkpt><trkpt lat="43.9745908" lon="12.4108739"><ele>130.0</ele><time>2026-04-04T10:57:03.199Z</time></trkpt><trkpt lat="43.9744657" lon="12.4109785"><ele>130.0</ele><time>2026-04-04T10:57:04.199Z</time></trkpt><trkpt lat="43.9743252" lon="12.41106"><ele>130.0</ele><time>2026-04-04T10:57:05.199Z</time></trkpt><trkpt lat="43.9741765" lon="12.4111145"><ele>130.0</ele><time>2026-04-04T10:57:06.199Z</time></trkpt><trkpt lat="43.9740064" lon="12.411168"><ele>127.0</ele><time>2026-04-04T10:57:07.199Z</time></trkpt><trkpt lat="43.9738468" lon="12.4112158"><ele>124.0</ele><time>2026-04-04T10:57:08.199Z</time></trkpt><trkpt lat="43.9736888" lon="12.4112624"><ele>121.0</ele><time>2026-04-04T10:57:09.199Z</time></trkpt><trkpt lat="43.9735363" lon="12.4113003"><ele>122.75</ele><time>2026-04-04T10:57:10.2Z</time></trkpt><trkpt lat="43.9733925" lon="12.4113383"><ele>124.5</ele><time>2026-04-04T10:57:11.199Z</time></trkpt><trkpt lat="43.9732577" lon="12.4113648"><ele>126.25</ele><time>2026-04-04T10:57:12.2Z</time></trkpt><trkpt lat="43.973135" lon="12.411395"><ele>128.0</ele><time>2026-04-04T10:57:13.199Z</time></trkpt><trkpt lat="43.9730235" lon="12.4114315"><ele>127.99999999999999</ele><time>2026-04-04T10:57:14.2Z</time></trkpt><trkpt lat="43.9729286" lon="12.4114709"><ele>128.0</ele><time>2026-04-04T10:57:15.199Z</time></trkpt><trkpt lat="43.9728517" lon="12.4115113"><ele>128.0</ele><time>2026-04-04T10:57:16.199Z</time></trkpt><trkpt lat="43.9727783" lon="12.4115446"><ele>128.0</ele><time>2026-04-04T10:57:17.2Z</time></trkpt><trkpt lat="43.9726906" lon="12.4115642"><ele>127.99999999999999</ele><time>2026-04-04T10:57:18.2Z</time></trkpt><trkpt lat="43.9725962" lon="12.4115854"><ele>128.0</ele><time>2026-04-04T10:57:19.199Z</time></trkpt><trkpt lat="43.9725008" lon="12.4116208"><ele>126.60000000000001</ele><time>2026-04-04T10:57:20.199Z</time></trkpt><trkpt lat="43.9724068" lon="12.4116713"><ele>125.20000000000002</ele><time>2026-04-04T10:57:21.199Z</time></trkpt><trkpt lat="43.9723092" lon="12.4117257"><ele>123.8</ele><time>2026-04-04T10:57:22.199Z</time></trkpt><trkpt lat="43.9721939" lon="12.4117898"><ele>122.4</ele><time>2026-04-04T10:57:23.199Z</time></trkpt><trkpt lat="43.9720833" lon="12.4118457"><ele>121.0</ele><time>2026-04-04T10:57:24.199Z</time></trkpt><trkpt lat="43.971968" lon="12.4119036"><ele>121.0</ele><time>2026-04-04T10:57:25.2Z</time></trkpt><trkpt lat="43.9718484" lon="12.4119641"><ele>121.0</ele><time>2026-04-04T10:57:26.199Z</time></trkpt><trkpt lat="43.9717235" lon="12.4120187"><ele>121.0</ele><time>2026-04-04T10:57:27.2Z</time></trkpt><trkpt lat="43.9715911" lon="12.4120669"><ele>121.0</ele><time>2026-04-04T10:57:28.2Z</time></trkpt><trkpt lat="43.9714543" lon="12.4121103"><ele>119.66666666666667</ele><time>2026-04-04T10:57:29.2Z</time></trkpt><trkpt lat="43.9713089" lon="12.412152"><ele>118.33333333333334</ele><time>2026-04-04T10:57:30.2Z</time></trkpt><trkpt lat="43.9711558" lon="12.4121949"><ele>117.0</ele><time>2026-04-04T10:57:31.199Z</time></trkpt><trkpt lat="43.9710066" lon="12.4122299"><ele>116.33333333333334</ele><time>2026-04-04T10:57:32.199Z</time></trkpt><trkpt lat="43.9708561" lon="12.4122432"><ele>115.66666666666667</ele><time>2026-04-04T10:57:33.199Z</time></trkpt><trkpt lat="43.9707054" lon="12.4122591"><ele>115.0</ele><time>2026-04-04T10:57:34.2Z</time></trkpt><trkpt lat="43.9705528" lon="12.4122645"><ele>115.0</ele><time>2026-04-04T10:57:35.199Z</time></trkpt><trkpt lat="43.9703981" lon="12.4122608"><ele>115.0</ele><time>2026-04-04T10:57:36.199Z</time></trkpt><trkpt lat="43.970241" lon="12.4122454"><ele>115.0</ele><time>2026-04-04T10:57:37.2Z</time></trkpt><trkpt lat="43.9700929" lon="12.41222"><ele>114.66666666666667</ele><time>2026-04-04T10:57:38.199Z</time></trkpt><trkpt lat="43.9699254" lon="12.4121813"><ele>114.33333333333334</ele><time>2026-04-04T10:57:39.199Z</time></trkpt><trkpt lat="43.969772" lon="12.4121349"><ele>114.0</ele><time>2026-04-04T10:57:40.199Z</time></trkpt><trkpt lat="43.9696195" lon="12.4120732"><ele>114.0</ele><time>2026-04-04T10:57:41.2Z</time></trkpt><trkpt lat="43.96947" lon="12.4120005"><ele>114.0</ele><time>2026-04-04T10:57:42.2Z</time></trkpt><trkpt lat="43.9693251" lon="12.4119154"><ele>114.0</ele><time>2026-04-04T10:57:43.199Z</time></trkpt><trkpt lat="43.9691823" lon="12.4118245"><ele>115.33333333333334</ele><time>2026-04-04T10:57:44.199Z</time></trkpt><trkpt lat="43.9690418" lon="12.4117181"><ele>116.66666666666667</ele><time>2026-04-04T10:57:45.199Z</time></trkpt><trkpt lat="43.968905" lon="12.411603"><ele>118.0</ele><time>2026-04-04T10:57:46.2Z</time></trkpt><trkpt lat="43.9687746" lon="12.4114803"><ele>118.0</ele><time>2026-04-04T10:57:47.199Z</time></trkpt><trkpt lat="43.9686482" lon="12.4113487"><ele>118.0</ele><time>2026-04-04T10:57:48.2Z</time></trkpt><trkpt lat="43.9685247" lon="12.411204"><ele>118.0</ele><time>2026-04-04T10:57:49.199Z</time></trkpt><trkpt lat="43.9684053" lon="12.4110497"><ele>118.0</ele><time>2026-04-04T10:57:50.2Z</time></trkpt><trkpt lat="43.9682875" lon="12.4108859"><ele>118.0</ele><time>2026-04-04T10:57:51.199Z</time></trkpt><trkpt lat="43.9681772" lon="12.4107108"><ele>118.0</ele><time>2026-04-04T10:57:52.199Z</time></trkpt><trkpt lat="43.9680714" lon="12.4105254"><ele>116.66666666666667</ele><time>2026-04-04T10:57:53.199Z</time></trkpt><trkpt lat="43.9679774" lon="12.4103381"><ele>115.33333333333334</ele><time>2026-04-04T10:57:54.2Z</time></trkpt><trkpt lat="43.9678717" lon="12.4101162"><ele>114.0</ele><time>2026-04-04T10:57:55.199Z</time></trkpt><trkpt lat="43.9677774" lon="12.4098986"><ele>114.0</ele><time>2026-04-04T10:57:56.199Z</time></trkpt><trkpt lat="43.9676808" lon="12.409686"><ele>114.0</ele><time>2026-04-04T10:57:57.199Z</time></trkpt><trkpt lat="43.9675866" lon="12.4094758"><ele>114.0</ele><time>2026-04-04T10:57:58.199Z</time></trkpt><trkpt lat="43.9674928" lon="12.4092691"><ele>115.0</ele><time>2026-04-04T10:57:59.199Z</time></trkpt><trkpt lat="43.9673962" lon="12.4090605"><ele>116.0</ele><time>2026-04-04T10:58:00.199Z</time></trkpt><trkpt lat="43.9673017" lon="12.4088514"><ele>117.0</ele><time>2026-04-04T10:58:01.199Z</time></trkpt><trkpt lat="43.9672099" lon="12.4086439"><ele>117.0</ele><time>2026-04-04T10:58:02.199Z</time></trkpt><trkpt lat="43.9671151" lon="12.4084356"><ele>117.0</ele><time>2026-04-04T10:58:03.199Z</time></trkpt><trkpt lat="43.9670198" lon="12.4082263"><ele>117.0</ele><time>2026-04-04T10:58:04.199Z</time></trkpt><trkpt lat="43.966928" lon="12.4080167"><ele>116.66666666666666</ele><time>2026-04-04T10:58:05.199Z</time></trkpt><trkpt lat="43.9668383" lon="12.407805"><ele>116.33333333333333</ele><time>2026-04-04T10:58:06.199Z</time></trkpt><trkpt lat="43.9667441" lon="12.4075892"><ele>116.0</ele><time>2026-04-04T10:58:07.2Z</time></trkpt><trkpt lat="43.966643" lon="12.4073648"><ele>117.0</ele><time>2026-04-04T10:58:08.199Z</time></trkpt><trkpt lat="43.966531" lon="12.4071329"><ele>118.0</ele><time>2026-04-04T10:58:09.199Z</time></trkpt><trkpt lat="43.9664114" lon="12.4069101"><ele>119.0</ele><time>2026-04-04T10:58:10.199Z</time></trkpt><trkpt lat="43.9662683" lon="12.4066486"><ele>119.0</ele><time>2026-04-04T10:58:11.199Z</time></trkpt><trkpt lat="43.9661304" lon="12.4063932"><ele>119.0</ele><time>2026-04-04T10:58:12.2Z</time></trkpt><trkpt lat="43.9659836" lon="12.4061358"><ele>121.5</ele><time>2026-04-04T10:58:13.199Z</time></trkpt><trkpt lat="43.9658357" lon="12.4058877"><ele>124.0</ele><time>2026-04-04T10:58:14.199Z</time></trkpt><trkpt lat="43.9656798" lon="12.4056483"><ele>122.0</ele><time>2026-04-04T10:58:15.199Z</time></trkpt><trkpt lat="43.9655213" lon="12.4054211"><ele>120.0</ele><time>2026-04-04T10:58:16.199Z</time></trkpt><trkpt lat="43.9653607" lon="12.4051998"><ele>120.0</ele><time>2026-04-04T10:58:17.199Z</time></trkpt><trkpt lat="43.9651986" lon="12.4049809"><ele>120.0</ele><time>2026-04-04T10:58:18.2Z</time></trkpt><trkpt lat="43.9650399" lon="12.4047667"><ele>120.0</ele><time>2026-04-04T10:58:19.199Z</time></trkpt><trkpt lat="43.9648843" lon="12.4045544"><ele>120.33333333333334</ele><time>2026-04-04T10:58:20.199Z</time></trkpt><trkpt lat="43.9647323" lon="12.4043427"><ele>120.66666666666667</ele><time>2026-04-04T10:58:21.2Z</time></trkpt><trkpt lat="43.9645815" lon="12.4041349"><ele>121.0</ele><time>2026-04-04T10:58:22.199Z</time></trkpt><trkpt lat="43.9644304" lon="12.4039346"><ele>119.66666666666667</ele><time>2026-04-04T10:58:23.199Z</time></trkpt><trkpt lat="43.9642848" lon="12.4037409"><ele>118.33333333333334</ele><time>2026-04-04T10:58:24.199Z</time></trkpt><trkpt lat="43.964137" lon="12.4035574"><ele>117.0</ele><time>2026-04-04T10:58:25.199Z</time></trkpt><trkpt lat="43.9639944" lon="12.4033963"><ele>117.66666666666666</ele><time>2026-04-04T10:58:26.2Z</time></trkpt><trkpt lat="43.9638349" lon="12.4032272"><ele>118.33333333333333</ele><time>2026-04-04T10:58:27.199Z</time></trkpt><trkpt lat="43.9636831" lon="12.4030813"><ele>119.0</ele><time>2026-04-04T10:58:28.199Z</time></trkpt><trkpt lat="43.9635303" lon="12.402947"><ele>119.0</ele><time>2026-04-04T10:58:29.2Z</time></trkpt><trkpt lat="43.9633735" lon="12.4028221"><ele>119.0</ele><time>2026-04-04T10:58:30.199Z</time></trkpt><trkpt lat="43.9632157" lon="12.4027046"><ele>119.0</ele><time>2026-04-04T10:58:31.2Z</time></trkpt><trkpt lat="43.9630554" lon="12.4025946"><ele>122.33333333333333</ele><time>2026-04-04T10:58:32.2Z</time></trkpt><trkpt lat="43.962893" lon="12.402492"><ele>125.66666666666666</ele><time>2026-04-04T10:58:33.199Z</time></trkpt><trkpt lat="43.962726" lon="12.4023956"><ele>129.0</ele><time>2026-04-04T10:58:34.199Z</time></trkpt><trkpt lat="43.9625659" lon="12.402304"><ele>129.0</ele><time>2026-04-04T10:58:35.199Z</time></trkpt><trkpt lat="43.962416" lon="12.4022159"><ele>129.0</ele><time>2026-04-04T10:58:36.199Z</time></trkpt><trkpt lat="43.9622711" lon="12.4021307"><ele>129.0</ele><time>2026-04-04T10:58:37.2Z</time></trkpt><trkpt lat="43.9621342" lon="12.4020487"><ele>129.0</ele><time>2026-04-04T10:58:38.199Z</time></trkpt><trkpt lat="43.9620044" lon="12.4019693"><ele>129.0</ele><time>2026-04-04T10:58:39.199Z</time></trkpt><trkpt lat="43.9618818" lon="12.4018914"><ele>129.0</ele><time>2026-04-04T10:58:40.199Z</time></trkpt><trkpt lat="43.9617695" lon="12.4018183"><ele>129.0</ele><time>2026-04-04T10:58:41.199Z</time></trkpt><trkpt lat="43.9616647" lon="12.4017397"><ele>129.5</ele><time>2026-04-04T10:58:42.199Z</time></trkpt><trkpt lat="43.9615453" lon="12.4016342"><ele>130.0</ele><time>2026-04-04T10:58:43.199Z</time></trkpt><trkpt lat="43.9614259" lon="12.4015345"><ele>130.5</ele><time>2026-04-04T10:58:44.2Z</time></trkpt><trkpt lat="43.9613045" lon="12.4014403"><ele>131.0</ele><time>2026-04-04T10:58:45.199Z</time></trkpt><trkpt lat="43.9611811" lon="12.4013304"><ele>130.33333333333331</ele><time>2026-04-04T10:58:46.199Z</time></trkpt><trkpt lat="43.9610539" lon="12.401199"><ele>129.66666666666666</ele><time>2026-04-04T10:58:47.199Z</time></trkpt><trkpt lat="43.9609189" lon="12.4010423"><ele>129.0</ele><time>2026-04-04T10:58:48.2Z</time></trkpt><trkpt lat="43.9607941" lon="12.4008735"><ele>129.0</ele><time>2026-04-04T10:58:49.2Z</time></trkpt><trkpt lat="43.9606754" lon="12.4006914"><ele>129.0</ele><time>2026-04-04T10:58:50.2Z</time></trkpt><trkpt lat="43.9605598" lon="12.4004977"><ele>129.0</ele><time>2026-04-04T10:58:51.2Z</time></trkpt><trkpt lat="43.9604481" lon="12.4003049"><ele>127.66666666666666</ele><time>2026-04-04T10:58:52.199Z</time></trkpt><trkpt lat="43.9603427" lon="12.4001096"><ele>126.33333333333333</ele><time>2026-04-04T10:58:53.199Z</time></trkpt><trkpt lat="43.9602413" lon="12.3999129"><ele>125.0</ele><time>2026-04-04T10:58:54.199Z</time></trkpt><trkpt lat="43.960141" lon="12.399719"><ele>125.0</ele><time>2026-04-04T10:58:55.199Z</time></trkpt><trkpt lat="43.9600425" lon="12.3995302"><ele>125.0</ele><time>2026-04-04T10:58:56.199Z</time></trkpt><trkpt lat="43.959945" lon="12.3993459"><ele>125.0</ele><time>2026-04-04T10:58:57.199Z</time></trkpt><trkpt lat="43.9598556" lon="12.399178"><ele>125.0</ele><time>2026-04-04T10:58:58.199Z</time></trkpt><trkpt lat="43.9597536" lon="12.3989887"><ele>125.0</ele><time>2026-04-04T10:58:59.2Z</time></trkpt><trkpt lat="43.9596614" lon="12.3988115"><ele>125.0</ele><time>2026-04-04T10:59:00.199Z</time></trkpt><trkpt lat="43.9595669" lon="12.3986308"><ele>127.33333333333333</ele><time>2026-04-04T10:59:01.199Z</time></trkpt><trkpt lat="43.9594745" lon="12.3984488"><ele>129.66666666666666</ele><time>2026-04-04T10:59:02.199Z</time></trkpt><trkpt lat="43.9593837" lon="12.3982614"><ele>132.0</ele><time>2026-04-04T10:59:03.199Z</time></trkpt><trkpt lat="43.9592956" lon="12.3980673"><ele>132.0</ele><time>2026-04-04T10:59:04.199Z</time></trkpt><trkpt lat="43.9592108" lon="12.3978694"><ele>132.0</ele><time>2026-04-04T10:59:05.2Z</time></trkpt><trkpt lat="43.959128" lon="12.3976686"><ele>132.0</ele><time>2026-04-04T10:59:06.199Z</time></trkpt><trkpt lat="43.9590447" lon="12.3974666"><ele>131.33333333333334</ele><time>2026-04-04T10:59:07.2Z</time></trkpt><trkpt lat="43.9589626" lon="12.3972644"><ele>130.66666666666669</ele><time>2026-04-04T10:59:08.2Z</time></trkpt><trkpt lat="43.9588825" lon="12.3970611"><ele>130.0</ele><time>2026-04-04T10:59:09.199Z</time></trkpt><trkpt lat="43.9588045" lon="12.3968573"><ele>130.0</ele><time>2026-04-04T10:59:10.2Z</time></trkpt><trkpt lat="43.9587269" lon="12.3966554"><ele>130.0</ele><time>2026-04-04T10:59:11.199Z</time></trkpt><trkpt lat="43.9586515" lon="12.3964488"><ele>130.0</ele><time>2026-04-04T10:59:12.2Z</time></trkpt><trkpt lat="43.958576" lon="12.3962406"><ele>129.0</ele><time>2026-04-04T10:59:13.199Z</time></trkpt><trkpt lat="43.9585063" lon="12.3960405"><ele>128.0</ele><time>2026-04-04T10:59:14.199Z</time></trkpt><trkpt lat="43.9584263" lon="12.3958083"><ele>127.0</ele><time>2026-04-04T10:59:15.199Z</time></trkpt><trkpt lat="43.9583479" lon="12.395587"><ele>128.66666666666669</ele><time>2026-04-04T10:59:16.199Z</time></trkpt><trkpt lat="43.9582667" lon="12.3953625"><ele>130.33333333333334</ele><time>2026-04-04T10:59:17.199Z</time></trkpt><trkpt lat="43.958187" lon="12.3951385"><ele>132.0</ele><time>2026-04-04T10:59:18.199Z</time></trkpt><trkpt lat="43.9581071" lon="12.3949118"><ele>132.0</ele><time>2026-04-04T10:59:19.199Z</time></trkpt><trkpt lat="43.9580252" lon="12.3946829"><ele>132.0</ele><time>2026-04-04T10:59:20.199Z</time></trkpt><trkpt lat="43.9579436" lon="12.3944527"><ele>132.0</ele><time>2026-04-04T10:59:21.199Z</time></trkpt><trkpt lat="43.9578677" lon="12.3942235"><ele>130.66666666666666</ele><time>2026-04-04T10:59:22.2Z</time></trkpt><trkpt lat="43.9577881" lon="12.3939922"><ele>129.33333333333331</ele><time>2026-04-04T10:59:23.2Z</time></trkpt><trkpt lat="43.9577084" lon="12.3937594"><ele>128.0</ele><time>2026-04-04T10:59:24.199Z</time></trkpt><trkpt lat="43.957628" lon="12.3935267"><ele>127.66666666666666</ele><time>2026-04-04T10:59:25.199Z</time></trkpt><trkpt lat="43.95754" lon="12.3932938"><ele>127.33333333333334</ele><time>2026-04-04T10:59:26.2Z</time></trkpt><trkpt lat="43.957462" lon="12.3930641"><ele>127.0</ele><time>2026-04-04T10:59:27.199Z</time></trkpt><trkpt lat="43.9573843" lon="12.3928393"><ele>128.33333333333334</ele><time>2026-04-04T10:59:28.199Z</time></trkpt><trkpt lat="43.9573105" lon="12.3926168"><ele>129.66666666666666</ele><time>2026-04-04T10:59:29.199Z</time></trkpt><trkpt lat="43.9572476" lon="12.3924105"><ele>131.0</ele><time>2026-04-04T10:59:30.2Z</time></trkpt><trkpt lat="43.957181" lon="12.3921739"><ele>130.66666666666666</ele><time>2026-04-04T10:59:31.2Z</time></trkpt><trkpt lat="43.957127" lon="12.3919488"><ele>130.33333333333334</ele><time>2026-04-04T10:59:32.199Z</time></trkpt><trkpt lat="43.957081" lon="12.3917227"><ele>130.0</ele><time>2026-04-04T10:59:33.199Z</time></trkpt><trkpt lat="43.957047" lon="12.3914969"><ele>130.0</ele><time>2026-04-04T10:59:34.2Z</time></trkpt><trkpt lat="43.9570228" lon="12.3912725"><ele>130.0</ele><time>2026-04-04T10:59:35.2Z</time></trkpt><trkpt lat="43.9570092" lon="12.3910492"><ele>130.0</ele><time>2026-04-04T10:59:36.199Z</time></trkpt><trkpt lat="43.9570025" lon="12.3908289"><ele>130.0</ele><time>2026-04-04T10:59:37.199Z</time></trkpt><trkpt lat="43.9570022" lon="12.3906066"><ele>130.0</ele><time>2026-04-04T10:59:38.199Z</time></trkpt><trkpt lat="43.9570084" lon="12.3903894"><ele>130.0</ele><time>2026-04-04T10:59:39.199Z</time></trkpt><trkpt lat="43.9570305" lon="12.3901708"><ele>130.0</ele><time>2026-04-04T10:59:40.2Z</time></trkpt><trkpt lat="43.9570529" lon="12.3899386"><ele>130.0</ele><time>2026-04-04T10:59:41.199Z</time></trkpt><trkpt lat="43.9570799" lon="12.3896874"><ele>130.0</ele><time>2026-04-04T10:59:42.2Z</time></trkpt><trkpt lat="43.9571164" lon="12.3894167"><ele>130.0</ele><time>2026-04-04T10:59:43.199Z</time></trkpt><trkpt lat="43.9571702" lon="12.3891342"><ele>130.0</ele><time>2026-04-04T10:59:44.199Z</time></trkpt><trkpt lat="43.9572363" lon="12.3888293"><ele>130.0</ele><time>2026-04-04T10:59:45.199Z</time></trkpt><trkpt lat="43.9573119" lon="12.3885218"><ele>132.0</ele><time>2026-04-04T10:59:46.199Z</time></trkpt><trkpt lat="43.95741" lon="12.388146"><ele>134.0</ele><time>2026-04-04T10:59:47.2Z</time></trkpt><trkpt lat="43.9575121" lon="12.3877983"><ele>134.0</ele><time>2026-04-04T10:59:48.2Z</time></trkpt><trkpt lat="43.9576097" lon="12.3874697"><ele>134.0</ele><time>2026-04-04T10:59:49.199Z</time></trkpt><trkpt lat="43.9577032" lon="12.3871574"><ele>134.0</ele><time>2026-04-04T10:59:50.199Z</time></trkpt><trkpt lat="43.957786" lon="12.3868545"><ele>134.0</ele><time>2026-04-04T10:59:51.2Z</time></trkpt><trkpt lat="43.957854" lon="12.3865556"><ele>134.33333333333331</ele><time>2026-04-04T10:59:52.199Z</time></trkpt><trkpt lat="43.9579032" lon="12.386261"><ele>134.66666666666666</ele><time>2026-04-04T10:59:53.199Z</time></trkpt><trkpt lat="43.9579272" lon="12.385965"><ele>135.0</ele><time>2026-04-04T10:59:54.199Z</time></trkpt><trkpt lat="43.9579322" lon="12.3856663"><ele>134.0</ele><time>2026-04-04T10:59:55.199Z</time></trkpt><trkpt lat="43.9579165" lon="12.3853771"><ele>133.0</ele><time>2026-04-04T10:59:56.199Z</time></trkpt><trkpt lat="43.9578829" lon="12.3850959"><ele>132.0</ele><time>2026-04-04T10:59:57.199Z</time></trkpt><trkpt lat="43.9578344" lon="12.3848194"><ele>132.66666666666666</ele><time>2026-04-04T10:59:58.199Z</time></trkpt><trkpt lat="43.9577659" lon="12.3845478"><ele>133.33333333333331</ele><time>2026-04-04T10:59:59.199Z</time></trkpt><trkpt lat="43.9576814" lon="12.3842807"><ele>134.0</ele><time>2026-04-04T11:00:00.199Z</time></trkpt><trkpt lat="43.9575859" lon="12.3840169"><ele>138.33333333333331</ele><time>2026-04-04T11:00:01.199Z</time></trkpt><trkpt lat="43.9574891" lon="12.3837751"><ele>142.66666666666666</ele><time>2026-04-04T11:00:02.2Z</time></trkpt><trkpt lat="43.9573772" lon="12.3835008"><ele>147.0</ele><time>2026-04-04T11:00:03.199Z</time></trkpt><trkpt lat="43.9572706" lon="12.3832423"><ele>144.66666666666666</ele><time>2026-04-04T11:00:04.2Z</time></trkpt><trkpt lat="43.9571619" lon="12.382984"><ele>142.33333333333331</ele><time>2026-04-04T11:00:05.199Z</time></trkpt><trkpt lat="43.9570539" lon="12.382725"><ele>140.0</ele><time>2026-04-04T11:00:06.199Z</time></trkpt><trkpt lat="43.9569445" lon="12.3824635"><ele>140.0</ele><time>2026-04-04T11:00:07.2Z</time></trkpt><trkpt lat="43.9568368" lon="12.3822042"><ele>140.0</ele><time>2026-04-04T11:00:08.2Z</time></trkpt><trkpt lat="43.9567286" lon="12.381943"><ele>140.0</ele><time>2026-04-04T11:00:09.199Z</time></trkpt><trkpt lat="43.9566238" lon="12.3816841"><ele>142.33333333333331</ele><time>2026-04-04T11:00:10.199Z</time></trkpt><trkpt lat="43.9565179" lon="12.3814243"><ele>144.66666666666666</ele><time>2026-04-04T11:00:11.199Z</time></trkpt><trkpt lat="43.9564085" lon="12.381166"><ele>147.0</ele><time>2026-04-04T11:00:12.199Z</time></trkpt><trkpt lat="43.9563013" lon="12.3809128"><ele>147.0</ele><time>2026-04-04T11:00:13.199Z</time></trkpt><trkpt lat="43.9561944" lon="12.380657"><ele>147.0</ele><time>2026-04-04T11:00:14.199Z</time></trkpt><trkpt lat="43.9560897" lon="12.3804032"><ele>147.0</ele><time>2026-04-04T11:00:15.199Z</time></trkpt><trkpt lat="43.9559857" lon="12.3801479"><ele>149.0</ele><time>2026-04-04T11:00:16.199Z</time></trkpt><trkpt lat="43.9558804" lon="12.3798917"><ele>151.0</ele><time>2026-04-04T11:00:17.199Z</time></trkpt><trkpt lat="43.9557843" lon="12.3796535"><ele>153.0</ele><time>2026-04-04T11:00:18.199Z</time></trkpt><trkpt lat="43.9556781" lon="12.3793841"><ele>153.0</ele><time>2026-04-04T11:00:19.199Z</time></trkpt><trkpt lat="43.9555767" lon="12.3791321"><ele>153.0</ele><time>2026-04-04T11:00:20.199Z</time></trkpt><trkpt lat="43.9554741" lon="12.3788825"><ele>153.0</ele><time>2026-04-04T11:00:21.199Z</time></trkpt><trkpt lat="43.9553661" lon="12.3786364"><ele>152.33333333333334</ele><time>2026-04-04T11:00:22.2Z</time></trkpt><trkpt lat="43.9552665" lon="12.37839"><ele>151.66666666666669</ele><time>2026-04-04T11:00:23.199Z</time></trkpt><trkpt lat="43.9551596" lon="12.3781425"><ele>151.0</ele><time>2026-04-04T11:00:24.199Z</time></trkpt><trkpt lat="43.955056" lon="12.3778968"><ele>153.0</ele><time>2026-04-04T11:00:25.199Z</time></trkpt><trkpt lat="43.9549534" lon="12.3776512"><ele>155.0</ele><time>2026-04-04T11:00:26.199Z</time></trkpt><trkpt lat="43.9548489" lon="12.3774046"><ele>157.0</ele><time>2026-04-04T11:00:27.199Z</time></trkpt><trkpt lat="43.9547499" lon="12.3771598"><ele>157.0</ele><time>2026-04-04T11:00:28.2Z</time></trkpt><trkpt lat="43.9546527" lon="12.3769121"><ele>157.0</ele><time>2026-04-04T11:00:29.2Z</time></trkpt><trkpt lat="43.9545611" lon="12.3766592"><ele>157.0</ele><time>2026-04-04T11:00:30.2Z</time></trkpt><trkpt lat="43.9544718" lon="12.3763998"><ele>156.66666666666669</ele><time>2026-04-04T11:00:31.199Z</time></trkpt><trkpt lat="43.9543845" lon="12.3761306"><ele>156.33333333333334</ele><time>2026-04-04T11:00:32.199Z</time></trkpt><trkpt lat="43.9542989" lon="12.375852"><ele>156.0</ele><time>2026-04-04T11:00:33.199Z</time></trkpt><trkpt lat="43.9542206" lon="12.3755908"><ele>158.33333333333334</ele><time>2026-04-04T11:00:34.199Z</time></trkpt><trkpt lat="43.9541337" lon="12.3752983"><ele>160.66666666666669</ele><time>2026-04-04T11:00:35.199Z</time></trkpt><trkpt lat="43.954055" lon="12.3750337"><ele>163.0</ele><time>2026-04-04T11:00:36.199Z</time></trkpt><trkpt lat="43.9539888" lon="12.3747977"><ele>162.66666666666669</ele><time>2026-04-04T11:00:37.199Z</time></trkpt><trkpt lat="43.9539139" lon="12.3745432"><ele>162.33333333333334</ele><time>2026-04-04T11:00:38.2Z</time></trkpt><trkpt lat="43.9538489" lon="12.3743152"><ele>162.0</ele><time>2026-04-04T11:00:39.199Z</time></trkpt><trkpt lat="43.9537868" lon="12.3740962"><ele>162.0</ele><time>2026-04-04T11:00:40.199Z</time></trkpt><trkpt lat="43.9537263" lon="12.3738919"><ele>162.0</ele><time>2026-04-04T11:00:41.2Z</time></trkpt><trkpt lat="43.9536731" lon="12.3736996"><ele>162.0</ele><time>2026-04-04T11:00:42.2Z</time></trkpt><trkpt lat="43.9536162" lon="12.3735207"><ele>162.0</ele><time>2026-04-04T11:00:43.199Z</time></trkpt><trkpt lat="43.9535614" lon="12.3733509"><ele>161.75</ele><time>2026-04-04T11:00:44.199Z</time></trkpt><trkpt lat="43.9535095" lon="12.3731834"><ele>161.5</ele><time>2026-04-04T11:00:45.199Z</time></trkpt><trkpt lat="43.9534594" lon="12.3730087"><ele>161.25</ele><time>2026-04-04T11:00:46.199Z</time></trkpt><trkpt lat="43.9534094" lon="12.3728217"><ele>161.0</ele><time>2026-04-04T11:00:47.199Z</time></trkpt><trkpt lat="43.9533589" lon="12.3726277"><ele>162.0</ele><time>2026-04-04T11:00:48.2Z</time></trkpt><trkpt lat="43.9533072" lon="12.3724289"><ele>163.0</ele><time>2026-04-04T11:00:49.199Z</time></trkpt><trkpt lat="43.953254" lon="12.3722406"><ele>164.0</ele><time>2026-04-04T11:00:50.199Z</time></trkpt><trkpt lat="43.9531821" lon="12.3720169"><ele>164.0</ele><time>2026-04-04T11:00:51.199Z</time></trkpt><trkpt lat="43.9531178" lon="12.3718004"><ele>164.0</ele><time>2026-04-04T11:00:52.199Z</time></trkpt><trkpt lat="43.9530582" lon="12.3715948"><ele>164.0</ele><time>2026-04-04T11:00:53.199Z</time></trkpt><trkpt lat="43.9529898" lon="12.3713611"><ele>164.0</ele><time>2026-04-04T11:00:54.199Z</time></trkpt><trkpt lat="43.9529271" lon="12.3711403"><ele>164.0</ele><time>2026-04-04T11:00:55.199Z</time></trkpt><trkpt lat="43.9528661" lon="12.3709295"><ele>164.0</ele><time>2026-04-04T11:00:56.2Z</time></trkpt><trkpt lat="43.9527927" lon="12.3706855"><ele>163.33333333333331</ele><time>2026-04-04T11:00:57.199Z</time></trkpt><trkpt lat="43.9527241" lon="12.3704521"><ele>162.66666666666666</ele><time>2026-04-04T11:00:58.2Z</time></trkpt><trkpt lat="43.9526559" lon="12.3702158"><ele>162.0</ele><time>2026-04-04T11:00:59.199Z</time></trkpt><trkpt lat="43.9525906" lon="12.3699856"><ele>163.66666666666666</ele><time>2026-04-04T11:01:00.2Z</time></trkpt><trkpt lat="43.9525133" lon="12.3697593"><ele>165.33333333333331</ele><time>2026-04-04T11:01:01.2Z</time></trkpt><trkpt lat="43.9524272" lon="12.3695156"><ele>167.0</ele><time>2026-04-04T11:01:02.199Z</time></trkpt><trkpt lat="43.9523368" lon="12.369294"><ele>167.0</ele><time>2026-04-04T11:01:03.199Z</time></trkpt><trkpt lat="43.9522403" lon="12.3690817"><ele>167.0</ele><time>2026-04-04T11:01:04.199Z</time></trkpt><trkpt lat="43.9521348" lon="12.3688797"><ele>167.0</ele><time>2026-04-04T11:01:05.2Z</time></trkpt><trkpt lat="43.9520268" lon="12.3686959"><ele>167.33333333333331</ele><time>2026-04-04T11:01:06.2Z</time></trkpt><trkpt lat="43.9518972" lon="12.3684944"><ele>167.66666666666666</ele><time>2026-04-04T11:01:07.2Z</time></trkpt><trkpt lat="43.9517869" lon="12.3683283"><ele>168.0</ele><time>2026-04-04T11:01:08.199Z</time></trkpt><trkpt lat="43.9516797" lon="12.3681884"><ele>168.0</ele><time>2026-04-04T11:01:09.199Z</time></trkpt><trkpt lat="43.9515795" lon="12.3680593"><ele>168.0</ele><time>2026-04-04T11:01:10.199Z</time></trkpt><trkpt lat="43.9514696" lon="12.3679242"><ele>168.0</ele><time>2026-04-04T11:01:11.2Z</time></trkpt><trkpt lat="43.9513438" lon="12.3677816"><ele>168.0</ele><time>2026-04-04T11:01:12.199Z</time></trkpt><trkpt lat="43.9512108" lon="12.3676293"><ele>165.33333333333334</ele><time>2026-04-04T11:01:13.199Z</time></trkpt><trkpt lat="43.9510702" lon="12.3674724"><ele>162.66666666666669</ele><time>2026-04-04T11:01:14.199Z</time></trkpt><trkpt lat="43.9509255" lon="12.3673104"><ele>160.0</ele><time>2026-04-04T11:01:15.2Z</time></trkpt><trkpt lat="43.9507811" lon="12.3671449"><ele>159.0</ele><time>2026-04-04T11:01:16.2Z</time></trkpt><trkpt lat="43.950641" lon="12.366987"><ele>158.0</ele><time>2026-04-04T11:01:17.2Z</time></trkpt><trkpt lat="43.9504802" lon="12.3668076"><ele>157.0</ele><time>2026-04-04T11:01:18.2Z</time></trkpt><trkpt lat="43.9503314" lon="12.3666377"><ele>157.0</ele><time>2026-04-04T11:01:19.199Z</time></trkpt><trkpt lat="43.9501939" lon="12.366482"><ele>157.0</ele><time>2026-04-04T11:01:20.199Z</time></trkpt><trkpt lat="43.9500414" lon="12.3663092"><ele>157.0</ele><time>2026-04-04T11:01:21.199Z</time></trkpt><trkpt lat="43.9499133" lon="12.366161"><ele>160.33333333333334</ele><time>2026-04-04T11:01:22.199Z</time></trkpt><trkpt lat="43.9497691" lon="12.3659907"><ele>163.66666666666666</ele><time>2026-04-04T11:01:23.199Z</time></trkpt><trkpt lat="43.9496374" lon="12.365828"><ele>167.0</ele><time>2026-04-04T11:01:24.2Z</time></trkpt><trkpt lat="43.9495152" lon="12.3656681"><ele>167.0</ele><time>2026-04-04T11:01:25.199Z</time></trkpt><trkpt lat="43.9493794" lon="12.3654836"><ele>167.0</ele><time>2026-04-04T11:01:26.199Z</time></trkpt><trkpt lat="43.9492614" lon="12.3653077"><ele>167.0</ele><time>2026-04-04T11:01:27.2Z</time></trkpt><trkpt lat="43.9491491" lon="12.3651245"><ele>167.0</ele><time>2026-04-04T11:01:28.199Z</time></trkpt><trkpt lat="43.94905" lon="12.3649433"><ele>167.0</ele><time>2026-04-04T11:01:29.199Z</time></trkpt><trkpt lat="43.9489611" lon="12.3647702"><ele>167.0</ele><time>2026-04-04T11:01:30.2Z</time></trkpt><trkpt lat="43.9488823" lon="12.3646096"><ele>166.0</ele><time>2026-04-04T11:01:31.2Z</time></trkpt><trkpt lat="43.9488203" lon="12.3644701"><ele>165.0</ele><time>2026-04-04T11:01:32.2Z</time></trkpt><trkpt lat="43.9487724" lon="12.3643562"><ele>164.0</ele><time>2026-04-04T11:01:33.2Z</time></trkpt><trkpt lat="43.948724" lon="12.3642516"><ele>163.0</ele><time>2026-04-04T11:01:34.199Z</time></trkpt><trkpt lat="43.9486788" lon="12.3641785"><ele>162.0</ele><time>2026-04-04T11:01:35.199Z</time></trkpt><trkpt lat="43.9486183" lon="12.3641361"><ele>161.0</ele><time>2026-04-04T11:01:36.199Z</time></trkpt><trkpt lat="43.9485457" lon="12.3641325"><ele>161.0</ele><time>2026-04-04T11:01:37.199Z</time></trkpt><trkpt lat="43.9484688" lon="12.3641638"><ele>161.0</ele><time>2026-04-04T11:01:38.2Z</time></trkpt><trkpt lat="43.9483808" lon="12.3642465"><ele>161.0</ele><time>2026-04-04T11:01:39.199Z</time></trkpt><trkpt lat="43.9483095" lon="12.3643549"><ele>161.0</ele><time>2026-04-04T11:01:40.2Z</time></trkpt><trkpt lat="43.9482484" lon="12.3644861"><ele>161.0</ele><time>2026-04-04T11:01:41.199Z</time></trkpt><trkpt lat="43.94818" lon="12.3646431"><ele>162.8</ele><time>2026-04-04T11:01:42.2Z</time></trkpt><trkpt lat="43.9481177" lon="12.3647901"><ele>164.60000000000002</ele><time>2026-04-04T11:01:43.2Z</time></trkpt><trkpt lat="43.9480636" lon="12.3649117"><ele>166.4</ele><time>2026-04-04T11:01:44.199Z</time></trkpt><trkpt lat="43.9480138" lon="12.3650357"><ele>168.2</ele><time>2026-04-04T11:01:45.199Z</time></trkpt><trkpt lat="43.9479722" lon="12.3651294"><ele>170.0</ele><time>2026-04-04T11:01:46.199Z</time></trkpt><trkpt lat="43.9479367" lon="12.3652055"><ele>170.0</ele><time>2026-04-04T11:01:47.2Z</time></trkpt><trkpt lat="43.9478724" lon="12.3653158"><ele>170.0</ele><time>2026-04-04T11:01:49.2Z</time></trkpt><trkpt lat="43.9478114" lon="12.3653701"><ele>170.0</ele><time>2026-04-04T11:01:50.2Z</time></trkpt><trkpt lat="43.9477355" lon="12.3654133"><ele>170.0</ele><time>2026-04-04T11:01:51.2Z</time></trkpt><trkpt lat="43.9476414" lon="12.3654337"><ele>170.0</ele><time>2026-04-04T11:01:52.2Z</time></trkpt><trkpt lat="43.9475198" lon="12.3654681"><ele>170.0</ele><time>2026-04-04T11:01:53.199Z</time></trkpt><trkpt lat="43.9473991" lon="12.365498"><ele>170.0</ele><time>2026-04-04T11:01:54.199Z</time></trkpt><trkpt lat="43.9472597" lon="12.3655259"><ele>170.0</ele><time>2026-04-04T11:01:55.199Z</time></trkpt><trkpt lat="43.9471301" lon="12.3655495"><ele>170.0</ele><time>2026-04-04T11:01:56.2Z</time></trkpt><trkpt lat="43.9470022" lon="12.365583"><ele>170.0</ele><time>2026-04-04T11:01:57.199Z</time></trkpt><trkpt lat="43.9468521" lon="12.3656366"><ele>170.0</ele><time>2026-04-04T11:01:58.199Z</time></trkpt><trkpt lat="43.9467096" lon="12.3657204"><ele>170.0</ele><time>2026-04-04T11:01:59.2Z</time></trkpt><trkpt lat="43.9465793" lon="12.3658201"><ele>171.33333333333331</ele><time>2026-04-04T11:02:00.199Z</time></trkpt><trkpt lat="43.946438" lon="12.3659464"><ele>172.66666666666666</ele><time>2026-04-04T11:02:01.199Z</time></trkpt><trkpt lat="43.9463076" lon="12.366069"><ele>174.0</ele><time>2026-04-04T11:02:02.2Z</time></trkpt><trkpt lat="43.9461763" lon="12.3661994"><ele>174.0</ele><time>2026-04-04T11:02:03.2Z</time></trkpt><trkpt lat="43.946042" lon="12.3663283"><ele>174.0</ele><time>2026-04-04T11:02:04.199Z</time></trkpt><trkpt lat="43.9459163" lon="12.3664479"><ele>174.0</ele><time>2026-04-04T11:02:05.199Z</time></trkpt><trkpt lat="43.9457736" lon="12.3665806"><ele>174.66666666666666</ele><time>2026-04-04T11:02:06.199Z</time></trkpt><trkpt lat="43.945644" lon="12.3667102"><ele>175.33333333333331</ele><time>2026-04-04T11:02:07.199Z</time></trkpt><trkpt lat="43.9455208" lon="12.3668545"><ele>176.0</ele><time>2026-04-04T11:02:08.199Z</time></trkpt><trkpt lat="43.9454089" lon="12.3670237"><ele>174.0</ele><time>2026-04-04T11:02:09.199Z</time></trkpt><trkpt lat="43.9453154" lon="12.3672028"><ele>172.0</ele><time>2026-04-04T11:02:10.2Z</time></trkpt><trkpt lat="43.9452174" lon="12.3674162"><ele>170.0</ele><time>2026-04-04T11:02:11.2Z</time></trkpt><trkpt lat="43.945125" lon="12.3676223"><ele>171.66666666666666</ele><time>2026-04-04T11:02:12.2Z</time></trkpt><trkpt lat="43.9450395" lon="12.3678134"><ele>173.33333333333334</ele><time>2026-04-04T11:02:13.199Z</time></trkpt><trkpt lat="43.9449468" lon="12.3680341"><ele>175.0</ele><time>2026-04-04T11:02:14.199Z</time></trkpt><trkpt lat="43.9448628" lon="12.3682369"><ele>175.0</ele><time>2026-04-04T11:02:15.2Z</time></trkpt><trkpt lat="43.9447753" lon="12.3684358"><ele>175.0</ele><time>2026-04-04T11:02:16.199Z</time></trkpt><trkpt lat="43.9446787" lon="12.3686306"><ele>175.0</ele><time>2026-04-04T11:02:17.199Z</time></trkpt><trkpt lat="43.9445646" lon="12.368819"><ele>176.33333333333334</ele><time>2026-04-04T11:02:18.199Z</time></trkpt><trkpt lat="43.9444372" lon="12.3690006"><ele>177.66666666666666</ele><time>2026-04-04T11:02:19.199Z</time></trkpt><trkpt lat="43.9442998" lon="12.369181"><ele>179.0</ele><time>2026-04-04T11:02:20.199Z</time></trkpt><trkpt lat="43.9441693" lon="12.3693527"><ele>179.0</ele><time>2026-04-04T11:02:21.199Z</time></trkpt><trkpt lat="43.9440219" lon="12.3695457"><ele>179.0</ele><time>2026-04-04T11:02:22.199Z</time></trkpt><trkpt lat="43.9438818" lon="12.3697256"><ele>179.0</ele><time>2026-04-04T11:02:23.199Z</time></trkpt><trkpt lat="43.9437495" lon="12.3698956"><ele>179.33333333333331</ele><time>2026-04-04T11:02:24.199Z</time></trkpt><trkpt lat="43.9435982" lon="12.3700946"><ele>179.66666666666666</ele><time>2026-04-04T11:02:25.199Z</time></trkpt><trkpt lat="43.9434612" lon="12.3702685"><ele>180.0</ele><time>2026-04-04T11:02:26.199Z</time></trkpt><trkpt lat="43.9433077" lon="12.3704637"><ele>178.33333333333334</ele><time>2026-04-04T11:02:27.199Z</time></trkpt><trkpt lat="43.9431636" lon="12.37064"><ele>176.66666666666669</ele><time>2026-04-04T11:02:28.2Z</time></trkpt><trkpt lat="43.9430252" lon="12.3707969"><ele>175.0</ele><time>2026-04-04T11:02:29.199Z</time></trkpt><trkpt lat="43.9428694" lon="12.3709742"><ele>175.0</ele><time>2026-04-04T11:02:30.199Z</time></trkpt><trkpt lat="43.9427263" lon="12.3711373"><ele>175.0</ele><time>2026-04-04T11:02:31.199Z</time></trkpt><trkpt lat="43.9425986" lon="12.3712782"><ele>175.0</ele><time>2026-04-04T11:02:32.199Z</time></trkpt><trkpt lat="43.9424577" lon="12.3714249"><ele>175.33333333333334</ele><time>2026-04-04T11:02:33.2Z</time></trkpt><trkpt lat="43.9423249" lon="12.3715355"><ele>175.66666666666666</ele><time>2026-04-04T11:02:34.199Z</time></trkpt><trkpt lat="43.9421828" lon="12.3716107"><ele>176.0</ele><time>2026-04-04T11:02:35.2Z</time></trkpt><trkpt lat="43.9420323" lon="12.3716551"><ele>176.0</ele><time>2026-04-04T11:02:36.199Z</time></trkpt><trkpt lat="43.9418903" lon="12.3716761"><ele>176.0</ele><time>2026-04-04T11:02:37.2Z</time></trkpt><trkpt lat="43.9417379" lon="12.371711"><ele>176.0</ele><time>2026-04-04T11:02:38.199Z</time></trkpt><trkpt lat="43.9416034" lon="12.37177"><ele>176.0</ele><time>2026-04-04T11:02:39.2Z</time></trkpt><trkpt lat="43.9414834" lon="12.371863"><ele>176.33333333333331</ele><time>2026-04-04T11:02:40.199Z</time></trkpt><trkpt lat="43.941359" lon="12.3720121"><ele>176.66666666666666</ele><time>2026-04-04T11:02:41.199Z</time></trkpt><trkpt lat="43.9412577" lon="12.3721756"><ele>177.0</ele><time>2026-04-04T11:02:42.199Z</time></trkpt><trkpt lat="43.9411545" lon="12.3723661"><ele>177.0</ele><time>2026-04-04T11:02:43.199Z</time></trkpt><trkpt lat="43.9410598" lon="12.3725443"><ele>177.0</ele><time>2026-04-04T11:02:44.199Z</time></trkpt><trkpt lat="43.9409756" lon="12.3727162"><ele>177.0</ele><time>2026-04-04T11:02:45.199Z</time></trkpt><trkpt lat="43.9408889" lon="12.3729212"><ele>178.0</ele><time>2026-04-04T11:02:46.199Z</time></trkpt><trkpt lat="43.9408236" lon="12.3731289"><ele>179.0</ele><time>2026-04-04T11:02:47.2Z</time></trkpt><trkpt lat="43.9407737" lon="12.3733357"><ele>180.0</ele><time>2026-04-04T11:02:48.199Z</time></trkpt><trkpt lat="43.9407216" lon="12.373579"><ele>180.0</ele><time>2026-04-04T11:02:49.2Z</time></trkpt><trkpt lat="43.940673" lon="12.3738073"><ele>180.0</ele><time>2026-04-04T11:02:50.2Z</time></trkpt><trkpt lat="43.940625" lon="12.3740342"><ele>180.0</ele><time>2026-04-04T11:02:51.2Z</time></trkpt><trkpt lat="43.9405761" lon="12.3742546"><ele>179.66666666666666</ele><time>2026-04-04T11:02:52.199Z</time></trkpt><trkpt lat="43.9405339" lon="12.3744606"><ele>179.33333333333331</ele><time>2026-04-04T11:02:53.199Z</time></trkpt><trkpt lat="43.9404852" lon="12.3746886"><ele>179.0</ele><time>2026-04-04T11:02:54.199Z</time></trkpt><trkpt lat="43.9404383" lon="12.3748993"><ele>179.0</ele><time>2026-04-04T11:02:55.199Z</time></trkpt><trkpt lat="43.940397" lon="12.3750874"><ele>179.0</ele><time>2026-04-04T11:02:56.199Z</time></trkpt><trkpt lat="43.9403566" lon="12.3752778"><ele>179.0</ele><time>2026-04-04T11:02:57.199Z</time></trkpt><trkpt lat="43.9403225" lon="12.3754299"><ele>179.0</ele><time>2026-04-04T11:02:58.199Z</time></trkpt><trkpt lat="43.9402863" lon="12.3755974"><ele>179.5</ele><time>2026-04-04T11:02:59.2Z</time></trkpt><trkpt lat="43.9402525" lon="12.3757527"><ele>180.0</ele><time>2026-04-04T11:03:00.2Z</time></trkpt><trkpt lat="43.9402184" lon="12.3758938"><ele>180.5</ele><time>2026-04-04T11:03:01.2Z</time></trkpt><trkpt lat="43.9401739" lon="12.3760482"><ele>181.0</ele><time>2026-04-04T11:03:02.199Z</time></trkpt><trkpt lat="43.9401248" lon="12.3761926"><ele>181.0</ele><time>2026-04-04T11:03:03.2Z</time></trkpt><trkpt lat="43.9400683" lon="12.3763256"><ele>181.0</ele><time>2026-04-04T11:03:04.2Z</time></trkpt><trkpt lat="43.939988" lon="12.3764638"><ele>181.0</ele><time>2026-04-04T11:03:05.199Z</time></trkpt><trkpt lat="43.9399014" lon="12.3765859"><ele>181.0</ele><time>2026-04-04T11:03:06.199Z</time></trkpt><trkpt lat="43.939805" lon="12.376707"><ele>183.75</ele><time>2026-04-04T11:03:07.199Z</time></trkpt><trkpt lat="43.939702" lon="12.3768279"><ele>186.5</ele><time>2026-04-04T11:03:08.199Z</time></trkpt><trkpt lat="43.9395965" lon="12.3769388"><ele>189.25</ele><time>2026-04-04T11:03:09.2Z</time></trkpt><trkpt lat="43.9394627" lon="12.377051"><ele>192.0</ele><time>2026-04-04T11:03:10.199Z</time></trkpt><trkpt lat="43.9393235" lon="12.3771418"><ele>192.0</ele><time>2026-04-04T11:03:11.199Z</time></trkpt><trkpt lat="43.9391859" lon="12.3772195"><ele>192.0</ele><time>2026-04-04T11:03:12.199Z</time></trkpt><trkpt lat="43.9390241" lon="12.3773015"><ele>192.0</ele><time>2026-04-04T11:03:13.199Z</time></trkpt><trkpt lat="43.9388826" lon="12.3773705"><ele>192.0</ele><time>2026-04-04T11:03:14.199Z</time></trkpt><trkpt lat="43.9387249" lon="12.377448"><ele>192.0</ele><time>2026-04-04T11:03:15.199Z</time></trkpt><trkpt lat="43.9385788" lon="12.3775179"><ele>192.0</ele><time>2026-04-04T11:03:16.199Z</time></trkpt><trkpt lat="43.9384441" lon="12.3775804"><ele>195.66666666666669</ele><time>2026-04-04T11:03:17.199Z</time></trkpt><trkpt lat="43.9382865" lon="12.3776575"><ele>199.33333333333334</ele><time>2026-04-04T11:03:18.199Z</time></trkpt><trkpt lat="43.9381287" lon="12.3777355"><ele>203.0</ele><time>2026-04-04T11:03:19.199Z</time></trkpt><trkpt lat="43.9379594" lon="12.3778342"><ele>203.0</ele><time>2026-04-04T11:03:20.199Z</time></trkpt><trkpt lat="43.937745" lon="12.3779955"><ele>203.0</ele><time>2026-04-04T11:03:21.199Z</time></trkpt><trkpt lat="43.9375197" lon="12.3781469"><ele>200.5</ele><time>2026-04-04T11:03:22.2Z</time></trkpt><trkpt lat="43.9372864" lon="12.3783067"><ele>198.0</ele><time>2026-04-04T11:03:23.2Z</time></trkpt><trkpt lat="43.9370596" lon="12.3784607"><ele>198.0</ele><time>2026-04-04T11:03:24.199Z</time></trkpt><trkpt lat="43.9368598" lon="12.3786017"><ele>198.0</ele><time>2026-04-04T11:03:25.2Z</time></trkpt><trkpt lat="43.9366438" lon="12.3787575"><ele>198.0</ele><time>2026-04-04T11:03:26.199Z</time></trkpt><trkpt lat="43.9364517" lon="12.3788834"><ele>198.0</ele><time>2026-04-04T11:03:27.199Z</time></trkpt><trkpt lat="43.9362696" lon="12.3789919"><ele>198.0</ele><time>2026-04-04T11:03:28.199Z</time></trkpt><trkpt lat="43.9360553" lon="12.3790837"><ele>199.0</ele><time>2026-04-04T11:03:29.199Z</time></trkpt><trkpt lat="43.9358604" lon="12.3791507"><ele>200.0</ele><time>2026-04-04T11:03:30.199Z</time></trkpt><trkpt lat="43.9356385" lon="12.3792204"><ele>201.0</ele><time>2026-04-04T11:03:31.199Z</time></trkpt><trkpt lat="43.9354314" lon="12.3792865"><ele>201.0</ele><time>2026-04-04T11:03:32.2Z</time></trkpt><trkpt lat="43.9352436" lon="12.3793493"><ele>201.0</ele><time>2026-04-04T11:03:33.199Z</time></trkpt><trkpt lat="43.9350426" lon="12.3794133"><ele>201.0</ele><time>2026-04-04T11:03:34.199Z</time></trkpt><trkpt lat="43.9348535" lon="12.3794674"><ele>202.66666666666669</ele><time>2026-04-04T11:03:35.199Z</time></trkpt><trkpt lat="43.9346736" lon="12.379498"><ele>204.33333333333334</ele><time>2026-04-04T11:03:36.199Z</time></trkpt><trkpt lat="43.9344631" lon="12.379505"><ele>206.0</ele><time>2026-04-04T11:03:37.199Z</time></trkpt><trkpt lat="43.9342605" lon="12.3794895"><ele>207.0</ele><time>2026-04-04T11:03:38.199Z</time></trkpt><trkpt lat="43.9340538" lon="12.3794664"><ele>208.0</ele><time>2026-04-04T11:03:39.199Z</time></trkpt><trkpt lat="43.9338484" lon="12.3794376"><ele>209.0</ele><time>2026-04-04T11:03:40.2Z</time></trkpt><trkpt lat="43.9336605" lon="12.3794119"><ele>209.0</ele><time>2026-04-04T11:03:41.199Z</time></trkpt><trkpt lat="43.9334476" lon="12.3793832"><ele>209.0</ele><time>2026-04-04T11:03:42.199Z</time></trkpt><trkpt lat="43.9332514" lon="12.3793556"><ele>209.0</ele><time>2026-04-04T11:03:43.199Z</time></trkpt><trkpt lat="43.933072" lon="12.3793319"><ele>209.33333333333334</ele><time>2026-04-04T11:03:44.2Z</time></trkpt><trkpt lat="43.9328714" lon="12.3793128"><ele>209.66666666666669</ele><time>2026-04-04T11:03:45.2Z</time></trkpt><trkpt lat="43.932695" lon="12.3793054"><ele>210.0</ele><time>2026-04-04T11:03:46.2Z</time></trkpt><trkpt lat="43.9324936" lon="12.3793215"><ele>209.33333333333331</ele><time>2026-04-04T11:03:47.2Z</time></trkpt><trkpt lat="43.9323076" lon="12.3793441"><ele>208.66666666666666</ele><time>2026-04-04T11:03:48.2Z</time></trkpt><trkpt lat="43.9321363" lon="12.3793698"><ele>208.0</ele><time>2026-04-04T11:03:49.199Z</time></trkpt><trkpt lat="43.9319433" lon="12.3793861"><ele>208.0</ele><time>2026-04-04T11:03:50.2Z</time></trkpt><trkpt lat="43.9317586" lon="12.3793726"><ele>208.0</ele><time>2026-04-04T11:03:51.199Z</time></trkpt><trkpt lat="43.9315868" lon="12.3793261"><ele>208.0</ele><time>2026-04-04T11:03:52.199Z</time></trkpt><trkpt lat="43.9313968" lon="12.3792461"><ele>208.0</ele><time>2026-04-04T11:03:53.199Z</time></trkpt><trkpt lat="43.9312229" lon="12.3791628"><ele>208.0</ele><time>2026-04-04T11:03:54.199Z</time></trkpt><trkpt lat="43.9310453" lon="12.3790862"><ele>208.0</ele><time>2026-04-04T11:03:55.199Z</time></trkpt><trkpt lat="43.9308663" lon="12.3790185"><ele>210.0</ele><time>2026-04-04T11:03:56.199Z</time></trkpt><trkpt lat="43.9306981" lon="12.3789717"><ele>212.0</ele><time>2026-04-04T11:03:57.2Z</time></trkpt><trkpt lat="43.9305058" lon="12.3789349"><ele>214.0</ele><time>2026-04-04T11:03:58.2Z</time></trkpt><trkpt lat="43.9303327" lon="12.3789184"><ele>214.0</ele><time>2026-04-04T11:03:59.199Z</time></trkpt><trkpt lat="43.9301696" lon="12.378935"><ele>214.0</ele><time>2026-04-04T11:04:00.199Z</time></trkpt><trkpt lat="43.9300146" lon="12.3789947"><ele>214.0</ele><time>2026-04-04T11:04:01.2Z</time></trkpt><trkpt lat="43.9298855" lon="12.3790952"><ele>216.0</ele><time>2026-04-04T11:04:02.2Z</time></trkpt><trkpt lat="43.9297527" lon="12.3792195"><ele>218.0</ele><time>2026-04-04T11:04:03.199Z</time></trkpt><trkpt lat="43.9296325" lon="12.3793304"><ele>220.0</ele><time>2026-04-04T11:04:04.199Z</time></trkpt><trkpt lat="43.9295113" lon="12.3794182"><ele>222.0</ele><time>2026-04-04T11:04:05.199Z</time></trkpt><trkpt lat="43.9293549" lon="12.3795008"><ele>220.66666666666669</ele><time>2026-04-04T11:04:06.2Z</time></trkpt><trkpt lat="43.9291941" lon="12.3795613"><ele>219.33333333333334</ele><time>2026-04-04T11:04:07.199Z</time></trkpt><trkpt lat="43.9290417" lon="12.3796178"><ele>218.0</ele><time>2026-04-04T11:04:08.199Z</time></trkpt><trkpt lat="43.9288671" lon="12.379692"><ele>218.0</ele><time>2026-04-04T11:04:09.2Z</time></trkpt><trkpt lat="43.9287081" lon="12.3797757"><ele>218.0</ele><time>2026-04-04T11:04:10.199Z</time></trkpt><trkpt lat="43.9285506" lon="12.3798625"><ele>218.0</ele><time>2026-04-04T11:04:11.199Z</time></trkpt><trkpt lat="43.9283926" lon="12.3799487"><ele>221.0</ele><time>2026-04-04T11:04:12.2Z</time></trkpt><trkpt lat="43.9282442" lon="12.3800269"><ele>224.0</ele><time>2026-04-04T11:04:13.199Z</time></trkpt><trkpt lat="43.9280759" lon="12.3801117"><ele>227.0</ele><time>2026-04-04T11:04:14.199Z</time></trkpt><trkpt lat="43.9279218" lon="12.380184"><ele>227.0</ele><time>2026-04-04T11:04:15.199Z</time></trkpt><trkpt lat="43.9277844" lon="12.3802409"><ele>227.0</ele><time>2026-04-04T11:04:16.199Z</time></trkpt><trkpt lat="43.9276311" lon="12.3802854"><ele>227.0</ele><time>2026-04-04T11:04:17.2Z</time></trkpt><trkpt lat="43.9274942" lon="12.3802902"><ele>227.0</ele><time>2026-04-04T11:04:18.2Z</time></trkpt><trkpt lat="43.9273296" lon="12.3802463"><ele>229.0</ele><time>2026-04-04T11:04:19.199Z</time></trkpt><trkpt lat="43.9271678" lon="12.3801797"><ele>231.0</ele><time>2026-04-04T11:04:20.199Z</time></trkpt><trkpt lat="43.9270162" lon="12.3801066"><ele>233.0</ele><time>2026-04-04T11:04:21.199Z</time></trkpt><trkpt lat="43.9268435" lon="12.38002"><ele>232.33333333333334</ele><time>2026-04-04T11:04:22.199Z</time></trkpt><trkpt lat="43.9266781" lon="12.3799412"><ele>231.66666666666669</ele><time>2026-04-04T11:04:23.199Z</time></trkpt><trkpt lat="43.9265234" lon="12.3798679"><ele>231.0</ele><time>2026-04-04T11:04:24.199Z</time></trkpt><trkpt lat="43.9263454" lon="12.3797807"><ele>231.0</ele><time>2026-04-04T11:04:25.2Z</time></trkpt><trkpt lat="43.9261819" lon="12.3797028"><ele>231.0</ele><time>2026-04-04T11:04:26.2Z</time></trkpt><trkpt lat="43.9260194" lon="12.3796329"><ele>231.0</ele><time>2026-04-04T11:04:27.199Z</time></trkpt><trkpt lat="43.9258501" lon="12.3795874"><ele>232.33333333333331</ele><time>2026-04-04T11:04:28.199Z</time></trkpt><trkpt lat="43.925686" lon="12.3795702"><ele>233.66666666666666</ele><time>2026-04-04T11:04:29.199Z</time></trkpt><trkpt lat="43.9254953" lon="12.3795725"><ele>235.0</ele><time>2026-04-04T11:04:30.199Z</time></trkpt><trkpt lat="43.9253175" lon="12.3795894"><ele>235.0</ele><time>2026-04-04T11:04:31.2Z</time></trkpt><trkpt lat="43.92514" lon="12.3796237"><ele>235.0</ele><time>2026-04-04T11:04:32.2Z</time></trkpt><trkpt lat="43.9249674" lon="12.3796839"><ele>235.0</ele><time>2026-04-04T11:04:33.2Z</time></trkpt><trkpt lat="43.9248093" lon="12.3797704"><ele>233.33333333333331</ele><time>2026-04-04T11:04:34.199Z</time></trkpt><trkpt lat="43.9246396" lon="12.3798845"><ele>231.66666666666669</ele><time>2026-04-04T11:04:35.199Z</time></trkpt><trkpt lat="43.924491" lon="12.3799889"><ele>230.0</ele><time>2026-04-04T11:04:36.2Z</time></trkpt><trkpt lat="43.924362" lon="12.3800737"><ele>231.5</ele><time>2026-04-04T11:04:37.199Z</time></trkpt><trkpt lat="43.9242163" lon="12.3801403"><ele>233.0</ele><time>2026-04-04T11:04:38.2Z</time></trkpt><trkpt lat="43.9240769" lon="12.3801603"><ele>234.5</ele><time>2026-04-04T11:04:39.2Z</time></trkpt><trkpt lat="43.9239443" lon="12.3801395"><ele>236.0</ele><time>2026-04-04T11:04:40.2Z</time></trkpt><trkpt lat="43.9237954" lon="12.3800615"><ele>236.0</ele><time>2026-04-04T11:04:41.199Z</time></trkpt><trkpt lat="43.9236699" lon="12.3799443"><ele>236.0</ele><time>2026-04-04T11:04:42.199Z</time></trkpt><trkpt lat="43.9235517" lon="12.3797994"><ele>236.0</ele><time>2026-04-04T11:04:43.199Z</time></trkpt><trkpt lat="43.9234425" lon="12.3796322"><ele>237.66666666666669</ele><time>2026-04-04T11:04:44.199Z</time></trkpt><trkpt lat="43.9233415" lon="12.3794738"><ele>239.33333333333331</ele><time>2026-04-04T11:04:45.199Z</time></trkpt><trkpt lat="43.9232235" lon="12.3793122"><ele>241.0</ele><time>2026-04-04T11:04:46.199Z</time></trkpt><trkpt lat="43.9230931" lon="12.3791918"><ele>241.0</ele><time>2026-04-04T11:04:47.2Z</time></trkpt><trkpt lat="43.9229617" lon="12.3790975"><ele>241.0</ele><time>2026-04-04T11:04:48.199Z</time></trkpt><trkpt lat="43.9228022" lon="12.3790021"><ele>241.0</ele><time>2026-04-04T11:04:49.2Z</time></trkpt><trkpt lat="43.9226599" lon="12.3789189"><ele>243.66666666666666</ele><time>2026-04-04T11:04:50.2Z</time></trkpt><trkpt lat="43.9224976" lon="12.3788218"><ele>246.33333333333331</ele><time>2026-04-04T11:04:51.199Z</time></trkpt><trkpt lat="43.9223448" lon="12.3787283"><ele>249.0</ele><time>2026-04-04T11:04:52.199Z</time></trkpt><trkpt lat="43.922204" lon="12.3786341"><ele>249.0</ele><time>2026-04-04T11:04:53.199Z</time></trkpt><trkpt lat="43.9220469" lon="12.3785261"><ele>249.0</ele><time>2026-04-04T11:04:54.199Z</time></trkpt><trkpt lat="43.9219036" lon="12.3784223"><ele>249.0</ele><time>2026-04-04T11:04:55.199Z</time></trkpt><trkpt lat="43.9217639" lon="12.3783364"><ele>247.66666666666669</ele><time>2026-04-04T11:04:56.199Z</time></trkpt><trkpt lat="43.9216075" lon="12.3782565"><ele>246.33333333333334</ele><time>2026-04-04T11:04:57.199Z</time></trkpt><trkpt lat="43.9214566" lon="12.3781998"><ele>245.0</ele><time>2026-04-04T11:04:58.199Z</time></trkpt><trkpt lat="43.9213" lon="12.3781664"><ele>245.0</ele><time>2026-04-04T11:04:59.199Z</time></trkpt><trkpt lat="43.9211411" lon="12.3781578"><ele>245.0</ele><time>2026-04-04T11:05:00.199Z</time></trkpt><trkpt lat="43.9209885" lon="12.3781692"><ele>245.0</ele><time>2026-04-04T11:05:01.2Z</time></trkpt><trkpt lat="43.9208157" lon="12.3782033"><ele>245.0</ele><time>2026-04-04T11:05:02.199Z</time></trkpt><trkpt lat="43.9206576" lon="12.3782554"><ele>245.0</ele><time>2026-04-04T11:05:03.199Z</time></trkpt><trkpt lat="43.9205017" lon="12.3783291"><ele>245.0</ele><time>2026-04-04T11:05:04.199Z</time></trkpt><trkpt lat="43.9203471" lon="12.378423"><ele>245.0</ele><time>2026-04-04T11:05:05.2Z</time></trkpt><trkpt lat="43.9202047" lon="12.3785312"><ele>245.0</ele><time>2026-04-04T11:05:06.2Z</time></trkpt><trkpt lat="43.920048" lon="12.3786676"><ele>245.0</ele><time>2026-04-04T11:05:07.199Z</time></trkpt><trkpt lat="43.9199053" lon="12.3787983"><ele>243.0</ele><time>2026-04-04T11:05:08.199Z</time></trkpt><trkpt lat="43.9197785" lon="12.3789144"><ele>241.0</ele><time>2026-04-04T11:05:09.2Z</time></trkpt><trkpt lat="43.9196409" lon="12.3790347"><ele>239.0</ele><time>2026-04-04T11:05:10.2Z</time></trkpt><trkpt lat="43.9195139" lon="12.3791395"><ele>239.0</ele><time>2026-04-04T11:05:11.199Z</time></trkpt><trkpt lat="43.9193976" lon="12.3792209"><ele>239.0</ele><time>2026-04-04T11:05:12.199Z</time></trkpt><trkpt lat="43.9192588" lon="12.3792851"><ele>239.0</ele><time>2026-04-04T11:05:13.2Z</time></trkpt><trkpt lat="43.919118" lon="12.3793096"><ele>239.0</ele><time>2026-04-04T11:05:14.199Z</time></trkpt><trkpt lat="43.9189642" lon="12.3793006"><ele>241.33333333333334</ele><time>2026-04-04T11:05:15.199Z</time></trkpt><trkpt lat="43.9188062" lon="12.3792522"><ele>243.66666666666669</ele><time>2026-04-04T11:05:16.2Z</time></trkpt><trkpt lat="43.9186651" lon="12.3791805"><ele>246.0</ele><time>2026-04-04T11:05:17.199Z</time></trkpt><trkpt lat="43.9185182" lon="12.3790769"><ele>246.0</ele><time>2026-04-04T11:05:18.2Z</time></trkpt><trkpt lat="43.9184023" lon="12.3789792"><ele>246.0</ele><time>2026-04-04T11:05:19.199Z</time></trkpt><trkpt lat="43.918311" lon="12.3788864"><ele>246.0</ele><time>2026-04-04T11:05:20.199Z</time></trkpt><trkpt lat="43.9182158" lon="12.3787894"><ele>246.0</ele><time>2026-04-04T11:05:21.2Z</time></trkpt><trkpt lat="43.9181282" lon="12.3787263"><ele>247.25</ele><time>2026-04-04T11:05:22.2Z</time></trkpt><trkpt lat="43.9180124" lon="12.3786852"><ele>248.5</ele><time>2026-04-04T11:05:23.199Z</time></trkpt><trkpt lat="43.9178913" lon="12.3786791"><ele>249.75</ele><time>2026-04-04T11:05:24.2Z</time></trkpt><trkpt lat="43.9177721" lon="12.3786937"><ele>251.0</ele><time>2026-04-04T11:05:25.199Z</time></trkpt><trkpt lat="43.917635" lon="12.3787335"><ele>251.25</ele><time>2026-04-04T11:05:26.199Z</time></trkpt><trkpt lat="43.9175052" lon="12.3787973"><ele>251.5</ele><time>2026-04-04T11:05:27.199Z</time></trkpt><trkpt lat="43.9173839" lon="12.3788694"><ele>251.75</ele><time>2026-04-04T11:05:28.2Z</time></trkpt><trkpt lat="43.9172481" lon="12.378939"><ele>252.0</ele><time>2026-04-04T11:05:29.199Z</time></trkpt><trkpt lat="43.9171262" lon="12.3789884"><ele>250.25</ele><time>2026-04-04T11:05:30.2Z</time></trkpt><trkpt lat="43.9170076" lon="12.3790094"><ele>248.5</ele><time>2026-04-04T11:05:31.2Z</time></trkpt><trkpt lat="43.9168742" lon="12.3789917"><ele>246.75</ele><time>2026-04-04T11:05:32.199Z</time></trkpt><trkpt lat="43.9167593" lon="12.3789234"><ele>245.0</ele><time>2026-04-04T11:05:33.2Z</time></trkpt><trkpt lat="43.9166342" lon="12.3788222"><ele>249.5</ele><time>2026-04-04T11:05:34.199Z</time></trkpt><trkpt lat="43.9165174" lon="12.378712"><ele>254.0</ele><time>2026-04-04T11:05:35.199Z</time></trkpt><trkpt lat="43.9164091" lon="12.3786043"><ele>258.5</ele><time>2026-04-04T11:05:36.199Z</time></trkpt><trkpt lat="43.9162849" lon="12.378491"><ele>263.0</ele><time>2026-04-04T11:05:37.2Z</time></trkpt><trkpt lat="43.9161679" lon="12.3784178"><ele>263.0</ele><time>2026-04-04T11:05:38.2Z</time></trkpt><trkpt lat="43.9160264" lon="12.37837"><ele>263.0</ele><time>2026-04-04T11:05:39.2Z</time></trkpt><trkpt lat="43.9158873" lon="12.3783541"><ele>263.0</ele><time>2026-04-04T11:05:40.199Z</time></trkpt><trkpt lat="43.9157573" lon="12.3783492"><ele>263.0</ele><time>2026-04-04T11:05:41.199Z</time></trkpt><trkpt lat="43.915608" lon="12.3783575"><ele>264.0</ele><time>2026-04-04T11:05:42.199Z</time></trkpt><trkpt lat="43.9154765" lon="12.3783533"><ele>265.0</ele><time>2026-04-04T11:05:43.199Z</time></trkpt><trkpt lat="43.915363" lon="12.3783436"><ele>266.0</ele><time>2026-04-04T11:05:44.199Z</time></trkpt><trkpt lat="43.9152495" lon="12.3783133"><ele>267.0</ele><time>2026-04-04T11:05:45.199Z</time></trkpt><trkpt lat="43.9151583" lon="12.378245"><ele>267.0</ele><time>2026-04-04T11:05:46.2Z</time></trkpt><trkpt lat="43.9150881" lon="12.378139"><ele>267.0</ele><time>2026-04-04T11:05:47.199Z</time></trkpt><trkpt lat="43.9150078" lon="12.3780014"><ele>267.0</ele><time>2026-04-04T11:05:48.199Z</time></trkpt><trkpt lat="43.9149309" lon="12.3778753"><ele>267.0</ele><time>2026-04-04T11:05:49.199Z</time></trkpt><trkpt lat="43.9148336" lon="12.3777369"><ele>271.25</ele><time>2026-04-04T11:05:50.199Z</time></trkpt><trkpt lat="43.9147311" lon="12.3776233"><ele>275.5</ele><time>2026-04-04T11:05:51.199Z</time></trkpt><trkpt lat="43.9146188" lon="12.3775417"><ele>279.75</ele><time>2026-04-04T11:05:52.2Z</time></trkpt><trkpt lat="43.9145057" lon="12.3774732"><ele>284.0</ele><time>2026-04-04T11:05:53.2Z</time></trkpt><trkpt lat="43.914424" lon="12.3774255"><ele>284.0</ele><time>2026-04-04T11:05:54.2Z</time></trkpt><trkpt lat="43.9143466" lon="12.3773681"><ele>284.0</ele><time>2026-04-04T11:05:55.199Z</time></trkpt><trkpt lat="43.9142873" lon="12.37728"><ele>284.0</ele><time>2026-04-04T11:05:56.199Z</time></trkpt><trkpt lat="43.914266" lon="12.3771864"><ele>284.0</ele><time>2026-04-04T11:05:57.199Z</time></trkpt><trkpt lat="43.9142924" lon="12.3770844"><ele>284.0</ele><time>2026-04-04T11:05:58.2Z</time></trkpt><trkpt lat="43.9143765" lon="12.3770352"><ele>284.0</ele><time>2026-04-04T11:05:59.199Z</time></trkpt><trkpt lat="43.9144654" lon="12.3770147"><ele>287.0</ele><time>2026-04-04T11:06:00.199Z</time></trkpt><trkpt lat="43.9145812" lon="12.3770124"><ele>290.0</ele><time>2026-04-04T11:06:01.199Z</time></trkpt><trkpt lat="43.9146988" lon="12.3769905"><ele>293.0</ele><time>2026-04-04T11:06:02.2Z</time></trkpt><trkpt lat="43.9148198" lon="12.3769483"><ele>296.0</ele><time>2026-04-04T11:06:03.199Z</time></trkpt><trkpt lat="43.914935" lon="12.3768908"><ele>296.0</ele><time>2026-04-04T11:06:04.199Z</time></trkpt><trkpt lat="43.9150364" lon="12.376829"><ele>296.0</ele><time>2026-04-04T11:06:05.199Z</time></trkpt><trkpt lat="43.9151405" lon="12.3767441"><ele>296.0</ele><time>2026-04-04T11:06:06.199Z</time></trkpt><trkpt lat="43.915213" lon="12.3766438"><ele>296.0</ele><time>2026-04-04T11:06:07.199Z</time></trkpt><trkpt lat="43.9152507" lon="12.3765321"><ele>296.0</ele><time>2026-04-04T11:06:08.2Z</time></trkpt><trkpt lat="43.9152476" lon="12.3764003"><ele>296.0</ele><time>2026-04-04T11:06:09.199Z</time></trkpt><trkpt lat="43.9152026" lon="12.3762869"><ele>296.0</ele><time>2026-04-04T11:06:10.199Z</time></trkpt><trkpt lat="43.9151057" lon="12.3761853"><ele>296.0</ele><time>2026-04-04T11:06:11.199Z</time></trkpt><trkpt lat="43.9149646" lon="12.3760994"><ele>296.0</ele><time>2026-04-04T11:06:12.2Z</time></trkpt><trkpt lat="43.9148331" lon="12.3760328"><ele>299.0</ele><time>2026-04-04T11:06:13.199Z</time></trkpt><trkpt lat="43.9146755" lon="12.3759593"><ele>302.0</ele><time>2026-04-04T11:06:14.2Z</time></trkpt><trkpt lat="43.9145285" lon="12.3758828"><ele>305.0</ele><time>2026-04-04T11:06:15.2Z</time></trkpt><trkpt lat="43.9143873" lon="12.375832"><ele>306.0</ele><time>2026-04-04T11:06:16.2Z</time></trkpt><trkpt lat="43.9142316" lon="12.3758133"><ele>307.0</ele><time>2026-04-04T11:06:17.199Z</time></trkpt><trkpt lat="43.9140918" lon="12.3758351"><ele>308.0</ele><time>2026-04-04T11:06:18.199Z</time></trkpt><trkpt lat="43.9139739" lon="12.3758887"><ele>309.0</ele><time>2026-04-04T11:06:19.199Z</time></trkpt><trkpt lat="43.9138612" lon="12.3759758"><ele>309.0</ele><time>2026-04-04T11:06:20.2Z</time></trkpt><trkpt lat="43.9137826" lon="12.3760576"><ele>309.0</ele><time>2026-04-04T11:06:21.199Z</time></trkpt><trkpt lat="43.9137004" lon="12.3761302"><ele>309.0</ele><time>2026-04-04T11:06:22.199Z</time></trkpt><trkpt lat="43.9136228" lon="12.3761466"><ele>309.0</ele><time>2026-04-04T11:06:23.199Z</time></trkpt><trkpt lat="43.9135584" lon="12.376115"><ele>309.0</ele><time>2026-04-04T11:06:24.2Z</time></trkpt><trkpt lat="43.9135139" lon="12.3760334"><ele>309.0</ele><time>2026-04-04T11:06:25.199Z</time></trkpt><trkpt lat="43.9135347" lon="12.3758972"><ele>309.0</ele><time>2026-04-04T11:06:26.199Z</time></trkpt><trkpt lat="43.9135876" lon="12.3757417"><ele>309.0</ele><time>2026-04-04T11:06:27.199Z</time></trkpt><trkpt lat="43.9136657" lon="12.3755709"><ele>309.0</ele><time>2026-04-04T11:06:28.199Z</time></trkpt><trkpt lat="43.9137498" lon="12.3754195"><ele>309.0</ele><time>2026-04-04T11:06:29.199Z</time></trkpt><trkpt lat="43.9138492" lon="12.3752427"><ele>310.6666666666667</ele><time>2026-04-04T11:06:30.2Z</time></trkpt><trkpt lat="43.9139611" lon="12.3750897"><ele>312.33333333333337</ele><time>2026-04-04T11:06:31.2Z</time></trkpt><trkpt lat="43.9140845" lon="12.374982"><ele>314.0</ele><time>2026-04-04T11:06:32.199Z</time></trkpt><trkpt lat="43.9142435" lon="12.3748931"><ele>314.0</ele><time>2026-04-04T11:06:33.2Z</time></trkpt><trkpt lat="43.9143966" lon="12.3748318"><ele>314.0</ele><time>2026-04-04T11:06:34.199Z</time></trkpt><trkpt lat="43.9145318" lon="12.3747775"><ele>314.0</ele><time>2026-04-04T11:06:35.199Z</time></trkpt><trkpt lat="43.9146708" lon="12.3747187"><ele>314.0</ele><time>2026-04-04T11:06:36.199Z</time></trkpt><trkpt lat="43.9147751" lon="12.3746705"><ele>315.33333333333337</ele><time>2026-04-04T11:06:37.199Z</time></trkpt><trkpt lat="43.9148718" lon="12.3746068"><ele>316.6666666666667</ele><time>2026-04-04T11:06:38.199Z</time></trkpt><trkpt lat="43.9149355" lon="12.374527"><ele>318.0</ele><time>2026-04-04T11:06:39.199Z</time></trkpt><trkpt lat="43.9149627" lon="12.3744344"><ele>319.3333333333333</ele><time>2026-04-04T11:06:40.199Z</time></trkpt><trkpt lat="43.9149513" lon="12.3743193"><ele>320.66666666666663</ele><time>2026-04-04T11:06:41.2Z</time></trkpt><trkpt lat="43.9148974" lon="12.3742294"><ele>322.0</ele><time>2026-04-04T11:06:42.199Z</time></trkpt><trkpt lat="43.9147949" lon="12.3741603"><ele>322.0</ele><time>2026-04-04T11:06:43.199Z</time></trkpt><trkpt lat="43.9146337" lon="12.3741129"><ele>322.0</ele><time>2026-04-04T11:06:44.2Z</time></trkpt><trkpt lat="43.9144696" lon="12.3740681"><ele>322.0</ele><time>2026-04-04T11:06:45.199Z</time></trkpt><trkpt lat="43.9142768" lon="12.3740046"><ele>325.0</ele><time>2026-04-04T11:06:46.199Z</time></trkpt><trkpt lat="43.9141084" lon="12.3739346"><ele>328.0</ele><time>2026-04-04T11:06:47.2Z</time></trkpt><trkpt lat="43.9139646" lon="12.3738543"><ele>331.0</ele><time>2026-04-04T11:06:48.2Z</time></trkpt><trkpt lat="43.9138032" lon="12.3737257"><ele>333.66666666666663</ele><time>2026-04-04T11:06:49.2Z</time></trkpt><trkpt lat="43.9136556" lon="12.3735635"><ele>336.3333333333333</ele><time>2026-04-04T11:06:50.2Z</time></trkpt><trkpt lat="43.913529" lon="12.3733851"><ele>339.0</ele><time>2026-04-04T11:06:51.199Z</time></trkpt><trkpt lat="43.9133985" lon="12.3731628"><ele>341.6666666666667</ele><time>2026-04-04T11:06:52.199Z</time></trkpt><trkpt lat="43.913294" lon="12.372967"><ele>344.33333333333337</ele><time>2026-04-04T11:06:53.199Z</time></trkpt><trkpt lat="43.9131756" lon="12.3727424"><ele>347.0</ele><time>2026-04-04T11:06:54.199Z</time></trkpt><trkpt lat="43.9130663" lon="12.3725298"><ele>347.0</ele><time>2026-04-04T11:06:55.199Z</time></trkpt><trkpt lat="43.9129651" lon="12.372332"><ele>347.0</ele><time>2026-04-04T11:06:56.199Z</time></trkpt><trkpt lat="43.9128514" lon="12.3721106"><ele>347.0</ele><time>2026-04-04T11:06:57.199Z</time></trkpt><trkpt lat="43.9127459" lon="12.3719239"><ele>346.6666666666667</ele><time>2026-04-04T11:06:58.2Z</time></trkpt><trkpt lat="43.9126258" lon="12.3717414"><ele>346.3333333333333</ele><time>2026-04-04T11:06:59.2Z</time></trkpt><trkpt lat="43.9124847" lon="12.371565"><ele>346.0</ele><time>2026-04-04T11:07:00.199Z</time></trkpt><trkpt lat="43.9123629" lon="12.3714223"><ele>352.0</ele><time>2026-04-04T11:07:01.199Z</time></trkpt><trkpt lat="43.9122344" lon="12.3712578"><ele>358.0</ele><time>2026-04-04T11:07:02.199Z</time></trkpt><trkpt lat="43.912125" lon="12.3710963"><ele>364.0</ele><time>2026-04-04T11:07:03.199Z</time></trkpt><trkpt lat="43.9120293" lon="12.3709393"><ele>364.0</ele><time>2026-04-04T11:07:04.2Z</time></trkpt><trkpt lat="43.9119302" lon="12.370749"><ele>364.0</ele><time>2026-04-04T11:07:05.2Z</time></trkpt><trkpt lat="43.9118536" lon="12.370565"><ele>364.0</ele><time>2026-04-04T11:07:06.199Z</time></trkpt><trkpt lat="43.9117984" lon="12.3703887"><ele>364.5</ele><time>2026-04-04T11:07:07.199Z</time></trkpt><trkpt lat="43.9117512" lon="12.3702069"><ele>365.0</ele><time>2026-04-04T11:07:08.199Z</time></trkpt><trkpt lat="43.9117333" lon="12.370047"><ele>365.5</ele><time>2026-04-04T11:07:09.2Z</time></trkpt><trkpt lat="43.9117411" lon="12.3698557"><ele>366.0</ele><time>2026-04-04T11:07:10.199Z</time></trkpt><trkpt lat="43.9117703" lon="12.3696651"><ele>367.0</ele><time>2026-04-04T11:07:11.2Z</time></trkpt><trkpt lat="43.9117997" lon="12.3694717"><ele>368.0</ele><time>2026-04-04T11:07:12.199Z</time></trkpt><trkpt lat="43.9118225" lon="12.369237"><ele>369.0</ele><time>2026-04-04T11:07:13.2Z</time></trkpt><trkpt lat="43.9118322" lon="12.3690203"><ele>369.75</ele><time>2026-04-04T11:07:14.199Z</time></trkpt><trkpt lat="43.9118409" lon="12.3687963"><ele>370.5</ele><time>2026-04-04T11:07:15.199Z</time></trkpt><trkpt lat="43.9118486" lon="12.3685786"><ele>371.25</ele><time>2026-04-04T11:07:16.199Z</time></trkpt><trkpt lat="43.9118506" lon="12.3684132"><ele>372.0</ele><time>2026-04-04T11:07:17.199Z</time></trkpt><trkpt lat="43.9118405" lon="12.3682545"><ele>372.0</ele><time>2026-04-04T11:07:18.2Z</time></trkpt><trkpt lat="43.9118068" lon="12.3681316"><ele>372.0</ele><time>2026-04-04T11:07:19.199Z</time></trkpt><trkpt lat="43.9117488" lon="12.3680408"><ele>372.0</ele><time>2026-04-04T11:07:20.2Z</time></trkpt><trkpt lat="43.9116493" lon="12.3679695"><ele>372.0</ele><time>2026-04-04T11:07:21.199Z</time></trkpt><trkpt lat="43.9115181" lon="12.367941"><ele>372.0</ele><time>2026-04-04T11:07:22.199Z</time></trkpt><trkpt lat="43.9113795" lon="12.3679298"><ele>376.0</ele><time>2026-04-04T11:07:23.199Z</time></trkpt><trkpt lat="43.9112261" lon="12.3679287"><ele>380.0</ele><time>2026-04-04T11:07:24.199Z</time></trkpt><trkpt lat="43.911104" lon="12.3679228"><ele>384.0</ele><time>2026-04-04T11:07:25.2Z</time></trkpt><trkpt lat="43.9109836" lon="12.3679116"><ele>388.0</ele><time>2026-04-04T11:07:26.199Z</time></trkpt><trkpt lat="43.9108915" lon="12.3678833"><ele>388.00000000000006</ele><time>2026-04-04T11:07:27.199Z</time></trkpt><trkpt lat="43.9108265" lon="12.3678299"><ele>388.0</ele><time>2026-04-04T11:07:28.199Z</time></trkpt><trkpt lat="43.9107869" lon="12.3677401"><ele>388.0</ele><time>2026-04-04T11:07:29.2Z</time></trkpt><trkpt lat="43.9107955" lon="12.3676439"><ele>388.0</ele><time>2026-04-04T11:07:30.2Z</time></trkpt><trkpt lat="43.9108392" lon="12.3675575"><ele>388.00000000000006</ele><time>2026-04-04T11:07:31.199Z</time></trkpt><trkpt lat="43.9109372" lon="12.3674945"><ele>388.0</ele><time>2026-04-04T11:07:32.2Z</time></trkpt><trkpt lat="43.9110303" lon="12.3674366"><ele>388.0</ele><time>2026-04-04T11:07:33.199Z</time></trkpt><trkpt lat="43.9111305" lon="12.3673622"><ele>388.0</ele><time>2026-04-04T11:07:34.199Z</time></trkpt><trkpt lat="43.911203" lon="12.3672811"><ele>388.0</ele><time>2026-04-04T11:07:35.199Z</time></trkpt><trkpt lat="43.9112488" lon="12.367187"><ele>388.0</ele><time>2026-04-04T11:07:36.2Z</time></trkpt><trkpt lat="43.9112611" lon="12.3670632"><ele>388.0</ele><time>2026-04-04T11:07:37.199Z</time></trkpt><trkpt lat="43.9112337" lon="12.3669571"><ele>388.75</ele><time>2026-04-04T11:07:38.2Z</time></trkpt><trkpt lat="43.9111746" lon="12.3668779"><ele>389.5</ele><time>2026-04-04T11:07:39.199Z</time></trkpt><trkpt lat="43.9110673" lon="12.3668246"><ele>390.25</ele><time>2026-04-04T11:07:40.199Z</time></trkpt><trkpt lat="43.9109435" lon="12.3668011"><ele>391.0</ele><time>2026-04-04T11:07:41.199Z</time></trkpt><trkpt lat="43.9107826" lon="12.366786"><ele>396.33333333333337</ele><time>2026-04-04T11:07:42.199Z</time></trkpt><trkpt lat="43.9106261" lon="12.3667734"><ele>401.66666666666663</ele><time>2026-04-04T11:07:43.199Z</time></trkpt><trkpt lat="43.9104675" lon="12.3667611"><ele>407.0</ele><time>2026-04-04T11:07:44.199Z</time></trkpt><trkpt lat="43.9102715" lon="12.3667576"><ele>407.0</ele><time>2026-04-04T11:07:45.199Z</time></trkpt><trkpt lat="43.910099" lon="12.3667625"><ele>407.0</ele><time>2026-04-04T11:07:46.2Z</time></trkpt><trkpt lat="43.9099248" lon="12.3667732"><ele>407.0</ele><time>2026-04-04T11:07:47.199Z</time></trkpt><trkpt lat="43.909751" lon="12.3667836"><ele>409.0</ele><time>2026-04-04T11:07:48.199Z</time></trkpt><trkpt lat="43.9096095" lon="12.3668007"><ele>411.0</ele><time>2026-04-04T11:07:49.199Z</time></trkpt><trkpt lat="43.9094628" lon="12.3668421"><ele>413.0</ele><time>2026-04-04T11:07:50.199Z</time></trkpt><trkpt lat="43.9093348" lon="12.3669064"><ele>415.0</ele><time>2026-04-04T11:07:51.2Z</time></trkpt><trkpt lat="43.909223" lon="12.3670073"><ele>416.33333333333337</ele><time>2026-04-04T11:07:52.2Z</time></trkpt><trkpt lat="43.9091006" lon="12.3671583"><ele>417.66666666666663</ele><time>2026-04-04T11:07:53.199Z</time></trkpt><trkpt lat="43.9089942" lon="12.3673266"><ele>419.0</ele><time>2026-04-04T11:07:54.199Z</time></trkpt><trkpt lat="43.9088985" lon="12.3674913"><ele>419.0</ele><time>2026-04-04T11:07:55.199Z</time></trkpt><trkpt lat="43.9087965" lon="12.3676811"><ele>419.0</ele><time>2026-04-04T11:07:56.199Z</time></trkpt><trkpt lat="43.9087188" lon="12.3678443"><ele>419.0</ele><time>2026-04-04T11:07:57.199Z</time></trkpt><trkpt lat="43.9086567" lon="12.3680355"><ele>415.75</ele><time>2026-04-04T11:07:58.199Z</time></trkpt><trkpt lat="43.9086214" lon="12.3682164"><ele>412.5</ele><time>2026-04-04T11:07:59.199Z</time></trkpt><trkpt lat="43.9086015" lon="12.3683814"><ele>409.25</ele><time>2026-04-04T11:08:00.199Z</time></trkpt><trkpt lat="43.9085669" lon="12.3685536"><ele>406.0</ele><time>2026-04-04T11:08:01.199Z</time></trkpt><trkpt lat="43.9085202" lon="12.3686885"><ele>406.0</ele><time>2026-04-04T11:08:02.199Z</time></trkpt><trkpt lat="43.908446" lon="12.3688088"><ele>406.0</ele><time>2026-04-04T11:08:03.2Z</time></trkpt><trkpt lat="43.9083446" lon="12.3689109"><ele>406.0</ele><time>2026-04-04T11:08:04.199Z</time></trkpt><trkpt lat="43.9082398" lon="12.3689762"><ele>406.0</ele><time>2026-04-04T11:08:05.199Z</time></trkpt><trkpt lat="43.9081132" lon="12.3690129"><ele>410.75</ele><time>2026-04-04T11:08:06.199Z</time></trkpt><trkpt lat="43.9079899" lon="12.3690087"><ele>415.5</ele><time>2026-04-04T11:08:07.199Z</time></trkpt><trkpt lat="43.9078799" lon="12.368968"><ele>420.25</ele><time>2026-04-04T11:08:08.199Z</time></trkpt><trkpt lat="43.9077689" lon="12.3688828"><ele>425.0</ele><time>2026-04-04T11:08:09.2Z</time></trkpt><trkpt lat="43.9076803" lon="12.3687636"><ele>427.5</ele><time>2026-04-04T11:08:10.199Z</time></trkpt><trkpt lat="43.9076095" lon="12.3686203"><ele>430.0</ele><time>2026-04-04T11:08:11.199Z</time></trkpt><trkpt lat="43.9075453" lon="12.3684272"><ele>432.5</ele><time>2026-04-04T11:08:12.2Z</time></trkpt><trkpt lat="43.9075023" lon="12.368227"><ele>435.0</ele><time>2026-04-04T11:08:13.199Z</time></trkpt><trkpt lat="43.9074599" lon="12.367996"><ele>436.75</ele><time>2026-04-04T11:08:14.199Z</time></trkpt><trkpt lat="43.907426" lon="12.3677821"><ele>438.5</ele><time>2026-04-04T11:08:15.2Z</time></trkpt><trkpt lat="43.9073922" lon="12.367601"><ele>440.25</ele><time>2026-04-04T11:08:16.2Z</time></trkpt><trkpt lat="43.9073672" lon="12.3674102"><ele>442.0</ele><time>2026-04-04T11:08:17.199Z</time></trkpt><trkpt lat="43.907366" lon="12.3672505"><ele>442.25</ele><time>2026-04-04T11:08:18.199Z</time></trkpt><trkpt lat="43.9073899" lon="12.3670782"><ele>442.5</ele><time>2026-04-04T11:08:19.199Z</time></trkpt><trkpt lat="43.9074433" lon="12.3668993"><ele>442.75</ele><time>2026-04-04T11:08:20.199Z</time></trkpt><trkpt lat="43.9075056" lon="12.3667408"><ele>443.0</ele><time>2026-04-04T11:08:21.199Z</time></trkpt><trkpt lat="43.9075845" lon="12.3665616"><ele>443.75</ele><time>2026-04-04T11:08:22.199Z</time></trkpt><trkpt lat="43.9076574" lon="12.3663961"><ele>444.5</ele><time>2026-04-04T11:08:23.199Z</time></trkpt><trkpt lat="43.9077147" lon="12.3662474"><ele>445.25</ele><time>2026-04-04T11:08:24.199Z</time></trkpt><trkpt lat="43.9077527" lon="12.3660788"><ele>446.0</ele><time>2026-04-04T11:08:25.199Z</time></trkpt><trkpt lat="43.9077514" lon="12.3659181"><ele>447.75</ele><time>2026-04-04T11:08:26.199Z</time></trkpt><trkpt lat="43.9077144" lon="12.3657766"><ele>449.5</ele><time>2026-04-04T11:08:27.199Z</time></trkpt><trkpt lat="43.9076408" lon="12.36563"><ele>451.25</ele><time>2026-04-04T11:08:28.199Z</time></trkpt><trkpt lat="43.9075587" lon="12.3655112"><ele>453.0</ele><time>2026-04-04T11:08:29.199Z</time></trkpt><trkpt lat="43.9074565" lon="12.3653813"><ele>454.5</ele><time>2026-04-04T11:08:30.2Z</time></trkpt><trkpt lat="43.9073591" lon="12.3652616"><ele>456.0</ele><time>2026-04-04T11:08:31.199Z</time></trkpt><trkpt lat="43.9072723" lon="12.3651541"><ele>457.5</ele><time>2026-04-04T11:08:32.199Z</time></trkpt><trkpt lat="43.9071878" lon="12.3650367"><ele>459.0</ele><time>2026-04-04T11:08:33.2Z</time></trkpt><trkpt lat="43.9071352" lon="12.3649248"><ele>459.0</ele><time>2026-04-04T11:08:34.199Z</time></trkpt><trkpt lat="43.907103" lon="12.3647878"><ele>459.0</ele><time>2026-04-04T11:08:35.199Z</time></trkpt><trkpt lat="43.9071033" lon="12.364631"><ele>459.0</ele><time>2026-04-04T11:08:36.2Z</time></trkpt><trkpt lat="43.90713" lon="12.3644837"><ele>459.0</ele><time>2026-04-04T11:08:37.199Z</time></trkpt><trkpt lat="43.9071593" lon="12.3643103"><ele>460.5</ele><time>2026-04-04T11:08:38.2Z</time></trkpt><trkpt lat="43.907173" lon="12.3641447"><ele>462.0</ele><time>2026-04-04T11:08:39.2Z</time></trkpt><trkpt lat="43.9071664" lon="12.3639886"><ele>463.5</ele><time>2026-04-04T11:08:40.199Z</time></trkpt><trkpt lat="43.9071208" lon="12.3638275"><ele>465.0</ele><time>2026-04-04T11:08:41.199Z</time></trkpt><trkpt lat="43.9070442" lon="12.3637018"><ele>466.75</ele><time>2026-04-04T11:08:42.199Z</time></trkpt><trkpt lat="43.9069472" lon="12.3636157"><ele>468.5</ele><time>2026-04-04T11:08:43.2Z</time></trkpt><trkpt lat="43.9068114" lon="12.3635736"><ele>470.25</ele><time>2026-04-04T11:08:44.199Z</time></trkpt><trkpt lat="43.9066877" lon="12.3635704"><ele>472.0</ele><time>2026-04-04T11:08:45.199Z</time></trkpt><trkpt lat="43.906553" lon="12.3635871"><ele>472.20000000000005</ele><time>2026-04-04T11:08:46.199Z</time></trkpt><trkpt lat="43.9064373" lon="12.3635901"><ele>472.40000000000003</ele><time>2026-04-04T11:08:47.199Z</time></trkpt><trkpt lat="43.9063434" lon="12.3635626"><ele>472.59999999999997</ele><time>2026-04-04T11:08:48.199Z</time></trkpt><trkpt lat="43.9062538" lon="12.3634804"><ele>472.79999999999995</ele><time>2026-04-04T11:08:49.2Z</time></trkpt><trkpt lat="43.9061979" lon="12.3633694"><ele>473.0</ele><time>2026-04-04T11:08:50.2Z</time></trkpt><trkpt lat="43.9061777" lon="12.3631994"><ele>476.3333333333333</ele><time>2026-04-04T11:08:51.199Z</time></trkpt><trkpt lat="43.9061768" lon="12.362977"><ele>479.66666666666663</ele><time>2026-04-04T11:08:52.199Z</time></trkpt><trkpt lat="43.9061818" lon="12.3627734"><ele>483.0</ele><time>2026-04-04T11:08:53.199Z</time></trkpt><trkpt lat="43.9061784" lon="12.3625211"><ele>483.0</ele><time>2026-04-04T11:08:54.2Z</time></trkpt><trkpt lat="43.9061521" lon="12.3622548"><ele>483.0</ele><time>2026-04-04T11:08:55.199Z</time></trkpt><trkpt lat="43.9061069" lon="12.3620137"><ele>483.0</ele><time>2026-04-04T11:08:56.2Z</time></trkpt><trkpt lat="43.9060417" lon="12.3617408"><ele>486.33333333333337</ele><time>2026-04-04T11:08:57.199Z</time></trkpt><trkpt lat="43.9059645" lon="12.3614891"><ele>489.6666666666667</ele><time>2026-04-04T11:08:58.199Z</time></trkpt><trkpt lat="43.9058788" lon="12.3612611"><ele>493.0</ele><time>2026-04-04T11:08:59.199Z</time></trkpt><trkpt lat="43.9057695" lon="12.361013"><ele>494.33333333333337</ele><time>2026-04-04T11:09:00.2Z</time></trkpt><trkpt lat="43.9056683" lon="12.3608021"><ele>495.66666666666663</ele><time>2026-04-04T11:09:01.199Z</time></trkpt><trkpt lat="43.9055486" lon="12.3605668"><ele>497.0</ele><time>2026-04-04T11:09:02.199Z</time></trkpt><trkpt lat="43.9054382" lon="12.360354"><ele>501.0</ele><time>2026-04-04T11:09:03.199Z</time></trkpt><trkpt lat="43.9053381" lon="12.3601582"><ele>505.0</ele><time>2026-04-04T11:09:04.199Z</time></trkpt><trkpt lat="43.9052276" lon="12.3599434"><ele>509.0</ele><time>2026-04-04T11:09:05.199Z</time></trkpt><trkpt lat="43.905132" lon="12.3597597"><ele>510.0</ele><time>2026-04-04T11:09:06.199Z</time></trkpt><trkpt lat="43.9050329" lon="12.3595653"><ele>511.0</ele><time>2026-04-04T11:09:07.199Z</time></trkpt><trkpt lat="43.9049286" lon="12.3593565"><ele>512.0</ele><time>2026-04-04T11:09:08.2Z</time></trkpt><trkpt lat="43.9048357" lon="12.3591721"><ele>512.0</ele><time>2026-04-04T11:09:09.199Z</time></trkpt><trkpt lat="43.9047268" lon="12.3589675"><ele>512.0</ele><time>2026-04-04T11:09:10.199Z</time></trkpt><trkpt lat="43.904627" lon="12.3587828"><ele>512.0</ele><time>2026-04-04T11:09:11.2Z</time></trkpt><trkpt lat="43.9045227" lon="12.3586245"><ele>514.3333333333333</ele><time>2026-04-04T11:09:12.199Z</time></trkpt><trkpt lat="43.9043931" lon="12.3584666"><ele>516.6666666666666</ele><time>2026-04-04T11:09:13.199Z</time></trkpt><trkpt lat="43.9042521" lon="12.3583524"><ele>519.0</ele><time>2026-04-04T11:09:14.199Z</time></trkpt><trkpt lat="43.9041117" lon="12.3582804"><ele>519.0</ele><time>2026-04-04T11:09:15.199Z</time></trkpt><trkpt lat="43.9039422" lon="12.3582414"><ele>519.0</ele><time>2026-04-04T11:09:16.199Z</time></trkpt><trkpt lat="43.9037893" lon="12.358242"><ele>519.0</ele><time>2026-04-04T11:09:17.199Z</time></trkpt><trkpt lat="43.903617" lon="12.3582764"><ele>519.0</ele><time>2026-04-04T11:09:18.199Z</time></trkpt><trkpt lat="43.9034549" lon="12.3583339"><ele>519.0</ele><time>2026-04-04T11:09:19.199Z</time></trkpt><trkpt lat="43.9033008" lon="12.3583866"><ele>519.0</ele><time>2026-04-04T11:09:20.199Z</time></trkpt><trkpt lat="43.9031343" lon="12.3584399"><ele>520.6666666666666</ele><time>2026-04-04T11:09:21.199Z</time></trkpt><trkpt lat="43.9029928" lon="12.3584756"><ele>522.3333333333333</ele><time>2026-04-04T11:09:22.2Z</time></trkpt><trkpt lat="43.902842" lon="12.3584963"><ele>524.0</ele><time>2026-04-04T11:09:23.199Z</time></trkpt><trkpt lat="43.9026815" lon="12.3584892"><ele>526.0</ele><time>2026-04-04T11:09:24.2Z</time></trkpt><trkpt lat="43.9025393" lon="12.3584738"><ele>528.0</ele><time>2026-04-04T11:09:25.199Z</time></trkpt><trkpt lat="43.9023701" lon="12.3584589"><ele>530.0</ele><time>2026-04-04T11:09:26.199Z</time></trkpt><trkpt lat="43.9022073" lon="12.3584424"><ele>530.0</ele><time>2026-04-04T11:09:27.2Z</time></trkpt><trkpt lat="43.9020508" lon="12.3584238"><ele>530.0</ele><time>2026-04-04T11:09:28.199Z</time></trkpt><trkpt lat="43.9018785" lon="12.3584043"><ele>530.0</ele><time>2026-04-04T11:09:29.199Z</time></trkpt><trkpt lat="43.901714" lon="12.3583822"><ele>530.0</ele><time>2026-04-04T11:09:30.2Z</time></trkpt><trkpt lat="43.9015618" lon="12.3583626"><ele>530.0</ele><time>2026-04-04T11:09:31.199Z</time></trkpt><trkpt lat="43.9013923" lon="12.3583406"><ele>530.0</ele><time>2026-04-04T11:09:32.2Z</time></trkpt><trkpt lat="43.901253" lon="12.358313"><ele>530.0</ele><time>2026-04-04T11:09:33.199Z</time></trkpt><trkpt lat="43.9011166" lon="12.3582693"><ele>530.0</ele><time>2026-04-04T11:09:34.199Z</time></trkpt><trkpt lat="43.9009791" lon="12.3581923"><ele>530.0</ele><time>2026-04-04T11:09:35.2Z</time></trkpt><trkpt lat="43.9008602" lon="12.3580913"><ele>530.0</ele><time>2026-04-04T11:09:36.199Z</time></trkpt><trkpt lat="43.9007225" lon="12.3579475"><ele>535.0</ele><time>2026-04-04T11:09:37.199Z</time></trkpt><trkpt lat="43.9005967" lon="12.3578095"><ele>540.0</ele><time>2026-04-04T11:09:38.199Z</time></trkpt><trkpt lat="43.9004536" lon="12.357656"><ele>545.0</ele><time>2026-04-04T11:09:39.199Z</time></trkpt><trkpt lat="43.9003007" lon="12.3574896"><ele>545.0</ele><time>2026-04-04T11:09:40.199Z</time></trkpt><trkpt lat="43.900172" lon="12.3573455"><ele>545.0</ele><time>2026-04-04T11:09:41.199Z</time></trkpt><trkpt lat="43.9000262" lon="12.3571781"><ele>545.0</ele><time>2026-04-04T11:09:42.199Z</time></trkpt><trkpt lat="43.899889" lon="12.3570201"><ele>547.3333333333333</ele><time>2026-04-04T11:09:43.199Z</time></trkpt><trkpt lat="43.89976" lon="12.3568707"><ele>549.6666666666666</ele><time>2026-04-04T11:09:44.199Z</time></trkpt><trkpt lat="43.8996159" lon="12.3566985"><ele>552.0</ele><time>2026-04-04T11:09:45.2Z</time></trkpt><trkpt lat="43.899484" lon="12.3565292"><ele>554.6666666666666</ele><time>2026-04-04T11:09:46.2Z</time></trkpt><trkpt lat="43.8993604" lon="12.356359"><ele>557.3333333333333</ele><time>2026-04-04T11:09:47.199Z</time></trkpt><trkpt lat="43.8992277" lon="12.3561571"><ele>560.0</ele><time>2026-04-04T11:09:48.2Z</time></trkpt><trkpt lat="43.89911" lon="12.3559726"><ele>560.0</ele><time>2026-04-04T11:09:49.199Z</time></trkpt><trkpt lat="43.8989907" lon="12.3557727"><ele>560.0</ele><time>2026-04-04T11:09:50.199Z</time></trkpt><trkpt lat="43.8988661" lon="12.3555581"><ele>560.0</ele><time>2026-04-04T11:09:51.2Z</time></trkpt><trkpt lat="43.8987554" lon="12.3553689"><ele>563.6666666666666</ele><time>2026-04-04T11:09:52.2Z</time></trkpt><trkpt lat="43.8986375" lon="12.3551578"><ele>567.3333333333334</ele><time>2026-04-04T11:09:53.2Z</time></trkpt><trkpt lat="43.8985401" lon="12.3549824"><ele>571.0</ele><time>2026-04-04T11:09:54.199Z</time></trkpt><trkpt lat="43.8984418" lon="12.3548083"><ele>572.0</ele><time>2026-04-04T11:09:55.199Z</time></trkpt><trkpt lat="43.8983355" lon="12.3546365"><ele>573.0</ele><time>2026-04-04T11:09:56.199Z</time></trkpt><trkpt lat="43.8982266" lon="12.3545059"><ele>574.0</ele><time>2026-04-04T11:09:57.2Z</time></trkpt><trkpt lat="43.8980934" lon="12.354395"><ele>574.0</ele><time>2026-04-04T11:09:58.199Z</time></trkpt><trkpt lat="43.8979375" lon="12.3543162"><ele>574.0</ele><time>2026-04-04T11:09:59.2Z</time></trkpt><trkpt lat="43.8977942" lon="12.3542774"><ele>574.0</ele><time>2026-04-04T11:10:00.199Z</time></trkpt><trkpt lat="43.8976351" lon="12.3542794"><ele>574.0</ele><time>2026-04-04T11:10:01.199Z</time></trkpt><trkpt lat="43.8974923" lon="12.3543279"><ele>574.0</ele><time>2026-04-04T11:10:02.199Z</time></trkpt><trkpt lat="43.8973661" lon="12.3543986"><ele>574.0</ele><time>2026-04-04T11:10:03.199Z</time></trkpt><trkpt lat="43.8972258" lon="12.3544737"><ele>574.0</ele><time>2026-04-04T11:10:04.199Z</time></trkpt><trkpt lat="43.8970994" lon="12.354518"><ele>574.0</ele><time>2026-04-04T11:10:05.199Z</time></trkpt><trkpt lat="43.8969521" lon="12.3545214"><ele>574.0</ele><time>2026-04-04T11:10:06.199Z</time></trkpt><trkpt lat="43.8968173" lon="12.354483"><ele>574.0</ele><time>2026-04-04T11:10:07.2Z</time></trkpt><trkpt lat="43.8967074" lon="12.3544132"><ele>574.0</ele><time>2026-04-04T11:10:08.2Z</time></trkpt><trkpt lat="43.8966103" lon="12.354304"><ele>574.75</ele><time>2026-04-04T11:10:09.199Z</time></trkpt><trkpt lat="43.8965509" lon="12.3541743"><ele>575.5</ele><time>2026-04-04T11:10:10.199Z</time></trkpt><trkpt lat="43.896512" lon="12.3540016"><ele>576.25</ele><time>2026-04-04T11:10:11.199Z</time></trkpt><trkpt lat="43.8965016" lon="12.353784"><ele>577.0</ele><time>2026-04-04T11:10:12.2Z</time></trkpt><trkpt lat="43.8965155" lon="12.3535738"><ele>579.6666666666667</ele><time>2026-04-04T11:10:13.199Z</time></trkpt><trkpt lat="43.8965367" lon="12.3533435"><ele>582.3333333333334</ele><time>2026-04-04T11:10:14.199Z</time></trkpt><trkpt lat="43.8965696" lon="12.3530823"><ele>585.0</ele><time>2026-04-04T11:10:15.199Z</time></trkpt><trkpt lat="43.896594" lon="12.352858"><ele>585.0</ele><time>2026-04-04T11:10:16.2Z</time></trkpt><trkpt lat="43.8966211" lon="12.3526094"><ele>585.0</ele><time>2026-04-04T11:10:17.199Z</time></trkpt><trkpt lat="43.8966418" lon="12.3523942"><ele>585.0</ele><time>2026-04-04T11:10:18.199Z</time></trkpt><trkpt lat="43.8966608" lon="12.3522068"><ele>584.75</ele><time>2026-04-04T11:10:19.199Z</time></trkpt><trkpt lat="43.8966835" lon="12.3520009"><ele>584.5</ele><time>2026-04-04T11:10:20.199Z</time></trkpt><trkpt lat="43.8966925" lon="12.3518175"><ele>584.25</ele><time>2026-04-04T11:10:21.2Z</time></trkpt><trkpt lat="43.8966853" lon="12.3516191"><ele>584.0</ele><time>2026-04-04T11:10:22.199Z</time></trkpt><trkpt lat="43.8966464" lon="12.3514074"><ele>581.6666666666666</ele><time>2026-04-04T11:10:23.199Z</time></trkpt><trkpt lat="43.8965885" lon="12.3512184"><ele>579.3333333333334</ele><time>2026-04-04T11:10:24.199Z</time></trkpt><trkpt lat="43.8965029" lon="12.3509976"><ele>577.0</ele><time>2026-04-04T11:10:25.2Z</time></trkpt><trkpt lat="43.8964216" lon="12.350811"><ele>577.0</ele><time>2026-04-04T11:10:26.2Z</time></trkpt><trkpt lat="43.8963401" lon="12.3506226"><ele>577.0</ele><time>2026-04-04T11:10:27.199Z</time></trkpt><trkpt lat="43.8962614" lon="12.3504282"><ele>577.0</ele><time>2026-04-04T11:10:28.199Z</time></trkpt><trkpt lat="43.8962024" lon="12.3502633"><ele>576.5</ele><time>2026-04-04T11:10:29.199Z</time></trkpt><trkpt lat="43.8961539" lon="12.3500757"><ele>576.0</ele><time>2026-04-04T11:10:30.199Z</time></trkpt><trkpt lat="43.896142" lon="12.3498924"><ele>575.5</ele><time>2026-04-04T11:10:31.2Z</time></trkpt><trkpt lat="43.8961657" lon="12.349717"><ele>575.0</ele><time>2026-04-04T11:10:32.2Z</time></trkpt><trkpt lat="43.8962237" lon="12.3495247"><ele>575.0</ele><time>2026-04-04T11:10:33.199Z</time></trkpt><trkpt lat="43.8962947" lon="12.349351"><ele>575.0</ele><time>2026-04-04T11:10:34.2Z</time></trkpt><trkpt lat="43.8963673" lon="12.3491907"><ele>575.0</ele><time>2026-04-04T11:10:35.199Z</time></trkpt><trkpt lat="43.8964411" lon="12.3490141"><ele>575.0</ele><time>2026-04-04T11:10:36.199Z</time></trkpt><trkpt lat="43.8964992" lon="12.3488693"><ele>574.6</ele><time>2026-04-04T11:10:37.199Z</time></trkpt><trkpt lat="43.8965499" lon="12.3487282"><ele>574.2</ele><time>2026-04-04T11:10:38.199Z</time></trkpt><trkpt lat="43.8965778" lon="12.3485895"><ele>573.8</ele><time>2026-04-04T11:10:39.199Z</time></trkpt><trkpt lat="43.896578" lon="12.3484754"><ele>573.4</ele><time>2026-04-04T11:10:40.2Z</time></trkpt><trkpt lat="43.8965477" lon="12.3483589"><ele>573.0</ele><time>2026-04-04T11:10:41.2Z</time></trkpt><trkpt lat="43.8964923" lon="12.3482623"><ele>573.0</ele><time>2026-04-04T11:10:42.199Z</time></trkpt><trkpt lat="43.8964233" lon="12.3481658"><ele>573.0</ele><time>2026-04-04T11:10:43.2Z</time></trkpt><trkpt lat="43.8963453" lon="12.3480666"><ele>573.0</ele><time>2026-04-04T11:10:44.199Z</time></trkpt><trkpt lat="43.896274" lon="12.3479813"><ele>573.0</ele><time>2026-04-04T11:10:45.2Z</time></trkpt><trkpt lat="43.8961902" lon="12.3479053"><ele>573.0</ele><time>2026-04-04T11:10:46.2Z</time></trkpt><trkpt lat="43.896084" lon="12.3478576"><ele>572.5</ele><time>2026-04-04T11:10:47.2Z</time></trkpt><trkpt lat="43.8959766" lon="12.3478432"><ele>572.0</ele><time>2026-04-04T11:10:48.199Z</time></trkpt><trkpt lat="43.8958452" lon="12.3478413"><ele>571.5</ele><time>2026-04-04T11:10:49.2Z</time></trkpt><trkpt lat="43.8957178" lon="12.3478268"><ele>571.0</ele><time>2026-04-04T11:10:50.199Z</time></trkpt><trkpt lat="43.8955984" lon="12.3477915"><ele>572.25</ele><time>2026-04-04T11:10:51.2Z</time></trkpt><trkpt lat="43.8954699" lon="12.3477265"><ele>573.5</ele><time>2026-04-04T11:10:52.199Z</time></trkpt><trkpt lat="43.8953556" lon="12.3476562"><ele>574.75</ele><time>2026-04-04T11:10:53.199Z</time></trkpt><trkpt lat="43.8952332" lon="12.3475871"><ele>576.0</ele><time>2026-04-04T11:10:54.199Z</time></trkpt><trkpt lat="43.8951201" lon="12.3475383"><ele>575.4</ele><time>2026-04-04T11:10:55.199Z</time></trkpt><trkpt lat="43.895013" lon="12.3475198"><ele>574.8</ele><time>2026-04-04T11:10:56.199Z</time></trkpt><trkpt lat="43.8949042" lon="12.3475477"><ele>574.1999999999999</ele><time>2026-04-04T11:10:57.199Z</time></trkpt><trkpt lat="43.8948189" lon="12.3476125"><ele>573.6</ele><time>2026-04-04T11:10:58.199Z</time></trkpt><trkpt lat="43.8947466" lon="12.3477277"><ele>573.0</ele><time>2026-04-04T11:10:59.199Z</time></trkpt><trkpt lat="43.8946966" lon="12.3478968"><ele>578.0</ele><time>2026-04-04T11:11:00.199Z</time></trkpt><trkpt lat="43.8946795" lon="12.348063"><ele>583.0</ele><time>2026-04-04T11:11:01.199Z</time></trkpt><trkpt lat="43.894671" lon="12.3482569"><ele>588.0</ele><time>2026-04-04T11:11:02.199Z</time></trkpt><trkpt lat="43.8946634" lon="12.3484657"><ele>593.0</ele><time>2026-04-04T11:11:03.199Z</time></trkpt><trkpt lat="43.8946598" lon="12.3486464"><ele>593.0</ele><time>2026-04-04T11:11:04.2Z</time></trkpt><trkpt lat="43.8946766" lon="12.3488454"><ele>593.0</ele><time>2026-04-04T11:11:05.199Z</time></trkpt><trkpt lat="43.8947199" lon="12.3490202"><ele>593.0</ele><time>2026-04-04T11:11:06.199Z</time></trkpt><trkpt lat="43.8947758" lon="12.3491739"><ele>593.0</ele><time>2026-04-04T11:11:07.199Z</time></trkpt><trkpt lat="43.8948399" lon="12.3493459"><ele>592.5</ele><time>2026-04-04T11:11:08.199Z</time></trkpt><trkpt lat="43.8948848" lon="12.3495037"><ele>592.0</ele><time>2026-04-04T11:11:09.199Z</time></trkpt><trkpt lat="43.8949099" lon="12.3496839"><ele>591.5</ele><time>2026-04-04T11:11:10.2Z</time></trkpt><trkpt lat="43.8949064" lon="12.3498909"><ele>591.0</ele><time>2026-04-04T11:11:11.199Z</time></trkpt><trkpt lat="43.8948732" lon="12.3500818"><ele>591.0</ele><time>2026-04-04T11:11:12.199Z</time></trkpt><trkpt lat="43.8948213" lon="12.3503006"><ele>591.0</ele><time>2026-04-04T11:11:13.199Z</time></trkpt><trkpt lat="43.8947657" lon="12.350486"><ele>591.0</ele><time>2026-04-04T11:11:14.2Z</time></trkpt><trkpt lat="43.8946989" lon="12.350675"><ele>590.3333333333334</ele><time>2026-04-04T11:11:15.199Z</time></trkpt><trkpt lat="43.8946079" lon="12.3508476"><ele>589.6666666666667</ele><time>2026-04-04T11:11:16.199Z</time></trkpt><trkpt lat="43.894508" lon="12.3509746"><ele>589.0</ele><time>2026-04-04T11:11:17.2Z</time></trkpt><trkpt lat="43.8943706" lon="12.3510943"><ele>587.0</ele><time>2026-04-04T11:11:18.199Z</time></trkpt><trkpt lat="43.8942228" lon="12.3511904"><ele>585.0</ele><time>2026-04-04T11:11:19.2Z</time></trkpt><trkpt lat="43.8940705" lon="12.3512749"><ele>583.0</ele><time>2026-04-04T11:11:20.199Z</time></trkpt><trkpt lat="43.8938979" lon="12.3513578"><ele>582.0</ele><time>2026-04-04T11:11:21.199Z</time></trkpt><trkpt lat="43.8937343" lon="12.3514329"><ele>581.0</ele><time>2026-04-04T11:11:22.2Z</time></trkpt><trkpt lat="43.8935791" lon="12.3515054"><ele>580.0</ele><time>2026-04-04T11:11:23.199Z</time></trkpt><trkpt lat="43.8934017" lon="12.3515898"><ele>582.6666666666667</ele><time>2026-04-04T11:11:24.199Z</time></trkpt><trkpt lat="43.8932448" lon="12.3516612"><ele>585.3333333333334</ele><time>2026-04-04T11:11:25.199Z</time></trkpt><trkpt lat="43.8930741" lon="12.3517313"><ele>588.0</ele><time>2026-04-04T11:11:26.2Z</time></trkpt><trkpt lat="43.8928886" lon="12.3517862"><ele>588.0</ele><time>2026-04-04T11:11:27.199Z</time></trkpt><trkpt lat="43.892721" lon="12.3518187"><ele>588.0</ele><time>2026-04-04T11:11:28.199Z</time></trkpt><trkpt lat="43.8925347" lon="12.3518435"><ele>588.0</ele><time>2026-04-04T11:11:29.2Z</time></trkpt><trkpt lat="43.8923708" lon="12.3518578"><ele>587.6666666666666</ele><time>2026-04-04T11:11:30.199Z</time></trkpt><trkpt lat="43.8921964" lon="12.3518728"><ele>587.3333333333333</ele><time>2026-04-04T11:11:31.199Z</time></trkpt><trkpt lat="43.8920086" lon="12.3518959"><ele>587.0</ele><time>2026-04-04T11:11:32.199Z</time></trkpt><trkpt lat="43.8918412" lon="12.351917"><ele>588.3333333333333</ele><time>2026-04-04T11:11:33.2Z</time></trkpt><trkpt lat="43.8916631" lon="12.3519385"><ele>589.6666666666666</ele><time>2026-04-04T11:11:34.199Z</time></trkpt><trkpt lat="43.8914713" lon="12.3519614"><ele>591.0</ele><time>2026-04-04T11:11:35.199Z</time></trkpt><trkpt lat="43.8913015" lon="12.3519837"><ele>591.0</ele><time>2026-04-04T11:11:36.199Z</time></trkpt><trkpt lat="43.8911066" lon="12.3520094"><ele>591.0</ele><time>2026-04-04T11:11:37.199Z</time></trkpt><trkpt lat="43.8909231" lon="12.3520309"><ele>591.0</ele><time>2026-04-04T11:11:38.199Z</time></trkpt><trkpt lat="43.8907511" lon="12.3520504"><ele>592.0</ele><time>2026-04-04T11:11:39.199Z</time></trkpt><trkpt lat="43.8905585" lon="12.3520708"><ele>593.0</ele><time>2026-04-04T11:11:40.199Z</time></trkpt><trkpt lat="43.8903906" lon="12.3520868"><ele>594.0</ele><time>2026-04-04T11:11:41.199Z</time></trkpt><trkpt lat="43.8902104" lon="12.3521054"><ele>593.3333333333334</ele><time>2026-04-04T11:11:42.199Z</time></trkpt><trkpt lat="43.8900183" lon="12.3521249"><ele>592.6666666666667</ele><time>2026-04-04T11:11:43.199Z</time></trkpt><trkpt lat="43.8898491" lon="12.3521395"><ele>592.0</ele><time>2026-04-04T11:11:44.199Z</time></trkpt><trkpt lat="43.8896579" lon="12.352157"><ele>592.0</ele><time>2026-04-04T11:11:45.199Z</time></trkpt><trkpt lat="43.8894908" lon="12.3521746"><ele>592.0</ele><time>2026-04-04T11:11:46.199Z</time></trkpt><trkpt lat="43.8893135" lon="12.352204"><ele>592.0</ele><time>2026-04-04T11:11:47.2Z</time></trkpt><trkpt lat="43.8891273" lon="12.3522577"><ele>595.6666666666667</ele><time>2026-04-04T11:11:48.199Z</time></trkpt><trkpt lat="43.8889697" lon="12.3523333"><ele>599.3333333333334</ele><time>2026-04-04T11:11:49.199Z</time></trkpt><trkpt lat="43.8888141" lon="12.3524354"><ele>603.0</ele><time>2026-04-04T11:11:50.2Z</time></trkpt><trkpt lat="43.8886599" lon="12.3525574"><ele>603.0</ele><time>2026-04-04T11:11:51.199Z</time></trkpt><trkpt lat="43.8885316" lon="12.352669"><ele>603.0</ele><time>2026-04-04T11:11:52.199Z</time></trkpt><trkpt lat="43.8883903" lon="12.3527881"><ele>603.0</ele><time>2026-04-04T11:11:53.2Z</time></trkpt><trkpt lat="43.8882601" lon="12.352884"><ele>606.25</ele><time>2026-04-04T11:11:54.199Z</time></trkpt><trkpt lat="43.8881375" lon="12.3529574"><ele>609.5</ele><time>2026-04-04T11:11:55.199Z</time></trkpt><trkpt lat="43.887991" lon="12.353011"><ele>612.75</ele><time>2026-04-04T11:11:56.199Z</time></trkpt><trkpt lat="43.8878578" lon="12.3530376"><ele>616.0</ele><time>2026-04-04T11:11:57.199Z</time></trkpt><trkpt lat="43.8877146" lon="12.3530282"><ele>620.3333333333334</ele><time>2026-04-04T11:11:58.2Z</time></trkpt><trkpt lat="43.8875654" lon="12.352975"><ele>624.6666666666666</ele><time>2026-04-04T11:11:59.199Z</time></trkpt><trkpt lat="43.8874338" lon="12.3529036"><ele>629.0</ele><time>2026-04-04T11:12:00.199Z</time></trkpt><trkpt lat="43.8872868" lon="12.3527965"><ele>629.0</ele><time>2026-04-04T11:12:01.199Z</time></trkpt><trkpt lat="43.8871543" lon="12.3526853"><ele>629.0</ele><time>2026-04-04T11:12:02.199Z</time></trkpt><trkpt lat="43.8870068" lon="12.3525627"><ele>629.0</ele><time>2026-04-04T11:12:03.199Z</time></trkpt><trkpt lat="43.8868428" lon="12.3524341"><ele>630.0</ele><time>2026-04-04T11:12:04.199Z</time></trkpt><trkpt lat="43.8867003" lon="12.3523193"><ele>631.0</ele><time>2026-04-04T11:12:05.199Z</time></trkpt><trkpt lat="43.8865455" lon="12.3521929"><ele>632.0</ele><time>2026-04-04T11:12:06.2Z</time></trkpt><trkpt lat="43.8863862" lon="12.3520648"><ele>632.0</ele><time>2026-04-04T11:12:07.199Z</time></trkpt><trkpt lat="43.8862543" lon="12.3519561"><ele>632.0</ele><time>2026-04-04T11:12:08.2Z</time></trkpt><trkpt lat="43.8861104" lon="12.3518384"><ele>632.0</ele><time>2026-04-04T11:12:09.199Z</time></trkpt><trkpt lat="43.8859704" lon="12.351747"><ele>636.0</ele><time>2026-04-04T11:12:10.199Z</time></trkpt><trkpt lat="43.8858343" lon="12.3516856"><ele>640.0</ele><time>2026-04-04T11:12:11.2Z</time></trkpt><trkpt lat="43.8856688" lon="12.3516515"><ele>644.0</ele><time>2026-04-04T11:12:12.199Z</time></trkpt><trkpt lat="43.8855181" lon="12.3516486"><ele>644.0</ele><time>2026-04-04T11:12:13.199Z</time></trkpt><trkpt lat="43.8853538" lon="12.3516762"><ele>644.0</ele><time>2026-04-04T11:12:14.199Z</time></trkpt><trkpt lat="43.8851759" lon="12.3517319"><ele>644.0</ele><time>2026-04-04T11:12:15.199Z</time></trkpt><trkpt lat="43.8850172" lon="12.351792"><ele>647.0</ele><time>2026-04-04T11:12:16.199Z</time></trkpt><trkpt lat="43.8848409" lon="12.3518634"><ele>650.0</ele><time>2026-04-04T11:12:17.199Z</time></trkpt><trkpt lat="43.8846903" lon="12.3519277"><ele>653.0</ele><time>2026-04-04T11:12:18.199Z</time></trkpt><trkpt lat="43.8845375" lon="12.3520053"><ele>653.0</ele><time>2026-04-04T11:12:19.199Z</time></trkpt><trkpt lat="43.8843872" lon="12.3521076"><ele>653.0</ele><time>2026-04-04T11:12:20.2Z</time></trkpt><trkpt lat="43.8842743" lon="12.3522257"><ele>653.0</ele><time>2026-04-04T11:12:21.199Z</time></trkpt><trkpt lat="43.8841773" lon="12.3523801"><ele>656.0</ele><time>2026-04-04T11:12:22.199Z</time></trkpt><trkpt lat="43.884099" lon="12.3525703"><ele>659.0</ele><time>2026-04-04T11:12:23.199Z</time></trkpt><trkpt lat="43.8840506" lon="12.3527506"><ele>662.0</ele><time>2026-04-04T11:12:24.199Z</time></trkpt><trkpt lat="43.884015" lon="12.3529649"><ele>662.5</ele><time>2026-04-04T11:12:25.199Z</time></trkpt><trkpt lat="43.884008" lon="12.3531688"><ele>663.0</ele><time>2026-04-04T11:12:26.199Z</time></trkpt><trkpt lat="43.8840177" lon="12.3533581"><ele>663.5</ele><time>2026-04-04T11:12:27.199Z</time></trkpt><trkpt lat="43.8840384" lon="12.3535604"><ele>664.0</ele><time>2026-04-04T11:12:28.2Z</time></trkpt><trkpt lat="43.8840564" lon="12.3537233"><ele>664.4000000000001</ele><time>2026-04-04T11:12:29.199Z</time></trkpt><trkpt lat="43.8840634" lon="12.353879"><ele>664.8</ele><time>2026-04-04T11:12:30.2Z</time></trkpt><trkpt lat="43.8840431" lon="12.3540261"><ele>665.2</ele><time>2026-04-04T11:12:31.199Z</time></trkpt><trkpt lat="43.8839942" lon="12.354145"><ele>665.5999999999999</ele><time>2026-04-04T11:12:32.199Z</time></trkpt><trkpt lat="43.8839047" lon="12.3542762"><ele>666.0</ele><time>2026-04-04T11:12:33.2Z</time></trkpt><trkpt lat="43.8838076" lon="12.354379"><ele>666.0</ele><time>2026-04-04T11:12:34.199Z</time></trkpt><trkpt lat="43.8836963" lon="12.3544959"><ele>666.0</ele><time>2026-04-04T11:12:35.199Z</time></trkpt><trkpt lat="43.883575" lon="12.3546168"><ele>666.0</ele><time>2026-04-04T11:12:36.199Z</time></trkpt><trkpt lat="43.8834756" lon="12.3547292"><ele>666.0</ele><time>2026-04-04T11:12:37.2Z</time></trkpt><trkpt lat="43.8833902" lon="12.3548726"><ele>670.0</ele><time>2026-04-04T11:12:38.199Z</time></trkpt><trkpt lat="43.8833304" lon="12.3550495"><ele>674.0</ele><time>2026-04-04T11:12:39.199Z</time></trkpt><trkpt lat="43.8833063" lon="12.3552172"><ele>678.0</ele><time>2026-04-04T11:12:40.199Z</time></trkpt><trkpt lat="43.8832945" lon="12.3554066"><ele>682.0</ele><time>2026-04-04T11:12:41.199Z</time></trkpt><trkpt lat="43.8832862" lon="12.3555868"><ele>682.0</ele><time>2026-04-04T11:12:42.199Z</time></trkpt><trkpt lat="43.8832641" lon="12.3557394"><ele>682.0</ele><time>2026-04-04T11:12:43.2Z</time></trkpt><trkpt lat="43.8832078" lon="12.3559004"><ele>682.0</ele><time>2026-04-04T11:12:44.199Z</time></trkpt><trkpt lat="43.8831357" lon="12.3560301"><ele>682.0</ele><time>2026-04-04T11:12:45.199Z</time></trkpt><trkpt lat="43.8830411" lon="12.3561602"><ele>682.0</ele><time>2026-04-04T11:12:46.199Z</time></trkpt><trkpt lat="43.8829316" lon="12.3562965"><ele>682.0</ele><time>2026-04-04T11:12:47.199Z</time></trkpt><trkpt lat="43.882836" lon="12.3564144"><ele>682.0</ele><time>2026-04-04T11:12:48.2Z</time></trkpt><trkpt lat="43.8827288" lon="12.3565387"><ele>682.0</ele><time>2026-04-04T11:12:49.199Z</time></trkpt><trkpt lat="43.8826322" lon="12.3566321"><ele>684.75</ele><time>2026-04-04T11:12:50.2Z</time></trkpt><trkpt lat="43.8825163" lon="12.3567057"><ele>687.5</ele><time>2026-04-04T11:12:51.199Z</time></trkpt><trkpt lat="43.8823792" lon="12.3567546"><ele>690.25</ele><time>2026-04-04T11:12:52.199Z</time></trkpt><trkpt lat="43.8822499" lon="12.3567833"><ele>693.0</ele><time>2026-04-04T11:12:53.2Z</time></trkpt><trkpt lat="43.8821053" lon="12.356808"><ele>693.0</ele><time>2026-04-04T11:12:54.2Z</time></trkpt><trkpt lat="43.8819538" lon="12.356827"><ele>693.0</ele><time>2026-04-04T11:12:55.199Z</time></trkpt><trkpt lat="43.8818255" lon="12.3568483"><ele>693.0</ele><time>2026-04-04T11:12:56.199Z</time></trkpt><trkpt lat="43.8816807" lon="12.3568624"><ele>693.0</ele><time>2026-04-04T11:12:57.199Z</time></trkpt><trkpt lat="43.8815487" lon="12.3568562"><ele>695.5</ele><time>2026-04-04T11:12:58.199Z</time></trkpt><trkpt lat="43.8814271" lon="12.3568244"><ele>698.0</ele><time>2026-04-04T11:12:59.199Z</time></trkpt><trkpt lat="43.8812895" lon="12.356754"><ele>700.5</ele><time>2026-04-04T11:13:00.199Z</time></trkpt><trkpt lat="43.8811712" lon="12.3566761"><ele>703.0</ele><time>2026-04-04T11:13:01.199Z</time></trkpt><trkpt lat="43.8810401" lon="12.3565839"><ele>703.0</ele><time>2026-04-04T11:13:02.199Z</time></trkpt><trkpt lat="43.8808947" lon="12.3564942"><ele>703.0</ele><time>2026-04-04T11:13:03.199Z</time></trkpt><trkpt lat="43.8807589" lon="12.3564371"><ele>703.0</ele><time>2026-04-04T11:13:04.199Z</time></trkpt><trkpt lat="43.8805956" lon="12.3564045"><ele>703.0</ele><time>2026-04-04T11:13:05.199Z</time></trkpt><trkpt lat="43.8804523" lon="12.3563954"><ele>703.0</ele><time>2026-04-04T11:13:06.199Z</time></trkpt><trkpt lat="43.8802993" lon="12.3563875"><ele>703.0</ele><time>2026-04-04T11:13:07.2Z</time></trkpt><trkpt lat="43.8801503" lon="12.3563536"><ele>703.0</ele><time>2026-04-04T11:13:08.199Z</time></trkpt><trkpt lat="43.8800245" lon="12.356292"><ele>707.5</ele><time>2026-04-04T11:13:09.199Z</time></trkpt><trkpt lat="43.8799076" lon="12.3561931"><ele>712.0</ele><time>2026-04-04T11:13:10.2Z</time></trkpt><trkpt lat="43.8797884" lon="12.3560489"><ele>716.5</ele><time>2026-04-04T11:13:11.2Z</time></trkpt><trkpt lat="43.8796917" lon="12.3559161"><ele>721.0</ele><time>2026-04-04T11:13:12.199Z</time></trkpt><trkpt lat="43.8795777" lon="12.3557712"><ele>721.0</ele><time>2026-04-04T11:13:13.199Z</time></trkpt><trkpt lat="43.8794664" lon="12.3556508"><ele>721.0</ele><time>2026-04-04T11:13:14.199Z</time></trkpt><trkpt lat="43.8793506" lon="12.3555694"><ele>721.0</ele><time>2026-04-04T11:13:15.199Z</time></trkpt><trkpt lat="43.8792063" lon="12.3555197"><ele>721.0</ele><time>2026-04-04T11:13:16.199Z</time></trkpt><trkpt lat="43.879072" lon="12.3555105"><ele>722.3333333333334</ele><time>2026-04-04T11:13:17.2Z</time></trkpt><trkpt lat="43.8789225" lon="12.355532"><ele>723.6666666666666</ele><time>2026-04-04T11:13:18.199Z</time></trkpt><trkpt lat="43.8787546" lon="12.3555791"><ele>725.0</ele><time>2026-04-04T11:13:19.199Z</time></trkpt><trkpt lat="43.8786104" lon="12.3556306"><ele>724.6666666666666</ele><time>2026-04-04T11:13:20.2Z</time></trkpt><trkpt lat="43.8784469" lon="12.3557045"><ele>724.3333333333334</ele><time>2026-04-04T11:13:21.199Z</time></trkpt><trkpt lat="43.8783063" lon="12.3557891"><ele>724.0</ele><time>2026-04-04T11:13:22.2Z</time></trkpt><trkpt lat="43.8781598" lon="12.355901"><ele>724.0</ele><time>2026-04-04T11:13:23.199Z</time></trkpt><trkpt lat="43.8780033" lon="12.3560374"><ele>724.0</ele><time>2026-04-04T11:13:24.199Z</time></trkpt><trkpt lat="43.8778679" lon="12.356166"><ele>724.0</ele><time>2026-04-04T11:13:25.199Z</time></trkpt><trkpt lat="43.8777205" lon="12.3563069"><ele>726.3333333333334</ele><time>2026-04-04T11:13:26.2Z</time></trkpt><trkpt lat="43.8775616" lon="12.3564589"><ele>728.6666666666666</ele><time>2026-04-04T11:13:27.199Z</time></trkpt><trkpt lat="43.8774233" lon="12.3565946"><ele>731.0</ele><time>2026-04-04T11:13:28.199Z</time></trkpt><trkpt lat="43.877267" lon="12.3567459"><ele>731.0</ele><time>2026-04-04T11:13:29.2Z</time></trkpt><trkpt lat="43.8771231" lon="12.356882"><ele>731.0</ele><time>2026-04-04T11:13:30.199Z</time></trkpt><trkpt lat="43.8769955" lon="12.3570124"><ele>731.0</ele><time>2026-04-04T11:13:31.199Z</time></trkpt><trkpt lat="43.8768654" lon="12.3571763"><ele>729.6666666666666</ele><time>2026-04-04T11:13:32.2Z</time></trkpt><trkpt lat="43.8767757" lon="12.3573461"><ele>728.3333333333334</ele><time>2026-04-04T11:13:33.199Z</time></trkpt><trkpt lat="43.8767057" lon="12.357552"><ele>727.0</ele><time>2026-04-04T11:13:34.2Z</time></trkpt><trkpt lat="43.8766556" lon="12.3577935"><ele>731.3333333333334</ele><time>2026-04-04T11:13:35.199Z</time></trkpt><trkpt lat="43.8766327" lon="12.3580203"><ele>735.6666666666666</ele><time>2026-04-04T11:13:36.199Z</time></trkpt><trkpt lat="43.876624" lon="12.3582878"><ele>740.0</ele><time>2026-04-04T11:13:37.2Z</time></trkpt><trkpt lat="43.8766258" lon="12.3585285"><ele>741.6666666666666</ele><time>2026-04-04T11:13:38.199Z</time></trkpt><trkpt lat="43.8766277" lon="12.3587797"><ele>743.3333333333334</ele><time>2026-04-04T11:13:39.2Z</time></trkpt><trkpt lat="43.8766289" lon="12.3590367"><ele>745.0</ele><time>2026-04-04T11:13:40.2Z</time></trkpt><trkpt lat="43.8766234" lon="12.3592483"><ele>746.25</ele><time>2026-04-04T11:13:41.199Z</time></trkpt><trkpt lat="43.8766124" lon="12.3594539"><ele>747.5</ele><time>2026-04-04T11:13:42.2Z</time></trkpt><trkpt lat="43.8765753" lon="12.3596524"><ele>748.75</ele><time>2026-04-04T11:13:43.199Z</time></trkpt><trkpt lat="43.8765101" lon="12.3598105"><ele>750.0</ele><time>2026-04-04T11:13:44.199Z</time></trkpt><trkpt lat="43.876391" lon="12.3599605"><ele>752.6666666666666</ele><time>2026-04-04T11:13:45.199Z</time></trkpt><trkpt lat="43.8762549" lon="12.3600662"><ele>755.3333333333333</ele><time>2026-04-04T11:13:46.2Z</time></trkpt><trkpt lat="43.8761093" lon="12.3601416"><ele>758.0</ele><time>2026-04-04T11:13:47.2Z</time></trkpt><trkpt lat="43.8759333" lon="12.3602098"><ele>759.3333333333333</ele><time>2026-04-04T11:13:48.199Z</time></trkpt><trkpt lat="43.8757769" lon="12.3602689"><ele>760.6666666666666</ele><time>2026-04-04T11:13:49.2Z</time></trkpt><trkpt lat="43.8756075" lon="12.3603319"><ele>762.0</ele><time>2026-04-04T11:13:50.199Z</time></trkpt><trkpt lat="43.8754354" lon="12.3603944"><ele>762.0</ele><time>2026-04-04T11:13:51.2Z</time></trkpt><trkpt lat="43.8752881" lon="12.3604419"><ele>762.0</ele><time>2026-04-04T11:13:52.2Z</time></trkpt><trkpt lat="43.8751373" lon="12.3604649"><ele>762.0</ele><time>2026-04-04T11:13:53.199Z</time></trkpt><trkpt lat="43.8750013" lon="12.3604572"><ele>762.0</ele><time>2026-04-04T11:13:54.199Z</time></trkpt><trkpt lat="43.8748558" lon="12.3604072"><ele>767.3333333333333</ele><time>2026-04-04T11:13:55.199Z</time></trkpt><trkpt lat="43.8746975" lon="12.3603208"><ele>772.6666666666666</ele><time>2026-04-04T11:13:56.199Z</time></trkpt><trkpt lat="43.8745637" lon="12.3602314"><ele>778.0</ele><time>2026-04-04T11:13:57.199Z</time></trkpt><trkpt lat="43.8744169" lon="12.3601321"><ele>778.0</ele><time>2026-04-04T11:13:58.199Z</time></trkpt><trkpt lat="43.8742625" lon="12.3600267"><ele>778.0</ele><time>2026-04-04T11:13:59.199Z</time></trkpt><trkpt lat="43.8741432" lon="12.3599262"><ele>778.0</ele><time>2026-04-04T11:14:00.199Z</time></trkpt><trkpt lat="43.8740219" lon="12.359805"><ele>780.0</ele><time>2026-04-04T11:14:01.2Z</time></trkpt><trkpt lat="43.8739367" lon="12.3596733"><ele>782.0</ele><time>2026-04-04T11:14:02.2Z</time></trkpt><trkpt lat="43.8738755" lon="12.359532"><ele>784.0</ele><time>2026-04-04T11:14:03.199Z</time></trkpt><trkpt lat="43.8738213" lon="12.3593596"><ele>786.0</ele><time>2026-04-04T11:14:04.199Z</time></trkpt><trkpt lat="43.8737984" lon="12.3591887"><ele>786.0</ele><time>2026-04-04T11:14:05.199Z</time></trkpt><trkpt lat="43.8737802" lon="12.3589883"><ele>786.0</ele><time>2026-04-04T11:14:06.2Z</time></trkpt><trkpt lat="43.8737628" lon="12.3587854"><ele>786.0</ele><time>2026-04-04T11:14:07.199Z</time></trkpt><trkpt lat="43.8737478" lon="12.3585802"><ele>786.0</ele><time>2026-04-04T11:14:08.2Z</time></trkpt><trkpt lat="43.8737061" lon="12.3583659"><ele>786.25</ele><time>2026-04-04T11:14:09.199Z</time></trkpt><trkpt lat="43.8736623" lon="12.3581947"><ele>786.5</ele><time>2026-04-04T11:14:10.199Z</time></trkpt><trkpt lat="43.8736169" lon="12.3580313"><ele>786.75</ele><time>2026-04-04T11:14:11.199Z</time></trkpt><trkpt lat="43.8735858" lon="12.3578845"><ele>787.0</ele><time>2026-04-04T11:14:12.2Z</time></trkpt><trkpt lat="43.873567" lon="12.357762"><ele>786.3333333333333</ele><time>2026-04-04T11:14:13.199Z</time></trkpt><trkpt lat="43.8735471" lon="12.3576582"><ele>785.6666666666666</ele><time>2026-04-04T11:14:14.199Z</time></trkpt><trkpt lat="43.8735208" lon="12.3575756"><ele>785.0</ele><time>2026-04-04T11:14:15.2Z</time></trkpt><trkpt lat="43.8734394" lon="12.3574908"><ele>784.3333333333333</ele><time>2026-04-04T11:14:17.199Z</time></trkpt><trkpt lat="43.873361" lon="12.3574668"><ele>783.6666666666666</ele><time>2026-04-04T11:14:18.2Z</time></trkpt><trkpt lat="43.8732807" lon="12.3574526"><ele>783.0</ele><time>2026-04-04T11:14:19.2Z</time></trkpt><trkpt lat="43.8731764" lon="12.3574302"><ele>785.0</ele><time>2026-04-04T11:14:20.199Z</time></trkpt><trkpt lat="43.8730671" lon="12.3573874"><ele>787.0</ele><time>2026-04-04T11:14:21.2Z</time></trkpt><trkpt lat="43.872946" lon="12.3573303"><ele>789.0</ele><time>2026-04-04T11:14:22.2Z</time></trkpt><trkpt lat="43.872818" lon="12.3572586"><ele>791.0</ele><time>2026-04-04T11:14:23.199Z</time></trkpt><trkpt lat="43.8727043" lon="12.3571923"><ele>790.75</ele><time>2026-04-04T11:14:24.199Z</time></trkpt><trkpt lat="43.8725754" lon="12.3571172"><ele>790.5</ele><time>2026-04-04T11:14:25.199Z</time></trkpt><trkpt lat="43.8724591" lon="12.3570452"><ele>790.25</ele><time>2026-04-04T11:14:26.199Z</time></trkpt><trkpt lat="43.8723361" lon="12.356972"><ele>790.0</ele><time>2026-04-04T11:14:27.2Z</time></trkpt><trkpt lat="43.8722055" lon="12.3569009"><ele>790.0</ele><time>2026-04-04T11:14:28.199Z</time></trkpt><trkpt lat="43.8720892" lon="12.3568553"><ele>790.0</ele><time>2026-04-04T11:14:29.199Z</time></trkpt><trkpt lat="43.8719607" lon="12.3568315"><ele>790.0</ele><time>2026-04-04T11:14:30.199Z</time></trkpt><trkpt lat="43.8718183" lon="12.3568414"><ele>790.0</ele><time>2026-04-04T11:14:31.2Z</time></trkpt><trkpt lat="43.8716884" lon="12.3568708"><ele>791.5</ele><time>2026-04-04T11:14:32.199Z</time></trkpt><trkpt lat="43.8715489" lon="12.3569188"><ele>793.0</ele><time>2026-04-04T11:14:33.199Z</time></trkpt><trkpt lat="43.871415" lon="12.356979"><ele>794.5</ele><time>2026-04-04T11:14:34.199Z</time></trkpt><trkpt lat="43.8713029" lon="12.3570447"><ele>796.0</ele><time>2026-04-04T11:14:35.2Z</time></trkpt><trkpt lat="43.8711917" lon="12.3571277"><ele>795.25</ele><time>2026-04-04T11:14:36.199Z</time></trkpt><trkpt lat="43.871111" lon="12.3572189"><ele>794.5</ele><time>2026-04-04T11:14:37.199Z</time></trkpt><trkpt lat="43.8710311" lon="12.357348"><ele>793.75</ele><time>2026-04-04T11:14:38.199Z</time></trkpt><trkpt lat="43.8709553" lon="12.3575087"><ele>793.0</ele><time>2026-04-04T11:14:39.199Z</time></trkpt><trkpt lat="43.8709023" lon="12.3576692"><ele>795.25</ele><time>2026-04-04T11:14:40.199Z</time></trkpt><trkpt lat="43.8708526" lon="12.3578534"><ele>797.5</ele><time>2026-04-04T11:14:41.2Z</time></trkpt><trkpt lat="43.8708038" lon="12.3580159"><ele>799.75</ele><time>2026-04-04T11:14:42.199Z</time></trkpt><trkpt lat="43.8707457" lon="12.3581493"><ele>802.0</ele><time>2026-04-04T11:14:43.2Z</time></trkpt><trkpt lat="43.8706469" lon="12.3582552"><ele>802.0</ele><time>2026-04-04T11:14:44.199Z</time></trkpt><trkpt lat="43.8705423" lon="12.3583083"><ele>802.0</ele><time>2026-04-04T11:14:45.199Z</time></trkpt><trkpt lat="43.8704271" lon="12.3583175"><ele>802.0</ele><time>2026-04-04T11:14:46.199Z</time></trkpt><trkpt lat="43.8703062" lon="12.3582761"><ele>802.0</ele><time>2026-04-04T11:14:47.199Z</time></trkpt><trkpt lat="43.8702093" lon="12.3582106"><ele>802.0</ele><time>2026-04-04T11:14:48.199Z</time></trkpt><trkpt lat="43.8701091" lon="12.3581129"><ele>802.0</ele><time>2026-04-04T11:14:49.199Z</time></trkpt><trkpt lat="43.8700157" lon="12.3580065"><ele>802.0</ele><time>2026-04-04T11:14:50.199Z</time></trkpt><trkpt lat="43.869933" lon="12.3579046"><ele>802.0</ele><time>2026-04-04T11:14:51.199Z</time></trkpt><trkpt lat="43.8698439" lon="12.3577942"><ele>804.2</ele><time>2026-04-04T11:14:52.2Z</time></trkpt><trkpt lat="43.8697646" lon="12.3576844"><ele>806.4000000000001</ele><time>2026-04-04T11:14:53.2Z</time></trkpt><trkpt lat="43.8696825" lon="12.3575858"><ele>808.5999999999999</ele><time>2026-04-04T11:14:54.199Z</time></trkpt><trkpt lat="43.8696027" lon="12.3574783"><ele>810.8</ele><time>2026-04-04T11:14:55.2Z</time></trkpt><trkpt lat="43.8695219" lon="12.3573846"><ele>813.0</ele><time>2026-04-04T11:14:56.2Z</time></trkpt><trkpt lat="43.8694053" lon="12.3572752"><ele>814.3333333333333</ele><time>2026-04-04T11:14:57.199Z</time></trkpt><trkpt lat="43.8693018" lon="12.3571962"><ele>815.6666666666666</ele><time>2026-04-04T11:14:58.2Z</time></trkpt><trkpt lat="43.8691505" lon="12.3571293"><ele>817.0</ele><time>2026-04-04T11:14:59.199Z</time></trkpt><trkpt lat="43.8689809" lon="12.3570647"><ele>820.3333333333333</ele><time>2026-04-04T11:15:00.199Z</time></trkpt><trkpt lat="43.868818" lon="12.3570091"><ele>823.6666666666667</ele><time>2026-04-04T11:15:01.199Z</time></trkpt><trkpt lat="43.8686593" lon="12.3569645"><ele>827.0</ele><time>2026-04-04T11:15:02.199Z</time></trkpt><trkpt lat="43.8685153" lon="12.356922"><ele>828.0</ele><time>2026-04-04T11:15:03.2Z</time></trkpt><trkpt lat="43.8684015" lon="12.3568742"><ele>829.0</ele><time>2026-04-04T11:15:04.2Z</time></trkpt><trkpt lat="43.8682771" lon="12.3567931"><ele>830.0</ele><time>2026-04-04T11:15:05.199Z</time></trkpt><trkpt lat="43.8681815" lon="12.3566877"><ele>831.0</ele><time>2026-04-04T11:15:06.2Z</time></trkpt><trkpt lat="43.8680987" lon="12.356547"><ele>833.75</ele><time>2026-04-04T11:15:07.199Z</time></trkpt><trkpt lat="43.8680362" lon="12.3563656"><ele>836.5</ele><time>2026-04-04T11:15:08.199Z</time></trkpt><trkpt lat="43.8679894" lon="12.3561788"><ele>839.25</ele><time>2026-04-04T11:15:09.2Z</time></trkpt><trkpt lat="43.867956" lon="12.3559781"><ele>842.0</ele><time>2026-04-04T11:15:10.2Z</time></trkpt><trkpt lat="43.8679265" lon="12.3557529"><ele>842.0</ele><time>2026-04-04T11:15:11.199Z</time></trkpt><trkpt lat="43.8678947" lon="12.3555747"><ele>842.0</ele><time>2026-04-04T11:15:12.199Z</time></trkpt><trkpt lat="43.867846" lon="12.3553669"><ele>842.0</ele><time>2026-04-04T11:15:13.199Z</time></trkpt><trkpt lat="43.867787" lon="12.3551904"><ele>842.0</ele><time>2026-04-04T11:15:14.199Z</time></trkpt><trkpt lat="43.8677051" lon="12.3550169"><ele>842.3333333333334</ele><time>2026-04-04T11:15:15.2Z</time></trkpt><trkpt lat="43.8675855" lon="12.3548434"><ele>842.6666666666667</ele><time>2026-04-04T11:15:16.2Z</time></trkpt><trkpt lat="43.8674642" lon="12.3546866"><ele>843.0</ele><time>2026-04-04T11:15:17.199Z</time></trkpt><trkpt lat="43.8673526" lon="12.3545322"><ele>843.0</ele><time>2026-04-04T11:15:18.199Z</time></trkpt><trkpt lat="43.867234" lon="12.3543531"><ele>843.0</ele><time>2026-04-04T11:15:19.2Z</time></trkpt><trkpt lat="43.8671357" lon="12.3541707"><ele>843.0</ele><time>2026-04-04T11:15:20.199Z</time></trkpt><trkpt lat="43.8670315" lon="12.3539773"><ele>843.6666666666667</ele><time>2026-04-04T11:15:21.199Z</time></trkpt><trkpt lat="43.866925" lon="12.3537966"><ele>844.3333333333334</ele><time>2026-04-04T11:15:22.2Z</time></trkpt><trkpt lat="43.8668269" lon="12.3536368"><ele>845.0</ele><time>2026-04-04T11:15:23.199Z</time></trkpt><trkpt lat="43.8667137" lon="12.353462"><ele>845.0</ele><time>2026-04-04T11:15:24.199Z</time></trkpt><trkpt lat="43.866612" lon="12.353312"><ele>845.0</ele><time>2026-04-04T11:15:25.199Z</time></trkpt><trkpt lat="43.8665009" lon="12.3531602"><ele>845.0</ele><time>2026-04-04T11:15:26.199Z</time></trkpt><trkpt lat="43.8663912" lon="12.3529945"><ele>844.25</ele><time>2026-04-04T11:15:27.2Z</time></trkpt><trkpt lat="43.8662937" lon="12.3528565"><ele>843.5</ele><time>2026-04-04T11:15:28.2Z</time></trkpt><trkpt lat="43.8661865" lon="12.3527207"><ele>842.75</ele><time>2026-04-04T11:15:29.199Z</time></trkpt><trkpt lat="43.8660624" lon="12.352604"><ele>842.0</ele><time>2026-04-04T11:15:30.199Z</time></trkpt><trkpt lat="43.8659208" lon="12.352512"><ele>846.0</ele><time>2026-04-04T11:15:31.199Z</time></trkpt><trkpt lat="43.8657619" lon="12.3524359"><ele>850.0</ele><time>2026-04-04T11:15:32.199Z</time></trkpt><trkpt lat="43.8656229" lon="12.3523767"><ele>854.0</ele><time>2026-04-04T11:15:33.199Z</time></trkpt><trkpt lat="43.8654627" lon="12.3523102"><ele>854.0</ele><time>2026-04-04T11:15:34.2Z</time></trkpt><trkpt lat="43.865314" lon="12.3522449"><ele>854.0</ele><time>2026-04-04T11:15:35.2Z</time></trkpt><trkpt lat="43.8651844" lon="12.3521893"><ele>854.0</ele><time>2026-04-04T11:15:36.2Z</time></trkpt><trkpt lat="43.8650517" lon="12.352125"><ele>854.0</ele><time>2026-04-04T11:15:37.199Z</time></trkpt><trkpt lat="43.864916" lon="12.3520357"><ele>856.75</ele><time>2026-04-04T11:15:38.199Z</time></trkpt><trkpt lat="43.8648057" lon="12.3519296"><ele>859.5</ele><time>2026-04-04T11:15:39.199Z</time></trkpt><trkpt lat="43.8646959" lon="12.3517909"><ele>862.25</ele><time>2026-04-04T11:15:40.199Z</time></trkpt><trkpt lat="43.8645879" lon="12.3516329"><ele>865.0</ele><time>2026-04-04T11:15:41.199Z</time></trkpt><trkpt lat="43.8644795" lon="12.3514646"><ele>864.3333333333333</ele><time>2026-04-04T11:15:42.2Z</time></trkpt><trkpt lat="43.8643626" lon="12.3512803"><ele>863.6666666666667</ele><time>2026-04-04T11:15:43.2Z</time></trkpt><trkpt lat="43.8642598" lon="12.3511151"><ele>863.0</ele><time>2026-04-04T11:15:44.2Z</time></trkpt><trkpt lat="43.8641408" lon="12.3509323"><ele>865.3333333333334</ele><time>2026-04-04T11:15:45.2Z</time></trkpt><trkpt lat="43.8640236" lon="12.3507753"><ele>867.6666666666667</ele><time>2026-04-04T11:15:46.199Z</time></trkpt><trkpt lat="43.8638994" lon="12.3506219"><ele>870.0</ele><time>2026-04-04T11:15:47.199Z</time></trkpt><trkpt lat="43.8637656" lon="12.3504636"><ele>872.3333333333333</ele><time>2026-04-04T11:15:48.199Z</time></trkpt><trkpt lat="43.8636495" lon="12.3503252"><ele>874.6666666666666</ele><time>2026-04-04T11:15:49.199Z</time></trkpt><trkpt lat="43.8635334" lon="12.3501824"><ele>877.0</ele><time>2026-04-04T11:15:50.199Z</time></trkpt><trkpt lat="43.8634119" lon="12.3500358"><ele>877.0</ele><time>2026-04-04T11:15:51.199Z</time></trkpt><trkpt lat="43.863307" lon="12.3499345"><ele>877.0</ele><time>2026-04-04T11:15:52.2Z</time></trkpt><trkpt lat="43.8631796" lon="12.3498567"><ele>877.0</ele><time>2026-04-04T11:15:53.199Z</time></trkpt><trkpt lat="43.8630348" lon="12.34982"><ele>877.0</ele><time>2026-04-04T11:15:54.2Z</time></trkpt><trkpt lat="43.8629" lon="12.3498254"><ele>877.0</ele><time>2026-04-04T11:15:55.2Z</time></trkpt><trkpt lat="43.8627563" lon="12.3498582"><ele>877.0</ele><time>2026-04-04T11:15:56.199Z</time></trkpt><trkpt lat="43.8626124" lon="12.3499149"><ele>877.0</ele><time>2026-04-04T11:15:57.199Z</time></trkpt><trkpt lat="43.8624743" lon="12.3499932"><ele>877.0</ele><time>2026-04-04T11:15:58.199Z</time></trkpt><trkpt lat="43.8623348" lon="12.350098"><ele>877.0</ele><time>2026-04-04T11:15:59.2Z</time></trkpt><trkpt lat="43.8622309" lon="12.3502028"><ele>877.0</ele><time>2026-04-04T11:16:00.199Z</time></trkpt><trkpt lat="43.8621335" lon="12.3503301"><ele>877.0</ele><time>2026-04-04T11:16:01.199Z</time></trkpt><trkpt lat="43.862045" lon="12.3504688"><ele>877.0</ele><time>2026-04-04T11:16:02.199Z</time></trkpt><trkpt lat="43.8619605" lon="12.3506033"><ele>876.4000000000001</ele><time>2026-04-04T11:16:03.2Z</time></trkpt><trkpt lat="43.861873" lon="12.3507104"><ele>875.8000000000001</ele><time>2026-04-04T11:16:04.199Z</time></trkpt><trkpt lat="43.8617792" lon="12.3507708"><ele>875.2</ele><time>2026-04-04T11:16:05.199Z</time></trkpt><trkpt lat="43.8616838" lon="12.3507811"><ele>874.6</ele><time>2026-04-04T11:16:06.199Z</time></trkpt><trkpt lat="43.861583" lon="12.3507309"><ele>874.0</ele><time>2026-04-04T11:16:07.199Z</time></trkpt><trkpt lat="43.8614858" lon="12.3506393"><ele>877.5</ele><time>2026-04-04T11:16:08.199Z</time></trkpt><trkpt lat="43.8613824" lon="12.3505359"><ele>881.0</ele><time>2026-04-04T11:16:09.199Z</time></trkpt><trkpt lat="43.8612697" lon="12.3504263"><ele>884.5</ele><time>2026-04-04T11:16:10.2Z</time></trkpt><trkpt lat="43.8611521" lon="12.3503378"><ele>888.0</ele><time>2026-04-04T11:16:11.199Z</time></trkpt><trkpt lat="43.8610181" lon="12.3502566"><ele>888.5</ele><time>2026-04-04T11:16:12.199Z</time></trkpt><trkpt lat="43.8608804" lon="12.3502025"><ele>889.0</ele><time>2026-04-04T11:16:13.2Z</time></trkpt><trkpt lat="43.8607449" lon="12.3501653"><ele>889.5</ele><time>2026-04-04T11:16:14.199Z</time></trkpt><trkpt lat="43.8606071" lon="12.3501301"><ele>890.0</ele><time>2026-04-04T11:16:15.199Z</time></trkpt><trkpt lat="43.8604965" lon="12.3500977"><ele>890.0</ele><time>2026-04-04T11:16:16.2Z</time></trkpt><trkpt lat="43.8603884" lon="12.3500546"><ele>890.0</ele><time>2026-04-04T11:16:17.2Z</time></trkpt><trkpt lat="43.8602803" lon="12.3499911"><ele>890.0</ele><time>2026-04-04T11:16:18.199Z</time></trkpt><trkpt lat="43.8601845" lon="12.3498978"><ele>890.0</ele><time>2026-04-04T11:16:19.199Z</time></trkpt><trkpt lat="43.8600997" lon="12.3497707"><ele>891.25</ele><time>2026-04-04T11:16:20.199Z</time></trkpt><trkpt lat="43.860038" lon="12.349597"><ele>892.5</ele><time>2026-04-04T11:16:21.199Z</time></trkpt><trkpt lat="43.8599724" lon="12.3494372"><ele>893.75</ele><time>2026-04-04T11:16:22.199Z</time></trkpt><trkpt lat="43.8598969" lon="12.349259"><ele>895.0</ele><time>2026-04-04T11:16:23.199Z</time></trkpt><trkpt lat="43.8598332" lon="12.3491134"><ele>895.0</ele><time>2026-04-04T11:16:24.199Z</time></trkpt><trkpt lat="43.8597624" lon="12.3489595"><ele>895.0</ele><time>2026-04-04T11:16:25.199Z</time></trkpt><trkpt lat="43.8596894" lon="12.3488189"><ele>895.0</ele><time>2026-04-04T11:16:26.2Z</time></trkpt><trkpt lat="43.8596115" lon="12.3487166"><ele>895.0</ele><time>2026-04-04T11:16:27.2Z</time></trkpt><trkpt lat="43.8595114" lon="12.3486437"><ele>897.25</ele><time>2026-04-04T11:16:28.199Z</time></trkpt><trkpt lat="43.8593996" lon="12.3486136"><ele>899.5</ele><time>2026-04-04T11:16:29.199Z</time></trkpt><trkpt lat="43.8592829" lon="12.3486276"><ele>901.75</ele><time>2026-04-04T11:16:30.199Z</time></trkpt><trkpt lat="43.8591585" lon="12.348686"><ele>904.0</ele><time>2026-04-04T11:16:31.199Z</time></trkpt><trkpt lat="43.8590551" lon="12.3487661"><ele>903.0</ele><time>2026-04-04T11:16:32.199Z</time></trkpt><trkpt lat="43.8589436" lon="12.3488596"><ele>902.0</ele><time>2026-04-04T11:16:33.199Z</time></trkpt><trkpt lat="43.858845" lon="12.3489212"><ele>901.0</ele><time>2026-04-04T11:16:34.199Z</time></trkpt><trkpt lat="43.8587426" lon="12.3489454"><ele>900.0</ele><time>2026-04-04T11:16:35.199Z</time></trkpt><trkpt lat="43.8586355" lon="12.34892"><ele>903.25</ele><time>2026-04-04T11:16:36.199Z</time></trkpt><trkpt lat="43.8585217" lon="12.3488488"><ele>906.5</ele><time>2026-04-04T11:16:37.199Z</time></trkpt><trkpt lat="43.858406" lon="12.3487555"><ele>909.75</ele><time>2026-04-04T11:16:38.199Z</time></trkpt><trkpt lat="43.8582647" lon="12.3486535"><ele>913.0</ele><time>2026-04-04T11:16:39.2Z</time></trkpt><trkpt lat="43.8581389" lon="12.3485609"><ele>915.5</ele><time>2026-04-04T11:16:40.2Z</time></trkpt><trkpt lat="43.858005" lon="12.3484646"><ele>918.0</ele><time>2026-04-04T11:16:41.2Z</time></trkpt><trkpt lat="43.8578722" lon="12.3483738"><ele>920.5</ele><time>2026-04-04T11:16:42.199Z</time></trkpt><trkpt lat="43.8577553" lon="12.34832"><ele>923.0</ele><time>2026-04-04T11:16:43.2Z</time></trkpt><trkpt lat="43.8576211" lon="12.3482988"><ele>923.0</ele><time>2026-04-04T11:16:44.2Z</time></trkpt><trkpt lat="43.8574953" lon="12.3483247"><ele>923.0</ele><time>2026-04-04T11:16:45.199Z</time></trkpt><trkpt lat="43.8573562" lon="12.3483941"><ele>923.0</ele><time>2026-04-04T11:16:46.228Z</time></trkpt><trkpt lat="43.8572338" lon="12.3484573"><ele>923.0</ele><time>2026-04-04T11:16:47.224Z</time></trkpt><trkpt lat="43.8571261" lon="12.3484895"><ele>923.0</ele><time>2026-04-04T11:16:48.224Z</time></trkpt><trkpt lat="43.8570076" lon="12.3485007"><ele>923.0</ele><time>2026-04-04T11:16:49.227Z</time></trkpt><trkpt lat="43.8568931" lon="12.3484587"><ele>923.0</ele><time>2026-04-04T11:16:50.226Z</time></trkpt><trkpt lat="43.8567864" lon="12.3483807"><ele>923.0</ele><time>2026-04-04T11:16:51.225Z</time></trkpt><trkpt lat="43.8566725" lon="12.3482824"><ele>924.0</ele><time>2026-04-04T11:16:52.229Z</time></trkpt><trkpt lat="43.8565602" lon="12.3481705"><ele>925.0</ele><time>2026-04-04T11:16:53.229Z</time></trkpt><trkpt lat="43.8564516" lon="12.3480656"><ele>926.0</ele><time>2026-04-04T11:16:54.225Z</time></trkpt><trkpt lat="43.8563446" lon="12.3479927"><ele>927.0</ele><time>2026-04-04T11:16:55.228Z</time></trkpt><trkpt lat="43.8562416" lon="12.3479633"><ele>928.75</ele><time>2026-04-04T11:16:56.227Z</time></trkpt><trkpt lat="43.8561348" lon="12.3479851"><ele>930.5</ele><time>2026-04-04T11:16:57.227Z</time></trkpt><trkpt lat="43.8560401" lon="12.3480327"><ele>932.25</ele><time>2026-04-04T11:16:58.224Z</time></trkpt><trkpt lat="43.8559165" lon="12.3481399"><ele>934.0</ele><time>2026-04-04T11:16:59.228Z</time></trkpt><trkpt lat="43.8557905" lon="12.3482394"><ele>934.0</ele><time>2026-04-04T11:17:00.226Z</time></trkpt><trkpt lat="43.8556597" lon="12.3483595"><ele>934.0</ele><time>2026-04-04T11:17:01.227Z</time></trkpt><trkpt lat="43.8555275" lon="12.3484776"><ele>934.0</ele><time>2026-04-04T11:17:02.228Z</time></trkpt><trkpt lat="43.8554158" lon="12.3486082"><ele>934.0</ele><time>2026-04-04T11:17:03.229Z</time></trkpt><trkpt lat="43.8553089" lon="12.3487478"><ele>934.0</ele><time>2026-04-04T11:17:04.227Z</time></trkpt><trkpt lat="43.8552271" lon="12.3488983"><ele>934.0</ele><time>2026-04-04T11:17:05.227Z</time></trkpt><trkpt lat="43.8551513" lon="12.3490514"><ele>934.0</ele><time>2026-04-04T11:17:06.226Z</time></trkpt><trkpt lat="43.8550844" lon="12.3491739"><ele>936.75</ele><time>2026-04-04T11:17:07.23Z</time></trkpt><trkpt lat="43.855013" lon="12.3492765"><ele>939.5</ele><time>2026-04-04T11:17:08.227Z</time></trkpt><trkpt lat="43.8549105" lon="12.3493689"><ele>942.25</ele><time>2026-04-04T11:17:09.229Z</time></trkpt><trkpt lat="43.8548035" lon="12.3494601"><ele>945.0</ele><time>2026-04-04T11:17:10.228Z</time></trkpt><trkpt lat="43.8546722" lon="12.349525"><ele>945.0</ele><time>2026-04-04T11:17:11.228Z</time></trkpt><trkpt lat="43.8545456" lon="12.3495768"><ele>945.0</ele><time>2026-04-04T11:17:12.227Z</time></trkpt><trkpt lat="43.8544233" lon="12.34963"><ele>945.0</ele><time>2026-04-04T11:17:13.227Z</time></trkpt><trkpt lat="43.8543046" lon="12.3496126"><ele>945.0</ele><time>2026-04-04T11:17:14.227Z</time></trkpt><trkpt lat="43.8541808" lon="12.3495697"><ele>946.75</ele><time>2026-04-04T11:17:15.226Z</time></trkpt><trkpt lat="43.8540446" lon="12.349495"><ele>948.5</ele><time>2026-04-04T11:17:16.227Z</time></trkpt><trkpt lat="43.8539297" lon="12.3494091"><ele>950.25</ele><time>2026-04-04T11:17:17.228Z</time></trkpt><trkpt lat="43.8538225" lon="12.349308"><ele>952.0</ele><time>2026-04-04T11:17:18.228Z</time></trkpt><trkpt lat="43.8537136" lon="12.3492176"><ele>952.0</ele><time>2026-04-04T11:17:19.226Z</time></trkpt><trkpt lat="43.8535931" lon="12.3491563"><ele>952.0</ele><time>2026-04-04T11:17:20.227Z</time></trkpt><trkpt lat="43.8534704" lon="12.3491134"><ele>952.0</ele><time>2026-04-04T11:17:21.224Z</time></trkpt><trkpt lat="43.8533319" lon="12.3491154"><ele>952.0</ele><time>2026-04-04T11:17:22.229Z</time></trkpt><trkpt lat="43.8531996" lon="12.3491436"><ele>952.0</ele><time>2026-04-04T11:17:23.227Z</time></trkpt><trkpt lat="43.8530706" lon="12.3492161"><ele>952.0</ele><time>2026-04-04T11:17:24.227Z</time></trkpt><trkpt lat="43.8529517" lon="12.3493144"><ele>952.0</ele><time>2026-04-04T11:17:25.228Z</time></trkpt><trkpt lat="43.8528338" lon="12.349431"><ele>952.0</ele><time>2026-04-04T11:17:26.227Z</time></trkpt><trkpt lat="43.852719" lon="12.349551"><ele>952.75</ele><time>2026-04-04T11:17:27.226Z</time></trkpt><trkpt lat="43.8526104" lon="12.3496856"><ele>953.5</ele><time>2026-04-04T11:17:28.228Z</time></trkpt><trkpt lat="43.8525048" lon="12.3498202"><ele>954.25</ele><time>2026-04-04T11:17:29.226Z</time></trkpt><trkpt lat="43.8523971" lon="12.3499381"><ele>955.0</ele><time>2026-04-04T11:17:30.225Z</time></trkpt><trkpt lat="43.852276" lon="12.3500555"><ele>955.0</ele><time>2026-04-04T11:17:31.229Z</time></trkpt><trkpt lat="43.8521436" lon="12.3501633"><ele>955.0</ele><time>2026-04-04T11:17:32.224Z</time></trkpt><trkpt lat="43.8520092" lon="12.3502777"><ele>955.0</ele><time>2026-04-04T11:17:33.229Z</time></trkpt><trkpt lat="43.8518627" lon="12.3503904"><ele>955.3333333333333</ele><time>2026-04-04T11:17:34.227Z</time></trkpt><trkpt lat="43.8517157" lon="12.3505061"><ele>955.6666666666667</ele><time>2026-04-04T11:17:35.227Z</time></trkpt><trkpt lat="43.8515727" lon="12.3506145"><ele>956.0</ele><time>2026-04-04T11:17:36.227Z</time></trkpt><trkpt lat="43.85144" lon="12.3507329"><ele>956.0</ele><time>2026-04-04T11:17:37.227Z</time></trkpt><trkpt lat="43.8513177" lon="12.350861"><ele>956.0</ele><time>2026-04-04T11:17:38.228Z</time></trkpt><trkpt lat="43.8511948" lon="12.3509871"><ele>956.0</ele><time>2026-04-04T11:17:39.23Z</time></trkpt><trkpt lat="43.8510718" lon="12.3511135"><ele>956.6666666666667</ele><time>2026-04-04T11:17:40.226Z</time></trkpt><trkpt lat="43.8509393" lon="12.3512266"><ele>957.3333333333333</ele><time>2026-04-04T11:17:41.227Z</time></trkpt><trkpt lat="43.8507974" lon="12.3513306"><ele>958.0</ele><time>2026-04-04T11:17:42.23Z</time></trkpt><trkpt lat="43.8506484" lon="12.3514266"><ele>958.0</ele><time>2026-04-04T11:17:43.23Z</time></trkpt><trkpt lat="43.8504987" lon="12.3515206"><ele>958.0</ele><time>2026-04-04T11:17:44.227Z</time></trkpt><trkpt lat="43.8503489" lon="12.3516149"><ele>958.0</ele><time>2026-04-04T11:17:45.227Z</time></trkpt><trkpt lat="43.8502003" lon="12.3517079"><ele>961.5</ele><time>2026-04-04T11:17:46.227Z</time></trkpt><trkpt lat="43.8500627" lon="12.3518121"><ele>965.0</ele><time>2026-04-04T11:17:47.224Z</time></trkpt><trkpt lat="43.8499462" lon="12.3519415"><ele>968.5</ele><time>2026-04-04T11:17:48.227Z</time></trkpt><trkpt lat="43.8498431" lon="12.3520729"><ele>972.0</ele><time>2026-04-04T11:17:49.229Z</time></trkpt><trkpt lat="43.8497433" lon="12.3522046"><ele>969.0</ele><time>2026-04-04T11:17:50.225Z</time></trkpt><trkpt lat="43.8496463" lon="12.3523132"><ele>966.0</ele><time>2026-04-04T11:17:51.224Z</time></trkpt><trkpt lat="43.8495447" lon="12.3523884"><ele>963.0</ele><time>2026-04-04T11:17:52.224Z</time></trkpt><trkpt lat="43.8494357" lon="12.3524035"><ele>960.0</ele><time>2026-04-04T11:17:53.225Z</time></trkpt><trkpt lat="43.8493195" lon="12.3523807"><ele>962.75</ele><time>2026-04-04T11:17:54.225Z</time></trkpt><trkpt lat="43.8491905" lon="12.3523245"><ele>965.5</ele><time>2026-04-04T11:17:55.225Z</time></trkpt><trkpt lat="43.8490693" lon="12.3522944"><ele>968.25</ele><time>2026-04-04T11:17:56.226Z</time></trkpt><trkpt lat="43.8489288" lon="12.3522779"><ele>971.0</ele><time>2026-04-04T11:17:57.224Z</time></trkpt><trkpt lat="43.848785" lon="12.3522841"><ele>971.0</ele><time>2026-04-04T11:17:58.229Z</time></trkpt><trkpt lat="43.8486262" lon="12.3523074"><ele>971.0</ele><time>2026-04-04T11:17:59.229Z</time></trkpt><trkpt lat="43.8484764" lon="12.3523381"><ele>971.0</ele><time>2026-04-04T11:18:00.229Z</time></trkpt><trkpt lat="43.848315" lon="12.3523737"><ele>973.0</ele><time>2026-04-04T11:18:01.229Z</time></trkpt><trkpt lat="43.8481403" lon="12.3523764"><ele>975.0</ele><time>2026-04-04T11:18:02.228Z</time></trkpt><trkpt lat="43.8479799" lon="12.352396"><ele>977.0</ele><time>2026-04-04T11:18:03.222Z</time></trkpt><trkpt lat="43.8478349" lon="12.3523945"><ele>977.0</ele><time>2026-04-04T11:18:04.228Z</time></trkpt><trkpt lat="43.8476923" lon="12.3524249"><ele>977.0</ele><time>2026-04-04T11:18:05.229Z</time></trkpt><trkpt lat="43.8475571" lon="12.3524832"><ele>977.0</ele><time>2026-04-04T11:18:06.228Z</time></trkpt><trkpt lat="43.8474236" lon="12.3525587"><ele>977.0</ele><time>2026-04-04T11:18:07.227Z</time></trkpt><trkpt lat="43.8472915" lon="12.3526403"><ele>978.5</ele><time>2026-04-04T11:18:08.228Z</time></trkpt><trkpt lat="43.8471575" lon="12.3527079"><ele>980.0</ele><time>2026-04-04T11:18:09.228Z</time></trkpt><trkpt lat="43.8470308" lon="12.3527671"><ele>981.5</ele><time>2026-04-04T11:18:10.229Z</time></trkpt><trkpt lat="43.8469016" lon="12.3528095"><ele>983.0</ele><time>2026-04-04T11:18:11.23Z</time></trkpt><trkpt lat="43.8467586" lon="12.3528214"><ele>983.0</ele><time>2026-04-04T11:18:12.223Z</time></trkpt><trkpt lat="43.8466159" lon="12.3528327"><ele>983.0</ele><time>2026-04-04T11:18:13.229Z</time></trkpt><trkpt lat="43.8464824" lon="12.3528454"><ele>983.0</ele><time>2026-04-04T11:18:14.229Z</time></trkpt><trkpt lat="43.8463551" lon="12.3528371"><ele>983.0</ele><time>2026-04-04T11:18:15.229Z</time></trkpt><trkpt lat="43.8462476" lon="12.3528391"><ele>983.0</ele><time>2026-04-04T11:18:16.228Z</time></trkpt><trkpt lat="43.8461494" lon="12.3527932"><ele>983.0</ele><time>2026-04-04T11:18:17.23Z</time></trkpt><trkpt lat="43.8460556" lon="12.3527186"><ele>983.0</ele><time>2026-04-04T11:18:18.23Z</time></trkpt><trkpt lat="43.8459985" lon="12.3525909"><ele>983.0</ele><time>2026-04-04T11:18:19.228Z</time></trkpt><trkpt lat="43.8459496" lon="12.3524303"><ele>983.0</ele><time>2026-04-04T11:18:20.23Z</time></trkpt><trkpt lat="43.8459106" lon="12.3522515"><ele>980.0</ele><time>2026-04-04T11:18:21.223Z</time></trkpt><trkpt lat="43.8458859" lon="12.3520734"><ele>977.0</ele><time>2026-04-04T11:18:22.228Z</time></trkpt><trkpt lat="43.8458677" lon="12.3519021"><ele>974.0</ele><time>2026-04-04T11:18:23.226Z</time></trkpt><trkpt lat="43.845841" lon="12.3517359"><ele>971.0</ele><time>2026-04-04T11:18:24.227Z</time></trkpt><trkpt lat="43.8457958" lon="12.351595"><ele>971.0</ele><time>2026-04-04T11:18:25.229Z</time></trkpt><trkpt lat="43.8457328" lon="12.3514715"><ele>971.0</ele><time>2026-04-04T11:18:26.229Z</time></trkpt><trkpt lat="43.8456239" lon="12.3513964"><ele>971.0</ele><time>2026-04-04T11:18:27.228Z</time></trkpt><trkpt lat="43.8454958" lon="12.3513684"><ele>971.0</ele><time>2026-04-04T11:18:28.23Z</time></trkpt><trkpt lat="43.8453555" lon="12.3513553"><ele>970.3333333333334</ele><time>2026-04-04T11:18:29.23Z</time></trkpt><trkpt lat="43.8451995" lon="12.3513549"><ele>969.6666666666667</ele><time>2026-04-04T11:18:30.229Z</time></trkpt><trkpt lat="43.8450407" lon="12.3513456"><ele>969.0</ele><time>2026-04-04T11:18:31.229Z</time></trkpt><trkpt lat="43.8448812" lon="12.3513339"><ele>969.0</ele><time>2026-04-04T11:18:32.229Z</time></trkpt><trkpt lat="43.8447226" lon="12.3513213"><ele>969.0</ele><time>2026-04-04T11:18:33.229Z</time></trkpt><trkpt lat="43.8445783" lon="12.3513143"><ele>969.0</ele><time>2026-04-04T11:18:34.226Z</time></trkpt><trkpt lat="43.844438" lon="12.3513033"><ele>969.0</ele><time>2026-04-04T11:18:35.228Z</time></trkpt><trkpt lat="43.8443058" lon="12.3512871"><ele>966.75</ele><time>2026-04-04T11:18:36.225Z</time></trkpt><trkpt lat="43.8441861" lon="12.3512627"><ele>964.5</ele><time>2026-04-04T11:18:37.228Z</time></trkpt><trkpt lat="43.8440748" lon="12.351182"><ele>962.25</ele><time>2026-04-04T11:18:38.229Z</time></trkpt><trkpt lat="43.8439629" lon="12.3510667"><ele>960.0</ele><time>2026-04-04T11:18:39.226Z</time></trkpt><trkpt lat="43.8438661" lon="12.3509391"><ele>960.0</ele><time>2026-04-04T11:18:40.23Z</time></trkpt><trkpt lat="43.8437711" lon="12.3508162"><ele>960.0</ele><time>2026-04-04T11:18:41.229Z</time></trkpt><trkpt lat="43.8436861" lon="12.3506944"><ele>960.0</ele><time>2026-04-04T11:18:42.227Z</time></trkpt><trkpt lat="43.8435931" lon="12.3505982"><ele>960.0</ele><time>2026-04-04T11:18:43.225Z</time></trkpt><trkpt lat="43.8435013" lon="12.3505506"><ele>957.8</ele><time>2026-04-04T11:18:44.228Z</time></trkpt><trkpt lat="43.8434111" lon="12.3505452"><ele>955.6</ele><time>2026-04-04T11:18:45.229Z</time></trkpt><trkpt lat="43.8433162" lon="12.3506006"><ele>953.4000000000001</ele><time>2026-04-04T11:18:46.229Z</time></trkpt><trkpt lat="43.8432333" lon="12.350716"><ele>951.2</ele><time>2026-04-04T11:18:47.226Z</time></trkpt><trkpt lat="43.8431689" lon="12.3508831"><ele>949.0</ele><time>2026-04-04T11:18:48.228Z</time></trkpt><trkpt lat="43.8431155" lon="12.3510636"><ele>949.0</ele><time>2026-04-04T11:18:49.227Z</time></trkpt><trkpt lat="43.8430685" lon="12.3512748"><ele>949.0</ele><time>2026-04-04T11:18:50.225Z</time></trkpt><trkpt lat="43.8430155" lon="12.3514971"><ele>949.0</ele><time>2026-04-04T11:18:51.23Z</time></trkpt><trkpt lat="43.842959" lon="12.3517173"><ele>948.0</ele><time>2026-04-04T11:18:52.229Z</time></trkpt><trkpt lat="43.8429031" lon="12.3519311"><ele>947.0</ele><time>2026-04-04T11:18:53.226Z</time></trkpt><trkpt lat="43.8428566" lon="12.3521574"><ele>946.0</ele><time>2026-04-04T11:18:54.23Z</time></trkpt><trkpt lat="43.8428069" lon="12.352386"><ele>945.0</ele><time>2026-04-04T11:18:55.223Z</time></trkpt><trkpt lat="43.8427768" lon="12.3526279"><ele>944.0</ele><time>2026-04-04T11:18:56.227Z</time></trkpt><trkpt lat="43.8427493" lon="12.3528721"><ele>943.0</ele><time>2026-04-04T11:18:57.229Z</time></trkpt><trkpt lat="43.8427216" lon="12.3531176"><ele>941.3333333333333</ele><time>2026-04-04T11:18:58.229Z</time></trkpt><trkpt lat="43.842675" lon="12.3533572"><ele>939.6666666666667</ele><time>2026-04-04T11:18:59.227Z</time></trkpt><trkpt lat="43.8425902" lon="12.3535835"><ele>938.0</ele><time>2026-04-04T11:19:00.23Z</time></trkpt><trkpt lat="43.8424918" lon="12.3538022"><ele>934.6666666666667</ele><time>2026-04-04T11:19:01.228Z</time></trkpt><trkpt lat="43.8423758" lon="12.3539932"><ele>931.3333333333333</ele><time>2026-04-04T11:19:02.227Z</time></trkpt><trkpt lat="43.8422733" lon="12.3541853"><ele>928.0</ele><time>2026-04-04T11:19:03.228Z</time></trkpt><trkpt lat="43.8421795" lon="12.3543754"><ele>928.0</ele><time>2026-04-04T11:19:04.225Z</time></trkpt><trkpt lat="43.8421006" lon="12.35457"><ele>928.0</ele><time>2026-04-04T11:19:05.229Z</time></trkpt><trkpt lat="43.8420444" lon="12.3547554"><ele>928.0</ele><time>2026-04-04T11:19:06.229Z</time></trkpt><trkpt lat="43.8420007" lon="12.354949"><ele>928.2</ele><time>2026-04-04T11:19:07.229Z</time></trkpt><trkpt lat="43.8419745" lon="12.3551279"><ele>928.4</ele><time>2026-04-04T11:19:08.229Z</time></trkpt><trkpt lat="43.841956" lon="12.355288"><ele>928.6000000000001</ele><time>2026-04-04T11:19:09.229Z</time></trkpt><trkpt lat="43.8419386" lon="12.3554265"><ele>928.8000000000001</ele><time>2026-04-04T11:19:10.227Z</time></trkpt><trkpt lat="43.841918" lon="12.3555311"><ele>929.0</ele><time>2026-04-04T11:19:11.224Z</time></trkpt><trkpt lat="43.8418424" lon="12.3556121"><ele>926.5</ele><time>2026-04-04T11:19:13.228Z</time></trkpt><trkpt lat="43.84172" lon="12.3555045"><ele>924.0</ele><time>2026-04-04T11:19:15.229Z</time></trkpt><trkpt lat="43.8416723" lon="12.3554176"><ele>921.5</ele><time>2026-04-04T11:19:16.227Z</time></trkpt><trkpt lat="43.8416187" lon="12.3553049"><ele>919.0</ele><time>2026-04-04T11:19:17.226Z</time></trkpt><trkpt lat="43.8415153" lon="12.3551829"><ele>919.0</ele><time>2026-04-04T11:19:18.228Z</time></trkpt><trkpt lat="43.8414298" lon="12.355059"><ele>919.0</ele><time>2026-04-04T11:19:19.226Z</time></trkpt><trkpt lat="43.8413465" lon="12.354929"><ele>919.0</ele><time>2026-04-04T11:19:20.228Z</time></trkpt><trkpt lat="43.8412507" lon="12.3547904"><ele>919.0</ele><time>2026-04-04T11:19:21.227Z</time></trkpt><trkpt lat="43.8411568" lon="12.3546699"><ele>919.0</ele><time>2026-04-04T11:19:22.228Z</time></trkpt><trkpt lat="43.8410642" lon="12.3545543"><ele>919.0</ele><time>2026-04-04T11:19:23.228Z</time></trkpt><trkpt lat="43.8409617" lon="12.3544846"><ele>919.0</ele><time>2026-04-04T11:19:24.23Z</time></trkpt><trkpt lat="43.8408326" lon="12.3544754"><ele>919.0</ele><time>2026-04-04T11:19:25.229Z</time></trkpt><trkpt lat="43.8407064" lon="12.3544833"><ele>917.25</ele><time>2026-04-04T11:19:26.229Z</time></trkpt><trkpt lat="43.8405735" lon="12.3545481"><ele>915.5</ele><time>2026-04-04T11:19:27.23Z</time></trkpt><trkpt lat="43.8404384" lon="12.3546303"><ele>913.75</ele><time>2026-04-04T11:19:28.229Z</time></trkpt><trkpt lat="43.8403051" lon="12.3547162"><ele>912.0</ele><time>2026-04-04T11:19:29.23Z</time></trkpt><trkpt lat="43.8401728" lon="12.3547935"><ele>909.25</ele><time>2026-04-04T11:19:30.229Z</time></trkpt><trkpt lat="43.8400492" lon="12.3548587"><ele>906.5</ele><time>2026-04-04T11:19:31.23Z</time></trkpt><trkpt lat="43.8399344" lon="12.35492"><ele>903.75</ele><time>2026-04-04T11:19:32.229Z</time></trkpt><trkpt lat="43.8398215" lon="12.3549824"><ele>901.0</ele><time>2026-04-04T11:19:33.227Z</time></trkpt><trkpt lat="43.8397124" lon="12.3550414"><ele>901.0</ele><time>2026-04-04T11:19:34.229Z</time></trkpt><trkpt lat="43.8396217" lon="12.355114"><ele>900.9999999999999</ele><time>2026-04-04T11:19:35.225Z</time></trkpt><trkpt lat="43.8395495" lon="12.3552212"><ele>900.9999999999999</ele><time>2026-04-04T11:19:36.229Z</time></trkpt><trkpt lat="43.8395076" lon="12.3553558"><ele>901.0</ele><time>2026-04-04T11:19:37.227Z</time></trkpt><trkpt lat="43.8394846" lon="12.3554802"><ele>901.0</ele><time>2026-04-04T11:19:38.227Z</time></trkpt><trkpt lat="43.8394862" lon="12.3556103"><ele>900.0</ele><time>2026-04-04T11:19:39.226Z</time></trkpt><trkpt lat="43.8395265" lon="12.355749"><ele>899.0</ele><time>2026-04-04T11:19:40.229Z</time></trkpt><trkpt lat="43.8395852" lon="12.3558789"><ele>898.0</ele><time>2026-04-04T11:19:41.225Z</time></trkpt><trkpt lat="43.8396589" lon="12.3560147"><ele>897.0</ele><time>2026-04-04T11:19:42.224Z</time></trkpt><trkpt lat="43.8397344" lon="12.3561402"><ele>897.0</ele><time>2026-04-04T11:19:43.224Z</time></trkpt><trkpt lat="43.8398034" lon="12.3562676"><ele>897.0</ele><time>2026-04-04T11:19:44.229Z</time></trkpt><trkpt lat="43.8398567" lon="12.3563915"><ele>897.0</ele><time>2026-04-04T11:19:45.227Z</time></trkpt><trkpt lat="43.8398836" lon="12.3565163"><ele>897.0</ele><time>2026-04-04T11:19:46.229Z</time></trkpt><trkpt lat="43.8398797" lon="12.3566352"><ele>897.0</ele><time>2026-04-04T11:19:47.228Z</time></trkpt><trkpt lat="43.8398594" lon="12.3567343"><ele>895.8</ele><time>2026-04-04T11:19:48.229Z</time></trkpt><trkpt lat="43.8398253" lon="12.3568109"><ele>894.6</ele><time>2026-04-04T11:19:49.227Z</time></trkpt><trkpt lat="43.8397195" lon="12.3568609"><ele>893.3999999999999</ele><time>2026-04-04T11:19:51.225Z</time></trkpt><trkpt lat="43.839584" lon="12.3567999"><ele>892.1999999999999</ele><time>2026-04-04T11:19:53.228Z</time></trkpt><trkpt lat="43.8394883" lon="12.3567918"><ele>891.0</ele><time>2026-04-04T11:19:54.228Z</time></trkpt><trkpt lat="43.8393873" lon="12.356806"><ele>890.0</ele><time>2026-04-04T11:19:55.229Z</time></trkpt><trkpt lat="43.8392884" lon="12.3568538"><ele>888.9999999999999</ele><time>2026-04-04T11:19:56.227Z</time></trkpt><trkpt lat="43.8392049" lon="12.356939"><ele>887.9999999999999</ele><time>2026-04-04T11:19:57.229Z</time></trkpt><trkpt lat="43.8391288" lon="12.3570478"><ele>887.0</ele><time>2026-04-04T11:19:58.228Z</time></trkpt><trkpt lat="43.8390582" lon="12.357174"><ele>886.0</ele><time>2026-04-04T11:19:59.223Z</time></trkpt><trkpt lat="43.8389857" lon="12.3573131"><ele>884.5</ele><time>2026-04-04T11:20:00.229Z</time></trkpt><trkpt lat="43.8389062" lon="12.3574512"><ele>883.0</ele><time>2026-04-04T11:20:01.225Z</time></trkpt><trkpt lat="43.8388241" lon="12.3575861"><ele>881.5</ele><time>2026-04-04T11:20:02.228Z</time></trkpt><trkpt lat="43.8387422" lon="12.3577282"><ele>880.0</ele><time>2026-04-04T11:20:03.227Z</time></trkpt><trkpt lat="43.8386658" lon="12.3578717"><ele>880.0</ele><time>2026-04-04T11:20:04.224Z</time></trkpt><trkpt lat="43.8385872" lon="12.3580088"><ele>880.0</ele><time>2026-04-04T11:20:05.228Z</time></trkpt><trkpt lat="43.838506" lon="12.3581304"><ele>880.0</ele><time>2026-04-04T11:20:06.228Z</time></trkpt><trkpt lat="43.8384124" lon="12.3582324"><ele>880.0</ele><time>2026-04-04T11:20:07.228Z</time></trkpt><trkpt lat="43.8383017" lon="12.35831"><ele>877.0</ele><time>2026-04-04T11:20:08.229Z</time></trkpt><trkpt lat="43.8381735" lon="12.3583397"><ele>874.0</ele><time>2026-04-04T11:20:09.229Z</time></trkpt><trkpt lat="43.8380353" lon="12.3583245"><ele>871.0</ele><time>2026-04-04T11:20:10.227Z</time></trkpt><trkpt lat="43.8378849" lon="12.3582715"><ele>868.0</ele><time>2026-04-04T11:20:11.23Z</time></trkpt><trkpt lat="43.8377334" lon="12.3582281"><ele>866.0</ele><time>2026-04-04T11:20:12.226Z</time></trkpt><trkpt lat="43.8375817" lon="12.3581794"><ele>864.0</ele><time>2026-04-04T11:20:13.227Z</time></trkpt><trkpt lat="43.8374228" lon="12.358129"><ele>862.0</ele><time>2026-04-04T11:20:14.229Z</time></trkpt><trkpt lat="43.8372606" lon="12.3580845"><ele>862.0</ele><time>2026-04-04T11:20:15.225Z</time></trkpt><trkpt lat="43.8370906" lon="12.3580379"><ele>862.0</ele><time>2026-04-04T11:20:16.224Z</time></trkpt><trkpt lat="43.8369186" lon="12.3579943"><ele>862.0</ele><time>2026-04-04T11:20:17.227Z</time></trkpt><trkpt lat="43.8367441" lon="12.3579525"><ele>862.0</ele><time>2026-04-04T11:20:18.226Z</time></trkpt><trkpt lat="43.8365696" lon="12.3579057"><ele>862.0</ele><time>2026-04-04T11:20:19.227Z</time></trkpt><trkpt lat="43.8364021" lon="12.3578693"><ele>862.0</ele><time>2026-04-04T11:20:20.225Z</time></trkpt><trkpt lat="43.8362388" lon="12.3578202"><ele>862.0</ele><time>2026-04-04T11:20:21.225Z</time></trkpt><trkpt lat="43.8360679" lon="12.3577748"><ele>862.0</ele><time>2026-04-04T11:20:22.228Z</time></trkpt><trkpt lat="43.8358985" lon="12.3577531"><ele>862.0</ele><time>2026-04-04T11:20:23.227Z</time></trkpt><trkpt lat="43.8357251" lon="12.3577408"><ele>859.3333333333333</ele><time>2026-04-04T11:20:24.227Z</time></trkpt><trkpt lat="43.8355498" lon="12.3577556"><ele>856.6666666666667</ele><time>2026-04-04T11:20:25.229Z</time></trkpt><trkpt lat="43.8353786" lon="12.3577834"><ele>854.0</ele><time>2026-04-04T11:20:26.229Z</time></trkpt><trkpt lat="43.8352014" lon="12.3578124"><ele>852.6666666666667</ele><time>2026-04-04T11:20:27.228Z</time></trkpt><trkpt lat="43.8350223" lon="12.3578336"><ele>851.3333333333333</ele><time>2026-04-04T11:20:28.228Z</time></trkpt><trkpt lat="43.8348458" lon="12.3578603"><ele>850.0</ele><time>2026-04-04T11:20:29.224Z</time></trkpt><trkpt lat="43.8346687" lon="12.3578787"><ele>850.0</ele><time>2026-04-04T11:20:30.229Z</time></trkpt><trkpt lat="43.8344962" lon="12.3578992"><ele>850.0</ele><time>2026-04-04T11:20:31.226Z</time></trkpt><trkpt lat="43.8343323" lon="12.3579209"><ele>850.0</ele><time>2026-04-04T11:20:32.226Z</time></trkpt><trkpt lat="43.8341717" lon="12.3579427"><ele>849.6666666666666</ele><time>2026-04-04T11:20:33.229Z</time></trkpt><trkpt lat="43.8340165" lon="12.3579721"><ele>849.3333333333333</ele><time>2026-04-04T11:20:34.23Z</time></trkpt><trkpt lat="43.8338654" lon="12.3580002"><ele>849.0</ele><time>2026-04-04T11:20:35.229Z</time></trkpt><trkpt lat="43.833724" lon="12.358058"><ele>845.75</ele><time>2026-04-04T11:20:36.226Z</time></trkpt><trkpt lat="43.8336045" lon="12.358154"><ele>842.5</ele><time>2026-04-04T11:20:37.228Z</time></trkpt><trkpt lat="43.8334958" lon="12.3582738"><ele>839.25</ele><time>2026-04-04T11:20:38.228Z</time></trkpt><trkpt lat="43.8333907" lon="12.3584005"><ele>836.0</ele><time>2026-04-04T11:20:39.227Z</time></trkpt><trkpt lat="43.8332745" lon="12.3585173"><ele>836.0</ele><time>2026-04-04T11:20:40.228Z</time></trkpt><trkpt lat="43.833152" lon="12.3586272"><ele>836.0</ele><time>2026-04-04T11:20:41.229Z</time></trkpt><trkpt lat="43.8330271" lon="12.3587314"><ele>836.0</ele><time>2026-04-04T11:20:42.227Z</time></trkpt><trkpt lat="43.8329016" lon="12.3588359"><ele>836.0</ele><time>2026-04-04T11:20:43.229Z</time></trkpt><trkpt lat="43.8327675" lon="12.3589476"><ele>833.0</ele><time>2026-04-04T11:20:44.224Z</time></trkpt><trkpt lat="43.8326397" lon="12.3590656"><ele>830.0</ele><time>2026-04-04T11:20:45.229Z</time></trkpt><trkpt lat="43.8325181" lon="12.3591903"><ele>827.0</ele><time>2026-04-04T11:20:46.227Z</time></trkpt><trkpt lat="43.8323977" lon="12.3593113"><ele>827.0</ele><time>2026-04-04T11:20:47.225Z</time></trkpt><trkpt lat="43.8322758" lon="12.3594383"><ele>827.0</ele><time>2026-04-04T11:20:48.225Z</time></trkpt><trkpt lat="43.8321541" lon="12.3595628"><ele>827.0</ele><time>2026-04-04T11:20:49.228Z</time></trkpt><trkpt lat="43.8320207" lon="12.3596745"><ele>825.0</ele><time>2026-04-04T11:20:50.227Z</time></trkpt><trkpt lat="43.831882" lon="12.3597852"><ele>823.0</ele><time>2026-04-04T11:20:51.225Z</time></trkpt><trkpt lat="43.8317379" lon="12.3598862"><ele>821.0</ele><time>2026-04-04T11:20:52.229Z</time></trkpt><trkpt lat="43.8315914" lon="12.3599885"><ele>821.0</ele><time>2026-04-04T11:20:53.228Z</time></trkpt><trkpt lat="43.8314442" lon="12.360095"><ele>821.0</ele><time>2026-04-04T11:20:54.227Z</time></trkpt><trkpt lat="43.8312939" lon="12.3601996"><ele>821.0</ele><time>2026-04-04T11:20:55.226Z</time></trkpt><trkpt lat="43.8311417" lon="12.3603122"><ele>821.0</ele><time>2026-04-04T11:20:56.228Z</time></trkpt><trkpt lat="43.8309886" lon="12.3604268"><ele>821.0</ele><time>2026-04-04T11:20:57.228Z</time></trkpt><trkpt lat="43.8308341" lon="12.3605384"><ele>821.0</ele><time>2026-04-04T11:20:58.228Z</time></trkpt><trkpt lat="43.8306821" lon="12.3606472"><ele>816.3333333333334</ele><time>2026-04-04T11:20:59.225Z</time></trkpt><trkpt lat="43.8305337" lon="12.3607497"><ele>811.6666666666667</ele><time>2026-04-04T11:21:00.228Z</time></trkpt><trkpt lat="43.8303911" lon="12.3608592"><ele>807.0</ele><time>2026-04-04T11:21:01.228Z</time></trkpt><trkpt lat="43.8302557" lon="12.3609593"><ele>805.0</ele><time>2026-04-04T11:21:02.224Z</time></trkpt><trkpt lat="43.8301276" lon="12.3610587"><ele>803.0</ele><time>2026-04-04T11:21:03.228Z</time></trkpt><trkpt lat="43.8300187" lon="12.3611846"><ele>801.0</ele><time>2026-04-04T11:21:04.225Z</time></trkpt><trkpt lat="43.8299353" lon="12.3613533"><ele>799.0</ele><time>2026-04-04T11:21:05.226Z</time></trkpt><trkpt lat="43.8298635" lon="12.3615263"><ele>799.0</ele><time>2026-04-04T11:21:06.228Z</time></trkpt><trkpt lat="43.8298101" lon="12.3616974"><ele>799.0</ele><time>2026-04-04T11:21:07.226Z</time></trkpt><trkpt lat="43.8297499" lon="12.3618541"><ele>799.0</ele><time>2026-04-04T11:21:08.229Z</time></trkpt><trkpt lat="43.8296768" lon="12.3619857"><ele>799.0</ele><time>2026-04-04T11:21:09.227Z</time></trkpt><trkpt lat="43.8295673" lon="12.3620663"><ele>799.0</ele><time>2026-04-04T11:21:10.227Z</time></trkpt><trkpt lat="43.8294511" lon="12.3621305"><ele>799.0</ele><time>2026-04-04T11:21:11.228Z</time></trkpt><trkpt lat="43.8293174" lon="12.3621705"><ele>799.0</ele><time>2026-04-04T11:21:12.224Z</time></trkpt><trkpt lat="43.8291808" lon="12.3622429"><ele>799.0</ele><time>2026-04-04T11:21:13.227Z</time></trkpt><trkpt lat="43.829056" lon="12.3623537"><ele>795.6666666666666</ele><time>2026-04-04T11:21:14.224Z</time></trkpt><trkpt lat="43.8289385" lon="12.3624857"><ele>792.3333333333333</ele><time>2026-04-04T11:21:15.23Z</time></trkpt><trkpt lat="43.8288246" lon="12.3626399"><ele>789.0</ele><time>2026-04-04T11:21:16.227Z</time></trkpt><trkpt lat="43.8287076" lon="12.362801"><ele>789.0</ele><time>2026-04-04T11:21:17.227Z</time></trkpt><trkpt lat="43.8285855" lon="12.3629502"><ele>789.0</ele><time>2026-04-04T11:21:18.228Z</time></trkpt><trkpt lat="43.8284476" lon="12.3630822"><ele>789.0</ele><time>2026-04-04T11:21:19.226Z</time></trkpt><trkpt lat="43.8283078" lon="12.3632089"><ele>786.3333333333333</ele><time>2026-04-04T11:21:20.229Z</time></trkpt><trkpt lat="43.8281604" lon="12.363329"><ele>783.6666666666666</ele><time>2026-04-04T11:21:21.225Z</time></trkpt><trkpt lat="43.8280186" lon="12.3634608"><ele>781.0</ele><time>2026-04-04T11:21:22.225Z</time></trkpt><trkpt lat="43.8279008" lon="12.3635935"><ele>781.0</ele><time>2026-04-04T11:21:23.229Z</time></trkpt><trkpt lat="43.8277793" lon="12.3637407"><ele>781.0</ele><time>2026-04-04T11:21:24.226Z</time></trkpt><trkpt lat="43.827658" lon="12.3638926"><ele>781.0</ele><time>2026-04-04T11:21:25.228Z</time></trkpt><trkpt lat="43.827526" lon="12.3640256"><ele>779.6666666666666</ele><time>2026-04-04T11:21:26.228Z</time></trkpt><trkpt lat="43.8273963" lon="12.3641546"><ele>778.3333333333333</ele><time>2026-04-04T11:21:27.226Z</time></trkpt><trkpt lat="43.8272579" lon="12.3642751"><ele>777.0</ele><time>2026-04-04T11:21:28.23Z</time></trkpt><trkpt lat="43.8271184" lon="12.3643731"><ele>777.0</ele><time>2026-04-04T11:21:29.226Z</time></trkpt><trkpt lat="43.8269883" lon="12.3644507"><ele>777.0</ele><time>2026-04-04T11:21:30.229Z</time></trkpt><trkpt lat="43.826863" lon="12.3645162"><ele>777.0</ele><time>2026-04-04T11:21:31.225Z</time></trkpt><trkpt lat="43.826737" lon="12.3645611"><ele>777.0</ele><time>2026-04-04T11:21:32.229Z</time></trkpt><trkpt lat="43.8266037" lon="12.3645566"><ele>780.0</ele><time>2026-04-04T11:21:33.228Z</time></trkpt><trkpt lat="43.8264722" lon="12.3645228"><ele>783.0</ele><time>2026-04-04T11:21:34.227Z</time></trkpt><trkpt lat="43.8263402" lon="12.3644697"><ele>786.0</ele><time>2026-04-04T11:21:35.225Z</time></trkpt><trkpt lat="43.8262137" lon="12.3644058"><ele>789.0</ele><time>2026-04-04T11:21:36.227Z</time></trkpt><trkpt lat="43.8260868" lon="12.3643389"><ele>784.0</ele><time>2026-04-04T11:21:37.225Z</time></trkpt><trkpt lat="43.8259714" lon="12.3642413"><ele>779.0</ele><time>2026-04-04T11:21:38.227Z</time></trkpt><trkpt lat="43.8258603" lon="12.3641342"><ele>774.0</ele><time>2026-04-04T11:21:39.228Z</time></trkpt><trkpt lat="43.8257474" lon="12.3640056"><ele>769.0</ele><time>2026-04-04T11:21:40.225Z</time></trkpt><trkpt lat="43.8256328" lon="12.3638664"><ele>777.0</ele><time>2026-04-04T11:21:41.225Z</time></trkpt><trkpt lat="43.8255153" lon="12.3637239"><ele>785.0</ele><time>2026-04-04T11:21:42.224Z</time></trkpt><trkpt lat="43.8253972" lon="12.363587"><ele>793.0</ele><time>2026-04-04T11:21:43.226Z</time></trkpt><trkpt lat="43.8252815" lon="12.3634624"><ele>793.0</ele><time>2026-04-04T11:21:44.228Z</time></trkpt><trkpt lat="43.8251511" lon="12.3633476"><ele>793.0</ele><time>2026-04-04T11:21:45.225Z</time></trkpt><trkpt lat="43.825013" lon="12.3632532"><ele>793.0</ele><time>2026-04-04T11:21:46.229Z</time></trkpt><trkpt lat="43.8248701" lon="12.3631843"><ele>786.0</ele><time>2026-04-04T11:21:47.229Z</time></trkpt><trkpt lat="43.8247333" lon="12.3631363"><ele>779.0</ele><time>2026-04-04T11:21:48.225Z</time></trkpt><trkpt lat="43.8245985" lon="12.3631099"><ele>772.0</ele><time>2026-04-04T11:21:49.229Z</time></trkpt><trkpt lat="43.8244775" lon="12.363111"><ele>765.0</ele><time>2026-04-04T11:21:50.228Z</time></trkpt><trkpt lat="43.8243699" lon="12.3630962"><ele>762.0</ele><time>2026-04-04T11:21:51.228Z</time></trkpt><trkpt lat="43.8242899" lon="12.3630768"><ele>759.0</ele><time>2026-04-04T11:21:52.229Z</time></trkpt><trkpt lat="43.8242224" lon="12.3630056"><ele>756.0</ele><time>2026-04-04T11:21:53.227Z</time></trkpt><trkpt lat="43.8241942" lon="12.3629163"><ele>753.0</ele><time>2026-04-04T11:21:54.226Z</time></trkpt><trkpt lat="43.8242001" lon="12.3627693"><ele>750.0</ele><time>2026-04-04T11:21:55.228Z</time></trkpt><trkpt lat="43.8242726" lon="12.3626405"><ele>751.5</ele><time>2026-04-04T11:21:56.227Z</time></trkpt><trkpt lat="43.8243248" lon="12.3624923"><ele>753.0</ele><time>2026-04-04T11:21:57.227Z</time></trkpt><trkpt lat="43.8243556" lon="12.3623258"><ele>754.5</ele><time>2026-04-04T11:21:58.227Z</time></trkpt><trkpt lat="43.8243357" lon="12.3621552"><ele>756.0</ele><time>2026-04-04T11:21:59.228Z</time></trkpt><trkpt lat="43.8242848" lon="12.3619776"><ele>756.0</ele><time>2026-04-04T11:22:00.227Z</time></trkpt><trkpt lat="43.8242225" lon="12.3617993"><ele>756.0</ele><time>2026-04-04T11:22:01.229Z</time></trkpt><trkpt lat="43.8241317" lon="12.3616692"><ele>756.0</ele><time>2026-04-04T11:22:02.227Z</time></trkpt><trkpt lat="43.8240337" lon="12.3615536"><ele>756.0</ele><time>2026-04-04T11:22:03.225Z</time></trkpt><trkpt lat="43.8238967" lon="12.3614836"><ele>756.0</ele><time>2026-04-04T11:22:04.226Z</time></trkpt><trkpt lat="43.8237614" lon="12.3614195"><ele>756.0</ele><time>2026-04-04T11:22:05.229Z</time></trkpt><trkpt lat="43.8235949" lon="12.3614352"><ele>756.0</ele><time>2026-04-04T11:22:06.224Z</time></trkpt><trkpt lat="43.8234417" lon="12.3614622"><ele>748.3333333333334</ele><time>2026-04-04T11:22:07.228Z</time></trkpt><trkpt lat="43.8232804" lon="12.3615127"><ele>740.6666666666667</ele><time>2026-04-04T11:22:08.226Z</time></trkpt><trkpt lat="43.8231122" lon="12.3615683"><ele>733.0</ele><time>2026-04-04T11:22:09.229Z</time></trkpt><trkpt lat="43.8229355" lon="12.3616335"><ele>733.0</ele><time>2026-04-04T11:22:10.227Z</time></trkpt><trkpt lat="43.8227473" lon="12.361693"><ele>733.0</ele><time>2026-04-04T11:22:11.225Z</time></trkpt><trkpt lat="43.8225632" lon="12.3617539"><ele>733.0</ele><time>2026-04-04T11:22:12.226Z</time></trkpt><trkpt lat="43.8223869" lon="12.3618161"><ele>731.6666666666667</ele><time>2026-04-04T11:22:13.222Z</time></trkpt><trkpt lat="43.8222086" lon="12.3618994"><ele>730.3333333333334</ele><time>2026-04-04T11:22:14.226Z</time></trkpt><trkpt lat="43.8220361" lon="12.3620232"><ele>729.0</ele><time>2026-04-04T11:22:15.224Z</time></trkpt><trkpt lat="43.8218728" lon="12.3621793"><ele>734.3333333333334</ele><time>2026-04-04T11:22:16.226Z</time></trkpt><trkpt lat="43.8217113" lon="12.3623834"><ele>739.6666666666667</ele><time>2026-04-04T11:22:17.227Z</time></trkpt><trkpt lat="43.8215591" lon="12.3625812"><ele>745.0</ele><time>2026-04-04T11:22:18.228Z</time></trkpt><trkpt lat="43.8214177" lon="12.3627854"><ele>745.0</ele><time>2026-04-04T11:22:19.229Z</time></trkpt><trkpt lat="43.8212926" lon="12.3629698"><ele>745.0</ele><time>2026-04-04T11:22:20.224Z</time></trkpt><trkpt lat="43.8211709" lon="12.3631479"><ele>745.0</ele><time>2026-04-04T11:22:21.224Z</time></trkpt><trkpt lat="43.8210487" lon="12.3633148"><ele>747.75</ele><time>2026-04-04T11:22:22.228Z</time></trkpt><trkpt lat="43.8209484" lon="12.3634417"><ele>750.5</ele><time>2026-04-04T11:22:23.227Z</time></trkpt><trkpt lat="43.8208409" lon="12.3635583"><ele>753.25</ele><time>2026-04-04T11:22:24.224Z</time></trkpt><trkpt lat="43.8207258" lon="12.3636478"><ele>756.0</ele><time>2026-04-04T11:22:25.224Z</time></trkpt><trkpt lat="43.8206013" lon="12.3636948"><ele>756.0</ele><time>2026-04-04T11:22:26.228Z</time></trkpt><trkpt lat="43.8204605" lon="12.3637161"><ele>756.0</ele><time>2026-04-04T11:22:27.227Z</time></trkpt><trkpt lat="43.8203139" lon="12.3636975"><ele>756.0</ele><time>2026-04-04T11:22:28.229Z</time></trkpt><trkpt lat="43.8201576" lon="12.363671"><ele>756.0</ele><time>2026-04-04T11:22:29.23Z</time></trkpt><trkpt lat="43.8199958" lon="12.3636373"><ele>758.3333333333334</ele><time>2026-04-04T11:22:30.226Z</time></trkpt><trkpt lat="43.8198404" lon="12.3635998"><ele>760.6666666666667</ele><time>2026-04-04T11:22:31.227Z</time></trkpt><trkpt lat="43.8196829" lon="12.3635674"><ele>763.0</ele><time>2026-04-04T11:22:32.227Z</time></trkpt><trkpt lat="43.8195338" lon="12.3634795"><ele>763.0</ele><time>2026-04-04T11:22:33.229Z</time></trkpt><trkpt lat="43.8194083" lon="12.3633633"><ele>763.0</ele><time>2026-04-04T11:22:34.228Z</time></trkpt><trkpt lat="43.8192702" lon="12.363262"><ele>763.0</ele><time>2026-04-04T11:22:35.223Z</time></trkpt><trkpt lat="43.8191376" lon="12.363185"><ele>762.3333333333334</ele><time>2026-04-04T11:22:36.227Z</time></trkpt><trkpt lat="43.8189903" lon="12.3631515"><ele>761.6666666666666</ele><time>2026-04-04T11:22:37.228Z</time></trkpt><trkpt lat="43.8188479" lon="12.3631305"><ele>761.0</ele><time>2026-04-04T11:22:38.229Z</time></trkpt><trkpt lat="43.8186642" lon="12.363188"><ele>761.0</ele><time>2026-04-04T11:22:39.228Z</time></trkpt><trkpt lat="43.8184953" lon="12.3632307"><ele>761.0</ele><time>2026-04-04T11:22:40.227Z</time></trkpt><trkpt lat="43.8183171" lon="12.3632784"><ele>761.0</ele><time>2026-04-04T11:22:41.227Z</time></trkpt><trkpt lat="43.8181387" lon="12.3633248"><ele>762.3333333333333</ele><time>2026-04-04T11:22:42.224Z</time></trkpt><trkpt lat="43.8179623" lon="12.3633605"><ele>763.6666666666666</ele><time>2026-04-04T11:22:43.225Z</time></trkpt><trkpt lat="43.8177879" lon="12.3633881"><ele>765.0</ele><time>2026-04-04T11:22:44.229Z</time></trkpt><trkpt lat="43.817626" lon="12.363411"><ele>767.0</ele><time>2026-04-04T11:22:45.227Z</time></trkpt><trkpt lat="43.8174751" lon="12.3634412"><ele>769.0</ele><time>2026-04-04T11:22:46.225Z</time></trkpt><trkpt lat="43.8173396" lon="12.3634995"><ele>771.0</ele><time>2026-04-04T11:22:47.229Z</time></trkpt><trkpt lat="43.817223" lon="12.3635922"><ele>773.0</ele><time>2026-04-04T11:22:48.23Z</time></trkpt><trkpt lat="43.8171212" lon="12.3637203"><ele>769.0</ele><time>2026-04-04T11:22:49.226Z</time></trkpt><trkpt lat="43.8170352" lon="12.3638761"><ele>765.0</ele><time>2026-04-04T11:22:50.226Z</time></trkpt><trkpt lat="43.8169759" lon="12.3640395"><ele>761.0</ele><time>2026-04-04T11:22:51.224Z</time></trkpt><trkpt lat="43.816951" lon="12.3642047"><ele>757.0</ele><time>2026-04-04T11:22:52.227Z</time></trkpt><trkpt lat="43.8169602" lon="12.3643685"><ele>757.0</ele><time>2026-04-04T11:22:53.223Z</time></trkpt><trkpt lat="43.8170104" lon="12.3645384"><ele>757.0</ele><time>2026-04-04T11:22:54.228Z</time></trkpt><trkpt lat="43.8170575" lon="12.3647167"><ele>757.0</ele><time>2026-04-04T11:22:55.226Z</time></trkpt><trkpt lat="43.8171049" lon="12.3648857"><ele>757.0</ele><time>2026-04-04T11:22:56.23Z</time></trkpt><trkpt lat="43.8171427" lon="12.3650524"><ele>756.25</ele><time>2026-04-04T11:22:57.226Z</time></trkpt><trkpt lat="43.8171238" lon="12.3652094"><ele>755.5</ele><time>2026-04-04T11:22:58.223Z</time></trkpt><trkpt lat="43.8170818" lon="12.3653513"><ele>754.75</ele><time>2026-04-04T11:22:59.229Z</time></trkpt><trkpt lat="43.816991" lon="12.3654976"><ele>754.0</ele><time>2026-04-04T11:23:00.223Z</time></trkpt><trkpt lat="43.8168642" lon="12.3656076"><ele>756.6666666666667</ele><time>2026-04-04T11:23:01.226Z</time></trkpt><trkpt lat="43.8167411" lon="12.3657297"><ele>759.3333333333334</ele><time>2026-04-04T11:23:02.229Z</time></trkpt><trkpt lat="43.816622" lon="12.365857"><ele>762.0</ele><time>2026-04-04T11:23:03.225Z</time></trkpt><trkpt lat="43.8165123" lon="12.3660035"><ele>762.0</ele><time>2026-04-04T11:23:04.229Z</time></trkpt><trkpt lat="43.8164105" lon="12.3661685"><ele>762.0</ele><time>2026-04-04T11:23:05.227Z</time></trkpt><trkpt lat="43.8163238" lon="12.3663555"><ele>762.0</ele><time>2026-04-04T11:23:06.229Z</time></trkpt><trkpt lat="43.8162381" lon="12.3665571"><ele>761.6666666666666</ele><time>2026-04-04T11:23:07.228Z</time></trkpt><trkpt lat="43.8161532" lon="12.3667547"><ele>761.3333333333333</ele><time>2026-04-04T11:23:08.227Z</time></trkpt><trkpt lat="43.8160681" lon="12.3669456"><ele>761.0</ele><time>2026-04-04T11:23:09.224Z</time></trkpt><trkpt lat="43.8159806" lon="12.3671322"><ele>760.0</ele><time>2026-04-04T11:23:10.228Z</time></trkpt><trkpt lat="43.8158864" lon="12.3673154"><ele>759.0</ele><time>2026-04-04T11:23:11.225Z</time></trkpt><trkpt lat="43.8157821" lon="12.3674955"><ele>758.0</ele><time>2026-04-04T11:23:12.225Z</time></trkpt><trkpt lat="43.815672" lon="12.3676651"><ele>758.0</ele><time>2026-04-04T11:23:13.229Z</time></trkpt><trkpt lat="43.8155581" lon="12.3678357"><ele>758.0</ele><time>2026-04-04T11:23:14.225Z</time></trkpt><trkpt lat="43.8154391" lon="12.3680062"><ele>758.0</ele><time>2026-04-04T11:23:15.225Z</time></trkpt><trkpt lat="43.8153207" lon="12.3681689"><ele>756.6666666666666</ele><time>2026-04-04T11:23:16.229Z</time></trkpt><trkpt lat="43.8151995" lon="12.3683348"><ele>755.3333333333334</ele><time>2026-04-04T11:23:17.228Z</time></trkpt><trkpt lat="43.8150811" lon="12.3685092"><ele>754.0</ele><time>2026-04-04T11:23:18.225Z</time></trkpt><trkpt lat="43.8149703" lon="12.3686934"><ele>752.3333333333334</ele><time>2026-04-04T11:23:19.225Z</time></trkpt><trkpt lat="43.8148744" lon="12.3688777"><ele>750.6666666666666</ele><time>2026-04-04T11:23:20.228Z</time></trkpt><trkpt lat="43.8147815" lon="12.3690511"><ele>749.0</ele><time>2026-04-04T11:23:21.225Z</time></trkpt><trkpt lat="43.8146914" lon="12.3692267"><ele>749.0</ele><time>2026-04-04T11:23:22.229Z</time></trkpt><trkpt lat="43.8145946" lon="12.3693878"><ele>749.0</ele><time>2026-04-04T11:23:23.228Z</time></trkpt><trkpt lat="43.8144995" lon="12.3695421"><ele>749.0</ele><time>2026-04-04T11:23:24.226Z</time></trkpt><trkpt lat="43.8143979" lon="12.3696865"><ele>749.0</ele><time>2026-04-04T11:23:25.229Z</time></trkpt><trkpt lat="43.8142917" lon="12.3698057"><ele>748.75</ele><time>2026-04-04T11:23:26.23Z</time></trkpt><trkpt lat="43.814169" lon="12.3698902"><ele>748.5</ele><time>2026-04-04T11:23:27.226Z</time></trkpt><trkpt lat="43.8140375" lon="12.3699345"><ele>748.25</ele><time>2026-04-04T11:23:28.228Z</time></trkpt><trkpt lat="43.8139101" lon="12.3699589"><ele>748.0</ele><time>2026-04-04T11:23:29.23Z</time></trkpt><trkpt lat="43.8137837" lon="12.3699719"><ele>748.0</ele><time>2026-04-04T11:23:30.224Z</time></trkpt><trkpt lat="43.8136716" lon="12.370008"><ele>748.0</ele><time>2026-04-04T11:23:31.229Z</time></trkpt><trkpt lat="43.8135751" lon="12.3700621"><ele>748.0</ele><time>2026-04-04T11:23:32.228Z</time></trkpt><trkpt lat="43.8134936" lon="12.3701571"><ele>748.0</ele><time>2026-04-04T11:23:33.227Z</time></trkpt><trkpt lat="43.8134272" lon="12.370295"><ele>748.0</ele><time>2026-04-04T11:23:34.226Z</time></trkpt><trkpt lat="43.8133784" lon="12.3704467"><ele>746.0</ele><time>2026-04-04T11:23:35.223Z</time></trkpt><trkpt lat="43.8133395" lon="12.3706096"><ele>744.0</ele><time>2026-04-04T11:23:36.228Z</time></trkpt><trkpt lat="43.813315" lon="12.3707898"><ele>742.0</ele><time>2026-04-04T11:23:37.226Z</time></trkpt><trkpt lat="43.8133142" lon="12.3710032"><ele>740.0</ele><time>2026-04-04T11:23:38.226Z</time></trkpt><trkpt lat="43.8133376" lon="12.3712241"><ele>739.3333333333333</ele><time>2026-04-04T11:23:39.226Z</time></trkpt><trkpt lat="43.8133636" lon="12.3714397"><ele>738.6666666666666</ele><time>2026-04-04T11:23:40.23Z</time></trkpt><trkpt lat="43.8133881" lon="12.3716481"><ele>738.0</ele><time>2026-04-04T11:23:41.226Z</time></trkpt><trkpt lat="43.8134123" lon="12.3718413"><ele>738.0</ele><time>2026-04-04T11:23:42.225Z</time></trkpt><trkpt lat="43.8134332" lon="12.3720059"><ele>738.0</ele><time>2026-04-04T11:23:43.227Z</time></trkpt><trkpt lat="43.8134485" lon="12.3721495"><ele>738.0</ele><time>2026-04-04T11:23:44.228Z</time></trkpt><trkpt lat="43.813454" lon="12.3722719"><ele>738.0</ele><time>2026-04-04T11:23:45.226Z</time></trkpt><trkpt lat="43.8134486" lon="12.3723758"><ele>738.0</ele><time>2026-04-04T11:23:46.227Z</time></trkpt><trkpt lat="43.813398" lon="12.3724362"><ele>738.0</ele><time>2026-04-04T11:23:47.229Z</time></trkpt><trkpt lat="43.8133338" lon="12.3724232"><ele>738.0</ele><time>2026-04-04T11:23:48.23Z</time></trkpt><trkpt lat="43.8132632" lon="12.3722335"><ele>738.0</ele><time>2026-04-04T11:23:50.226Z</time></trkpt><trkpt lat="43.8132258" lon="12.3720829"><ele>738.0</ele><time>2026-04-04T11:23:51.225Z</time></trkpt><trkpt lat="43.8131877" lon="12.3719324"><ele>738.0</ele><time>2026-04-04T11:23:52.226Z</time></trkpt><trkpt lat="43.8131395" lon="12.3717585"><ele>738.0</ele><time>2026-04-04T11:23:53.227Z</time></trkpt><trkpt lat="43.813097" lon="12.3715682"><ele>738.0</ele><time>2026-04-04T11:23:54.226Z</time></trkpt><trkpt lat="43.8130559" lon="12.3713754"><ele>738.0</ele><time>2026-04-04T11:23:55.227Z</time></trkpt><trkpt lat="43.8130064" lon="12.371194"><ele>738.0</ele><time>2026-04-04T11:23:56.224Z</time></trkpt><trkpt lat="43.8129548" lon="12.3709925"><ele>738.5</ele><time>2026-04-04T11:23:57.227Z</time></trkpt><trkpt lat="43.8129063" lon="12.3708141"><ele>739.0</ele><time>2026-04-04T11:23:58.227Z</time></trkpt><trkpt lat="43.8128541" lon="12.3706524"><ele>739.5</ele><time>2026-04-04T11:23:59.225Z</time></trkpt><trkpt lat="43.8127893" lon="12.3705012"><ele>740.0</ele><time>2026-04-04T11:24:00.225Z</time></trkpt><trkpt lat="43.812697" lon="12.3703685"><ele>736.25</ele><time>2026-04-04T11:24:01.225Z</time></trkpt><trkpt lat="43.8125964" lon="12.3702604"><ele>732.5</ele><time>2026-04-04T11:24:02.226Z</time></trkpt><trkpt lat="43.8124947" lon="12.3701453"><ele>728.75</ele><time>2026-04-04T11:24:03.229Z</time></trkpt><trkpt lat="43.8124065" lon="12.3700341"><ele>725.0</ele><time>2026-04-04T11:24:04.228Z</time></trkpt><trkpt lat="43.8123315" lon="12.3699026"><ele>725.0</ele><time>2026-04-04T11:24:05.226Z</time></trkpt><trkpt lat="43.812289" lon="12.3697887"><ele>725.0</ele><time>2026-04-04T11:24:06.225Z</time></trkpt><trkpt lat="43.8123031" lon="12.369656"><ele>725.0</ele><time>2026-04-04T11:24:07.226Z</time></trkpt><trkpt lat="43.8123421" lon="12.3695215"><ele>725.0</ele><time>2026-04-04T11:24:08.229Z</time></trkpt><trkpt lat="43.8124191" lon="12.3693935"><ele>725.0</ele><time>2026-04-04T11:24:09.229Z</time></trkpt><trkpt lat="43.8124977" lon="12.3692513"><ele>725.25</ele><time>2026-04-04T11:24:10.226Z</time></trkpt><trkpt lat="43.8125772" lon="12.3690856"><ele>725.5</ele><time>2026-04-04T11:24:11.226Z</time></trkpt><trkpt lat="43.81266" lon="12.3689147"><ele>725.75</ele><time>2026-04-04T11:24:12.225Z</time></trkpt><trkpt lat="43.8127165" lon="12.3687263"><ele>726.0</ele><time>2026-04-04T11:24:13.228Z</time></trkpt><trkpt lat="43.8127433" lon="12.3685245"><ele>726.0</ele><time>2026-04-04T11:24:14.224Z</time></trkpt><trkpt lat="43.8127492" lon="12.3683132"><ele>726.0</ele><time>2026-04-04T11:24:15.226Z</time></trkpt><trkpt lat="43.8127645" lon="12.3680958"><ele>726.0</ele><time>2026-04-04T11:24:16.226Z</time></trkpt><trkpt lat="43.8128062" lon="12.3678743"><ele>723.3333333333334</ele><time>2026-04-04T11:24:17.226Z</time></trkpt><trkpt lat="43.8128516" lon="12.3676591"><ele>720.6666666666667</ele><time>2026-04-04T11:24:18.227Z</time></trkpt><trkpt lat="43.8129134" lon="12.3674499"><ele>718.0</ele><time>2026-04-04T11:24:19.228Z</time></trkpt><trkpt lat="43.8129742" lon="12.3672572"><ele>716.5</ele><time>2026-04-04T11:24:20.228Z</time></trkpt><trkpt lat="43.8130437" lon="12.3670677"><ele>715.0</ele><time>2026-04-04T11:24:21.23Z</time></trkpt><trkpt lat="43.8131219" lon="12.3668916"><ele>713.5</ele><time>2026-04-04T11:24:22.23Z</time></trkpt><trkpt lat="43.8131973" lon="12.366734"><ele>712.0</ele><time>2026-04-04T11:24:23.227Z</time></trkpt><trkpt lat="43.813274" lon="12.3665897"><ele>712.0</ele><time>2026-04-04T11:24:24.227Z</time></trkpt><trkpt lat="43.813333" lon="12.3664442"><ele>712.0</ele><time>2026-04-04T11:24:25.227Z</time></trkpt><trkpt lat="43.8133638" lon="12.3662961"><ele>712.0</ele><time>2026-04-04T11:24:26.225Z</time></trkpt><trkpt lat="43.8133439" lon="12.3661273"><ele>712.0</ele><time>2026-04-04T11:24:27.227Z</time></trkpt><trkpt lat="43.8132985" lon="12.3659712"><ele>712.25</ele><time>2026-04-04T11:24:28.225Z</time></trkpt><trkpt lat="43.8132147" lon="12.3658402"><ele>712.5</ele><time>2026-04-04T11:24:29.227Z</time></trkpt><trkpt lat="43.8130889" lon="12.3657509"><ele>712.75</ele><time>2026-04-04T11:24:30.228Z</time></trkpt><trkpt lat="43.8129463" lon="12.3656708"><ele>713.0</ele><time>2026-04-04T11:24:31.228Z</time></trkpt><trkpt lat="43.8127972" lon="12.3655992"><ele>711.5</ele><time>2026-04-04T11:24:32.227Z</time></trkpt><trkpt lat="43.8126463" lon="12.3655283"><ele>710.0</ele><time>2026-04-04T11:24:33.227Z</time></trkpt><trkpt lat="43.8125142" lon="12.36545"><ele>708.5</ele><time>2026-04-04T11:24:34.228Z</time></trkpt><trkpt lat="43.8123913" lon="12.3653465"><ele>707.0</ele><time>2026-04-04T11:24:35.228Z</time></trkpt><trkpt lat="43.8122632" lon="12.3652072"><ele>707.0</ele><time>2026-04-04T11:24:36.23Z</time></trkpt><trkpt lat="43.8121277" lon="12.36505"><ele>707.0</ele><time>2026-04-04T11:24:37.228Z</time></trkpt><trkpt lat="43.8120007" lon="12.3648957"><ele>707.0</ele><time>2026-04-04T11:24:38.228Z</time></trkpt><trkpt lat="43.8118729" lon="12.3647475"><ele>705.6666666666666</ele><time>2026-04-04T11:24:39.227Z</time></trkpt><trkpt lat="43.8117398" lon="12.3646077"><ele>704.3333333333334</ele><time>2026-04-04T11:24:40.23Z</time></trkpt><trkpt lat="43.8116059" lon="12.3644971"><ele>703.0</ele><time>2026-04-04T11:24:41.228Z</time></trkpt><trkpt lat="43.8114459" lon="12.3644431"><ele>703.0</ele><time>2026-04-04T11:24:42.226Z</time></trkpt><trkpt lat="43.8112662" lon="12.3644084"><ele>703.0</ele><time>2026-04-04T11:24:43.228Z</time></trkpt><trkpt lat="43.8110832" lon="12.3643793"><ele>703.0</ele><time>2026-04-04T11:24:44.229Z</time></trkpt><trkpt lat="43.8108996" lon="12.3643542"><ele>698.6666666666667</ele><time>2026-04-04T11:24:45.229Z</time></trkpt><trkpt lat="43.8107233" lon="12.3643325"><ele>694.3333333333334</ele><time>2026-04-04T11:24:46.228Z</time></trkpt><trkpt lat="43.8105567" lon="12.3643179"><ele>690.0</ele><time>2026-04-04T11:24:47.23Z</time></trkpt><trkpt lat="43.8103952" lon="12.3643338"><ele>690.0</ele><time>2026-04-04T11:24:48.229Z</time></trkpt><trkpt lat="43.8102525" lon="12.3644082"><ele>690.0</ele><time>2026-04-04T11:24:49.225Z</time></trkpt><trkpt lat="43.810112" lon="12.3645211"><ele>690.0</ele><time>2026-04-04T11:24:50.224Z</time></trkpt><trkpt lat="43.8099861" lon="12.3646346"><ele>688.75</ele><time>2026-04-04T11:24:51.227Z</time></trkpt><trkpt lat="43.8098633" lon="12.3647443"><ele>687.5</ele><time>2026-04-04T11:24:52.228Z</time></trkpt><trkpt lat="43.8097275" lon="12.3648259"><ele>686.25</ele><time>2026-04-04T11:24:53.228Z</time></trkpt><trkpt lat="43.8095798" lon="12.3648668"><ele>685.0</ele><time>2026-04-04T11:24:54.227Z</time></trkpt><trkpt lat="43.8094171" lon="12.3648913"><ele>683.3333333333334</ele><time>2026-04-04T11:24:55.227Z</time></trkpt><trkpt lat="43.8092432" lon="12.3649119"><ele>681.6666666666666</ele><time>2026-04-04T11:24:56.227Z</time></trkpt><trkpt lat="43.8090615" lon="12.3649359"><ele>680.0</ele><time>2026-04-04T11:24:57.229Z</time></trkpt><trkpt lat="43.8088804" lon="12.3649746"><ele>680.0</ele><time>2026-04-04T11:24:58.227Z</time></trkpt><trkpt lat="43.8087039" lon="12.3650137"><ele>680.0</ele><time>2026-04-04T11:24:59.226Z</time></trkpt><trkpt lat="43.8085294" lon="12.3650864"><ele>680.0</ele><time>2026-04-04T11:25:00.227Z</time></trkpt><trkpt lat="43.8083634" lon="12.3652058"><ele>679.6666666666666</ele><time>2026-04-04T11:25:01.225Z</time></trkpt><trkpt lat="43.8082057" lon="12.3653388"><ele>679.3333333333334</ele><time>2026-04-04T11:25:02.225Z</time></trkpt><trkpt lat="43.8080566" lon="12.3654743"><ele>679.0</ele><time>2026-04-04T11:25:03.229Z</time></trkpt><trkpt lat="43.8079235" lon="12.3656069"><ele>678.75</ele><time>2026-04-04T11:25:04.228Z</time></trkpt><trkpt lat="43.807784" lon="12.3657145"><ele>678.5</ele><time>2026-04-04T11:25:05.224Z</time></trkpt><trkpt lat="43.8076515" lon="12.3657984"><ele>678.25</ele><time>2026-04-04T11:25:06.225Z</time></trkpt><trkpt lat="43.8075129" lon="12.3658363"><ele>678.0</ele><time>2026-04-04T11:25:07.224Z</time></trkpt><trkpt lat="43.8073108" lon="12.3657907"><ele>678.0</ele><time>2026-04-04T11:25:08.224Z</time></trkpt><trkpt lat="43.8071286" lon="12.365746"><ele>678.0</ele><time>2026-04-04T11:25:09.222Z</time></trkpt><trkpt lat="43.8069568" lon="12.3656947"><ele>678.0</ele><time>2026-04-04T11:25:10.224Z</time></trkpt><trkpt lat="43.8068083" lon="12.3656308"><ele>678.6666666666666</ele><time>2026-04-04T11:25:11.222Z</time></trkpt><trkpt lat="43.8066747" lon="12.3655283"><ele>679.3333333333333</ele><time>2026-04-04T11:25:12.225Z</time></trkpt><trkpt lat="43.8065386" lon="12.3653729"><ele>680.0</ele><time>2026-04-04T11:25:13.225Z</time></trkpt><trkpt lat="43.806414" lon="12.3652024"><ele>680.0</ele><time>2026-04-04T11:25:14.225Z</time></trkpt><trkpt lat="43.80629" lon="12.3650414"><ele>680.0</ele><time>2026-04-04T11:25:15.226Z</time></trkpt><trkpt lat="43.8061628" lon="12.3648857"><ele>680.0</ele><time>2026-04-04T11:25:16.226Z</time></trkpt><trkpt lat="43.8060195" lon="12.3647465"><ele>680.6666666666666</ele><time>2026-04-04T11:25:17.228Z</time></trkpt><trkpt lat="43.805861" lon="12.364633"><ele>681.3333333333334</ele><time>2026-04-04T11:25:18.224Z</time></trkpt><trkpt lat="43.8056941" lon="12.364536"><ele>682.0</ele><time>2026-04-04T11:25:19.226Z</time></trkpt><trkpt lat="43.8055208" lon="12.3644601"><ele>682.0</ele><time>2026-04-04T11:25:20.223Z</time></trkpt><trkpt lat="43.8053496" lon="12.364409"><ele>682.0</ele><time>2026-04-04T11:25:21.229Z</time></trkpt><trkpt lat="43.8051737" lon="12.3643929"><ele>682.0</ele><time>2026-04-04T11:25:22.229Z</time></trkpt><trkpt lat="43.8049935" lon="12.3644052"><ele>681.6666666666667</ele><time>2026-04-04T11:25:23.228Z</time></trkpt><trkpt lat="43.8048132" lon="12.3644317"><ele>681.3333333333334</ele><time>2026-04-04T11:25:24.228Z</time></trkpt><trkpt lat="43.8046334" lon="12.3644603"><ele>681.0</ele><time>2026-04-04T11:25:25.227Z</time></trkpt><trkpt lat="43.8044562" lon="12.3644701"><ele>681.3333333333334</ele><time>2026-04-04T11:25:26.226Z</time></trkpt><trkpt lat="43.804282" lon="12.3644921"><ele>681.6666666666667</ele><time>2026-04-04T11:25:27.222Z</time></trkpt><trkpt lat="43.8041126" lon="12.3645113"><ele>682.0</ele><time>2026-04-04T11:25:28.225Z</time></trkpt><trkpt lat="43.8039515" lon="12.3645312"><ele>682.0</ele><time>2026-04-04T11:25:29.222Z</time></trkpt><trkpt lat="43.8038058" lon="12.3645444"><ele>682.0</ele><time>2026-04-04T11:25:30.226Z</time></trkpt><trkpt lat="43.8036732" lon="12.3645427"><ele>682.0</ele><time>2026-04-04T11:25:31.222Z</time></trkpt><trkpt lat="43.8035579" lon="12.3645554"><ele>682.0</ele><time>2026-04-04T11:25:32.222Z</time></trkpt><trkpt lat="43.8034447" lon="12.3645907"><ele>681.25</ele><time>2026-04-04T11:25:33.224Z</time></trkpt><trkpt lat="43.8033352" lon="12.3646669"><ele>680.5</ele><time>2026-04-04T11:25:34.225Z</time></trkpt><trkpt lat="43.8032388" lon="12.3647845"><ele>679.75</ele><time>2026-04-04T11:25:35.222Z</time></trkpt><trkpt lat="43.8031589" lon="12.3649129"><ele>679.0</ele><time>2026-04-04T11:25:36.222Z</time></trkpt><trkpt lat="43.8030799" lon="12.365027"><ele>677.8333333333334</ele><time>2026-04-04T11:25:37.225Z</time></trkpt><trkpt lat="43.8030227" lon="12.3651212"><ele>676.6666666666667</ele><time>2026-04-04T11:25:38.224Z</time></trkpt><trkpt lat="43.8029757" lon="12.3651925"><ele>675.5</ele><time>2026-04-04T11:25:39.223Z</time></trkpt><trkpt lat="43.8029126" lon="12.3652144"><ele>674.3333333333334</ele><time>2026-04-04T11:25:41.225Z</time></trkpt><trkpt lat="43.8028484" lon="12.3652064"><ele>673.1666666666666</ele><time>2026-04-04T11:25:43.225Z</time></trkpt><trkpt lat="43.8027475" lon="12.3650464"><ele>672.0</ele><time>2026-04-04T11:25:45.226Z</time></trkpt><trkpt lat="43.8026615" lon="12.3649412"><ele>672.0</ele><time>2026-04-04T11:25:46.226Z</time></trkpt><trkpt lat="43.8025636" lon="12.3648248"><ele>672.0</ele><time>2026-04-04T11:25:47.227Z</time></trkpt><trkpt lat="43.8024542" lon="12.3647002"><ele>672.0</ele><time>2026-04-04T11:25:48.225Z</time></trkpt><trkpt lat="43.8023494" lon="12.364577"><ele>672.0</ele><time>2026-04-04T11:25:49.229Z</time></trkpt><trkpt lat="43.8022408" lon="12.3644366"><ele>674.6666666666666</ele><time>2026-04-04T11:25:50.226Z</time></trkpt><trkpt lat="43.8021416" lon="12.3642778"><ele>677.3333333333333</ele><time>2026-04-04T11:25:51.227Z</time></trkpt><trkpt lat="43.8020523" lon="12.3641123"><ele>680.0</ele><time>2026-04-04T11:25:52.227Z</time></trkpt><trkpt lat="43.8019727" lon="12.3639342"><ele>681.5</ele><time>2026-04-04T11:25:53.224Z</time></trkpt><trkpt lat="43.8019074" lon="12.3637918"><ele>683.0</ele><time>2026-04-04T11:25:54.225Z</time></trkpt><trkpt lat="43.8018457" lon="12.3636492"><ele>684.5</ele><time>2026-04-04T11:25:55.227Z</time></trkpt><trkpt lat="43.8017888" lon="12.363523"><ele>686.0</ele><time>2026-04-04T11:25:56.228Z</time></trkpt><trkpt lat="43.801718" lon="12.3633996"><ele>686.0</ele><time>2026-04-04T11:25:57.228Z</time></trkpt><trkpt lat="43.8016302" lon="12.3632892"><ele>686.0</ele><time>2026-04-04T11:25:58.228Z</time></trkpt><trkpt lat="43.8015234" lon="12.3631898"><ele>686.0</ele><time>2026-04-04T11:25:59.225Z</time></trkpt><trkpt lat="43.8014042" lon="12.3631215"><ele>686.0</ele><time>2026-04-04T11:26:00.228Z</time></trkpt><trkpt lat="43.8012683" lon="12.36305"><ele>687.6666666666666</ele><time>2026-04-04T11:26:01.228Z</time></trkpt><trkpt lat="43.8011446" lon="12.3629678"><ele>689.3333333333334</ele><time>2026-04-04T11:26:02.225Z</time></trkpt><trkpt lat="43.8009688" lon="12.3628766"><ele>691.0</ele><time>2026-04-04T11:26:03.223Z</time></trkpt><trkpt lat="43.8007735" lon="12.3627674"><ele>691.0</ele><time>2026-04-04T11:26:04.225Z</time></trkpt><trkpt lat="43.8005785" lon="12.3626571"><ele>691.0</ele><time>2026-04-04T11:26:05.226Z</time></trkpt><trkpt lat="43.8003773" lon="12.3625414"><ele>691.0</ele><time>2026-04-04T11:26:06.228Z</time></trkpt><trkpt lat="43.8001738" lon="12.3624224"><ele>692.0</ele><time>2026-04-04T11:26:07.223Z</time></trkpt><trkpt lat="43.7999869" lon="12.3623104"><ele>693.0</ele><time>2026-04-04T11:26:08.224Z</time></trkpt><trkpt lat="43.7998259" lon="12.3622249"><ele>694.0</ele><time>2026-04-04T11:26:09.226Z</time></trkpt><trkpt lat="43.7996993" lon="12.3621644"><ele>694.0</ele><time>2026-04-04T11:26:10.226Z</time></trkpt><trkpt lat="43.7995775" lon="12.362131"><ele>694.0</ele><time>2026-04-04T11:26:11.229Z</time></trkpt><trkpt lat="43.7994619" lon="12.3621582"><ele>694.0</ele><time>2026-04-04T11:26:12.229Z</time></trkpt><trkpt lat="43.7993458" lon="12.3622512"><ele>694.0</ele><time>2026-04-04T11:26:13.225Z</time></trkpt><trkpt lat="43.7992432" lon="12.3623942"><ele>697.0</ele><time>2026-04-04T11:26:14.226Z</time></trkpt><trkpt lat="43.7991512" lon="12.3625557"><ele>700.0</ele><time>2026-04-04T11:26:15.229Z</time></trkpt><trkpt lat="43.7990529" lon="12.3627217"><ele>703.0</ele><time>2026-04-04T11:26:16.229Z</time></trkpt><trkpt lat="43.798919" lon="12.3628546"><ele>703.0</ele><time>2026-04-04T11:26:17.23Z</time></trkpt><trkpt lat="43.7987873" lon="12.3629825"><ele>703.0</ele><time>2026-04-04T11:26:18.229Z</time></trkpt><trkpt lat="43.7986588" lon="12.3631009"><ele>703.0</ele><time>2026-04-04T11:26:19.229Z</time></trkpt><trkpt lat="43.7985229" lon="12.3631531"><ele>706.0</ele><time>2026-04-04T11:26:20.229Z</time></trkpt><trkpt lat="43.7983828" lon="12.3631812"><ele>709.0</ele><time>2026-04-04T11:26:21.229Z</time></trkpt><trkpt lat="43.7982281" lon="12.3631948"><ele>712.0</ele><time>2026-04-04T11:26:22.229Z</time></trkpt><trkpt lat="43.7980631" lon="12.363237"><ele>712.0</ele><time>2026-04-04T11:26:23.227Z</time></trkpt><trkpt lat="43.7978937" lon="12.3633199"><ele>712.0</ele><time>2026-04-04T11:26:24.229Z</time></trkpt><trkpt lat="43.7977224" lon="12.3634111"><ele>712.0</ele><time>2026-04-04T11:26:25.23Z</time></trkpt><trkpt lat="43.7975695" lon="12.3635002"><ele>712.5</ele><time>2026-04-04T11:26:26.226Z</time></trkpt><trkpt lat="43.7974288" lon="12.3635821"><ele>713.0</ele><time>2026-04-04T11:26:27.224Z</time></trkpt><trkpt lat="43.7973098" lon="12.3636903"><ele>713.5</ele><time>2026-04-04T11:26:28.229Z</time></trkpt><trkpt lat="43.7972158" lon="12.3638334"><ele>714.0</ele><time>2026-04-04T11:26:29.229Z</time></trkpt><trkpt lat="43.7971486" lon="12.364002"><ele>714.0</ele><time>2026-04-04T11:26:30.226Z</time></trkpt><trkpt lat="43.7971172" lon="12.3641908"><ele>714.0</ele><time>2026-04-04T11:26:31.229Z</time></trkpt><trkpt lat="43.7971247" lon="12.3643827"><ele>714.0</ele><time>2026-04-04T11:26:32.229Z</time></trkpt><trkpt lat="43.7971464" lon="12.3645777"><ele>714.0</ele><time>2026-04-04T11:26:33.226Z</time></trkpt><trkpt lat="43.7971683" lon="12.3647633"><ele>714.25</ele><time>2026-04-04T11:26:34.229Z</time></trkpt><trkpt lat="43.7971594" lon="12.3649309"><ele>714.5</ele><time>2026-04-04T11:26:35.229Z</time></trkpt><trkpt lat="43.7971225" lon="12.3650958"><ele>714.75</ele><time>2026-04-04T11:26:36.224Z</time></trkpt><trkpt lat="43.7970737" lon="12.3652952"><ele>715.0</ele><time>2026-04-04T11:26:37.227Z</time></trkpt><trkpt lat="43.7970153" lon="12.3655018"><ele>714.0</ele><time>2026-04-04T11:26:38.226Z</time></trkpt><trkpt lat="43.7969524" lon="12.3657181"><ele>713.0</ele><time>2026-04-04T11:26:39.229Z</time></trkpt><trkpt lat="43.7968895" lon="12.3659184"><ele>712.0</ele><time>2026-04-04T11:26:40.228Z</time></trkpt><trkpt lat="43.7968388" lon="12.3661055"><ele>714.0</ele><time>2026-04-04T11:26:41.227Z</time></trkpt><trkpt lat="43.7967751" lon="12.366238"><ele>716.0</ele><time>2026-04-04T11:26:42.227Z</time></trkpt><trkpt lat="43.7967031" lon="12.3663284"><ele>718.0</ele><time>2026-04-04T11:26:43.226Z</time></trkpt><trkpt lat="43.7966247" lon="12.3663753"><ele>720.0</ele><time>2026-04-04T11:26:44.228Z</time></trkpt><trkpt lat="43.7965203" lon="12.3663237"><ele>722.0</ele><time>2026-04-04T11:26:45.228Z</time></trkpt><trkpt lat="43.7964153" lon="12.3662287"><ele>723.25</ele><time>2026-04-04T11:26:46.226Z</time></trkpt><trkpt lat="43.7963087" lon="12.3661029"><ele>724.5</ele><time>2026-04-04T11:26:47.226Z</time></trkpt><trkpt lat="43.7962057" lon="12.3659613"><ele>725.75</ele><time>2026-04-04T11:26:48.223Z</time></trkpt><trkpt lat="43.7960992" lon="12.3658113"><ele>727.0</ele><time>2026-04-04T11:26:49.229Z</time></trkpt><trkpt lat="43.7959833" lon="12.3656582"><ele>730.0</ele><time>2026-04-04T11:26:50.226Z</time></trkpt><trkpt lat="43.7958569" lon="12.3655134"><ele>733.0</ele><time>2026-04-04T11:26:51.226Z</time></trkpt><trkpt lat="43.7956796" lon="12.3654127"><ele>736.0</ele><time>2026-04-04T11:26:52.224Z</time></trkpt><trkpt lat="43.7955077" lon="12.365324"><ele>736.0</ele><time>2026-04-04T11:26:53.229Z</time></trkpt><trkpt lat="43.795329" lon="12.3652431"><ele>736.0</ele><time>2026-04-04T11:26:54.225Z</time></trkpt><trkpt lat="43.7951556" lon="12.3651471"><ele>736.0</ele><time>2026-04-04T11:26:55.227Z</time></trkpt><trkpt lat="43.7949721" lon="12.3650477"><ele>734.3333333333334</ele><time>2026-04-04T11:26:56.226Z</time></trkpt><trkpt lat="43.7948016" lon="12.3649687"><ele>732.6666666666666</ele><time>2026-04-04T11:26:57.23Z</time></trkpt><trkpt lat="43.7946352" lon="12.3649026"><ele>731.0</ele><time>2026-04-04T11:26:58.226Z</time></trkpt><trkpt lat="43.7944675" lon="12.3648644"><ele>730.3333333333333</ele><time>2026-04-04T11:26:59.228Z</time></trkpt><trkpt lat="43.7942913" lon="12.3648386"><ele>729.6666666666666</ele><time>2026-04-04T11:27:00.228Z</time></trkpt><trkpt lat="43.7941202" lon="12.3648479"><ele>729.0</ele><time>2026-04-04T11:27:01.228Z</time></trkpt><trkpt lat="43.7939461" lon="12.3648929"><ele>729.0</ele><time>2026-04-04T11:27:02.224Z</time></trkpt><trkpt lat="43.7937701" lon="12.3649563"><ele>729.0</ele><time>2026-04-04T11:27:03.227Z</time></trkpt><trkpt lat="43.7935982" lon="12.3650265"><ele>729.0</ele><time>2026-04-04T11:27:04.228Z</time></trkpt><trkpt lat="43.7934288" lon="12.365098"><ele>731.6666666666666</ele><time>2026-04-04T11:27:05.227Z</time></trkpt><trkpt lat="43.7932679" lon="12.3651626"><ele>734.3333333333333</ele><time>2026-04-04T11:27:06.226Z</time></trkpt><trkpt lat="43.7931212" lon="12.3652201"><ele>737.0</ele><time>2026-04-04T11:27:07.229Z</time></trkpt><trkpt lat="43.7929872" lon="12.3653075"><ele>737.0</ele><time>2026-04-04T11:27:08.227Z</time></trkpt><trkpt lat="43.7928623" lon="12.3654161"><ele>737.0</ele><time>2026-04-04T11:27:09.228Z</time></trkpt><trkpt lat="43.7927453" lon="12.3655787"><ele>737.0</ele><time>2026-04-04T11:27:10.227Z</time></trkpt><trkpt lat="43.7926379" lon="12.3657565"><ele>737.25</ele><time>2026-04-04T11:27:11.226Z</time></trkpt><trkpt lat="43.7925524" lon="12.3659274"><ele>737.5</ele><time>2026-04-04T11:27:12.225Z</time></trkpt><trkpt lat="43.7924486" lon="12.3660774"><ele>737.75</ele><time>2026-04-04T11:27:13.228Z</time></trkpt><trkpt lat="43.7923659" lon="12.3662292"><ele>738.0</ele><time>2026-04-04T11:27:14.227Z</time></trkpt><trkpt lat="43.7922942" lon="12.3663674"><ele>738.0</ele><time>2026-04-04T11:27:15.227Z</time></trkpt><trkpt lat="43.7922038" lon="12.3664521"><ele>738.0</ele><time>2026-04-04T11:27:16.227Z</time></trkpt><trkpt lat="43.792105" lon="12.3664687"><ele>738.0</ele><time>2026-04-04T11:27:17.225Z</time></trkpt><trkpt lat="43.7919997" lon="12.3664405"><ele>738.0</ele><time>2026-04-04T11:27:18.228Z</time></trkpt><trkpt lat="43.7919295" lon="12.3663666"><ele>738.0</ele><time>2026-04-04T11:27:19.227Z</time></trkpt><trkpt lat="43.7918869" lon="12.3662474"><ele>740.0</ele><time>2026-04-04T11:27:20.229Z</time></trkpt><trkpt lat="43.7918754" lon="12.3660891"><ele>742.0</ele><time>2026-04-04T11:27:21.225Z</time></trkpt><trkpt lat="43.7918941" lon="12.3658826"><ele>744.0</ele><time>2026-04-04T11:27:22.228Z</time></trkpt><trkpt lat="43.7919225" lon="12.3656652"><ele>746.0</ele><time>2026-04-04T11:27:23.227Z</time></trkpt><trkpt lat="43.7919499" lon="12.3654257"><ele>747.6666666666666</ele><time>2026-04-04T11:27:24.229Z</time></trkpt><trkpt lat="43.7919758" lon="12.3651621"><ele>749.3333333333334</ele><time>2026-04-04T11:27:25.228Z</time></trkpt><trkpt lat="43.7920049" lon="12.3648936"><ele>751.0</ele><time>2026-04-04T11:27:26.229Z</time></trkpt><trkpt lat="43.7920283" lon="12.3646478"><ele>751.0</ele><time>2026-04-04T11:27:27.228Z</time></trkpt><trkpt lat="43.7920542" lon="12.3644197"><ele>751.0</ele><time>2026-04-04T11:27:28.227Z</time></trkpt><trkpt lat="43.7920621" lon="12.3642013"><ele>751.0</ele><time>2026-04-04T11:27:29.23Z</time></trkpt><trkpt lat="43.7920526" lon="12.3639908"><ele>750.6666666666667</ele><time>2026-04-04T11:27:30.226Z</time></trkpt><trkpt lat="43.7920157" lon="12.3637859"><ele>750.3333333333334</ele><time>2026-04-04T11:27:31.226Z</time></trkpt><trkpt lat="43.7919456" lon="12.363596"><ele>750.0</ele><time>2026-04-04T11:27:32.227Z</time></trkpt><trkpt lat="43.7918478" lon="12.3634115"><ele>748.6666666666666</ele><time>2026-04-04T11:27:33.229Z</time></trkpt><trkpt lat="43.7917314" lon="12.3632385"><ele>747.3333333333333</ele><time>2026-04-04T11:27:34.228Z</time></trkpt><trkpt lat="43.7916168" lon="12.3630722"><ele>746.0</ele><time>2026-04-04T11:27:35.229Z</time></trkpt><trkpt lat="43.7914944" lon="12.3628946"><ele>746.0</ele><time>2026-04-04T11:27:36.225Z</time></trkpt><trkpt lat="43.7913748" lon="12.3627043"><ele>746.0</ele><time>2026-04-04T11:27:37.228Z</time></trkpt><trkpt lat="43.791259" lon="12.362518"><ele>746.0</ele><time>2026-04-04T11:27:38.222Z</time></trkpt><trkpt lat="43.7911498" lon="12.3623405"><ele>748.0</ele><time>2026-04-04T11:27:39.226Z</time></trkpt><trkpt lat="43.7910342" lon="12.3621766"><ele>750.0</ele><time>2026-04-04T11:27:40.226Z</time></trkpt><trkpt lat="43.7909251" lon="12.3620177"><ele>752.0</ele><time>2026-04-04T11:27:41.226Z</time></trkpt><trkpt lat="43.7908113" lon="12.3618638"><ele>746.3333333333333</ele><time>2026-04-04T11:27:42.225Z</time></trkpt><trkpt lat="43.7906852" lon="12.3617322"><ele>740.6666666666666</ele><time>2026-04-04T11:27:43.228Z</time></trkpt><trkpt lat="43.7905376" lon="12.3616347"><ele>735.0</ele><time>2026-04-04T11:27:44.23Z</time></trkpt><trkpt lat="43.7903709" lon="12.3615812"><ele>735.0</ele><time>2026-04-04T11:27:45.229Z</time></trkpt><trkpt lat="43.7902022" lon="12.3615545"><ele>735.0</ele><time>2026-04-04T11:27:46.228Z</time></trkpt><trkpt lat="43.7900406" lon="12.3615416"><ele>735.0</ele><time>2026-04-04T11:27:47.23Z</time></trkpt><trkpt lat="43.7898775" lon="12.3615384"><ele>732.0</ele><time>2026-04-04T11:27:48.228Z</time></trkpt><trkpt lat="43.7897244" lon="12.3615366"><ele>729.0</ele><time>2026-04-04T11:27:49.227Z</time></trkpt><trkpt lat="43.7895878" lon="12.3615359"><ele>726.0</ele><time>2026-04-04T11:27:50.229Z</time></trkpt><trkpt lat="43.789478" lon="12.361532"><ele>723.0</ele><time>2026-04-04T11:27:51.224Z</time></trkpt><trkpt lat="43.7893906" lon="12.3614877"><ele>724.4</ele><time>2026-04-04T11:27:52.229Z</time></trkpt><trkpt lat="43.7893279" lon="12.3614036"><ele>725.8</ele><time>2026-04-04T11:27:53.226Z</time></trkpt><trkpt lat="43.7893033" lon="12.3612912"><ele>727.2</ele><time>2026-04-04T11:27:54.226Z</time></trkpt><trkpt lat="43.7893181" lon="12.3611575"><ele>728.6</ele><time>2026-04-04T11:27:55.229Z</time></trkpt><trkpt lat="43.7893718" lon="12.3609977"><ele>730.0</ele><time>2026-04-04T11:27:56.228Z</time></trkpt><trkpt lat="43.7894393" lon="12.3608215"><ele>730.0</ele><time>2026-04-04T11:27:57.229Z</time></trkpt><trkpt lat="43.789512" lon="12.3606478"><ele>730.0</ele><time>2026-04-04T11:27:58.226Z</time></trkpt><trkpt lat="43.7895938" lon="12.3604531"><ele>730.0</ele><time>2026-04-04T11:27:59.228Z</time></trkpt><trkpt lat="43.7896652" lon="12.3602656"><ele>728.75</ele><time>2026-04-04T11:28:00.227Z</time></trkpt><trkpt lat="43.7897363" lon="12.3600821"><ele>727.5</ele><time>2026-04-04T11:28:01.228Z</time></trkpt><trkpt lat="43.7897856" lon="12.3599004"><ele>726.25</ele><time>2026-04-04T11:28:02.226Z</time></trkpt><trkpt lat="43.7898154" lon="12.359709"><ele>725.0</ele><time>2026-04-04T11:28:03.23Z</time></trkpt><trkpt lat="43.7898221" lon="12.3595163"><ele>725.0</ele><time>2026-04-04T11:28:04.226Z</time></trkpt><trkpt lat="43.7898031" lon="12.3593216"><ele>725.0</ele><time>2026-04-04T11:28:05.229Z</time></trkpt><trkpt lat="43.7897462" lon="12.359132"><ele>725.0</ele><time>2026-04-04T11:28:06.226Z</time></trkpt><trkpt lat="43.7896608" lon="12.3589466"><ele>725.0</ele><time>2026-04-04T11:28:07.229Z</time></trkpt><trkpt lat="43.7895553" lon="12.3587649"><ele>727.6666666666666</ele><time>2026-04-04T11:28:08.228Z</time></trkpt><trkpt lat="43.7894383" lon="12.3585892"><ele>730.3333333333334</ele><time>2026-04-04T11:28:09.23Z</time></trkpt><trkpt lat="43.7893151" lon="12.3584205"><ele>733.0</ele><time>2026-04-04T11:28:10.226Z</time></trkpt><trkpt lat="43.7891781" lon="12.3582701"><ele>730.6666666666667</ele><time>2026-04-04T11:28:11.229Z</time></trkpt><trkpt lat="43.7890411" lon="12.3581366"><ele>728.3333333333334</ele><time>2026-04-04T11:28:12.227Z</time></trkpt><trkpt lat="43.7888919" lon="12.3580344"><ele>726.0</ele><time>2026-04-04T11:28:13.229Z</time></trkpt><trkpt lat="43.7887323" lon="12.3579648"><ele>726.0</ele><time>2026-04-04T11:28:14.225Z</time></trkpt><trkpt lat="43.7885775" lon="12.3579222"><ele>726.0</ele><time>2026-04-04T11:28:15.224Z</time></trkpt><trkpt lat="43.7884299" lon="12.3578736"><ele>726.0</ele><time>2026-04-04T11:28:16.225Z</time></trkpt><trkpt lat="43.7882924" lon="12.357817"><ele>723.0</ele><time>2026-04-04T11:28:17.226Z</time></trkpt><trkpt lat="43.7881715" lon="12.3577404"><ele>720.0</ele><time>2026-04-04T11:28:18.225Z</time></trkpt><trkpt lat="43.7880669" lon="12.3576567"><ele>717.0</ele><time>2026-04-04T11:28:19.229Z</time></trkpt><trkpt lat="43.7879756" lon="12.3575528"><ele>714.0</ele><time>2026-04-04T11:28:20.227Z</time></trkpt><trkpt lat="43.7878874" lon="12.3574239"><ele>714.0</ele><time>2026-04-04T11:28:21.227Z</time></trkpt><trkpt lat="43.7878236" lon="12.3572652"><ele>714.0</ele><time>2026-04-04T11:28:22.224Z</time></trkpt><trkpt lat="43.78777" lon="12.3570856"><ele>714.0</ele><time>2026-04-04T11:28:23.227Z</time></trkpt><trkpt lat="43.7877103" lon="12.3568948"><ele>714.0</ele><time>2026-04-04T11:28:24.226Z</time></trkpt><trkpt lat="43.7876497" lon="12.3567033"><ele>711.0</ele><time>2026-04-04T11:28:25.228Z</time></trkpt><trkpt lat="43.7875911" lon="12.3565051"><ele>708.0</ele><time>2026-04-04T11:28:26.227Z</time></trkpt><trkpt lat="43.7875452" lon="12.3562955"><ele>705.0</ele><time>2026-04-04T11:28:27.228Z</time></trkpt><trkpt lat="43.7874986" lon="12.3560835"><ele>705.0</ele><time>2026-04-04T11:28:28.229Z</time></trkpt><trkpt lat="43.787473" lon="12.3558624"><ele>705.0</ele><time>2026-04-04T11:28:29.224Z</time></trkpt><trkpt lat="43.7874562" lon="12.3556407"><ele>705.0</ele><time>2026-04-04T11:28:30.228Z</time></trkpt><trkpt lat="43.787456" lon="12.3554153"><ele>705.3333333333334</ele><time>2026-04-04T11:28:31.224Z</time></trkpt><trkpt lat="43.7874518" lon="12.3551875"><ele>705.6666666666667</ele><time>2026-04-04T11:28:32.227Z</time></trkpt><trkpt lat="43.7874446" lon="12.3549511"><ele>706.0</ele><time>2026-04-04T11:28:33.229Z</time></trkpt><trkpt lat="43.7874356" lon="12.3547336"><ele>707.0</ele><time>2026-04-04T11:28:34.226Z</time></trkpt><trkpt lat="43.7874298" lon="12.3545195"><ele>708.0</ele><time>2026-04-04T11:28:35.226Z</time></trkpt><trkpt lat="43.7874024" lon="12.3543098"><ele>709.0</ele><time>2026-04-04T11:28:36.229Z</time></trkpt><trkpt lat="43.7873536" lon="12.3540906"><ele>709.0</ele><time>2026-04-04T11:28:37.229Z</time></trkpt><trkpt lat="43.7872883" lon="12.3538853"><ele>709.0</ele><time>2026-04-04T11:28:38.225Z</time></trkpt><trkpt lat="43.7872184" lon="12.3536805"><ele>709.0</ele><time>2026-04-04T11:28:39.228Z</time></trkpt><trkpt lat="43.7871478" lon="12.3534852"><ele>710.75</ele><time>2026-04-04T11:28:40.229Z</time></trkpt><trkpt lat="43.7870893" lon="12.3532993"><ele>712.5</ele><time>2026-04-04T11:28:41.226Z</time></trkpt><trkpt lat="43.7870209" lon="12.3531162"><ele>714.25</ele><time>2026-04-04T11:28:42.225Z</time></trkpt><trkpt lat="43.786959" lon="12.3529532"><ele>716.0</ele><time>2026-04-04T11:28:43.226Z</time></trkpt><trkpt lat="43.7869014" lon="12.3527994"><ele>716.4</ele><time>2026-04-04T11:28:44.225Z</time></trkpt><trkpt lat="43.7868537" lon="12.3526639"><ele>716.8</ele><time>2026-04-04T11:28:45.229Z</time></trkpt><trkpt lat="43.7868092" lon="12.3525537"><ele>717.1999999999999</ele><time>2026-04-04T11:28:46.229Z</time></trkpt><trkpt lat="43.7867634" lon="12.3524824"><ele>717.5999999999999</ele><time>2026-04-04T11:28:47.226Z</time></trkpt><trkpt lat="43.7866449" lon="12.3524675"><ele>718.0</ele><time>2026-04-04T11:28:49.227Z</time></trkpt><trkpt lat="43.7865646" lon="12.3525053"><ele>714.0</ele><time>2026-04-04T11:28:50.227Z</time></trkpt><trkpt lat="43.7864978" lon="12.3525706"><ele>710.0</ele><time>2026-04-04T11:28:51.229Z</time></trkpt><trkpt lat="43.7864104" lon="12.3526301"><ele>706.0</ele><time>2026-04-04T11:28:52.224Z</time></trkpt><trkpt lat="43.7863156" lon="12.3526719"><ele>702.0</ele><time>2026-04-04T11:28:53.23Z</time></trkpt><trkpt lat="43.7862171" lon="12.3526857"><ele>698.0</ele><time>2026-04-04T11:28:54.225Z</time></trkpt><trkpt lat="43.7861201" lon="12.3526463"><ele>698.0</ele><time>2026-04-04T11:28:55.225Z</time></trkpt><trkpt lat="43.7860339" lon="12.3526027"><ele>698.0</ele><time>2026-04-04T11:28:56.23Z</time></trkpt><trkpt lat="43.7859822" lon="12.3524894"><ele>698.0</ele><time>2026-04-04T11:28:57.23Z</time></trkpt><trkpt lat="43.7859384" lon="12.3523345"><ele>698.0</ele><time>2026-04-04T11:28:58.226Z</time></trkpt><trkpt lat="43.7858975" lon="12.3521623"><ele>698.0</ele><time>2026-04-04T11:28:59.228Z</time></trkpt><trkpt lat="43.785853" lon="12.351974"><ele>694.3333333333333</ele><time>2026-04-04T11:29:00.226Z</time></trkpt><trkpt lat="43.7857913" lon="12.3517719"><ele>690.6666666666666</ele><time>2026-04-04T11:29:01.229Z</time></trkpt><trkpt lat="43.7857421" lon="12.3515599"><ele>687.0</ele><time>2026-04-04T11:29:02.227Z</time></trkpt><trkpt lat="43.7856838" lon="12.3513469"><ele>687.0</ele><time>2026-04-04T11:29:03.228Z</time></trkpt><trkpt lat="43.7856352" lon="12.3511399"><ele>687.0</ele><time>2026-04-04T11:29:04.228Z</time></trkpt><trkpt lat="43.7855849" lon="12.3509493"><ele>687.0</ele><time>2026-04-04T11:29:05.227Z</time></trkpt><trkpt lat="43.7855382" lon="12.3507598"><ele>687.0</ele><time>2026-04-04T11:29:06.227Z</time></trkpt><trkpt lat="43.7854917" lon="12.3505903"><ele>687.5</ele><time>2026-04-04T11:29:07.226Z</time></trkpt><trkpt lat="43.7854426" lon="12.3504479"><ele>688.0</ele><time>2026-04-04T11:29:08.226Z</time></trkpt><trkpt lat="43.7853594" lon="12.3503166"><ele>688.5</ele><time>2026-04-04T11:29:09.228Z</time></trkpt><trkpt lat="43.7852677" lon="12.3502285"><ele>689.0</ele><time>2026-04-04T11:29:10.225Z</time></trkpt><trkpt lat="43.7851601" lon="12.3501633"><ele>686.25</ele><time>2026-04-04T11:29:11.226Z</time></trkpt><trkpt lat="43.7850238" lon="12.3501489"><ele>683.5</ele><time>2026-04-04T11:29:12.229Z</time></trkpt><trkpt lat="43.7848929" lon="12.3501552"><ele>680.75</ele><time>2026-04-04T11:29:13.226Z</time></trkpt><trkpt lat="43.7847578" lon="12.3501743"><ele>678.0</ele><time>2026-04-04T11:29:14.228Z</time></trkpt><trkpt lat="43.784615" lon="12.3501999"><ele>678.0</ele><time>2026-04-04T11:29:15.227Z</time></trkpt><trkpt lat="43.7844664" lon="12.3502511"><ele>678.0</ele><time>2026-04-04T11:29:16.225Z</time></trkpt><trkpt lat="43.7843119" lon="12.3503023"><ele>678.0</ele><time>2026-04-04T11:29:17.227Z</time></trkpt><trkpt lat="43.7841614" lon="12.3503703"><ele>675.0</ele><time>2026-04-04T11:29:18.226Z</time></trkpt><trkpt lat="43.7840166" lon="12.350465"><ele>672.0</ele><time>2026-04-04T11:29:19.226Z</time></trkpt><trkpt lat="43.7838633" lon="12.3505638"><ele>669.0</ele><time>2026-04-04T11:29:20.225Z</time></trkpt><trkpt lat="43.7837095" lon="12.3506603"><ele>668.3333333333334</ele><time>2026-04-04T11:29:21.226Z</time></trkpt><trkpt lat="43.7835604" lon="12.3507599"><ele>667.6666666666667</ele><time>2026-04-04T11:29:22.224Z</time></trkpt><trkpt lat="43.7834217" lon="12.3508547"><ele>667.0</ele><time>2026-04-04T11:29:23.23Z</time></trkpt><trkpt lat="43.7832928" lon="12.3509523"><ele>665.5</ele><time>2026-04-04T11:29:24.227Z</time></trkpt><trkpt lat="43.783187" lon="12.351076"><ele>664.0</ele><time>2026-04-04T11:29:25.229Z</time></trkpt><trkpt lat="43.783104" lon="12.351222"><ele>662.5</ele><time>2026-04-04T11:29:26.225Z</time></trkpt><trkpt lat="43.783047" lon="12.351389"><ele>661.0</ele><time>2026-04-04T11:29:27.225Z</time></trkpt><trkpt lat="43.7830203" lon="12.3515814"><ele>661.0</ele><time>2026-04-04T11:29:28.226Z</time></trkpt><trkpt lat="43.7830119" lon="12.351777"><ele>661.0</ele><time>2026-04-04T11:29:29.224Z</time></trkpt><trkpt lat="43.7830092" lon="12.3519641"><ele>661.0</ele><time>2026-04-04T11:29:30.224Z</time></trkpt><trkpt lat="43.7830082" lon="12.3521584"><ele>661.0</ele><time>2026-04-04T11:29:31.23Z</time></trkpt><trkpt lat="43.7830031" lon="12.3523522"><ele>661.0</ele><time>2026-04-04T11:29:32.224Z</time></trkpt><trkpt lat="43.7829937" lon="12.3525497"><ele>661.0</ele><time>2026-04-04T11:29:33.226Z</time></trkpt><trkpt lat="43.7829718" lon="12.3527415"><ele>661.0</ele><time>2026-04-04T11:29:34.228Z</time></trkpt><trkpt lat="43.7829349" lon="12.3529354"><ele>661.0</ele><time>2026-04-04T11:29:35.226Z</time></trkpt><trkpt lat="43.7828788" lon="12.3531316"><ele>660.75</ele><time>2026-04-04T11:29:36.229Z</time></trkpt><trkpt lat="43.7828121" lon="12.353319"><ele>660.5</ele><time>2026-04-04T11:29:37.229Z</time></trkpt><trkpt lat="43.782741" lon="12.3534909"><ele>660.25</ele><time>2026-04-04T11:29:38.226Z</time></trkpt><trkpt lat="43.7826725" lon="12.3536555"><ele>660.0</ele><time>2026-04-04T11:29:39.229Z</time></trkpt><trkpt lat="43.7826012" lon="12.353796"><ele>661.0</ele><time>2026-04-04T11:29:40.227Z</time></trkpt><trkpt lat="43.7825243" lon="12.3539389"><ele>662.0</ele><time>2026-04-04T11:29:41.224Z</time></trkpt><trkpt lat="43.7824393" lon="12.3540212"><ele>663.0</ele><time>2026-04-04T11:29:42.227Z</time></trkpt><trkpt lat="43.7823354" lon="12.3540802"><ele>664.0</ele><time>2026-04-04T11:29:43.224Z</time></trkpt><trkpt lat="43.7822273" lon="12.3541362"><ele>664.0</ele><time>2026-04-04T11:29:44.227Z</time></trkpt><trkpt lat="43.7821027" lon="12.3541096"><ele>664.0</ele><time>2026-04-04T11:29:45.223Z</time></trkpt><trkpt lat="43.7819831" lon="12.3540832"><ele>664.0</ele><time>2026-04-04T11:29:46.225Z</time></trkpt><trkpt lat="43.7818473" lon="12.3540536"><ele>664.0</ele><time>2026-04-04T11:29:47.226Z</time></trkpt><trkpt lat="43.7817164" lon="12.3540613"><ele>662.5</ele><time>2026-04-04T11:29:48.227Z</time></trkpt><trkpt lat="43.7815937" lon="12.3540942"><ele>661.0</ele><time>2026-04-04T11:29:49.23Z</time></trkpt><trkpt lat="43.7814675" lon="12.3541584"><ele>659.5</ele><time>2026-04-04T11:29:50.222Z</time></trkpt><trkpt lat="43.7813565" lon="12.3542556"><ele>658.0</ele><time>2026-04-04T11:29:51.225Z</time></trkpt><trkpt lat="43.7812492" lon="12.3543756"><ele>658.0</ele><time>2026-04-04T11:29:52.226Z</time></trkpt><trkpt lat="43.7811636" lon="12.3545169"><ele>658.0</ele><time>2026-04-04T11:29:53.228Z</time></trkpt><trkpt lat="43.7811001" lon="12.3546809"><ele>658.0</ele><time>2026-04-04T11:29:54.226Z</time></trkpt><trkpt lat="43.7810553" lon="12.3548627"><ele>658.0</ele><time>2026-04-04T11:29:55.225Z</time></trkpt><trkpt lat="43.7810348" lon="12.355048"><ele>658.0</ele><time>2026-04-04T11:29:56.226Z</time></trkpt><trkpt lat="43.7810353" lon="12.3552361"><ele>658.0</ele><time>2026-04-04T11:29:57.227Z</time></trkpt><trkpt lat="43.7810652" lon="12.3554355"><ele>658.0</ele><time>2026-04-04T11:29:58.228Z</time></trkpt><trkpt lat="43.7811138" lon="12.355624"><ele>658.0</ele><time>2026-04-04T11:29:59.226Z</time></trkpt><trkpt lat="43.7811821" lon="12.3558099"><ele>656.3333333333334</ele><time>2026-04-04T11:30:00.227Z</time></trkpt><trkpt lat="43.7812483" lon="12.3559956"><ele>654.6666666666666</ele><time>2026-04-04T11:30:01.228Z</time></trkpt><trkpt lat="43.7813171" lon="12.3561852"><ele>653.0</ele><time>2026-04-04T11:30:02.226Z</time></trkpt><trkpt lat="43.781381" lon="12.3563722"><ele>651.0</ele><time>2026-04-04T11:30:03.227Z</time></trkpt><trkpt lat="43.781436" lon="12.3565506"><ele>649.0</ele><time>2026-04-04T11:30:04.229Z</time></trkpt><trkpt lat="43.7814677" lon="12.3567257"><ele>647.0</ele><time>2026-04-04T11:30:05.226Z</time></trkpt><trkpt lat="43.7814652" lon="12.3569022"><ele>645.0</ele><time>2026-04-04T11:30:06.229Z</time></trkpt><trkpt lat="43.781421" lon="12.3570725"><ele>642.5</ele><time>2026-04-04T11:30:07.227Z</time></trkpt><trkpt lat="43.7813375" lon="12.3572238"><ele>640.0</ele><time>2026-04-04T11:30:08.228Z</time></trkpt><trkpt lat="43.781234" lon="12.3573645"><ele>637.5</ele><time>2026-04-04T11:30:09.23Z</time></trkpt><trkpt lat="43.7811115" lon="12.3574971"><ele>635.0</ele><time>2026-04-04T11:30:10.23Z</time></trkpt><trkpt lat="43.7809904" lon="12.3576403"><ele>634.0</ele><time>2026-04-04T11:30:11.228Z</time></trkpt><trkpt lat="43.7808659" lon="12.3577818"><ele>633.0</ele><time>2026-04-04T11:30:12.225Z</time></trkpt><trkpt lat="43.7807465" lon="12.3579194"><ele>632.0</ele><time>2026-04-04T11:30:13.225Z</time></trkpt><trkpt lat="43.7806367" lon="12.3580623"><ele>630.3333333333333</ele><time>2026-04-04T11:30:14.224Z</time></trkpt><trkpt lat="43.780543" lon="12.3582238"><ele>628.6666666666666</ele><time>2026-04-04T11:30:15.224Z</time></trkpt><trkpt lat="43.780464" lon="12.3583981"><ele>627.0</ele><time>2026-04-04T11:30:16.226Z</time></trkpt><trkpt lat="43.7804064" lon="12.3586085"><ele>627.0</ele><time>2026-04-04T11:30:17.226Z</time></trkpt><trkpt lat="43.7803534" lon="12.3588135"><ele>627.0</ele><time>2026-04-04T11:30:18.229Z</time></trkpt><trkpt lat="43.7803028" lon="12.3590109"><ele>627.0</ele><time>2026-04-04T11:30:19.227Z</time></trkpt><trkpt lat="43.7802576" lon="12.359214"><ele>626.25</ele><time>2026-04-04T11:30:20.223Z</time></trkpt><trkpt lat="43.7802115" lon="12.3594088"><ele>625.5</ele><time>2026-04-04T11:30:21.229Z</time></trkpt><trkpt lat="43.7801681" lon="12.3596151"><ele>624.75</ele><time>2026-04-04T11:30:22.224Z</time></trkpt><trkpt lat="43.7801099" lon="12.3597692"><ele>624.0</ele><time>2026-04-04T11:30:23.228Z</time></trkpt><trkpt lat="43.7800311" lon="12.3599114"><ele>623.5</ele><time>2026-04-04T11:30:24.226Z</time></trkpt><trkpt lat="43.7799384" lon="12.3600154"><ele>623.0</ele><time>2026-04-04T11:30:25.229Z</time></trkpt><trkpt lat="43.7798391" lon="12.360128"><ele>622.5</ele><time>2026-04-04T11:30:26.228Z</time></trkpt><trkpt lat="43.779729" lon="12.3602327"><ele>622.0</ele><time>2026-04-04T11:30:27.226Z</time></trkpt><trkpt lat="43.779622" lon="12.3603452"><ele>622.0</ele><time>2026-04-04T11:30:28.224Z</time></trkpt><trkpt lat="43.7795029" lon="12.3604668"><ele>622.0</ele><time>2026-04-04T11:30:29.23Z</time></trkpt><trkpt lat="43.7793815" lon="12.3605826"><ele>622.0</ele><time>2026-04-04T11:30:30.229Z</time></trkpt><trkpt lat="43.7792609" lon="12.3606966"><ele>622.0</ele><time>2026-04-04T11:30:31.228Z</time></trkpt><trkpt lat="43.779128" lon="12.3608066"><ele>622.0</ele><time>2026-04-04T11:30:32.224Z</time></trkpt><trkpt lat="43.7789925" lon="12.3609249"><ele>622.0</ele><time>2026-04-04T11:30:33.227Z</time></trkpt><trkpt lat="43.7788624" lon="12.3610499"><ele>622.0</ele><time>2026-04-04T11:30:34.228Z</time></trkpt><trkpt lat="43.7787325" lon="12.3611643"><ele>622.0</ele><time>2026-04-04T11:30:35.224Z</time></trkpt><trkpt lat="43.7786086" lon="12.3612935"><ele>622.0</ele><time>2026-04-04T11:30:36.227Z</time></trkpt><trkpt lat="43.7784934" lon="12.3614569"><ele>622.0</ele><time>2026-04-04T11:30:37.23Z</time></trkpt><trkpt lat="43.7783781" lon="12.3616276"><ele>620.3333333333334</ele><time>2026-04-04T11:30:38.227Z</time></trkpt><trkpt lat="43.7782684" lon="12.3617924"><ele>618.6666666666666</ele><time>2026-04-04T11:30:39.227Z</time></trkpt><trkpt lat="43.7781671" lon="12.3619482"><ele>617.0</ele><time>2026-04-04T11:30:40.224Z</time></trkpt><trkpt lat="43.7780614" lon="12.3620921"><ele>616.3333333333333</ele><time>2026-04-04T11:30:41.227Z</time></trkpt><trkpt lat="43.7779438" lon="12.3622146"><ele>615.6666666666666</ele><time>2026-04-04T11:30:42.225Z</time></trkpt><trkpt lat="43.777808" lon="12.362306"><ele>615.0</ele><time>2026-04-04T11:30:43.228Z</time></trkpt><trkpt lat="43.7776562" lon="12.3623585"><ele>613.6666666666666</ele><time>2026-04-04T11:30:44.228Z</time></trkpt><trkpt lat="43.7774981" lon="12.3623908"><ele>612.3333333333333</ele><time>2026-04-04T11:30:45.224Z</time></trkpt><trkpt lat="43.7773348" lon="12.3624205"><ele>611.0</ele><time>2026-04-04T11:30:46.227Z</time></trkpt><trkpt lat="43.7771714" lon="12.3624509"><ele>611.0</ele><time>2026-04-04T11:30:47.224Z</time></trkpt><trkpt lat="43.7770014" lon="12.3624769"><ele>611.0</ele><time>2026-04-04T11:30:48.224Z</time></trkpt><trkpt lat="43.7768339" lon="12.3625083"><ele>611.0</ele><time>2026-04-04T11:30:49.227Z</time></trkpt><trkpt lat="43.7766664" lon="12.3625379"><ele>609.6666666666666</ele><time>2026-04-04T11:30:50.224Z</time></trkpt><trkpt lat="43.7765087" lon="12.3625676"><ele>608.3333333333334</ele><time>2026-04-04T11:30:51.227Z</time></trkpt><trkpt lat="43.7763558" lon="12.3625985"><ele>607.0</ele><time>2026-04-04T11:30:52.225Z</time></trkpt><trkpt lat="43.776206" lon="12.3626285"><ele>607.0</ele><time>2026-04-04T11:30:53.23Z</time></trkpt><trkpt lat="43.7760598" lon="12.3626709"><ele>607.0</ele><time>2026-04-04T11:30:54.226Z</time></trkpt><trkpt lat="43.7759168" lon="12.3627452"><ele>607.0</ele><time>2026-04-04T11:30:55.226Z</time></trkpt><trkpt lat="43.775781" lon="12.3628518"><ele>605.6666666666667</ele><time>2026-04-04T11:30:56.223Z</time></trkpt><trkpt lat="43.775656" lon="12.3629863"><ele>604.3333333333334</ele><time>2026-04-04T11:30:57.226Z</time></trkpt><trkpt lat="43.7755354" lon="12.3631263"><ele>603.0</ele><time>2026-04-04T11:30:58.225Z</time></trkpt><trkpt lat="43.7754095" lon="12.3632695"><ele>602.0</ele><time>2026-04-04T11:30:59.222Z</time></trkpt><trkpt lat="43.775285" lon="12.3634071"><ele>601.0</ele><time>2026-04-04T11:31:00.228Z</time></trkpt><trkpt lat="43.7751572" lon="12.3635482"><ele>600.0</ele><time>2026-04-04T11:31:01.228Z</time></trkpt><trkpt lat="43.7750349" lon="12.3636932"><ele>599.0</ele><time>2026-04-04T11:31:02.225Z</time></trkpt><trkpt lat="43.7749146" lon="12.3638313"><ele>598.0</ele><time>2026-04-04T11:31:03.223Z</time></trkpt><trkpt lat="43.7748008" lon="12.3639567"><ele>597.0</ele><time>2026-04-04T11:31:04.23Z</time></trkpt><trkpt lat="43.774704" lon="12.3640835"><ele>596.0</ele><time>2026-04-04T11:31:05.228Z</time></trkpt><trkpt lat="43.774607" lon="12.3642049"><ele>594.75</ele><time>2026-04-04T11:31:06.225Z</time></trkpt><trkpt lat="43.7745067" lon="12.3643053"><ele>593.5</ele><time>2026-04-04T11:31:07.227Z</time></trkpt><trkpt lat="43.7743935" lon="12.3643777"><ele>592.25</ele><time>2026-04-04T11:31:08.227Z</time></trkpt><trkpt lat="43.7742809" lon="12.3644385"><ele>591.0</ele><time>2026-04-04T11:31:09.229Z</time></trkpt><trkpt lat="43.77416" lon="12.3644738"><ele>590.75</ele><time>2026-04-04T11:31:10.227Z</time></trkpt><trkpt lat="43.7740337" lon="12.3644759"><ele>590.5</ele><time>2026-04-04T11:31:11.229Z</time></trkpt><trkpt lat="43.7738976" lon="12.3644357"><ele>590.25</ele><time>2026-04-04T11:31:12.227Z</time></trkpt><trkpt lat="43.7737632" lon="12.3643811"><ele>590.0</ele><time>2026-04-04T11:31:13.23Z</time></trkpt><trkpt lat="43.7736288" lon="12.3642951"><ele>587.3333333333333</ele><time>2026-04-04T11:31:14.227Z</time></trkpt><trkpt lat="43.7734993" lon="12.3642023"><ele>584.6666666666666</ele><time>2026-04-04T11:31:15.226Z</time></trkpt><trkpt lat="43.7733654" lon="12.3641026"><ele>582.0</ele><time>2026-04-04T11:31:16.229Z</time></trkpt><trkpt lat="43.7732265" lon="12.3640165"><ele>582.0</ele><time>2026-04-04T11:31:17.226Z</time></trkpt><trkpt lat="43.7731126" lon="12.3639462"><ele>582.0</ele><time>2026-04-04T11:31:18.222Z</time></trkpt><trkpt lat="43.772995" lon="12.3639068"><ele>582.0</ele><time>2026-04-04T11:31:19.226Z</time></trkpt><trkpt lat="43.7728778" lon="12.3639177"><ele>582.0</ele><time>2026-04-04T11:31:20.228Z</time></trkpt><trkpt lat="43.7727715" lon="12.3639596"><ele>582.0</ele><time>2026-04-04T11:31:21.229Z</time></trkpt><trkpt lat="43.7726907" lon="12.3640684"><ele>582.0</ele><time>2026-04-04T11:31:22.228Z</time></trkpt><trkpt lat="43.77264" lon="12.364213"><ele>582.0</ele><time>2026-04-04T11:31:23.229Z</time></trkpt><trkpt lat="43.7726173" lon="12.3643876"><ele>582.0</ele><time>2026-04-04T11:31:24.229Z</time></trkpt><trkpt lat="43.7726076" lon="12.3645823"><ele>577.0</ele><time>2026-04-04T11:31:25.229Z</time></trkpt><trkpt lat="43.7726038" lon="12.3647906"><ele>572.0</ele><time>2026-04-04T11:31:26.228Z</time></trkpt><trkpt lat="43.7726036" lon="12.3650003"><ele>567.0</ele><time>2026-04-04T11:31:27.225Z</time></trkpt><trkpt lat="43.772593" lon="12.3652072"><ele>567.0</ele><time>2026-04-04T11:31:28.224Z</time></trkpt><trkpt lat="43.7725803" lon="12.3654036"><ele>567.0</ele><time>2026-04-04T11:31:29.227Z</time></trkpt><trkpt lat="43.7725441" lon="12.365587"><ele>567.0</ele><time>2026-04-04T11:31:30.224Z</time></trkpt><trkpt lat="43.7724864" lon="12.3657589"><ele>567.0</ele><time>2026-04-04T11:31:31.225Z</time></trkpt><trkpt lat="43.7724045" lon="12.365925"><ele>566.0</ele><time>2026-04-04T11:31:32.224Z</time></trkpt><trkpt lat="43.7722919" lon="12.3660659"><ele>565.0</ele><time>2026-04-04T11:31:33.224Z</time></trkpt><trkpt lat="43.7721687" lon="12.3662091"><ele>564.0</ele><time>2026-04-04T11:31:34.227Z</time></trkpt><trkpt lat="43.7720213" lon="12.3663341"><ele>561.3333333333334</ele><time>2026-04-04T11:31:35.226Z</time></trkpt><trkpt lat="43.7718697" lon="12.36646"><ele>558.6666666666667</ele><time>2026-04-04T11:31:36.224Z</time></trkpt><trkpt lat="43.7717187" lon="12.366587"><ele>556.0</ele><time>2026-04-04T11:31:37.222Z</time></trkpt><trkpt lat="43.7715735" lon="12.3667095"><ele>556.0</ele><time>2026-04-04T11:31:38.224Z</time></trkpt><trkpt lat="43.7714338" lon="12.3668294"><ele>556.0</ele><time>2026-04-04T11:31:39.225Z</time></trkpt><trkpt lat="43.7713031" lon="12.3669367"><ele>556.0</ele><time>2026-04-04T11:31:40.226Z</time></trkpt><trkpt lat="43.7711635" lon="12.3670164"><ele>556.0</ele><time>2026-04-04T11:31:41.226Z</time></trkpt><trkpt lat="43.7710304" lon="12.3671109"><ele>556.0</ele><time>2026-04-04T11:31:42.228Z</time></trkpt><trkpt lat="43.7708816" lon="12.367175"><ele>556.0</ele><time>2026-04-04T11:31:43.225Z</time></trkpt><trkpt lat="43.7707332" lon="12.3672211"><ele>553.5</ele><time>2026-04-04T11:31:44.229Z</time></trkpt><trkpt lat="43.7705855" lon="12.3672629"><ele>551.0</ele><time>2026-04-04T11:31:45.229Z</time></trkpt><trkpt lat="43.7704478" lon="12.3672937"><ele>548.5</ele><time>2026-04-04T11:31:46.229Z</time></trkpt><trkpt lat="43.7703108" lon="12.3672998"><ele>546.0</ele><time>2026-04-04T11:31:47.223Z</time></trkpt><trkpt lat="43.7701786" lon="12.3672567"><ele>545.25</ele><time>2026-04-04T11:31:48.229Z</time></trkpt><trkpt lat="43.770075" lon="12.3671715"><ele>544.5</ele><time>2026-04-04T11:31:49.225Z</time></trkpt><trkpt lat="43.7699826" lon="12.3670539"><ele>543.75</ele><time>2026-04-04T11:31:50.228Z</time></trkpt><trkpt lat="43.7699041" lon="12.3669133"><ele>543.0</ele><time>2026-04-04T11:31:51.227Z</time></trkpt><trkpt lat="43.7698209" lon="12.366761"><ele>543.0</ele><time>2026-04-04T11:31:52.224Z</time></trkpt><trkpt lat="43.7697462" lon="12.3666299"><ele>543.0</ele><time>2026-04-04T11:31:53.223Z</time></trkpt><trkpt lat="43.769669" lon="12.3665277"><ele>543.0</ele><time>2026-04-04T11:31:54.227Z</time></trkpt><trkpt lat="43.769587" lon="12.3664694"><ele>543.0</ele><time>2026-04-04T11:31:55.225Z</time></trkpt><trkpt lat="43.7694972" lon="12.366458"><ele>543.0</ele><time>2026-04-04T11:31:56.224Z</time></trkpt><trkpt lat="43.769417" lon="12.3665181"><ele>543.0</ele><time>2026-04-04T11:31:57.225Z</time></trkpt><trkpt lat="43.7693652" lon="12.3666157"><ele>543.0</ele><time>2026-04-04T11:31:58.228Z</time></trkpt><trkpt lat="43.7693625" lon="12.3667554"><ele>543.0</ele><time>2026-04-04T11:31:59.225Z</time></trkpt><trkpt lat="43.7693971" lon="12.3669203"><ele>543.0</ele><time>2026-04-04T11:32:00.226Z</time></trkpt><trkpt lat="43.7694453" lon="12.3670792"><ele>543.0</ele><time>2026-04-04T11:32:01.227Z</time></trkpt><trkpt lat="43.7695205" lon="12.3672682"><ele>541.0</ele><time>2026-04-04T11:32:02.229Z</time></trkpt><trkpt lat="43.7695917" lon="12.3674741"><ele>539.0</ele><time>2026-04-04T11:32:03.23Z</time></trkpt><trkpt lat="43.7696608" lon="12.3676842"><ele>537.0</ele><time>2026-04-04T11:32:04.225Z</time></trkpt><trkpt lat="43.7697279" lon="12.3678822"><ele>535.0</ele><time>2026-04-04T11:32:05.229Z</time></trkpt><trkpt lat="43.7697927" lon="12.36807"><ele>533.0</ele><time>2026-04-04T11:32:06.227Z</time></trkpt><trkpt lat="43.7698503" lon="12.368249"><ele>531.0</ele><time>2026-04-04T11:32:07.227Z</time></trkpt><trkpt lat="43.7698948" lon="12.3684212"><ele>529.0</ele><time>2026-04-04T11:32:08.223Z</time></trkpt><trkpt lat="43.7699189" lon="12.3685755"><ele>529.0</ele><time>2026-04-04T11:32:09.226Z</time></trkpt><trkpt lat="43.7698929" lon="12.3687198"><ele>529.0</ele><time>2026-04-04T11:32:10.229Z</time></trkpt><trkpt lat="43.7698491" lon="12.3688404"><ele>529.0</ele><time>2026-04-04T11:32:11.226Z</time></trkpt><trkpt lat="43.7697713" lon="12.3689512"><ele>529.0</ele><time>2026-04-04T11:32:12.225Z</time></trkpt><trkpt lat="43.7696805" lon="12.3690261"><ele>529.0</ele><time>2026-04-04T11:32:13.225Z</time></trkpt><trkpt lat="43.7695742" lon="12.3690583"><ele>527.5</ele><time>2026-04-04T11:32:14.228Z</time></trkpt><trkpt lat="43.7694489" lon="12.3690561"><ele>526.0</ele><time>2026-04-04T11:32:15.225Z</time></trkpt><trkpt lat="43.7693334" lon="12.3690104"><ele>524.5</ele><time>2026-04-04T11:32:16.227Z</time></trkpt><trkpt lat="43.7692003" lon="12.3689486"><ele>523.0</ele><time>2026-04-04T11:32:17.226Z</time></trkpt><trkpt lat="43.769064" lon="12.3688926"><ele>522.0</ele><time>2026-04-04T11:32:18.229Z</time></trkpt><trkpt lat="43.768925" lon="12.3688378"><ele>521.0</ele><time>2026-04-04T11:32:19.229Z</time></trkpt><trkpt lat="43.7687936" lon="12.368789"><ele>520.0</ele><time>2026-04-04T11:32:20.225Z</time></trkpt><trkpt lat="43.768667" lon="12.3687364"><ele>519.0</ele><time>2026-04-04T11:32:21.229Z</time></trkpt><trkpt lat="43.7685446" lon="12.3686871"><ele>517.4</ele><time>2026-04-04T11:32:22.229Z</time></trkpt><trkpt lat="43.768421" lon="12.3686401"><ele>515.8</ele><time>2026-04-04T11:32:23.228Z</time></trkpt><trkpt lat="43.7683326" lon="12.3685964"><ele>514.2</ele><time>2026-04-04T11:32:24.229Z</time></trkpt><trkpt lat="43.7682288" lon="12.3685846"><ele>512.6</ele><time>2026-04-04T11:32:25.23Z</time></trkpt><trkpt lat="43.7681259" lon="12.3685521"><ele>511.0</ele><time>2026-04-04T11:32:26.23Z</time></trkpt><trkpt lat="43.7680382" lon="12.3686062"><ele>511.0</ele><time>2026-04-04T11:32:27.229Z</time></trkpt><trkpt lat="43.7679521" lon="12.3686699"><ele>511.0</ele><time>2026-04-04T11:32:28.229Z</time></trkpt><trkpt lat="43.7678988" lon="12.3687724"><ele>511.0</ele><time>2026-04-04T11:32:29.23Z</time></trkpt><trkpt lat="43.7678661" lon="12.3688926"><ele>511.0</ele><time>2026-04-04T11:32:30.229Z</time></trkpt><trkpt lat="43.7678837" lon="12.3690322"><ele>511.0</ele><time>2026-04-04T11:32:31.227Z</time></trkpt><trkpt lat="43.767917" lon="12.369159"><ele>510.6</ele><time>2026-04-04T11:32:32.226Z</time></trkpt><trkpt lat="43.7679771" lon="12.3692606"><ele>510.20000000000005</ele><time>2026-04-04T11:32:33.228Z</time></trkpt><trkpt lat="43.7680548" lon="12.3693373"><ele>509.79999999999995</ele><time>2026-04-04T11:32:34.225Z</time></trkpt><trkpt lat="43.7681401" lon="12.3693816"><ele>509.4</ele><time>2026-04-04T11:32:35.222Z</time></trkpt><trkpt lat="43.7682303" lon="12.3694194"><ele>509.0</ele><time>2026-04-04T11:32:36.229Z</time></trkpt><trkpt lat="43.7683044" lon="12.36947"><ele>509.0</ele><time>2026-04-04T11:32:37.229Z</time></trkpt><trkpt lat="43.7683503" lon="12.3695446"><ele>509.0</ele><time>2026-04-04T11:32:38.225Z</time></trkpt><trkpt lat="43.7683663" lon="12.3696451"><ele>509.0</ele><time>2026-04-04T11:32:39.229Z</time></trkpt><trkpt lat="43.7683194" lon="12.3697451"><ele>509.0</ele><time>2026-04-04T11:32:40.227Z</time></trkpt><trkpt lat="43.7682384" lon="12.3698363"><ele>509.0</ele><time>2026-04-04T11:32:41.228Z</time></trkpt><trkpt lat="43.7681283" lon="12.3699254"><ele>505.5</ele><time>2026-04-04T11:32:42.23Z</time></trkpt><trkpt lat="43.7680256" lon="12.3700128"><ele>502.0</ele><time>2026-04-04T11:32:43.228Z</time></trkpt><trkpt lat="43.7679194" lon="12.3701039"><ele>498.5</ele><time>2026-04-04T11:32:44.227Z</time></trkpt><trkpt lat="43.7678165" lon="12.3701776"><ele>495.0</ele><time>2026-04-04T11:32:45.227Z</time></trkpt><trkpt lat="43.7677078" lon="12.3702361"><ele>493.8</ele><time>2026-04-04T11:32:46.229Z</time></trkpt><trkpt lat="43.7676099" lon="12.37026"><ele>492.6</ele><time>2026-04-04T11:32:47.229Z</time></trkpt><trkpt lat="43.7675196" lon="12.3701633"><ele>491.4</ele><time>2026-04-04T11:32:48.228Z</time></trkpt><trkpt lat="43.7674326" lon="12.3700654"><ele>490.2</ele><time>2026-04-04T11:32:49.226Z</time></trkpt><trkpt lat="43.7673609" lon="12.3699921"><ele>489.0</ele><time>2026-04-04T11:32:50.226Z</time></trkpt><trkpt lat="43.7672956" lon="12.3699082"><ele>489.0</ele><time>2026-04-04T11:32:51.224Z</time></trkpt><trkpt lat="43.7672093" lon="12.3698638"><ele>489.0</ele><time>2026-04-04T11:32:52.228Z</time></trkpt><trkpt lat="43.76711" lon="12.3698641"><ele>489.0</ele><time>2026-04-04T11:32:53.229Z</time></trkpt><trkpt lat="43.7670084" lon="12.3699035"><ele>489.0</ele><time>2026-04-04T11:32:54.227Z</time></trkpt><trkpt lat="43.7669329" lon="12.3699822"><ele>489.0</ele><time>2026-04-04T11:32:55.224Z</time></trkpt><trkpt lat="43.7668772" lon="12.3700962"><ele>486.5</ele><time>2026-04-04T11:32:56.227Z</time></trkpt><trkpt lat="43.7668487" lon="12.3702356"><ele>484.0</ele><time>2026-04-04T11:32:57.229Z</time></trkpt><trkpt lat="43.7668394" lon="12.3703985"><ele>481.5</ele><time>2026-04-04T11:32:58.226Z</time></trkpt><trkpt lat="43.7668628" lon="12.3705702"><ele>479.0</ele><time>2026-04-04T11:32:59.224Z</time></trkpt><trkpt lat="43.7669029" lon="12.3707449"><ele>479.0</ele><time>2026-04-04T11:33:00.225Z</time></trkpt><trkpt lat="43.7669424" lon="12.370915"><ele>479.0</ele><time>2026-04-04T11:33:01.229Z</time></trkpt><trkpt lat="43.7669807" lon="12.371073"><ele>479.0</ele><time>2026-04-04T11:33:02.222Z</time></trkpt><trkpt lat="43.7670105" lon="12.3712236"><ele>479.0</ele><time>2026-04-04T11:33:03.223Z</time></trkpt><trkpt lat="43.76704" lon="12.3713705"><ele>476.6</ele><time>2026-04-04T11:33:04.228Z</time></trkpt><trkpt lat="43.7670607" lon="12.3714997"><ele>474.2</ele><time>2026-04-04T11:33:05.23Z</time></trkpt><trkpt lat="43.7670621" lon="12.3716406"><ele>471.80000000000007</ele><time>2026-04-04T11:33:06.228Z</time></trkpt><trkpt lat="43.7670248" lon="12.3717745"><ele>469.40000000000003</ele><time>2026-04-04T11:33:07.225Z</time></trkpt><trkpt lat="43.7669636" lon="12.3718987"><ele>467.0</ele><time>2026-04-04T11:33:08.228Z</time></trkpt><trkpt lat="43.7668746" lon="12.3719819"><ele>467.0</ele><time>2026-04-04T11:33:09.227Z</time></trkpt><trkpt lat="43.7667694" lon="12.3720273"><ele>467.00000000000006</ele><time>2026-04-04T11:33:10.228Z</time></trkpt><trkpt lat="43.7666583" lon="12.3720311"><ele>467.00000000000006</ele><time>2026-04-04T11:33:11.228Z</time></trkpt><trkpt lat="43.7665494" lon="12.3720055"><ele>467.0</ele><time>2026-04-04T11:33:12.228Z</time></trkpt><trkpt lat="43.7664795" lon="12.3718977"><ele>467.0</ele><time>2026-04-04T11:33:13.229Z</time></trkpt><trkpt lat="43.7663871" lon="12.371778"><ele>467.0</ele><time>2026-04-04T11:33:14.226Z</time></trkpt><trkpt lat="43.7663658" lon="12.3716051"><ele>467.00000000000006</ele><time>2026-04-04T11:33:15.229Z</time></trkpt><trkpt lat="43.7663227" lon="12.3714688"><ele>467.00000000000006</ele><time>2026-04-04T11:33:16.224Z</time></trkpt><trkpt lat="43.7662832" lon="12.3713344"><ele>467.0</ele><time>2026-04-04T11:33:17.224Z</time></trkpt><trkpt lat="43.7662338" lon="12.3712122"><ele>467.0</ele><time>2026-04-04T11:33:18.225Z</time></trkpt><trkpt lat="43.7661822" lon="12.3711132"><ele>467.8333333333333</ele><time>2026-04-04T11:33:19.226Z</time></trkpt><trkpt lat="43.7661091" lon="12.3710632"><ele>468.66666666666663</ele><time>2026-04-04T11:33:20.226Z</time></trkpt><trkpt lat="43.7660267" lon="12.3710472"><ele>469.5</ele><time>2026-04-04T11:33:21.225Z</time></trkpt><trkpt lat="43.7659489" lon="12.3710701"><ele>470.33333333333337</ele><time>2026-04-04T11:33:22.225Z</time></trkpt><trkpt lat="43.7658868" lon="12.3711301"><ele>471.1666666666667</ele><time>2026-04-04T11:33:23.227Z</time></trkpt><trkpt lat="43.7658341" lon="12.3712216"><ele>472.0</ele><time>2026-04-04T11:33:24.224Z</time></trkpt><trkpt lat="43.7658006" lon="12.3713354"><ele>467.5</ele><time>2026-04-04T11:33:25.225Z</time></trkpt><trkpt lat="43.7657775" lon="12.3714787"><ele>463.0</ele><time>2026-04-04T11:33:26.229Z</time></trkpt><trkpt lat="43.7657656" lon="12.3716312"><ele>458.5</ele><time>2026-04-04T11:33:27.227Z</time></trkpt><trkpt lat="43.7657553" lon="12.3718101"><ele>454.0</ele><time>2026-04-04T11:33:28.228Z</time></trkpt><trkpt lat="43.7657433" lon="12.3719861"><ele>454.0</ele><time>2026-04-04T11:33:29.227Z</time></trkpt><trkpt lat="43.765724" lon="12.3721642"><ele>454.0</ele><time>2026-04-04T11:33:30.229Z</time></trkpt><trkpt lat="43.7657154" lon="12.3723472"><ele>454.0</ele><time>2026-04-04T11:33:31.229Z</time></trkpt><trkpt lat="43.7657056" lon="12.3725323"><ele>454.0</ele><time>2026-04-04T11:33:32.229Z</time></trkpt><trkpt lat="43.7657107" lon="12.3727229"><ele>453.0</ele><time>2026-04-04T11:33:33.227Z</time></trkpt><trkpt lat="43.7657364" lon="12.3729055"><ele>452.0</ele><time>2026-04-04T11:33:34.228Z</time></trkpt><trkpt lat="43.7657781" lon="12.373111"><ele>451.0</ele><time>2026-04-04T11:33:35.225Z</time></trkpt><trkpt lat="43.7658247" lon="12.3733152"><ele>450.0</ele><time>2026-04-04T11:33:36.228Z</time></trkpt><trkpt lat="43.7658681" lon="12.3735221"><ele>447.0</ele><time>2026-04-04T11:33:37.228Z</time></trkpt><trkpt lat="43.7659235" lon="12.373742"><ele>444.0</ele><time>2026-04-04T11:33:38.223Z</time></trkpt><trkpt lat="43.7659722" lon="12.3739676"><ele>441.0</ele><time>2026-04-04T11:33:39.226Z</time></trkpt><trkpt lat="43.7660195" lon="12.3741939"><ele>442.0</ele><time>2026-04-04T11:33:40.226Z</time></trkpt><trkpt lat="43.7660744" lon="12.374418"><ele>443.0</ele><time>2026-04-04T11:33:41.229Z</time></trkpt><trkpt lat="43.7661256" lon="12.3746467"><ele>444.0</ele><time>2026-04-04T11:33:42.225Z</time></trkpt><trkpt lat="43.7661837" lon="12.3748842"><ele>442.0</ele><time>2026-04-04T11:33:43.226Z</time></trkpt><trkpt lat="43.7662435" lon="12.3751267"><ele>440.0</ele><time>2026-04-04T11:33:44.226Z</time></trkpt><trkpt lat="43.7662959" lon="12.3753648"><ele>438.0</ele><time>2026-04-04T11:33:45.228Z</time></trkpt><trkpt lat="43.7663479" lon="12.3756053"><ele>434.0</ele><time>2026-04-04T11:33:46.227Z</time></trkpt><trkpt lat="43.766401" lon="12.3758357"><ele>430.0</ele><time>2026-04-04T11:33:47.228Z</time></trkpt><trkpt lat="43.7664536" lon="12.3760624"><ele>426.0</ele><time>2026-04-04T11:33:48.228Z</time></trkpt><trkpt lat="43.7665003" lon="12.3762679"><ele>424.33333333333337</ele><time>2026-04-04T11:33:49.228Z</time></trkpt><trkpt lat="43.7665461" lon="12.3764803"><ele>422.6666666666667</ele><time>2026-04-04T11:33:50.225Z</time></trkpt><trkpt lat="43.7665934" lon="12.3766909"><ele>421.0</ele><time>2026-04-04T11:33:51.224Z</time></trkpt><trkpt lat="43.7666193" lon="12.3768905"><ele>421.0</ele><time>2026-04-04T11:33:52.225Z</time></trkpt><trkpt lat="43.7666277" lon="12.3770843"><ele>421.0</ele><time>2026-04-04T11:33:53.227Z</time></trkpt><trkpt lat="43.7666021" lon="12.3772881"><ele>421.0</ele><time>2026-04-04T11:33:54.227Z</time></trkpt><trkpt lat="43.7665705" lon="12.3774791"><ele>421.0</ele><time>2026-04-04T11:33:55.229Z</time></trkpt><trkpt lat="43.7665242" lon="12.3776696"><ele>420.75</ele><time>2026-04-04T11:33:56.226Z</time></trkpt><trkpt lat="43.76649" lon="12.3778643"><ele>420.5</ele><time>2026-04-04T11:33:57.227Z</time></trkpt><trkpt lat="43.766462" lon="12.3780633"><ele>420.25</ele><time>2026-04-04T11:33:58.226Z</time></trkpt><trkpt lat="43.7664172" lon="12.3782423"><ele>420.0</ele><time>2026-04-04T11:33:59.228Z</time></trkpt><trkpt lat="43.7663784" lon="12.378426"><ele>419.5</ele><time>2026-04-04T11:34:00.227Z</time></trkpt><trkpt lat="43.7663389" lon="12.3785969"><ele>419.0</ele><time>2026-04-04T11:34:01.227Z</time></trkpt><trkpt lat="43.7663067" lon="12.3787705"><ele>418.5</ele><time>2026-04-04T11:34:02.225Z</time></trkpt><trkpt lat="43.7662659" lon="12.378946"><ele>418.0</ele><time>2026-04-04T11:34:03.228Z</time></trkpt><trkpt lat="43.7662404" lon="12.379129"><ele>417.33333333333337</ele><time>2026-04-04T11:34:04.229Z</time></trkpt><trkpt lat="43.7662146" lon="12.3793259"><ele>416.66666666666663</ele><time>2026-04-04T11:34:05.229Z</time></trkpt><trkpt lat="43.7661963" lon="12.379532"><ele>416.0</ele><time>2026-04-04T11:34:06.227Z</time></trkpt><trkpt lat="43.7661995" lon="12.3797471"><ele>414.3333333333333</ele><time>2026-04-04T11:34:07.227Z</time></trkpt><trkpt lat="43.7662006" lon="12.3799687"><ele>412.66666666666663</ele><time>2026-04-04T11:34:08.228Z</time></trkpt><trkpt lat="43.766199" lon="12.3801877"><ele>411.0</ele><time>2026-04-04T11:34:09.226Z</time></trkpt><trkpt lat="43.7662077" lon="12.3804155"><ele>411.0</ele><time>2026-04-04T11:34:10.227Z</time></trkpt><trkpt lat="43.7662136" lon="12.3806319"><ele>411.0</ele><time>2026-04-04T11:34:11.227Z</time></trkpt><trkpt lat="43.7662124" lon="12.3808399"><ele>411.0</ele><time>2026-04-04T11:34:12.228Z</time></trkpt><trkpt lat="43.7662077" lon="12.3810367"><ele>411.0</ele><time>2026-04-04T11:34:13.229Z</time></trkpt><trkpt lat="43.7662071" lon="12.3812183"><ele>411.5</ele><time>2026-04-04T11:34:14.23Z</time></trkpt><trkpt lat="43.7661955" lon="12.3813903"><ele>412.0</ele><time>2026-04-04T11:34:15.227Z</time></trkpt><trkpt lat="43.7661627" lon="12.3815426"><ele>412.5</ele><time>2026-04-04T11:34:16.225Z</time></trkpt><trkpt lat="43.7661023" lon="12.3816764"><ele>413.0</ele><time>2026-04-04T11:34:17.228Z</time></trkpt><trkpt lat="43.7660001" lon="12.3817857"><ele>413.0</ele><time>2026-04-04T11:34:18.228Z</time></trkpt><trkpt lat="43.7658826" lon="12.3818942"><ele>413.0</ele><time>2026-04-04T11:34:19.227Z</time></trkpt><trkpt lat="43.7657503" lon="12.3819828"><ele>413.0</ele><time>2026-04-04T11:34:20.225Z</time></trkpt><trkpt lat="43.7656143" lon="12.3820843"><ele>413.0</ele><time>2026-04-04T11:34:21.223Z</time></trkpt><trkpt lat="43.7654826" lon="12.3821909"><ele>412.0</ele><time>2026-04-04T11:34:22.224Z</time></trkpt><trkpt lat="43.7653565" lon="12.382322"><ele>411.0</ele><time>2026-04-04T11:34:23.227Z</time></trkpt><trkpt lat="43.7652326" lon="12.382448"><ele>410.0</ele><time>2026-04-04T11:34:24.226Z</time></trkpt><trkpt lat="43.7651142" lon="12.3825855"><ele>410.0</ele><time>2026-04-04T11:34:25.226Z</time></trkpt><trkpt lat="43.76501" lon="12.3827448"><ele>410.0</ele><time>2026-04-04T11:34:26.226Z</time></trkpt><trkpt lat="43.7649144" lon="12.3829009"><ele>410.0</ele><time>2026-04-04T11:34:27.225Z</time></trkpt><trkpt lat="43.7648223" lon="12.3830514"><ele>410.0</ele><time>2026-04-04T11:34:28.227Z</time></trkpt><trkpt lat="43.7647317" lon="12.3831838"><ele>407.5</ele><time>2026-04-04T11:34:29.228Z</time></trkpt><trkpt lat="43.7646503" lon="12.3833075"><ele>405.0</ele><time>2026-04-04T11:34:30.224Z</time></trkpt><trkpt lat="43.7645647" lon="12.3834189"><ele>402.5</ele><time>2026-04-04T11:34:31.229Z</time></trkpt><trkpt lat="43.7644843" lon="12.3835184"><ele>400.0</ele><time>2026-04-04T11:34:32.226Z</time></trkpt><trkpt lat="43.7643937" lon="12.3835972"><ele>400.0</ele><time>2026-04-04T11:34:33.226Z</time></trkpt><trkpt lat="43.764242" lon="12.3835421"><ele>400.0</ele><time>2026-04-04T11:34:34.226Z</time></trkpt><trkpt lat="43.7641368" lon="12.3835407"><ele>400.0</ele><time>2026-04-04T11:34:35.226Z</time></trkpt><trkpt lat="43.7640244" lon="12.3835244"><ele>400.0</ele><time>2026-04-04T11:34:36.226Z</time></trkpt><trkpt lat="43.7639241" lon="12.3835411"><ele>400.0</ele><time>2026-04-04T11:34:37.223Z</time></trkpt><trkpt lat="43.7638588" lon="12.3836261"><ele>400.0</ele><time>2026-04-04T11:34:38.227Z</time></trkpt><trkpt lat="43.7638051" lon="12.3837431"><ele>400.0</ele><time>2026-04-04T11:34:39.224Z</time></trkpt><trkpt lat="43.7637613" lon="12.3839013"><ele>400.0</ele><time>2026-04-04T11:34:40.224Z</time></trkpt><trkpt lat="43.7637265" lon="12.3840567"><ele>400.0</ele><time>2026-04-04T11:34:41.23Z</time></trkpt><trkpt lat="43.7636988" lon="12.3842283"><ele>399.75</ele><time>2026-04-04T11:34:42.225Z</time></trkpt><trkpt lat="43.7636577" lon="12.3844136"><ele>399.5</ele><time>2026-04-04T11:34:43.228Z</time></trkpt><trkpt lat="43.7636178" lon="12.3846056"><ele>399.25</ele><time>2026-04-04T11:34:44.226Z</time></trkpt><trkpt lat="43.763576" lon="12.3847885"><ele>399.0</ele><time>2026-04-04T11:34:45.228Z</time></trkpt><trkpt lat="43.7635382" lon="12.3849765"><ele>399.5</ele><time>2026-04-04T11:34:46.229Z</time></trkpt><trkpt lat="43.7635093" lon="12.3851662"><ele>400.0</ele><time>2026-04-04T11:34:47.227Z</time></trkpt><trkpt lat="43.7635028" lon="12.385361"><ele>400.5</ele><time>2026-04-04T11:34:48.223Z</time></trkpt><trkpt lat="43.7635152" lon="12.3855561"><ele>401.0</ele><time>2026-04-04T11:34:49.223Z</time></trkpt><trkpt lat="43.763542" lon="12.385758"><ele>408.66666666666663</ele><time>2026-04-04T11:34:50.227Z</time></trkpt><trkpt lat="43.7635784" lon="12.3859625"><ele>416.33333333333337</ele><time>2026-04-04T11:34:51.229Z</time></trkpt><trkpt lat="43.7636145" lon="12.386173"><ele>424.0</ele><time>2026-04-04T11:34:52.224Z</time></trkpt><trkpt lat="43.7636634" lon="12.3863953"><ele>424.0</ele><time>2026-04-04T11:34:53.224Z</time></trkpt><trkpt lat="43.7636969" lon="12.3865915"><ele>424.0</ele><time>2026-04-04T11:34:54.227Z</time></trkpt><trkpt lat="43.7637228" lon="12.3867795"><ele>424.0</ele><time>2026-04-04T11:34:55.228Z</time></trkpt><trkpt lat="43.7637278" lon="12.3869633"><ele>424.0</ele><time>2026-04-04T11:34:56.229Z</time></trkpt><trkpt lat="43.7637143" lon="12.3871338"><ele>424.75</ele><time>2026-04-04T11:34:57.228Z</time></trkpt><trkpt lat="43.7636582" lon="12.3872945"><ele>425.5</ele><time>2026-04-04T11:34:58.23Z</time></trkpt><trkpt lat="43.7635851" lon="12.3874627"><ele>426.25</ele><time>2026-04-04T11:34:59.225Z</time></trkpt><trkpt lat="43.7634937" lon="12.3876216"><ele>427.0</ele><time>2026-04-04T11:35:00.225Z</time></trkpt><trkpt lat="43.7634049" lon="12.3877803"><ele>425.25</ele><time>2026-04-04T11:35:01.228Z</time></trkpt><trkpt lat="43.7633101" lon="12.3879304"><ele>423.5</ele><time>2026-04-04T11:35:02.227Z</time></trkpt><trkpt lat="43.7632002" lon="12.3880601"><ele>421.75</ele><time>2026-04-04T11:35:03.227Z</time></trkpt><trkpt lat="43.7630669" lon="12.3881576"><ele>420.0</ele><time>2026-04-04T11:35:04.23Z</time></trkpt><trkpt lat="43.762921" lon="12.388227"><ele>420.0</ele><time>2026-04-04T11:35:05.226Z</time></trkpt><trkpt lat="43.7627654" lon="12.3882798"><ele>420.0</ele><time>2026-04-04T11:35:06.23Z</time></trkpt><trkpt lat="43.7626048" lon="12.3883358"><ele>420.0</ele><time>2026-04-04T11:35:07.224Z</time></trkpt><trkpt lat="43.7624445" lon="12.3883862"><ele>415.0</ele><time>2026-04-04T11:35:08.228Z</time></trkpt><trkpt lat="43.7622965" lon="12.3884324"><ele>410.0</ele><time>2026-04-04T11:35:09.229Z</time></trkpt><trkpt lat="43.7621522" lon="12.3884898"><ele>405.0</ele><time>2026-04-04T11:35:10.225Z</time></trkpt><trkpt lat="43.7620212" lon="12.3885888"><ele>405.0</ele><time>2026-04-04T11:35:11.226Z</time></trkpt><trkpt lat="43.7619133" lon="12.3887119"><ele>405.0</ele><time>2026-04-04T11:35:12.224Z</time></trkpt><trkpt lat="43.7618364" lon="12.3888846"><ele>405.0</ele><time>2026-04-04T11:35:13.227Z</time></trkpt><trkpt lat="43.7617884" lon="12.3890704"><ele>405.0</ele><time>2026-04-04T11:35:14.223Z</time></trkpt><trkpt lat="43.7617715" lon="12.3892706"><ele>401.0</ele><time>2026-04-04T11:35:15.228Z</time></trkpt><trkpt lat="43.7617735" lon="12.3894846"><ele>397.0</ele><time>2026-04-04T11:35:16.226Z</time></trkpt><trkpt lat="43.7617843" lon="12.3897038"><ele>393.0</ele><time>2026-04-04T11:35:17.227Z</time></trkpt><trkpt lat="43.7617834" lon="12.3899166"><ele>393.0</ele><time>2026-04-04T11:35:18.226Z</time></trkpt><trkpt lat="43.7617733" lon="12.390115"><ele>393.0</ele><time>2026-04-04T11:35:19.222Z</time></trkpt><trkpt lat="43.76175" lon="12.3903166"><ele>393.0</ele><time>2026-04-04T11:35:20.228Z</time></trkpt><trkpt lat="43.7616924" lon="12.3905092"><ele>393.0</ele><time>2026-04-04T11:35:21.23Z</time></trkpt><trkpt lat="43.7616084" lon="12.3906833"><ele>397.33333333333337</ele><time>2026-04-04T11:35:22.223Z</time></trkpt><trkpt lat="43.7615047" lon="12.3908402"><ele>401.6666666666667</ele><time>2026-04-04T11:35:23.223Z</time></trkpt><trkpt lat="43.761384" lon="12.3909747"><ele>406.0</ele><time>2026-04-04T11:35:24.224Z</time></trkpt><trkpt lat="43.7612598" lon="12.3911123"><ele>406.0</ele><time>2026-04-04T11:35:25.225Z</time></trkpt><trkpt lat="43.7611262" lon="12.391231"><ele>406.0</ele><time>2026-04-04T11:35:26.226Z</time></trkpt><trkpt lat="43.7609779" lon="12.3913064"><ele>406.0</ele><time>2026-04-04T11:35:27.223Z</time></trkpt><trkpt lat="43.7608174" lon="12.3913277"><ele>399.6666666666667</ele><time>2026-04-04T11:35:28.227Z</time></trkpt><trkpt lat="43.7606469" lon="12.391331"><ele>393.33333333333337</ele><time>2026-04-04T11:35:29.228Z</time></trkpt><trkpt lat="43.7604796" lon="12.3913016"><ele>387.0</ele><time>2026-04-04T11:35:30.229Z</time></trkpt><trkpt lat="43.7603218" lon="12.3912881"><ele>385.3333333333333</ele><time>2026-04-04T11:35:31.227Z</time></trkpt><trkpt lat="43.7601752" lon="12.3913395"><ele>383.66666666666663</ele><time>2026-04-04T11:35:32.227Z</time></trkpt><trkpt lat="43.760034" lon="12.3914142"><ele>382.0</ele><time>2026-04-04T11:35:33.229Z</time></trkpt><trkpt lat="43.7599083" lon="12.39153"><ele>386.3333333333333</ele><time>2026-04-04T11:35:34.227Z</time></trkpt><trkpt lat="43.7597906" lon="12.3916616"><ele>390.66666666666663</ele><time>2026-04-04T11:35:35.225Z</time></trkpt><trkpt lat="43.7597152" lon="12.3918728"><ele>395.0</ele><time>2026-04-04T11:35:36.225Z</time></trkpt><trkpt lat="43.7596409" lon="12.3920715"><ele>399.3333333333333</ele><time>2026-04-04T11:35:37.229Z</time></trkpt><trkpt lat="43.7595836" lon="12.3922864"><ele>403.66666666666663</ele><time>2026-04-04T11:35:38.228Z</time></trkpt><trkpt lat="43.7595166" lon="12.3924966"><ele>408.0</ele><time>2026-04-04T11:35:39.226Z</time></trkpt><trkpt lat="43.7594506" lon="12.3927211"><ele>408.0</ele><time>2026-04-04T11:35:40.225Z</time></trkpt><trkpt lat="43.7593855" lon="12.3929299"><ele>408.0</ele><time>2026-04-04T11:35:41.229Z</time></trkpt><trkpt lat="43.7593101" lon="12.3931161"><ele>408.0</ele><time>2026-04-04T11:35:42.226Z</time></trkpt><trkpt lat="43.7592144" lon="12.3932943"><ele>400.66666666666663</ele><time>2026-04-04T11:35:43.227Z</time></trkpt><trkpt lat="43.7590948" lon="12.3934542"><ele>393.3333333333333</ele><time>2026-04-04T11:35:44.224Z</time></trkpt><trkpt lat="43.7589624" lon="12.3935916"><ele>386.0</ele><time>2026-04-04T11:35:45.226Z</time></trkpt><trkpt lat="43.7588253" lon="12.3937313"><ele>385.0</ele><time>2026-04-04T11:35:46.223Z</time></trkpt><trkpt lat="43.7586863" lon="12.3938626"><ele>384.0</ele><time>2026-04-04T11:35:47.229Z</time></trkpt><trkpt lat="43.7585611" lon="12.3939855"><ele>383.0</ele><time>2026-04-04T11:35:48.226Z</time></trkpt><trkpt lat="43.7584424" lon="12.3941049"><ele>383.0</ele><time>2026-04-04T11:35:49.224Z</time></trkpt><trkpt lat="43.7583372" lon="12.3942137"><ele>383.0</ele><time>2026-04-04T11:35:50.225Z</time></trkpt><trkpt lat="43.7582324" lon="12.3943229"><ele>383.0</ele><time>2026-04-04T11:35:51.226Z</time></trkpt><trkpt lat="43.7581357" lon="12.394436"><ele>383.0</ele><time>2026-04-04T11:35:52.224Z</time></trkpt><trkpt lat="43.758058" lon="12.3945849"><ele>386.5</ele><time>2026-04-04T11:35:53.227Z</time></trkpt><trkpt lat="43.7579947" lon="12.3947653"><ele>390.0</ele><time>2026-04-04T11:35:54.223Z</time></trkpt><trkpt lat="43.757935" lon="12.3949465"><ele>393.5</ele><time>2026-04-04T11:35:55.229Z</time></trkpt><trkpt lat="43.7578774" lon="12.3951352"><ele>397.0</ele><time>2026-04-04T11:35:56.229Z</time></trkpt><trkpt lat="43.7578203" lon="12.3953156"><ele>397.75</ele><time>2026-04-04T11:35:57.224Z</time></trkpt><trkpt lat="43.7577618" lon="12.3955044"><ele>398.5</ele><time>2026-04-04T11:35:58.224Z</time></trkpt><trkpt lat="43.7576917" lon="12.3956852"><ele>399.25</ele><time>2026-04-04T11:35:59.224Z</time></trkpt><trkpt lat="43.7576121" lon="12.3958493"><ele>400.0</ele><time>2026-04-04T11:36:00.225Z</time></trkpt><trkpt lat="43.7575198" lon="12.3960227"><ele>396.6666666666667</ele><time>2026-04-04T11:36:01.229Z</time></trkpt><trkpt lat="43.7574297" lon="12.3961911"><ele>393.33333333333337</ele><time>2026-04-04T11:36:02.224Z</time></trkpt><trkpt lat="43.7573447" lon="12.3963781"><ele>390.0</ele><time>2026-04-04T11:36:03.225Z</time></trkpt><trkpt lat="43.7572509" lon="12.3965496"><ele>390.0</ele><time>2026-04-04T11:36:04.226Z</time></trkpt><trkpt lat="43.7571653" lon="12.3967122"><ele>390.0</ele><time>2026-04-04T11:36:05.225Z</time></trkpt><trkpt lat="43.7570869" lon="12.3968837"><ele>390.0</ele><time>2026-04-04T11:36:06.224Z</time></trkpt><trkpt lat="43.7570259" lon="12.397065"><ele>390.0</ele><time>2026-04-04T11:36:07.224Z</time></trkpt><trkpt lat="43.7569803" lon="12.3972597"><ele>393.66666666666663</ele><time>2026-04-04T11:36:08.229Z</time></trkpt><trkpt lat="43.7569461" lon="12.397465"><ele>397.3333333333333</ele><time>2026-04-04T11:36:09.226Z</time></trkpt><trkpt lat="43.7569221" lon="12.3976756"><ele>401.0</ele><time>2026-04-04T11:36:10.225Z</time></trkpt><trkpt lat="43.7568986" lon="12.3978882"><ele>400.66666666666663</ele><time>2026-04-04T11:36:11.226Z</time></trkpt><trkpt lat="43.756874" lon="12.3980973"><ele>400.33333333333337</ele><time>2026-04-04T11:36:12.226Z</time></trkpt><trkpt lat="43.7568465" lon="12.3983159"><ele>400.0</ele><time>2026-04-04T11:36:13.226Z</time></trkpt><trkpt lat="43.756819" lon="12.3985361"><ele>391.0</ele><time>2026-04-04T11:36:14.225Z</time></trkpt><trkpt lat="43.7567874" lon="12.398738"><ele>382.0</ele><time>2026-04-04T11:36:15.224Z</time></trkpt><trkpt lat="43.7567282" lon="12.3989287"><ele>373.0</ele><time>2026-04-04T11:36:16.227Z</time></trkpt><trkpt lat="43.756657" lon="12.3991174"><ele>373.0</ele><time>2026-04-04T11:36:17.225Z</time></trkpt><trkpt lat="43.7565527" lon="12.3992807"><ele>373.0</ele><time>2026-04-04T11:36:18.224Z</time></trkpt><trkpt lat="43.756427" lon="12.3994304"><ele>373.0</ele><time>2026-04-04T11:36:19.226Z</time></trkpt><trkpt lat="43.756286" lon="12.3995604"><ele>371.0</ele><time>2026-04-04T11:36:20.225Z</time></trkpt><trkpt lat="43.7561354" lon="12.3996776"><ele>369.0</ele><time>2026-04-04T11:36:21.227Z</time></trkpt><trkpt lat="43.7559936" lon="12.399786"><ele>367.0</ele><time>2026-04-04T11:36:22.221Z</time></trkpt><trkpt lat="43.7558695" lon="12.3998868"><ele>367.0</ele><time>2026-04-04T11:36:23.225Z</time></trkpt><trkpt lat="43.7557625" lon="12.4000009"><ele>367.0</ele><time>2026-04-04T11:36:24.223Z</time></trkpt><trkpt lat="43.7556772" lon="12.4001411"><ele>367.0</ele><time>2026-04-04T11:36:25.225Z</time></trkpt><trkpt lat="43.7556245" lon="12.4003165"><ele>367.0</ele><time>2026-04-04T11:36:26.225Z</time></trkpt><trkpt lat="43.7556016" lon="12.4004939"><ele>368.0</ele><time>2026-04-04T11:36:27.225Z</time></trkpt><trkpt lat="43.7555943" lon="12.4007016"><ele>369.0</ele><time>2026-04-04T11:36:28.228Z</time></trkpt><trkpt lat="43.7555848" lon="12.4009168"><ele>370.0</ele><time>2026-04-04T11:36:29.229Z</time></trkpt><trkpt lat="43.7555691" lon="12.4011358"><ele>370.3333333333333</ele><time>2026-04-04T11:36:30.224Z</time></trkpt><trkpt lat="43.7555298" lon="12.401346"><ele>370.6666666666667</ele><time>2026-04-04T11:36:31.224Z</time></trkpt><trkpt lat="43.7554578" lon="12.4015551"><ele>371.0</ele><time>2026-04-04T11:36:32.224Z</time></trkpt><trkpt lat="43.7553629" lon="12.4017539"><ele>371.0</ele><time>2026-04-04T11:36:33.226Z</time></trkpt><trkpt lat="43.7552377" lon="12.4019507"><ele>371.0</ele><time>2026-04-04T11:36:34.225Z</time></trkpt><trkpt lat="43.7550984" lon="12.4021466"><ele>371.0</ele><time>2026-04-04T11:36:35.226Z</time></trkpt><trkpt lat="43.7549523" lon="12.4023258"><ele>368.6666666666667</ele><time>2026-04-04T11:36:36.226Z</time></trkpt><trkpt lat="43.7548147" lon="12.402496"><ele>366.3333333333333</ele><time>2026-04-04T11:36:37.226Z</time></trkpt><trkpt lat="43.7546764" lon="12.402651"><ele>364.0</ele><time>2026-04-04T11:36:38.224Z</time></trkpt><trkpt lat="43.7545237" lon="12.4027599"><ele>360.3333333333333</ele><time>2026-04-04T11:36:39.225Z</time></trkpt><trkpt lat="43.7543649" lon="12.4028283"><ele>356.6666666666667</ele><time>2026-04-04T11:36:40.227Z</time></trkpt><trkpt lat="43.7542116" lon="12.4028925"><ele>353.0</ele><time>2026-04-04T11:36:41.224Z</time></trkpt><trkpt lat="43.7540709" lon="12.4029533"><ele>355.25</ele><time>2026-04-04T11:36:42.227Z</time></trkpt><trkpt lat="43.7539442" lon="12.403028"><ele>357.5</ele><time>2026-04-04T11:36:43.228Z</time></trkpt><trkpt lat="43.7538383" lon="12.4031202"><ele>359.75</ele><time>2026-04-04T11:36:44.227Z</time></trkpt><trkpt lat="43.7537535" lon="12.4032455"><ele>362.0</ele><time>2026-04-04T11:36:45.226Z</time></trkpt><trkpt lat="43.7537" lon="12.4034066"><ele>362.0</ele><time>2026-04-04T11:36:46.226Z</time></trkpt><trkpt lat="43.7536618" lon="12.4035783"><ele>362.0</ele><time>2026-04-04T11:36:47.226Z</time></trkpt><trkpt lat="43.7536122" lon="12.4037539"><ele>362.0</ele><time>2026-04-04T11:36:48.228Z</time></trkpt><trkpt lat="43.7535224" lon="12.4039066"><ele>362.0</ele><time>2026-04-04T11:36:49.226Z</time></trkpt><trkpt lat="43.753406" lon="12.4040361"><ele>359.6666666666667</ele><time>2026-04-04T11:36:50.227Z</time></trkpt><trkpt lat="43.7532809" lon="12.4041696"><ele>357.3333333333333</ele><time>2026-04-04T11:36:51.226Z</time></trkpt><trkpt lat="43.7531581" lon="12.4043055"><ele>355.0</ele><time>2026-04-04T11:36:52.224Z</time></trkpt><trkpt lat="43.7530367" lon="12.4044378"><ele>355.0</ele><time>2026-04-04T11:36:53.226Z</time></trkpt><trkpt lat="43.7529148" lon="12.4045669"><ele>355.0</ele><time>2026-04-04T11:36:54.223Z</time></trkpt><trkpt lat="43.7527995" lon="12.4046862"><ele>355.0</ele><time>2026-04-04T11:36:55.229Z</time></trkpt><trkpt lat="43.752676" lon="12.404808"><ele>355.0</ele><time>2026-04-04T11:36:56.227Z</time></trkpt><trkpt lat="43.7525581" lon="12.404933"><ele>356.25</ele><time>2026-04-04T11:36:57.226Z</time></trkpt><trkpt lat="43.7524436" lon="12.4050538"><ele>357.5</ele><time>2026-04-04T11:36:58.224Z</time></trkpt><trkpt lat="43.7523375" lon="12.4051715"><ele>358.75</ele><time>2026-04-04T11:36:59.228Z</time></trkpt><trkpt lat="43.7522351" lon="12.4052837"><ele>360.0</ele><time>2026-04-04T11:37:00.224Z</time></trkpt><trkpt lat="43.7521387" lon="12.4053872"><ele>360.0</ele><time>2026-04-04T11:37:01.228Z</time></trkpt><trkpt lat="43.7520421" lon="12.4054917"><ele>360.0</ele><time>2026-04-04T11:37:02.225Z</time></trkpt><trkpt lat="43.7519372" lon="12.4056037"><ele>360.0</ele><time>2026-04-04T11:37:03.223Z</time></trkpt><trkpt lat="43.7518323" lon="12.4057244"><ele>360.0</ele><time>2026-04-04T11:37:04.223Z</time></trkpt><trkpt lat="43.7517184" lon="12.4058551"><ele>358.3333333333333</ele><time>2026-04-04T11:37:05.226Z</time></trkpt><trkpt lat="43.7516019" lon="12.4060008"><ele>356.66666666666663</ele><time>2026-04-04T11:37:06.228Z</time></trkpt><trkpt lat="43.751483" lon="12.4061468"><ele>355.0</ele><time>2026-04-04T11:37:07.227Z</time></trkpt><trkpt lat="43.7513574" lon="12.4062983"><ele>353.3333333333333</ele><time>2026-04-04T11:37:08.228Z</time></trkpt><trkpt lat="43.7512313" lon="12.406447"><ele>351.6666666666667</ele><time>2026-04-04T11:37:09.227Z</time></trkpt><trkpt lat="43.751111" lon="12.406602"><ele>350.0</ele><time>2026-04-04T11:37:10.222Z</time></trkpt><trkpt lat="43.75098" lon="12.4067441"><ele>350.0</ele><time>2026-04-04T11:37:11.223Z</time></trkpt><trkpt lat="43.7508506" lon="12.4068897"><ele>350.0</ele><time>2026-04-04T11:37:12.224Z</time></trkpt><trkpt lat="43.7507187" lon="12.4070128"><ele>350.0</ele><time>2026-04-04T11:37:13.223Z</time></trkpt><trkpt lat="43.7505732" lon="12.4071218"><ele>352.6666666666667</ele><time>2026-04-04T11:37:14.226Z</time></trkpt><trkpt lat="43.7504228" lon="12.4072182"><ele>355.3333333333333</ele><time>2026-04-04T11:37:15.225Z</time></trkpt><trkpt lat="43.7502635" lon="12.4073243"><ele>358.0</ele><time>2026-04-04T11:37:16.224Z</time></trkpt><trkpt lat="43.7501038" lon="12.4074308"><ele>358.0</ele><time>2026-04-04T11:37:17.222Z</time></trkpt><trkpt lat="43.7499394" lon="12.4075295"><ele>358.0</ele><time>2026-04-04T11:37:18.229Z</time></trkpt><trkpt lat="43.7497883" lon="12.4076294"><ele>358.0</ele><time>2026-04-04T11:37:19.223Z</time></trkpt><trkpt lat="43.7496397" lon="12.407732"><ele>358.0</ele><time>2026-04-04T11:37:20.223Z</time></trkpt><trkpt lat="43.7494855" lon="12.4078328"><ele>358.0</ele><time>2026-04-04T11:37:21.226Z</time></trkpt><trkpt lat="43.7493411" lon="12.4079352"><ele>358.0</ele><time>2026-04-04T11:37:22.228Z</time></trkpt><trkpt lat="43.7491962" lon="12.4080507"><ele>357.0</ele><time>2026-04-04T11:37:23.224Z</time></trkpt><trkpt lat="43.7490526" lon="12.4081769"><ele>356.0</ele><time>2026-04-04T11:37:24.227Z</time></trkpt><trkpt lat="43.7489092" lon="12.4083115"><ele>355.0</ele><time>2026-04-04T11:37:25.226Z</time></trkpt><trkpt lat="43.7487704" lon="12.4084589"><ele>355.0</ele><time>2026-04-04T11:37:26.224Z</time></trkpt><trkpt lat="43.7486362" lon="12.4086119"><ele>355.0</ele><time>2026-04-04T11:37:27.222Z</time></trkpt><trkpt lat="43.7485079" lon="12.4087792"><ele>355.0</ele><time>2026-04-04T11:37:28.226Z</time></trkpt><trkpt lat="43.748388" lon="12.4089396"><ele>353.0</ele><time>2026-04-04T11:37:29.227Z</time></trkpt><trkpt lat="43.7482778" lon="12.4091065"><ele>351.0</ele><time>2026-04-04T11:37:30.223Z</time></trkpt><trkpt lat="43.7481858" lon="12.4092932"><ele>349.0</ele><time>2026-04-04T11:37:31.226Z</time></trkpt><trkpt lat="43.7481184" lon="12.4094961"><ele>352.25</ele><time>2026-04-04T11:37:32.226Z</time></trkpt><trkpt lat="43.7480503" lon="12.4096776"><ele>355.5</ele><time>2026-04-04T11:37:33.226Z</time></trkpt><trkpt lat="43.747983" lon="12.4098574"><ele>358.75</ele><time>2026-04-04T11:37:34.223Z</time></trkpt><trkpt lat="43.7479153" lon="12.4100276"><ele>362.0</ele><time>2026-04-04T11:37:35.224Z</time></trkpt><trkpt lat="43.7478368" lon="12.4101951"><ele>362.0</ele><time>2026-04-04T11:37:36.225Z</time></trkpt><trkpt lat="43.7477416" lon="12.4103552"><ele>362.0</ele><time>2026-04-04T11:37:37.225Z</time></trkpt><trkpt lat="43.7476313" lon="12.4105017"><ele>362.0</ele><time>2026-04-04T11:37:38.223Z</time></trkpt><trkpt lat="43.7475087" lon="12.4106458"><ele>359.6666666666667</ele><time>2026-04-04T11:37:39.223Z</time></trkpt><trkpt lat="43.7473844" lon="12.4107814"><ele>357.3333333333333</ele><time>2026-04-04T11:37:40.225Z</time></trkpt><trkpt lat="43.7472581" lon="12.4109265"><ele>355.0</ele><time>2026-04-04T11:37:41.223Z</time></trkpt><trkpt lat="43.7471426" lon="12.4110751"><ele>355.0</ele><time>2026-04-04T11:37:42.225Z</time></trkpt><trkpt lat="43.7470283" lon="12.4112282"><ele>355.0</ele><time>2026-04-04T11:37:43.227Z</time></trkpt><trkpt lat="43.7469165" lon="12.4113907"><ele>355.0</ele><time>2026-04-04T11:37:44.226Z</time></trkpt><trkpt lat="43.7468071" lon="12.4115547"><ele>353.3333333333333</ele><time>2026-04-04T11:37:45.225Z</time></trkpt><trkpt lat="43.7466931" lon="12.4117224"><ele>351.6666666666667</ele><time>2026-04-04T11:37:46.226Z</time></trkpt><trkpt lat="43.7465717" lon="12.4119012"><ele>350.0</ele><time>2026-04-04T11:37:47.224Z</time></trkpt><trkpt lat="43.7464517" lon="12.4120761"><ele>355.0</ele><time>2026-04-04T11:37:48.225Z</time></trkpt><trkpt lat="43.7463322" lon="12.4122646"><ele>360.0</ele><time>2026-04-04T11:37:49.225Z</time></trkpt><trkpt lat="43.746209" lon="12.4124575"><ele>365.0</ele><time>2026-04-04T11:37:50.227Z</time></trkpt><trkpt lat="43.7460894" lon="12.4126409"><ele>357.6666666666667</ele><time>2026-04-04T11:37:51.224Z</time></trkpt><trkpt lat="43.7459686" lon="12.4128248"><ele>350.3333333333333</ele><time>2026-04-04T11:37:52.224Z</time></trkpt><trkpt lat="43.7458567" lon="12.413002"><ele>343.0</ele><time>2026-04-04T11:37:53.224Z</time></trkpt><trkpt lat="43.7457473" lon="12.4131732"><ele>343.0</ele><time>2026-04-04T11:37:54.224Z</time></trkpt><trkpt lat="43.7456479" lon="12.4133516"><ele>343.0</ele><time>2026-04-04T11:37:55.227Z</time></trkpt><trkpt lat="43.7455551" lon="12.4135469"><ele>343.0</ele><time>2026-04-04T11:37:56.224Z</time></trkpt><trkpt lat="43.7454834" lon="12.4137701"><ele>343.0</ele><time>2026-04-04T11:37:57.224Z</time></trkpt><trkpt lat="43.7454183" lon="12.4140108"><ele>343.0</ele><time>2026-04-04T11:37:58.227Z</time></trkpt><trkpt lat="43.745371" lon="12.4142985"><ele>343.0</ele><time>2026-04-04T11:37:59.223Z</time></trkpt><trkpt lat="43.74531" lon="12.4145603"><ele>345.3333333333333</ele><time>2026-04-04T11:38:00.229Z</time></trkpt><trkpt lat="43.7452481" lon="12.4148234"><ele>347.6666666666667</ele><time>2026-04-04T11:38:01.224Z</time></trkpt><trkpt lat="43.7451828" lon="12.4150938"><ele>350.0</ele><time>2026-04-04T11:38:02.226Z</time></trkpt><trkpt lat="43.7451157" lon="12.4153657"><ele>346.0</ele><time>2026-04-04T11:38:03.23Z</time></trkpt><trkpt lat="43.7450576" lon="12.4156323"><ele>342.0</ele><time>2026-04-04T11:38:04.228Z</time></trkpt><trkpt lat="43.7449969" lon="12.4158758"><ele>338.0</ele><time>2026-04-04T11:38:05.227Z</time></trkpt><trkpt lat="43.7449352" lon="12.4161395"><ele>341.0</ele><time>2026-04-04T11:38:06.225Z</time></trkpt><trkpt lat="43.7448749" lon="12.4164064"><ele>344.0</ele><time>2026-04-04T11:38:07.224Z</time></trkpt><trkpt lat="43.7448172" lon="12.4166727"><ele>347.0</ele><time>2026-04-04T11:38:08.229Z</time></trkpt><trkpt lat="43.7447599" lon="12.4169387"><ele>351.6666666666667</ele><time>2026-04-04T11:38:09.229Z</time></trkpt><trkpt lat="43.7446985" lon="12.4171956"><ele>356.3333333333333</ele><time>2026-04-04T11:38:10.228Z</time></trkpt><trkpt lat="43.7446328" lon="12.4174423"><ele>361.0</ele><time>2026-04-04T11:38:11.227Z</time></trkpt><trkpt lat="43.7445592" lon="12.4176971"><ele>361.0</ele><time>2026-04-04T11:38:12.229Z</time></trkpt><trkpt lat="43.7444641" lon="12.417938"><ele>361.0</ele><time>2026-04-04T11:38:13.228Z</time></trkpt><trkpt lat="43.7443568" lon="12.4181729"><ele>361.0</ele><time>2026-04-04T11:38:14.229Z</time></trkpt><trkpt lat="43.7442411" lon="12.4184124"><ele>359.66666666666663</ele><time>2026-04-04T11:38:15.23Z</time></trkpt><trkpt lat="43.7441307" lon="12.4186472"><ele>358.3333333333333</ele><time>2026-04-04T11:38:16.224Z</time></trkpt><trkpt lat="43.7440208" lon="12.4188917"><ele>357.0</ele><time>2026-04-04T11:38:17.226Z</time></trkpt><trkpt lat="43.7439124" lon="12.4191402"><ele>357.0</ele><time>2026-04-04T11:38:18.226Z</time></trkpt><trkpt lat="43.7438005" lon="12.4193877"><ele>357.0</ele><time>2026-04-04T11:38:19.23Z</time></trkpt><trkpt lat="43.7436814" lon="12.4196345"><ele>357.0</ele><time>2026-04-04T11:38:20.224Z</time></trkpt><trkpt lat="43.7435649" lon="12.4198718"><ele>354.0</ele><time>2026-04-04T11:38:21.226Z</time></trkpt><trkpt lat="43.7434374" lon="12.4201164"><ele>351.0</ele><time>2026-04-04T11:38:22.223Z</time></trkpt><trkpt lat="43.7433038" lon="12.4203368"><ele>348.0</ele><time>2026-04-04T11:38:23.229Z</time></trkpt><trkpt lat="43.7431721" lon="12.4205708"><ele>348.0</ele><time>2026-04-04T11:38:24.229Z</time></trkpt><trkpt lat="43.7430367" lon="12.4207924"><ele>348.0</ele><time>2026-04-04T11:38:25.23Z</time></trkpt><trkpt lat="43.7429005" lon="12.4210344"><ele>348.0</ele><time>2026-04-04T11:38:26.224Z</time></trkpt><trkpt lat="43.7427724" lon="12.4212823"><ele>344.6666666666667</ele><time>2026-04-04T11:38:27.226Z</time></trkpt><trkpt lat="43.7426508" lon="12.4215316"><ele>341.33333333333337</ele><time>2026-04-04T11:38:28.225Z</time></trkpt><trkpt lat="43.7425275" lon="12.4217851"><ele>338.0</ele><time>2026-04-04T11:38:29.227Z</time></trkpt><trkpt lat="43.7424057" lon="12.4220442"><ele>340.5</ele><time>2026-04-04T11:38:30.229Z</time></trkpt><trkpt lat="43.7422863" lon="12.4223272"><ele>343.0</ele><time>2026-04-04T11:38:31.228Z</time></trkpt><trkpt lat="43.7421686" lon="12.4225849"><ele>343.0</ele><time>2026-04-04T11:38:32.228Z</time></trkpt><trkpt lat="43.7420471" lon="12.4228373"><ele>343.0</ele><time>2026-04-04T11:38:33.229Z</time></trkpt><trkpt lat="43.7419305" lon="12.4230862"><ele>343.0</ele><time>2026-04-04T11:38:34.222Z</time></trkpt><trkpt lat="43.7418147" lon="12.4233141"><ele>341.3333333333333</ele><time>2026-04-04T11:38:35.225Z</time></trkpt><trkpt lat="43.7416907" lon="12.4235317"><ele>339.6666666666667</ele><time>2026-04-04T11:38:36.226Z</time></trkpt><trkpt lat="43.7415661" lon="12.4237295"><ele>338.0</ele><time>2026-04-04T11:38:37.229Z</time></trkpt><trkpt lat="43.7414371" lon="12.4239212"><ele>334.0</ele><time>2026-04-04T11:38:38.228Z</time></trkpt><trkpt lat="43.7413124" lon="12.4240922"><ele>330.0</ele><time>2026-04-04T11:38:39.224Z</time></trkpt><trkpt lat="43.7411717" lon="12.4242595"><ele>326.0</ele><time>2026-04-04T11:38:40.226Z</time></trkpt><trkpt lat="43.7410144" lon="12.4244178"><ele>326.0</ele><time>2026-04-04T11:38:41.226Z</time></trkpt><trkpt lat="43.7408472" lon="12.4245783"><ele>326.0</ele><time>2026-04-04T11:38:42.226Z</time></trkpt><trkpt lat="43.7406788" lon="12.4247371"><ele>326.0</ele><time>2026-04-04T11:38:43.227Z</time></trkpt><trkpt lat="43.7405071" lon="12.4248928"><ele>324.6666666666667</ele><time>2026-04-04T11:38:44.224Z</time></trkpt><trkpt lat="43.7403423" lon="12.425073"><ele>323.3333333333333</ele><time>2026-04-04T11:38:45.227Z</time></trkpt><trkpt lat="43.7401846" lon="12.4252533"><ele>322.0</ele><time>2026-04-04T11:38:46.227Z</time></trkpt><trkpt lat="43.7400314" lon="12.4254476"><ele>328.0</ele><time>2026-04-04T11:38:47.223Z</time></trkpt><trkpt lat="43.7398722" lon="12.4256279"><ele>334.0</ele><time>2026-04-04T11:38:48.223Z</time></trkpt><trkpt lat="43.7397175" lon="12.4258092"><ele>340.0</ele><time>2026-04-04T11:38:49.229Z</time></trkpt><trkpt lat="43.7395627" lon="12.4259887"><ele>340.0</ele><time>2026-04-04T11:38:50.224Z</time></trkpt><trkpt lat="43.7394117" lon="12.4261654"><ele>340.0</ele><time>2026-04-04T11:38:51.224Z</time></trkpt><trkpt lat="43.7392616" lon="12.4263426"><ele>340.0</ele><time>2026-04-04T11:38:52.229Z</time></trkpt><trkpt lat="43.7391153" lon="12.4265217"><ele>336.66666666666663</ele><time>2026-04-04T11:38:53.227Z</time></trkpt><trkpt lat="43.7389619" lon="12.4267062"><ele>333.3333333333333</ele><time>2026-04-04T11:38:54.227Z</time></trkpt><trkpt lat="43.7388182" lon="12.4268951"><ele>330.0</ele><time>2026-04-04T11:38:55.222Z</time></trkpt><trkpt lat="43.7386817" lon="12.4270706"><ele>328.6666666666667</ele><time>2026-04-04T11:38:56.229Z</time></trkpt><trkpt lat="43.7385422" lon="12.4272556"><ele>327.33333333333337</ele><time>2026-04-04T11:38:57.23Z</time></trkpt><trkpt lat="43.738406" lon="12.4274317"><ele>326.0</ele><time>2026-04-04T11:38:58.229Z</time></trkpt><trkpt lat="43.7382659" lon="12.4276174"><ele>326.0</ele><time>2026-04-04T11:38:59.228Z</time></trkpt><trkpt lat="43.7381239" lon="12.4277945"><ele>326.0</ele><time>2026-04-04T11:39:00.224Z</time></trkpt><trkpt lat="43.7379772" lon="12.4279641"><ele>326.0</ele><time>2026-04-04T11:39:01.229Z</time></trkpt><trkpt lat="43.7378256" lon="12.428126"><ele>324.6666666666667</ele><time>2026-04-04T11:39:02.223Z</time></trkpt><trkpt lat="43.7376628" lon="12.428265"><ele>323.3333333333333</ele><time>2026-04-04T11:39:03.227Z</time></trkpt><trkpt lat="43.7374888" lon="12.4284021"><ele>322.0</ele><time>2026-04-04T11:39:04.225Z</time></trkpt><trkpt lat="43.7373151" lon="12.4285319"><ele>322.0</ele><time>2026-04-04T11:39:05.225Z</time></trkpt><trkpt lat="43.7371309" lon="12.4286601"><ele>322.0</ele><time>2026-04-04T11:39:06.229Z</time></trkpt><trkpt lat="43.7369524" lon="12.4287808"><ele>322.0</ele><time>2026-04-04T11:39:07.228Z</time></trkpt><trkpt lat="43.7367682" lon="12.428911"><ele>321.66666666666663</ele><time>2026-04-04T11:39:08.226Z</time></trkpt><trkpt lat="43.7365897" lon="12.4290456"><ele>321.3333333333333</ele><time>2026-04-04T11:39:09.228Z</time></trkpt><trkpt lat="43.7364131" lon="12.4291694"><ele>321.0</ele><time>2026-04-04T11:39:10.224Z</time></trkpt><trkpt lat="43.7362352" lon="12.4292955"><ele>321.0</ele><time>2026-04-04T11:39:11.229Z</time></trkpt><trkpt lat="43.7360653" lon="12.4294138"><ele>321.0</ele><time>2026-04-04T11:39:12.225Z</time></trkpt><trkpt lat="43.7358915" lon="12.4295314"><ele>321.0</ele><time>2026-04-04T11:39:13.228Z</time></trkpt><trkpt lat="43.73572" lon="12.4296415"><ele>322.3333333333333</ele><time>2026-04-04T11:39:14.224Z</time></trkpt><trkpt lat="43.7355501" lon="12.4297539"><ele>323.66666666666663</ele><time>2026-04-04T11:39:15.229Z</time></trkpt><trkpt lat="43.7353804" lon="12.4298631"><ele>325.0</ele><time>2026-04-04T11:39:16.227Z</time></trkpt><trkpt lat="43.7352048" lon="12.4299695"><ele>321.66666666666663</ele><time>2026-04-04T11:39:17.228Z</time></trkpt><trkpt lat="43.7350226" lon="12.430072"><ele>318.3333333333333</ele><time>2026-04-04T11:39:18.226Z</time></trkpt><trkpt lat="43.7348324" lon="12.4301663"><ele>315.0</ele><time>2026-04-04T11:39:19.223Z</time></trkpt><trkpt lat="43.7346362" lon="12.4302556"><ele>315.0</ele><time>2026-04-04T11:39:20.226Z</time></trkpt><trkpt lat="43.7344402" lon="12.4303501"><ele>315.0</ele><time>2026-04-04T11:39:21.226Z</time></trkpt><trkpt lat="43.7342421" lon="12.4304392"><ele>315.0</ele><time>2026-04-04T11:39:22.227Z</time></trkpt><trkpt lat="43.7340477" lon="12.4305155"><ele>316.0</ele><time>2026-04-04T11:39:23.229Z</time></trkpt><trkpt lat="43.7338508" lon="12.4306004"><ele>317.0</ele><time>2026-04-04T11:39:24.227Z</time></trkpt><trkpt lat="43.7336567" lon="12.4306868"><ele>318.0</ele><time>2026-04-04T11:39:25.226Z</time></trkpt><trkpt lat="43.7334669" lon="12.4307939"><ele>314.6666666666667</ele><time>2026-04-04T11:39:26.225Z</time></trkpt><trkpt lat="43.7332761" lon="12.4308776"><ele>311.33333333333337</ele><time>2026-04-04T11:39:27.225Z</time></trkpt><trkpt lat="43.7330899" lon="12.4309664"><ele>308.0</ele><time>2026-04-04T11:39:28.229Z</time></trkpt><trkpt lat="43.7329042" lon="12.4310528"><ele>305.6666666666667</ele><time>2026-04-04T11:39:29.224Z</time></trkpt><trkpt lat="43.7327193" lon="12.4311365"><ele>303.3333333333333</ele><time>2026-04-04T11:39:30.226Z</time></trkpt><trkpt lat="43.7325397" lon="12.4312206"><ele>301.0</ele><time>2026-04-04T11:39:31.229Z</time></trkpt><trkpt lat="43.7323547" lon="12.4313037"><ele>303.66666666666663</ele><time>2026-04-04T11:39:32.223Z</time></trkpt><trkpt lat="43.7321714" lon="12.4313851"><ele>306.3333333333333</ele><time>2026-04-04T11:39:33.228Z</time></trkpt><trkpt lat="43.7319918" lon="12.4314551"><ele>309.0</ele><time>2026-04-04T11:39:34.221Z</time></trkpt><trkpt lat="43.7318108" lon="12.4315327"><ele>309.0</ele><time>2026-04-04T11:39:35.227Z</time></trkpt><trkpt lat="43.7316336" lon="12.4316085"><ele>309.0</ele><time>2026-04-04T11:39:36.226Z</time></trkpt><trkpt lat="43.7314559" lon="12.4316754"><ele>309.0</ele><time>2026-04-04T11:39:37.226Z</time></trkpt><trkpt lat="43.7312784" lon="12.4317397"><ele>309.0</ele><time>2026-04-04T11:39:38.225Z</time></trkpt><trkpt lat="43.7310977" lon="12.4317796"><ele>309.0</ele><time>2026-04-04T11:39:39.227Z</time></trkpt><trkpt lat="43.7309256" lon="12.431813"><ele>309.0</ele><time>2026-04-04T11:39:40.227Z</time></trkpt><trkpt lat="43.7307755" lon="12.4318343"><ele>306.25</ele><time>2026-04-04T11:39:41.224Z</time></trkpt><trkpt lat="43.7306368" lon="12.4318496"><ele>303.5</ele><time>2026-04-04T11:39:42.225Z</time></trkpt><trkpt lat="43.7305193" lon="12.4318632"><ele>300.75</ele><time>2026-04-04T11:39:43.225Z</time></trkpt><trkpt lat="43.7304157" lon="12.43187"><ele>298.0</ele><time>2026-04-04T11:39:44.225Z</time></trkpt><trkpt lat="43.7303155" lon="12.4318614"><ele>298.0</ele><time>2026-04-04T11:39:45.229Z</time></trkpt><trkpt lat="43.7302308" lon="12.431839"><ele>298.0</ele><time>2026-04-04T11:39:46.229Z</time></trkpt><trkpt lat="43.7301533" lon="12.4318219"><ele>298.0</ele><time>2026-04-04T11:39:47.227Z</time></trkpt><trkpt lat="43.7300705" lon="12.4318032"><ele>298.0</ele><time>2026-04-04T11:39:48.224Z</time></trkpt><trkpt lat="43.7299764" lon="12.431799"><ele>298.0</ele><time>2026-04-04T11:39:49.226Z</time></trkpt><trkpt lat="43.7298807" lon="12.4318161"><ele>298.0</ele><time>2026-04-04T11:39:50.224Z</time></trkpt><trkpt lat="43.7297716" lon="12.4318165"><ele>296.75</ele><time>2026-04-04T11:39:51.226Z</time></trkpt><trkpt lat="43.7296472" lon="12.4318075"><ele>295.5</ele><time>2026-04-04T11:39:52.227Z</time></trkpt><trkpt lat="43.7295064" lon="12.431795"><ele>294.25</ele><time>2026-04-04T11:39:53.227Z</time></trkpt><trkpt lat="43.7293576" lon="12.4317787"><ele>293.0</ele><time>2026-04-04T11:39:54.224Z</time></trkpt><trkpt lat="43.7292111" lon="12.4317668"><ele>292.6666666666667</ele><time>2026-04-04T11:39:55.229Z</time></trkpt><trkpt lat="43.7290561" lon="12.4317381"><ele>292.3333333333333</ele><time>2026-04-04T11:39:56.225Z</time></trkpt><trkpt lat="43.7288968" lon="12.4317139"><ele>292.0</ele><time>2026-04-04T11:39:57.225Z</time></trkpt><trkpt lat="43.7287335" lon="12.4316972"><ele>292.0</ele><time>2026-04-04T11:39:58.223Z</time></trkpt><trkpt lat="43.7285687" lon="12.4316805"><ele>292.0</ele><time>2026-04-04T11:39:59.225Z</time></trkpt><trkpt lat="43.7283971" lon="12.4316585"><ele>292.0</ele><time>2026-04-04T11:40:00.225Z</time></trkpt><trkpt lat="43.7282126" lon="12.4316343"><ele>290.66666666666663</ele><time>2026-04-04T11:40:01.225Z</time></trkpt><trkpt lat="43.728036" lon="12.4316082"><ele>289.3333333333333</ele><time>2026-04-04T11:40:02.224Z</time></trkpt><trkpt lat="43.7278512" lon="12.4315847"><ele>288.0</ele><time>2026-04-04T11:40:03.225Z</time></trkpt><trkpt lat="43.7276714" lon="12.4315602"><ele>285.6666666666667</ele><time>2026-04-04T11:40:04.224Z</time></trkpt><trkpt lat="43.727488" lon="12.4315435"><ele>283.33333333333337</ele><time>2026-04-04T11:40:05.225Z</time></trkpt><trkpt lat="43.7272979" lon="12.4315152"><ele>281.0</ele><time>2026-04-04T11:40:06.228Z</time></trkpt><trkpt lat="43.7271112" lon="12.4314933"><ele>281.0</ele><time>2026-04-04T11:40:07.224Z</time></trkpt><trkpt lat="43.7269176" lon="12.4314654"><ele>281.0</ele><time>2026-04-04T11:40:08.228Z</time></trkpt><trkpt lat="43.7267302" lon="12.4314402"><ele>281.0</ele><time>2026-04-04T11:40:09.227Z</time></trkpt><trkpt lat="43.7265266" lon="12.4314104"><ele>280.33333333333337</ele><time>2026-04-04T11:40:10.229Z</time></trkpt><trkpt lat="43.7263144" lon="12.431381"><ele>279.6666666666667</ele><time>2026-04-04T11:40:11.227Z</time></trkpt><trkpt lat="43.7260989" lon="12.431356"><ele>279.0</ele><time>2026-04-04T11:40:12.226Z</time></trkpt><trkpt lat="43.7258851" lon="12.4313302"><ele>282.0</ele><time>2026-04-04T11:40:13.228Z</time></trkpt><trkpt lat="43.7256718" lon="12.431296"><ele>285.0</ele><time>2026-04-04T11:40:14.225Z</time></trkpt><trkpt lat="43.725449" lon="12.4312564"><ele>288.0</ele><time>2026-04-04T11:40:15.228Z</time></trkpt><trkpt lat="43.7252303" lon="12.4312279"><ele>290.5</ele><time>2026-04-04T11:40:16.227Z</time></trkpt><trkpt lat="43.7250079" lon="12.4311987"><ele>293.0</ele><time>2026-04-04T11:40:17.228Z</time></trkpt><trkpt lat="43.7247808" lon="12.4311626"><ele>293.0</ele><time>2026-04-04T11:40:18.225Z</time></trkpt><trkpt lat="43.7245569" lon="12.4311324"><ele>293.0</ele><time>2026-04-04T11:40:19.225Z</time></trkpt><trkpt lat="43.7243319" lon="12.4311031"><ele>297.5</ele><time>2026-04-04T11:40:20.228Z</time></trkpt><trkpt lat="43.7241054" lon="12.4310771"><ele>302.0</ele><time>2026-04-04T11:40:21.225Z</time></trkpt><trkpt lat="43.7238798" lon="12.431057"><ele>302.0</ele><time>2026-04-04T11:40:22.226Z</time></trkpt><trkpt lat="43.7236541" lon="12.4310473"><ele>302.0</ele><time>2026-04-04T11:40:23.227Z</time></trkpt><trkpt lat="43.7234253" lon="12.4310391"><ele>303.33333333333337</ele><time>2026-04-04T11:40:24.227Z</time></trkpt><trkpt lat="43.723205" lon="12.4310522"><ele>304.6666666666667</ele><time>2026-04-04T11:40:25.227Z</time></trkpt><trkpt lat="43.7229851" lon="12.4310738"><ele>306.0</ele><time>2026-04-04T11:40:26.228Z</time></trkpt><trkpt lat="43.722764" lon="12.4311065"><ele>308.3333333333333</ele><time>2026-04-04T11:40:27.227Z</time></trkpt><trkpt lat="43.7225511" lon="12.4311591"><ele>310.66666666666663</ele><time>2026-04-04T11:40:28.23Z</time></trkpt><trkpt lat="43.7223385" lon="12.4312169"><ele>313.0</ele><time>2026-04-04T11:40:29.225Z</time></trkpt><trkpt lat="43.7221282" lon="12.4312891"><ele>312.3333333333333</ele><time>2026-04-04T11:40:30.229Z</time></trkpt><trkpt lat="43.7219212" lon="12.4313776"><ele>311.6666666666667</ele><time>2026-04-04T11:40:31.222Z</time></trkpt><trkpt lat="43.721715" lon="12.4314807"><ele>311.0</ele><time>2026-04-04T11:40:32.23Z</time></trkpt><trkpt lat="43.7215099" lon="12.4315977"><ele>312.6666666666667</ele><time>2026-04-04T11:40:33.225Z</time></trkpt><trkpt lat="43.721319" lon="12.4317272"><ele>314.3333333333333</ele><time>2026-04-04T11:40:34.228Z</time></trkpt><trkpt lat="43.7211286" lon="12.4318602"><ele>316.0</ele><time>2026-04-04T11:40:35.226Z</time></trkpt><trkpt lat="43.7209466" lon="12.4320137"><ele>318.0</ele><time>2026-04-04T11:40:36.229Z</time></trkpt><trkpt lat="43.7207708" lon="12.4321824"><ele>320.0</ele><time>2026-04-04T11:40:37.226Z</time></trkpt><trkpt lat="43.7206004" lon="12.4323614"><ele>322.0</ele><time>2026-04-04T11:40:38.228Z</time></trkpt><trkpt lat="43.7204368" lon="12.4325534"><ele>322.0</ele><time>2026-04-04T11:40:39.225Z</time></trkpt><trkpt lat="43.7202718" lon="12.4327557"><ele>322.0</ele><time>2026-04-04T11:40:40.227Z</time></trkpt><trkpt lat="43.7201221" lon="12.432966"><ele>322.0</ele><time>2026-04-04T11:40:41.225Z</time></trkpt><trkpt lat="43.7199733" lon="12.4331877"><ele>324.0</ele><time>2026-04-04T11:40:42.228Z</time></trkpt><trkpt lat="43.7198373" lon="12.4334142"><ele>326.0</ele><time>2026-04-04T11:40:43.228Z</time></trkpt><trkpt lat="43.7197029" lon="12.4336467"><ele>328.0</ele><time>2026-04-04T11:40:44.228Z</time></trkpt><trkpt lat="43.7195695" lon="12.4338737"><ele>328.0</ele><time>2026-04-04T11:40:45.227Z</time></trkpt><trkpt lat="43.7194353" lon="12.4340915"><ele>328.0</ele><time>2026-04-04T11:40:46.228Z</time></trkpt><trkpt lat="43.7193033" lon="12.4343219"><ele>328.0</ele><time>2026-04-04T11:40:47.225Z</time></trkpt><trkpt lat="43.7191671" lon="12.4345315"><ele>333.3333333333333</ele><time>2026-04-04T11:40:48.229Z</time></trkpt><trkpt lat="43.7190386" lon="12.4347611"><ele>338.6666666666667</ele><time>2026-04-04T11:40:49.226Z</time></trkpt><trkpt lat="43.7189063" lon="12.4349967"><ele>344.0</ele><time>2026-04-04T11:40:50.228Z</time></trkpt><trkpt lat="43.718769" lon="12.4352368"><ele>342.0</ele><time>2026-04-04T11:40:51.228Z</time></trkpt><trkpt lat="43.71863" lon="12.4354711"><ele>340.0</ele><time>2026-04-04T11:40:52.227Z</time></trkpt><trkpt lat="43.7184913" lon="12.4357123"><ele>338.0</ele><time>2026-04-04T11:40:53.226Z</time></trkpt><trkpt lat="43.7183549" lon="12.4359513"><ele>344.0</ele><time>2026-04-04T11:40:54.226Z</time></trkpt><trkpt lat="43.7182317" lon="12.4362248"><ele>350.0</ele><time>2026-04-04T11:40:55.223Z</time></trkpt><trkpt lat="43.718097" lon="12.4364716"><ele>350.0</ele><time>2026-04-04T11:40:56.225Z</time></trkpt><trkpt lat="43.7179633" lon="12.4367275"><ele>350.0</ele><time>2026-04-04T11:40:57.228Z</time></trkpt><trkpt lat="43.7178262" lon="12.436975"><ele>352.6666666666667</ele><time>2026-04-04T11:40:58.226Z</time></trkpt><trkpt lat="43.7176891" lon="12.4372228"><ele>355.3333333333333</ele><time>2026-04-04T11:40:59.223Z</time></trkpt><trkpt lat="43.7175525" lon="12.4374475"><ele>358.0</ele><time>2026-04-04T11:41:00.228Z</time></trkpt><trkpt lat="43.7174198" lon="12.4376815"><ele>358.0</ele><time>2026-04-04T11:41:01.226Z</time></trkpt><trkpt lat="43.7172844" lon="12.4379112"><ele>358.0</ele><time>2026-04-04T11:41:02.227Z</time></trkpt><trkpt lat="43.7171532" lon="12.4381367"><ele>358.0</ele><time>2026-04-04T11:41:03.227Z</time></trkpt><trkpt lat="43.7170235" lon="12.4383643"><ele>363.0</ele><time>2026-04-04T11:41:04.227Z</time></trkpt><trkpt lat="43.7168901" lon="12.4385799"><ele>368.0</ele><time>2026-04-04T11:41:05.225Z</time></trkpt><trkpt lat="43.7167664" lon="12.4387876"><ele>373.0</ele><time>2026-04-04T11:41:06.223Z</time></trkpt><trkpt lat="43.7166373" lon="12.438989"><ele>373.0</ele><time>2026-04-04T11:41:07.223Z</time></trkpt><trkpt lat="43.7165037" lon="12.4391836"><ele>373.0</ele><time>2026-04-04T11:41:08.225Z</time></trkpt><trkpt lat="43.6947196" lon="12.4454073"><ele>374.66666666666663</ele><time>2026-04-04T11:42:51.224Z</time></trkpt><trkpt lat="43.6945052" lon="12.4453319"><ele>376.3333333333333</ele><time>2026-04-04T11:42:52.221Z</time></trkpt><trkpt lat="43.6943122" lon="12.4452051"><ele>378.0</ele><time>2026-04-04T11:42:53.225Z</time></trkpt><trkpt lat="43.6941229" lon="12.445109"><ele>378.0</ele><time>2026-04-04T11:42:54.226Z</time></trkpt><trkpt lat="43.693936" lon="12.4449865"><ele>378.0</ele><time>2026-04-04T11:42:55.225Z</time></trkpt><trkpt lat="43.6937543" lon="12.4448452"><ele>378.0</ele><time>2026-04-04T11:42:56.225Z</time></trkpt><trkpt lat="43.6935792" lon="12.4447262"><ele>376.3333333333333</ele><time>2026-04-04T11:42:57.226Z</time></trkpt><trkpt lat="43.6934159" lon="12.4445931"><ele>374.66666666666663</ele><time>2026-04-04T11:42:58.225Z</time></trkpt><trkpt lat="43.6932561" lon="12.4444583"><ele>373.0</ele><time>2026-04-04T11:42:59.223Z</time></trkpt><trkpt lat="43.6930835" lon="12.4443201"><ele>373.0</ele><time>2026-04-04T11:43:00.223Z</time></trkpt><trkpt lat="43.692912" lon="12.4441712"><ele>373.0</ele><time>2026-04-04T11:43:01.224Z</time></trkpt><trkpt lat="43.6927492" lon="12.4440303"><ele>373.0</ele><time>2026-04-04T11:43:02.222Z</time></trkpt><trkpt lat="43.6925786" lon="12.4438908"><ele>375.66666666666663</ele><time>2026-04-04T11:43:03.224Z</time></trkpt><trkpt lat="43.6924108" lon="12.4437503"><ele>378.3333333333333</ele><time>2026-04-04T11:43:04.224Z</time></trkpt><trkpt lat="43.6922472" lon="12.4436095"><ele>381.0</ele><time>2026-04-04T11:43:05.222Z</time></trkpt><trkpt lat="43.6920853" lon="12.4434675"><ele>381.0</ele><time>2026-04-04T11:43:06.223Z</time></trkpt><trkpt lat="43.6919254" lon="12.4433324"><ele>381.0</ele><time>2026-04-04T11:43:07.223Z</time></trkpt><trkpt lat="43.691761" lon="12.4432016"><ele>381.0</ele><time>2026-04-04T11:43:08.223Z</time></trkpt><trkpt lat="43.6915941" lon="12.4430739"><ele>384.0</ele><time>2026-04-04T11:43:09.223Z</time></trkpt><trkpt lat="43.6914329" lon="12.4429554"><ele>387.0</ele><time>2026-04-04T11:43:10.223Z</time></trkpt><trkpt lat="43.6912744" lon="12.4428526"><ele>390.0</ele><time>2026-04-04T11:43:11.225Z</time></trkpt><trkpt lat="43.691103" lon="12.4427779"><ele>392.33333333333337</ele><time>2026-04-04T11:43:12.227Z</time></trkpt><trkpt lat="43.6909237" lon="12.4427224"><ele>394.6666666666667</ele><time>2026-04-04T11:43:13.225Z</time></trkpt><trkpt lat="43.6907429" lon="12.442683"><ele>397.0</ele><time>2026-04-04T11:43:14.225Z</time></trkpt><trkpt lat="43.6905643" lon="12.4426605"><ele>397.0</ele><time>2026-04-04T11:43:15.225Z</time></trkpt><trkpt lat="43.6903862" lon="12.4426351"><ele>397.0</ele><time>2026-04-04T11:43:16.225Z</time></trkpt><trkpt lat="43.6902075" lon="12.4425995"><ele>397.0</ele><time>2026-04-04T11:43:17.226Z</time></trkpt><trkpt lat="43.690028" lon="12.4425441"><ele>398.0</ele><time>2026-04-04T11:43:18.224Z</time></trkpt><trkpt lat="43.6898496" lon="12.4424794"><ele>399.0</ele><time>2026-04-04T11:43:19.225Z</time></trkpt><trkpt lat="43.6896797" lon="12.4424092"><ele>400.0</ele><time>2026-04-04T11:43:20.226Z</time></trkpt><trkpt lat="43.6895181" lon="12.4423351"><ele>402.0</ele><time>2026-04-04T11:43:21.224Z</time></trkpt><trkpt lat="43.6893649" lon="12.4422699"><ele>404.0</ele><time>2026-04-04T11:43:22.226Z</time></trkpt><trkpt lat="43.689222" lon="12.4422102"><ele>406.0</ele><time>2026-04-04T11:43:23.224Z</time></trkpt><trkpt lat="43.6890748" lon="12.4421417"><ele>405.6666666666667</ele><time>2026-04-04T11:43:24.222Z</time></trkpt><trkpt lat="43.6889198" lon="12.442047"><ele>405.33333333333337</ele><time>2026-04-04T11:43:25.225Z</time></trkpt><trkpt lat="43.6887606" lon="12.4419461"><ele>405.0</ele><time>2026-04-04T11:43:26.224Z</time></trkpt><trkpt lat="43.6885982" lon="12.441845"><ele>403.33333333333337</ele><time>2026-04-04T11:43:27.226Z</time></trkpt><trkpt lat="43.6884325" lon="12.4417572"><ele>401.6666666666667</ele><time>2026-04-04T11:43:28.224Z</time></trkpt><trkpt lat="43.6882528" lon="12.4416725"><ele>400.0</ele><time>2026-04-04T11:43:29.225Z</time></trkpt><trkpt lat="43.6880662" lon="12.4415959"><ele>400.0</ele><time>2026-04-04T11:43:30.226Z</time></trkpt><trkpt lat="43.6878789" lon="12.4415176"><ele>400.0</ele><time>2026-04-04T11:43:31.223Z</time></trkpt><trkpt lat="43.6876931" lon="12.44143"><ele>400.0</ele><time>2026-04-04T11:43:32.224Z</time></trkpt><trkpt lat="43.6875085" lon="12.4413277"><ele>400.0</ele><time>2026-04-04T11:43:33.224Z</time></trkpt><trkpt lat="43.687322" lon="12.4412284"><ele>400.0</ele><time>2026-04-04T11:43:34.223Z</time></trkpt><trkpt lat="43.6871361" lon="12.4411461"><ele>400.0</ele><time>2026-04-04T11:43:35.225Z</time></trkpt><trkpt lat="43.6869462" lon="12.4410744"><ele>397.6666666666667</ele><time>2026-04-04T11:43:36.226Z</time></trkpt><trkpt lat="43.6867636" lon="12.441024"><ele>395.33333333333337</ele><time>2026-04-04T11:43:37.225Z</time></trkpt><trkpt lat="43.6865893" lon="12.4409869"><ele>393.0</ele><time>2026-04-04T11:43:38.229Z</time></trkpt><trkpt lat="43.6864085" lon="12.4409562"><ele>393.0</ele><time>2026-04-04T11:43:39.223Z</time></trkpt><trkpt lat="43.6862321" lon="12.4409288"><ele>393.0</ele><time>2026-04-04T11:43:40.226Z</time></trkpt><trkpt lat="43.6860589" lon="12.440901"><ele>393.0</ele><time>2026-04-04T11:43:41.225Z</time></trkpt><trkpt lat="43.6858851" lon="12.4408715"><ele>390.66666666666663</ele><time>2026-04-04T11:43:42.23Z</time></trkpt><trkpt lat="43.6857179" lon="12.4408517"><ele>388.3333333333333</ele><time>2026-04-04T11:43:43.224Z</time></trkpt><trkpt lat="43.6855518" lon="12.4408282"><ele>386.0</ele><time>2026-04-04T11:43:44.226Z</time></trkpt><trkpt lat="43.6853946" lon="12.4408083"><ele>383.66666666666663</ele><time>2026-04-04T11:43:45.227Z</time></trkpt><trkpt lat="43.6852346" lon="12.4407906"><ele>381.3333333333333</ele><time>2026-04-04T11:43:46.228Z</time></trkpt><trkpt lat="43.6850837" lon="12.4407735"><ele>379.0</ele><time>2026-04-04T11:43:47.224Z</time></trkpt><trkpt lat="43.6849467" lon="12.4407476"><ele>379.0</ele><time>2026-04-04T11:43:48.224Z</time></trkpt><trkpt lat="43.6848175" lon="12.4406923"><ele>379.0</ele><time>2026-04-04T11:43:49.225Z</time></trkpt><trkpt lat="43.684711" lon="12.4405729"><ele>379.0</ele><time>2026-04-04T11:43:50.225Z</time></trkpt><trkpt lat="43.6846085" lon="12.4404103"><ele>379.0</ele><time>2026-04-04T11:43:51.225Z</time></trkpt><trkpt lat="43.6845247" lon="12.4402192"><ele>380.66666666666663</ele><time>2026-04-04T11:43:52.225Z</time></trkpt><trkpt lat="43.6844298" lon="12.4400355"><ele>382.3333333333333</ele><time>2026-04-04T11:43:53.224Z</time></trkpt><trkpt lat="43.6843139" lon="12.4398589"><ele>384.0</ele><time>2026-04-04T11:43:54.227Z</time></trkpt><trkpt lat="43.6841851" lon="12.4396966"><ele>383.3333333333333</ele><time>2026-04-04T11:43:55.224Z</time></trkpt><trkpt lat="43.6840459" lon="12.439533"><ele>382.66666666666663</ele><time>2026-04-04T11:43:56.225Z</time></trkpt><trkpt lat="43.683918" lon="12.43937"><ele>382.0</ele><time>2026-04-04T11:43:57.224Z</time></trkpt><trkpt lat="43.6837916" lon="12.4392143"><ele>382.0</ele><time>2026-04-04T11:43:58.226Z</time></trkpt><trkpt lat="43.6836718" lon="12.4390637"><ele>382.0</ele><time>2026-04-04T11:43:59.225Z</time></trkpt><trkpt lat="43.6835684" lon="12.4389064"><ele>382.0</ele><time>2026-04-04T11:44:00.225Z</time></trkpt><trkpt lat="43.6834805" lon="12.438728"><ele>380.0</ele><time>2026-04-04T11:44:01.229Z</time></trkpt><trkpt lat="43.6834096" lon="12.4385176"><ele>378.0</ele><time>2026-04-04T11:44:02.225Z</time></trkpt><trkpt lat="43.683339" lon="12.4382998"><ele>376.0</ele><time>2026-04-04T11:44:03.226Z</time></trkpt><trkpt lat="43.683253" lon="12.4380815"><ele>377.0</ele><time>2026-04-04T11:44:04.227Z</time></trkpt><trkpt lat="43.6831638" lon="12.4378647"><ele>378.0</ele><time>2026-04-04T11:44:05.226Z</time></trkpt><trkpt lat="43.6830712" lon="12.4376477"><ele>379.0</ele><time>2026-04-04T11:44:06.223Z</time></trkpt><trkpt lat="43.682987" lon="12.4374366"><ele>379.0</ele><time>2026-04-04T11:44:07.227Z</time></trkpt><trkpt lat="43.6829049" lon="12.4372271"><ele>379.0</ele><time>2026-04-04T11:44:08.226Z</time></trkpt><trkpt lat="43.6828285" lon="12.4370289"><ele>379.0</ele><time>2026-04-04T11:44:09.222Z</time></trkpt><trkpt lat="43.6827651" lon="12.4368384"><ele>375.0</ele><time>2026-04-04T11:44:10.226Z</time></trkpt><trkpt lat="43.6827198" lon="12.4366238"><ele>371.0</ele><time>2026-04-04T11:44:11.228Z</time></trkpt><trkpt lat="43.682709" lon="12.4363902"><ele>367.0</ele><time>2026-04-04T11:44:12.229Z</time></trkpt><trkpt lat="43.6827124" lon="12.4361725"><ele>366.25</ele><time>2026-04-04T11:44:13.226Z</time></trkpt><trkpt lat="43.6827348" lon="12.4359632"><ele>365.5</ele><time>2026-04-04T11:44:14.226Z</time></trkpt><trkpt lat="43.6827536" lon="12.4357777"><ele>364.75</ele><time>2026-04-04T11:44:15.225Z</time></trkpt><trkpt lat="43.6827659" lon="12.4355941"><ele>364.0</ele><time>2026-04-04T11:44:16.227Z</time></trkpt><trkpt lat="43.6827435" lon="12.4354214"><ele>363.75</ele><time>2026-04-04T11:44:17.225Z</time></trkpt><trkpt lat="43.6826943" lon="12.4352625"><ele>363.5</ele><time>2026-04-04T11:44:18.223Z</time></trkpt><trkpt lat="43.6826109" lon="12.4351212"><ele>363.25</ele><time>2026-04-04T11:44:19.228Z</time></trkpt><trkpt lat="43.6825097" lon="12.435005"><ele>363.0</ele><time>2026-04-04T11:44:20.227Z</time></trkpt><trkpt lat="43.6823944" lon="12.4349368"><ele>363.0</ele><time>2026-04-04T11:44:21.228Z</time></trkpt><trkpt lat="43.6822748" lon="12.434922"><ele>363.0</ele><time>2026-04-04T11:44:22.225Z</time></trkpt><trkpt lat="43.6821568" lon="12.4349557"><ele>363.0</ele><time>2026-04-04T11:44:23.225Z</time></trkpt><trkpt lat="43.6820382" lon="12.4350186"><ele>363.0</ele><time>2026-04-04T11:44:24.226Z</time></trkpt><trkpt lat="43.6819218" lon="12.4350953"><ele>364.0</ele><time>2026-04-04T11:44:25.226Z</time></trkpt><trkpt lat="43.6818123" lon="12.4351575"><ele>365.0</ele><time>2026-04-04T11:44:26.222Z</time></trkpt><trkpt lat="43.6816732" lon="12.4351915"><ele>366.0</ele><time>2026-04-04T11:44:27.227Z</time></trkpt><trkpt lat="43.681537" lon="12.4352242"><ele>367.0</ele><time>2026-04-04T11:44:28.226Z</time></trkpt><trkpt lat="43.6813561" lon="12.4351964"><ele>367.0</ele><time>2026-04-04T11:44:29.226Z</time></trkpt><trkpt lat="43.6811993" lon="12.43518"><ele>367.0</ele><time>2026-04-04T11:44:30.225Z</time></trkpt><trkpt lat="43.6810236" lon="12.4351698"><ele>367.0</ele><time>2026-04-04T11:44:31.225Z</time></trkpt><trkpt lat="43.6808485" lon="12.4351299"><ele>367.3333333333333</ele><time>2026-04-04T11:44:32.223Z</time></trkpt><trkpt lat="43.6806807" lon="12.4350753"><ele>367.6666666666667</ele><time>2026-04-04T11:44:33.222Z</time></trkpt><trkpt lat="43.6805205" lon="12.434985"><ele>368.0</ele><time>2026-04-04T11:44:34.225Z</time></trkpt><trkpt lat="43.6803604" lon="12.4348806"><ele>369.6666666666667</ele><time>2026-04-04T11:44:35.222Z</time></trkpt><trkpt lat="43.6802118" lon="12.434765"><ele>371.3333333333333</ele><time>2026-04-04T11:44:36.225Z</time></trkpt><trkpt lat="43.6800727" lon="12.4346445"><ele>373.0</ele><time>2026-04-04T11:44:37.225Z</time></trkpt><trkpt lat="43.6799323" lon="12.4344914"><ele>373.0</ele><time>2026-04-04T11:44:38.224Z</time></trkpt><trkpt lat="43.6797897" lon="12.434315"><ele>373.0</ele><time>2026-04-04T11:44:39.222Z</time></trkpt><trkpt lat="43.6796471" lon="12.4341394"><ele>373.0</ele><time>2026-04-04T11:44:40.221Z</time></trkpt><trkpt lat="43.6794974" lon="12.4339539"><ele>372.3333333333333</ele><time>2026-04-04T11:44:41.224Z</time></trkpt><trkpt lat="43.6793463" lon="12.4337559"><ele>371.6666666666667</ele><time>2026-04-04T11:44:42.229Z</time></trkpt><trkpt lat="43.6791956" lon="12.43356"><ele>371.0</ele><time>2026-04-04T11:44:43.226Z</time></trkpt><trkpt lat="43.6790492" lon="12.4333599"><ele>371.0</ele><time>2026-04-04T11:44:44.227Z</time></trkpt><trkpt lat="43.6788998" lon="12.4331613"><ele>371.0</ele><time>2026-04-04T11:44:45.222Z</time></trkpt><trkpt lat="43.6787534" lon="12.4329695"><ele>371.0</ele><time>2026-04-04T11:44:46.225Z</time></trkpt><trkpt lat="43.6786036" lon="12.4327888"><ele>370.33333333333337</ele><time>2026-04-04T11:44:47.222Z</time></trkpt><trkpt lat="43.6784441" lon="12.4326139"><ele>369.6666666666667</ele><time>2026-04-04T11:44:48.227Z</time></trkpt><trkpt lat="43.6782778" lon="12.4324607"><ele>369.0</ele><time>2026-04-04T11:44:49.222Z</time></trkpt><trkpt lat="43.6780998" lon="12.4323072"><ele>369.0</ele><time>2026-04-04T11:44:50.227Z</time></trkpt><trkpt lat="43.6779149" lon="12.4321654"><ele>369.0</ele><time>2026-04-04T11:44:51.227Z</time></trkpt><trkpt lat="43.6777252" lon="12.4320359"><ele>369.0</ele><time>2026-04-04T11:44:52.227Z</time></trkpt><trkpt lat="43.6775363" lon="12.4319076"><ele>368.0</ele><time>2026-04-04T11:44:53.227Z</time></trkpt><trkpt lat="43.6773568" lon="12.4317843"><ele>367.0</ele><time>2026-04-04T11:44:54.227Z</time></trkpt><trkpt lat="43.6771737" lon="12.4316699"><ele>366.0</ele><time>2026-04-04T11:44:55.223Z</time></trkpt><trkpt lat="43.6769979" lon="12.4315669"><ele>364.3333333333333</ele><time>2026-04-04T11:44:56.224Z</time></trkpt><trkpt lat="43.6768203" lon="12.4314821"><ele>362.66666666666663</ele><time>2026-04-04T11:44:57.226Z</time></trkpt><trkpt lat="43.6766547" lon="12.4314106"><ele>361.0</ele><time>2026-04-04T11:44:58.226Z</time></trkpt><trkpt lat="43.6764878" lon="12.4313365"><ele>360.0</ele><time>2026-04-04T11:44:59.224Z</time></trkpt><trkpt lat="43.6763203" lon="12.4312493"><ele>359.0</ele><time>2026-04-04T11:45:00.224Z</time></trkpt><trkpt lat="43.6761548" lon="12.431143"><ele>358.0</ele><time>2026-04-04T11:45:01.225Z</time></trkpt><trkpt lat="43.6759948" lon="12.4310361"><ele>358.0</ele><time>2026-04-04T11:45:02.225Z</time></trkpt><trkpt lat="43.6758366" lon="12.4309326"><ele>358.0</ele><time>2026-04-04T11:45:03.224Z</time></trkpt><trkpt lat="43.6756827" lon="12.4308334"><ele>358.0</ele><time>2026-04-04T11:45:04.224Z</time></trkpt><trkpt lat="43.6755346" lon="12.4307721"><ele>358.0</ele><time>2026-04-04T11:45:05.221Z</time></trkpt><trkpt lat="43.6753873" lon="12.4307383"><ele>358.0</ele><time>2026-04-04T11:45:06.224Z</time></trkpt><trkpt lat="43.6752458" lon="12.430739"><ele>358.0</ele><time>2026-04-04T11:45:07.227Z</time></trkpt><trkpt lat="43.6751135" lon="12.4307341"><ele>358.0</ele><time>2026-04-04T11:45:08.222Z</time></trkpt><trkpt lat="43.6749818" lon="12.4306802"><ele>357.0</ele><time>2026-04-04T11:45:09.223Z</time></trkpt><trkpt lat="43.6748612" lon="12.4305474"><ele>356.0</ele><time>2026-04-04T11:45:10.224Z</time></trkpt><trkpt lat="43.6747532" lon="12.4303758"><ele>355.0</ele><time>2026-04-04T11:45:11.223Z</time></trkpt><trkpt lat="43.6746317" lon="12.4302024"><ele>355.0</ele><time>2026-04-04T11:45:12.225Z</time></trkpt><trkpt lat="43.6745259" lon="12.4300524"><ele>355.0</ele><time>2026-04-04T11:45:13.222Z</time></trkpt><trkpt lat="43.6744131" lon="12.4299418"><ele>355.0</ele><time>2026-04-04T11:45:14.225Z</time></trkpt><trkpt lat="43.6742802" lon="12.4298868"><ele>355.0</ele><time>2026-04-04T11:45:15.224Z</time></trkpt><trkpt lat="43.6741418" lon="12.4298858"><ele>353.75</ele><time>2026-04-04T11:45:16.223Z</time></trkpt><trkpt lat="43.6740005" lon="12.4299085"><ele>352.5</ele><time>2026-04-04T11:45:17.23Z</time></trkpt><trkpt lat="43.673866" lon="12.4299047"><ele>351.25</ele><time>2026-04-04T11:45:18.226Z</time></trkpt><trkpt lat="43.6737405" lon="12.4298112"><ele>350.0</ele><time>2026-04-04T11:45:19.224Z</time></trkpt><trkpt lat="43.673616" lon="12.4296593"><ele>350.33333333333337</ele><time>2026-04-04T11:45:20.223Z</time></trkpt><trkpt lat="43.6735171" lon="12.4294627"><ele>350.6666666666667</ele><time>2026-04-04T11:45:21.227Z</time></trkpt><trkpt lat="43.6734017" lon="12.429271"><ele>351.0</ele><time>2026-04-04T11:45:22.225Z</time></trkpt><trkpt lat="43.6733036" lon="12.4291065"><ele>351.0</ele><time>2026-04-04T11:45:23.222Z</time></trkpt><trkpt lat="43.6732242" lon="12.4289856"><ele>351.0</ele><time>2026-04-04T11:45:24.224Z</time></trkpt><trkpt lat="43.6731467" lon="12.4288834"><ele>351.0</ele><time>2026-04-04T11:45:25.222Z</time></trkpt><trkpt lat="43.6730546" lon="12.4288464"><ele>351.0</ele><time>2026-04-04T11:45:26.222Z</time></trkpt><trkpt lat="43.6729541" lon="12.4288651"><ele>351.0</ele><time>2026-04-04T11:45:27.223Z</time></trkpt><trkpt lat="43.6728441" lon="12.4289864"><ele>349.3333333333333</ele><time>2026-04-04T11:45:28.224Z</time></trkpt><trkpt lat="43.6727429" lon="12.4291108"><ele>347.66666666666663</ele><time>2026-04-04T11:45:29.221Z</time></trkpt><trkpt lat="43.6726265" lon="12.4292544"><ele>346.0</ele><time>2026-04-04T11:45:30.222Z</time></trkpt><trkpt lat="43.6725089" lon="12.429404"><ele>346.0</ele><time>2026-04-04T11:45:31.224Z</time></trkpt><trkpt lat="43.6723887" lon="12.4295521"><ele>346.0</ele><time>2026-04-04T11:45:32.225Z</time></trkpt><trkpt lat="43.6722673" lon="12.4297088"><ele>346.0</ele><time>2026-04-04T11:45:33.224Z</time></trkpt><trkpt lat="43.6721459" lon="12.4298669"><ele>346.3333333333333</ele><time>2026-04-04T11:45:34.226Z</time></trkpt><trkpt lat="43.6720306" lon="12.4300208"><ele>346.6666666666667</ele><time>2026-04-04T11:45:35.225Z</time></trkpt><trkpt lat="43.6719171" lon="12.4301694"><ele>347.0</ele><time>2026-04-04T11:45:36.225Z</time></trkpt><trkpt lat="43.6718155" lon="12.430293"><ele>347.0</ele><time>2026-04-04T11:45:37.223Z</time></trkpt><trkpt lat="43.6717238" lon="12.430402"><ele>347.0</ele><time>2026-04-04T11:45:38.222Z</time></trkpt><trkpt lat="43.6716239" lon="12.4304845"><ele>347.0</ele><time>2026-04-04T11:45:39.222Z</time></trkpt><trkpt lat="43.6715158" lon="12.4305195"><ele>347.0</ele><time>2026-04-04T11:45:40.225Z</time></trkpt><trkpt lat="43.6714043" lon="12.4305057"><ele>347.0</ele><time>2026-04-04T11:45:41.222Z</time></trkpt><trkpt lat="43.6712956" lon="12.4304748"><ele>347.0</ele><time>2026-04-04T11:45:42.221Z</time></trkpt><trkpt lat="43.6711923" lon="12.4304646"><ele>347.0</ele><time>2026-04-04T11:45:43.22Z</time></trkpt><trkpt lat="43.6710831" lon="12.430473"><ele>347.0</ele><time>2026-04-04T11:45:44.223Z</time></trkpt><trkpt lat="43.6709777" lon="12.4305007"><ele>347.0</ele><time>2026-04-04T11:45:45.224Z</time></trkpt><trkpt lat="43.6708778" lon="12.4305463"><ele>346.20000000000005</ele><time>2026-04-04T11:45:46.225Z</time></trkpt><trkpt lat="43.670789" lon="12.4305946"><ele>345.4</ele><time>2026-04-04T11:45:47.224Z</time></trkpt><trkpt lat="43.6707138" lon="12.4306327"><ele>344.6</ele><time>2026-04-04T11:45:48.225Z</time></trkpt><trkpt lat="43.6706255" lon="12.4306761"><ele>343.79999999999995</ele><time>2026-04-04T11:45:50.228Z</time></trkpt><trkpt lat="43.6705616" lon="12.4307099"><ele>343.0</ele><time>2026-04-04T11:45:58.224Z</time></trkpt><trkpt lat="43.6705197" lon="12.4308668"><ele>343.0</ele><time>2026-04-04T11:46:00.222Z</time></trkpt><trkpt lat="43.670521" lon="12.4309653"><ele>343.0</ele><time>2026-04-04T11:46:01.224Z</time></trkpt><trkpt lat="43.6705423" lon="12.4311039"><ele>343.0</ele><time>2026-04-04T11:46:02.223Z</time></trkpt><trkpt lat="43.670552" lon="12.4312374"><ele>343.0</ele><time>2026-04-04T11:46:03.227Z</time></trkpt><trkpt lat="43.6705785" lon="12.4313847"><ele>343.0</ele><time>2026-04-04T11:46:04.222Z</time></trkpt><trkpt lat="43.6706218" lon="12.4315721"><ele>343.0</ele><time>2026-04-04T11:46:05.224Z</time></trkpt><trkpt lat="43.6706451" lon="12.4317631"><ele>343.0</ele><time>2026-04-04T11:46:06.224Z</time></trkpt><trkpt lat="43.6706813" lon="12.4319592"><ele>343.0</ele><time>2026-04-04T11:46:07.222Z</time></trkpt><trkpt lat="43.6707126" lon="12.4321653"><ele>343.0</ele><time>2026-04-04T11:46:08.224Z</time></trkpt><trkpt lat="43.6707506" lon="12.4323705"><ele>342.66666666666663</ele><time>2026-04-04T11:46:09.225Z</time></trkpt><trkpt lat="43.6707856" lon="12.4325849"><ele>342.3333333333333</ele><time>2026-04-04T11:46:10.223Z</time></trkpt><trkpt lat="43.6708231" lon="12.4328051"><ele>342.0</ele><time>2026-04-04T11:46:11.221Z</time></trkpt><trkpt lat="43.6708502" lon="12.4330356"><ele>341.6666666666667</ele><time>2026-04-04T11:46:12.223Z</time></trkpt><trkpt lat="43.6708882" lon="12.4332578"><ele>341.33333333333337</ele><time>2026-04-04T11:46:13.223Z</time></trkpt><trkpt lat="43.6709196" lon="12.433491"><ele>341.0</ele><time>2026-04-04T11:46:14.222Z</time></trkpt><trkpt lat="43.6709556" lon="12.433715"><ele>341.0</ele><time>2026-04-04T11:46:15.223Z</time></trkpt><trkpt lat="43.6709901" lon="12.4339529"><ele>341.0</ele><time>2026-04-04T11:46:16.224Z</time></trkpt><trkpt lat="43.6710229" lon="12.4341995"><ele>341.0</ele><time>2026-04-04T11:46:17.226Z</time></trkpt><trkpt lat="43.6710608" lon="12.4344449"><ele>341.0</ele><time>2026-04-04T11:46:18.224Z</time></trkpt><trkpt lat="43.6711002" lon="12.4346925"><ele>341.0</ele><time>2026-04-04T11:46:19.228Z</time></trkpt><trkpt lat="43.6711428" lon="12.4349445"><ele>341.0</ele><time>2026-04-04T11:46:20.222Z</time></trkpt><trkpt lat="43.6711856" lon="12.4351911"><ele>340.6666666666667</ele><time>2026-04-04T11:46:21.224Z</time></trkpt><trkpt lat="43.6712468" lon="12.435439"><ele>340.3333333333333</ele><time>2026-04-04T11:46:22.225Z</time></trkpt><trkpt lat="43.6713222" lon="12.4356828"><ele>340.0</ele><time>2026-04-04T11:46:23.223Z</time></trkpt><trkpt lat="43.6714125" lon="12.4359179"><ele>339.66666666666663</ele><time>2026-04-04T11:46:24.225Z</time></trkpt><trkpt lat="43.6715086" lon="12.4361332"><ele>339.3333333333333</ele><time>2026-04-04T11:46:25.23Z</time></trkpt><trkpt lat="43.6716189" lon="12.4363436"><ele>339.0</ele><time>2026-04-04T11:46:26.228Z</time></trkpt><trkpt lat="43.6717374" lon="12.4365462"><ele>339.0</ele><time>2026-04-04T11:46:27.225Z</time></trkpt><trkpt lat="43.6718567" lon="12.4367495"><ele>339.0</ele><time>2026-04-04T11:46:28.225Z</time></trkpt><trkpt lat="43.671976" lon="12.4369462"><ele>339.0</ele><time>2026-04-04T11:46:29.229Z</time></trkpt><trkpt lat="43.6720946" lon="12.4371381"><ele>339.6666666666667</ele><time>2026-04-04T11:46:30.227Z</time></trkpt><trkpt lat="43.6722086" lon="12.4373273"><ele>340.33333333333337</ele><time>2026-04-04T11:46:31.224Z</time></trkpt><trkpt lat="43.6723215" lon="12.4375069"><ele>341.0</ele><time>2026-04-04T11:46:32.225Z</time></trkpt><trkpt lat="43.6724309" lon="12.437688"><ele>341.0</ele><time>2026-04-04T11:46:33.224Z</time></trkpt><trkpt lat="43.6725369" lon="12.4378693"><ele>341.0</ele><time>2026-04-04T11:46:34.222Z</time></trkpt><trkpt lat="43.6726399" lon="12.4380572"><ele>341.0</ele><time>2026-04-04T11:46:35.227Z</time></trkpt><trkpt lat="43.6727314" lon="12.4382497"><ele>340.6666666666667</ele><time>2026-04-04T11:46:36.224Z</time></trkpt><trkpt lat="43.6728199" lon="12.4384541"><ele>340.3333333333333</ele><time>2026-04-04T11:46:37.23Z</time></trkpt><trkpt lat="43.6729005" lon="12.4386618"><ele>340.0</ele><time>2026-04-04T11:46:38.227Z</time></trkpt><trkpt lat="43.6729632" lon="12.438885"><ele>342.66666666666663</ele><time>2026-04-04T11:46:39.227Z</time></trkpt><trkpt lat="43.6730141" lon="12.4391178"><ele>345.3333333333333</ele><time>2026-04-04T11:46:40.227Z</time></trkpt><trkpt lat="43.6730641" lon="12.4393569"><ele>348.0</ele><time>2026-04-04T11:46:41.229Z</time></trkpt><trkpt lat="43.673106" lon="12.4396023"><ele>349.6666666666667</ele><time>2026-04-04T11:46:42.227Z</time></trkpt><trkpt lat="43.6731363" lon="12.4398475"><ele>351.33333333333337</ele><time>2026-04-04T11:46:43.225Z</time></trkpt><trkpt lat="43.6731631" lon="12.440103"><ele>353.0</ele><time>2026-04-04T11:46:44.227Z</time></trkpt><trkpt lat="43.6731847" lon="12.4403479"><ele>351.33333333333337</ele><time>2026-04-04T11:46:45.227Z</time></trkpt><trkpt lat="43.6732057" lon="12.4405978"><ele>349.6666666666667</ele><time>2026-04-04T11:46:46.225Z</time></trkpt><trkpt lat="43.6732258" lon="12.4408427"><ele>348.0</ele><time>2026-04-04T11:46:47.227Z</time></trkpt><trkpt lat="43.6732454" lon="12.4410907"><ele>345.6666666666667</ele><time>2026-04-04T11:46:48.227Z</time></trkpt><trkpt lat="43.6732697" lon="12.4413404"><ele>343.33333333333337</ele><time>2026-04-04T11:46:49.226Z</time></trkpt><trkpt lat="43.6732893" lon="12.4415899"><ele>341.0</ele><time>2026-04-04T11:46:50.223Z</time></trkpt><trkpt lat="43.6732949" lon="12.441843"><ele>341.0</ele><time>2026-04-04T11:46:51.228Z</time></trkpt><trkpt lat="43.6733004" lon="12.4420961"><ele>341.0</ele><time>2026-04-04T11:46:52.228Z</time></trkpt><trkpt lat="43.6732953" lon="12.4423526"><ele>341.0</ele><time>2026-04-04T11:46:53.223Z</time></trkpt><trkpt lat="43.6732907" lon="12.442602"><ele>340.6666666666667</ele><time>2026-04-04T11:46:54.224Z</time></trkpt><trkpt lat="43.6732915" lon="12.4428573"><ele>340.3333333333333</ele><time>2026-04-04T11:46:55.225Z</time></trkpt><trkpt lat="43.673292" lon="12.4431182"><ele>340.0</ele><time>2026-04-04T11:46:56.227Z</time></trkpt><trkpt lat="43.6732951" lon="12.4433768"><ele>340.0</ele><time>2026-04-04T11:46:57.229Z</time></trkpt><trkpt lat="43.6733046" lon="12.4436343"><ele>340.0</ele><time>2026-04-04T11:46:58.229Z</time></trkpt><trkpt lat="43.6733085" lon="12.4438832"><ele>340.0</ele><time>2026-04-04T11:46:59.229Z</time></trkpt><trkpt lat="43.6733332" lon="12.4441583"><ele>341.0</ele><time>2026-04-04T11:47:00.226Z</time></trkpt><trkpt lat="43.6733427" lon="12.4444414"><ele>342.0</ele><time>2026-04-04T11:47:01.227Z</time></trkpt><trkpt lat="43.6733551" lon="12.4447033"><ele>343.0</ele><time>2026-04-04T11:47:02.225Z</time></trkpt><trkpt lat="43.6733674" lon="12.4449681"><ele>343.0</ele><time>2026-04-04T11:47:03.222Z</time></trkpt><trkpt lat="43.6733797" lon="12.4452184"><ele>343.0</ele><time>2026-04-04T11:47:04.224Z</time></trkpt><trkpt lat="43.673395" lon="12.4454812"><ele>343.0</ele><time>2026-04-04T11:47:05.228Z</time></trkpt><trkpt lat="43.6734176" lon="12.4457383"><ele>342.3333333333333</ele><time>2026-04-04T11:47:06.225Z</time></trkpt><trkpt lat="43.6734388" lon="12.4459938"><ele>341.6666666666667</ele><time>2026-04-04T11:47:07.226Z</time></trkpt><trkpt lat="43.673453" lon="12.4462495"><ele>341.0</ele><time>2026-04-04T11:47:08.224Z</time></trkpt><trkpt lat="43.6734782" lon="12.4465011"><ele>341.0</ele><time>2026-04-04T11:47:09.226Z</time></trkpt><trkpt lat="43.6735013" lon="12.4467587"><ele>341.0</ele><time>2026-04-04T11:47:10.227Z</time></trkpt><trkpt lat="43.6735311" lon="12.446997"><ele>341.0</ele><time>2026-04-04T11:47:11.227Z</time></trkpt><trkpt lat="43.6735572" lon="12.4472482"><ele>340.0</ele><time>2026-04-04T11:47:12.225Z</time></trkpt><trkpt lat="43.6735837" lon="12.4474953"><ele>339.0</ele><time>2026-04-04T11:47:13.227Z</time></trkpt><trkpt lat="43.6736113" lon="12.4477446"><ele>338.0</ele><time>2026-04-04T11:47:14.224Z</time></trkpt><trkpt lat="43.6736363" lon="12.4479868"><ele>345.6666666666667</ele><time>2026-04-04T11:47:15.223Z</time></trkpt><trkpt lat="43.6736562" lon="12.4482244"><ele>353.3333333333333</ele><time>2026-04-04T11:47:16.227Z</time></trkpt><trkpt lat="43.6736829" lon="12.448463"><ele>361.0</ele><time>2026-04-04T11:47:17.224Z</time></trkpt><trkpt lat="43.6737053" lon="12.4487005"><ele>358.0</ele><time>2026-04-04T11:47:18.223Z</time></trkpt><trkpt lat="43.6737248" lon="12.4489369"><ele>355.0</ele><time>2026-04-04T11:47:19.223Z</time></trkpt><trkpt lat="43.6737449" lon="12.4491854"><ele>352.0</ele><time>2026-04-04T11:47:20.225Z</time></trkpt><trkpt lat="43.6737412" lon="12.4494072"><ele>351.3333333333333</ele><time>2026-04-04T11:47:21.227Z</time></trkpt><trkpt lat="43.6737337" lon="12.4496425"><ele>350.6666666666667</ele><time>2026-04-04T11:47:22.226Z</time></trkpt><trkpt lat="43.6736989" lon="12.4498683"><ele>350.0</ele><time>2026-04-04T11:47:23.225Z</time></trkpt><trkpt lat="43.673671" lon="12.4500875"><ele>350.0</ele><time>2026-04-04T11:47:24.223Z</time></trkpt><trkpt lat="43.6736368" lon="12.4503135"><ele>350.0</ele><time>2026-04-04T11:47:25.228Z</time></trkpt><trkpt lat="43.6736022" lon="12.4505266"><ele>350.0</ele><time>2026-04-04T11:47:26.227Z</time></trkpt><trkpt lat="43.6735763" lon="12.4507455"><ele>345.33333333333337</ele><time>2026-04-04T11:47:27.224Z</time></trkpt><trkpt lat="43.6735439" lon="12.4509605"><ele>340.6666666666667</ele><time>2026-04-04T11:47:28.227Z</time></trkpt><trkpt lat="43.6735264" lon="12.4511813"><ele>336.0</ele><time>2026-04-04T11:47:29.229Z</time></trkpt><trkpt lat="43.6735261" lon="12.4514052"><ele>335.6666666666667</ele><time>2026-04-04T11:47:30.221Z</time></trkpt><trkpt lat="43.6735377" lon="12.4516277"><ele>335.33333333333337</ele><time>2026-04-04T11:47:31.221Z</time></trkpt><trkpt lat="43.6735642" lon="12.4518495"><ele>335.0</ele><time>2026-04-04T11:47:32.227Z</time></trkpt><trkpt lat="43.6735986" lon="12.4520845"><ele>336.0</ele><time>2026-04-04T11:47:33.227Z</time></trkpt><trkpt lat="43.6736256" lon="12.4523137"><ele>337.0</ele><time>2026-04-04T11:47:34.227Z</time></trkpt><trkpt lat="43.6736576" lon="12.4525394"><ele>338.0</ele><time>2026-04-04T11:47:35.221Z</time></trkpt><trkpt lat="43.6736943" lon="12.4527549"><ele>336.0</ele><time>2026-04-04T11:47:36.226Z</time></trkpt><trkpt lat="43.6737425" lon="12.4529731"><ele>334.0</ele><time>2026-04-04T11:47:37.221Z</time></trkpt><trkpt lat="43.673802" lon="12.4531894"><ele>332.0</ele><time>2026-04-04T11:47:38.229Z</time></trkpt><trkpt lat="43.6738668" lon="12.4534085"><ele>332.0</ele><time>2026-04-04T11:47:39.223Z</time></trkpt><trkpt lat="43.6739323" lon="12.4536299"><ele>332.0</ele><time>2026-04-04T11:47:40.225Z</time></trkpt><trkpt lat="43.6740118" lon="12.4538424"><ele>332.0</ele><time>2026-04-04T11:47:41.225Z</time></trkpt><trkpt lat="43.6740819" lon="12.4540567"><ele>330.6666666666667</ele><time>2026-04-04T11:47:42.224Z</time></trkpt><trkpt lat="43.6741547" lon="12.454276"><ele>329.3333333333333</ele><time>2026-04-04T11:47:43.224Z</time></trkpt><trkpt lat="43.6742226" lon="12.4544849"><ele>328.0</ele><time>2026-04-04T11:47:44.225Z</time></trkpt><trkpt lat="43.6742882" lon="12.4546945"><ele>328.0</ele><time>2026-04-04T11:47:45.224Z</time></trkpt><trkpt lat="43.6743531" lon="12.4548947"><ele>328.0</ele><time>2026-04-04T11:47:46.227Z</time></trkpt><trkpt lat="43.6744133" lon="12.4550829"><ele>328.0</ele><time>2026-04-04T11:47:47.227Z</time></trkpt><trkpt lat="43.6744723" lon="12.4552602"><ele>328.0</ele><time>2026-04-04T11:47:48.223Z</time></trkpt><trkpt lat="43.6745268" lon="12.4554307"><ele>327.79999999999995</ele><time>2026-04-04T11:47:49.224Z</time></trkpt><trkpt lat="43.6745758" lon="12.4555848"><ele>327.6</ele><time>2026-04-04T11:47:50.225Z</time></trkpt><trkpt lat="43.674617" lon="12.4557181"><ele>327.4</ele><time>2026-04-04T11:47:51.224Z</time></trkpt><trkpt lat="43.6746417" lon="12.4558198"><ele>327.20000000000005</ele><time>2026-04-04T11:47:52.227Z</time></trkpt><trkpt lat="43.6746273" lon="12.4559857"><ele>327.0</ele><time>2026-04-04T11:47:54.227Z</time></trkpt><trkpt lat="43.6745851" lon="12.456052"><ele>327.0</ele><time>2026-04-04T11:47:55.228Z</time></trkpt><trkpt lat="43.6745184" lon="12.4561694"><ele>327.0</ele><time>2026-04-04T11:47:57.227Z</time></trkpt><trkpt lat="43.6745063" lon="12.456309"><ele>327.0</ele><time>2026-04-04T11:47:59.223Z</time></trkpt><trkpt lat="43.6745506" lon="12.4564522"><ele>327.0</ele><time>2026-04-04T11:48:01.223Z</time></trkpt><trkpt lat="43.6745836" lon="12.4565328"><ele>327.0</ele><time>2026-04-04T11:48:03.224Z</time></trkpt><trkpt lat="43.6745314" lon="12.4564659"><ele>327.0</ele><time>2026-04-04T11:49:26.224Z</time></trkpt><trkpt lat="43.6745514" lon="12.4563791"><ele>327.0</ele><time>2026-04-04T11:49:31.224Z</time></trkpt><trkpt lat="43.6745229" lon="12.4563013"><ele>327.0</ele><time>2026-04-04T11:49:37.226Z</time></trkpt><trkpt lat="43.6744606" lon="12.4562612"><ele>327.0</ele><time>2026-04-04T11:49:44.227Z</time></trkpt><trkpt lat="43.6744816" lon="12.4563464"><ele>327.0</ele><time>2026-04-04T11:49:55.234Z</time></trkpt><trkpt lat="43.674507" lon="12.4564265"><ele>327.0</ele><time>2026-04-04T11:50:00.223Z</time></trkpt><trkpt lat="43.6745451" lon="12.4565129"><ele>327.0</ele><time>2026-04-04T11:50:06.226Z</time></trkpt><trkpt lat="43.6745867" lon="12.4565813"><ele>326.40000000000003</ele><time>2026-04-04T11:50:12.227Z</time></trkpt><trkpt lat="43.6745972" lon="12.4564946"><ele>325.8</ele><time>2026-04-04T11:52:07.222Z</time></trkpt><trkpt lat="43.6746501" lon="12.4565793"><ele>325.2</ele><time>2026-04-04T11:52:58.229Z</time></trkpt><trkpt lat="43.6747988" lon="12.456476"><ele>324.6</ele><time>2026-04-04T11:57:01.213Z</time></trkpt><trkpt lat="43.6748801" lon="12.4565537"><ele>324.0</ele><time>2026-04-04T11:57:03.213Z</time></trkpt><trkpt lat="43.6749189" lon="12.4566601"><ele>324.0</ele><time>2026-04-04T11:57:04.212Z</time></trkpt><trkpt lat="43.6749646" lon="12.4568103"><ele>324.0</ele><time>2026-04-04T11:57:05.212Z</time></trkpt><trkpt lat="43.6750174" lon="12.4569656"><ele>324.0</ele><time>2026-04-04T11:57:06.212Z</time></trkpt><trkpt lat="43.6750776" lon="12.4571395"><ele>324.0</ele><time>2026-04-04T11:57:07.213Z</time></trkpt><trkpt lat="43.6751366" lon="12.457324"><ele>324.0</ele><time>2026-04-04T11:57:08.213Z</time></trkpt><trkpt lat="43.6752014" lon="12.4575291"><ele>324.0</ele><time>2026-04-04T11:57:09.213Z</time></trkpt><trkpt lat="43.6752708" lon="12.4577374"><ele>324.0</ele><time>2026-04-04T11:57:10.212Z</time></trkpt><trkpt lat="43.675338" lon="12.4579512"><ele>323.6666666666667</ele><time>2026-04-04T11:57:11.213Z</time></trkpt><trkpt lat="43.675412" lon="12.4581679"><ele>323.33333333333337</ele><time>2026-04-04T11:57:12.212Z</time></trkpt><trkpt lat="43.6754788" lon="12.458382"><ele>323.0</ele><time>2026-04-04T11:57:13.212Z</time></trkpt><trkpt lat="43.675549" lon="12.458593"><ele>323.0</ele><time>2026-04-04T11:57:14.212Z</time></trkpt><trkpt lat="43.6756194" lon="12.458807"><ele>323.0</ele><time>2026-04-04T11:57:15.212Z</time></trkpt><trkpt lat="43.6756902" lon="12.4590277"><ele>323.0</ele><time>2026-04-04T11:57:16.212Z</time></trkpt><trkpt lat="43.6757625" lon="12.4592437"><ele>323.0</ele><time>2026-04-04T11:57:17.212Z</time></trkpt><trkpt lat="43.675836" lon="12.4594631"><ele>323.0</ele><time>2026-04-04T11:57:18.212Z</time></trkpt><trkpt lat="43.6759027" lon="12.4596803"><ele>323.0</ele><time>2026-04-04T11:57:19.213Z</time></trkpt><trkpt lat="43.6759833" lon="12.4599116"><ele>322.6666666666667</ele><time>2026-04-04T11:57:20.212Z</time></trkpt><trkpt lat="43.6760579" lon="12.4601369"><ele>322.3333333333333</ele><time>2026-04-04T11:57:21.212Z</time></trkpt><trkpt lat="43.6761067" lon="12.460374"><ele>322.0</ele><time>2026-04-04T11:57:22.212Z</time></trkpt><trkpt lat="43.6761446" lon="12.4606154"><ele>322.0</ele><time>2026-04-04T11:57:23.212Z</time></trkpt><trkpt lat="43.6761855" lon="12.4608629"><ele>322.0</ele><time>2026-04-04T11:57:24.212Z</time></trkpt><trkpt lat="43.6762235" lon="12.4611096"><ele>322.0</ele><time>2026-04-04T11:57:25.212Z</time></trkpt><trkpt lat="43.6762735" lon="12.4613583"><ele>322.0</ele><time>2026-04-04T11:57:26.212Z</time></trkpt><trkpt lat="43.6763143" lon="12.461609"><ele>322.0</ele><time>2026-04-04T11:57:27.212Z</time></trkpt><trkpt lat="43.6763613" lon="12.4618616"><ele>322.0</ele><time>2026-04-04T11:57:28.213Z</time></trkpt><trkpt lat="43.6764221" lon="12.4621114"><ele>321.66666666666663</ele><time>2026-04-04T11:57:29.213Z</time></trkpt><trkpt lat="43.6764945" lon="12.4623645"><ele>321.3333333333333</ele><time>2026-04-04T11:57:30.212Z</time></trkpt><trkpt lat="43.6765804" lon="12.4626137"><ele>321.0</ele><time>2026-04-04T11:57:31.213Z</time></trkpt><trkpt lat="43.6766642" lon="12.462847"><ele>320.6666666666667</ele><time>2026-04-04T11:57:32.212Z</time></trkpt><trkpt lat="43.6767408" lon="12.4630938"><ele>320.33333333333337</ele><time>2026-04-04T11:57:33.212Z</time></trkpt><trkpt lat="43.6768251" lon="12.463344"><ele>320.0</ele><time>2026-04-04T11:57:34.212Z</time></trkpt><trkpt lat="43.6769088" lon="12.4635926"><ele>319.6666666666667</ele><time>2026-04-04T11:57:35.212Z</time></trkpt><trkpt lat="43.6769954" lon="12.4638402"><ele>319.3333333333333</ele><time>2026-04-04T11:57:36.212Z</time></trkpt><trkpt lat="43.6770799" lon="12.4640888"><ele>319.0</ele><time>2026-04-04T11:57:37.213Z</time></trkpt><trkpt lat="43.6771672" lon="12.4643365"><ele>319.0</ele><time>2026-04-04T11:57:38.212Z</time></trkpt><trkpt lat="43.6772505" lon="12.4645889"><ele>319.0</ele><time>2026-04-04T11:57:39.213Z</time></trkpt><trkpt lat="43.6773258" lon="12.4648313"><ele>319.0</ele><time>2026-04-04T11:57:40.213Z</time></trkpt><trkpt lat="43.6774023" lon="12.4650813"><ele>319.3333333333333</ele><time>2026-04-04T11:57:41.213Z</time></trkpt><trkpt lat="43.6774787" lon="12.4653254"><ele>319.6666666666667</ele><time>2026-04-04T11:57:42.212Z</time></trkpt><trkpt lat="43.6775637" lon="12.4655698"><ele>320.0</ele><time>2026-04-04T11:57:43.212Z</time></trkpt><trkpt lat="43.677653" lon="12.4658192"><ele>319.33333333333337</ele><time>2026-04-04T11:57:44.212Z</time></trkpt><trkpt lat="43.6777383" lon="12.4660635"><ele>318.6666666666667</ele><time>2026-04-04T11:57:45.213Z</time></trkpt><trkpt lat="43.6778153" lon="12.4663055"><ele>318.0</ele><time>2026-04-04T11:57:46.212Z</time></trkpt><trkpt lat="43.6778981" lon="12.466545"><ele>317.0</ele><time>2026-04-04T11:57:47.213Z</time></trkpt><trkpt lat="43.6779728" lon="12.4667848"><ele>316.0</ele><time>2026-04-04T11:57:48.212Z</time></trkpt><trkpt lat="43.6780434" lon="12.4670117"><ele>315.0</ele><time>2026-04-04T11:57:49.212Z</time></trkpt><trkpt lat="43.6780924" lon="12.4672523"><ele>314.3333333333333</ele><time>2026-04-04T11:57:50.212Z</time></trkpt><trkpt lat="43.6781239" lon="12.4675004"><ele>313.66666666666663</ele><time>2026-04-04T11:57:51.212Z</time></trkpt><trkpt lat="43.6781414" lon="12.4677462"><ele>313.0</ele><time>2026-04-04T11:57:52.212Z</time></trkpt><trkpt lat="43.6781415" lon="12.4680036"><ele>312.0</ele><time>2026-04-04T11:57:53.212Z</time></trkpt><trkpt lat="43.6781324" lon="12.4682662"><ele>311.0</ele><time>2026-04-04T11:57:54.213Z</time></trkpt><trkpt lat="43.678102" lon="12.4685242"><ele>310.0</ele><time>2026-04-04T11:57:55.213Z</time></trkpt><trkpt lat="43.6780561" lon="12.4687745"><ele>307.3333333333333</ele><time>2026-04-04T11:57:56.213Z</time></trkpt><trkpt lat="43.6779938" lon="12.4690402"><ele>304.6666666666667</ele><time>2026-04-04T11:57:57.212Z</time></trkpt><trkpt lat="43.6779275" lon="12.4692868"><ele>302.0</ele><time>2026-04-04T11:57:58.213Z</time></trkpt><trkpt lat="43.6778555" lon="12.4695316"><ele>302.0</ele><time>2026-04-04T11:57:59.212Z</time></trkpt><trkpt lat="43.6777867" lon="12.4697716"><ele>302.0</ele><time>2026-04-04T11:58:00.212Z</time></trkpt><trkpt lat="43.6777209" lon="12.4699956"><ele>302.0</ele><time>2026-04-04T11:58:01.212Z</time></trkpt><trkpt lat="43.6776712" lon="12.4702348"><ele>304.0</ele><time>2026-04-04T11:58:02.212Z</time></trkpt><trkpt lat="43.677641" lon="12.470475"><ele>306.0</ele><time>2026-04-04T11:58:03.213Z</time></trkpt><trkpt lat="43.677629" lon="12.4707222"><ele>308.0</ele><time>2026-04-04T11:58:04.212Z</time></trkpt><trkpt lat="43.6776275" lon="12.4709798"><ele>308.0</ele><time>2026-04-04T11:58:05.212Z</time></trkpt><trkpt lat="43.677635" lon="12.4712426"><ele>308.0</ele><time>2026-04-04T11:58:06.212Z</time></trkpt><trkpt lat="43.6776444" lon="12.4715114"><ele>308.0</ele><time>2026-04-04T11:58:07.213Z</time></trkpt><trkpt lat="43.67765" lon="12.4717838"><ele>308.6666666666667</ele><time>2026-04-04T11:58:08.213Z</time></trkpt><trkpt lat="43.677665" lon="12.4720664"><ele>309.3333333333333</ele><time>2026-04-04T11:58:09.213Z</time></trkpt><trkpt lat="43.6776802" lon="12.4723579"><ele>310.0</ele><time>2026-04-04T11:58:10.212Z</time></trkpt><trkpt lat="43.6776873" lon="12.4726474"><ele>310.3333333333333</ele><time>2026-04-04T11:58:11.212Z</time></trkpt><trkpt lat="43.6776933" lon="12.4729284"><ele>310.6666666666667</ele><time>2026-04-04T11:58:12.212Z</time></trkpt><trkpt lat="43.6776995" lon="12.473217"><ele>311.0</ele><time>2026-04-04T11:58:13.212Z</time></trkpt><trkpt lat="43.677708" lon="12.4735109"><ele>311.0</ele><time>2026-04-04T11:58:14.212Z</time></trkpt><trkpt lat="43.6777164" lon="12.4738107"><ele>311.0</ele><time>2026-04-04T11:58:15.212Z</time></trkpt><trkpt lat="43.6777223" lon="12.4740893"><ele>311.0</ele><time>2026-04-04T11:58:16.212Z</time></trkpt><trkpt lat="43.6777231" lon="12.4743711"><ele>311.33333333333337</ele><time>2026-04-04T11:58:17.213Z</time></trkpt><trkpt lat="43.6777288" lon="12.4746578"><ele>311.6666666666667</ele><time>2026-04-04T11:58:18.213Z</time></trkpt><trkpt lat="43.6777349" lon="12.474941"><ele>312.0</ele><time>2026-04-04T11:58:19.213Z</time></trkpt><trkpt lat="43.6777458" lon="12.4752177"><ele>311.3333333333333</ele><time>2026-04-04T11:58:20.213Z</time></trkpt><trkpt lat="43.6777494" lon="12.4754991"><ele>310.66666666666663</ele><time>2026-04-04T11:58:21.212Z</time></trkpt><trkpt lat="43.677756" lon="12.4757776"><ele>310.0</ele><time>2026-04-04T11:58:22.212Z</time></trkpt><trkpt lat="43.6777615" lon="12.4760559"><ele>310.0</ele><time>2026-04-04T11:58:23.213Z</time></trkpt><trkpt lat="43.6777682" lon="12.4763341"><ele>310.0</ele><time>2026-04-04T11:58:24.212Z</time></trkpt><trkpt lat="43.6777712" lon="12.4766126"><ele>310.0</ele><time>2026-04-04T11:58:25.213Z</time></trkpt><trkpt lat="43.6777774" lon="12.4768822"><ele>308.0</ele><time>2026-04-04T11:58:26.212Z</time></trkpt><trkpt lat="43.6777821" lon="12.4771652"><ele>306.0</ele><time>2026-04-04T11:58:27.212Z</time></trkpt><trkpt lat="43.6777873" lon="12.47744"><ele>304.0</ele><time>2026-04-04T11:58:28.213Z</time></trkpt><trkpt lat="43.6777926" lon="12.4777177"><ele>303.66666666666663</ele><time>2026-04-04T11:58:29.212Z</time></trkpt><trkpt lat="43.6777984" lon="12.4779941"><ele>303.3333333333333</ele><time>2026-04-04T11:58:30.212Z</time></trkpt><trkpt lat="43.6778067" lon="12.4782664"><ele>303.0</ele><time>2026-04-04T11:58:31.212Z</time></trkpt><trkpt lat="43.6778095" lon="12.4785444"><ele>304.0</ele><time>2026-04-04T11:58:32.213Z</time></trkpt><trkpt lat="43.6778123" lon="12.4788202"><ele>305.0</ele><time>2026-04-04T11:58:33.212Z</time></trkpt><trkpt lat="43.6778133" lon="12.4790945"><ele>306.0</ele><time>2026-04-04T11:58:34.212Z</time></trkpt><trkpt lat="43.6778202" lon="12.4793578"><ele>306.3333333333333</ele><time>2026-04-04T11:58:35.213Z</time></trkpt><trkpt lat="43.6778249" lon="12.4796361"><ele>306.66666666666663</ele><time>2026-04-04T11:58:36.212Z</time></trkpt><trkpt lat="43.6778342" lon="12.479897"><ele>307.0</ele><time>2026-04-04T11:58:37.212Z</time></trkpt><trkpt lat="43.6778407" lon="12.4801692"><ele>307.3333333333333</ele><time>2026-04-04T11:58:38.212Z</time></trkpt><trkpt lat="43.6778474" lon="12.4804398"><ele>307.6666666666667</ele><time>2026-04-04T11:58:39.213Z</time></trkpt><trkpt lat="43.6778664" lon="12.4807038"><ele>308.0</ele><time>2026-04-04T11:58:40.212Z</time></trkpt><trkpt lat="43.677887" lon="12.4809833"><ele>308.0</ele><time>2026-04-04T11:58:41.213Z</time></trkpt><trkpt lat="43.6779306" lon="12.4812317"><ele>308.0</ele><time>2026-04-04T11:58:42.212Z</time></trkpt><trkpt lat="43.6779862" lon="12.481496"><ele>308.0</ele><time>2026-04-04T11:58:43.212Z</time></trkpt><trkpt lat="43.6780499" lon="12.481759"><ele>308.0</ele><time>2026-04-04T11:58:44.212Z</time></trkpt><trkpt lat="43.6781214" lon="12.4820188"><ele>308.0</ele><time>2026-04-04T11:58:45.213Z</time></trkpt><trkpt lat="43.6782003" lon="12.4822816"><ele>308.0</ele><time>2026-04-04T11:58:46.213Z</time></trkpt><trkpt lat="43.6782777" lon="12.4825517"><ele>308.0</ele><time>2026-04-04T11:58:47.212Z</time></trkpt><trkpt lat="43.6783563" lon="12.4828225"><ele>308.0</ele><time>2026-04-04T11:58:48.213Z</time></trkpt><trkpt lat="43.67843" lon="12.4830948"><ele>308.0</ele><time>2026-04-04T11:58:49.213Z</time></trkpt><trkpt lat="43.6785083" lon="12.483366"><ele>307.33333333333337</ele><time>2026-04-04T11:58:50.212Z</time></trkpt><trkpt lat="43.6785863" lon="12.4836319"><ele>306.6666666666667</ele><time>2026-04-04T11:58:51.212Z</time></trkpt><trkpt lat="43.6786697" lon="12.4838964"><ele>306.0</ele><time>2026-04-04T11:58:52.212Z</time></trkpt><trkpt lat="43.6787378" lon="12.4841552"><ele>306.0</ele><time>2026-04-04T11:58:53.212Z</time></trkpt><trkpt lat="43.6788149" lon="12.4844093"><ele>306.0</ele><time>2026-04-04T11:58:54.212Z</time></trkpt><trkpt lat="43.6788893" lon="12.4846709"><ele>306.0</ele><time>2026-04-04T11:58:55.212Z</time></trkpt><trkpt lat="43.6789482" lon="12.4849246"><ele>306.0</ele><time>2026-04-04T11:58:56.212Z</time></trkpt><trkpt lat="43.6790049" lon="12.4851835"><ele>306.0</ele><time>2026-04-04T11:58:57.212Z</time></trkpt><trkpt lat="43.6790327" lon="12.4854515"><ele>306.0</ele><time>2026-04-04T11:58:58.213Z</time></trkpt><trkpt lat="43.6790478" lon="12.4857279"><ele>305.6666666666667</ele><time>2026-04-04T11:58:59.213Z</time></trkpt><trkpt lat="43.6790428" lon="12.4860093"><ele>305.33333333333337</ele><time>2026-04-04T11:59:00.212Z</time></trkpt><trkpt lat="43.6790294" lon="12.4862892"><ele>305.0</ele><time>2026-04-04T11:59:01.212Z</time></trkpt><trkpt lat="43.6790008" lon="12.4865757"><ele>305.0</ele><time>2026-04-04T11:59:02.212Z</time></trkpt><trkpt lat="43.678972" lon="12.4868554"><ele>305.0</ele><time>2026-04-04T11:59:03.212Z</time></trkpt><trkpt lat="43.6789542" lon="12.4871422"><ele>305.0</ele><time>2026-04-04T11:59:04.212Z</time></trkpt><trkpt lat="43.6789269" lon="12.4874325"><ele>305.0</ele><time>2026-04-04T11:59:05.212Z</time></trkpt><trkpt lat="43.678888" lon="12.4877197"><ele>305.0</ele><time>2026-04-04T11:59:06.212Z</time></trkpt><trkpt lat="43.6788516" lon="12.4880114"><ele>305.0</ele><time>2026-04-04T11:59:07.212Z</time></trkpt><trkpt lat="43.6788168" lon="12.4882973"><ele>305.0</ele><time>2026-04-04T11:59:08.212Z</time></trkpt><trkpt lat="43.6787817" lon="12.488579"><ele>305.0</ele><time>2026-04-04T11:59:09.213Z</time></trkpt><trkpt lat="43.6787456" lon="12.4888589"><ele>305.0</ele><time>2026-04-04T11:59:10.212Z</time></trkpt><trkpt lat="43.678711" lon="12.4891384"><ele>303.6666666666667</ele><time>2026-04-04T11:59:11.212Z</time></trkpt><trkpt lat="43.6786799" lon="12.4894156"><ele>302.3333333333333</ele><time>2026-04-04T11:59:12.212Z</time></trkpt><trkpt lat="43.6786441" lon="12.4896866"><ele>301.0</ele><time>2026-04-04T11:59:13.212Z</time></trkpt><trkpt lat="43.678612" lon="12.4899588"><ele>301.0</ele><time>2026-04-04T11:59:14.212Z</time></trkpt><trkpt lat="43.6785817" lon="12.4902266"><ele>301.0</ele><time>2026-04-04T11:59:15.212Z</time></trkpt><trkpt lat="43.6785532" lon="12.4904993"><ele>301.0</ele><time>2026-04-04T11:59:16.213Z</time></trkpt><trkpt lat="43.6785227" lon="12.4907628"><ele>301.0</ele><time>2026-04-04T11:59:17.213Z</time></trkpt><trkpt lat="43.6784898" lon="12.4910284"><ele>301.0</ele><time>2026-04-04T11:59:18.212Z</time></trkpt><trkpt lat="43.6784587" lon="12.4912848"><ele>301.0</ele><time>2026-04-04T11:59:19.213Z</time></trkpt><trkpt lat="43.6784236" lon="12.4915239"><ele>302.0</ele><time>2026-04-04T11:59:20.213Z</time></trkpt><trkpt lat="43.6784005" lon="12.4917386"><ele>303.0</ele><time>2026-04-04T11:59:21.212Z</time></trkpt><trkpt lat="43.6783733" lon="12.4919457"><ele>304.0</ele><time>2026-04-04T11:59:22.212Z</time></trkpt><trkpt lat="43.6783517" lon="12.4921557"><ele>304.0</ele><time>2026-04-04T11:59:23.213Z</time></trkpt><trkpt lat="43.6783327" lon="12.4923667"><ele>304.0</ele><time>2026-04-04T11:59:24.213Z</time></trkpt><trkpt lat="43.6783104" lon="12.4925492"><ele>304.0</ele><time>2026-04-04T11:59:25.212Z</time></trkpt><trkpt lat="43.678288" lon="12.4927179"><ele>304.0</ele><time>2026-04-04T11:59:26.212Z</time></trkpt><trkpt lat="43.6782655" lon="12.492883"><ele>303.75</ele><time>2026-04-04T11:59:27.213Z</time></trkpt><trkpt lat="43.6782467" lon="12.4930559"><ele>303.5</ele><time>2026-04-04T11:59:28.212Z</time></trkpt><trkpt lat="43.6782231" lon="12.4932518"><ele>303.25</ele><time>2026-04-04T11:59:29.212Z</time></trkpt><trkpt lat="43.6781999" lon="12.4934623"><ele>303.0</ele><time>2026-04-04T11:59:30.212Z</time></trkpt><trkpt lat="43.6781732" lon="12.4936857"><ele>303.6666666666667</ele><time>2026-04-04T11:59:31.213Z</time></trkpt><trkpt lat="43.6781461" lon="12.4939279"><ele>304.33333333333337</ele><time>2026-04-04T11:59:32.212Z</time></trkpt><trkpt lat="43.6781203" lon="12.4941739"><ele>305.0</ele><time>2026-04-04T11:59:33.212Z</time></trkpt><trkpt lat="43.6780893" lon="12.4944237"><ele>305.6666666666667</ele><time>2026-04-04T11:59:34.212Z</time></trkpt><trkpt lat="43.6780592" lon="12.49468"><ele>306.3333333333333</ele><time>2026-04-04T11:59:35.212Z</time></trkpt><trkpt lat="43.6780309" lon="12.4949357"><ele>307.0</ele><time>2026-04-04T11:59:36.212Z</time></trkpt><trkpt lat="43.6779968" lon="12.4951894"><ele>306.3333333333333</ele><time>2026-04-04T11:59:37.212Z</time></trkpt><trkpt lat="43.6779624" lon="12.4954406"><ele>305.6666666666667</ele><time>2026-04-04T11:59:38.213Z</time></trkpt><trkpt lat="43.6779312" lon="12.4956929"><ele>305.0</ele><time>2026-04-04T11:59:39.212Z</time></trkpt><trkpt lat="43.677904" lon="12.495947"><ele>305.0</ele><time>2026-04-04T11:59:40.212Z</time></trkpt><trkpt lat="43.677873" lon="12.4962044"><ele>305.0</ele><time>2026-04-04T11:59:41.212Z</time></trkpt><trkpt lat="43.67784" lon="12.4964635"><ele>305.0</ele><time>2026-04-04T11:59:42.212Z</time></trkpt><trkpt lat="43.6778116" lon="12.4967311"><ele>305.0</ele><time>2026-04-04T11:59:43.212Z</time></trkpt><trkpt lat="43.6777773" lon="12.4969947"><ele>305.0</ele><time>2026-04-04T11:59:44.212Z</time></trkpt><trkpt lat="43.6777418" lon="12.4972583"><ele>305.0</ele><time>2026-04-04T11:59:45.212Z</time></trkpt><trkpt lat="43.6777091" lon="12.4975168"><ele>306.33333333333337</ele><time>2026-04-04T11:59:46.213Z</time></trkpt><trkpt lat="43.6776757" lon="12.4977824"><ele>307.6666666666667</ele><time>2026-04-04T11:59:47.213Z</time></trkpt><trkpt lat="43.6776372" lon="12.4980475"><ele>309.0</ele><time>2026-04-04T11:59:48.212Z</time></trkpt><trkpt lat="43.6775972" lon="12.4982982"><ele>309.0</ele><time>2026-04-04T11:59:49.212Z</time></trkpt><trkpt lat="43.6775338" lon="12.4985435"><ele>309.0</ele><time>2026-04-04T11:59:50.212Z</time></trkpt><trkpt lat="43.6774553" lon="12.4987737"><ele>309.0</ele><time>2026-04-04T11:59:51.212Z</time></trkpt><trkpt lat="43.6773501" lon="12.4990018"><ele>308.6666666666667</ele><time>2026-04-04T11:59:52.212Z</time></trkpt><trkpt lat="43.6772303" lon="12.4992189"><ele>308.33333333333337</ele><time>2026-04-04T11:59:53.213Z</time></trkpt><trkpt lat="43.6771034" lon="12.4994328"><ele>308.0</ele><time>2026-04-04T11:59:54.212Z</time></trkpt><trkpt lat="43.6769672" lon="12.4996469"><ele>308.33333333333337</ele><time>2026-04-04T11:59:55.212Z</time></trkpt><trkpt lat="43.6768393" lon="12.499863"><ele>308.6666666666667</ele><time>2026-04-04T11:59:56.212Z</time></trkpt><trkpt lat="43.6767149" lon="12.5000713"><ele>309.0</ele><time>2026-04-04T11:59:57.212Z</time></trkpt><trkpt lat="43.6765991" lon="12.5002861"><ele>306.6666666666667</ele><time>2026-04-04T11:59:58.213Z</time></trkpt><trkpt lat="43.6765025" lon="12.500518"><ele>304.33333333333337</ele><time>2026-04-04T11:59:59.212Z</time></trkpt><trkpt lat="43.6764393" lon="12.5007703"><ele>302.0</ele><time>2026-04-04T12:00:00.212Z</time></trkpt><trkpt lat="43.6763919" lon="12.5010406"><ele>300.33333333333337</ele><time>2026-04-04T12:00:01.213Z</time></trkpt><trkpt lat="43.676366" lon="12.5013082"><ele>298.6666666666667</ele><time>2026-04-04T12:00:02.212Z</time></trkpt><trkpt lat="43.6763379" lon="12.5015853"><ele>297.0</ele><time>2026-04-04T12:00:03.212Z</time></trkpt><trkpt lat="43.6763135" lon="12.501858"><ele>296.3333333333333</ele><time>2026-04-04T12:00:04.212Z</time></trkpt><trkpt lat="43.67629" lon="12.5021149"><ele>295.66666666666663</ele><time>2026-04-04T12:00:05.213Z</time></trkpt><trkpt lat="43.6762773" lon="12.5023801"><ele>295.0</ele><time>2026-04-04T12:00:06.212Z</time></trkpt><trkpt lat="43.6762852" lon="12.5026371"><ele>295.0</ele><time>2026-04-04T12:00:07.212Z</time></trkpt><trkpt lat="43.6763054" lon="12.5029057"><ele>295.0</ele><time>2026-04-04T12:00:08.212Z</time></trkpt><trkpt lat="43.6763349" lon="12.5031741"><ele>295.0</ele><time>2026-04-04T12:00:09.212Z</time></trkpt><trkpt lat="43.6763781" lon="12.5034461"><ele>296.3333333333333</ele><time>2026-04-04T12:00:10.212Z</time></trkpt><trkpt lat="43.6764261" lon="12.5037116"><ele>297.6666666666667</ele><time>2026-04-04T12:00:11.212Z</time></trkpt><trkpt lat="43.6764813" lon="12.503969"><ele>299.0</ele><time>2026-04-04T12:00:12.212Z</time></trkpt><trkpt lat="43.6765294" lon="12.5042257"><ele>301.0</ele><time>2026-04-04T12:00:13.213Z</time></trkpt><trkpt lat="43.6765699" lon="12.5044775"><ele>303.0</ele><time>2026-04-04T12:00:14.212Z</time></trkpt><trkpt lat="43.6766145" lon="12.5047326"><ele>305.0</ele><time>2026-04-04T12:00:15.212Z</time></trkpt><trkpt lat="43.6766342" lon="12.5049959"><ele>305.0</ele><time>2026-04-04T12:00:16.212Z</time></trkpt><trkpt lat="43.6766446" lon="12.5052592"><ele>305.0</ele><time>2026-04-04T12:00:17.213Z</time></trkpt><trkpt lat="43.6766448" lon="12.5055291"><ele>305.0</ele><time>2026-04-04T12:00:18.212Z</time></trkpt><trkpt lat="43.6766275" lon="12.5058111"><ele>303.6666666666667</ele><time>2026-04-04T12:00:19.212Z</time></trkpt><trkpt lat="43.6766079" lon="12.5060947"><ele>302.3333333333333</ele><time>2026-04-04T12:00:20.213Z</time></trkpt><trkpt lat="43.6765875" lon="12.5063897"><ele>301.0</ele><time>2026-04-04T12:00:21.213Z</time></trkpt><trkpt lat="43.6765654" lon="12.5066756"><ele>300.3333333333333</ele><time>2026-04-04T12:00:22.213Z</time></trkpt><trkpt lat="43.6765468" lon="12.5069602"><ele>299.6666666666667</ele><time>2026-04-04T12:00:23.213Z</time></trkpt><trkpt lat="43.6765338" lon="12.5072415"><ele>299.0</ele><time>2026-04-04T12:00:24.212Z</time></trkpt><trkpt lat="43.6765245" lon="12.5075175"><ele>299.0</ele><time>2026-04-04T12:00:25.212Z</time></trkpt><trkpt lat="43.6765339" lon="12.507787"><ele>299.0</ele><time>2026-04-04T12:00:26.212Z</time></trkpt><trkpt lat="43.6765574" lon="12.5080581"><ele>299.0</ele><time>2026-04-04T12:00:27.212Z</time></trkpt><trkpt lat="43.6766021" lon="12.5083221"><ele>299.0</ele><time>2026-04-04T12:00:28.213Z</time></trkpt><trkpt lat="43.6766718" lon="12.5085872"><ele>299.0</ele><time>2026-04-04T12:00:29.212Z</time></trkpt><trkpt lat="43.6767565" lon="12.5088454"><ele>299.0</ele><time>2026-04-04T12:00:30.212Z</time></trkpt><trkpt lat="43.6768538" lon="12.5090946"><ele>297.33333333333337</ele><time>2026-04-04T12:00:31.212Z</time></trkpt><trkpt lat="43.6769569" lon="12.5093387"><ele>295.6666666666667</ele><time>2026-04-04T12:00:32.212Z</time></trkpt><trkpt lat="43.6770502" lon="12.5095716"><ele>294.0</ele><time>2026-04-04T12:00:33.213Z</time></trkpt><trkpt lat="43.6771436" lon="12.5097903"><ele>293.6666666666667</ele><time>2026-04-04T12:00:34.213Z</time></trkpt><trkpt lat="43.6772226" lon="12.5100179"><ele>293.33333333333337</ele><time>2026-04-04T12:00:35.212Z</time></trkpt><trkpt lat="43.6772972" lon="12.5102432"><ele>293.0</ele><time>2026-04-04T12:00:36.212Z</time></trkpt><trkpt lat="43.677353" lon="12.5104804"><ele>292.33333333333337</ele><time>2026-04-04T12:00:37.212Z</time></trkpt><trkpt lat="43.6773922" lon="12.5107354"><ele>291.6666666666667</ele><time>2026-04-04T12:00:38.212Z</time></trkpt><trkpt lat="43.6774121" lon="12.51099"><ele>291.0</ele><time>2026-04-04T12:00:39.212Z</time></trkpt><trkpt lat="43.6774113" lon="12.5112472"><ele>290.0</ele><time>2026-04-04T12:00:40.212Z</time></trkpt><trkpt lat="43.6773936" lon="12.5114915"><ele>289.0</ele><time>2026-04-04T12:00:41.212Z</time></trkpt><trkpt lat="43.6773655" lon="12.5117343"><ele>288.0</ele><time>2026-04-04T12:00:42.213Z</time></trkpt><trkpt lat="43.6773333" lon="12.5119513"><ele>288.6666666666667</ele><time>2026-04-04T12:00:43.212Z</time></trkpt><trkpt lat="43.6772952" lon="12.5121634"><ele>289.33333333333337</ele><time>2026-04-04T12:00:44.212Z</time></trkpt><trkpt lat="43.677246" lon="12.5123634"><ele>290.0</ele><time>2026-04-04T12:00:45.213Z</time></trkpt><trkpt lat="43.6771899" lon="12.5125466"><ele>290.0</ele><time>2026-04-04T12:00:46.212Z</time></trkpt><trkpt lat="43.6770952" lon="12.5126994"><ele>290.0</ele><time>2026-04-04T12:00:47.212Z</time></trkpt><trkpt lat="43.6769619" lon="12.5127931"><ele>290.0</ele><time>2026-04-04T12:00:48.212Z</time></trkpt><trkpt lat="43.6768145" lon="12.5128539"><ele>290.0</ele><time>2026-04-04T12:00:49.213Z</time></trkpt><trkpt lat="43.6766566" lon="12.5128673"><ele>287.33333333333337</ele><time>2026-04-04T12:00:50.213Z</time></trkpt><trkpt lat="43.6764905" lon="12.5128604"><ele>284.6666666666667</ele><time>2026-04-04T12:00:51.212Z</time></trkpt><trkpt lat="43.6763241" lon="12.5128529"><ele>282.0</ele><time>2026-04-04T12:00:52.212Z</time></trkpt><trkpt lat="43.676166" lon="12.5128664"><ele>282.0</ele><time>2026-04-04T12:00:53.212Z</time></trkpt><trkpt lat="43.6760082" lon="12.5128847"><ele>282.0</ele><time>2026-04-04T12:00:54.213Z</time></trkpt><trkpt lat="43.6758649" lon="12.5129426"><ele>282.0</ele><time>2026-04-04T12:00:55.212Z</time></trkpt><trkpt lat="43.6757287" lon="12.5130302"><ele>283.75</ele><time>2026-04-04T12:00:56.212Z</time></trkpt><trkpt lat="43.6756016" lon="12.5131464"><ele>285.5</ele><time>2026-04-04T12:00:57.212Z</time></trkpt><trkpt lat="43.6754827" lon="12.5132653"><ele>287.25</ele><time>2026-04-04T12:00:58.212Z</time></trkpt><trkpt lat="43.6753789" lon="12.513374"><ele>289.0</ele><time>2026-04-04T12:00:59.212Z</time></trkpt><trkpt lat="43.6752795" lon="12.5134707"><ele>289.59999999999997</ele><time>2026-04-04T12:01:00.212Z</time></trkpt><trkpt lat="43.6751848" lon="12.5135424"><ele>290.2</ele><time>2026-04-04T12:01:01.212Z</time></trkpt><trkpt lat="43.6750786" lon="12.5135788"><ele>290.79999999999995</ele><time>2026-04-04T12:01:02.212Z</time></trkpt><trkpt lat="43.6749647" lon="12.5135982"><ele>291.4</ele><time>2026-04-04T12:01:03.212Z</time></trkpt><trkpt lat="43.6748534" lon="12.5135555"><ele>292.0</ele><time>2026-04-04T12:01:04.213Z</time></trkpt><trkpt lat="43.6747546" lon="12.5134723"><ele>292.0</ele><time>2026-04-04T12:01:05.212Z</time></trkpt><trkpt lat="43.6746631" lon="12.5133574"><ele>292.0</ele><time>2026-04-04T12:01:06.212Z</time></trkpt><trkpt lat="43.6745881" lon="12.5131872"><ele>292.0</ele><time>2026-04-04T12:01:07.213Z</time></trkpt><trkpt lat="43.6745198" lon="12.5130007"><ele>292.0</ele><time>2026-04-04T12:01:08.212Z</time></trkpt><trkpt lat="43.6744538" lon="12.5128127"><ele>293.0</ele><time>2026-04-04T12:01:09.213Z</time></trkpt><trkpt lat="43.6743861" lon="12.5125995"><ele>294.0</ele><time>2026-04-04T12:01:10.213Z</time></trkpt><trkpt lat="43.6743148" lon="12.5123769"><ele>295.0</ele><time>2026-04-04T12:01:11.213Z</time></trkpt><trkpt lat="43.6742485" lon="12.5121541"><ele>294.75</ele><time>2026-04-04T12:01:12.212Z</time></trkpt><trkpt lat="43.6741799" lon="12.5119541"><ele>294.5</ele><time>2026-04-04T12:01:13.213Z</time></trkpt><trkpt lat="43.674119" lon="12.5117662"><ele>294.25</ele><time>2026-04-04T12:01:14.212Z</time></trkpt><trkpt lat="43.6740614" lon="12.5116096"><ele>294.0</ele><time>2026-04-04T12:01:15.212Z</time></trkpt><trkpt lat="43.6740161" lon="12.5114618"><ele>294.0</ele><time>2026-04-04T12:01:16.212Z</time></trkpt><trkpt lat="43.6739694" lon="12.5113431"><ele>294.0</ele><time>2026-04-04T12:01:17.213Z</time></trkpt><trkpt lat="43.6739074" lon="12.5112555"><ele>294.0</ele><time>2026-04-04T12:01:18.212Z</time></trkpt><trkpt lat="43.6738279" lon="12.5112022"><ele>294.0</ele><time>2026-04-04T12:01:19.212Z</time></trkpt><trkpt lat="43.6737387" lon="12.5111932"><ele>294.0</ele><time>2026-04-04T12:01:20.212Z</time></trkpt><trkpt lat="43.6736303" lon="12.5112207"><ele>295.5</ele><time>2026-04-04T12:01:21.212Z</time></trkpt><trkpt lat="43.673511" lon="12.5112498"><ele>297.0</ele><time>2026-04-04T12:01:22.212Z</time></trkpt><trkpt lat="43.6733871" lon="12.5112817"><ele>298.5</ele><time>2026-04-04T12:01:23.213Z</time></trkpt><trkpt lat="43.6732574" lon="12.511319"><ele>300.0</ele><time>2026-04-04T12:01:24.212Z</time></trkpt><trkpt lat="43.673127" lon="12.5113542"><ele>300.0</ele><time>2026-04-04T12:01:25.213Z</time></trkpt><trkpt lat="43.6729903" lon="12.5113993"><ele>300.0</ele><time>2026-04-04T12:01:26.212Z</time></trkpt><trkpt lat="43.6728577" lon="12.5114625"><ele>300.0</ele><time>2026-04-04T12:01:27.212Z</time></trkpt><trkpt lat="43.672739" lon="12.5115374"><ele>300.0</ele><time>2026-04-04T12:01:28.213Z</time></trkpt><trkpt lat="43.6726288" lon="12.5116458"><ele>300.25</ele><time>2026-04-04T12:01:29.212Z</time></trkpt><trkpt lat="43.6725311" lon="12.511773"><ele>300.5</ele><time>2026-04-04T12:01:30.212Z</time></trkpt><trkpt lat="43.6724431" lon="12.5119212"><ele>300.75</ele><time>2026-04-04T12:01:31.212Z</time></trkpt><trkpt lat="43.6723551" lon="12.5120803"><ele>301.0</ele><time>2026-04-04T12:01:32.212Z</time></trkpt><trkpt lat="43.6722701" lon="12.512242"><ele>300.25</ele><time>2026-04-04T12:01:33.212Z</time></trkpt><trkpt lat="43.6721886" lon="12.512401"><ele>299.5</ele><time>2026-04-04T12:01:34.213Z</time></trkpt><trkpt lat="43.6721002" lon="12.5125637"><ele>298.75</ele><time>2026-04-04T12:01:35.212Z</time></trkpt><trkpt lat="43.6720216" lon="12.5127117"><ele>298.0</ele><time>2026-04-04T12:01:36.212Z</time></trkpt><trkpt lat="43.6719482" lon="12.5128502"><ele>297.25</ele><time>2026-04-04T12:01:37.212Z</time></trkpt><trkpt lat="43.6718754" lon="12.512991"><ele>296.5</ele><time>2026-04-04T12:01:38.213Z</time></trkpt><trkpt lat="43.6717996" lon="12.5131372"><ele>295.75</ele><time>2026-04-04T12:01:39.213Z</time></trkpt><trkpt lat="43.6717259" lon="12.5132767"><ele>295.0</ele><time>2026-04-04T12:01:40.213Z</time></trkpt><trkpt lat="43.6716505" lon="12.5134127"><ele>295.0</ele><time>2026-04-04T12:01:41.212Z</time></trkpt><trkpt lat="43.6715779" lon="12.5135545"><ele>295.0</ele><time>2026-04-04T12:01:42.213Z</time></trkpt><trkpt lat="43.6715139" lon="12.5136878"><ele>295.0</ele><time>2026-04-04T12:01:43.212Z</time></trkpt><trkpt lat="43.6714477" lon="12.5138317"><ele>295.0</ele><time>2026-04-04T12:01:44.213Z</time></trkpt><trkpt lat="43.6713782" lon="12.5139691"><ele>295.0</ele><time>2026-04-04T12:01:45.212Z</time></trkpt><trkpt lat="43.6713099" lon="12.5141041"><ele>295.0</ele><time>2026-04-04T12:01:46.212Z</time></trkpt><trkpt lat="43.671239" lon="12.5142398"><ele>295.0</ele><time>2026-04-04T12:01:47.212Z</time></trkpt><trkpt lat="43.6711626" lon="12.514382"><ele>295.0</ele><time>2026-04-04T12:01:48.213Z</time></trkpt><trkpt lat="43.6710878" lon="12.5145213"><ele>294.25</ele><time>2026-04-04T12:01:49.212Z</time></trkpt><trkpt lat="43.6710137" lon="12.514662"><ele>293.5</ele><time>2026-04-04T12:01:50.212Z</time></trkpt><trkpt lat="43.6709344" lon="12.5148129"><ele>292.75</ele><time>2026-04-04T12:01:51.212Z</time></trkpt><trkpt lat="43.6708576" lon="12.5149592"><ele>292.0</ele><time>2026-04-04T12:01:52.212Z</time></trkpt><trkpt lat="43.6707665" lon="12.5151078"><ele>292.0</ele><time>2026-04-04T12:01:53.212Z</time></trkpt><trkpt lat="43.6706618" lon="12.5152529"><ele>292.0</ele><time>2026-04-04T12:01:54.212Z</time></trkpt><trkpt lat="43.6705524" lon="12.5153889"><ele>292.0</ele><time>2026-04-04T12:01:55.213Z</time></trkpt><trkpt lat="43.6704315" lon="12.5155367"><ele>292.0</ele><time>2026-04-04T12:01:56.213Z</time></trkpt><trkpt lat="43.6703092" lon="12.5156735"><ele>292.0</ele><time>2026-04-04T12:01:57.212Z</time></trkpt><trkpt lat="43.6701901" lon="12.5158214"><ele>292.0</ele><time>2026-04-04T12:01:58.213Z</time></trkpt><trkpt lat="43.6700668" lon="12.5159549"><ele>292.0</ele><time>2026-04-04T12:01:59.212Z</time></trkpt><trkpt lat="43.6699396" lon="12.5160925"><ele>292.0</ele><time>2026-04-04T12:02:00.213Z</time></trkpt><trkpt lat="43.6698171" lon="12.5162315"><ele>292.0</ele><time>2026-04-04T12:02:01.212Z</time></trkpt><trkpt lat="43.6696895" lon="12.5163506"><ele>290.66666666666663</ele><time>2026-04-04T12:02:02.213Z</time></trkpt><trkpt lat="43.6695556" lon="12.5164542"><ele>289.3333333333333</ele><time>2026-04-04T12:02:03.213Z</time></trkpt><trkpt lat="43.6694159" lon="12.5165414"><ele>288.0</ele><time>2026-04-04T12:02:04.212Z</time></trkpt><trkpt lat="43.6692811" lon="12.5166297"><ele>288.0</ele><time>2026-04-04T12:02:05.213Z</time></trkpt><trkpt lat="43.6691363" lon="12.5166784"><ele>288.0</ele><time>2026-04-04T12:02:06.212Z</time></trkpt><trkpt lat="43.6689835" lon="12.516741"><ele>288.0</ele><time>2026-04-04T12:02:07.212Z</time></trkpt><trkpt lat="43.6688418" lon="12.5168028"><ele>288.0</ele><time>2026-04-04T12:02:08.213Z</time></trkpt><trkpt lat="43.6687167" lon="12.5168651"><ele>288.0</ele><time>2026-04-04T12:02:09.213Z</time></trkpt><trkpt lat="43.6685992" lon="12.5169117"><ele>288.0</ele><time>2026-04-04T12:02:10.212Z</time></trkpt><trkpt lat="43.6685091" lon="12.5169491"><ele>288.0</ele><time>2026-04-04T12:02:11.212Z</time></trkpt><trkpt lat="43.668436" lon="12.5169692"><ele>288.0</ele><time>2026-04-04T12:02:12.212Z</time></trkpt><trkpt lat="43.6683762" lon="12.5169972"><ele>287.6</ele><time>2026-04-04T12:02:14.212Z</time></trkpt><trkpt lat="43.668278" lon="12.5170119"><ele>287.20000000000005</ele><time>2026-04-04T12:02:36.212Z</time></trkpt><trkpt lat="43.668208" lon="12.5170576"><ele>286.8</ele><time>2026-04-04T12:02:37.212Z</time></trkpt><trkpt lat="43.6681206" lon="12.5170951"><ele>286.40000000000003</ele><time>2026-04-04T12:02:38.212Z</time></trkpt><trkpt lat="43.6680127" lon="12.517137"><ele>286.0</ele><time>2026-04-04T12:02:39.212Z</time></trkpt><trkpt lat="43.6678992" lon="12.5171882"><ele>286.0</ele><time>2026-04-04T12:02:40.212Z</time></trkpt><trkpt lat="43.6677766" lon="12.5172411"><ele>286.0</ele><time>2026-04-04T12:02:41.212Z</time></trkpt><trkpt lat="43.6676425" lon="12.517301"><ele>286.0</ele><time>2026-04-04T12:02:42.213Z</time></trkpt><trkpt lat="43.6674994" lon="12.5173571"><ele>286.0</ele><time>2026-04-04T12:02:43.212Z</time></trkpt><trkpt lat="43.6670824" lon="12.517579"><ele>286.0</ele><time>2026-04-04T12:02:46.212Z</time></trkpt><trkpt lat="43.6669443" lon="12.5176709"><ele>286.0</ele><time>2026-04-04T12:02:47.213Z</time></trkpt><trkpt lat="43.6668076" lon="12.51778"><ele>286.0</ele><time>2026-04-04T12:02:48.213Z</time></trkpt><trkpt lat="43.6666795" lon="12.5178866"><ele>286.5</ele><time>2026-04-04T12:02:49.213Z</time></trkpt><trkpt lat="43.6665491" lon="12.5179852"><ele>287.0</ele><time>2026-04-04T12:02:50.212Z</time></trkpt><trkpt lat="43.6664144" lon="12.5180782"><ele>287.5</ele><time>2026-04-04T12:02:51.213Z</time></trkpt><trkpt lat="43.6662912" lon="12.5181895"><ele>288.0</ele><time>2026-04-04T12:02:52.213Z</time></trkpt><trkpt lat="43.6661656" lon="12.5182914"><ele>287.5</ele><time>2026-04-04T12:02:53.212Z</time></trkpt><trkpt lat="43.6660358" lon="12.5184062"><ele>287.0</ele><time>2026-04-04T12:02:54.212Z</time></trkpt><trkpt lat="43.6659116" lon="12.5185109"><ele>286.5</ele><time>2026-04-04T12:02:55.213Z</time></trkpt><trkpt lat="43.665788" lon="12.5186151"><ele>286.0</ele><time>2026-04-04T12:02:56.213Z</time></trkpt><trkpt lat="43.6656706" lon="12.5187169"><ele>286.5</ele><time>2026-04-04T12:02:57.212Z</time></trkpt><trkpt lat="43.6655569" lon="12.5188262"><ele>287.0</ele><time>2026-04-04T12:02:58.212Z</time></trkpt><trkpt lat="43.6654503" lon="12.5189387"><ele>287.5</ele><time>2026-04-04T12:02:59.213Z</time></trkpt><trkpt lat="43.6653522" lon="12.5190636"><ele>288.0</ele><time>2026-04-04T12:03:00.212Z</time></trkpt><trkpt lat="43.665266" lon="12.519216"><ele>288.0</ele><time>2026-04-04T12:03:01.212Z</time></trkpt><trkpt lat="43.6651827" lon="12.519387"><ele>288.0</ele><time>2026-04-04T12:03:02.213Z</time></trkpt><trkpt lat="43.665102" lon="12.5195635"><ele>288.0</ele><time>2026-04-04T12:03:03.212Z</time></trkpt><trkpt lat="43.6650196" lon="12.5197338"><ele>288.0</ele><time>2026-04-04T12:03:04.212Z</time></trkpt><trkpt lat="43.6649537" lon="12.5198898"><ele>286.0</ele><time>2026-04-04T12:03:05.213Z</time></trkpt><trkpt lat="43.664888" lon="12.520051"><ele>284.0</ele><time>2026-04-04T12:03:06.212Z</time></trkpt><trkpt lat="43.6648436" lon="12.5202365"><ele>282.0</ele><time>2026-04-04T12:03:07.213Z</time></trkpt><trkpt lat="43.6648035" lon="12.5204193"><ele>280.0</ele><time>2026-04-04T12:03:08.212Z</time></trkpt><trkpt lat="43.6647895" lon="12.5206062"><ele>279.0</ele><time>2026-04-04T12:03:09.212Z</time></trkpt><trkpt lat="43.6647879" lon="12.5207897"><ele>278.0</ele><time>2026-04-04T12:03:10.212Z</time></trkpt><trkpt lat="43.6648245" lon="12.5209863"><ele>277.0</ele><time>2026-04-04T12:03:11.212Z</time></trkpt><trkpt lat="43.6648743" lon="12.5211636"><ele>276.0</ele><time>2026-04-04T12:03:12.212Z</time></trkpt><trkpt lat="43.664937" lon="12.5213348"><ele>275.25</ele><time>2026-04-04T12:03:13.213Z</time></trkpt><trkpt lat="43.6650105" lon="12.5215079"><ele>274.5</ele><time>2026-04-04T12:03:14.212Z</time></trkpt><trkpt lat="43.6650859" lon="12.5216738"><ele>273.75</ele><time>2026-04-04T12:03:15.212Z</time></trkpt><trkpt lat="43.6651698" lon="12.5218351"><ele>273.0</ele><time>2026-04-04T12:03:16.212Z</time></trkpt><trkpt lat="43.6652466" lon="12.5219919"><ele>272.25</ele><time>2026-04-04T12:03:17.213Z</time></trkpt><trkpt lat="43.6653239" lon="12.5221485"><ele>271.5</ele><time>2026-04-04T12:03:18.213Z</time></trkpt><trkpt lat="43.6653976" lon="12.5222903"><ele>270.75</ele><time>2026-04-04T12:03:19.213Z</time></trkpt><trkpt lat="43.6654692" lon="12.5224426"><ele>270.0</ele><time>2026-04-04T12:03:20.212Z</time></trkpt><trkpt lat="43.6655423" lon="12.5226012"><ele>270.0</ele><time>2026-04-04T12:03:21.212Z</time></trkpt><trkpt lat="43.6656168" lon="12.5227515"><ele>270.0</ele><time>2026-04-04T12:03:22.212Z</time></trkpt><trkpt lat="43.6656843" lon="12.5229055"><ele>270.0</ele><time>2026-04-04T12:03:23.213Z</time></trkpt><trkpt lat="43.6657562" lon="12.5230624"><ele>270.0</ele><time>2026-04-04T12:03:24.212Z</time></trkpt><trkpt lat="43.665833" lon="12.5232116"><ele>268.5</ele><time>2026-04-04T12:03:25.212Z</time></trkpt><trkpt lat="43.6659049" lon="12.5233593"><ele>267.0</ele><time>2026-04-04T12:03:26.213Z</time></trkpt><trkpt lat="43.6659701" lon="12.5234972"><ele>265.5</ele><time>2026-04-04T12:03:27.212Z</time></trkpt><trkpt lat="43.6660254" lon="12.5236206"><ele>264.0</ele><time>2026-04-04T12:03:28.213Z</time></trkpt><trkpt lat="43.6660739" lon="12.5237397"><ele>264.0</ele><time>2026-04-04T12:03:29.212Z</time></trkpt><trkpt lat="43.6661086" lon="12.5238623"><ele>264.0</ele><time>2026-04-04T12:03:30.212Z</time></trkpt><trkpt lat="43.6661154" lon="12.5239784"><ele>264.0</ele><time>2026-04-04T12:03:31.212Z</time></trkpt><trkpt lat="43.6661182" lon="12.5241009"><ele>264.0</ele><time>2026-04-04T12:03:32.212Z</time></trkpt><trkpt lat="43.6660873" lon="12.524221"><ele>264.0</ele><time>2026-04-04T12:03:33.212Z</time></trkpt><trkpt lat="43.6660452" lon="12.5243425"><ele>264.0</ele><time>2026-04-04T12:03:34.212Z</time></trkpt><trkpt lat="43.6659973" lon="12.5244673"><ele>264.0</ele><time>2026-04-04T12:03:35.213Z</time></trkpt><trkpt lat="43.6659481" lon="12.5245898"><ele>264.0</ele><time>2026-04-04T12:03:36.212Z</time></trkpt><trkpt lat="43.6658933" lon="12.5247129"><ele>264.0</ele><time>2026-04-04T12:03:37.212Z</time></trkpt><trkpt lat="43.6658449" lon="12.5248348"><ele>264.0</ele><time>2026-04-04T12:03:38.212Z</time></trkpt><trkpt lat="43.6657963" lon="12.5249538"><ele>265.4</ele><time>2026-04-04T12:03:39.212Z</time></trkpt><trkpt lat="43.6657478" lon="12.5250663"><ele>266.79999999999995</ele><time>2026-04-04T12:03:40.213Z</time></trkpt><trkpt lat="43.6656984" lon="12.5251752"><ele>268.20000000000005</ele><time>2026-04-04T12:03:41.212Z</time></trkpt><trkpt lat="43.6656448" lon="12.5252905"><ele>269.6</ele><time>2026-04-04T12:03:42.212Z</time></trkpt><trkpt lat="43.6655977" lon="12.5254088"><ele>271.0</ele><time>2026-04-04T12:03:43.213Z</time></trkpt><trkpt lat="43.6655464" lon="12.5255259"><ele>271.0</ele><time>2026-04-04T12:03:44.212Z</time></trkpt><trkpt lat="43.6654912" lon="12.525646"><ele>271.0</ele><time>2026-04-04T12:03:45.212Z</time></trkpt><trkpt lat="43.6654355" lon="12.525773"><ele>271.0</ele><time>2026-04-04T12:03:46.212Z</time></trkpt><trkpt lat="43.6653792" lon="12.5258942"><ele>271.0</ele><time>2026-04-04T12:03:47.213Z</time></trkpt><trkpt lat="43.6653245" lon="12.5260229"><ele>271.0</ele><time>2026-04-04T12:03:48.212Z</time></trkpt><trkpt lat="43.6652706" lon="12.5261633"><ele>271.25</ele><time>2026-04-04T12:03:49.212Z</time></trkpt><trkpt lat="43.6652103" lon="12.5262955"><ele>271.5</ele><time>2026-04-04T12:03:50.212Z</time></trkpt><trkpt lat="43.6651544" lon="12.5264298"><ele>271.75</ele><time>2026-04-04T12:03:51.212Z</time></trkpt><trkpt lat="43.6650898" lon="12.5265681"><ele>272.0</ele><time>2026-04-04T12:03:52.212Z</time></trkpt><trkpt lat="43.6650284" lon="12.5267002"><ele>272.0</ele><time>2026-04-04T12:03:53.213Z</time></trkpt><trkpt lat="43.6649654" lon="12.5268474"><ele>272.0</ele><time>2026-04-04T12:03:54.212Z</time></trkpt><trkpt lat="43.6649015" lon="12.526992"><ele>272.0</ele><time>2026-04-04T12:03:55.213Z</time></trkpt><trkpt lat="43.6648387" lon="12.5271369"><ele>272.0</ele><time>2026-04-04T12:03:56.212Z</time></trkpt><trkpt lat="43.6647735" lon="12.5272786"><ele>272.5</ele><time>2026-04-04T12:03:57.212Z</time></trkpt><trkpt lat="43.6647207" lon="12.5274335"><ele>273.0</ele><time>2026-04-04T12:03:58.213Z</time></trkpt><trkpt lat="43.6646538" lon="12.52758"><ele>273.5</ele><time>2026-04-04T12:03:59.212Z</time></trkpt><trkpt lat="43.6645918" lon="12.5277171"><ele>274.0</ele><time>2026-04-04T12:04:00.212Z</time></trkpt><trkpt lat="43.6645348" lon="12.5278488"><ele>274.59999999999997</ele><time>2026-04-04T12:04:01.213Z</time></trkpt><trkpt lat="43.6644742" lon="12.5279769"><ele>275.2</ele><time>2026-04-04T12:04:02.212Z</time></trkpt><trkpt lat="43.6644175" lon="12.5281094"><ele>275.79999999999995</ele><time>2026-04-04T12:04:03.212Z</time></trkpt><trkpt lat="43.6643601" lon="12.5282382"><ele>276.4</ele><time>2026-04-04T12:04:04.212Z</time></trkpt><trkpt lat="43.6642968" lon="12.5283717"><ele>277.0</ele><time>2026-04-04T12:04:05.212Z</time></trkpt><trkpt lat="43.6642318" lon="12.5284982"><ele>278.0</ele><time>2026-04-04T12:04:06.213Z</time></trkpt><trkpt lat="43.6641657" lon="12.5286243"><ele>279.0</ele><time>2026-04-04T12:04:07.212Z</time></trkpt><trkpt lat="43.6640984" lon="12.5287541"><ele>280.0</ele><time>2026-04-04T12:04:08.212Z</time></trkpt><trkpt lat="43.6640382" lon="12.5288861"><ele>281.0</ele><time>2026-04-04T12:04:09.212Z</time></trkpt><trkpt lat="43.6639888" lon="12.5290259"><ele>281.0</ele><time>2026-04-04T12:04:10.212Z</time></trkpt><trkpt lat="43.6639369" lon="12.5291723"><ele>281.0</ele><time>2026-04-04T12:04:11.212Z</time></trkpt><trkpt lat="43.6638833" lon="12.5293309"><ele>281.0</ele><time>2026-04-04T12:04:12.213Z</time></trkpt><trkpt lat="43.6638199" lon="12.5294805"><ele>281.0</ele><time>2026-04-04T12:04:13.213Z</time></trkpt><trkpt lat="43.6637491" lon="12.5296391"><ele>283.0</ele><time>2026-04-04T12:04:14.212Z</time></trkpt><trkpt lat="43.6636839" lon="12.5297998"><ele>285.0</ele><time>2026-04-04T12:04:15.213Z</time></trkpt><trkpt lat="43.6636147" lon="12.5299602"><ele>287.0</ele><time>2026-04-04T12:04:16.212Z</time></trkpt><trkpt lat="43.6635519" lon="12.530121"><ele>289.0</ele><time>2026-04-04T12:04:17.212Z</time></trkpt><trkpt lat="43.6634812" lon="12.5302705"><ele>286.0</ele><time>2026-04-04T12:04:18.212Z</time></trkpt><trkpt lat="43.6634227" lon="12.5304217"><ele>283.0</ele><time>2026-04-04T12:04:19.212Z</time></trkpt><trkpt lat="43.6633538" lon="12.5305877"><ele>280.0</ele><time>2026-04-04T12:04:20.212Z</time></trkpt><trkpt lat="43.6632742" lon="12.5307535"><ele>277.0</ele><time>2026-04-04T12:04:21.213Z</time></trkpt><trkpt lat="43.6632043" lon="12.5309193"><ele>277.0</ele><time>2026-04-04T12:04:22.212Z</time></trkpt><trkpt lat="43.6631316" lon="12.5310953"><ele>277.0</ele><time>2026-04-04T12:04:23.212Z</time></trkpt><trkpt lat="43.6630578" lon="12.5312772"><ele>277.0</ele><time>2026-04-04T12:04:24.213Z</time></trkpt><trkpt lat="43.6629775" lon="12.5314553"><ele>277.0</ele><time>2026-04-04T12:04:25.212Z</time></trkpt><trkpt lat="43.6628882" lon="12.5316346"><ele>276.3333333333333</ele><time>2026-04-04T12:04:26.213Z</time></trkpt><trkpt lat="43.6627876" lon="12.531823"><ele>275.6666666666667</ele><time>2026-04-04T12:04:27.212Z</time></trkpt><trkpt lat="43.6626852" lon="12.5320028"><ele>275.0</ele><time>2026-04-04T12:04:28.213Z</time></trkpt><trkpt lat="43.6625841" lon="12.5321809"><ele>275.0</ele><time>2026-04-04T12:04:29.212Z</time></trkpt><trkpt lat="43.6624837" lon="12.5323555"><ele>275.0</ele><time>2026-04-04T12:04:30.212Z</time></trkpt><trkpt lat="43.6623794" lon="12.5325394"><ele>275.0</ele><time>2026-04-04T12:04:31.212Z</time></trkpt><trkpt lat="43.6622769" lon="12.5327302"><ele>278.33333333333337</ele><time>2026-04-04T12:04:32.212Z</time></trkpt><trkpt lat="43.6621669" lon="12.5329021"><ele>281.6666666666667</ele><time>2026-04-04T12:04:33.212Z</time></trkpt><trkpt lat="43.6620597" lon="12.5330834"><ele>285.0</ele><time>2026-04-04T12:04:34.212Z</time></trkpt><trkpt lat="43.6619597" lon="12.5332623"><ele>284.6666666666667</ele><time>2026-04-04T12:04:35.212Z</time></trkpt><trkpt lat="43.6618554" lon="12.5334426"><ele>284.33333333333337</ele><time>2026-04-04T12:04:36.212Z</time></trkpt><trkpt lat="43.6617492" lon="12.5336229"><ele>284.0</ele><time>2026-04-04T12:04:37.212Z</time></trkpt><trkpt lat="43.6616484" lon="12.5338076"><ele>284.0</ele><time>2026-04-04T12:04:38.212Z</time></trkpt><trkpt lat="43.6615402" lon="12.5339832"><ele>284.0</ele><time>2026-04-04T12:04:39.212Z</time></trkpt><trkpt lat="43.6614332" lon="12.5341669"><ele>284.0</ele><time>2026-04-04T12:04:40.212Z</time></trkpt><trkpt lat="43.6613298" lon="12.5343491"><ele>284.0</ele><time>2026-04-04T12:04:41.213Z</time></trkpt><trkpt lat="43.6612328" lon="12.5345303"><ele>284.0</ele><time>2026-04-04T12:04:42.213Z</time></trkpt><trkpt lat="43.6611278" lon="12.5347097"><ele>284.0</ele><time>2026-04-04T12:04:43.213Z</time></trkpt><trkpt lat="43.6610319" lon="12.5348886"><ele>281.6666666666667</ele><time>2026-04-04T12:04:44.213Z</time></trkpt><trkpt lat="43.6609348" lon="12.535073"><ele>279.3333333333333</ele><time>2026-04-04T12:04:45.212Z</time></trkpt><trkpt lat="43.6608414" lon="12.5352372"><ele>277.0</ele><time>2026-04-04T12:04:46.212Z</time></trkpt><trkpt lat="43.6607506" lon="12.5354022"><ele>277.0</ele><time>2026-04-04T12:04:47.212Z</time></trkpt><trkpt lat="43.6606595" lon="12.5355704"><ele>277.0</ele><time>2026-04-04T12:04:48.212Z</time></trkpt><trkpt lat="43.6605675" lon="12.5357314"><ele>277.0</ele><time>2026-04-04T12:04:49.213Z</time></trkpt><trkpt lat="43.6604757" lon="12.5359008"><ele>277.0</ele><time>2026-04-04T12:04:50.213Z</time></trkpt><trkpt lat="43.6603867" lon="12.5360561"><ele>277.0</ele><time>2026-04-04T12:04:51.213Z</time></trkpt><trkpt lat="43.6602913" lon="12.5362207"><ele>277.0</ele><time>2026-04-04T12:04:52.212Z</time></trkpt><trkpt lat="43.6601939" lon="12.5363844"><ele>277.0</ele><time>2026-04-04T12:04:53.212Z</time></trkpt><trkpt lat="43.6600929" lon="12.5365524"><ele>276.66666666666663</ele><time>2026-04-04T12:04:54.212Z</time></trkpt><trkpt lat="43.6599906" lon="12.5367217"><ele>276.3333333333333</ele><time>2026-04-04T12:04:55.212Z</time></trkpt><trkpt lat="43.6598893" lon="12.5369006"><ele>276.0</ele><time>2026-04-04T12:04:56.212Z</time></trkpt><trkpt lat="43.6597878" lon="12.5370719"><ele>276.0</ele><time>2026-04-04T12:04:57.213Z</time></trkpt><trkpt lat="43.6596902" lon="12.5372526"><ele>276.0</ele><time>2026-04-04T12:04:58.213Z</time></trkpt><trkpt lat="43.6595951" lon="12.5374177"><ele>276.0</ele><time>2026-04-04T12:04:59.212Z</time></trkpt><trkpt lat="43.6595042" lon="12.5375753"><ele>275.5</ele><time>2026-04-04T12:05:00.213Z</time></trkpt><trkpt lat="43.6594157" lon="12.5377315"><ele>275.0</ele><time>2026-04-04T12:05:01.212Z</time></trkpt><trkpt lat="43.6593234" lon="12.5378879"><ele>274.5</ele><time>2026-04-04T12:05:02.212Z</time></trkpt><trkpt lat="43.6592375" lon="12.5380482"><ele>274.0</ele><time>2026-04-04T12:05:03.212Z</time></trkpt><trkpt lat="43.6591508" lon="12.5382096"><ele>275.3333333333333</ele><time>2026-04-04T12:05:04.212Z</time></trkpt><trkpt lat="43.6590594" lon="12.538371"><ele>276.6666666666667</ele><time>2026-04-04T12:05:05.213Z</time></trkpt><trkpt lat="43.6589756" lon="12.5385472"><ele>278.0</ele><time>2026-04-04T12:05:06.212Z</time></trkpt><trkpt lat="43.6588744" lon="12.5387046"><ele>279.0</ele><time>2026-04-04T12:05:07.212Z</time></trkpt><trkpt lat="43.6587706" lon="12.5388754"><ele>280.0</ele><time>2026-04-04T12:05:08.212Z</time></trkpt><trkpt lat="43.6586772" lon="12.539041"><ele>281.0</ele><time>2026-04-04T12:05:09.212Z</time></trkpt><trkpt lat="43.6585664" lon="12.5392329"><ele>278.6666666666667</ele><time>2026-04-04T12:05:10.212Z</time></trkpt><trkpt lat="43.6584445" lon="12.5394275"><ele>276.3333333333333</ele><time>2026-04-04T12:05:11.212Z</time></trkpt><trkpt lat="43.6583271" lon="12.5396398"><ele>274.0</ele><time>2026-04-04T12:05:12.213Z</time></trkpt><trkpt lat="43.6582101" lon="12.5398477"><ele>274.0</ele><time>2026-04-04T12:05:13.212Z</time></trkpt><trkpt lat="43.6580976" lon="12.5400568"><ele>274.0</ele><time>2026-04-04T12:05:14.213Z</time></trkpt><trkpt lat="43.6579749" lon="12.5402634"><ele>274.0</ele><time>2026-04-04T12:05:15.212Z</time></trkpt><trkpt lat="43.6578619" lon="12.5404681"><ele>271.3333333333333</ele><time>2026-04-04T12:05:16.212Z</time></trkpt><trkpt lat="43.6577388" lon="12.540675"><ele>268.6666666666667</ele><time>2026-04-04T12:05:17.212Z</time></trkpt><trkpt lat="43.6576224" lon="12.5408771"><ele>266.0</ele><time>2026-04-04T12:05:18.213Z</time></trkpt><trkpt lat="43.6575007" lon="12.5410775"><ele>268.33333333333337</ele><time>2026-04-04T12:05:19.213Z</time></trkpt><trkpt lat="43.6573857" lon="12.5412792"><ele>270.6666666666667</ele><time>2026-04-04T12:05:20.212Z</time></trkpt><trkpt lat="43.6572663" lon="12.5414915"><ele>273.0</ele><time>2026-04-04T12:05:21.212Z</time></trkpt><trkpt lat="43.6571447" lon="12.5417019"><ele>273.0</ele><time>2026-04-04T12:05:22.212Z</time></trkpt><trkpt lat="43.6570249" lon="12.5419083"><ele>273.0</ele><time>2026-04-04T12:05:23.212Z</time></trkpt><trkpt lat="43.6569041" lon="12.5421136"><ele>273.0</ele><time>2026-04-04T12:05:24.212Z</time></trkpt><trkpt lat="43.6567846" lon="12.5423181"><ele>272.3333333333333</ele><time>2026-04-04T12:05:25.212Z</time></trkpt><trkpt lat="43.6566701" lon="12.5425244"><ele>271.66666666666663</ele><time>2026-04-04T12:05:26.212Z</time></trkpt><trkpt lat="43.6565476" lon="12.5427311"><ele>271.0</ele><time>2026-04-04T12:05:27.212Z</time></trkpt><trkpt lat="43.656435" lon="12.5429507"><ele>273.0</ele><time>2026-04-04T12:05:28.212Z</time></trkpt><trkpt lat="43.6563269" lon="12.5431565"><ele>275.0</ele><time>2026-04-04T12:05:29.212Z</time></trkpt><trkpt lat="43.6562117" lon="12.5433628"><ele>277.0</ele><time>2026-04-04T12:05:30.212Z</time></trkpt><trkpt lat="43.656093" lon="12.5435654"><ele>271.66666666666663</ele><time>2026-04-04T12:05:31.212Z</time></trkpt><trkpt lat="43.6559799" lon="12.5437605"><ele>266.3333333333333</ele><time>2026-04-04T12:05:32.213Z</time></trkpt><trkpt lat="43.6558676" lon="12.5439573"><ele>261.0</ele><time>2026-04-04T12:05:33.212Z</time></trkpt><trkpt lat="43.6557597" lon="12.5441558"><ele>261.0</ele><time>2026-04-04T12:05:34.212Z</time></trkpt><trkpt lat="43.6556529" lon="12.5443555"><ele>261.0</ele><time>2026-04-04T12:05:35.213Z</time></trkpt><trkpt lat="43.655567" lon="12.5445616"><ele>261.0</ele><time>2026-04-04T12:05:36.212Z</time></trkpt><trkpt lat="43.6554904" lon="12.5447857"><ele>262.3333333333333</ele><time>2026-04-04T12:05:37.212Z</time></trkpt><trkpt lat="43.6554234" lon="12.5450178"><ele>263.66666666666663</ele><time>2026-04-04T12:05:38.213Z</time></trkpt><trkpt lat="43.6553656" lon="12.5452544"><ele>265.0</ele><time>2026-04-04T12:05:39.212Z</time></trkpt><trkpt lat="43.6553157" lon="12.5455028"><ele>262.3333333333333</ele><time>2026-04-04T12:05:40.212Z</time></trkpt><trkpt lat="43.6552611" lon="12.5457489"><ele>259.6666666666667</ele><time>2026-04-04T12:05:41.212Z</time></trkpt><trkpt lat="43.6552033" lon="12.5459965"><ele>257.0</ele><time>2026-04-04T12:05:42.212Z</time></trkpt><trkpt lat="43.6551521" lon="12.5462417"><ele>257.0</ele><time>2026-04-04T12:05:43.213Z</time></trkpt><trkpt lat="43.6550984" lon="12.5464923"><ele>257.0</ele><time>2026-04-04T12:05:44.213Z</time></trkpt><trkpt lat="43.6550466" lon="12.5467373"><ele>257.0</ele><time>2026-04-04T12:05:45.213Z</time></trkpt><trkpt lat="43.6550004" lon="12.5469834"><ele>256.6666666666667</ele><time>2026-04-04T12:05:46.212Z</time></trkpt><trkpt lat="43.6549514" lon="12.5472285"><ele>256.3333333333333</ele><time>2026-04-04T12:05:47.212Z</time></trkpt><trkpt lat="43.6549002" lon="12.5474604"><ele>256.0</ele><time>2026-04-04T12:05:48.213Z</time></trkpt><trkpt lat="43.6548447" lon="12.5476913"><ele>257.3333333333333</ele><time>2026-04-04T12:05:49.212Z</time></trkpt><trkpt lat="43.6547717" lon="12.5479167"><ele>258.6666666666667</ele><time>2026-04-04T12:05:50.212Z</time></trkpt><trkpt lat="43.6546829" lon="12.5481307"><ele>260.0</ele><time>2026-04-04T12:05:51.213Z</time></trkpt><trkpt lat="43.6545855" lon="12.5483369"><ele>260.0</ele><time>2026-04-04T12:05:52.213Z</time></trkpt><trkpt lat="43.65448" lon="12.5485278"><ele>260.0</ele><time>2026-04-04T12:05:53.213Z</time></trkpt><trkpt lat="43.6543692" lon="12.5487231"><ele>260.0</ele><time>2026-04-04T12:05:54.213Z</time></trkpt><trkpt lat="43.654255" lon="12.5489118"><ele>258.0</ele><time>2026-04-04T12:05:55.212Z</time></trkpt><trkpt lat="43.654143" lon="12.5491041"><ele>256.0</ele><time>2026-04-04T12:05:56.212Z</time></trkpt><trkpt lat="43.6540382" lon="12.5492998"><ele>254.0</ele><time>2026-04-04T12:05:57.212Z</time></trkpt><trkpt lat="43.6539443" lon="12.5495044"><ele>254.0</ele><time>2026-04-04T12:05:58.213Z</time></trkpt><trkpt lat="43.6538685" lon="12.5497172"><ele>254.0</ele><time>2026-04-04T12:05:59.212Z</time></trkpt><trkpt lat="43.6538037" lon="12.5499317"><ele>254.0</ele><time>2026-04-04T12:06:00.212Z</time></trkpt><trkpt lat="43.653748" lon="12.5501503"><ele>254.0</ele><time>2026-04-04T12:06:01.212Z</time></trkpt><trkpt lat="43.6536915" lon="12.5503692"><ele>254.0</ele><time>2026-04-04T12:06:02.213Z</time></trkpt><trkpt lat="43.6536431" lon="12.5505926"><ele>254.0</ele><time>2026-04-04T12:06:03.212Z</time></trkpt><trkpt lat="43.6535917" lon="12.5508062"><ele>253.25</ele><time>2026-04-04T12:06:04.212Z</time></trkpt><trkpt lat="43.6535401" lon="12.5510129"><ele>252.5</ele><time>2026-04-04T12:06:05.212Z</time></trkpt><trkpt lat="43.653496" lon="12.5512041"><ele>251.75</ele><time>2026-04-04T12:06:06.213Z</time></trkpt><trkpt lat="43.6534452" lon="12.5513872"><ele>251.0</ele><time>2026-04-04T12:06:07.212Z</time></trkpt><trkpt lat="43.6534057" lon="12.5515485"><ele>251.00000000000003</ele><time>2026-04-04T12:06:08.212Z</time></trkpt><trkpt lat="43.6533681" lon="12.5516768"><ele>251.0</ele><time>2026-04-04T12:06:09.212Z</time></trkpt><trkpt lat="43.6533215" lon="12.5517829"><ele>251.0</ele><time>2026-04-04T12:06:10.212Z</time></trkpt><trkpt lat="43.6532576" lon="12.5518609"><ele>251.0</ele><time>2026-04-04T12:06:11.213Z</time></trkpt><trkpt lat="43.6531812" lon="12.5518896"><ele>251.00000000000003</ele><time>2026-04-04T12:06:12.213Z</time></trkpt><trkpt lat="43.6530995" lon="12.5518412"><ele>251.0</ele><time>2026-04-04T12:06:13.213Z</time></trkpt><trkpt lat="43.6530429" lon="12.55176"><ele>251.0</ele><time>2026-04-04T12:06:14.212Z</time></trkpt><trkpt lat="43.6530121" lon="12.5516559"><ele>251.00000000000003</ele><time>2026-04-04T12:06:15.212Z</time></trkpt><trkpt lat="43.653018" lon="12.5515209"><ele>251.00000000000003</ele><time>2026-04-04T12:06:16.213Z</time></trkpt><trkpt lat="43.6530442" lon="12.5513911"><ele>251.0</ele><time>2026-04-04T12:06:17.212Z</time></trkpt><trkpt lat="43.6530833" lon="12.5512504"><ele>251.0</ele><time>2026-04-04T12:06:18.213Z</time></trkpt><trkpt lat="43.6531352" lon="12.5511043"><ele>250.5</ele><time>2026-04-04T12:06:19.213Z</time></trkpt><trkpt lat="43.653175" lon="12.5509545"><ele>250.0</ele><time>2026-04-04T12:06:20.212Z</time></trkpt><trkpt lat="43.65321" lon="12.5508096"><ele>249.5</ele><time>2026-04-04T12:06:21.212Z</time></trkpt><trkpt lat="43.6532504" lon="12.5506469"><ele>249.0</ele><time>2026-04-04T12:06:22.212Z</time></trkpt><trkpt lat="43.6532643" lon="12.5504887"><ele>248.75</ele><time>2026-04-04T12:06:23.212Z</time></trkpt><trkpt lat="43.6532313" lon="12.5503336"><ele>248.5</ele><time>2026-04-04T12:06:24.212Z</time></trkpt><trkpt lat="43.653163" lon="12.5502218"><ele>248.25</ele><time>2026-04-04T12:06:25.213Z</time></trkpt><trkpt lat="43.65307" lon="12.550146"><ele>248.0</ele><time>2026-04-04T12:06:26.213Z</time></trkpt><trkpt lat="43.6529523" lon="12.5501057"><ele>248.0</ele><time>2026-04-04T12:06:27.212Z</time></trkpt><trkpt lat="43.6528171" lon="12.5500891"><ele>248.0</ele><time>2026-04-04T12:06:28.212Z</time></trkpt><trkpt lat="43.6526781" lon="12.5500911"><ele>248.0</ele><time>2026-04-04T12:06:29.212Z</time></trkpt><trkpt lat="43.6525312" lon="12.5500892"><ele>248.0</ele><time>2026-04-04T12:06:30.213Z</time></trkpt><trkpt lat="43.652381" lon="12.5500972"><ele>247.66666666666669</ele><time>2026-04-04T12:06:31.212Z</time></trkpt><trkpt lat="43.6522259" lon="12.5501042"><ele>247.33333333333331</ele><time>2026-04-04T12:06:32.212Z</time></trkpt><trkpt lat="43.6520631" lon="12.5501152"><ele>247.0</ele><time>2026-04-04T12:06:33.212Z</time></trkpt><trkpt lat="43.6518975" lon="12.5501471"><ele>247.0</ele><time>2026-04-04T12:06:34.212Z</time></trkpt><trkpt lat="43.6517283" lon="12.5502165"><ele>247.0</ele><time>2026-04-04T12:06:35.212Z</time></trkpt><trkpt lat="43.6515671" lon="12.550324"><ele>247.0</ele><time>2026-04-04T12:06:36.212Z</time></trkpt><trkpt lat="43.6514197" lon="12.5504303"><ele>248.33333333333331</ele><time>2026-04-04T12:06:37.213Z</time></trkpt><trkpt lat="43.6512741" lon="12.5505424"><ele>249.66666666666669</ele><time>2026-04-04T12:06:38.212Z</time></trkpt><trkpt lat="43.6511337" lon="12.550653"><ele>251.0</ele><time>2026-04-04T12:06:39.212Z</time></trkpt><trkpt lat="43.6509982" lon="12.5507675"><ele>253.0</ele><time>2026-04-04T12:06:40.212Z</time></trkpt><trkpt lat="43.6508646" lon="12.5508894"><ele>255.0</ele><time>2026-04-04T12:06:41.212Z</time></trkpt><trkpt lat="43.6507369" lon="12.5510127"><ele>257.0</ele><time>2026-04-04T12:06:42.213Z</time></trkpt><trkpt lat="43.6506142" lon="12.5511545"><ele>257.5</ele><time>2026-04-04T12:06:43.212Z</time></trkpt><trkpt lat="43.6505056" lon="12.5513071"><ele>258.0</ele><time>2026-04-04T12:06:44.212Z</time></trkpt><trkpt lat="43.6504073" lon="12.5514604"><ele>258.5</ele><time>2026-04-04T12:06:45.212Z</time></trkpt><trkpt lat="43.6503152" lon="12.5516165"><ele>259.0</ele><time>2026-04-04T12:06:46.212Z</time></trkpt><trkpt lat="43.6502216" lon="12.5517745"><ele>259.3333333333333</ele><time>2026-04-04T12:06:47.212Z</time></trkpt><trkpt lat="43.6501281" lon="12.5519363"><ele>259.6666666666667</ele><time>2026-04-04T12:06:48.212Z</time></trkpt><trkpt lat="43.6500269" lon="12.5521095"><ele>260.0</ele><time>2026-04-04T12:06:49.212Z</time></trkpt><trkpt lat="43.6499248" lon="12.5522904"><ele>260.0</ele><time>2026-04-04T12:06:50.212Z</time></trkpt><trkpt lat="43.649823" lon="12.5524699"><ele>260.0</ele><time>2026-04-04T12:06:51.212Z</time></trkpt><trkpt lat="43.6497228" lon="12.5526474"><ele>260.0</ele><time>2026-04-04T12:06:52.212Z</time></trkpt><trkpt lat="43.6496186" lon="12.5528231"><ele>260.6666666666667</ele><time>2026-04-04T12:06:53.212Z</time></trkpt><trkpt lat="43.6495127" lon="12.5530127"><ele>261.3333333333333</ele><time>2026-04-04T12:06:54.213Z</time></trkpt><trkpt lat="43.6493927" lon="12.5532157"><ele>262.0</ele><time>2026-04-04T12:06:55.212Z</time></trkpt><trkpt lat="43.6492567" lon="12.5534345"><ele>262.0</ele><time>2026-04-04T12:06:56.212Z</time></trkpt><trkpt lat="43.6491144" lon="12.5536591"><ele>262.0</ele><time>2026-04-04T12:06:57.212Z</time></trkpt><trkpt lat="43.6489421" lon="12.5539362"><ele>262.0</ele><time>2026-04-04T12:06:58.212Z</time></trkpt><trkpt lat="43.6487621" lon="12.5542053"><ele>262.0</ele><time>2026-04-04T12:06:59.213Z</time></trkpt><trkpt lat="43.6485596" lon="12.5544883"><ele>262.0</ele><time>2026-04-04T12:07:00.212Z</time></trkpt><trkpt lat="43.6483532" lon="12.5547665"><ele>262.0</ele><time>2026-04-04T12:07:01.212Z</time></trkpt><trkpt lat="43.6481597" lon="12.5550261"><ele>262.0</ele><time>2026-04-04T12:07:02.212Z</time></trkpt><trkpt lat="43.6479794" lon="12.5552812"><ele>262.0</ele><time>2026-04-04T12:07:03.212Z</time></trkpt><trkpt lat="43.6478012" lon="12.5555341"><ele>261.5</ele><time>2026-04-04T12:07:04.212Z</time></trkpt><trkpt lat="43.6476205" lon="12.5557735"><ele>261.0</ele><time>2026-04-04T12:07:05.213Z</time></trkpt><trkpt lat="43.6474417" lon="12.5560101"><ele>260.5</ele><time>2026-04-04T12:07:06.213Z</time></trkpt><trkpt lat="43.6472684" lon="12.5562427"><ele>260.0</ele><time>2026-04-04T12:07:07.213Z</time></trkpt><trkpt lat="43.6470988" lon="12.5564718"><ele>259.5</ele><time>2026-04-04T12:07:08.212Z</time></trkpt><trkpt lat="43.6469335" lon="12.5567048"><ele>259.0</ele><time>2026-04-04T12:07:09.212Z</time></trkpt><trkpt lat="43.6467664" lon="12.5569272"><ele>259.5</ele><time>2026-04-04T12:07:10.212Z</time></trkpt><trkpt lat="43.6466036" lon="12.5571556"><ele>260.0</ele><time>2026-04-04T12:07:11.213Z</time></trkpt><trkpt lat="43.6464365" lon="12.5573686"><ele>260.0</ele><time>2026-04-04T12:07:12.212Z</time></trkpt><trkpt lat="43.6462719" lon="12.5575814"><ele>260.0</ele><time>2026-04-04T12:07:13.212Z</time></trkpt><trkpt lat="43.6461177" lon="12.5577881"><ele>260.0</ele><time>2026-04-04T12:07:14.212Z</time></trkpt><trkpt lat="43.645973" lon="12.5579852"><ele>260.33333333333337</ele><time>2026-04-04T12:07:15.212Z</time></trkpt><trkpt lat="43.6458315" lon="12.5581686"><ele>260.6666666666667</ele><time>2026-04-04T12:07:16.212Z</time></trkpt><trkpt lat="43.6456922" lon="12.5583438"><ele>261.0</ele><time>2026-04-04T12:07:17.213Z</time></trkpt><trkpt lat="43.645568" lon="12.5585256"><ele>261.0</ele><time>2026-04-04T12:07:18.212Z</time></trkpt><trkpt lat="43.6454438" lon="12.558701"><ele>261.0</ele><time>2026-04-04T12:07:19.212Z</time></trkpt><trkpt lat="43.6453286" lon="12.5588503"><ele>261.0</ele><time>2026-04-04T12:07:20.212Z</time></trkpt><trkpt lat="43.6452253" lon="12.5589928"><ele>261.3333333333333</ele><time>2026-04-04T12:07:21.212Z</time></trkpt><trkpt lat="43.6451236" lon="12.5591308"><ele>261.66666666666663</ele><time>2026-04-04T12:07:22.213Z</time></trkpt><trkpt lat="43.6450243" lon="12.5592961"><ele>262.0</ele><time>2026-04-04T12:07:23.212Z</time></trkpt><trkpt lat="43.6449246" lon="12.5594798"><ele>262.3333333333333</ele><time>2026-04-04T12:07:24.212Z</time></trkpt><trkpt lat="43.6448407" lon="12.5596916"><ele>262.6666666666667</ele><time>2026-04-04T12:07:25.212Z</time></trkpt><trkpt lat="43.6447623" lon="12.5599302"><ele>263.0</ele><time>2026-04-04T12:07:26.212Z</time></trkpt><trkpt lat="43.6446887" lon="12.5601869"><ele>261.33333333333337</ele><time>2026-04-04T12:07:27.213Z</time></trkpt><trkpt lat="43.6446217" lon="12.5604663"><ele>259.6666666666667</ele><time>2026-04-04T12:07:28.212Z</time></trkpt><trkpt lat="43.6445509" lon="12.5607257"><ele>258.0</ele><time>2026-04-04T12:07:29.212Z</time></trkpt><trkpt lat="43.6444829" lon="12.5609916"><ele>260.0</ele><time>2026-04-04T12:07:30.212Z</time></trkpt><trkpt lat="43.6444084" lon="12.5612521"><ele>262.0</ele><time>2026-04-04T12:07:31.212Z</time></trkpt><trkpt lat="43.6443384" lon="12.5615082"><ele>264.0</ele><time>2026-04-04T12:07:32.212Z</time></trkpt><trkpt lat="43.6442663" lon="12.5617579"><ele>264.0</ele><time>2026-04-04T12:07:33.212Z</time></trkpt><trkpt lat="43.6442045" lon="12.5620069"><ele>264.0</ele><time>2026-04-04T12:07:34.212Z</time></trkpt><trkpt lat="43.6441349" lon="12.5622566"><ele>264.0</ele><time>2026-04-04T12:07:35.213Z</time></trkpt><trkpt lat="43.6440664" lon="12.5625053"><ele>264.0</ele><time>2026-04-04T12:07:36.212Z</time></trkpt><trkpt lat="43.6439898" lon="12.5627787"><ele>264.0</ele><time>2026-04-04T12:07:37.212Z</time></trkpt><trkpt lat="43.6439124" lon="12.5630602"><ele>264.0</ele><time>2026-04-04T12:07:38.212Z</time></trkpt><trkpt lat="43.643833" lon="12.5633512"><ele>261.5</ele><time>2026-04-04T12:07:39.212Z</time></trkpt><trkpt lat="43.6437497" lon="12.5636421"><ele>259.0</ele><time>2026-04-04T12:07:40.212Z</time></trkpt><trkpt lat="43.6436684" lon="12.5639377"><ele>259.0</ele><time>2026-04-04T12:07:41.213Z</time></trkpt><trkpt lat="43.6435876" lon="12.5642226"><ele>259.0</ele><time>2026-04-04T12:07:42.212Z</time></trkpt><trkpt lat="43.6435072" lon="12.5645147"><ele>259.0</ele><time>2026-04-04T12:07:43.212Z</time></trkpt><trkpt lat="43.6434304" lon="12.5648054"><ele>258.3333333333333</ele><time>2026-04-04T12:07:44.212Z</time></trkpt><trkpt lat="43.6433535" lon="12.5650821"><ele>257.6666666666667</ele><time>2026-04-04T12:07:45.212Z</time></trkpt><trkpt lat="43.6432839" lon="12.5653531"><ele>257.0</ele><time>2026-04-04T12:07:46.212Z</time></trkpt><trkpt lat="43.6432147" lon="12.5656102"><ele>255.66666666666669</ele><time>2026-04-04T12:07:47.212Z</time></trkpt><trkpt lat="43.643137" lon="12.565856"><ele>254.33333333333331</ele><time>2026-04-04T12:07:48.213Z</time></trkpt><trkpt lat="43.6430641" lon="12.5661107"><ele>253.0</ele><time>2026-04-04T12:07:49.213Z</time></trkpt><trkpt lat="43.6429748" lon="12.5663664"><ele>252.33333333333331</ele><time>2026-04-04T12:07:50.213Z</time></trkpt><trkpt lat="43.6428657" lon="12.5666184"><ele>251.66666666666669</ele><time>2026-04-04T12:07:51.212Z</time></trkpt><trkpt lat="43.6427394" lon="12.5668616"><ele>251.0</ele><time>2026-04-04T12:07:52.212Z</time></trkpt><trkpt lat="43.6426058" lon="12.5670989"><ele>251.0</ele><time>2026-04-04T12:07:53.212Z</time></trkpt><trkpt lat="43.6424672" lon="12.5673402"><ele>251.0</ele><time>2026-04-04T12:07:54.213Z</time></trkpt><trkpt lat="43.6423467" lon="12.5675856"><ele>251.0</ele><time>2026-04-04T12:07:55.212Z</time></trkpt><trkpt lat="43.6422162" lon="12.5678034"><ele>251.66666666666669</ele><time>2026-04-04T12:07:56.212Z</time></trkpt><trkpt lat="43.6420758" lon="12.5680309"><ele>252.33333333333331</ele><time>2026-04-04T12:07:57.213Z</time></trkpt><trkpt lat="43.6419378" lon="12.5682617"><ele>253.0</ele><time>2026-04-04T12:07:58.213Z</time></trkpt><trkpt lat="43.6418155" lon="12.5684846"><ele>252.66666666666666</ele><time>2026-04-04T12:07:59.213Z</time></trkpt><trkpt lat="43.6416854" lon="12.5687118"><ele>252.33333333333331</ele><time>2026-04-04T12:08:00.212Z</time></trkpt><trkpt lat="43.6415653" lon="12.5689526"><ele>252.0</ele><time>2026-04-04T12:08:01.213Z</time></trkpt><trkpt lat="43.6414516" lon="12.5692064"><ele>252.0</ele><time>2026-04-04T12:08:02.212Z</time></trkpt><trkpt lat="43.6413448" lon="12.5694703"><ele>252.0</ele><time>2026-04-04T12:08:03.212Z</time></trkpt><trkpt lat="43.6412421" lon="12.5697362"><ele>252.0</ele><time>2026-04-04T12:08:04.212Z</time></trkpt><trkpt lat="43.6411409" lon="12.5699973"><ele>252.33333333333331</ele><time>2026-04-04T12:08:05.212Z</time></trkpt><trkpt lat="43.6410435" lon="12.5702553"><ele>252.66666666666666</ele><time>2026-04-04T12:08:06.213Z</time></trkpt><trkpt lat="43.64094" lon="12.5705261"><ele>253.0</ele><time>2026-04-04T12:08:07.212Z</time></trkpt><trkpt lat="43.6408383" lon="12.5708024"><ele>253.0</ele><time>2026-04-04T12:08:08.212Z</time></trkpt><trkpt lat="43.6407367" lon="12.571084"><ele>253.0</ele><time>2026-04-04T12:08:09.212Z</time></trkpt><trkpt lat="43.6406359" lon="12.5713632"><ele>251.5</ele><time>2026-04-04T12:08:10.212Z</time></trkpt><trkpt lat="43.6405349" lon="12.5716463"><ele>250.0</ele><time>2026-04-04T12:08:11.212Z</time></trkpt><trkpt lat="43.6404426" lon="12.5719279"><ele>251.0</ele><time>2026-04-04T12:08:12.212Z</time></trkpt><trkpt lat="43.6403518" lon="12.5722228"><ele>252.0</ele><time>2026-04-04T12:08:13.212Z</time></trkpt><trkpt lat="43.6402661" lon="12.5725269"><ele>252.0</ele><time>2026-04-04T12:08:14.212Z</time></trkpt><trkpt lat="43.6401819" lon="12.5728383"><ele>252.0</ele><time>2026-04-04T12:08:15.212Z</time></trkpt><trkpt lat="43.6401" lon="12.5731509"><ele>251.5</ele><time>2026-04-04T12:08:16.212Z</time></trkpt><trkpt lat="43.6400163" lon="12.5734661"><ele>251.0</ele><time>2026-04-04T12:08:17.212Z</time></trkpt><trkpt lat="43.6399338" lon="12.5737775"><ele>250.0</ele><time>2026-04-04T12:08:18.212Z</time></trkpt><trkpt lat="43.6398427" lon="12.5740673"><ele>249.0</ele><time>2026-04-04T12:08:19.212Z</time></trkpt><trkpt lat="43.6397705" lon="12.5743685"><ele>249.0</ele><time>2026-04-04T12:08:20.212Z</time></trkpt><trkpt lat="43.6396959" lon="12.5746635"><ele>249.0</ele><time>2026-04-04T12:08:21.212Z</time></trkpt><trkpt lat="43.6396203" lon="12.5749533"><ele>249.0</ele><time>2026-04-04T12:08:22.212Z</time></trkpt><trkpt lat="43.6395485" lon="12.57524"><ele>249.0</ele><time>2026-04-04T12:08:23.212Z</time></trkpt><trkpt lat="43.639474" lon="12.5755256"><ele>249.0</ele><time>2026-04-04T12:08:24.212Z</time></trkpt><trkpt lat="43.6393966" lon="12.5758124"><ele>249.0</ele><time>2026-04-04T12:08:25.212Z</time></trkpt><trkpt lat="43.6393247" lon="12.5760911"><ele>249.0</ele><time>2026-04-04T12:08:26.213Z</time></trkpt><trkpt lat="43.6392545" lon="12.5763602"><ele>249.0</ele><time>2026-04-04T12:08:27.212Z</time></trkpt><trkpt lat="43.6391842" lon="12.5766241"><ele>249.0</ele><time>2026-04-04T12:08:28.213Z</time></trkpt><trkpt lat="43.6391157" lon="12.5768843"><ele>248.33333333333331</ele><time>2026-04-04T12:08:29.212Z</time></trkpt><trkpt lat="43.6390516" lon="12.57714"><ele>247.66666666666666</ele><time>2026-04-04T12:08:30.213Z</time></trkpt><trkpt lat="43.6389968" lon="12.5774048"><ele>247.0</ele><time>2026-04-04T12:08:31.212Z</time></trkpt><trkpt lat="43.6389623" lon="12.577683"><ele>248.0</ele><time>2026-04-04T12:08:32.213Z</time></trkpt><trkpt lat="43.6389377" lon="12.5779598"><ele>249.0</ele><time>2026-04-04T12:08:33.212Z</time></trkpt><trkpt lat="43.6389239" lon="12.5782413"><ele>250.0</ele><time>2026-04-04T12:08:34.212Z</time></trkpt><trkpt lat="43.6389168" lon="12.5785158"><ele>249.66666666666666</ele><time>2026-04-04T12:08:35.212Z</time></trkpt><trkpt lat="43.6389082" lon="12.578793"><ele>249.33333333333331</ele><time>2026-04-04T12:08:36.212Z</time></trkpt><trkpt lat="43.6388975" lon="12.5790582"><ele>249.0</ele><time>2026-04-04T12:08:37.213Z</time></trkpt><trkpt lat="43.6388851" lon="12.5793131"><ele>249.33333333333331</ele><time>2026-04-04T12:08:38.212Z</time></trkpt><trkpt lat="43.6388641" lon="12.5795542"><ele>249.66666666666666</ele><time>2026-04-04T12:08:39.212Z</time></trkpt><trkpt lat="43.6388272" lon="12.5797881"><ele>250.0</ele><time>2026-04-04T12:08:40.212Z</time></trkpt><trkpt lat="43.6387876" lon="12.5800183"><ele>250.0</ele><time>2026-04-04T12:08:41.213Z</time></trkpt><trkpt lat="43.6387125" lon="12.5802099"><ele>250.0</ele><time>2026-04-04T12:08:42.212Z</time></trkpt><trkpt lat="43.6386122" lon="12.5803829"><ele>250.0</ele><time>2026-04-04T12:08:43.213Z</time></trkpt><trkpt lat="43.638485" lon="12.580536"><ele>252.0</ele><time>2026-04-04T12:08:44.212Z</time></trkpt><trkpt lat="43.6383428" lon="12.5806758"><ele>254.0</ele><time>2026-04-04T12:08:45.212Z</time></trkpt><trkpt lat="43.6381834" lon="12.5807989"><ele>256.0</ele><time>2026-04-04T12:08:46.212Z</time></trkpt><trkpt lat="43.6380246" lon="12.5809226"><ele>256.0</ele><time>2026-04-04T12:08:47.212Z</time></trkpt><trkpt lat="43.6378674" lon="12.5810367"><ele>256.0</ele><time>2026-04-04T12:08:48.212Z</time></trkpt><trkpt lat="43.6377092" lon="12.5811533"><ele>256.0</ele><time>2026-04-04T12:08:49.212Z</time></trkpt><trkpt lat="43.6375534" lon="12.5812628"><ele>256.0</ele><time>2026-04-04T12:08:50.212Z</time></trkpt><trkpt lat="43.6373903" lon="12.5813774"><ele>256.0</ele><time>2026-04-04T12:08:51.212Z</time></trkpt><trkpt lat="43.6372372" lon="12.5814884"><ele>256.0</ele><time>2026-04-04T12:08:52.212Z</time></trkpt><trkpt lat="43.6370735" lon="12.5816058"><ele>257.3333333333333</ele><time>2026-04-04T12:08:53.212Z</time></trkpt><trkpt lat="43.6369151" lon="12.5817205"><ele>258.6666666666667</ele><time>2026-04-04T12:08:54.212Z</time></trkpt><trkpt lat="43.6367576" lon="12.5818197"><ele>260.0</ele><time>2026-04-04T12:08:55.212Z</time></trkpt><trkpt lat="43.6366107" lon="12.581923"><ele>258.0</ele><time>2026-04-04T12:08:56.212Z</time></trkpt><trkpt lat="43.6364584" lon="12.5820365"><ele>256.0</ele><time>2026-04-04T12:08:57.212Z</time></trkpt><trkpt lat="43.6363073" lon="12.5821508"><ele>254.0</ele><time>2026-04-04T12:08:58.212Z</time></trkpt><trkpt lat="43.6361559" lon="12.5822706"><ele>256.0</ele><time>2026-04-04T12:08:59.212Z</time></trkpt><trkpt lat="43.6359976" lon="12.5823828"><ele>258.0</ele><time>2026-04-04T12:09:00.212Z</time></trkpt><trkpt lat="43.6358418" lon="12.5825023"><ele>260.0</ele><time>2026-04-04T12:09:01.212Z</time></trkpt><trkpt lat="43.6356743" lon="12.5826084"><ele>260.0</ele><time>2026-04-04T12:09:02.213Z</time></trkpt><trkpt lat="43.6355017" lon="12.5827142"><ele>260.0</ele><time>2026-04-04T12:09:03.212Z</time></trkpt><trkpt lat="43.6353309" lon="12.5828075"><ele>260.0</ele><time>2026-04-04T12:09:04.212Z</time></trkpt><trkpt lat="43.635151" lon="12.5828944"><ele>257.33333333333337</ele><time>2026-04-04T12:09:05.212Z</time></trkpt><trkpt lat="43.6349687" lon="12.5829771"><ele>254.66666666666669</ele><time>2026-04-04T12:09:06.212Z</time></trkpt><trkpt lat="43.6347854" lon="12.5830645"><ele>252.0</ele><time>2026-04-04T12:09:07.212Z</time></trkpt><trkpt lat="43.6346051" lon="12.5831615"><ele>253.66666666666669</ele><time>2026-04-04T12:09:08.212Z</time></trkpt><trkpt lat="43.6344202" lon="12.5832478"><ele>255.33333333333334</ele><time>2026-04-04T12:09:09.213Z</time></trkpt><trkpt lat="43.6342317" lon="12.5833482"><ele>257.0</ele><time>2026-04-04T12:09:10.212Z</time></trkpt><trkpt lat="43.6340489" lon="12.5834559"><ele>257.0</ele><time>2026-04-04T12:09:11.212Z</time></trkpt><trkpt lat="43.6338654" lon="12.5835762"><ele>257.0</ele><time>2026-04-04T12:09:12.212Z</time></trkpt><trkpt lat="43.633689" lon="12.5837103"><ele>257.0</ele><time>2026-04-04T12:09:13.213Z</time></trkpt><trkpt lat="43.6335131" lon="12.5838564"><ele>257.0</ele><time>2026-04-04T12:09:14.212Z</time></trkpt><trkpt lat="43.6333413" lon="12.5839981"><ele>257.0</ele><time>2026-04-04T12:09:15.212Z</time></trkpt><trkpt lat="43.6331656" lon="12.5841322"><ele>257.0</ele><time>2026-04-04T12:09:16.212Z</time></trkpt><trkpt lat="43.6330029" lon="12.5842894"><ele>257.0</ele><time>2026-04-04T12:09:17.212Z</time></trkpt><trkpt lat="43.6328395" lon="12.5844272"><ele>257.0</ele><time>2026-04-04T12:09:18.212Z</time></trkpt><trkpt lat="43.632681" lon="12.584562"><ele>257.0</ele><time>2026-04-04T12:09:19.212Z</time></trkpt><trkpt lat="43.6325253" lon="12.5846917"><ele>258.33333333333337</ele><time>2026-04-04T12:09:20.212Z</time></trkpt><trkpt lat="43.63238" lon="12.5848149"><ele>259.6666666666667</ele><time>2026-04-04T12:09:21.212Z</time></trkpt><trkpt lat="43.6322438" lon="12.5849313"><ele>261.0</ele><time>2026-04-04T12:09:22.212Z</time></trkpt><trkpt lat="43.6321139" lon="12.5850582"><ele>261.0</ele><time>2026-04-04T12:09:23.213Z</time></trkpt><trkpt lat="43.6319911" lon="12.5851814"><ele>261.0</ele><time>2026-04-04T12:09:24.212Z</time></trkpt><trkpt lat="43.6318782" lon="12.5852847"><ele>261.0</ele><time>2026-04-04T12:09:25.212Z</time></trkpt><trkpt lat="43.6317794" lon="12.5854193"><ele>261.0</ele><time>2026-04-04T12:09:26.212Z</time></trkpt><trkpt lat="43.6317011" lon="12.585578"><ele>261.25</ele><time>2026-04-04T12:09:27.212Z</time></trkpt><trkpt lat="43.6316542" lon="12.5857539"><ele>261.5</ele><time>2026-04-04T12:09:28.212Z</time></trkpt><trkpt lat="43.6316248" lon="12.5859538"><ele>261.75</ele><time>2026-04-04T12:09:29.212Z</time></trkpt><trkpt lat="43.6316166" lon="12.5861532"><ele>262.0</ele><time>2026-04-04T12:09:30.212Z</time></trkpt><trkpt lat="43.6316316" lon="12.5863856"><ele>263.66666666666663</ele><time>2026-04-04T12:09:31.212Z</time></trkpt><trkpt lat="43.6316614" lon="12.5866103"><ele>265.3333333333333</ele><time>2026-04-04T12:09:32.212Z</time></trkpt><trkpt lat="43.6316976" lon="12.5868269"><ele>267.0</ele><time>2026-04-04T12:09:33.212Z</time></trkpt><trkpt lat="43.6317354" lon="12.5870435"><ele>267.0</ele><time>2026-04-04T12:09:34.213Z</time></trkpt><trkpt lat="43.63177" lon="12.5872476"><ele>267.0</ele><time>2026-04-04T12:09:35.212Z</time></trkpt><trkpt lat="43.6318011" lon="12.58745"><ele>267.0</ele><time>2026-04-04T12:09:36.213Z</time></trkpt><trkpt lat="43.6318207" lon="12.5876499"><ele>267.0</ele><time>2026-04-04T12:09:37.212Z</time></trkpt><trkpt lat="43.631807" lon="12.5878499"><ele>268.3333333333333</ele><time>2026-04-04T12:09:38.212Z</time></trkpt><trkpt lat="43.6317742" lon="12.5880607"><ele>269.66666666666663</ele><time>2026-04-04T12:09:39.212Z</time></trkpt><trkpt lat="43.6316979" lon="12.588235"><ele>271.0</ele><time>2026-04-04T12:09:40.212Z</time></trkpt><trkpt lat="43.6316065" lon="12.5884175"><ele>271.0</ele><time>2026-04-04T12:09:41.212Z</time></trkpt><trkpt lat="43.6315068" lon="12.5885835"><ele>271.0</ele><time>2026-04-04T12:09:42.213Z</time></trkpt><trkpt lat="43.6314016" lon="12.5887443"><ele>271.0</ele><time>2026-04-04T12:09:43.212Z</time></trkpt><trkpt lat="43.6313031" lon="12.5889289"><ele>270.66666666666663</ele><time>2026-04-04T12:09:44.212Z</time></trkpt><trkpt lat="43.6312049" lon="12.5890996"><ele>270.3333333333333</ele><time>2026-04-04T12:09:45.212Z</time></trkpt><trkpt lat="43.6311041" lon="12.5892629"><ele>270.0</ele><time>2026-04-04T12:09:46.212Z</time></trkpt><trkpt lat="43.6310016" lon="12.5894206"><ele>272.3333333333333</ele><time>2026-04-04T12:09:47.213Z</time></trkpt><trkpt lat="43.6309009" lon="12.5895894"><ele>274.66666666666663</ele><time>2026-04-04T12:09:48.212Z</time></trkpt><trkpt lat="43.6308023" lon="12.5897574"><ele>277.0</ele><time>2026-04-04T12:09:49.212Z</time></trkpt><trkpt lat="43.630716" lon="12.5899316"><ele>277.0</ele><time>2026-04-04T12:09:50.212Z</time></trkpt><trkpt lat="43.6306519" lon="12.5901141"><ele>277.0</ele><time>2026-04-04T12:09:51.212Z</time></trkpt><trkpt lat="43.6306189" lon="12.5903074"><ele>277.0</ele><time>2026-04-04T12:09:52.212Z</time></trkpt><trkpt lat="43.6306121" lon="12.5905158"><ele>277.0</ele><time>2026-04-04T12:09:53.212Z</time></trkpt><trkpt lat="43.6306193" lon="12.5907307"><ele>277.66666666666663</ele><time>2026-04-04T12:09:54.212Z</time></trkpt><trkpt lat="43.6306263" lon="12.5909527"><ele>278.3333333333333</ele><time>2026-04-04T12:09:55.212Z</time></trkpt><trkpt lat="43.6306242" lon="12.5911712"><ele>279.0</ele><time>2026-04-04T12:09:56.212Z</time></trkpt><trkpt lat="43.6306132" lon="12.591387"><ele>279.6666666666667</ele><time>2026-04-04T12:09:57.212Z</time></trkpt><trkpt lat="43.6305816" lon="12.5916115"><ele>280.33333333333337</ele><time>2026-04-04T12:09:58.213Z</time></trkpt><trkpt lat="43.6305348" lon="12.5918443"><ele>281.0</ele><time>2026-04-04T12:09:59.212Z</time></trkpt><trkpt lat="43.6304867" lon="12.5920785"><ele>282.0</ele><time>2026-04-04T12:10:00.213Z</time></trkpt><trkpt lat="43.6304311" lon="12.5923056"><ele>283.0</ele><time>2026-04-04T12:10:01.212Z</time></trkpt><trkpt lat="43.6303784" lon="12.5925276"><ele>284.0</ele><time>2026-04-04T12:10:02.212Z</time></trkpt><trkpt lat="43.6303239" lon="12.5927476"><ele>282.6666666666667</ele><time>2026-04-04T12:10:03.213Z</time></trkpt><trkpt lat="43.6302673" lon="12.5929623"><ele>281.3333333333333</ele><time>2026-04-04T12:10:04.212Z</time></trkpt><trkpt lat="43.6302133" lon="12.5931797"><ele>280.0</ele><time>2026-04-04T12:10:05.212Z</time></trkpt><trkpt lat="43.6301606" lon="12.5933949"><ele>280.0</ele><time>2026-04-04T12:10:06.212Z</time></trkpt><trkpt lat="43.6301099" lon="12.5936093"><ele>280.0</ele><time>2026-04-04T12:10:07.212Z</time></trkpt><trkpt lat="43.6300528" lon="12.593821"><ele>280.0</ele><time>2026-04-04T12:10:08.212Z</time></trkpt><trkpt lat="43.6299993" lon="12.5940319"><ele>282.3333333333333</ele><time>2026-04-04T12:10:09.212Z</time></trkpt><trkpt lat="43.6299494" lon="12.5942421"><ele>284.6666666666667</ele><time>2026-04-04T12:10:10.213Z</time></trkpt><trkpt lat="43.6298973" lon="12.5944519"><ele>287.0</ele><time>2026-04-04T12:10:11.212Z</time></trkpt><trkpt lat="43.6298499" lon="12.5946533"><ele>289.0</ele><time>2026-04-04T12:10:12.212Z</time></trkpt><trkpt lat="43.6298045" lon="12.5948481"><ele>291.0</ele><time>2026-04-04T12:10:13.213Z</time></trkpt><trkpt lat="43.6297588" lon="12.5950411"><ele>293.0</ele><time>2026-04-04T12:10:14.213Z</time></trkpt><trkpt lat="43.6297139" lon="12.5952223"><ele>295.0</ele><time>2026-04-04T12:10:15.212Z</time></trkpt><trkpt lat="43.6296774" lon="12.5953938"><ele>295.5</ele><time>2026-04-04T12:10:16.212Z</time></trkpt><trkpt lat="43.6296459" lon="12.5955686"><ele>296.0</ele><time>2026-04-04T12:10:17.212Z</time></trkpt><trkpt lat="43.629609" lon="12.595761"><ele>296.5</ele><time>2026-04-04T12:10:18.212Z</time></trkpt><trkpt lat="43.6295882" lon="12.5959828"><ele>297.0</ele><time>2026-04-04T12:10:19.212Z</time></trkpt><trkpt lat="43.6295808" lon="12.5962076"><ele>298.3333333333333</ele><time>2026-04-04T12:10:20.212Z</time></trkpt><trkpt lat="43.6295776" lon="12.5964451"><ele>299.66666666666663</ele><time>2026-04-04T12:10:21.212Z</time></trkpt><trkpt lat="43.62959" lon="12.5967019"><ele>301.0</ele><time>2026-04-04T12:10:22.212Z</time></trkpt><trkpt lat="43.6295919" lon="12.596983"><ele>300.0</ele><time>2026-04-04T12:10:23.213Z</time></trkpt><trkpt lat="43.6295703" lon="12.5972859"><ele>299.0</ele><time>2026-04-04T12:10:24.212Z</time></trkpt><trkpt lat="43.629549" lon="12.5975957"><ele>298.0</ele><time>2026-04-04T12:10:25.212Z</time></trkpt><trkpt lat="43.629521" lon="12.597915"><ele>297.0</ele><time>2026-04-04T12:10:26.212Z</time></trkpt><trkpt lat="43.6294911" lon="12.598246"><ele>296.0</ele><time>2026-04-04T12:10:27.212Z</time></trkpt><trkpt lat="43.6294682" lon="12.5985696"><ele>297.0</ele><time>2026-04-04T12:10:28.212Z</time></trkpt><trkpt lat="43.6294436" lon="12.598881"><ele>298.0</ele><time>2026-04-04T12:10:29.212Z</time></trkpt><trkpt lat="43.6294173" lon="12.5991972"><ele>300.0</ele><time>2026-04-04T12:10:30.212Z</time></trkpt><trkpt lat="43.6293976" lon="12.5995138"><ele>302.0</ele><time>2026-04-04T12:10:31.212Z</time></trkpt><trkpt lat="43.6293979" lon="12.5998326"><ele>302.0</ele><time>2026-04-04T12:10:32.212Z</time></trkpt><trkpt lat="43.6293955" lon="12.6001496"><ele>302.0</ele><time>2026-04-04T12:10:33.212Z</time></trkpt><trkpt lat="43.6293949" lon="12.6004644"><ele>302.0</ele><time>2026-04-04T12:10:34.212Z</time></trkpt><trkpt lat="43.6293989" lon="12.6007826"><ele>302.0</ele><time>2026-04-04T12:10:35.212Z</time></trkpt><trkpt lat="43.6293989" lon="12.6010911"><ele>302.0</ele><time>2026-04-04T12:10:36.213Z</time></trkpt><trkpt lat="43.6294004" lon="12.6013932"><ele>302.0</ele><time>2026-04-04T12:10:37.212Z</time></trkpt><trkpt lat="43.6294065" lon="12.6017014"><ele>302.0</ele><time>2026-04-04T12:10:38.212Z</time></trkpt><trkpt lat="43.6294059" lon="12.6019941"><ele>303.6666666666667</ele><time>2026-04-04T12:10:39.213Z</time></trkpt><trkpt lat="43.6294083" lon="12.6022819"><ele>305.3333333333333</ele><time>2026-04-04T12:10:40.212Z</time></trkpt><trkpt lat="43.6294277" lon="12.602567"><ele>307.0</ele><time>2026-04-04T12:10:41.212Z</time></trkpt><trkpt lat="43.6294596" lon="12.6028557"><ele>309.66666666666663</ele><time>2026-04-04T12:10:42.212Z</time></trkpt><trkpt lat="43.6294992" lon="12.6031353"><ele>312.3333333333333</ele><time>2026-04-04T12:10:43.212Z</time></trkpt><trkpt lat="43.629538" lon="12.6034145"><ele>315.0</ele><time>2026-04-04T12:10:44.213Z</time></trkpt><trkpt lat="43.6295729" lon="12.6036789"><ele>315.0</ele><time>2026-04-04T12:10:45.213Z</time></trkpt><trkpt lat="43.6295936" lon="12.6039487"><ele>315.0</ele><time>2026-04-04T12:10:46.212Z</time></trkpt><trkpt lat="43.6295897" lon="12.6042133"><ele>315.0</ele><time>2026-04-04T12:10:47.212Z</time></trkpt><trkpt lat="43.629549" lon="12.6044793"><ele>317.0</ele><time>2026-04-04T12:10:48.213Z</time></trkpt><trkpt lat="43.6294748" lon="12.6047367"><ele>319.0</ele><time>2026-04-04T12:10:49.212Z</time></trkpt><trkpt lat="43.6293805" lon="12.604993"><ele>321.0</ele><time>2026-04-04T12:10:50.212Z</time></trkpt><trkpt lat="43.6292857" lon="12.60525"><ele>323.3333333333333</ele><time>2026-04-04T12:10:51.213Z</time></trkpt><trkpt lat="43.6291862" lon="12.6054953"><ele>325.66666666666663</ele><time>2026-04-04T12:10:52.212Z</time></trkpt><trkpt lat="43.6290863" lon="12.6057374"><ele>328.0</ele><time>2026-04-04T12:10:53.212Z</time></trkpt><trkpt lat="43.6289876" lon="12.6059631"><ele>329.3333333333333</ele><time>2026-04-04T12:10:54.212Z</time></trkpt><trkpt lat="43.62889" lon="12.6061841"><ele>330.6666666666667</ele><time>2026-04-04T12:10:55.212Z</time></trkpt><trkpt lat="43.6287811" lon="12.606399"><ele>332.0</ele><time>2026-04-04T12:10:56.212Z</time></trkpt><trkpt lat="43.6286696" lon="12.6066175"><ele>329.0</ele><time>2026-04-04T12:10:57.212Z</time></trkpt><trkpt lat="43.6285545" lon="12.6068351"><ele>326.0</ele><time>2026-04-04T12:10:58.212Z</time></trkpt><trkpt lat="43.6284356" lon="12.607053"><ele>323.0</ele><time>2026-04-04T12:10:59.213Z</time></trkpt><trkpt lat="43.6283239" lon="12.6072559"><ele>323.0</ele><time>2026-04-04T12:11:00.213Z</time></trkpt><trkpt lat="43.6282119" lon="12.60745"><ele>323.0</ele><time>2026-04-04T12:11:01.212Z</time></trkpt><trkpt lat="43.6280906" lon="12.6076352"><ele>323.0</ele><time>2026-04-04T12:11:02.213Z</time></trkpt><trkpt lat="43.6279471" lon="12.6077901"><ele>324.6666666666667</ele><time>2026-04-04T12:11:03.212Z</time></trkpt><trkpt lat="43.6277814" lon="12.6079286"><ele>326.3333333333333</ele><time>2026-04-04T12:11:04.213Z</time></trkpt><trkpt lat="43.6275957" lon="12.6080553"><ele>328.0</ele><time>2026-04-04T12:11:05.212Z</time></trkpt><trkpt lat="43.6274132" lon="12.6081776"><ele>328.0</ele><time>2026-04-04T12:11:06.212Z</time></trkpt><trkpt lat="43.6272266" lon="12.6082976"><ele>328.0</ele><time>2026-04-04T12:11:07.213Z</time></trkpt><trkpt lat="43.6270525" lon="12.6083994"><ele>328.0</ele><time>2026-04-04T12:11:08.213Z</time></trkpt><trkpt lat="43.626888" lon="12.608499"><ele>327.0</ele><time>2026-04-04T12:11:09.213Z</time></trkpt><trkpt lat="43.6267161" lon="12.6085796"><ele>326.0</ele><time>2026-04-04T12:11:10.212Z</time></trkpt><trkpt lat="43.626529" lon="12.6086378"><ele>325.0</ele><time>2026-04-04T12:11:11.212Z</time></trkpt><trkpt lat="43.6263343" lon="12.6086825"><ele>329.66666666666663</ele><time>2026-04-04T12:11:12.213Z</time></trkpt><trkpt lat="43.626126" lon="12.608699"><ele>334.3333333333333</ele><time>2026-04-04T12:11:13.213Z</time></trkpt><trkpt lat="43.625927" lon="12.6087331"><ele>339.0</ele><time>2026-04-04T12:11:14.212Z</time></trkpt><trkpt lat="43.6257454" lon="12.6087482"><ele>339.0</ele><time>2026-04-04T12:11:15.213Z</time></trkpt><trkpt lat="43.6255733" lon="12.6087775"><ele>339.0</ele><time>2026-04-04T12:11:16.212Z</time></trkpt><trkpt lat="43.6254104" lon="12.6088067"><ele>339.0</ele><time>2026-04-04T12:11:17.212Z</time></trkpt><trkpt lat="43.6252495" lon="12.6088404"><ele>338.6666666666667</ele><time>2026-04-04T12:11:18.213Z</time></trkpt><trkpt lat="43.6250915" lon="12.6088956"><ele>338.33333333333337</ele><time>2026-04-04T12:11:19.213Z</time></trkpt><trkpt lat="43.6249368" lon="12.6089847"><ele>338.0</ele><time>2026-04-04T12:11:20.212Z</time></trkpt><trkpt lat="43.6247816" lon="12.6091017"><ele>338.0</ele><time>2026-04-04T12:11:21.212Z</time></trkpt><trkpt lat="43.6246313" lon="12.6092676"><ele>338.0</ele><time>2026-04-04T12:11:22.213Z</time></trkpt><trkpt lat="43.6244779" lon="12.6094464"><ele>338.0</ele><time>2026-04-04T12:11:23.212Z</time></trkpt><trkpt lat="43.6243291" lon="12.6096378"><ele>338.0</ele><time>2026-04-04T12:11:24.212Z</time></trkpt><trkpt lat="43.6241843" lon="12.6098214"><ele>338.0</ele><time>2026-04-04T12:11:25.212Z</time></trkpt><trkpt lat="43.6240472" lon="12.6099912"><ele>338.0</ele><time>2026-04-04T12:11:26.212Z</time></trkpt><trkpt lat="43.6239142" lon="12.6101571"><ele>338.0</ele><time>2026-04-04T12:11:27.212Z</time></trkpt><trkpt lat="43.6237951" lon="12.6103152"><ele>338.0</ele><time>2026-04-04T12:11:28.212Z</time></trkpt><trkpt lat="43.6236773" lon="12.6104761"><ele>338.0</ele><time>2026-04-04T12:11:29.212Z</time></trkpt><trkpt lat="43.6235641" lon="12.6106046"><ele>337.75</ele><time>2026-04-04T12:11:30.213Z</time></trkpt><trkpt lat="43.6234383" lon="12.6106965"><ele>337.5</ele><time>2026-04-04T12:11:31.212Z</time></trkpt><trkpt lat="43.6233002" lon="12.6107476"><ele>337.25</ele><time>2026-04-04T12:11:32.212Z</time></trkpt><trkpt lat="43.6231524" lon="12.6107636"><ele>337.0</ele><time>2026-04-04T12:11:33.212Z</time></trkpt><trkpt lat="43.6229951" lon="12.6107311"><ele>337.0</ele><time>2026-04-04T12:11:34.212Z</time></trkpt><trkpt lat="43.6228228" lon="12.610659"><ele>337.0</ele><time>2026-04-04T12:11:35.212Z</time></trkpt><trkpt lat="43.6226576" lon="12.6105882"><ele>337.0</ele><time>2026-04-04T12:11:36.212Z</time></trkpt><trkpt lat="43.6225017" lon="12.6105221"><ele>336.66666666666663</ele><time>2026-04-04T12:11:37.212Z</time></trkpt><trkpt lat="43.6223404" lon="12.6104528"><ele>336.3333333333333</ele><time>2026-04-04T12:11:38.212Z</time></trkpt><trkpt lat="43.6221754" lon="12.6103928"><ele>336.0</ele><time>2026-04-04T12:11:39.213Z</time></trkpt><trkpt lat="43.6220167" lon="12.6103473"><ele>332.0</ele><time>2026-04-04T12:11:40.213Z</time></trkpt><trkpt lat="43.6218594" lon="12.6103123"><ele>328.0</ele><time>2026-04-04T12:11:41.212Z</time></trkpt><trkpt lat="43.6217125" lon="12.6102902"><ele>324.0</ele><time>2026-04-04T12:11:42.213Z</time></trkpt><trkpt lat="43.6215611" lon="12.6102719"><ele>324.0</ele><time>2026-04-04T12:11:43.212Z</time></trkpt><trkpt lat="43.6214144" lon="12.6102597"><ele>324.0</ele><time>2026-04-04T12:11:44.213Z</time></trkpt><trkpt lat="43.6212769" lon="12.6102521"><ele>324.0</ele><time>2026-04-04T12:11:45.212Z</time></trkpt><trkpt lat="43.6211555" lon="12.6102597"><ele>324.0</ele><time>2026-04-04T12:11:46.212Z</time></trkpt><trkpt lat="43.6210439" lon="12.6103103"><ele>323.5</ele><time>2026-04-04T12:11:47.212Z</time></trkpt><trkpt lat="43.6209507" lon="12.6103978"><ele>323.0</ele><time>2026-04-04T12:11:48.213Z</time></trkpt><trkpt lat="43.620874" lon="12.6105194"><ele>322.5</ele><time>2026-04-04T12:11:49.213Z</time></trkpt><trkpt lat="43.6208257" lon="12.6106634"><ele>322.0</ele><time>2026-04-04T12:11:50.212Z</time></trkpt><trkpt lat="43.6208012" lon="12.6108228"><ele>322.0</ele><time>2026-04-04T12:11:51.213Z</time></trkpt><trkpt lat="43.620813" lon="12.6109913"><ele>322.0</ele><time>2026-04-04T12:11:52.212Z</time></trkpt><trkpt lat="43.6208626" lon="12.6111587"><ele>322.0</ele><time>2026-04-04T12:11:53.212Z</time></trkpt><trkpt lat="43.6209421" lon="12.6113024"><ele>322.0</ele><time>2026-04-04T12:11:54.212Z</time></trkpt><trkpt lat="43.6210429" lon="12.6114451"><ele>323.0</ele><time>2026-04-04T12:11:55.212Z</time></trkpt><trkpt lat="43.6211619" lon="12.6115808"><ele>324.0</ele><time>2026-04-04T12:11:56.212Z</time></trkpt><trkpt lat="43.6212699" lon="12.6117185"><ele>325.0</ele><time>2026-04-04T12:11:57.212Z</time></trkpt><trkpt lat="43.6213637" lon="12.6118763"><ele>326.0</ele><time>2026-04-04T12:11:58.213Z</time></trkpt><trkpt lat="43.6214327" lon="12.6120579"><ele>323.33333333333337</ele><time>2026-04-04T12:11:59.212Z</time></trkpt><trkpt lat="43.6214613" lon="12.6122598"><ele>320.6666666666667</ele><time>2026-04-04T12:12:00.212Z</time></trkpt><trkpt lat="43.6214688" lon="12.6124732"><ele>318.0</ele><time>2026-04-04T12:12:01.212Z</time></trkpt><trkpt lat="43.6214543" lon="12.6126839"><ele>317.0</ele><time>2026-04-04T12:12:02.213Z</time></trkpt><trkpt lat="43.6214437" lon="12.6128955"><ele>316.0</ele><time>2026-04-04T12:12:03.212Z</time></trkpt><trkpt lat="43.6214491" lon="12.6131162"><ele>315.0</ele><time>2026-04-04T12:12:04.213Z</time></trkpt><trkpt lat="43.6214671" lon="12.6133321"><ele>315.0</ele><time>2026-04-04T12:12:05.212Z</time></trkpt><trkpt lat="43.6214856" lon="12.6135503"><ele>315.0</ele><time>2026-04-04T12:12:06.212Z</time></trkpt><trkpt lat="43.621516" lon="12.6137799"><ele>315.0</ele><time>2026-04-04T12:12:07.212Z</time></trkpt><trkpt lat="43.6215524" lon="12.614032"><ele>312.3333333333333</ele><time>2026-04-04T12:12:08.213Z</time></trkpt><trkpt lat="43.6215845" lon="12.6142761"><ele>309.66666666666663</ele><time>2026-04-04T12:12:09.212Z</time></trkpt><trkpt lat="43.621612" lon="12.6145217"><ele>307.0</ele><time>2026-04-04T12:12:10.212Z</time></trkpt><trkpt lat="43.6216319" lon="12.6147634"><ele>306.0</ele><time>2026-04-04T12:12:11.212Z</time></trkpt><trkpt lat="43.6216497" lon="12.6150032"><ele>305.0</ele><time>2026-04-04T12:12:12.212Z</time></trkpt><trkpt lat="43.6216666" lon="12.615245"><ele>304.0</ele><time>2026-04-04T12:12:13.212Z</time></trkpt><trkpt lat="43.6216785" lon="12.6154813"><ele>302.66666666666663</ele><time>2026-04-04T12:12:14.212Z</time></trkpt><trkpt lat="43.6216844" lon="12.6157118"><ele>301.3333333333333</ele><time>2026-04-04T12:12:15.212Z</time></trkpt><trkpt lat="43.621686" lon="12.6159309"><ele>300.0</ele><time>2026-04-04T12:12:16.212Z</time></trkpt><trkpt lat="43.6216866" lon="12.616149"><ele>298.75</ele><time>2026-04-04T12:12:17.212Z</time></trkpt><trkpt lat="43.6216849" lon="12.616359"><ele>297.5</ele><time>2026-04-04T12:12:18.212Z</time></trkpt><trkpt lat="43.6216837" lon="12.6165572"><ele>296.25</ele><time>2026-04-04T12:12:19.212Z</time></trkpt><trkpt lat="43.6216806" lon="12.6167407"><ele>295.0</ele><time>2026-04-04T12:12:20.213Z</time></trkpt><trkpt lat="43.6216676" lon="12.6169032"><ele>294.75</ele><time>2026-04-04T12:12:21.213Z</time></trkpt><trkpt lat="43.6216227" lon="12.6170494"><ele>294.5</ele><time>2026-04-04T12:12:22.213Z</time></trkpt><trkpt lat="43.6215536" lon="12.6171717"><ele>294.25</ele><time>2026-04-04T12:12:23.212Z</time></trkpt><trkpt lat="43.621456" lon="12.617251"><ele>294.0</ele><time>2026-04-04T12:12:24.213Z</time></trkpt><trkpt lat="43.621341" lon="12.6172941"><ele>294.0</ele><time>2026-04-04T12:12:25.212Z</time></trkpt><trkpt lat="43.6212095" lon="12.6172767"><ele>294.0</ele><time>2026-04-04T12:12:26.213Z</time></trkpt><trkpt lat="43.621073" lon="12.6172061"><ele>294.0</ele><time>2026-04-04T12:12:27.213Z</time></trkpt><trkpt lat="43.6209404" lon="12.6170959"><ele>294.0</ele><time>2026-04-04T12:12:28.212Z</time></trkpt><trkpt lat="43.6208267" lon="12.6169674"><ele>291.6666666666667</ele><time>2026-04-04T12:12:29.213Z</time></trkpt><trkpt lat="43.6207093" lon="12.6168296"><ele>289.33333333333337</ele><time>2026-04-04T12:12:30.212Z</time></trkpt><trkpt lat="43.6205835" lon="12.6167119"><ele>287.0</ele><time>2026-04-04T12:12:31.213Z</time></trkpt><trkpt lat="43.6204549" lon="12.61658"><ele>287.0</ele><time>2026-04-04T12:12:32.212Z</time></trkpt><trkpt lat="43.6203219" lon="12.6164534"><ele>287.0</ele><time>2026-04-04T12:12:33.213Z</time></trkpt><trkpt lat="43.6201848" lon="12.6163314"><ele>287.0</ele><time>2026-04-04T12:12:34.212Z</time></trkpt><trkpt lat="43.6200446" lon="12.6162377"><ele>284.33333333333337</ele><time>2026-04-04T12:12:35.212Z</time></trkpt><trkpt lat="43.6198847" lon="12.6161419"><ele>281.6666666666667</ele><time>2026-04-04T12:12:36.212Z</time></trkpt><trkpt lat="43.6197231" lon="12.6160738"><ele>279.0</ele><time>2026-04-04T12:12:37.212Z</time></trkpt><trkpt lat="43.6195521" lon="12.61602"><ele>277.6666666666667</ele><time>2026-04-04T12:12:38.212Z</time></trkpt><trkpt lat="43.6193896" lon="12.6159704"><ele>276.33333333333337</ele><time>2026-04-04T12:12:39.212Z</time></trkpt><trkpt lat="43.6192289" lon="12.6159276"><ele>275.0</ele><time>2026-04-04T12:12:40.212Z</time></trkpt><trkpt lat="43.6190763" lon="12.6158864"><ele>275.0</ele><time>2026-04-04T12:12:41.212Z</time></trkpt><trkpt lat="43.618922" lon="12.6158469"><ele>275.0</ele><time>2026-04-04T12:12:42.213Z</time></trkpt><trkpt lat="43.6187796" lon="12.6158041"><ele>275.0</ele><time>2026-04-04T12:12:43.212Z</time></trkpt><trkpt lat="43.6186541" lon="12.6157854"><ele>275.0</ele><time>2026-04-04T12:12:44.212Z</time></trkpt><trkpt lat="43.6185232" lon="12.6157965"><ele>273.75</ele><time>2026-04-04T12:12:45.213Z</time></trkpt><trkpt lat="43.6184076" lon="12.6158383"><ele>272.5</ele><time>2026-04-04T12:12:46.212Z</time></trkpt><trkpt lat="43.6183109" lon="12.6159193"><ele>271.25</ele><time>2026-04-04T12:12:47.213Z</time></trkpt><trkpt lat="43.6182408" lon="12.6160437"><ele>270.0</ele><time>2026-04-04T12:12:48.212Z</time></trkpt><trkpt lat="43.6182065" lon="12.6161894"><ele>269.75</ele><time>2026-04-04T12:12:49.212Z</time></trkpt><trkpt lat="43.6181788" lon="12.6163676"><ele>269.5</ele><time>2026-04-04T12:12:50.212Z</time></trkpt><trkpt lat="43.6181711" lon="12.6165676"><ele>269.25</ele><time>2026-04-04T12:12:51.213Z</time></trkpt><trkpt lat="43.6181674" lon="12.6167673"><ele>269.0</ele><time>2026-04-04T12:12:52.212Z</time></trkpt><trkpt lat="43.6181767" lon="12.6169797"><ele>267.0</ele><time>2026-04-04T12:12:53.213Z</time></trkpt><trkpt lat="43.6182031" lon="12.617206"><ele>265.0</ele><time>2026-04-04T12:12:54.212Z</time></trkpt><trkpt lat="43.6182342" lon="12.617435"><ele>263.0</ele><time>2026-04-04T12:12:55.212Z</time></trkpt><trkpt lat="43.6182762" lon="12.6176748"><ele>261.33333333333337</ele><time>2026-04-04T12:12:56.212Z</time></trkpt><trkpt lat="43.6183194" lon="12.6179161"><ele>259.6666666666667</ele><time>2026-04-04T12:12:57.212Z</time></trkpt><trkpt lat="43.6183597" lon="12.618154"><ele>258.0</ele><time>2026-04-04T12:12:58.212Z</time></trkpt><trkpt lat="43.6183991" lon="12.6183892"><ele>258.0</ele><time>2026-04-04T12:12:59.213Z</time></trkpt><trkpt lat="43.6184305" lon="12.6186229"><ele>258.0</ele><time>2026-04-04T12:13:00.212Z</time></trkpt><trkpt lat="43.6184601" lon="12.6188505"><ele>258.0</ele><time>2026-04-04T12:13:01.212Z</time></trkpt><trkpt lat="43.6184964" lon="12.6190725"><ele>257.25</ele><time>2026-04-04T12:13:02.212Z</time></trkpt><trkpt lat="43.6185249" lon="12.6192752"><ele>256.5</ele><time>2026-04-04T12:13:03.212Z</time></trkpt><trkpt lat="43.6185505" lon="12.6194625"><ele>255.75</ele><time>2026-04-04T12:13:04.212Z</time></trkpt><trkpt lat="43.6185786" lon="12.6196545"><ele>255.0</ele><time>2026-04-04T12:13:05.213Z</time></trkpt><trkpt lat="43.6185951" lon="12.6198317"><ele>255.0</ele><time>2026-04-04T12:13:06.212Z</time></trkpt><trkpt lat="43.6185961" lon="12.6200016"><ele>255.0</ele><time>2026-04-04T12:13:07.212Z</time></trkpt><trkpt lat="43.6185715" lon="12.6201569"><ele>255.0</ele><time>2026-04-04T12:13:08.212Z</time></trkpt><trkpt lat="43.6185113" lon="12.6202966"><ele>255.0</ele><time>2026-04-04T12:13:09.212Z</time></trkpt><trkpt lat="43.6184256" lon="12.6204082"><ele>255.0</ele><time>2026-04-04T12:13:10.213Z</time></trkpt><trkpt lat="43.6183111" lon="12.6204892"><ele>255.0</ele><time>2026-04-04T12:13:11.212Z</time></trkpt><trkpt lat="43.6181767" lon="12.6205408"><ele>255.0</ele><time>2026-04-04T12:13:12.212Z</time></trkpt><trkpt lat="43.61802" lon="12.6205499"><ele>255.0</ele><time>2026-04-04T12:13:13.212Z</time></trkpt><trkpt lat="43.6178518" lon="12.6205584"><ele>252.66666666666669</ele><time>2026-04-04T12:13:14.212Z</time></trkpt><trkpt lat="43.6176676" lon="12.6205699"><ele>250.33333333333334</ele><time>2026-04-04T12:13:15.213Z</time></trkpt><trkpt lat="43.6174788" lon="12.6205992"><ele>248.0</ele><time>2026-04-04T12:13:16.212Z</time></trkpt><trkpt lat="43.6172806" lon="12.6206045"><ele>248.0</ele><time>2026-04-04T12:13:17.213Z</time></trkpt><trkpt lat="43.6170833" lon="12.6206137"><ele>248.0</ele><time>2026-04-04T12:13:18.212Z</time></trkpt><trkpt lat="43.6168871" lon="12.6206331"><ele>248.0</ele><time>2026-04-04T12:13:19.212Z</time></trkpt><trkpt lat="43.6166889" lon="12.6206539"><ele>247.33333333333334</ele><time>2026-04-04T12:13:20.212Z</time></trkpt><trkpt lat="43.6164948" lon="12.6206831"><ele>246.66666666666669</ele><time>2026-04-04T12:13:21.213Z</time></trkpt><trkpt lat="43.6163001" lon="12.6206939"><ele>246.0</ele><time>2026-04-04T12:13:22.213Z</time></trkpt><trkpt lat="43.6161037" lon="12.6207059"><ele>246.0</ele><time>2026-04-04T12:13:23.212Z</time></trkpt><trkpt lat="43.6159145" lon="12.620712"><ele>246.0</ele><time>2026-04-04T12:13:24.213Z</time></trkpt><trkpt lat="43.6157326" lon="12.6207279"><ele>246.0</ele><time>2026-04-04T12:13:25.213Z</time></trkpt><trkpt lat="43.6155561" lon="12.6207372"><ele>246.0</ele><time>2026-04-04T12:13:26.212Z</time></trkpt><trkpt lat="43.6153878" lon="12.6207512"><ele>246.0</ele><time>2026-04-04T12:13:27.212Z</time></trkpt><trkpt lat="43.6152275" lon="12.6207629"><ele>246.0</ele><time>2026-04-04T12:13:28.212Z</time></trkpt><trkpt lat="43.615075" lon="12.6207792"><ele>245.25</ele><time>2026-04-04T12:13:29.213Z</time></trkpt><trkpt lat="43.6149421" lon="12.6208115"><ele>244.5</ele><time>2026-04-04T12:13:30.212Z</time></trkpt><trkpt lat="43.6148119" lon="12.6208816"><ele>243.75</ele><time>2026-04-04T12:13:31.212Z</time></trkpt><trkpt lat="43.6147109" lon="12.6209912"><ele>243.0</ele><time>2026-04-04T12:13:32.212Z</time></trkpt><trkpt lat="43.6146295" lon="12.621128"><ele>242.33333333333331</ele><time>2026-04-04T12:13:33.212Z</time></trkpt><trkpt lat="43.6145784" lon="12.6213112"><ele>241.66666666666666</ele><time>2026-04-04T12:13:34.213Z</time></trkpt><trkpt lat="43.6145598" lon="12.6215346"><ele>241.0</ele><time>2026-04-04T12:13:35.212Z</time></trkpt><trkpt lat="43.6145492" lon="12.6217511"><ele>241.0</ele><time>2026-04-04T12:13:36.212Z</time></trkpt><trkpt lat="43.6145476" lon="12.6219708"><ele>241.0</ele><time>2026-04-04T12:13:37.212Z</time></trkpt><trkpt lat="43.6145412" lon="12.6222043"><ele>241.0</ele><time>2026-04-04T12:13:38.212Z</time></trkpt><trkpt lat="43.6145232" lon="12.6224371"><ele>241.0</ele><time>2026-04-04T12:13:39.213Z</time></trkpt><trkpt lat="43.6144987" lon="12.6226649"><ele>241.0</ele><time>2026-04-04T12:13:40.213Z</time></trkpt><trkpt lat="43.6144623" lon="12.6228999"><ele>241.0</ele><time>2026-04-04T12:13:41.212Z</time></trkpt><trkpt lat="43.6144172" lon="12.6231423"><ele>239.0</ele><time>2026-04-04T12:13:42.212Z</time></trkpt><trkpt lat="43.6143613" lon="12.6233907"><ele>237.0</ele><time>2026-04-04T12:13:43.213Z</time></trkpt><trkpt lat="43.6143053" lon="12.6236408"><ele>235.0</ele><time>2026-04-04T12:13:44.213Z</time></trkpt><trkpt lat="43.6142494" lon="12.6238865"><ele>234.0</ele><time>2026-04-04T12:13:45.212Z</time></trkpt><trkpt lat="43.6141977" lon="12.624114"><ele>233.0</ele><time>2026-04-04T12:13:46.212Z</time></trkpt><trkpt lat="43.6141444" lon="12.6243466"><ele>232.0</ele><time>2026-04-04T12:13:47.212Z</time></trkpt><trkpt lat="43.6140934" lon="12.6245647"><ele>231.25</ele><time>2026-04-04T12:13:48.212Z</time></trkpt><trkpt lat="43.6140446" lon="12.6247703"><ele>230.5</ele><time>2026-04-04T12:13:49.212Z</time></trkpt><trkpt lat="43.6140035" lon="12.6249572"><ele>229.75</ele><time>2026-04-04T12:13:50.212Z</time></trkpt><trkpt lat="43.6139585" lon="12.6251299"><ele>229.0</ele><time>2026-04-04T12:13:51.212Z</time></trkpt><trkpt lat="43.6138981" lon="12.6252946"><ele>228.6</ele><time>2026-04-04T12:13:52.212Z</time></trkpt><trkpt lat="43.6138224" lon="12.6254479"><ele>228.2</ele><time>2026-04-04T12:13:53.212Z</time></trkpt><trkpt lat="43.6137511" lon="12.6255582"><ele>227.79999999999998</ele><time>2026-04-04T12:13:54.213Z</time></trkpt><trkpt lat="43.6136914" lon="12.6256516"><ele>227.39999999999998</ele><time>2026-04-04T12:13:55.212Z</time></trkpt><trkpt lat="43.6136554" lon="12.6257381"><ele>227.0</ele><time>2026-04-04T12:13:56.212Z</time></trkpt><trkpt lat="43.6136273" lon="12.6258414"><ele>226.8</ele><time>2026-04-04T12:13:58.213Z</time></trkpt><trkpt lat="43.6136248" lon="12.6259398"><ele>226.6</ele><time>2026-04-04T12:14:06.212Z</time></trkpt><trkpt lat="43.6136519" lon="12.6261433"><ele>226.40000000000003</ele><time>2026-04-04T12:14:08.212Z</time></trkpt><trkpt lat="43.6136565" lon="12.626275"><ele>226.20000000000002</ele><time>2026-04-04T12:14:09.212Z</time></trkpt><trkpt lat="43.6136212" lon="12.6264344"><ele>226.0</ele><time>2026-04-04T12:14:10.212Z</time></trkpt><trkpt lat="43.6135761" lon="12.6265875"><ele>225.75</ele><time>2026-04-04T12:14:11.213Z</time></trkpt><trkpt lat="43.6135244" lon="12.6267474"><ele>225.5</ele><time>2026-04-04T12:14:12.212Z</time></trkpt><trkpt lat="43.613468" lon="12.6269033"><ele>225.25</ele><time>2026-04-04T12:14:13.212Z</time></trkpt><trkpt lat="43.6134159" lon="12.6270698"><ele>225.0</ele><time>2026-04-04T12:14:14.213Z</time></trkpt><trkpt lat="43.6133677" lon="12.6272317"><ele>226.75</ele><time>2026-04-04T12:14:15.212Z</time></trkpt><trkpt lat="43.6133162" lon="12.6273935"><ele>228.5</ele><time>2026-04-04T12:14:16.213Z</time></trkpt><trkpt lat="43.6132606" lon="12.6275569"><ele>230.25</ele><time>2026-04-04T12:14:17.212Z</time></trkpt><trkpt lat="43.6131908" lon="12.6276991"><ele>232.0</ele><time>2026-04-04T12:14:18.213Z</time></trkpt><trkpt lat="43.6131167" lon="12.6278456"><ele>231.75</ele><time>2026-04-04T12:14:19.212Z</time></trkpt><trkpt lat="43.613034" lon="12.6279615"><ele>231.5</ele><time>2026-04-04T12:14:20.212Z</time></trkpt><trkpt lat="43.6129494" lon="12.628075"><ele>231.25</ele><time>2026-04-04T12:14:21.212Z</time></trkpt><trkpt lat="43.6128742" lon="12.6281996"><ele>231.0</ele><time>2026-04-04T12:14:22.212Z</time></trkpt><trkpt lat="43.612821" lon="12.6283524"><ele>231.0</ele><time>2026-04-04T12:14:23.212Z</time></trkpt><trkpt lat="43.6127904" lon="12.6285127"><ele>231.0</ele><time>2026-04-04T12:14:24.213Z</time></trkpt><trkpt lat="43.6127812" lon="12.6286874"><ele>231.0</ele><time>2026-04-04T12:14:25.212Z</time></trkpt><trkpt lat="43.6127839" lon="12.6288684"><ele>231.0</ele><time>2026-04-04T12:14:26.212Z</time></trkpt><trkpt lat="43.6127997" lon="12.6290364"><ele>232.0</ele><time>2026-04-04T12:14:27.213Z</time></trkpt><trkpt lat="43.6128194" lon="12.6292078"><ele>233.0</ele><time>2026-04-04T12:14:28.212Z</time></trkpt><trkpt lat="43.612846" lon="12.6293775"><ele>234.0</ele><time>2026-04-04T12:14:29.212Z</time></trkpt><trkpt lat="43.6128657" lon="12.6295306"><ele>235.0</ele><time>2026-04-04T12:14:30.212Z</time></trkpt><trkpt lat="43.6128838" lon="12.6296863"><ele>236.0</ele><time>2026-04-04T12:14:31.212Z</time></trkpt><trkpt lat="43.6129034" lon="12.6298454"><ele>237.0</ele><time>2026-04-04T12:14:32.212Z</time></trkpt><trkpt lat="43.6129267" lon="12.6300043"><ele>238.0</ele><time>2026-04-04T12:14:33.213Z</time></trkpt><trkpt lat="43.6129443" lon="12.6301557"><ele>239.0</ele><time>2026-04-04T12:14:34.212Z</time></trkpt><trkpt lat="43.6129629" lon="12.6303183"><ele>239.25</ele><time>2026-04-04T12:14:35.212Z</time></trkpt><trkpt lat="43.6129855" lon="12.6304778"><ele>239.5</ele><time>2026-04-04T12:14:36.213Z</time></trkpt><trkpt lat="43.6130058" lon="12.6306435"><ele>239.75</ele><time>2026-04-04T12:14:37.212Z</time></trkpt><trkpt lat="43.6130235" lon="12.6307963"><ele>240.0</ele><time>2026-04-04T12:14:38.212Z</time></trkpt><trkpt lat="43.6130414" lon="12.6309522"><ele>240.0</ele><time>2026-04-04T12:14:39.212Z</time></trkpt><trkpt lat="43.6130592" lon="12.6311136"><ele>240.0</ele><time>2026-04-04T12:14:40.213Z</time></trkpt><trkpt lat="43.6130848" lon="12.6312818"><ele>240.0</ele><time>2026-04-04T12:14:41.213Z</time></trkpt><trkpt lat="43.6131084" lon="12.6314418"><ele>240.0</ele><time>2026-04-04T12:14:42.212Z</time></trkpt><trkpt lat="43.6131318" lon="12.6316012"><ele>240.0</ele><time>2026-04-04T12:14:43.212Z</time></trkpt><trkpt lat="43.6131473" lon="12.6317623"><ele>240.0</ele><time>2026-04-04T12:14:44.212Z</time></trkpt><trkpt lat="43.6131675" lon="12.6319257"><ele>240.0</ele><time>2026-04-04T12:14:45.212Z</time></trkpt><trkpt lat="43.613186" lon="12.6320899"><ele>240.0</ele><time>2026-04-04T12:14:46.212Z</time></trkpt><trkpt lat="43.6132023" lon="12.6322592"><ele>239.75</ele><time>2026-04-04T12:14:47.212Z</time></trkpt><trkpt lat="43.6132205" lon="12.6324305"><ele>239.5</ele><time>2026-04-04T12:14:48.212Z</time></trkpt><trkpt lat="43.6132352" lon="12.6325959"><ele>239.25</ele><time>2026-04-04T12:14:49.212Z</time></trkpt><trkpt lat="43.6132515" lon="12.6327604"><ele>239.0</ele><time>2026-04-04T12:14:50.212Z</time></trkpt><trkpt lat="43.6132722" lon="12.6329248"><ele>238.0</ele><time>2026-04-04T12:14:51.212Z</time></trkpt><trkpt lat="43.6132832" lon="12.6330947"><ele>237.0</ele><time>2026-04-04T12:14:52.213Z</time></trkpt><trkpt lat="43.6132944" lon="12.6332597"><ele>236.0</ele><time>2026-04-04T12:14:53.212Z</time></trkpt><trkpt lat="43.6133065" lon="12.6334293"><ele>235.0</ele><time>2026-04-04T12:14:54.212Z</time></trkpt><trkpt lat="43.6133185" lon="12.6336033"><ele>234.5</ele><time>2026-04-04T12:14:55.213Z</time></trkpt><trkpt lat="43.6133333" lon="12.6337736"><ele>234.0</ele><time>2026-04-04T12:14:56.212Z</time></trkpt><trkpt lat="43.6133507" lon="12.6339253"><ele>233.5</ele><time>2026-04-04T12:14:57.213Z</time></trkpt><trkpt lat="43.6133635" lon="12.6340813"><ele>233.0</ele><time>2026-04-04T12:14:58.212Z</time></trkpt><trkpt lat="43.6133777" lon="12.6342396"><ele>233.0</ele><time>2026-04-04T12:14:59.212Z</time></trkpt><trkpt lat="43.6134014" lon="12.6343958"><ele>233.0</ele><time>2026-04-04T12:15:00.213Z</time></trkpt><trkpt lat="43.6134117" lon="12.6345345"><ele>233.0</ele><time>2026-04-04T12:15:01.213Z</time></trkpt><trkpt lat="43.6134225" lon="12.6346663"><ele>233.0</ele><time>2026-04-04T12:15:02.212Z</time></trkpt><trkpt lat="43.6134325" lon="12.6347981"><ele>233.0</ele><time>2026-04-04T12:15:03.212Z</time></trkpt><trkpt lat="43.6134455" lon="12.6349246"><ele>233.2</ele><time>2026-04-04T12:15:04.212Z</time></trkpt><trkpt lat="43.6134541" lon="12.6350567"><ele>233.4</ele><time>2026-04-04T12:15:05.212Z</time></trkpt><trkpt lat="43.6134669" lon="12.6351855"><ele>233.59999999999997</ele><time>2026-04-04T12:15:06.212Z</time></trkpt><trkpt lat="43.6134798" lon="12.6353237"><ele>233.79999999999998</ele><time>2026-04-04T12:15:07.213Z</time></trkpt><trkpt lat="43.6134954" lon="12.6354788"><ele>234.0</ele><time>2026-04-04T12:15:08.212Z</time></trkpt><trkpt lat="43.6135079" lon="12.635633"><ele>233.5</ele><time>2026-04-04T12:15:09.213Z</time></trkpt><trkpt lat="43.6135196" lon="12.6357906"><ele>233.0</ele><time>2026-04-04T12:15:10.213Z</time></trkpt><trkpt lat="43.613536" lon="12.6359557"><ele>232.5</ele><time>2026-04-04T12:15:11.212Z</time></trkpt><trkpt lat="43.6135536" lon="12.6361349"><ele>232.0</ele><time>2026-04-04T12:15:12.212Z</time></trkpt><trkpt lat="43.6135686" lon="12.6363055"><ele>231.25</ele><time>2026-04-04T12:15:13.212Z</time></trkpt><trkpt lat="43.6135838" lon="12.6364852"><ele>230.5</ele><time>2026-04-04T12:15:14.212Z</time></trkpt><trkpt lat="43.6135992" lon="12.6366694"><ele>229.75</ele><time>2026-04-04T12:15:15.212Z</time></trkpt><trkpt lat="43.6136149" lon="12.6368715"><ele>229.0</ele><time>2026-04-04T12:15:16.213Z</time></trkpt><trkpt lat="43.6136329" lon="12.6370789"><ele>229.66666666666666</ele><time>2026-04-04T12:15:17.213Z</time></trkpt><trkpt lat="43.6136557" lon="12.6373034"><ele>230.33333333333331</ele><time>2026-04-04T12:15:18.212Z</time></trkpt><trkpt lat="43.613681" lon="12.6375311"><ele>231.0</ele><time>2026-04-04T12:15:19.212Z</time></trkpt><trkpt lat="43.6137011" lon="12.6377446"><ele>231.33333333333331</ele><time>2026-04-04T12:15:20.212Z</time></trkpt><trkpt lat="43.6137216" lon="12.6379601"><ele>231.66666666666666</ele><time>2026-04-04T12:15:21.212Z</time></trkpt><trkpt lat="43.6137426" lon="12.6381706"><ele>232.0</ele><time>2026-04-04T12:15:22.212Z</time></trkpt><trkpt lat="43.6137591" lon="12.6383845"><ele>232.0</ele><time>2026-04-04T12:15:23.212Z</time></trkpt><trkpt lat="43.6137812" lon="12.6385952"><ele>232.0</ele><time>2026-04-04T12:15:24.213Z</time></trkpt><trkpt lat="43.6138053" lon="12.6388075"><ele>232.0</ele><time>2026-04-04T12:15:25.213Z</time></trkpt><trkpt lat="43.6138211" lon="12.6390178"><ele>231.75</ele><time>2026-04-04T12:15:26.212Z</time></trkpt><trkpt lat="43.6138357" lon="12.639226"><ele>231.5</ele><time>2026-04-04T12:15:27.212Z</time></trkpt><trkpt lat="43.6138367" lon="12.6394303"><ele>231.25</ele><time>2026-04-04T12:15:28.212Z</time></trkpt><trkpt lat="43.6138192" lon="12.6396272"><ele>231.0</ele><time>2026-04-04T12:15:29.212Z</time></trkpt><trkpt lat="43.6137918" lon="12.6398328"><ele>231.66666666666669</ele><time>2026-04-04T12:15:30.212Z</time></trkpt><trkpt lat="43.6137535" lon="12.6400391"><ele>232.33333333333334</ele><time>2026-04-04T12:15:31.212Z</time></trkpt><trkpt lat="43.6137046" lon="12.6402434"><ele>233.0</ele><time>2026-04-04T12:15:32.212Z</time></trkpt><trkpt lat="43.6136428" lon="12.6404467"><ele>230.33333333333334</ele><time>2026-04-04T12:15:33.212Z</time></trkpt><trkpt lat="43.6135715" lon="12.6406397"><ele>227.66666666666669</ele><time>2026-04-04T12:15:34.212Z</time></trkpt><trkpt lat="43.6134907" lon="12.6408283"><ele>225.0</ele><time>2026-04-04T12:15:35.212Z</time></trkpt><trkpt lat="43.6134162" lon="12.6410126"><ele>227.0</ele><time>2026-04-04T12:15:36.213Z</time></trkpt><trkpt lat="43.6133346" lon="12.6411846"><ele>229.0</ele><time>2026-04-04T12:15:37.213Z</time></trkpt><trkpt lat="43.61324" lon="12.6413478"><ele>231.0</ele><time>2026-04-04T12:15:38.212Z</time></trkpt><trkpt lat="43.6131541" lon="12.6415242"><ele>231.0</ele><time>2026-04-04T12:15:39.212Z</time></trkpt><trkpt lat="43.6130673" lon="12.641704"><ele>231.0</ele><time>2026-04-04T12:15:40.212Z</time></trkpt><trkpt lat="43.6129747" lon="12.6418866"><ele>231.0</ele><time>2026-04-04T12:15:41.212Z</time></trkpt><trkpt lat="43.6128834" lon="12.6420763"><ele>228.33333333333331</ele><time>2026-04-04T12:15:42.212Z</time></trkpt><trkpt lat="43.6127915" lon="12.6422694"><ele>225.66666666666666</ele><time>2026-04-04T12:15:43.212Z</time></trkpt><trkpt lat="43.6127033" lon="12.6424593"><ele>223.0</ele><time>2026-04-04T12:15:44.212Z</time></trkpt><trkpt lat="43.6126082" lon="12.6426488"><ele>224.66666666666666</ele><time>2026-04-04T12:15:45.212Z</time></trkpt><trkpt lat="43.6125218" lon="12.6428638"><ele>226.33333333333331</ele><time>2026-04-04T12:15:46.213Z</time></trkpt><trkpt lat="43.612433" lon="12.6430568"><ele>228.0</ele><time>2026-04-04T12:15:47.212Z</time></trkpt><trkpt lat="43.6123479" lon="12.6432459"><ele>228.0</ele><time>2026-04-04T12:15:48.212Z</time></trkpt><trkpt lat="43.6122861" lon="12.6434565"><ele>228.0</ele><time>2026-04-04T12:15:49.212Z</time></trkpt><trkpt lat="43.6122468" lon="12.6436643"><ele>228.0</ele><time>2026-04-04T12:15:50.213Z</time></trkpt><trkpt lat="43.6122279" lon="12.6438827"><ele>228.0</ele><time>2026-04-04T12:15:51.212Z</time></trkpt><trkpt lat="43.612232" lon="12.6440915"><ele>228.0</ele><time>2026-04-04T12:15:52.213Z</time></trkpt><trkpt lat="43.6122547" lon="12.6442855"><ele>228.0</ele><time>2026-04-04T12:15:53.212Z</time></trkpt><trkpt lat="43.6123003" lon="12.6444463"><ele>228.0</ele><time>2026-04-04T12:15:54.212Z</time></trkpt><trkpt lat="43.6123815" lon="12.6446158"><ele>226.5</ele><time>2026-04-04T12:15:55.212Z</time></trkpt><trkpt lat="43.61248" lon="12.6447617"><ele>225.0</ele><time>2026-04-04T12:15:56.212Z</time></trkpt><trkpt lat="43.6125915" lon="12.644899"><ele>223.5</ele><time>2026-04-04T12:15:57.213Z</time></trkpt><trkpt lat="43.6126953" lon="12.6450486"><ele>222.0</ele><time>2026-04-04T12:15:58.212Z</time></trkpt><trkpt lat="43.612793" lon="12.6452017"><ele>222.75</ele><time>2026-04-04T12:15:59.212Z</time></trkpt><trkpt lat="43.6128765" lon="12.6453666"><ele>223.5</ele><time>2026-04-04T12:16:00.212Z</time></trkpt><trkpt lat="43.6129438" lon="12.6455381"><ele>224.25</ele><time>2026-04-04T12:16:01.212Z</time></trkpt><trkpt lat="43.6130123" lon="12.6457124"><ele>225.0</ele><time>2026-04-04T12:16:02.212Z</time></trkpt><trkpt lat="43.613088" lon="12.6458827"><ele>225.0</ele><time>2026-04-04T12:16:03.212Z</time></trkpt><trkpt lat="43.6131573" lon="12.6460434"><ele>225.0</ele><time>2026-04-04T12:16:04.212Z</time></trkpt><trkpt lat="43.6132054" lon="12.6462175"><ele>225.0</ele><time>2026-04-04T12:16:05.212Z</time></trkpt><trkpt lat="43.6132363" lon="12.6464071"><ele>225.0</ele><time>2026-04-04T12:16:06.212Z</time></trkpt><trkpt lat="43.6132376" lon="12.6466062"><ele>223.66666666666669</ele><time>2026-04-04T12:16:07.212Z</time></trkpt><trkpt lat="43.6132204" lon="12.6468115"><ele>222.33333333333334</ele><time>2026-04-04T12:16:08.213Z</time></trkpt><trkpt lat="43.6131888" lon="12.6470186"><ele>221.0</ele><time>2026-04-04T12:16:09.213Z</time></trkpt><trkpt lat="43.6131587" lon="12.6472245"><ele>221.0</ele><time>2026-04-04T12:16:10.213Z</time></trkpt><trkpt lat="43.6131317" lon="12.6474265"><ele>221.0</ele><time>2026-04-04T12:16:11.212Z</time></trkpt><trkpt lat="43.6131171" lon="12.6476339"><ele>221.0</ele><time>2026-04-04T12:16:12.213Z</time></trkpt><trkpt lat="43.6131108" lon="12.6478317"><ele>221.0</ele><time>2026-04-04T12:16:13.213Z</time></trkpt><trkpt lat="43.613122" lon="12.6480323"><ele>221.25</ele><time>2026-04-04T12:16:14.212Z</time></trkpt><trkpt lat="43.6131424" lon="12.6482378"><ele>221.5</ele><time>2026-04-04T12:16:15.212Z</time></trkpt><trkpt lat="43.6131797" lon="12.648428"><ele>221.75</ele><time>2026-04-04T12:16:16.212Z</time></trkpt><trkpt lat="43.6132432" lon="12.6486117"><ele>222.0</ele><time>2026-04-04T12:16:17.213Z</time></trkpt><trkpt lat="43.6133134" lon="12.6487948"><ele>221.33333333333331</ele><time>2026-04-04T12:16:18.212Z</time></trkpt><trkpt lat="43.6133913" lon="12.6489728"><ele>220.66666666666666</ele><time>2026-04-04T12:16:19.212Z</time></trkpt><trkpt lat="43.6134719" lon="12.6491476"><ele>220.0</ele><time>2026-04-04T12:16:20.212Z</time></trkpt><trkpt lat="43.6135527" lon="12.6493305"><ele>219.25</ele><time>2026-04-04T12:16:21.213Z</time></trkpt><trkpt lat="43.6136278" lon="12.6495014"><ele>218.5</ele><time>2026-04-04T12:16:22.212Z</time></trkpt><trkpt lat="43.6137089" lon="12.6496753"><ele>217.75</ele><time>2026-04-04T12:16:23.212Z</time></trkpt><trkpt lat="43.6137865" lon="12.6498473"><ele>217.0</ele><time>2026-04-04T12:16:24.212Z</time></trkpt><trkpt lat="43.6138636" lon="12.6500212"><ele>217.75</ele><time>2026-04-04T12:16:25.212Z</time></trkpt><trkpt lat="43.6139456" lon="12.6501967"><ele>218.5</ele><time>2026-04-04T12:16:26.212Z</time></trkpt><trkpt lat="43.6140228" lon="12.650374"><ele>219.25</ele><time>2026-04-04T12:16:27.213Z</time></trkpt><trkpt lat="43.6140916" lon="12.6505457"><ele>220.0</ele><time>2026-04-04T12:16:28.212Z</time></trkpt><trkpt lat="43.6141512" lon="12.6507318"><ele>220.0</ele><time>2026-04-04T12:16:29.212Z</time></trkpt><trkpt lat="43.6142015" lon="12.6509153"><ele>220.0</ele><time>2026-04-04T12:16:30.213Z</time></trkpt><trkpt lat="43.6142333" lon="12.6511054"><ele>220.0</ele><time>2026-04-04T12:16:31.213Z</time></trkpt><trkpt lat="43.6142491" lon="12.6512942"><ele>220.0</ele><time>2026-04-04T12:16:32.212Z</time></trkpt><trkpt lat="43.6142622" lon="12.6514973"><ele>219.66666666666666</ele><time>2026-04-04T12:16:33.213Z</time></trkpt><trkpt lat="43.6142646" lon="12.6517067"><ele>219.33333333333331</ele><time>2026-04-04T12:16:34.212Z</time></trkpt><trkpt lat="43.6142653" lon="12.6519224"><ele>219.0</ele><time>2026-04-04T12:16:35.213Z</time></trkpt><trkpt lat="43.6142649" lon="12.6521592"><ele>219.0</ele><time>2026-04-04T12:16:36.213Z</time></trkpt><trkpt lat="43.6142717" lon="12.6524273"><ele>219.0</ele><time>2026-04-04T12:16:37.212Z</time></trkpt><trkpt lat="43.6142728" lon="12.6527255"><ele>219.0</ele><time>2026-04-04T12:16:38.213Z</time></trkpt><trkpt lat="43.6142635" lon="12.6530452"><ele>217.0</ele><time>2026-04-04T12:16:39.212Z</time></trkpt><trkpt lat="43.6142663" lon="12.6533833"><ele>215.0</ele><time>2026-04-04T12:16:40.212Z</time></trkpt><trkpt lat="43.6142651" lon="12.6537081"><ele>214.33333333333334</ele><time>2026-04-04T12:16:41.212Z</time></trkpt><trkpt lat="43.6142643" lon="12.6540091"><ele>213.66666666666669</ele><time>2026-04-04T12:16:42.213Z</time></trkpt><trkpt lat="43.6142543" lon="12.6542915"><ele>213.0</ele><time>2026-04-04T12:16:43.212Z</time></trkpt><trkpt lat="43.614244" lon="12.6545439"><ele>213.0</ele><time>2026-04-04T12:16:44.212Z</time></trkpt><trkpt lat="43.6142424" lon="12.6547755"><ele>213.0</ele><time>2026-04-04T12:16:45.212Z</time></trkpt><trkpt lat="43.6142441" lon="12.6549859"><ele>213.0</ele><time>2026-04-04T12:16:46.212Z</time></trkpt><trkpt lat="43.6142502" lon="12.6551932"><ele>213.25</ele><time>2026-04-04T12:16:47.212Z</time></trkpt><trkpt lat="43.6142564" lon="12.6553909"><ele>213.5</ele><time>2026-04-04T12:16:48.212Z</time></trkpt><trkpt lat="43.6142633" lon="12.6555898"><ele>213.75</ele><time>2026-04-04T12:16:49.213Z</time></trkpt><trkpt lat="43.6142748" lon="12.6557865"><ele>214.0</ele><time>2026-04-04T12:16:50.212Z</time></trkpt><trkpt lat="43.6143005" lon="12.6559975"><ele>213.66666666666666</ele><time>2026-04-04T12:16:51.212Z</time></trkpt><trkpt lat="43.6143404" lon="12.6561954"><ele>213.33333333333331</ele><time>2026-04-04T12:16:52.213Z</time></trkpt><trkpt lat="43.6144104" lon="12.6563876"><ele>213.0</ele><time>2026-04-04T12:16:53.212Z</time></trkpt><trkpt lat="43.6144857" lon="12.6565702"><ele>214.5</ele><time>2026-04-04T12:16:54.212Z</time></trkpt><trkpt lat="43.6145586" lon="12.656753"><ele>216.0</ele><time>2026-04-04T12:16:55.212Z</time></trkpt><trkpt lat="43.6146219" lon="12.6569331"><ele>217.5</ele><time>2026-04-04T12:16:56.213Z</time></trkpt><trkpt lat="43.6146742" lon="12.6571137"><ele>219.0</ele><time>2026-04-04T12:16:57.212Z</time></trkpt><trkpt lat="43.6147358" lon="12.6572946"><ele>219.0</ele><time>2026-04-04T12:16:58.212Z</time></trkpt><trkpt lat="43.6147993" lon="12.6574817"><ele>219.0</ele><time>2026-04-04T12:16:59.212Z</time></trkpt><trkpt lat="43.6148612" lon="12.6576541"><ele>219.0</ele><time>2026-04-04T12:17:00.212Z</time></trkpt><trkpt lat="43.6149262" lon="12.6578285"><ele>219.0</ele><time>2026-04-04T12:17:01.212Z</time></trkpt><trkpt lat="43.6149712" lon="12.6579971"><ele>218.79999999999998</ele><time>2026-04-04T12:17:02.212Z</time></trkpt><trkpt lat="43.6150084" lon="12.6581593"><ele>218.59999999999997</ele><time>2026-04-04T12:17:03.212Z</time></trkpt><trkpt lat="43.6150312" lon="12.6583101"><ele>218.4</ele><time>2026-04-04T12:17:04.212Z</time></trkpt><trkpt lat="43.6150365" lon="12.6584457"><ele>218.2</ele><time>2026-04-04T12:17:05.212Z</time></trkpt><trkpt lat="43.6150351" lon="12.658568"><ele>218.0</ele><time>2026-04-04T12:17:06.212Z</time></trkpt><trkpt lat="43.6150175" lon="12.6586792"><ele>217.66666666666669</ele><time>2026-04-04T12:17:07.213Z</time></trkpt><trkpt lat="43.614976" lon="12.6587782"><ele>217.33333333333334</ele><time>2026-04-04T12:17:08.212Z</time></trkpt><trkpt lat="43.6149309" lon="12.6588609"><ele>217.0</ele><time>2026-04-04T12:17:09.212Z</time></trkpt><trkpt lat="43.6149112" lon="12.6589649"><ele>216.66666666666669</ele><time>2026-04-04T12:17:10.213Z</time></trkpt><trkpt lat="43.6149161" lon="12.6590697"><ele>216.33333333333334</ele><time>2026-04-04T12:17:11.212Z</time></trkpt><trkpt lat="43.6149377" lon="12.6591813"><ele>216.0</ele><time>2026-04-04T12:17:12.213Z</time></trkpt><trkpt lat="43.6149863" lon="12.6592728"><ele>216.0</ele><time>2026-04-04T12:17:13.213Z</time></trkpt><trkpt lat="43.6150065" lon="12.6594129"><ele>216.0</ele><time>2026-04-04T12:17:14.213Z</time></trkpt><trkpt lat="43.6150138" lon="12.6595686"><ele>216.0</ele><time>2026-04-04T12:17:15.212Z</time></trkpt><trkpt lat="43.6150262" lon="12.6597406"><ele>216.0</ele><time>2026-04-04T12:17:16.213Z</time></trkpt><trkpt lat="43.615063" lon="12.6599658"><ele>216.0</ele><time>2026-04-04T12:17:17.213Z</time></trkpt><trkpt lat="43.6151078" lon="12.6602316"><ele>216.0</ele><time>2026-04-04T12:17:18.212Z</time></trkpt><trkpt lat="43.615153" lon="12.660511"><ele>216.0</ele><time>2026-04-04T12:17:19.213Z</time></trkpt><trkpt lat="43.6151903" lon="12.6607814"><ele>216.0</ele><time>2026-04-04T12:17:20.212Z</time></trkpt><trkpt lat="43.6152384" lon="12.6610551"><ele>216.0</ele><time>2026-04-04T12:17:21.212Z</time></trkpt><trkpt lat="43.6152835" lon="12.6613359"><ele>216.0</ele><time>2026-04-04T12:17:22.212Z</time></trkpt><trkpt lat="43.6153299" lon="12.661611"><ele>219.33333333333331</ele><time>2026-04-04T12:17:23.212Z</time></trkpt><trkpt lat="43.6153729" lon="12.6618867"><ele>222.66666666666666</ele><time>2026-04-04T12:17:24.212Z</time></trkpt><trkpt lat="43.6154223" lon="12.662162"><ele>226.0</ele><time>2026-04-04T12:17:25.212Z</time></trkpt><trkpt lat="43.615467" lon="12.6624339"><ele>226.0</ele><time>2026-04-04T12:17:26.212Z</time></trkpt><trkpt lat="43.6155105" lon="12.6627007"><ele>226.0</ele><time>2026-04-04T12:17:27.213Z</time></trkpt><trkpt lat="43.6155632" lon="12.6629672"><ele>226.0</ele><time>2026-04-04T12:17:28.212Z</time></trkpt><trkpt lat="43.6156092" lon="12.6632349"><ele>226.0</ele><time>2026-04-04T12:17:29.212Z</time></trkpt><trkpt lat="43.6156528" lon="12.6635049"><ele>226.0</ele><time>2026-04-04T12:17:30.212Z</time></trkpt><trkpt lat="43.6156996" lon="12.663784"><ele>226.0</ele><time>2026-04-04T12:17:31.212Z</time></trkpt><trkpt lat="43.6157477" lon="12.6640535"><ele>226.0</ele><time>2026-04-04T12:17:32.212Z</time></trkpt><trkpt lat="43.6157967" lon="12.6643214"><ele>226.0</ele><time>2026-04-04T12:17:33.212Z</time></trkpt><trkpt lat="43.6158457" lon="12.664592"><ele>226.0</ele><time>2026-04-04T12:17:34.213Z</time></trkpt><trkpt lat="43.6158939" lon="12.6648588"><ele>223.33333333333331</ele><time>2026-04-04T12:17:35.212Z</time></trkpt><trkpt lat="43.6159379" lon="12.6651226"><ele>220.66666666666669</ele><time>2026-04-04T12:17:36.212Z</time></trkpt><trkpt lat="43.6159722" lon="12.6653845"><ele>218.0</ele><time>2026-04-04T12:17:37.212Z</time></trkpt><trkpt lat="43.6159894" lon="12.6656404"><ele>214.33333333333334</ele><time>2026-04-04T12:17:38.212Z</time></trkpt><trkpt lat="43.6160024" lon="12.6658997"><ele>210.66666666666669</ele><time>2026-04-04T12:17:39.212Z</time></trkpt><trkpt lat="43.6160022" lon="12.6661576"><ele>207.0</ele><time>2026-04-04T12:17:40.213Z</time></trkpt><trkpt lat="43.6159947" lon="12.6664224"><ele>205.66666666666669</ele><time>2026-04-04T12:17:41.213Z</time></trkpt><trkpt lat="43.6159826" lon="12.6666857"><ele>204.33333333333334</ele><time>2026-04-04T12:17:42.212Z</time></trkpt><trkpt lat="43.6159593" lon="12.6669526"><ele>203.0</ele><time>2026-04-04T12:17:43.212Z</time></trkpt><trkpt lat="43.6159329" lon="12.6672174"><ele>203.0</ele><time>2026-04-04T12:17:44.213Z</time></trkpt><trkpt lat="43.6158896" lon="12.6674828"><ele>203.0</ele><time>2026-04-04T12:17:45.212Z</time></trkpt><trkpt lat="43.6158421" lon="12.6677409"><ele>203.0</ele><time>2026-04-04T12:17:46.212Z</time></trkpt><trkpt lat="43.6157854" lon="12.6679973"><ele>203.33333333333334</ele><time>2026-04-04T12:17:47.212Z</time></trkpt><trkpt lat="43.615724" lon="12.6682517"><ele>203.66666666666669</ele><time>2026-04-04T12:17:48.212Z</time></trkpt><trkpt lat="43.6156558" lon="12.6685025"><ele>204.0</ele><time>2026-04-04T12:17:49.212Z</time></trkpt><trkpt lat="43.6155867" lon="12.668756"><ele>203.33333333333331</ele><time>2026-04-04T12:17:50.212Z</time></trkpt><trkpt lat="43.6155243" lon="12.6690041"><ele>202.66666666666666</ele><time>2026-04-04T12:17:51.212Z</time></trkpt><trkpt lat="43.6154549" lon="12.6692638"><ele>202.0</ele><time>2026-04-04T12:17:52.212Z</time></trkpt><trkpt lat="43.6153759" lon="12.6695257"><ele>203.0</ele><time>2026-04-04T12:17:53.213Z</time></trkpt><trkpt lat="43.6153021" lon="12.6697857"><ele>204.0</ele><time>2026-04-04T12:17:54.212Z</time></trkpt><trkpt lat="43.61523" lon="12.6700404"><ele>205.0</ele><time>2026-04-04T12:17:55.212Z</time></trkpt><trkpt lat="43.6151672" lon="12.6703071"><ele>205.0</ele><time>2026-04-04T12:17:56.212Z</time></trkpt><trkpt lat="43.6151027" lon="12.6705634"><ele>205.0</ele><time>2026-04-04T12:17:57.213Z</time></trkpt><trkpt lat="43.6150339" lon="12.6708137"><ele>205.0</ele><time>2026-04-04T12:17:58.212Z</time></trkpt><trkpt lat="43.6149689" lon="12.6710585"><ele>204.66666666666666</ele><time>2026-04-04T12:17:59.212Z</time></trkpt><trkpt lat="43.6149088" lon="12.6713043"><ele>204.33333333333331</ele><time>2026-04-04T12:18:00.212Z</time></trkpt><trkpt lat="43.6148447" lon="12.671539"><ele>204.0</ele><time>2026-04-04T12:18:01.212Z</time></trkpt><trkpt lat="43.6147763" lon="12.6717724"><ele>203.33333333333331</ele><time>2026-04-04T12:18:02.213Z</time></trkpt><trkpt lat="43.6147072" lon="12.6719987"><ele>202.66666666666666</ele><time>2026-04-04T12:18:03.212Z</time></trkpt><trkpt lat="43.6146334" lon="12.6722256"><ele>202.0</ele><time>2026-04-04T12:18:04.212Z</time></trkpt><trkpt lat="43.6145394" lon="12.6724514"><ele>203.66666666666666</ele><time>2026-04-04T12:18:05.212Z</time></trkpt><trkpt lat="43.6144447" lon="12.6726563"><ele>205.33333333333331</ele><time>2026-04-04T12:18:06.212Z</time></trkpt><trkpt lat="43.6143476" lon="12.6728389"><ele>207.0</ele><time>2026-04-04T12:18:07.212Z</time></trkpt><trkpt lat="43.6142463" lon="12.6730069"><ele>207.0</ele><time>2026-04-04T12:18:08.213Z</time></trkpt><trkpt lat="43.6141492" lon="12.6731531"><ele>207.0</ele><time>2026-04-04T12:18:09.213Z</time></trkpt><trkpt lat="43.6140565" lon="12.6733022"><ele>207.0</ele><time>2026-04-04T12:18:10.212Z</time></trkpt><trkpt lat="43.6139684" lon="12.6734604"><ele>207.0</ele><time>2026-04-04T12:18:11.212Z</time></trkpt><trkpt lat="43.6138921" lon="12.6736379"><ele>206.75</ele><time>2026-04-04T12:18:12.212Z</time></trkpt><trkpt lat="43.6138316" lon="12.6738185"><ele>206.5</ele><time>2026-04-04T12:18:13.213Z</time></trkpt><trkpt lat="43.6137837" lon="12.6739987"><ele>206.25</ele><time>2026-04-04T12:18:14.213Z</time></trkpt><trkpt lat="43.6137421" lon="12.6741892"><ele>206.0</ele><time>2026-04-04T12:18:15.212Z</time></trkpt><trkpt lat="43.6137092" lon="12.6743666"><ele>205.75</ele><time>2026-04-04T12:18:16.212Z</time></trkpt><trkpt lat="43.6136782" lon="12.6745281"><ele>205.5</ele><time>2026-04-04T12:18:17.212Z</time></trkpt><trkpt lat="43.6136287" lon="12.6746744"><ele>205.25</ele><time>2026-04-04T12:18:18.212Z</time></trkpt><trkpt lat="43.6135525" lon="12.6748045"><ele>205.0</ele><time>2026-04-04T12:18:19.212Z</time></trkpt><trkpt lat="43.6134555" lon="12.6749129"><ele>204.75</ele><time>2026-04-04T12:18:20.213Z</time></trkpt><trkpt lat="43.6133279" lon="12.674975"><ele>204.5</ele><time>2026-04-04T12:18:21.212Z</time></trkpt><trkpt lat="43.6131816" lon="12.6750001"><ele>204.25</ele><time>2026-04-04T12:18:22.212Z</time></trkpt><trkpt lat="43.6130339" lon="12.6750591"><ele>204.0</ele><time>2026-04-04T12:18:23.212Z</time></trkpt><trkpt lat="43.6128698" lon="12.6750912"><ele>203.33333333333331</ele><time>2026-04-04T12:18:24.212Z</time></trkpt><trkpt lat="43.6127005" lon="12.6751269"><ele>202.66666666666666</ele><time>2026-04-04T12:18:25.212Z</time></trkpt><trkpt lat="43.6125263" lon="12.6751777"><ele>202.0</ele><time>2026-04-04T12:18:26.212Z</time></trkpt><trkpt lat="43.6123449" lon="12.6752245"><ele>202.0</ele><time>2026-04-04T12:18:27.213Z</time></trkpt><trkpt lat="43.6121655" lon="12.6752667"><ele>202.0</ele><time>2026-04-04T12:18:28.212Z</time></trkpt><trkpt lat="43.6119821" lon="12.6753071"><ele>202.0</ele><time>2026-04-04T12:18:29.213Z</time></trkpt><trkpt lat="43.6117973" lon="12.6753276"><ele>201.66666666666666</ele><time>2026-04-04T12:18:30.212Z</time></trkpt><trkpt lat="43.6116058" lon="12.6753413"><ele>201.33333333333331</ele><time>2026-04-04T12:18:31.212Z</time></trkpt><trkpt lat="43.6113983" lon="12.6753557"><ele>201.0</ele><time>2026-04-04T12:18:32.212Z</time></trkpt><trkpt lat="43.6111652" lon="12.6753853"><ele>202.0</ele><time>2026-04-04T12:18:33.212Z</time></trkpt><trkpt lat="43.6109311" lon="12.6754171"><ele>203.0</ele><time>2026-04-04T12:18:34.212Z</time></trkpt><trkpt lat="43.610702" lon="12.6754413"><ele>203.0</ele><time>2026-04-04T12:18:35.212Z</time></trkpt><trkpt lat="43.6104694" lon="12.67547"><ele>203.0</ele><time>2026-04-04T12:18:36.213Z</time></trkpt><trkpt lat="43.6102339" lon="12.6754828"><ele>203.5</ele><time>2026-04-04T12:18:37.213Z</time></trkpt><trkpt lat="43.6099929" lon="12.6754919"><ele>204.0</ele><time>2026-04-04T12:18:38.213Z</time></trkpt><trkpt lat="43.6097595" lon="12.6755047"><ele>204.0</ele><time>2026-04-04T12:18:39.213Z</time></trkpt><trkpt lat="43.6095227" lon="12.6755303"><ele>204.0</ele><time>2026-04-04T12:18:40.212Z</time></trkpt><trkpt lat="43.6092938" lon="12.6755413"><ele>204.0</ele><time>2026-04-04T12:18:41.212Z</time></trkpt><trkpt lat="43.6090666" lon="12.6755591"><ele>204.0</ele><time>2026-04-04T12:18:42.212Z</time></trkpt><trkpt lat="43.6088388" lon="12.6755754"><ele>203.66666666666669</ele><time>2026-04-04T12:18:43.213Z</time></trkpt><trkpt lat="43.6086094" lon="12.6755866"><ele>203.33333333333334</ele><time>2026-04-04T12:18:44.212Z</time></trkpt><trkpt lat="43.6083948" lon="12.6755902"><ele>203.0</ele><time>2026-04-04T12:18:45.212Z</time></trkpt><trkpt lat="43.6081674" lon="12.6755973"><ele>203.0</ele><time>2026-04-04T12:18:46.212Z</time></trkpt><trkpt lat="43.6079305" lon="12.6756205"><ele>203.0</ele><time>2026-04-04T12:18:47.212Z</time></trkpt><trkpt lat="43.6076878" lon="12.6756382"><ele>204.5</ele><time>2026-04-04T12:18:48.212Z</time></trkpt><trkpt lat="43.6074401" lon="12.6756532"><ele>206.0</ele><time>2026-04-04T12:18:49.212Z</time></trkpt><trkpt lat="43.6071895" lon="12.6756649"><ele>205.0</ele><time>2026-04-04T12:18:50.213Z</time></trkpt><trkpt lat="43.6069411" lon="12.6756795"><ele>204.0</ele><time>2026-04-04T12:18:51.212Z</time></trkpt><trkpt lat="43.6066978" lon="12.6756922"><ele>204.0</ele><time>2026-04-04T12:18:52.212Z</time></trkpt><trkpt lat="43.6064512" lon="12.6757069"><ele>204.0</ele><time>2026-04-04T12:18:53.212Z</time></trkpt><trkpt lat="43.6062096" lon="12.6757199"><ele>205.5</ele><time>2026-04-04T12:18:54.213Z</time></trkpt><trkpt lat="43.6059676" lon="12.6757315"><ele>207.0</ele><time>2026-04-04T12:18:55.212Z</time></trkpt><trkpt lat="43.605732" lon="12.6757441"><ele>207.0</ele><time>2026-04-04T12:18:56.212Z</time></trkpt><trkpt lat="43.6055003" lon="12.6757632"><ele>207.0</ele><time>2026-04-04T12:18:57.212Z</time></trkpt><trkpt lat="43.6052668" lon="12.675783"><ele>207.0</ele><time>2026-04-04T12:18:58.212Z</time></trkpt><trkpt lat="43.6050346" lon="12.6757984"><ele>207.0</ele><time>2026-04-04T12:18:59.213Z</time></trkpt><trkpt lat="43.6048079" lon="12.6758105"><ele>207.0</ele><time>2026-04-04T12:19:00.212Z</time></trkpt><trkpt lat="43.6045866" lon="12.6758425"><ele>207.0</ele><time>2026-04-04T12:19:01.213Z</time></trkpt><trkpt lat="43.6043561" lon="12.6758549"><ele>209.0</ele><time>2026-04-04T12:19:02.212Z</time></trkpt><trkpt lat="43.6041291" lon="12.6758663"><ele>211.0</ele><time>2026-04-04T12:19:03.212Z</time></trkpt><trkpt lat="43.6039029" lon="12.6758817"><ele>211.0</ele><time>2026-04-04T12:19:04.212Z</time></trkpt><trkpt lat="43.6036781" lon="12.6758993"><ele>211.0</ele><time>2026-04-04T12:19:05.212Z</time></trkpt><trkpt lat="43.6034499" lon="12.6759118"><ele>211.0</ele><time>2026-04-04T12:19:06.213Z</time></trkpt><trkpt lat="43.6032206" lon="12.6759269"><ele>211.0</ele><time>2026-04-04T12:19:07.212Z</time></trkpt><trkpt lat="43.6029878" lon="12.6759406"><ele>210.5</ele><time>2026-04-04T12:19:08.212Z</time></trkpt><trkpt lat="43.6027623" lon="12.6759541"><ele>210.0</ele><time>2026-04-04T12:19:09.212Z</time></trkpt><trkpt lat="43.6025373" lon="12.6759651"><ele>210.0</ele><time>2026-04-04T12:19:10.213Z</time></trkpt><trkpt lat="43.6023099" lon="12.6759786"><ele>210.0</ele><time>2026-04-04T12:19:11.212Z</time></trkpt><trkpt lat="43.6020877" lon="12.6759796"><ele>211.0</ele><time>2026-04-04T12:19:12.213Z</time></trkpt><trkpt lat="43.6018613" lon="12.6759855"><ele>212.0</ele><time>2026-04-04T12:19:13.213Z</time></trkpt><trkpt lat="43.6016345" lon="12.675987"><ele>212.0</ele><time>2026-04-04T12:19:14.213Z</time></trkpt><trkpt lat="43.6014082" lon="12.6759906"><ele>212.0</ele><time>2026-04-04T12:19:15.212Z</time></trkpt><trkpt lat="43.6011829" lon="12.6759902"><ele>213.0</ele><time>2026-04-04T12:19:16.212Z</time></trkpt><trkpt lat="43.6009575" lon="12.6759933"><ele>214.0</ele><time>2026-04-04T12:19:17.213Z</time></trkpt><trkpt lat="43.6007313" lon="12.6759992"><ele>214.0</ele><time>2026-04-04T12:19:18.212Z</time></trkpt><trkpt lat="43.6005156" lon="12.6760144"><ele>214.0</ele><time>2026-04-04T12:19:19.212Z</time></trkpt><trkpt lat="43.6002928" lon="12.6760174"><ele>214.0</ele><time>2026-04-04T12:19:20.213Z</time></trkpt><trkpt lat="43.600075" lon="12.6760216"><ele>214.33333333333331</ele><time>2026-04-04T12:19:21.213Z</time></trkpt><trkpt lat="43.5998632" lon="12.6760172"><ele>214.66666666666669</ele><time>2026-04-04T12:19:22.213Z</time></trkpt><trkpt lat="43.5996438" lon="12.6760311"><ele>215.0</ele><time>2026-04-04T12:19:23.212Z</time></trkpt><trkpt lat="43.5994302" lon="12.6760328"><ele>215.0</ele><time>2026-04-04T12:19:24.212Z</time></trkpt><trkpt lat="43.5992126" lon="12.6760359"><ele>215.0</ele><time>2026-04-04T12:19:25.212Z</time></trkpt><trkpt lat="43.5989909" lon="12.6760384"><ele>215.0</ele><time>2026-04-04T12:19:26.212Z</time></trkpt><trkpt lat="43.5987802" lon="12.6760475"><ele>215.66666666666669</ele><time>2026-04-04T12:19:27.212Z</time></trkpt><trkpt lat="43.5985566" lon="12.676054"><ele>216.33333333333331</ele><time>2026-04-04T12:19:28.213Z</time></trkpt><trkpt lat="43.5983383" lon="12.676057"><ele>217.0</ele><time>2026-04-04T12:19:29.213Z</time></trkpt><trkpt lat="43.5981113" lon="12.676053"><ele>217.0</ele><time>2026-04-04T12:19:30.212Z</time></trkpt><trkpt lat="43.5978873" lon="12.6760557"><ele>217.0</ele><time>2026-04-04T12:19:31.212Z</time></trkpt><trkpt lat="43.5976672" lon="12.6760638"><ele>217.0</ele><time>2026-04-04T12:19:32.212Z</time></trkpt><trkpt lat="43.5974449" lon="12.6760683"><ele>217.66666666666666</ele><time>2026-04-04T12:19:33.212Z</time></trkpt><trkpt lat="43.5972227" lon="12.6760793"><ele>218.33333333333331</ele><time>2026-04-04T12:19:34.212Z</time></trkpt><trkpt lat="43.5970028" lon="12.6760827"><ele>219.0</ele><time>2026-04-04T12:19:35.212Z</time></trkpt><trkpt lat="43.5967756" lon="12.6760881"><ele>219.66666666666669</ele><time>2026-04-04T12:19:36.212Z</time></trkpt><trkpt lat="43.5965527" lon="12.6760915"><ele>220.33333333333334</ele><time>2026-04-04T12:19:37.212Z</time></trkpt><trkpt lat="43.5963295" lon="12.6760884"><ele>221.0</ele><time>2026-04-04T12:19:38.212Z</time></trkpt><trkpt lat="43.5961102" lon="12.6760692"><ele>222.33333333333334</ele><time>2026-04-04T12:19:39.212Z</time></trkpt><trkpt lat="43.5958972" lon="12.6760717"><ele>223.66666666666669</ele><time>2026-04-04T12:19:40.212Z</time></trkpt><trkpt lat="43.5956862" lon="12.6760784"><ele>225.0</ele><time>2026-04-04T12:19:41.212Z</time></trkpt><trkpt lat="43.5954874" lon="12.6760786"><ele>225.0</ele><time>2026-04-04T12:19:42.213Z</time></trkpt><trkpt lat="43.5952859" lon="12.67608"><ele>225.0</ele><time>2026-04-04T12:19:43.213Z</time></trkpt><trkpt lat="43.5950992" lon="12.6760848"><ele>225.0</ele><time>2026-04-04T12:19:44.213Z</time></trkpt><trkpt lat="43.5949198" lon="12.6760876"><ele>225.0</ele><time>2026-04-04T12:19:45.212Z</time></trkpt><trkpt lat="43.5947458" lon="12.676095"><ele>225.0</ele><time>2026-04-04T12:19:46.213Z</time></trkpt><trkpt lat="43.5945782" lon="12.6761167"><ele>225.0</ele><time>2026-04-04T12:19:47.213Z</time></trkpt><trkpt lat="43.5944083" lon="12.6761206"><ele>223.0</ele><time>2026-04-04T12:19:48.213Z</time></trkpt><trkpt lat="43.5942441" lon="12.6761239"><ele>221.0</ele><time>2026-04-04T12:19:49.213Z</time></trkpt><trkpt lat="43.5940799" lon="12.6761254"><ele>219.0</ele><time>2026-04-04T12:19:50.213Z</time></trkpt><trkpt lat="43.5939187" lon="12.6761242"><ele>219.0</ele><time>2026-04-04T12:19:51.213Z</time></trkpt><trkpt lat="43.5937536" lon="12.67612"><ele>219.0</ele><time>2026-04-04T12:19:52.212Z</time></trkpt><trkpt lat="43.5935886" lon="12.6761181"><ele>219.0</ele><time>2026-04-04T12:19:53.212Z</time></trkpt><trkpt lat="43.5934338" lon="12.6761129"><ele>218.33333333333331</ele><time>2026-04-04T12:19:54.213Z</time></trkpt><trkpt lat="43.5932752" lon="12.6761104"><ele>217.66666666666666</ele><time>2026-04-04T12:19:55.213Z</time></trkpt><trkpt lat="43.5931119" lon="12.6761009"><ele>217.0</ele><time>2026-04-04T12:19:56.212Z</time></trkpt><trkpt lat="43.5929479" lon="12.6760838"><ele>218.33333333333331</ele><time>2026-04-04T12:19:57.213Z</time></trkpt><trkpt lat="43.5927834" lon="12.6760587"><ele>219.66666666666669</ele><time>2026-04-04T12:19:58.212Z</time></trkpt><trkpt lat="43.5926244" lon="12.67603"><ele>221.0</ele><time>2026-04-04T12:19:59.212Z</time></trkpt><trkpt lat="43.5924586" lon="12.6759931"><ele>221.0</ele><time>2026-04-04T12:20:00.212Z</time></trkpt><trkpt lat="43.5922951" lon="12.6759608"><ele>221.0</ele><time>2026-04-04T12:20:01.212Z</time></trkpt><trkpt lat="43.592144" lon="12.6759226"><ele>221.0</ele><time>2026-04-04T12:20:02.213Z</time></trkpt><trkpt lat="43.5919902" lon="12.6758754"><ele>221.66666666666669</ele><time>2026-04-04T12:20:03.213Z</time></trkpt><trkpt lat="43.5918372" lon="12.6758243"><ele>222.33333333333331</ele><time>2026-04-04T12:20:04.213Z</time></trkpt><trkpt lat="43.5916852" lon="12.6757743"><ele>223.0</ele><time>2026-04-04T12:20:05.212Z</time></trkpt><trkpt lat="43.5915425" lon="12.6757297"><ele>223.0</ele><time>2026-04-04T12:20:06.212Z</time></trkpt><trkpt lat="43.5913841" lon="12.6756861"><ele>223.0</ele><time>2026-04-04T12:20:07.213Z</time></trkpt><trkpt lat="43.5912324" lon="12.6756309"><ele>223.0</ele><time>2026-04-04T12:20:08.213Z</time></trkpt><trkpt lat="43.5910841" lon="12.6755711"><ele>221.66666666666666</ele><time>2026-04-04T12:20:09.212Z</time></trkpt><trkpt lat="43.5909364" lon="12.6755234"><ele>220.33333333333331</ele><time>2026-04-04T12:20:10.212Z</time></trkpt><trkpt lat="43.5907862" lon="12.6754694"><ele>219.0</ele><time>2026-04-04T12:20:11.212Z</time></trkpt><trkpt lat="43.5906352" lon="12.6754148"><ele>219.0</ele><time>2026-04-04T12:20:12.212Z</time></trkpt><trkpt lat="43.5904877" lon="12.6753517"><ele>219.0</ele><time>2026-04-04T12:20:13.212Z</time></trkpt><trkpt lat="43.5903347" lon="12.6752954"><ele>219.0</ele><time>2026-04-04T12:20:14.212Z</time></trkpt><trkpt lat="43.5901736" lon="12.675232"><ele>221.66666666666669</ele><time>2026-04-04T12:20:15.213Z</time></trkpt><trkpt lat="43.5900125" lon="12.6751666"><ele>224.33333333333334</ele><time>2026-04-04T12:20:16.212Z</time></trkpt><trkpt lat="43.5898521" lon="12.6751017"><ele>227.0</ele><time>2026-04-04T12:20:17.212Z</time></trkpt><trkpt lat="43.5896912" lon="12.6750384"><ele>227.0</ele><time>2026-04-04T12:20:18.212Z</time></trkpt><trkpt lat="43.5895274" lon="12.6749784"><ele>227.0</ele><time>2026-04-04T12:20:19.212Z</time></trkpt><trkpt lat="43.5893644" lon="12.6749177"><ele>227.0</ele><time>2026-04-04T12:20:20.212Z</time></trkpt><trkpt lat="43.5892051" lon="12.6748604"><ele>227.0</ele><time>2026-04-04T12:20:21.212Z</time></trkpt><trkpt lat="43.5890457" lon="12.6748023"><ele>227.0</ele><time>2026-04-04T12:20:22.212Z</time></trkpt><trkpt lat="43.588892" lon="12.6747534"><ele>227.0</ele><time>2026-04-04T12:20:23.213Z</time></trkpt><trkpt lat="43.5887344" lon="12.6746967"><ele>223.66666666666669</ele><time>2026-04-04T12:20:24.212Z</time></trkpt><trkpt lat="43.5885849" lon="12.6746475"><ele>220.33333333333331</ele><time>2026-04-04T12:20:25.212Z</time></trkpt><trkpt lat="43.5884339" lon="12.6745922"><ele>217.0</ele><time>2026-04-04T12:20:26.213Z</time></trkpt><trkpt lat="43.5882823" lon="12.6745366"><ele>217.0</ele><time>2026-04-04T12:20:27.212Z</time></trkpt><trkpt lat="43.5881273" lon="12.6744843"><ele>217.0</ele><time>2026-04-04T12:20:28.212Z</time></trkpt><trkpt lat="43.587968" lon="12.6744242"><ele>217.0</ele><time>2026-04-04T12:20:29.212Z</time></trkpt><trkpt lat="43.5878113" lon="12.6743691"><ele>220.66666666666666</ele><time>2026-04-04T12:20:30.212Z</time></trkpt><trkpt lat="43.5876509" lon="12.6743057"><ele>224.33333333333331</ele><time>2026-04-04T12:20:31.212Z</time></trkpt><trkpt lat="43.5874923" lon="12.6742445"><ele>228.0</ele><time>2026-04-04T12:20:32.212Z</time></trkpt><trkpt lat="43.5873393" lon="12.6741885"><ele>228.0</ele><time>2026-04-04T12:20:33.212Z</time></trkpt><trkpt lat="43.5871792" lon="12.6741345"><ele>228.0</ele><time>2026-04-04T12:20:34.212Z</time></trkpt><trkpt lat="43.5870245" lon="12.6740831"><ele>228.0</ele><time>2026-04-04T12:20:35.212Z</time></trkpt><trkpt lat="43.586867" lon="12.6740234"><ele>226.0</ele><time>2026-04-04T12:20:36.212Z</time></trkpt><trkpt lat="43.5867081" lon="12.6739593"><ele>224.0</ele><time>2026-04-04T12:20:37.212Z</time></trkpt><trkpt lat="43.5865584" lon="12.6739024"><ele>222.0</ele><time>2026-04-04T12:20:38.212Z</time></trkpt><trkpt lat="43.5864151" lon="12.6738502"><ele>222.0</ele><time>2026-04-04T12:20:39.212Z</time></trkpt><trkpt lat="43.5862651" lon="12.6737877"><ele>222.0</ele><time>2026-04-04T12:20:40.212Z</time></trkpt><trkpt lat="43.5861235" lon="12.6737347"><ele>222.0</ele><time>2026-04-04T12:20:41.213Z</time></trkpt><trkpt lat="43.5859773" lon="12.6736796"><ele>223.66666666666669</ele><time>2026-04-04T12:20:42.212Z</time></trkpt><trkpt lat="43.5858306" lon="12.6736192"><ele>225.33333333333334</ele><time>2026-04-04T12:20:43.212Z</time></trkpt><trkpt lat="43.5856837" lon="12.6735706"><ele>227.0</ele><time>2026-04-04T12:20:44.212Z</time></trkpt><trkpt lat="43.5855313" lon="12.6735192"><ele>227.0</ele><time>2026-04-04T12:20:45.213Z</time></trkpt><trkpt lat="43.585381" lon="12.67345"><ele>227.0</ele><time>2026-04-04T12:20:46.213Z</time></trkpt><trkpt lat="43.585223" lon="12.6733903"><ele>227.0</ele><time>2026-04-04T12:20:47.212Z</time></trkpt><trkpt lat="43.5850625" lon="12.673325"><ele>227.0</ele><time>2026-04-04T12:20:48.212Z</time></trkpt><trkpt lat="43.5849085" lon="12.6732564"><ele>227.0</ele><time>2026-04-04T12:20:49.212Z</time></trkpt><trkpt lat="43.5847464" lon="12.6731909"><ele>227.0</ele><time>2026-04-04T12:20:50.213Z</time></trkpt><trkpt lat="43.5845846" lon="12.6731191"><ele>227.0</ele><time>2026-04-04T12:20:51.213Z</time></trkpt><trkpt lat="43.5844237" lon="12.6730471"><ele>227.0</ele><time>2026-04-04T12:20:52.212Z</time></trkpt><trkpt lat="43.5842638" lon="12.672969"><ele>227.0</ele><time>2026-04-04T12:20:53.213Z</time></trkpt><trkpt lat="43.5841151" lon="12.6728792"><ele>227.0</ele><time>2026-04-04T12:20:54.212Z</time></trkpt><trkpt lat="43.5839613" lon="12.6727936"><ele>227.0</ele><time>2026-04-04T12:20:55.212Z</time></trkpt><trkpt lat="43.5838056" lon="12.6727075"><ele>227.0</ele><time>2026-04-04T12:20:56.212Z</time></trkpt><trkpt lat="43.583647" lon="12.6726235"><ele>228.0</ele><time>2026-04-04T12:20:57.212Z</time></trkpt><trkpt lat="43.5834975" lon="12.6725312"><ele>229.0</ele><time>2026-04-04T12:20:58.212Z</time></trkpt><trkpt lat="43.5833465" lon="12.6724336"><ele>230.0</ele><time>2026-04-04T12:20:59.213Z</time></trkpt><trkpt lat="43.5832098" lon="12.6723393"><ele>230.0</ele><time>2026-04-04T12:21:00.212Z</time></trkpt><trkpt lat="43.583071" lon="12.6722381"><ele>230.0</ele><time>2026-04-04T12:21:01.212Z</time></trkpt><trkpt lat="43.5829357" lon="12.6721547"><ele>230.0</ele><time>2026-04-04T12:21:02.212Z</time></trkpt><trkpt lat="43.5828035" lon="12.6720618"><ele>230.66666666666669</ele><time>2026-04-04T12:21:03.212Z</time></trkpt><trkpt lat="43.5826671" lon="12.6719617"><ele>231.33333333333331</ele><time>2026-04-04T12:21:04.212Z</time></trkpt><trkpt lat="43.5825281" lon="12.6718629"><ele>232.0</ele><time>2026-04-04T12:21:05.213Z</time></trkpt><trkpt lat="43.5823928" lon="12.6717674"><ele>232.0</ele><time>2026-04-04T12:21:06.212Z</time></trkpt><trkpt lat="43.5822636" lon="12.6716625"><ele>232.0</ele><time>2026-04-04T12:21:07.212Z</time></trkpt><trkpt lat="43.5821141" lon="12.6715502"><ele>232.0</ele><time>2026-04-04T12:21:08.212Z</time></trkpt><trkpt lat="43.581981" lon="12.6714445"><ele>231.0</ele><time>2026-04-04T12:21:09.212Z</time></trkpt><trkpt lat="43.5818351" lon="12.6713387"><ele>230.0</ele><time>2026-04-04T12:21:10.213Z</time></trkpt><trkpt lat="43.5816859" lon="12.6712318"><ele>229.0</ele><time>2026-04-04T12:21:11.213Z</time></trkpt><trkpt lat="43.5815423" lon="12.6711225"><ele>229.66666666666666</ele><time>2026-04-04T12:21:12.212Z</time></trkpt><trkpt lat="43.5813995" lon="12.6710189"><ele>230.33333333333331</ele><time>2026-04-04T12:21:13.212Z</time></trkpt><trkpt lat="43.5812566" lon="12.6709117"><ele>231.0</ele><time>2026-04-04T12:21:14.213Z</time></trkpt><trkpt lat="43.5811178" lon="12.6708059"><ele>231.0</ele><time>2026-04-04T12:21:15.212Z</time></trkpt><trkpt lat="43.5809888" lon="12.6707058"><ele>231.0</ele><time>2026-04-04T12:21:16.213Z</time></trkpt><trkpt lat="43.580867" lon="12.6706144"><ele>231.0</ele><time>2026-04-04T12:21:17.213Z</time></trkpt><trkpt lat="43.58075" lon="12.6705247"><ele>231.0</ele><time>2026-04-04T12:21:18.212Z</time></trkpt><trkpt lat="43.5806364" lon="12.6704378"><ele>231.0</ele><time>2026-04-04T12:21:19.212Z</time></trkpt><trkpt lat="43.5805188" lon="12.6703705"><ele>231.0</ele><time>2026-04-04T12:21:20.212Z</time></trkpt><trkpt lat="43.5804145" lon="12.6702887"><ele>231.0</ele><time>2026-04-04T12:21:21.213Z</time></trkpt><trkpt lat="43.5803021" lon="12.6702038"><ele>231.0</ele><time>2026-04-04T12:21:22.212Z</time></trkpt><trkpt lat="43.5801962" lon="12.6701264"><ele>231.5</ele><time>2026-04-04T12:21:23.212Z</time></trkpt><trkpt lat="43.5800927" lon="12.6700447"><ele>232.0</ele><time>2026-04-04T12:21:24.212Z</time></trkpt><trkpt lat="43.579976" lon="12.6699539"><ele>232.5</ele><time>2026-04-04T12:21:25.213Z</time></trkpt><trkpt lat="43.5798495" lon="12.6698571"><ele>233.0</ele><time>2026-04-04T12:21:26.212Z</time></trkpt><trkpt lat="43.579723" lon="12.6697583"><ele>233.0</ele><time>2026-04-04T12:21:27.213Z</time></trkpt><trkpt lat="43.5795866" lon="12.6696575"><ele>233.0</ele><time>2026-04-04T12:21:28.212Z</time></trkpt><trkpt lat="43.5794557" lon="12.6695548"><ele>233.0</ele><time>2026-04-04T12:21:29.212Z</time></trkpt><trkpt lat="43.5793212" lon="12.6694527"><ele>235.0</ele><time>2026-04-04T12:21:30.212Z</time></trkpt><trkpt lat="43.5791711" lon="12.6693495"><ele>237.0</ele><time>2026-04-04T12:21:31.212Z</time></trkpt><trkpt lat="43.5790354" lon="12.6692497"><ele>239.0</ele><time>2026-04-04T12:21:32.213Z</time></trkpt><trkpt lat="43.5788984" lon="12.6691407"><ele>239.0</ele><time>2026-04-04T12:21:33.213Z</time></trkpt><trkpt lat="43.5787423" lon="12.6690292"><ele>239.0</ele><time>2026-04-04T12:21:34.213Z</time></trkpt><trkpt lat="43.5785867" lon="12.6689146"><ele>239.0</ele><time>2026-04-04T12:21:35.212Z</time></trkpt><trkpt lat="43.5784292" lon="12.6688002"><ele>239.0</ele><time>2026-04-04T12:21:36.212Z</time></trkpt><trkpt lat="43.5782751" lon="12.6686808"><ele>239.0</ele><time>2026-04-04T12:21:37.212Z</time></trkpt><trkpt lat="43.5781153" lon="12.6685598"><ele>239.0</ele><time>2026-04-04T12:21:38.213Z</time></trkpt><trkpt lat="43.5779522" lon="12.6684377"><ele>237.33333333333334</ele><time>2026-04-04T12:21:39.212Z</time></trkpt><trkpt lat="43.5777902" lon="12.6683156"><ele>235.66666666666669</ele><time>2026-04-04T12:21:40.212Z</time></trkpt><trkpt lat="43.5776302" lon="12.6681895"><ele>234.0</ele><time>2026-04-04T12:21:41.213Z</time></trkpt><trkpt lat="43.5774679" lon="12.66806"><ele>234.0</ele><time>2026-04-04T12:21:42.212Z</time></trkpt><trkpt lat="43.5773021" lon="12.6679318"><ele>234.0</ele><time>2026-04-04T12:21:43.212Z</time></trkpt><trkpt lat="43.5771272" lon="12.6677986"><ele>234.0</ele><time>2026-04-04T12:21:44.212Z</time></trkpt><trkpt lat="43.5769569" lon="12.6676719"><ele>234.66666666666669</ele><time>2026-04-04T12:21:45.212Z</time></trkpt><trkpt lat="43.5767817" lon="12.6675493"><ele>235.33333333333334</ele><time>2026-04-04T12:21:46.212Z</time></trkpt><trkpt lat="43.5766025" lon="12.6674154"><ele>236.0</ele><time>2026-04-04T12:21:47.213Z</time></trkpt><trkpt lat="43.5764186" lon="12.6672774"><ele>236.0</ele><time>2026-04-04T12:21:48.212Z</time></trkpt><trkpt lat="43.5762292" lon="12.6671385"><ele>236.0</ele><time>2026-04-04T12:21:49.212Z</time></trkpt><trkpt lat="43.5760341" lon="12.6669875"><ele>236.0</ele><time>2026-04-04T12:21:50.212Z</time></trkpt><trkpt lat="43.5758393" lon="12.666835"><ele>236.0</ele><time>2026-04-04T12:21:51.213Z</time></trkpt><trkpt lat="43.5756497" lon="12.6666905"><ele>236.0</ele><time>2026-04-04T12:21:52.212Z</time></trkpt><trkpt lat="43.5754604" lon="12.6665518"><ele>236.0</ele><time>2026-04-04T12:21:53.212Z</time></trkpt><trkpt lat="43.5752731" lon="12.666404"><ele>236.0</ele><time>2026-04-04T12:21:54.213Z</time></trkpt><trkpt lat="43.5750812" lon="12.6662626"><ele>236.0</ele><time>2026-04-04T12:21:55.212Z</time></trkpt><trkpt lat="43.5748933" lon="12.6661224"><ele>236.0</ele><time>2026-04-04T12:21:56.212Z</time></trkpt><trkpt lat="43.5747042" lon="12.665973"><ele>236.66666666666669</ele><time>2026-04-04T12:21:57.213Z</time></trkpt><trkpt lat="43.5745129" lon="12.6658336"><ele>237.33333333333331</ele><time>2026-04-04T12:21:58.213Z</time></trkpt><trkpt lat="43.5743174" lon="12.66569"><ele>238.0</ele><time>2026-04-04T12:21:59.212Z</time></trkpt><trkpt lat="43.5741313" lon="12.6655517"><ele>238.0</ele><time>2026-04-04T12:22:00.212Z</time></trkpt><trkpt lat="43.5739508" lon="12.6654161"><ele>238.0</ele><time>2026-04-04T12:22:01.212Z</time></trkpt><trkpt lat="43.5737659" lon="12.6652873"><ele>238.0</ele><time>2026-04-04T12:22:02.212Z</time></trkpt><trkpt lat="43.573585" lon="12.6651522"><ele>236.33333333333331</ele><time>2026-04-04T12:22:03.212Z</time></trkpt><trkpt lat="43.5734132" lon="12.665013"><ele>234.66666666666669</ele><time>2026-04-04T12:22:04.213Z</time></trkpt><trkpt lat="43.5732407" lon="12.6648789"><ele>233.0</ele><time>2026-04-04T12:22:05.212Z</time></trkpt><trkpt lat="43.5730756" lon="12.66475"><ele>233.0</ele><time>2026-04-04T12:22:06.212Z</time></trkpt><trkpt lat="43.5729108" lon="12.664628"><ele>233.0</ele><time>2026-04-04T12:22:07.212Z</time></trkpt><trkpt lat="43.5727477" lon="12.6645082"><ele>233.0</ele><time>2026-04-04T12:22:08.212Z</time></trkpt><trkpt lat="43.5725919" lon="12.6643973"><ele>235.33333333333334</ele><time>2026-04-04T12:22:09.212Z</time></trkpt><trkpt lat="43.5724443" lon="12.6642923"><ele>237.66666666666669</ele><time>2026-04-04T12:22:10.212Z</time></trkpt><trkpt lat="43.5722984" lon="12.6641843"><ele>240.0</ele><time>2026-04-04T12:22:11.212Z</time></trkpt><trkpt lat="43.5721586" lon="12.6640747"><ele>240.0</ele><time>2026-04-04T12:22:12.212Z</time></trkpt><trkpt lat="43.5720106" lon="12.6639692"><ele>240.0</ele><time>2026-04-04T12:22:13.212Z</time></trkpt><trkpt lat="43.5718603" lon="12.6638552"><ele>240.0</ele><time>2026-04-04T12:22:14.213Z</time></trkpt><trkpt lat="43.5717178" lon="12.6637459"><ele>240.0</ele><time>2026-04-04T12:22:15.212Z</time></trkpt><trkpt lat="43.5715736" lon="12.6636275"><ele>240.0</ele><time>2026-04-04T12:22:16.212Z</time></trkpt><trkpt lat="43.5714246" lon="12.6635165"><ele>240.0</ele><time>2026-04-04T12:22:17.213Z</time></trkpt><trkpt lat="43.5712771" lon="12.6634031"><ele>240.33333333333331</ele><time>2026-04-04T12:22:18.212Z</time></trkpt><trkpt lat="43.5711308" lon="12.6632856"><ele>240.66666666666666</ele><time>2026-04-04T12:22:19.213Z</time></trkpt><trkpt lat="43.5709829" lon="12.663168"><ele>241.0</ele><time>2026-04-04T12:22:20.212Z</time></trkpt><trkpt lat="43.5708316" lon="12.6630673"><ele>241.0</ele><time>2026-04-04T12:22:21.213Z</time></trkpt><trkpt lat="43.5706865" lon="12.6629598"><ele>241.0</ele><time>2026-04-04T12:22:22.212Z</time></trkpt><trkpt lat="43.5705448" lon="12.6628516"><ele>241.0</ele><time>2026-04-04T12:22:23.212Z</time></trkpt><trkpt lat="43.5703957" lon="12.6627386"><ele>242.66666666666666</ele><time>2026-04-04T12:22:24.212Z</time></trkpt><trkpt lat="43.5702535" lon="12.6626306"><ele>244.33333333333331</ele><time>2026-04-04T12:22:25.212Z</time></trkpt><trkpt lat="43.5701006" lon="12.6625215"><ele>246.0</ele><time>2026-04-04T12:22:26.212Z</time></trkpt><trkpt lat="43.5699559" lon="12.6624144"><ele>246.0</ele><time>2026-04-04T12:22:27.212Z</time></trkpt><trkpt lat="43.5698154" lon="12.6623144"><ele>246.0</ele><time>2026-04-04T12:22:28.212Z</time></trkpt><trkpt lat="43.5696802" lon="12.6622125"><ele>246.0</ele><time>2026-04-04T12:22:29.213Z</time></trkpt><trkpt lat="43.5695382" lon="12.6621063"><ele>246.33333333333331</ele><time>2026-04-04T12:22:30.212Z</time></trkpt><trkpt lat="43.5693995" lon="12.6619951"><ele>246.66666666666666</ele><time>2026-04-04T12:22:31.213Z</time></trkpt><trkpt lat="43.5692579" lon="12.6618917"><ele>247.0</ele><time>2026-04-04T12:22:32.213Z</time></trkpt><trkpt lat="43.5691161" lon="12.6617849"><ele>247.0</ele><time>2026-04-04T12:22:33.212Z</time></trkpt><trkpt lat="43.5689684" lon="12.6616729"><ele>247.0</ele><time>2026-04-04T12:22:34.213Z</time></trkpt><trkpt lat="43.568828" lon="12.6615684"><ele>247.0</ele><time>2026-04-04T12:22:35.213Z</time></trkpt><trkpt lat="43.5686863" lon="12.6614617"><ele>246.66666666666666</ele><time>2026-04-04T12:22:36.212Z</time></trkpt><trkpt lat="43.5685417" lon="12.6613642"><ele>246.33333333333331</ele><time>2026-04-04T12:22:37.212Z</time></trkpt><trkpt lat="43.5684007" lon="12.6612654"><ele>246.0</ele><time>2026-04-04T12:22:38.212Z</time></trkpt><trkpt lat="43.5682513" lon="12.6611554"><ele>247.0</ele><time>2026-04-04T12:22:39.213Z</time></trkpt><trkpt lat="43.5681101" lon="12.6610549"><ele>248.0</ele><time>2026-04-04T12:22:40.212Z</time></trkpt><trkpt lat="43.5679622" lon="12.6609553"><ele>249.0</ele><time>2026-04-04T12:22:41.212Z</time></trkpt><trkpt lat="43.5678211" lon="12.6608543"><ele>249.0</ele><time>2026-04-04T12:22:42.212Z</time></trkpt><trkpt lat="43.5676688" lon="12.6607549"><ele>249.0</ele><time>2026-04-04T12:22:43.212Z</time></trkpt><trkpt lat="43.567514" lon="12.6606633"><ele>249.0</ele><time>2026-04-04T12:22:44.212Z</time></trkpt><trkpt lat="43.5673622" lon="12.6605631"><ele>249.0</ele><time>2026-04-04T12:22:45.213Z</time></trkpt><trkpt lat="43.5672117" lon="12.6604721"><ele>249.0</ele><time>2026-04-04T12:22:46.212Z</time></trkpt><trkpt lat="43.5670609" lon="12.6603756"><ele>249.0</ele><time>2026-04-04T12:22:47.212Z</time></trkpt><trkpt lat="43.5669096" lon="12.6602775"><ele>250.33333333333331</ele><time>2026-04-04T12:22:48.212Z</time></trkpt><trkpt lat="43.5667579" lon="12.6601777"><ele>251.66666666666666</ele><time>2026-04-04T12:22:49.212Z</time></trkpt><trkpt lat="43.5666052" lon="12.6600799"><ele>253.0</ele><time>2026-04-04T12:22:50.212Z</time></trkpt><trkpt lat="43.5664676" lon="12.6599952"><ele>253.0</ele><time>2026-04-04T12:22:51.212Z</time></trkpt><trkpt lat="43.5663328" lon="12.659902"><ele>253.0</ele><time>2026-04-04T12:22:52.212Z</time></trkpt><trkpt lat="43.5661968" lon="12.6598175"><ele>253.0</ele><time>2026-04-04T12:22:53.212Z</time></trkpt><trkpt lat="43.5660603" lon="12.659729"><ele>252.33333333333331</ele><time>2026-04-04T12:22:54.213Z</time></trkpt><trkpt lat="43.5659166" lon="12.6596322"><ele>251.66666666666669</ele><time>2026-04-04T12:22:55.212Z</time></trkpt><trkpt lat="43.5657738" lon="12.6595353"><ele>251.0</ele><time>2026-04-04T12:22:56.212Z</time></trkpt><trkpt lat="43.565629" lon="12.6594386"><ele>251.0</ele><time>2026-04-04T12:22:57.212Z</time></trkpt><trkpt lat="43.56548" lon="12.6593465"><ele>251.0</ele><time>2026-04-04T12:22:58.212Z</time></trkpt><trkpt lat="43.5653349" lon="12.6592513"><ele>251.0</ele><time>2026-04-04T12:22:59.212Z</time></trkpt><trkpt lat="43.5651854" lon="12.6591483"><ele>251.0</ele><time>2026-04-04T12:23:00.212Z</time></trkpt><trkpt lat="43.5650426" lon="12.6590333"><ele>251.0</ele><time>2026-04-04T12:23:01.213Z</time></trkpt><trkpt lat="43.5649057" lon="12.6589123"><ele>251.0</ele><time>2026-04-04T12:23:02.212Z</time></trkpt><trkpt lat="43.5647649" lon="12.6587942"><ele>251.0</ele><time>2026-04-04T12:23:03.212Z</time></trkpt><trkpt lat="43.5646334" lon="12.6586665"><ele>251.0</ele><time>2026-04-04T12:23:04.212Z</time></trkpt><trkpt lat="43.5645156" lon="12.6585428"><ele>251.0</ele><time>2026-04-04T12:23:05.212Z</time></trkpt><trkpt lat="43.564393" lon="12.6583948"><ele>251.0</ele><time>2026-04-04T12:23:06.212Z</time></trkpt><trkpt lat="43.5642644" lon="12.658243"><ele>251.0</ele><time>2026-04-04T12:23:07.212Z</time></trkpt><trkpt lat="43.5641401" lon="12.6580819"><ele>251.0</ele><time>2026-04-04T12:23:08.213Z</time></trkpt><trkpt lat="43.5640261" lon="12.6579049"><ele>251.33333333333334</ele><time>2026-04-04T12:23:09.212Z</time></trkpt><trkpt lat="43.5639241" lon="12.6577115"><ele>251.66666666666669</ele><time>2026-04-04T12:23:10.213Z</time></trkpt><trkpt lat="43.5638304" lon="12.6575026"><ele>252.0</ele><time>2026-04-04T12:23:11.212Z</time></trkpt><trkpt lat="43.5637488" lon="12.6572832"><ele>251.0</ele><time>2026-04-04T12:23:12.212Z</time></trkpt><trkpt lat="43.5636774" lon="12.6570592"><ele>250.0</ele><time>2026-04-04T12:23:13.212Z</time></trkpt><trkpt lat="43.5636143" lon="12.6568282"><ele>249.0</ele><time>2026-04-04T12:23:14.212Z</time></trkpt><trkpt lat="43.5635612" lon="12.6566046"><ele>248.0</ele><time>2026-04-04T12:23:15.212Z</time></trkpt><trkpt lat="43.5635207" lon="12.6563723"><ele>247.0</ele><time>2026-04-04T12:23:16.212Z</time></trkpt><trkpt lat="43.5634819" lon="12.6561415"><ele>246.0</ele><time>2026-04-04T12:23:17.212Z</time></trkpt><trkpt lat="43.5634405" lon="12.6559114"><ele>245.66666666666669</ele><time>2026-04-04T12:23:18.213Z</time></trkpt><trkpt lat="43.5633949" lon="12.6556753"><ele>245.33333333333334</ele><time>2026-04-04T12:23:19.212Z</time></trkpt><trkpt lat="43.5633375" lon="12.6554396"><ele>245.0</ele><time>2026-04-04T12:23:20.212Z</time></trkpt><trkpt lat="43.5632712" lon="12.6551978"><ele>245.0</ele><time>2026-04-04T12:23:21.212Z</time></trkpt><trkpt lat="43.5631928" lon="12.654965"><ele>245.0</ele><time>2026-04-04T12:23:22.212Z</time></trkpt><trkpt lat="43.5631009" lon="12.6547417"><ele>245.0</ele><time>2026-04-04T12:23:23.212Z</time></trkpt><trkpt lat="43.5630014" lon="12.6545291"><ele>247.33333333333334</ele><time>2026-04-04T12:23:24.212Z</time></trkpt><trkpt lat="43.5628943" lon="12.6543211"><ele>249.66666666666669</ele><time>2026-04-04T12:23:25.212Z</time></trkpt><trkpt lat="43.5627773" lon="12.6541299"><ele>252.0</ele><time>2026-04-04T12:23:26.212Z</time></trkpt><trkpt lat="43.5626585" lon="12.6539495"><ele>252.0</ele><time>2026-04-04T12:23:27.212Z</time></trkpt><trkpt lat="43.5625255" lon="12.6537876"><ele>252.0</ele><time>2026-04-04T12:23:28.213Z</time></trkpt><trkpt lat="43.5623836" lon="12.6536299"><ele>252.0</ele><time>2026-04-04T12:23:29.212Z</time></trkpt><trkpt lat="43.5622297" lon="12.6534656"><ele>253.0</ele><time>2026-04-04T12:23:30.212Z</time></trkpt><trkpt lat="43.5620608" lon="12.6533062"><ele>254.0</ele><time>2026-04-04T12:23:31.212Z</time></trkpt><trkpt lat="43.5618766" lon="12.6531551"><ele>255.0</ele><time>2026-04-04T12:23:32.212Z</time></trkpt><trkpt lat="43.5616828" lon="12.6530016"><ele>255.0</ele><time>2026-04-04T12:23:33.212Z</time></trkpt><trkpt lat="43.561487" lon="12.6528425"><ele>255.0</ele><time>2026-04-04T12:23:34.212Z</time></trkpt><trkpt lat="43.5612838" lon="12.6526794"><ele>257.0</ele><time>2026-04-04T12:23:35.212Z</time></trkpt><trkpt lat="43.5610717" lon="12.6525075"><ele>259.0</ele><time>2026-04-04T12:23:36.212Z</time></trkpt><trkpt lat="43.560851" lon="12.6523312"><ele>259.0</ele><time>2026-04-04T12:23:37.212Z</time></trkpt><trkpt lat="43.5606244" lon="12.652144"><ele>259.0</ele><time>2026-04-04T12:23:38.212Z</time></trkpt><trkpt lat="43.5604002" lon="12.651945"><ele>263.5</ele><time>2026-04-04T12:23:39.212Z</time></trkpt><trkpt lat="43.5601857" lon="12.6517367"><ele>268.0</ele><time>2026-04-04T12:23:40.212Z</time></trkpt><trkpt lat="43.5599785" lon="12.6515383"><ele>268.0</ele><time>2026-04-04T12:23:41.212Z</time></trkpt><trkpt lat="43.559781" lon="12.6513179"><ele>268.0</ele><time>2026-04-04T12:23:42.212Z</time></trkpt><trkpt lat="43.5595892" lon="12.6511112"><ele>268.5</ele><time>2026-04-04T12:23:43.212Z</time></trkpt><trkpt lat="43.5594023" lon="12.6508951"><ele>269.0</ele><time>2026-04-04T12:23:44.213Z</time></trkpt><trkpt lat="43.5592207" lon="12.6506699"><ele>269.0</ele><time>2026-04-04T12:23:45.213Z</time></trkpt><trkpt lat="43.559037" lon="12.6504434"><ele>269.0</ele><time>2026-04-04T12:23:46.212Z</time></trkpt><trkpt lat="43.5588633" lon="12.6502035"><ele>271.0</ele><time>2026-04-04T12:23:47.212Z</time></trkpt><trkpt lat="43.558695" lon="12.6499594"><ele>273.0</ele><time>2026-04-04T12:23:48.213Z</time></trkpt><trkpt lat="43.5585306" lon="12.6496969"><ele>276.5</ele><time>2026-04-04T12:23:49.212Z</time></trkpt><trkpt lat="43.5583678" lon="12.6494444"><ele>280.0</ele><time>2026-04-04T12:23:50.212Z</time></trkpt><trkpt lat="43.5582093" lon="12.6491865"><ele>280.0</ele><time>2026-04-04T12:23:51.212Z</time></trkpt><trkpt lat="43.5580435" lon="12.6489488"><ele>280.0</ele><time>2026-04-04T12:23:52.212Z</time></trkpt><trkpt lat="43.5578828" lon="12.6487028"><ele>279.0</ele><time>2026-04-04T12:23:53.212Z</time></trkpt><trkpt lat="43.5577303" lon="12.6484565"><ele>278.0</ele><time>2026-04-04T12:23:54.212Z</time></trkpt><trkpt lat="43.5575752" lon="12.6482154"><ele>278.0</ele><time>2026-04-04T12:23:55.213Z</time></trkpt><trkpt lat="43.5574322" lon="12.6479723"><ele>278.0</ele><time>2026-04-04T12:23:56.212Z</time></trkpt><trkpt lat="43.5572809" lon="12.6477431"><ele>278.6666666666667</ele><time>2026-04-04T12:23:57.212Z</time></trkpt><trkpt lat="43.5571284" lon="12.6475247"><ele>279.3333333333333</ele><time>2026-04-04T12:23:58.212Z</time></trkpt><trkpt lat="43.5569767" lon="12.6473138"><ele>280.0</ele><time>2026-04-04T12:23:59.212Z</time></trkpt><trkpt lat="43.5568112" lon="12.6471104"><ele>284.0</ele><time>2026-04-04T12:24:00.212Z</time></trkpt><trkpt lat="43.5566356" lon="12.6469148"><ele>288.0</ele><time>2026-04-04T12:24:01.212Z</time></trkpt><trkpt lat="43.5564569" lon="12.6467265"><ele>288.0</ele><time>2026-04-04T12:24:02.212Z</time></trkpt><trkpt lat="43.5562759" lon="12.6465453"><ele>288.0</ele><time>2026-04-04T12:24:03.212Z</time></trkpt><trkpt lat="43.5560906" lon="12.6463726"><ele>288.0</ele><time>2026-04-04T12:24:04.212Z</time></trkpt><trkpt lat="43.5559118" lon="12.6461969"><ele>293.0</ele><time>2026-04-04T12:24:05.212Z</time></trkpt><trkpt lat="43.5557329" lon="12.6460155"><ele>298.0</ele><time>2026-04-04T12:24:06.212Z</time></trkpt><trkpt lat="43.5555505" lon="12.6458453"><ele>303.0</ele><time>2026-04-04T12:24:07.213Z</time></trkpt><trkpt lat="43.555372" lon="12.6456552"><ele>297.6666666666667</ele><time>2026-04-04T12:24:08.212Z</time></trkpt><trkpt lat="43.5551839" lon="12.6454973"><ele>292.33333333333337</ele><time>2026-04-04T12:24:09.213Z</time></trkpt><trkpt lat="43.5549921" lon="12.6453374"><ele>287.0</ele><time>2026-04-04T12:24:10.212Z</time></trkpt><trkpt lat="43.5547962" lon="12.6451715"><ele>287.0</ele><time>2026-04-04T12:24:11.212Z</time></trkpt><trkpt lat="43.5546034" lon="12.6450218"><ele>287.0</ele><time>2026-04-04T12:24:12.213Z</time></trkpt><trkpt lat="43.5544075" lon="12.6448734"><ele>287.0</ele><time>2026-04-04T12:24:13.212Z</time></trkpt><trkpt lat="43.5542069" lon="12.6447236"><ele>283.0</ele><time>2026-04-04T12:24:14.212Z</time></trkpt><trkpt lat="43.5540043" lon="12.6445716"><ele>279.0</ele><time>2026-04-04T12:24:15.212Z</time></trkpt><trkpt lat="43.5538001" lon="12.6444254"><ele>277.5</ele><time>2026-04-04T12:24:16.213Z</time></trkpt><trkpt lat="43.5535961" lon="12.6442854"><ele>276.0</ele><time>2026-04-04T12:24:17.212Z</time></trkpt><trkpt lat="43.5533886" lon="12.6441449"><ele>276.0</ele><time>2026-04-04T12:24:18.212Z</time></trkpt><trkpt lat="43.5531813" lon="12.6440022"><ele>276.0</ele><time>2026-04-04T12:24:19.212Z</time></trkpt><trkpt lat="43.5529738" lon="12.6438554"><ele>276.5</ele><time>2026-04-04T12:24:20.212Z</time></trkpt><trkpt lat="43.5527691" lon="12.6437054"><ele>277.0</ele><time>2026-04-04T12:24:21.212Z</time></trkpt><trkpt lat="43.5525627" lon="12.6435549"><ele>277.0</ele><time>2026-04-04T12:24:22.212Z</time></trkpt><trkpt lat="43.5523618" lon="12.6434064"><ele>277.0</ele><time>2026-04-04T12:24:23.212Z</time></trkpt><trkpt lat="43.5521539" lon="12.6432633"><ele>277.0</ele><time>2026-04-04T12:24:24.212Z</time></trkpt><trkpt lat="43.5519492" lon="12.6431135"><ele>277.0</ele><time>2026-04-04T12:24:25.212Z</time></trkpt><trkpt lat="43.5517422" lon="12.6429675"><ele>277.0</ele><time>2026-04-04T12:24:26.212Z</time></trkpt><trkpt lat="43.5515438" lon="12.6428233"><ele>277.0</ele><time>2026-04-04T12:24:27.212Z</time></trkpt><trkpt lat="43.5513389" lon="12.6426809"><ele>276.66666666666663</ele><time>2026-04-04T12:24:28.212Z</time></trkpt><trkpt lat="43.5511393" lon="12.6425405"><ele>276.3333333333333</ele><time>2026-04-04T12:24:29.212Z</time></trkpt><trkpt lat="43.5509412" lon="12.6424029"><ele>276.0</ele><time>2026-04-04T12:24:30.212Z</time></trkpt><trkpt lat="43.5507412" lon="12.6422651"><ele>276.0</ele><time>2026-04-04T12:24:31.212Z</time></trkpt><trkpt lat="43.5505422" lon="12.6421274"><ele>276.0</ele><time>2026-04-04T12:24:32.213Z</time></trkpt><trkpt lat="43.550344" lon="12.6419908"><ele>276.0</ele><time>2026-04-04T12:24:33.212Z</time></trkpt><trkpt lat="43.5501425" lon="12.6418548"><ele>276.6666666666667</ele><time>2026-04-04T12:24:34.212Z</time></trkpt><trkpt lat="43.5499476" lon="12.6417159"><ele>277.33333333333337</ele><time>2026-04-04T12:24:35.212Z</time></trkpt><trkpt lat="43.5497545" lon="12.6415842"><ele>278.0</ele><time>2026-04-04T12:24:36.212Z</time></trkpt><trkpt lat="43.5495651" lon="12.6414455"><ele>277.6666666666667</ele><time>2026-04-04T12:24:37.212Z</time></trkpt><trkpt lat="43.5493691" lon="12.6413043"><ele>277.3333333333333</ele><time>2026-04-04T12:24:38.212Z</time></trkpt><trkpt lat="43.5491721" lon="12.641161"><ele>277.0</ele><time>2026-04-04T12:24:39.213Z</time></trkpt><trkpt lat="43.5489789" lon="12.6410193"><ele>277.0</ele><time>2026-04-04T12:24:40.212Z</time></trkpt><trkpt lat="43.5487695" lon="12.6408901"><ele>277.0</ele><time>2026-04-04T12:24:41.212Z</time></trkpt><trkpt lat="43.5485802" lon="12.6407523"><ele>277.0</ele><time>2026-04-04T12:24:42.212Z</time></trkpt><trkpt lat="43.5483927" lon="12.6406197"><ele>276.0</ele><time>2026-04-04T12:24:43.212Z</time></trkpt><trkpt lat="43.5481987" lon="12.6404823"><ele>275.0</ele><time>2026-04-04T12:24:44.213Z</time></trkpt><trkpt lat="43.5480076" lon="12.6403458"><ele>274.0</ele><time>2026-04-04T12:24:45.213Z</time></trkpt><trkpt lat="43.5478182" lon="12.6402116"><ele>274.0</ele><time>2026-04-04T12:24:46.212Z</time></trkpt><trkpt lat="43.547625" lon="12.6400815"><ele>274.0</ele><time>2026-04-04T12:24:47.212Z</time></trkpt><trkpt lat="43.5474351" lon="12.6399536"><ele>274.0</ele><time>2026-04-04T12:24:48.212Z</time></trkpt><trkpt lat="43.5472381" lon="12.6398333"><ele>272.0</ele><time>2026-04-04T12:24:49.213Z</time></trkpt><trkpt lat="43.5470414" lon="12.6397158"><ele>270.0</ele><time>2026-04-04T12:24:50.212Z</time></trkpt><trkpt lat="43.5468525" lon="12.6396115"><ele>268.0</ele><time>2026-04-04T12:24:51.213Z</time></trkpt><trkpt lat="43.5466561" lon="12.6395196"><ele>267.0</ele><time>2026-04-04T12:24:52.212Z</time></trkpt><trkpt lat="43.546451" lon="12.6394406"><ele>266.0</ele><time>2026-04-04T12:24:53.212Z</time></trkpt><trkpt lat="43.5462423" lon="12.6393779"><ele>265.0</ele><time>2026-04-04T12:24:54.213Z</time></trkpt><trkpt lat="43.5460359" lon="12.6393265"><ele>265.0</ele><time>2026-04-04T12:24:55.212Z</time></trkpt><trkpt lat="43.5458239" lon="12.6392863"><ele>265.0</ele><time>2026-04-04T12:24:56.213Z</time></trkpt><trkpt lat="43.5456069" lon="12.6392552"><ele>265.0</ele><time>2026-04-04T12:24:57.212Z</time></trkpt><trkpt lat="43.5453913" lon="12.6392399"><ele>263.66666666666663</ele><time>2026-04-04T12:24:58.212Z</time></trkpt><trkpt lat="43.5451747" lon="12.6392397"><ele>262.3333333333333</ele><time>2026-04-04T12:24:59.212Z</time></trkpt><trkpt lat="43.5449591" lon="12.6392502"><ele>261.0</ele><time>2026-04-04T12:25:00.212Z</time></trkpt><trkpt lat="43.5447411" lon="12.6392776"><ele>262.3333333333333</ele><time>2026-04-04T12:25:01.212Z</time></trkpt><trkpt lat="43.544528" lon="12.6393182"><ele>263.66666666666663</ele><time>2026-04-04T12:25:02.212Z</time></trkpt><trkpt lat="43.5443181" lon="12.6393808"><ele>265.0</ele><time>2026-04-04T12:25:03.212Z</time></trkpt><trkpt lat="43.5441111" lon="12.6394494"><ele>267.66666666666663</ele><time>2026-04-04T12:25:04.212Z</time></trkpt><trkpt lat="43.5439067" lon="12.6395348"><ele>270.3333333333333</ele><time>2026-04-04T12:25:05.212Z</time></trkpt><trkpt lat="43.5437063" lon="12.6396308"><ele>273.0</ele><time>2026-04-04T12:25:06.212Z</time></trkpt><trkpt lat="43.5435166" lon="12.6397406"><ele>273.0</ele><time>2026-04-04T12:25:07.212Z</time></trkpt><trkpt lat="43.5433263" lon="12.639863"><ele>273.0</ele><time>2026-04-04T12:25:08.213Z</time></trkpt><trkpt lat="43.5431373" lon="12.6399957"><ele>273.0</ele><time>2026-04-04T12:25:09.212Z</time></trkpt><trkpt lat="43.542955" lon="12.6401375"><ele>274.6666666666667</ele><time>2026-04-04T12:25:10.212Z</time></trkpt><trkpt lat="43.5427785" lon="12.64029"><ele>276.33333333333337</ele><time>2026-04-04T12:25:11.212Z</time></trkpt><trkpt lat="43.5426077" lon="12.6404517"><ele>278.0</ele><time>2026-04-04T12:25:12.212Z</time></trkpt><trkpt lat="43.5374877" lon="12.6459428"><ele>279.0</ele><time>2026-04-04T12:25:45.212Z</time></trkpt><trkpt lat="43.5373063" lon="12.646044"><ele>280.0</ele><time>2026-04-04T12:25:46.212Z</time></trkpt><trkpt lat="43.5371114" lon="12.6461457"><ele>281.0</ele><time>2026-04-04T12:25:47.212Z</time></trkpt><trkpt lat="43.5369289" lon="12.6462326"><ele>281.0</ele><time>2026-04-04T12:25:48.212Z</time></trkpt><trkpt lat="43.5367386" lon="12.6463194"><ele>281.0</ele><time>2026-04-04T12:25:49.213Z</time></trkpt><trkpt lat="43.5365526" lon="12.6463959"><ele>281.0</ele><time>2026-04-04T12:25:50.212Z</time></trkpt><trkpt lat="43.5363654" lon="12.6464619"><ele>279.6666666666667</ele><time>2026-04-04T12:25:51.212Z</time></trkpt><trkpt lat="43.5361729" lon="12.6465264"><ele>278.3333333333333</ele><time>2026-04-04T12:25:52.212Z</time></trkpt><trkpt lat="43.5359808" lon="12.6465788"><ele>277.0</ele><time>2026-04-04T12:25:53.212Z</time></trkpt><trkpt lat="43.5357821" lon="12.6466266"><ele>277.0</ele><time>2026-04-04T12:25:54.212Z</time></trkpt><trkpt lat="43.5355876" lon="12.6466632"><ele>277.0</ele><time>2026-04-04T12:25:55.213Z</time></trkpt><trkpt lat="43.5353924" lon="12.6466871"><ele>277.0</ele><time>2026-04-04T12:25:56.212Z</time></trkpt><trkpt lat="43.5351977" lon="12.6467077"><ele>277.66666666666663</ele><time>2026-04-04T12:25:57.213Z</time></trkpt><trkpt lat="43.5350007" lon="12.6467231"><ele>278.3333333333333</ele><time>2026-04-04T12:25:58.212Z</time></trkpt><trkpt lat="43.5348091" lon="12.6467313"><ele>279.0</ele><time>2026-04-04T12:25:59.213Z</time></trkpt><trkpt lat="43.5346144" lon="12.64672"><ele>278.3333333333333</ele><time>2026-04-04T12:26:00.212Z</time></trkpt><trkpt lat="43.5344202" lon="12.646688"><ele>277.66666666666663</ele><time>2026-04-04T12:26:01.213Z</time></trkpt><trkpt lat="43.5342215" lon="12.6466473"><ele>277.0</ele><time>2026-04-04T12:26:02.212Z</time></trkpt><trkpt lat="43.5340256" lon="12.6465952"><ele>277.0</ele><time>2026-04-04T12:26:03.213Z</time></trkpt><trkpt lat="43.5338308" lon="12.6465324"><ele>277.0</ele><time>2026-04-04T12:26:04.212Z</time></trkpt><trkpt lat="43.5336377" lon="12.6464549"><ele>277.0</ele><time>2026-04-04T12:26:05.212Z</time></trkpt><trkpt lat="43.5334472" lon="12.6463656"><ele>276.66666666666663</ele><time>2026-04-04T12:26:06.212Z</time></trkpt><trkpt lat="43.5332594" lon="12.6462674"><ele>276.3333333333333</ele><time>2026-04-04T12:26:07.212Z</time></trkpt><trkpt lat="43.5330752" lon="12.6461623"><ele>276.0</ele><time>2026-04-04T12:26:08.213Z</time></trkpt><trkpt lat="43.5328972" lon="12.6460407"><ele>279.6666666666667</ele><time>2026-04-04T12:26:09.213Z</time></trkpt><trkpt lat="43.5327229" lon="12.6459068"><ele>283.33333333333337</ele><time>2026-04-04T12:26:10.213Z</time></trkpt><trkpt lat="43.5325542" lon="12.6457629"><ele>287.0</ele><time>2026-04-04T12:26:11.212Z</time></trkpt><trkpt lat="43.5323881" lon="12.6456087"><ele>287.0</ele><time>2026-04-04T12:26:12.212Z</time></trkpt><trkpt lat="43.5322246" lon="12.6454448"><ele>287.0</ele><time>2026-04-04T12:26:13.212Z</time></trkpt><trkpt lat="43.5320649" lon="12.6452712"><ele>287.0</ele><time>2026-04-04T12:26:14.213Z</time></trkpt><trkpt lat="43.5319046" lon="12.6450927"><ele>289.0</ele><time>2026-04-04T12:26:15.212Z</time></trkpt><trkpt lat="43.5317465" lon="12.6449099"><ele>291.0</ele><time>2026-04-04T12:26:16.212Z</time></trkpt><trkpt lat="43.531593" lon="12.644724"><ele>293.0</ele><time>2026-04-04T12:26:17.212Z</time></trkpt><trkpt lat="43.5314361" lon="12.6445416"><ele>292.6666666666667</ele><time>2026-04-04T12:26:18.213Z</time></trkpt><trkpt lat="43.5312831" lon="12.6443608"><ele>292.3333333333333</ele><time>2026-04-04T12:26:19.212Z</time></trkpt><trkpt lat="43.5311315" lon="12.6441798"><ele>292.0</ele><time>2026-04-04T12:26:20.212Z</time></trkpt><trkpt lat="43.5309775" lon="12.6440037"><ele>292.0</ele><time>2026-04-04T12:26:21.212Z</time></trkpt><trkpt lat="43.5308239" lon="12.6438303"><ele>292.0</ele><time>2026-04-04T12:26:22.213Z</time></trkpt><trkpt lat="43.5306649" lon="12.6436629"><ele>292.0</ele><time>2026-04-04T12:26:23.212Z</time></trkpt><trkpt lat="43.5305065" lon="12.6434982"><ele>290.3333333333333</ele><time>2026-04-04T12:26:24.212Z</time></trkpt><trkpt lat="43.5303415" lon="12.6433389"><ele>288.6666666666667</ele><time>2026-04-04T12:26:25.213Z</time></trkpt><trkpt lat="43.5301748" lon="12.6431865"><ele>287.0</ele><time>2026-04-04T12:26:26.212Z</time></trkpt><trkpt lat="43.5300023" lon="12.6430411"><ele>287.0</ele><time>2026-04-04T12:26:27.213Z</time></trkpt><trkpt lat="43.5298318" lon="12.642895"><ele>287.0</ele><time>2026-04-04T12:26:28.212Z</time></trkpt><trkpt lat="43.5296634" lon="12.6427464"><ele>287.0</ele><time>2026-04-04T12:26:29.212Z</time></trkpt><trkpt lat="43.5294839" lon="12.6426038"><ele>290.0</ele><time>2026-04-04T12:26:30.213Z</time></trkpt><trkpt lat="43.529311" lon="12.6424616"><ele>293.0</ele><time>2026-04-04T12:26:31.212Z</time></trkpt><trkpt lat="43.529137" lon="12.6423137"><ele>296.0</ele><time>2026-04-04T12:26:32.212Z</time></trkpt><trkpt lat="43.5289643" lon="12.6421715"><ele>296.0</ele><time>2026-04-04T12:26:33.213Z</time></trkpt><trkpt lat="43.5287902" lon="12.6420304"><ele>296.0</ele><time>2026-04-04T12:26:34.212Z</time></trkpt><trkpt lat="43.5286173" lon="12.6418885"><ele>296.0</ele><time>2026-04-04T12:26:35.213Z</time></trkpt><trkpt lat="43.528446" lon="12.6417467"><ele>299.0</ele><time>2026-04-04T12:26:36.212Z</time></trkpt><trkpt lat="43.5282751" lon="12.6416047"><ele>302.0</ele><time>2026-04-04T12:26:37.212Z</time></trkpt><trkpt lat="43.5281011" lon="12.6414651"><ele>305.0</ele><time>2026-04-04T12:26:38.212Z</time></trkpt><trkpt lat="43.5279246" lon="12.6413246"><ele>307.33333333333337</ele><time>2026-04-04T12:26:39.212Z</time></trkpt><trkpt lat="43.5277472" lon="12.6411953"><ele>309.6666666666667</ele><time>2026-04-04T12:26:40.212Z</time></trkpt><trkpt lat="43.5275654" lon="12.6410819"><ele>312.0</ele><time>2026-04-04T12:26:41.212Z</time></trkpt><trkpt lat="43.527376" lon="12.6409798"><ele>312.0</ele><time>2026-04-04T12:26:42.212Z</time></trkpt><trkpt lat="43.5271817" lon="12.6409031"><ele>312.0</ele><time>2026-04-04T12:26:43.212Z</time></trkpt><trkpt lat="43.5269772" lon="12.6408502"><ele>312.0</ele><time>2026-04-04T12:26:44.212Z</time></trkpt><trkpt lat="43.526771" lon="12.6408224"><ele>311.6666666666667</ele><time>2026-04-04T12:26:45.213Z</time></trkpt><trkpt lat="43.5265595" lon="12.6408178"><ele>311.33333333333337</ele><time>2026-04-04T12:26:46.212Z</time></trkpt><trkpt lat="43.5263515" lon="12.6408435"><ele>311.0</ele><time>2026-04-04T12:26:47.212Z</time></trkpt><trkpt lat="43.5261502" lon="12.6408931"><ele>311.0</ele><time>2026-04-04T12:26:48.212Z</time></trkpt><trkpt lat="43.5259408" lon="12.6409869"><ele>311.0</ele><time>2026-04-04T12:26:49.212Z</time></trkpt><trkpt lat="43.5257487" lon="12.6410927"><ele>311.0</ele><time>2026-04-04T12:26:50.212Z</time></trkpt><trkpt lat="43.5255652" lon="12.6412224"><ele>308.33333333333337</ele><time>2026-04-04T12:26:51.212Z</time></trkpt><trkpt lat="43.5253908" lon="12.6413646"><ele>305.6666666666667</ele><time>2026-04-04T12:26:52.212Z</time></trkpt><trkpt lat="43.5252242" lon="12.6415154"><ele>303.0</ele><time>2026-04-04T12:26:53.213Z</time></trkpt><trkpt lat="43.5250608" lon="12.6416674"><ele>303.0</ele><time>2026-04-04T12:26:54.213Z</time></trkpt><trkpt lat="43.5249016" lon="12.6418241"><ele>303.0</ele><time>2026-04-04T12:26:55.212Z</time></trkpt><trkpt lat="43.5247397" lon="12.6419831"><ele>303.0</ele><time>2026-04-04T12:26:56.212Z</time></trkpt><trkpt lat="43.5245833" lon="12.6421395"><ele>305.0</ele><time>2026-04-04T12:26:57.212Z</time></trkpt><trkpt lat="43.5244242" lon="12.6422895"><ele>307.0</ele><time>2026-04-04T12:26:58.213Z</time></trkpt><trkpt lat="43.5242627" lon="12.6424353"><ele>309.0</ele><time>2026-04-04T12:26:59.213Z</time></trkpt><trkpt lat="43.5235636" lon="12.6429026"><ele>304.3333333333333</ele><time>2026-04-04T12:27:03.213Z</time></trkpt><trkpt lat="43.5233664" lon="12.6429871"><ele>299.66666666666663</ele><time>2026-04-04T12:27:04.213Z</time></trkpt><trkpt lat="43.5231595" lon="12.643072"><ele>295.0</ele><time>2026-04-04T12:27:05.212Z</time></trkpt><trkpt lat="43.5229653" lon="12.6431364"><ele>298.3333333333333</ele><time>2026-04-04T12:27:06.213Z</time></trkpt><trkpt lat="43.522766" lon="12.6431803"><ele>301.6666666666667</ele><time>2026-04-04T12:27:07.212Z</time></trkpt><trkpt lat="43.5225493" lon="12.6432139"><ele>305.0</ele><time>2026-04-04T12:27:08.212Z</time></trkpt><trkpt lat="43.5223445" lon="12.6432294"><ele>305.0</ele><time>2026-04-04T12:27:09.213Z</time></trkpt><trkpt lat="43.5221393" lon="12.6432295"><ele>305.0</ele><time>2026-04-04T12:27:10.212Z</time></trkpt><trkpt lat="43.5219352" lon="12.6432103"><ele>305.0</ele><time>2026-04-04T12:27:11.212Z</time></trkpt><trkpt lat="43.5217337" lon="12.6431722"><ele>304.0</ele><time>2026-04-04T12:27:12.212Z</time></trkpt><trkpt lat="43.5215326" lon="12.6431248"><ele>303.0</ele><time>2026-04-04T12:27:13.212Z</time></trkpt><trkpt lat="43.5213385" lon="12.643054"><ele>302.0</ele><time>2026-04-04T12:27:14.212Z</time></trkpt><trkpt lat="43.5211412" lon="12.6429719"><ele>303.33333333333337</ele><time>2026-04-04T12:27:15.212Z</time></trkpt><trkpt lat="43.5209561" lon="12.6428836"><ele>304.6666666666667</ele><time>2026-04-04T12:27:16.212Z</time></trkpt><trkpt lat="43.5207733" lon="12.6427765"><ele>306.0</ele><time>2026-04-04T12:27:17.213Z</time></trkpt><trkpt lat="43.520587" lon="12.6426553"><ele>306.0</ele><time>2026-04-04T12:27:18.212Z</time></trkpt><trkpt lat="43.5204031" lon="12.6425266"><ele>306.0</ele><time>2026-04-04T12:27:19.212Z</time></trkpt><trkpt lat="43.5202195" lon="12.6423939"><ele>306.0</ele><time>2026-04-04T12:27:20.212Z</time></trkpt><trkpt lat="43.5200372" lon="12.6422564"><ele>306.3333333333333</ele><time>2026-04-04T12:27:21.213Z</time></trkpt><trkpt lat="43.519855" lon="12.6421193"><ele>306.66666666666663</ele><time>2026-04-04T12:27:22.212Z</time></trkpt><trkpt lat="43.5196726" lon="12.6419821"><ele>307.0</ele><time>2026-04-04T12:27:23.212Z</time></trkpt><trkpt lat="43.5194881" lon="12.6418482"><ele>307.0</ele><time>2026-04-04T12:27:24.212Z</time></trkpt><trkpt lat="43.5193028" lon="12.6417176"><ele>307.0</ele><time>2026-04-04T12:27:25.213Z</time></trkpt><trkpt lat="43.5191222" lon="12.6415799"><ele>307.0</ele><time>2026-04-04T12:27:26.213Z</time></trkpt><trkpt lat="43.5189419" lon="12.6414447"><ele>307.0</ele><time>2026-04-04T12:27:27.212Z</time></trkpt><trkpt lat="43.5187604" lon="12.6413128"><ele>307.0</ele><time>2026-04-04T12:27:28.212Z</time></trkpt><trkpt lat="43.5185766" lon="12.6411899"><ele>307.0</ele><time>2026-04-04T12:27:29.212Z</time></trkpt><trkpt lat="43.518392" lon="12.6410691"><ele>307.66666666666663</ele><time>2026-04-04T12:27:30.213Z</time></trkpt><trkpt lat="43.5182107" lon="12.640952"><ele>308.3333333333333</ele><time>2026-04-04T12:27:31.212Z</time></trkpt><trkpt lat="43.5180189" lon="12.6408484"><ele>309.0</ele><time>2026-04-04T12:27:32.212Z</time></trkpt><trkpt lat="43.5178277" lon="12.6407503"><ele>309.0</ele><time>2026-04-04T12:27:33.212Z</time></trkpt><trkpt lat="43.5176366" lon="12.6406608"><ele>309.0</ele><time>2026-04-04T12:27:34.212Z</time></trkpt><trkpt lat="43.5174442" lon="12.6405837"><ele>309.0</ele><time>2026-04-04T12:27:35.212Z</time></trkpt><trkpt lat="43.5172529" lon="12.6405109"><ele>310.3333333333333</ele><time>2026-04-04T12:27:36.213Z</time></trkpt><trkpt lat="43.5170588" lon="12.6404445"><ele>311.66666666666663</ele><time>2026-04-04T12:27:37.213Z</time></trkpt><trkpt lat="43.5168652" lon="12.6403832"><ele>313.0</ele><time>2026-04-04T12:27:38.212Z</time></trkpt><trkpt lat="43.5166641" lon="12.640329"><ele>310.0</ele><time>2026-04-04T12:27:39.213Z</time></trkpt><trkpt lat="43.5164633" lon="12.6402866"><ele>307.0</ele><time>2026-04-04T12:27:40.213Z</time></trkpt><trkpt lat="43.5162671" lon="12.6402567"><ele>304.0</ele><time>2026-04-04T12:27:41.212Z</time></trkpt><trkpt lat="43.5160673" lon="12.6402362"><ele>313.0</ele><time>2026-04-04T12:27:42.212Z</time></trkpt><trkpt lat="43.5158695" lon="12.640221"><ele>322.0</ele><time>2026-04-04T12:27:43.212Z</time></trkpt><trkpt lat="43.5140061" lon="12.6404238"><ele>326.66666666666663</ele><time>2026-04-04T12:27:52.213Z</time></trkpt><trkpt lat="43.5137852" lon="12.6404549"><ele>331.3333333333333</ele><time>2026-04-04T12:27:53.212Z</time></trkpt><trkpt lat="43.513581" lon="12.6404852"><ele>336.0</ele><time>2026-04-04T12:27:54.212Z</time></trkpt><trkpt lat="43.51338" lon="12.6405126"><ele>336.0</ele><time>2026-04-04T12:27:55.213Z</time></trkpt><trkpt lat="43.5131764" lon="12.6405267"><ele>336.0</ele><time>2026-04-04T12:27:56.213Z</time></trkpt><trkpt lat="43.5129734" lon="12.6405294"><ele>336.0</ele><time>2026-04-04T12:27:57.213Z</time></trkpt><trkpt lat="43.5127725" lon="12.6405188"><ele>337.0</ele><time>2026-04-04T12:27:58.212Z</time></trkpt><trkpt lat="43.5125733" lon="12.640491"><ele>338.0</ele><time>2026-04-04T12:27:59.213Z</time></trkpt><trkpt lat="43.5123751" lon="12.6404476"><ele>339.0</ele><time>2026-04-04T12:28:00.213Z</time></trkpt><trkpt lat="43.5121772" lon="12.6403891"><ele>339.0</ele><time>2026-04-04T12:28:01.212Z</time></trkpt><trkpt lat="43.5119815" lon="12.6403188"><ele>339.0</ele><time>2026-04-04T12:28:02.213Z</time></trkpt><trkpt lat="43.5117827" lon="12.6402288"><ele>339.0</ele><time>2026-04-04T12:28:03.213Z</time></trkpt><trkpt lat="43.5115923" lon="12.6401283"><ele>331.3333333333333</ele><time>2026-04-04T12:28:04.212Z</time></trkpt><trkpt lat="43.5114079" lon="12.6400111"><ele>323.66666666666663</ele><time>2026-04-04T12:28:05.212Z</time></trkpt><trkpt lat="43.5112309" lon="12.6398885"><ele>316.0</ele><time>2026-04-04T12:28:06.212Z</time></trkpt><trkpt lat="43.5110546" lon="12.639762"><ele>316.0</ele><time>2026-04-04T12:28:07.212Z</time></trkpt><trkpt lat="43.5108839" lon="12.6396258"><ele>316.0</ele><time>2026-04-04T12:28:08.213Z</time></trkpt><trkpt lat="43.5107144" lon="12.6394859"><ele>316.0</ele><time>2026-04-04T12:28:09.212Z</time></trkpt><trkpt lat="43.5105479" lon="12.6393419"><ele>315.66666666666663</ele><time>2026-04-04T12:28:10.212Z</time></trkpt><trkpt lat="43.5103823" lon="12.6391914"><ele>315.3333333333333</ele><time>2026-04-04T12:28:11.212Z</time></trkpt><trkpt lat="43.5102209" lon="12.6390379"><ele>315.0</ele><time>2026-04-04T12:28:12.213Z</time></trkpt><trkpt lat="43.5100576" lon="12.6388832"><ele>315.0</ele><time>2026-04-04T12:28:13.212Z</time></trkpt><trkpt lat="43.5098951" lon="12.6387237"><ele>315.0</ele><time>2026-04-04T12:28:14.212Z</time></trkpt><trkpt lat="43.5097271" lon="12.6385749"><ele>315.0</ele><time>2026-04-04T12:28:15.212Z</time></trkpt><trkpt lat="43.5095604" lon="12.6384267"><ele>316.0</ele><time>2026-04-04T12:28:16.212Z</time></trkpt><trkpt lat="43.5093907" lon="12.6382793"><ele>317.0</ele><time>2026-04-04T12:28:17.213Z</time></trkpt><trkpt lat="43.5092186" lon="12.6381299"><ele>318.0</ele><time>2026-04-04T12:28:18.212Z</time></trkpt><trkpt lat="43.5090455" lon="12.6379814"><ele>318.0</ele><time>2026-04-04T12:28:19.212Z</time></trkpt><trkpt lat="43.508863" lon="12.6378262"><ele>318.0</ele><time>2026-04-04T12:28:20.212Z</time></trkpt><trkpt lat="43.508686" lon="12.6376831"><ele>318.0</ele><time>2026-04-04T12:28:21.212Z</time></trkpt><trkpt lat="43.5085095" lon="12.6375501"><ele>319.3333333333333</ele><time>2026-04-04T12:28:22.212Z</time></trkpt><trkpt lat="43.5083284" lon="12.6374169"><ele>320.66666666666663</ele><time>2026-04-04T12:28:23.213Z</time></trkpt><trkpt lat="43.5081438" lon="12.637291"><ele>322.0</ele><time>2026-04-04T12:28:24.213Z</time></trkpt><trkpt lat="43.5079577" lon="12.6371713"><ele>320.66666666666663</ele><time>2026-04-04T12:28:25.212Z</time></trkpt><trkpt lat="43.5077721" lon="12.6370546"><ele>319.3333333333333</ele><time>2026-04-04T12:28:26.212Z</time></trkpt><trkpt lat="43.5075806" lon="12.6369466"><ele>318.0</ele><time>2026-04-04T12:28:27.213Z</time></trkpt><trkpt lat="43.507389" lon="12.6368469"><ele>319.0</ele><time>2026-04-04T12:28:28.212Z</time></trkpt><trkpt lat="43.5071979" lon="12.6367458"><ele>320.0</ele><time>2026-04-04T12:28:29.212Z</time></trkpt><trkpt lat="43.5070053" lon="12.6366538"><ele>321.0</ele><time>2026-04-04T12:28:30.213Z</time></trkpt><trkpt lat="43.5068098" lon="12.6365643"><ele>321.0</ele><time>2026-04-04T12:28:31.212Z</time></trkpt><trkpt lat="43.5066163" lon="12.6364797"><ele>321.0</ele><time>2026-04-04T12:28:32.213Z</time></trkpt><trkpt lat="43.5064191" lon="12.6364039"><ele>321.0</ele><time>2026-04-04T12:28:33.212Z</time></trkpt><trkpt lat="43.5062223" lon="12.6363312"><ele>323.3333333333333</ele><time>2026-04-04T12:28:34.213Z</time></trkpt><trkpt lat="43.5060251" lon="12.6362677"><ele>325.66666666666663</ele><time>2026-04-04T12:28:35.213Z</time></trkpt><trkpt lat="43.5058281" lon="12.6362051"><ele>328.0</ele><time>2026-04-04T12:28:36.212Z</time></trkpt><trkpt lat="43.5056258" lon="12.636151"><ele>326.3333333333333</ele><time>2026-04-04T12:28:37.212Z</time></trkpt><trkpt lat="43.5054259" lon="12.6360954"><ele>324.6666666666667</ele><time>2026-04-04T12:28:38.212Z</time></trkpt><trkpt lat="43.5052234" lon="12.6360424"><ele>323.0</ele><time>2026-04-04T12:28:39.212Z</time></trkpt><trkpt lat="43.5050251" lon="12.6359856"><ele>323.0</ele><time>2026-04-04T12:28:40.212Z</time></trkpt><trkpt lat="43.5048231" lon="12.6359305"><ele>323.0</ele><time>2026-04-04T12:28:41.212Z</time></trkpt><trkpt lat="43.5046208" lon="12.6358756"><ele>323.0</ele><time>2026-04-04T12:28:42.213Z</time></trkpt><trkpt lat="43.5044195" lon="12.6358205"><ele>323.6666666666667</ele><time>2026-04-04T12:28:43.212Z</time></trkpt><trkpt lat="43.5042215" lon="12.6357702"><ele>324.3333333333333</ele><time>2026-04-04T12:28:44.212Z</time></trkpt><trkpt lat="43.5040197" lon="12.6357109"><ele>325.0</ele><time>2026-04-04T12:28:45.212Z</time></trkpt><trkpt lat="43.5038204" lon="12.6356509"><ele>326.0</ele><time>2026-04-04T12:28:46.212Z</time></trkpt><trkpt lat="43.5036212" lon="12.6355838"><ele>327.0</ele><time>2026-04-04T12:28:47.213Z</time></trkpt><trkpt lat="43.5034229" lon="12.6355047"><ele>328.0</ele><time>2026-04-04T12:28:48.213Z</time></trkpt><trkpt lat="43.5032273" lon="12.6354127"><ele>328.0</ele><time>2026-04-04T12:28:49.212Z</time></trkpt><trkpt lat="43.5030369" lon="12.6353058"><ele>328.0</ele><time>2026-04-04T12:28:50.213Z</time></trkpt><trkpt lat="43.5028536" lon="12.6351834"><ele>328.0</ele><time>2026-04-04T12:28:51.212Z</time></trkpt><trkpt lat="43.5026765" lon="12.6350468"><ele>328.0</ele><time>2026-04-04T12:28:52.212Z</time></trkpt><trkpt lat="43.5025065" lon="12.6348965"><ele>328.0</ele><time>2026-04-04T12:28:53.213Z</time></trkpt><trkpt lat="43.5023404" lon="12.6347309"><ele>328.0</ele><time>2026-04-04T12:28:54.212Z</time></trkpt><trkpt lat="43.5021796" lon="12.6345511"><ele>329.66666666666663</ele><time>2026-04-04T12:28:55.213Z</time></trkpt><trkpt lat="43.502024" lon="12.6343593"><ele>331.3333333333333</ele><time>2026-04-04T12:28:56.212Z</time></trkpt><trkpt lat="43.5018747" lon="12.6341538"><ele>333.0</ele><time>2026-04-04T12:28:57.212Z</time></trkpt><trkpt lat="43.5017343" lon="12.6339331"><ele>333.0</ele><time>2026-04-04T12:28:58.212Z</time></trkpt><trkpt lat="43.5016" lon="12.6336979"><ele>333.0</ele><time>2026-04-04T12:28:59.212Z</time></trkpt><trkpt lat="43.501475" lon="12.6334513"><ele>333.0</ele><time>2026-04-04T12:29:00.212Z</time></trkpt><trkpt lat="43.5013584" lon="12.6332004"><ele>332.3333333333333</ele><time>2026-04-04T12:29:01.213Z</time></trkpt><trkpt lat="43.5012469" lon="12.6329481"><ele>331.66666666666663</ele><time>2026-04-04T12:29:02.212Z</time></trkpt><trkpt lat="43.5011392" lon="12.6326939"><ele>331.0</ele><time>2026-04-04T12:29:03.212Z</time></trkpt><trkpt lat="43.501039" lon="12.632436"><ele>331.0</ele><time>2026-04-04T12:29:04.212Z</time></trkpt><trkpt lat="43.5009365" lon="12.6321807"><ele>331.0</ele><time>2026-04-04T12:29:05.212Z</time></trkpt><trkpt lat="43.5008331" lon="12.6319288"><ele>331.0</ele><time>2026-04-04T12:29:06.212Z</time></trkpt><trkpt lat="43.5007266" lon="12.631676"><ele>332.3333333333333</ele><time>2026-04-04T12:29:07.213Z</time></trkpt><trkpt lat="43.5006145" lon="12.6314299"><ele>333.6666666666667</ele><time>2026-04-04T12:29:08.213Z</time></trkpt><trkpt lat="43.5004921" lon="12.6311937"><ele>335.0</ele><time>2026-04-04T12:29:09.212Z</time></trkpt><trkpt lat="43.5003599" lon="12.630964"><ele>336.33333333333337</ele><time>2026-04-04T12:29:10.212Z</time></trkpt><trkpt lat="43.5002148" lon="12.6307449"><ele>337.6666666666667</ele><time>2026-04-04T12:29:11.212Z</time></trkpt><trkpt lat="43.5000642" lon="12.6305386"><ele>339.0</ele><time>2026-04-04T12:29:12.212Z</time></trkpt><trkpt lat="43.4999035" lon="12.6303418"><ele>341.3333333333333</ele><time>2026-04-04T12:29:13.213Z</time></trkpt><trkpt lat="43.4997346" lon="12.6301599"><ele>343.66666666666663</ele><time>2026-04-04T12:29:14.212Z</time></trkpt><trkpt lat="43.4995571" lon="12.6299988"><ele>346.0</ele><time>2026-04-04T12:29:15.213Z</time></trkpt><trkpt lat="43.4993687" lon="12.629841"><ele>346.0</ele><time>2026-04-04T12:29:16.213Z</time></trkpt><trkpt lat="43.4991713" lon="12.6297003"><ele>346.0</ele><time>2026-04-04T12:29:17.213Z</time></trkpt><trkpt lat="43.4989748" lon="12.6295693"><ele>346.0</ele><time>2026-04-04T12:29:18.212Z</time></trkpt><trkpt lat="43.4987741" lon="12.6294482"><ele>347.0</ele><time>2026-04-04T12:29:19.212Z</time></trkpt><trkpt lat="43.4985717" lon="12.6293371"><ele>348.0</ele><time>2026-04-04T12:29:20.213Z</time></trkpt><trkpt lat="43.4983678" lon="12.6292247"><ele>349.0</ele><time>2026-04-04T12:29:21.212Z</time></trkpt><trkpt lat="43.4981662" lon="12.6291155"><ele>349.0</ele><time>2026-04-04T12:29:22.212Z</time></trkpt><trkpt lat="43.4979615" lon="12.629002"><ele>349.0</ele><time>2026-04-04T12:29:23.213Z</time></trkpt><trkpt lat="43.4977618" lon="12.6288928"><ele>349.0</ele><time>2026-04-04T12:29:24.212Z</time></trkpt><trkpt lat="43.4975667" lon="12.6287778"><ele>347.3333333333333</ele><time>2026-04-04T12:29:25.213Z</time></trkpt><trkpt lat="43.4973755" lon="12.6286563"><ele>345.6666666666667</ele><time>2026-04-04T12:29:26.212Z</time></trkpt><trkpt lat="43.4971795" lon="12.6285296"><ele>344.0</ele><time>2026-04-04T12:29:27.213Z</time></trkpt><trkpt lat="43.496988" lon="12.6283994"><ele>349.6666666666667</ele><time>2026-04-04T12:29:28.212Z</time></trkpt><trkpt lat="43.4968005" lon="12.6282544"><ele>355.3333333333333</ele><time>2026-04-04T12:29:29.213Z</time></trkpt><trkpt lat="43.4966184" lon="12.6281023"><ele>361.0</ele><time>2026-04-04T12:29:30.212Z</time></trkpt><trkpt lat="43.4952457" lon="12.626504"><ele>361.0</ele><time>2026-04-04T12:29:38.213Z</time></trkpt><trkpt lat="43.4951021" lon="12.62627"><ele>361.0</ele><time>2026-04-04T12:29:39.212Z</time></trkpt><trkpt lat="43.4949667" lon="12.6260263"><ele>361.0</ele><time>2026-04-04T12:29:40.212Z</time></trkpt><trkpt lat="43.4948285" lon="12.6257776"><ele>357.0</ele><time>2026-04-04T12:29:41.212Z</time></trkpt><trkpt lat="43.4946977" lon="12.625539"><ele>353.0</ele><time>2026-04-04T12:29:42.212Z</time></trkpt><trkpt lat="43.4945627" lon="12.6252995"><ele>349.0</ele><time>2026-04-04T12:29:43.212Z</time></trkpt><trkpt lat="43.4944268" lon="12.6250643"><ele>349.0</ele><time>2026-04-04T12:29:44.213Z</time></trkpt><trkpt lat="43.4942889" lon="12.6248309"><ele>349.0</ele><time>2026-04-04T12:29:45.212Z</time></trkpt><trkpt lat="43.4941496" lon="12.6246027"><ele>349.0</ele><time>2026-04-04T12:29:46.212Z</time></trkpt><trkpt lat="43.4940026" lon="12.6243812"><ele>349.66666666666663</ele><time>2026-04-04T12:29:47.212Z</time></trkpt><trkpt lat="43.493847" lon="12.6241687"><ele>350.3333333333333</ele><time>2026-04-04T12:29:48.213Z</time></trkpt><trkpt lat="43.49368" lon="12.6239714"><ele>351.0</ele><time>2026-04-04T12:29:49.212Z</time></trkpt><trkpt lat="43.4935044" lon="12.6237883"><ele>350.3333333333333</ele><time>2026-04-04T12:29:50.212Z</time></trkpt><trkpt lat="43.4933211" lon="12.6236184"><ele>349.66666666666663</ele><time>2026-04-04T12:29:51.213Z</time></trkpt><trkpt lat="43.493129" lon="12.6234684"><ele>349.0</ele><time>2026-04-04T12:29:52.212Z</time></trkpt><trkpt lat="43.4929223" lon="12.6233399"><ele>352.66666666666663</ele><time>2026-04-04T12:29:53.212Z</time></trkpt><trkpt lat="43.4927119" lon="12.6232299"><ele>356.3333333333333</ele><time>2026-04-04T12:29:54.212Z</time></trkpt><trkpt lat="43.4924985" lon="12.6231401"><ele>360.0</ele><time>2026-04-04T12:29:55.213Z</time></trkpt><trkpt lat="43.492274" lon="12.6230662"><ele>362.0</ele><time>2026-04-04T12:29:56.213Z</time></trkpt><trkpt lat="43.4920577" lon="12.6230101"><ele>364.0</ele><time>2026-04-04T12:29:57.212Z</time></trkpt><trkpt lat="43.4918396" lon="12.6229662"><ele>366.0</ele><time>2026-04-04T12:29:58.212Z</time></trkpt><trkpt lat="43.4916181" lon="12.6229239"><ele>366.0</ele><time>2026-04-04T12:29:59.212Z</time></trkpt><trkpt lat="43.4913956" lon="12.6228753"><ele>366.0</ele><time>2026-04-04T12:30:00.212Z</time></trkpt><trkpt lat="43.4911752" lon="12.6228236"><ele>366.0</ele><time>2026-04-04T12:30:01.212Z</time></trkpt><trkpt lat="43.490958" lon="12.6227633"><ele>364.3333333333333</ele><time>2026-04-04T12:30:02.212Z</time></trkpt><trkpt lat="43.4907468" lon="12.6226782"><ele>362.66666666666663</ele><time>2026-04-04T12:30:03.213Z</time></trkpt><trkpt lat="43.4905411" lon="12.6225718"><ele>361.0</ele><time>2026-04-04T12:30:04.212Z</time></trkpt><trkpt lat="43.4903459" lon="12.6224503"><ele>361.0</ele><time>2026-04-04T12:30:05.212Z</time></trkpt><trkpt lat="43.4901553" lon="12.622301"><ele>361.0</ele><time>2026-04-04T12:30:06.213Z</time></trkpt><trkpt lat="43.489969" lon="12.6221401"><ele>361.0</ele><time>2026-04-04T12:30:07.212Z</time></trkpt><trkpt lat="43.4897908" lon="12.6219665"><ele>359.66666666666663</ele><time>2026-04-04T12:30:08.213Z</time></trkpt><trkpt lat="43.4896136" lon="12.6217874"><ele>358.3333333333333</ele><time>2026-04-04T12:30:09.212Z</time></trkpt><trkpt lat="43.4894385" lon="12.6216028"><ele>357.0</ele><time>2026-04-04T12:30:10.212Z</time></trkpt><trkpt lat="43.4892605" lon="12.6214239"><ele>357.0</ele><time>2026-04-04T12:30:11.212Z</time></trkpt><trkpt lat="43.4890788" lon="12.6212506"><ele>357.0</ele><time>2026-04-04T12:30:12.212Z</time></trkpt><trkpt lat="43.4888886" lon="12.6210878"><ele>357.0</ele><time>2026-04-04T12:30:13.212Z</time></trkpt><trkpt lat="43.4886977" lon="12.6209326"><ele>351.6666666666667</ele><time>2026-04-04T12:30:14.212Z</time></trkpt><trkpt lat="43.4884988" lon="12.6207902"><ele>346.33333333333337</ele><time>2026-04-04T12:30:15.213Z</time></trkpt><trkpt lat="43.4882985" lon="12.6206605"><ele>341.0</ele><time>2026-04-04T12:30:16.213Z</time></trkpt><trkpt lat="43.4880966" lon="12.6205392"><ele>341.0</ele><time>2026-04-04T12:30:17.212Z</time></trkpt><trkpt lat="43.4878902" lon="12.6204343"><ele>341.0</ele><time>2026-04-04T12:30:18.213Z</time></trkpt><trkpt lat="43.4876813" lon="12.6203385"><ele>341.0</ele><time>2026-04-04T12:30:19.213Z</time></trkpt><trkpt lat="43.4874705" lon="12.620255"><ele>341.0</ele><time>2026-04-04T12:30:20.213Z</time></trkpt><trkpt lat="43.4872548" lon="12.6201856"><ele>341.0</ele><time>2026-04-04T12:30:21.212Z</time></trkpt><trkpt lat="43.487034" lon="12.6201279"><ele>341.0</ele><time>2026-04-04T12:30:22.212Z</time></trkpt><trkpt lat="43.4868114" lon="12.620079"><ele>341.33333333333337</ele><time>2026-04-04T12:30:23.212Z</time></trkpt><trkpt lat="43.4865916" lon="12.6200384"><ele>341.6666666666667</ele><time>2026-04-04T12:30:24.212Z</time></trkpt><trkpt lat="43.4863689" lon="12.6200112"><ele>342.0</ele><time>2026-04-04T12:30:25.212Z</time></trkpt><trkpt lat="43.4861453" lon="12.6199956"><ele>342.0</ele><time>2026-04-04T12:30:26.212Z</time></trkpt><trkpt lat="43.4859184" lon="12.6199888"><ele>342.0</ele><time>2026-04-04T12:30:27.212Z</time></trkpt><trkpt lat="43.4856897" lon="12.6199917"><ele>342.0</ele><time>2026-04-04T12:30:28.213Z</time></trkpt><trkpt lat="43.4854623" lon="12.6200013"><ele>342.0</ele><time>2026-04-04T12:30:29.212Z</time></trkpt><trkpt lat="43.4852359" lon="12.6200203"><ele>342.0</ele><time>2026-04-04T12:30:30.213Z</time></trkpt><trkpt lat="43.4850109" lon="12.6200418"><ele>342.0</ele><time>2026-04-04T12:30:31.212Z</time></trkpt><trkpt lat="43.4847883" lon="12.6200697"><ele>342.0</ele><time>2026-04-04T12:30:32.213Z</time></trkpt><trkpt lat="43.484564" lon="12.6201046"><ele>342.5</ele><time>2026-04-04T12:30:33.212Z</time></trkpt><trkpt lat="43.4843405" lon="12.6201451"><ele>343.0</ele><time>2026-04-04T12:30:34.212Z</time></trkpt><trkpt lat="43.4841161" lon="12.6201935"><ele>343.0</ele><time>2026-04-04T12:30:35.212Z</time></trkpt><trkpt lat="43.4838918" lon="12.6202417"><ele>343.0</ele><time>2026-04-04T12:30:36.212Z</time></trkpt><trkpt lat="43.4836676" lon="12.6202899"><ele>345.5</ele><time>2026-04-04T12:30:37.212Z</time></trkpt><trkpt lat="43.4834407" lon="12.6203398"><ele>348.0</ele><time>2026-04-04T12:30:38.212Z</time></trkpt><trkpt lat="43.4832165" lon="12.6203928"><ele>348.0</ele><time>2026-04-04T12:30:39.212Z</time></trkpt><trkpt lat="43.482994" lon="12.6204454"><ele>348.0</ele><time>2026-04-04T12:30:40.212Z</time></trkpt><trkpt lat="43.4827714" lon="12.6205001"><ele>349.5</ele><time>2026-04-04T12:30:41.212Z</time></trkpt><trkpt lat="43.4825523" lon="12.6205579"><ele>351.0</ele><time>2026-04-04T12:30:42.212Z</time></trkpt><trkpt lat="43.4823277" lon="12.6206102"><ele>351.0</ele><time>2026-04-04T12:30:43.212Z</time></trkpt><trkpt lat="43.4821095" lon="12.6206735"><ele>351.0</ele><time>2026-04-04T12:30:44.212Z</time></trkpt><trkpt lat="43.4818904" lon="12.6207425"><ele>351.0</ele><time>2026-04-04T12:30:45.213Z</time></trkpt><trkpt lat="43.48167" lon="12.6208127"><ele>351.5</ele><time>2026-04-04T12:30:46.213Z</time></trkpt><trkpt lat="43.4814517" lon="12.6208807"><ele>352.0</ele><time>2026-04-04T12:30:47.212Z</time></trkpt><trkpt lat="43.4812312" lon="12.6209626"><ele>352.3333333333333</ele><time>2026-04-04T12:30:48.212Z</time></trkpt><trkpt lat="43.4810151" lon="12.6210464"><ele>352.6666666666667</ele><time>2026-04-04T12:30:49.212Z</time></trkpt><trkpt lat="43.4808006" lon="12.6211316"><ele>353.0</ele><time>2026-04-04T12:30:50.212Z</time></trkpt><trkpt lat="43.4805854" lon="12.6212219"><ele>352.0</ele><time>2026-04-04T12:30:51.212Z</time></trkpt><trkpt lat="43.4803736" lon="12.6213249"><ele>351.0</ele><time>2026-04-04T12:30:52.212Z</time></trkpt><trkpt lat="43.4801636" lon="12.6214295"><ele>350.0</ele><time>2026-04-04T12:30:53.212Z</time></trkpt><trkpt lat="43.4799545" lon="12.6215383"><ele>350.0</ele><time>2026-04-04T12:30:54.213Z</time></trkpt><trkpt lat="43.4797477" lon="12.6216556"><ele>350.0</ele><time>2026-04-04T12:30:55.212Z</time></trkpt><trkpt lat="43.4795423" lon="12.6217824"><ele>350.0</ele><time>2026-04-04T12:30:56.212Z</time></trkpt><trkpt lat="43.4793375" lon="12.621914"><ele>351.0</ele><time>2026-04-04T12:30:57.212Z</time></trkpt><trkpt lat="43.4791353" lon="12.6220538"><ele>352.0</ele><time>2026-04-04T12:30:58.212Z</time></trkpt><trkpt lat="43.478932" lon="12.6221995"><ele>352.5</ele><time>2026-04-04T12:30:59.213Z</time></trkpt><trkpt lat="43.4787321" lon="12.6223538"><ele>353.0</ele><time>2026-04-04T12:31:00.212Z</time></trkpt><trkpt lat="43.4785326" lon="12.6225097"><ele>353.0</ele><time>2026-04-04T12:31:01.212Z</time></trkpt><trkpt lat="43.4783315" lon="12.622673"><ele>353.0</ele><time>2026-04-04T12:31:02.212Z</time></trkpt><trkpt lat="43.4781266" lon="12.622836"><ele>354.0</ele><time>2026-04-04T12:31:03.212Z</time></trkpt><trkpt lat="43.4779298" lon="12.6230016"><ele>355.0</ele><time>2026-04-04T12:31:04.213Z</time></trkpt><trkpt lat="43.4777329" lon="12.6231674"><ele>355.0</ele><time>2026-04-04T12:31:05.213Z</time></trkpt><trkpt lat="43.4775348" lon="12.6233422"><ele>355.0</ele><time>2026-04-04T12:31:06.212Z</time></trkpt><trkpt lat="43.4773321" lon="12.6234935"><ele>355.0</ele><time>2026-04-04T12:31:07.212Z</time></trkpt><trkpt lat="43.4771328" lon="12.6236475"><ele>355.0</ele><time>2026-04-04T12:31:08.212Z</time></trkpt><trkpt lat="43.4769338" lon="12.6237863"><ele>355.0</ele><time>2026-04-04T12:31:09.212Z</time></trkpt><trkpt lat="43.4767324" lon="12.6239176"><ele>355.0</ele><time>2026-04-04T12:31:10.213Z</time></trkpt><trkpt lat="43.4765288" lon="12.6240232"><ele>355.0</ele><time>2026-04-04T12:31:11.213Z</time></trkpt><trkpt lat="43.4763213" lon="12.6241192"><ele>356.66666666666663</ele><time>2026-04-04T12:31:12.212Z</time></trkpt><trkpt lat="43.4761155" lon="12.6241879"><ele>358.3333333333333</ele><time>2026-04-04T12:31:13.212Z</time></trkpt><trkpt lat="43.4759072" lon="12.6242468"><ele>360.0</ele><time>2026-04-04T12:31:14.213Z</time></trkpt><trkpt lat="43.4756964" lon="12.6242863"><ele>360.0</ele><time>2026-04-04T12:31:15.212Z</time></trkpt><trkpt lat="43.4754789" lon="12.6243002"><ele>360.0</ele><time>2026-04-04T12:31:16.212Z</time></trkpt><trkpt lat="43.4752584" lon="12.6242757"><ele>360.0</ele><time>2026-04-04T12:31:17.212Z</time></trkpt><trkpt lat="43.4750411" lon="12.6242515"><ele>362.3333333333333</ele><time>2026-04-04T12:31:18.212Z</time></trkpt><trkpt lat="43.4748234" lon="12.6242227"><ele>364.66666666666663</ele><time>2026-04-04T12:31:19.212Z</time></trkpt><trkpt lat="43.4746068" lon="12.6241869"><ele>367.0</ele><time>2026-04-04T12:31:20.213Z</time></trkpt><trkpt lat="43.473332" lon="12.6240149"><ele>367.0</ele><time>2026-04-04T12:31:26.212Z</time></trkpt><trkpt lat="43.4731211" lon="12.6240322"><ele>367.0</ele><time>2026-04-04T12:31:27.212Z</time></trkpt><trkpt lat="43.4729044" lon="12.6240482"><ele>367.0</ele><time>2026-04-04T12:31:28.212Z</time></trkpt><trkpt lat="43.4726951" lon="12.6240993"><ele>366.66666666666663</ele><time>2026-04-04T12:31:29.212Z</time></trkpt><trkpt lat="43.4724867" lon="12.6241393"><ele>366.3333333333333</ele><time>2026-04-04T12:31:30.212Z</time></trkpt><trkpt lat="43.4722854" lon="12.6241877"><ele>366.0</ele><time>2026-04-04T12:31:31.213Z</time></trkpt><trkpt lat="43.4720771" lon="12.6242553"><ele>368.6666666666667</ele><time>2026-04-04T12:31:32.212Z</time></trkpt><trkpt lat="43.4718776" lon="12.6243429"><ele>371.33333333333337</ele><time>2026-04-04T12:31:33.213Z</time></trkpt><trkpt lat="43.4716775" lon="12.6244453"><ele>374.0</ele><time>2026-04-04T12:31:34.212Z</time></trkpt><trkpt lat="43.4714786" lon="12.6245516"><ele>374.0</ele><time>2026-04-04T12:31:35.213Z</time></trkpt><trkpt lat="43.4712817" lon="12.624664"><ele>374.0</ele><time>2026-04-04T12:31:36.212Z</time></trkpt><trkpt lat="43.4670373" lon="12.6272828"><ele>378.0</ele><time>2026-04-04T12:31:57.213Z</time></trkpt><trkpt lat="43.466823" lon="12.627385"><ele>382.0</ele><time>2026-04-04T12:31:58.212Z</time></trkpt><trkpt lat="43.4666056" lon="12.627487"><ele>382.0</ele><time>2026-04-04T12:31:59.213Z</time></trkpt><trkpt lat="43.4663915" lon="12.6275841"><ele>382.0</ele><time>2026-04-04T12:32:00.213Z</time></trkpt><trkpt lat="43.4661768" lon="12.6276736"><ele>379.0</ele><time>2026-04-04T12:32:01.212Z</time></trkpt><trkpt lat="43.4659571" lon="12.6277603"><ele>376.0</ele><time>2026-04-04T12:32:02.213Z</time></trkpt><trkpt lat="43.4657357" lon="12.6278451"><ele>374.3333333333333</ele><time>2026-04-04T12:32:03.213Z</time></trkpt><trkpt lat="43.4655179" lon="12.6279242"><ele>372.6666666666667</ele><time>2026-04-04T12:32:04.213Z</time></trkpt><trkpt lat="43.4653011" lon="12.6279957"><ele>371.0</ele><time>2026-04-04T12:32:05.212Z</time></trkpt><trkpt lat="43.4650802" lon="12.628052"><ele>370.5</ele><time>2026-04-04T12:32:06.212Z</time></trkpt><trkpt lat="43.4648531" lon="12.6280919"><ele>370.0</ele><time>2026-04-04T12:32:07.212Z</time></trkpt><trkpt lat="43.4646288" lon="12.6281252"><ele>370.5</ele><time>2026-04-04T12:32:08.213Z</time></trkpt><trkpt lat="43.4644031" lon="12.6281549"><ele>371.0</ele><time>2026-04-04T12:32:09.212Z</time></trkpt><trkpt lat="43.4641775" lon="12.6281804"><ele>371.0</ele><time>2026-04-04T12:32:10.212Z</time></trkpt><trkpt lat="43.4639516" lon="12.628198"><ele>371.0</ele><time>2026-04-04T12:32:11.212Z</time></trkpt><trkpt lat="43.4637255" lon="12.6282083"><ele>374.0</ele><time>2026-04-04T12:32:12.212Z</time></trkpt><trkpt lat="43.4634986" lon="12.6282122"><ele>377.0</ele><time>2026-04-04T12:32:13.213Z</time></trkpt><trkpt lat="43.4632729" lon="12.6282082"><ele>377.0</ele><time>2026-04-04T12:32:14.212Z</time></trkpt><trkpt lat="43.4630457" lon="12.6282003"><ele>377.0</ele><time>2026-04-04T12:32:15.212Z</time></trkpt><trkpt lat="43.4628243" lon="12.6281781"><ele>377.0</ele><time>2026-04-04T12:32:16.212Z</time></trkpt><trkpt lat="43.4626037" lon="12.6281597"><ele>377.6666666666667</ele><time>2026-04-04T12:32:17.213Z</time></trkpt><trkpt lat="43.462382" lon="12.628133"><ele>378.3333333333333</ele><time>2026-04-04T12:32:18.212Z</time></trkpt><trkpt lat="43.4621605" lon="12.6280881"><ele>379.0</ele><time>2026-04-04T12:32:19.212Z</time></trkpt><trkpt lat="43.4619336" lon="12.6280498"><ele>379.0</ele><time>2026-04-04T12:32:20.212Z</time></trkpt><trkpt lat="43.4617094" lon="12.6280047"><ele>379.0</ele><time>2026-04-04T12:32:21.213Z</time></trkpt><trkpt lat="43.4614875" lon="12.6279625"><ele>378.3333333333333</ele><time>2026-04-04T12:32:22.213Z</time></trkpt><trkpt lat="43.4612641" lon="12.62792"><ele>377.6666666666667</ele><time>2026-04-04T12:32:23.213Z</time></trkpt><trkpt lat="43.4610452" lon="12.6278818"><ele>377.0</ele><time>2026-04-04T12:32:24.212Z</time></trkpt><trkpt lat="43.4608196" lon="12.627842"><ele>376.5</ele><time>2026-04-04T12:32:25.212Z</time></trkpt><trkpt lat="43.4605954" lon="12.6278047"><ele>376.0</ele><time>2026-04-04T12:32:26.212Z</time></trkpt><trkpt lat="43.4603682" lon="12.627772"><ele>375.0</ele><time>2026-04-04T12:32:27.212Z</time></trkpt><trkpt lat="43.4601361" lon="12.6277399"><ele>374.0</ele><time>2026-04-04T12:32:28.213Z</time></trkpt><trkpt lat="43.4599059" lon="12.6277206"><ele>374.0</ele><time>2026-04-04T12:32:29.212Z</time></trkpt><trkpt lat="43.4596746" lon="12.6277082"><ele>374.0</ele><time>2026-04-04T12:32:30.212Z</time></trkpt><trkpt lat="43.4594442" lon="12.6277105"><ele>374.5</ele><time>2026-04-04T12:32:31.213Z</time></trkpt><trkpt lat="43.4592145" lon="12.6277241"><ele>375.0</ele><time>2026-04-04T12:32:32.213Z</time></trkpt><trkpt lat="43.4589884" lon="12.6277476"><ele>377.0</ele><time>2026-04-04T12:32:33.212Z</time></trkpt><trkpt lat="43.4587626" lon="12.6277772"><ele>379.0</ele><time>2026-04-04T12:32:34.212Z</time></trkpt><trkpt lat="43.4585336" lon="12.6278209"><ele>379.0</ele><time>2026-04-04T12:32:35.212Z</time></trkpt><trkpt lat="43.4583075" lon="12.6278701"><ele>379.0</ele><time>2026-04-04T12:32:36.212Z</time></trkpt><trkpt lat="43.4580834" lon="12.6279373"><ele>380.5</ele><time>2026-04-04T12:32:37.212Z</time></trkpt><trkpt lat="43.457862" lon="12.6280127"><ele>382.0</ele><time>2026-04-04T12:32:38.212Z</time></trkpt><trkpt lat="43.4576441" lon="12.6280924"><ele>382.0</ele><time>2026-04-04T12:32:39.213Z</time></trkpt><trkpt lat="43.457427" lon="12.6281802"><ele>382.0</ele><time>2026-04-04T12:32:40.212Z</time></trkpt><trkpt lat="43.457216" lon="12.6282759"><ele>382.0</ele><time>2026-04-04T12:32:41.212Z</time></trkpt><trkpt lat="43.457007" lon="12.6283755"><ele>382.66666666666663</ele><time>2026-04-04T12:32:42.212Z</time></trkpt><trkpt lat="43.456801" lon="12.6284874"><ele>383.3333333333333</ele><time>2026-04-04T12:32:43.213Z</time></trkpt><trkpt lat="43.4566042" lon="12.628605"><ele>384.0</ele><time>2026-04-04T12:32:44.213Z</time></trkpt><trkpt lat="43.4564083" lon="12.628733"><ele>382.6666666666667</ele><time>2026-04-04T12:32:45.213Z</time></trkpt><trkpt lat="43.4562179" lon="12.628869"><ele>381.33333333333337</ele><time>2026-04-04T12:32:46.212Z</time></trkpt><trkpt lat="43.4560294" lon="12.6290069"><ele>380.0</ele><time>2026-04-04T12:32:47.213Z</time></trkpt><trkpt lat="43.4558476" lon="12.6291531"><ele>380.0</ele><time>2026-04-04T12:32:48.212Z</time></trkpt><trkpt lat="43.4556659" lon="12.6293039"><ele>380.0</ele><time>2026-04-04T12:32:49.213Z</time></trkpt><trkpt lat="43.4554889" lon="12.6294646"><ele>380.0</ele><time>2026-04-04T12:32:50.212Z</time></trkpt><trkpt lat="43.4553195" lon="12.6296291"><ele>379.6666666666667</ele><time>2026-04-04T12:32:51.213Z</time></trkpt><trkpt lat="43.4551527" lon="12.6297986"><ele>379.3333333333333</ele><time>2026-04-04T12:32:52.213Z</time></trkpt><trkpt lat="43.4549905" lon="12.6299747"><ele>379.0</ele><time>2026-04-04T12:32:53.213Z</time></trkpt><trkpt lat="43.4548284" lon="12.6301483"><ele>378.3333333333333</ele><time>2026-04-04T12:32:54.212Z</time></trkpt><trkpt lat="43.454674" lon="12.6303136"><ele>377.6666666666667</ele><time>2026-04-04T12:32:55.212Z</time></trkpt><trkpt lat="43.4545301" lon="12.6304747"><ele>377.0</ele><time>2026-04-04T12:32:56.212Z</time></trkpt><trkpt lat="43.4543947" lon="12.6306206"><ele>378.0</ele><time>2026-04-04T12:32:57.212Z</time></trkpt><trkpt lat="43.454268" lon="12.6307628"><ele>379.0</ele><time>2026-04-04T12:32:58.212Z</time></trkpt><trkpt lat="43.4541525" lon="12.6308854"><ele>380.0</ele><time>2026-04-04T12:32:59.212Z</time></trkpt><trkpt lat="43.4540511" lon="12.6309911"><ele>381.0</ele><time>2026-04-04T12:33:00.212Z</time></trkpt><trkpt lat="43.4539599" lon="12.6310748"><ele>381.0</ele><time>2026-04-04T12:33:01.212Z</time></trkpt><trkpt lat="43.453878" lon="12.6311355"><ele>381.0</ele><time>2026-04-04T12:33:02.212Z</time></trkpt><trkpt lat="43.4538048" lon="12.6311833"><ele>381.0</ele><time>2026-04-04T12:33:03.213Z</time></trkpt><trkpt lat="43.4537357" lon="12.6312105"><ele>381.0</ele><time>2026-04-04T12:33:04.212Z</time></trkpt><trkpt lat="43.4536317" lon="12.63125"><ele>381.0</ele><time>2026-04-04T12:33:06.213Z</time></trkpt><trkpt lat="43.4535596" lon="12.6313012"><ele>381.0</ele><time>2026-04-04T12:33:09.213Z</time></trkpt><trkpt lat="43.4535169" lon="12.6313944"><ele>381.57142857142856</ele><time>2026-04-04T12:36:24.212Z</time></trkpt><trkpt lat="43.4534531" lon="12.6314278"><ele>382.14285714285717</ele><time>2026-04-04T12:36:31.213Z</time></trkpt><trkpt lat="43.4534155" lon="12.6313517"><ele>382.7142857142857</ele><time>2026-04-04T12:38:29.213Z</time></trkpt><trkpt lat="43.4534259" lon="12.6312581"><ele>383.2857142857143</ele><time>2026-04-04T12:38:34.212Z</time></trkpt><trkpt lat="43.4534281" lon="12.6311589"><ele>383.8571428571429</ele><time>2026-04-04T12:38:40.213Z</time></trkpt><trkpt lat="43.4533629" lon="12.6311404"><ele>384.42857142857144</ele><time>2026-04-04T12:38:47.212Z</time></trkpt><trkpt lat="43.4533608" lon="12.6312325"><ele>385.0</ele><time>2026-04-04T12:38:54.212Z</time></trkpt><trkpt lat="43.4533034" lon="12.6312727"><ele>385.00000000000006</ele><time>2026-04-04T12:38:59.212Z</time></trkpt><trkpt lat="43.4532561" lon="12.6313339"><ele>385.0</ele><time>2026-04-04T12:39:05.212Z</time></trkpt><trkpt lat="43.4533381" lon="12.6313317"><ele>385.0</ele><time>2026-04-04T12:39:48.212Z</time></trkpt><trkpt lat="43.4534019" lon="12.6313779"><ele>385.0</ele><time>2026-04-04T12:39:55.193Z</time></trkpt><trkpt lat="43.4533502" lon="12.6314981"><ele>385.00000000000006</ele><time>2026-04-04T12:42:56.215Z</time></trkpt><trkpt lat="43.4533451" lon="12.6316126"><ele>385.0</ele><time>2026-04-04T12:42:57.214Z</time></trkpt><trkpt lat="43.453322" lon="12.6317132"><ele>385.0</ele><time>2026-04-04T12:42:58.214Z</time></trkpt><trkpt lat="43.4532775" lon="12.6318137"><ele>385.0</ele><time>2026-04-04T12:42:59.214Z</time></trkpt><trkpt lat="43.4531982" lon="12.6319244"><ele>385.0</ele><time>2026-04-04T12:43:00.214Z</time></trkpt><trkpt lat="43.4530973" lon="12.6320632"><ele>385.0</ele><time>2026-04-04T12:43:01.215Z</time></trkpt><trkpt lat="43.4529649" lon="12.6321935"><ele>385.33333333333337</ele><time>2026-04-04T12:43:02.215Z</time></trkpt><trkpt lat="43.4528249" lon="12.6323318"><ele>385.66666666666663</ele><time>2026-04-04T12:43:03.214Z</time></trkpt><trkpt lat="43.4526767" lon="12.6324752"><ele>386.0</ele><time>2026-04-04T12:43:04.214Z</time></trkpt><trkpt lat="43.4525267" lon="12.6326261"><ele>386.0</ele><time>2026-04-04T12:43:05.215Z</time></trkpt><trkpt lat="43.4523792" lon="12.6327729"><ele>386.0</ele><time>2026-04-04T12:43:06.214Z</time></trkpt><trkpt lat="43.4522304" lon="12.6329131"><ele>386.0</ele><time>2026-04-04T12:43:07.214Z</time></trkpt><trkpt lat="43.4520726" lon="12.6330492"><ele>386.0</ele><time>2026-04-04T12:43:08.214Z</time></trkpt><trkpt lat="43.4519086" lon="12.6331777"><ele>386.0</ele><time>2026-04-04T12:43:09.214Z</time></trkpt><trkpt lat="43.4517412" lon="12.6333106"><ele>386.0</ele><time>2026-04-04T12:43:10.215Z</time></trkpt><trkpt lat="43.4515751" lon="12.6334359"><ele>386.0</ele><time>2026-04-04T12:43:11.214Z</time></trkpt><trkpt lat="43.4514038" lon="12.633546"><ele>386.0</ele><time>2026-04-04T12:43:12.214Z</time></trkpt><trkpt lat="43.4512283" lon="12.6336537"><ele>386.0</ele><time>2026-04-04T12:43:13.214Z</time></trkpt><trkpt lat="43.4510537" lon="12.6337602"><ele>388.0</ele><time>2026-04-04T12:43:14.215Z</time></trkpt><trkpt lat="43.4508822" lon="12.6338539"><ele>390.0</ele><time>2026-04-04T12:43:15.214Z</time></trkpt><trkpt lat="43.4506978" lon="12.6339318"><ele>392.0</ele><time>2026-04-04T12:43:16.214Z</time></trkpt><trkpt lat="43.4505055" lon="12.6340041"><ele>390.0</ele><time>2026-04-04T12:43:17.215Z</time></trkpt><trkpt lat="43.4503125" lon="12.6340726"><ele>388.0</ele><time>2026-04-04T12:43:18.214Z</time></trkpt><trkpt lat="43.450118" lon="12.6341253"><ele>386.0</ele><time>2026-04-04T12:43:19.215Z</time></trkpt><trkpt lat="43.449923" lon="12.6341671"><ele>386.0</ele><time>2026-04-04T12:43:20.214Z</time></trkpt><trkpt lat="43.4497261" lon="12.6341857"><ele>386.0</ele><time>2026-04-04T12:43:21.215Z</time></trkpt><trkpt lat="43.4495278" lon="12.6341896"><ele>386.0</ele><time>2026-04-04T12:43:22.214Z</time></trkpt><trkpt lat="43.4493316" lon="12.6341762"><ele>386.3333333333333</ele><time>2026-04-04T12:43:23.214Z</time></trkpt><trkpt lat="43.4491342" lon="12.6341602"><ele>386.66666666666663</ele><time>2026-04-04T12:43:24.215Z</time></trkpt><trkpt lat="43.4489447" lon="12.6341532"><ele>387.0</ele><time>2026-04-04T12:43:25.214Z</time></trkpt><trkpt lat="43.4487532" lon="12.634149"><ele>387.66666666666663</ele><time>2026-04-04T12:43:26.214Z</time></trkpt><trkpt lat="43.4485595" lon="12.6341552"><ele>388.3333333333333</ele><time>2026-04-04T12:43:27.214Z</time></trkpt><trkpt lat="43.4483683" lon="12.6341617"><ele>389.0</ele><time>2026-04-04T12:43:28.214Z</time></trkpt><trkpt lat="43.4481772" lon="12.6341456"><ele>389.0</ele><time>2026-04-04T12:43:29.214Z</time></trkpt><trkpt lat="43.4479773" lon="12.6341595"><ele>389.0</ele><time>2026-04-04T12:43:30.214Z</time></trkpt><trkpt lat="43.4477802" lon="12.634158"><ele>389.0</ele><time>2026-04-04T12:43:31.215Z</time></trkpt><trkpt lat="43.4475838" lon="12.6341423"><ele>391.3333333333333</ele><time>2026-04-04T12:43:32.215Z</time></trkpt><trkpt lat="43.4473866" lon="12.6341079"><ele>393.66666666666663</ele><time>2026-04-04T12:43:33.214Z</time></trkpt><trkpt lat="43.4471906" lon="12.6340621"><ele>396.0</ele><time>2026-04-04T12:43:34.215Z</time></trkpt><trkpt lat="43.4469935" lon="12.6340053"><ele>397.0</ele><time>2026-04-04T12:43:35.214Z</time></trkpt><trkpt lat="43.4468026" lon="12.6339572"><ele>398.0</ele><time>2026-04-04T12:43:36.215Z</time></trkpt><trkpt lat="43.4466176" lon="12.6339052"><ele>399.0</ele><time>2026-04-04T12:43:37.215Z</time></trkpt><trkpt lat="43.446429" lon="12.6338592"><ele>399.0</ele><time>2026-04-04T12:43:38.214Z</time></trkpt><trkpt lat="43.4462399" lon="12.6338237"><ele>399.0</ele><time>2026-04-04T12:43:39.215Z</time></trkpt><trkpt lat="43.4460456" lon="12.6338056"><ele>399.0</ele><time>2026-04-04T12:43:40.214Z</time></trkpt><trkpt lat="43.4458535" lon="12.6338166"><ele>399.0</ele><time>2026-04-04T12:43:41.214Z</time></trkpt><trkpt lat="43.445666" lon="12.6338558"><ele>399.0</ele><time>2026-04-04T12:43:42.214Z</time></trkpt><trkpt lat="43.4454819" lon="12.633919"><ele>399.0</ele><time>2026-04-04T12:43:43.214Z</time></trkpt><trkpt lat="43.4453025" lon="12.6339981"><ele>398.33333333333337</ele><time>2026-04-04T12:43:44.215Z</time></trkpt><trkpt lat="43.4451268" lon="12.6340996"><ele>397.6666666666667</ele><time>2026-04-04T12:43:45.214Z</time></trkpt><trkpt lat="43.4449569" lon="12.6342086"><ele>397.0</ele><time>2026-04-04T12:43:46.214Z</time></trkpt><trkpt lat="43.4447876" lon="12.6342964"><ele>397.33333333333337</ele><time>2026-04-04T12:43:47.214Z</time></trkpt><trkpt lat="43.4446076" lon="12.6343532"><ele>397.66666666666663</ele><time>2026-04-04T12:43:48.215Z</time></trkpt><trkpt lat="43.4444192" lon="12.6343821"><ele>398.0</ele><time>2026-04-04T12:43:49.215Z</time></trkpt><trkpt lat="43.4442419" lon="12.6343907"><ele>398.0</ele><time>2026-04-04T12:43:50.214Z</time></trkpt><trkpt lat="43.4440581" lon="12.634377"><ele>398.0</ele><time>2026-04-04T12:43:51.215Z</time></trkpt><trkpt lat="43.4438757" lon="12.6343338"><ele>398.0</ele><time>2026-04-04T12:43:52.214Z</time></trkpt><trkpt lat="43.4437" lon="12.634273"><ele>400.0</ele><time>2026-04-04T12:43:53.214Z</time></trkpt><trkpt lat="43.4435378" lon="12.6341934"><ele>402.0</ele><time>2026-04-04T12:43:54.214Z</time></trkpt><trkpt lat="43.4433968" lon="12.6341047"><ele>404.0</ele><time>2026-04-04T12:43:55.215Z</time></trkpt><trkpt lat="43.4432693" lon="12.6339987"><ele>404.0</ele><time>2026-04-04T12:43:56.214Z</time></trkpt><trkpt lat="43.4431483" lon="12.6338924"><ele>404.0</ele><time>2026-04-04T12:43:57.214Z</time></trkpt><trkpt lat="43.4430353" lon="12.633746"><ele>404.0</ele><time>2026-04-04T12:43:58.214Z</time></trkpt><trkpt lat="43.4429298" lon="12.6336128"><ele>404.0</ele><time>2026-04-04T12:43:59.214Z</time></trkpt><trkpt lat="43.442835" lon="12.6334832"><ele>405.49999999999994</ele><time>2026-04-04T12:44:00.215Z</time></trkpt><trkpt lat="43.4427657" lon="12.63337"><ele>407.0</ele><time>2026-04-04T12:44:01.215Z</time></trkpt><trkpt lat="43.4427187" lon="12.6332584"><ele>408.5</ele><time>2026-04-04T12:44:02.214Z</time></trkpt><trkpt lat="43.4426836" lon="12.6331644"><ele>410.0</ele><time>2026-04-04T12:44:03.214Z</time></trkpt><trkpt lat="43.4426304" lon="12.6330981"><ele>411.49999999999994</ele><time>2026-04-04T12:44:04.215Z</time></trkpt><trkpt lat="43.4425709" lon="12.6330663"><ele>413.0</ele><time>2026-04-04T12:44:05.214Z</time></trkpt><trkpt lat="43.4425026" lon="12.6330368"><ele>413.0</ele><time>2026-04-04T12:44:06.214Z</time></trkpt><trkpt lat="43.4424258" lon="12.6329738"><ele>413.0</ele><time>2026-04-04T12:44:07.214Z</time></trkpt><trkpt lat="43.4423423" lon="12.6328727"><ele>413.0</ele><time>2026-04-04T12:44:08.214Z</time></trkpt><trkpt lat="43.4422703" lon="12.6327676"><ele>413.0</ele><time>2026-04-04T12:44:09.214Z</time></trkpt><trkpt lat="43.4421883" lon="12.6326561"><ele>413.0</ele><time>2026-04-04T12:44:10.214Z</time></trkpt><trkpt lat="43.4420859" lon="12.632548"><ele>412.75</ele><time>2026-04-04T12:44:11.214Z</time></trkpt><trkpt lat="43.4419788" lon="12.6324513"><ele>412.5</ele><time>2026-04-04T12:44:12.214Z</time></trkpt><trkpt lat="43.4418656" lon="12.6323642"><ele>412.25</ele><time>2026-04-04T12:44:13.214Z</time></trkpt><trkpt lat="43.4417457" lon="12.6322961"><ele>412.0</ele><time>2026-04-04T12:44:14.214Z</time></trkpt><trkpt lat="43.4416005" lon="12.6322442"><ele>412.0</ele><time>2026-04-04T12:44:15.214Z</time></trkpt><trkpt lat="43.4414567" lon="12.6322262"><ele>412.0</ele><time>2026-04-04T12:44:16.214Z</time></trkpt><trkpt lat="43.4413021" lon="12.6322457"><ele>412.0</ele><time>2026-04-04T12:44:17.215Z</time></trkpt><trkpt lat="43.4411516" lon="12.6322872"><ele>411.33333333333337</ele><time>2026-04-04T12:44:18.214Z</time></trkpt><trkpt lat="43.440999" lon="12.632354"><ele>410.66666666666663</ele><time>2026-04-04T12:44:19.214Z</time></trkpt><trkpt lat="43.4408422" lon="12.6324415"><ele>410.0</ele><time>2026-04-04T12:44:20.214Z</time></trkpt><trkpt lat="43.4406832" lon="12.6325209"><ele>410.0</ele><time>2026-04-04T12:44:21.215Z</time></trkpt><trkpt lat="43.4405209" lon="12.6325989"><ele>410.0</ele><time>2026-04-04T12:44:22.214Z</time></trkpt><trkpt lat="43.4403579" lon="12.6326769"><ele>410.0</ele><time>2026-04-04T12:44:23.214Z</time></trkpt><trkpt lat="43.4401962" lon="12.6327538"><ele>415.66666666666663</ele><time>2026-04-04T12:44:24.215Z</time></trkpt><trkpt lat="43.4400394" lon="12.6328272"><ele>421.33333333333337</ele><time>2026-04-04T12:44:25.215Z</time></trkpt><trkpt lat="43.4398895" lon="12.6329016"><ele>427.0</ele><time>2026-04-04T12:44:26.214Z</time></trkpt><trkpt lat="43.4397276" lon="12.6329697"><ele>425.33333333333337</ele><time>2026-04-04T12:44:27.214Z</time></trkpt><trkpt lat="43.4395704" lon="12.6330405"><ele>423.66666666666663</ele><time>2026-04-04T12:44:28.215Z</time></trkpt><trkpt lat="43.4394111" lon="12.6331103"><ele>422.0</ele><time>2026-04-04T12:44:29.214Z</time></trkpt><trkpt lat="43.4392475" lon="12.6331841"><ele>422.0</ele><time>2026-04-04T12:44:30.214Z</time></trkpt><trkpt lat="43.4390786" lon="12.6332379"><ele>422.0</ele><time>2026-04-04T12:44:31.214Z</time></trkpt><trkpt lat="43.438909" lon="12.6332844"><ele>422.0</ele><time>2026-04-04T12:44:32.214Z</time></trkpt><trkpt lat="43.4387359" lon="12.6333201"><ele>420.0</ele><time>2026-04-04T12:44:33.214Z</time></trkpt><trkpt lat="43.4385648" lon="12.6333545"><ele>418.0</ele><time>2026-04-04T12:44:34.215Z</time></trkpt><trkpt lat="43.4383929" lon="12.6333905"><ele>416.0</ele><time>2026-04-04T12:44:35.215Z</time></trkpt><trkpt lat="43.4382227" lon="12.6334197"><ele>416.0</ele><time>2026-04-04T12:44:36.214Z</time></trkpt><trkpt lat="43.4380543" lon="12.6334435"><ele>416.0</ele><time>2026-04-04T12:44:37.214Z</time></trkpt><trkpt lat="43.4378885" lon="12.6334633"><ele>416.0</ele><time>2026-04-04T12:44:38.214Z</time></trkpt><trkpt lat="43.4377228" lon="12.6334981"><ele>415.66666666666663</ele><time>2026-04-04T12:44:39.214Z</time></trkpt><trkpt lat="43.4375594" lon="12.6335535"><ele>415.33333333333337</ele><time>2026-04-04T12:44:40.214Z</time></trkpt><trkpt lat="43.4374024" lon="12.6336282"><ele>415.0</ele><time>2026-04-04T12:44:41.214Z</time></trkpt><trkpt lat="43.4372495" lon="12.6337194"><ele>419.0</ele><time>2026-04-04T12:44:42.215Z</time></trkpt><trkpt lat="43.4371032" lon="12.6338408"><ele>423.0</ele><time>2026-04-04T12:44:43.215Z</time></trkpt><trkpt lat="43.4369623" lon="12.6339766"><ele>427.0</ele><time>2026-04-04T12:44:44.214Z</time></trkpt><trkpt lat="43.4368206" lon="12.6341243"><ele>427.0</ele><time>2026-04-04T12:44:45.214Z</time></trkpt><trkpt lat="43.4366795" lon="12.634277"><ele>427.0</ele><time>2026-04-04T12:44:46.215Z</time></trkpt><trkpt lat="43.4365422" lon="12.6344315"><ele>427.0</ele><time>2026-04-04T12:44:47.214Z</time></trkpt><trkpt lat="43.4364022" lon="12.6345808"><ele>426.33333333333337</ele><time>2026-04-04T12:44:48.214Z</time></trkpt><trkpt lat="43.4362605" lon="12.6347296"><ele>425.66666666666663</ele><time>2026-04-04T12:44:49.214Z</time></trkpt><trkpt lat="43.4361172" lon="12.6348766"><ele>425.0</ele><time>2026-04-04T12:44:50.215Z</time></trkpt><trkpt lat="43.4359832" lon="12.6350289"><ele>425.0</ele><time>2026-04-04T12:44:51.215Z</time></trkpt><trkpt lat="43.435849" lon="12.6351857"><ele>425.0</ele><time>2026-04-04T12:44:52.214Z</time></trkpt><trkpt lat="43.435715" lon="12.6353384"><ele>425.0</ele><time>2026-04-04T12:44:53.215Z</time></trkpt><trkpt lat="43.4355849" lon="12.6354966"><ele>425.0</ele><time>2026-04-04T12:44:54.214Z</time></trkpt><trkpt lat="43.4354521" lon="12.6356549"><ele>425.0</ele><time>2026-04-04T12:44:55.215Z</time></trkpt><trkpt lat="43.435327" lon="12.6358041"><ele>425.0</ele><time>2026-04-04T12:44:56.215Z</time></trkpt><trkpt lat="43.4352079" lon="12.6359488"><ele>425.0</ele><time>2026-04-04T12:44:57.215Z</time></trkpt><trkpt lat="43.4350983" lon="12.6360765"><ele>425.0</ele><time>2026-04-04T12:44:58.214Z</time></trkpt><trkpt lat="43.4349937" lon="12.6362008"><ele>425.0</ele><time>2026-04-04T12:44:59.215Z</time></trkpt><trkpt lat="43.4348984" lon="12.6363377"><ele>425.0</ele><time>2026-04-04T12:45:00.214Z</time></trkpt><trkpt lat="43.4348261" lon="12.6364773"><ele>426.8</ele><time>2026-04-04T12:45:01.215Z</time></trkpt><trkpt lat="43.434765" lon="12.6366205"><ele>428.6</ele><time>2026-04-04T12:45:02.214Z</time></trkpt><trkpt lat="43.4347256" lon="12.6367424"><ele>430.4</ele><time>2026-04-04T12:45:03.215Z</time></trkpt><trkpt lat="43.4347243" lon="12.6368769"><ele>432.2</ele><time>2026-04-04T12:45:04.215Z</time></trkpt><trkpt lat="43.4347714" lon="12.6369793"><ele>434.0</ele><time>2026-04-04T12:45:05.214Z</time></trkpt><trkpt lat="43.4348478" lon="12.6370639"><ele>437.4</ele><time>2026-04-04T12:45:06.215Z</time></trkpt><trkpt lat="43.4349304" lon="12.6371425"><ele>440.79999999999995</ele><time>2026-04-04T12:45:07.214Z</time></trkpt><trkpt lat="43.43501" lon="12.6372287"><ele>444.20000000000005</ele><time>2026-04-04T12:45:08.215Z</time></trkpt><trkpt lat="43.4350783" lon="12.6373231"><ele>447.6</ele><time>2026-04-04T12:45:09.214Z</time></trkpt><trkpt lat="43.4351498" lon="12.637452"><ele>451.0</ele><time>2026-04-04T12:45:10.214Z</time></trkpt><trkpt lat="43.4351857" lon="12.6375958"><ele>451.0</ele><time>2026-04-04T12:45:11.214Z</time></trkpt><trkpt lat="43.4352169" lon="12.6377491"><ele>451.0</ele><time>2026-04-04T12:45:12.214Z</time></trkpt><trkpt lat="43.4352464" lon="12.6379202"><ele>451.0</ele><time>2026-04-04T12:45:13.214Z</time></trkpt><trkpt lat="43.4352816" lon="12.6380881"><ele>451.0</ele><time>2026-04-04T12:45:14.214Z</time></trkpt><trkpt lat="43.4353024" lon="12.6382358"><ele>452.20000000000005</ele><time>2026-04-04T12:45:15.214Z</time></trkpt><trkpt lat="43.4353078" lon="12.6383624"><ele>453.40000000000003</ele><time>2026-04-04T12:45:16.214Z</time></trkpt><trkpt lat="43.4353027" lon="12.6384656"><ele>454.6</ele><time>2026-04-04T12:45:17.214Z</time></trkpt><trkpt lat="43.4352292" lon="12.6385322"><ele>455.8</ele><time>2026-04-04T12:45:18.214Z</time></trkpt><trkpt lat="43.435132" lon="12.6385964"><ele>457.0</ele><time>2026-04-04T12:45:19.214Z</time></trkpt><trkpt lat="43.4350346" lon="12.6386697"><ele>454.0</ele><time>2026-04-04T12:45:20.214Z</time></trkpt><trkpt lat="43.4349336" lon="12.6387484"><ele>451.0</ele><time>2026-04-04T12:45:21.214Z</time></trkpt><trkpt lat="43.4348554" lon="12.638916"><ele>448.0</ele><time>2026-04-04T12:45:22.214Z</time></trkpt><trkpt lat="43.4347726" lon="12.6390753"><ele>445.0</ele><time>2026-04-04T12:45:23.214Z</time></trkpt><trkpt lat="43.4346888" lon="12.6392236"><ele>446.75</ele><time>2026-04-04T12:45:24.215Z</time></trkpt><trkpt lat="43.4345873" lon="12.6393437"><ele>448.5</ele><time>2026-04-04T12:45:25.214Z</time></trkpt><trkpt lat="43.4344805" lon="12.6394795"><ele>450.25</ele><time>2026-04-04T12:45:26.214Z</time></trkpt><trkpt lat="43.4343825" lon="12.6396045"><ele>452.0</ele><time>2026-04-04T12:45:27.215Z</time></trkpt><trkpt lat="43.434288" lon="12.6397224"><ele>452.0</ele><time>2026-04-04T12:45:28.214Z</time></trkpt><trkpt lat="43.4342086" lon="12.639827"><ele>452.0</ele><time>2026-04-04T12:45:29.215Z</time></trkpt><trkpt lat="43.4341091" lon="12.6399083"><ele>452.0</ele><time>2026-04-04T12:45:30.214Z</time></trkpt><trkpt lat="43.4340008" lon="12.6399355"><ele>452.0</ele><time>2026-04-04T12:45:31.214Z</time></trkpt><trkpt lat="43.4338821" lon="12.6399043"><ele>453.25</ele><time>2026-04-04T12:45:32.215Z</time></trkpt><trkpt lat="43.433783" lon="12.6398687"><ele>454.5</ele><time>2026-04-04T12:45:33.214Z</time></trkpt><trkpt lat="43.4336572" lon="12.6398389"><ele>455.75</ele><time>2026-04-04T12:45:34.214Z</time></trkpt><trkpt lat="43.4335241" lon="12.639801"><ele>457.0</ele><time>2026-04-04T12:45:35.215Z</time></trkpt><trkpt lat="43.4333885" lon="12.6398401"><ele>457.0</ele><time>2026-04-04T12:45:36.215Z</time></trkpt><trkpt lat="43.433277" lon="12.639956"><ele>457.0</ele><time>2026-04-04T12:45:37.214Z</time></trkpt><trkpt lat="43.4331747" lon="12.6400732"><ele>457.0</ele><time>2026-04-04T12:45:38.214Z</time></trkpt><trkpt lat="43.4330957" lon="12.6402117"><ele>457.0</ele><time>2026-04-04T12:45:39.214Z</time></trkpt><trkpt lat="43.4329982" lon="12.6403352"><ele>457.6</ele><time>2026-04-04T12:45:40.214Z</time></trkpt><trkpt lat="43.4329149" lon="12.6404038"><ele>458.20000000000005</ele><time>2026-04-04T12:45:41.215Z</time></trkpt><trkpt lat="43.4328261" lon="12.6404769"><ele>458.8</ele><time>2026-04-04T12:45:42.214Z</time></trkpt><trkpt lat="43.4327249" lon="12.6404975"><ele>459.4</ele><time>2026-04-04T12:45:43.214Z</time></trkpt><trkpt lat="43.4326136" lon="12.640449"><ele>460.0</ele><time>2026-04-04T12:45:44.215Z</time></trkpt><trkpt lat="43.4324974" lon="12.6404438"><ele>460.0</ele><time>2026-04-04T12:45:45.214Z</time></trkpt><trkpt lat="43.432362" lon="12.6404299"><ele>460.0</ele><time>2026-04-04T12:45:46.214Z</time></trkpt><trkpt lat="43.4322437" lon="12.6404144"><ele>460.0</ele><time>2026-04-04T12:45:47.214Z</time></trkpt><trkpt lat="43.432123" lon="12.6403833"><ele>460.0</ele><time>2026-04-04T12:45:48.214Z</time></trkpt><trkpt lat="43.4320121" lon="12.6403295"><ele>458.0</ele><time>2026-04-04T12:45:49.214Z</time></trkpt><trkpt lat="43.4319204" lon="12.6402593"><ele>456.0</ele><time>2026-04-04T12:45:50.214Z</time></trkpt><trkpt lat="43.4318197" lon="12.6401521"><ele>454.0</ele><time>2026-04-04T12:45:51.214Z</time></trkpt><trkpt lat="43.431707" lon="12.6400461"><ele>452.0</ele><time>2026-04-04T12:45:52.214Z</time></trkpt><trkpt lat="43.4315969" lon="12.639937"><ele>452.0</ele><time>2026-04-04T12:45:53.215Z</time></trkpt><trkpt lat="43.4314736" lon="12.6398376"><ele>452.0</ele><time>2026-04-04T12:45:54.214Z</time></trkpt><trkpt lat="43.4313376" lon="12.6397588"><ele>452.0</ele><time>2026-04-04T12:45:55.214Z</time></trkpt><trkpt lat="43.4312006" lon="12.6397211"><ele>452.0</ele><time>2026-04-04T12:45:56.214Z</time></trkpt><trkpt lat="43.4310527" lon="12.6396833"><ele>450.3333333333333</ele><time>2026-04-04T12:45:57.214Z</time></trkpt><trkpt lat="43.430903" lon="12.6396379"><ele>448.66666666666663</ele><time>2026-04-04T12:45:58.214Z</time></trkpt><trkpt lat="43.4307521" lon="12.6395996"><ele>447.0</ele><time>2026-04-04T12:45:59.214Z</time></trkpt><trkpt lat="43.4306003" lon="12.639583"><ele>447.33333333333337</ele><time>2026-04-04T12:46:00.214Z</time></trkpt><trkpt lat="43.4304469" lon="12.6395996"><ele>447.6666666666667</ele><time>2026-04-04T12:46:01.214Z</time></trkpt><trkpt lat="43.430294" lon="12.6396447"><ele>448.0</ele><time>2026-04-04T12:46:02.214Z</time></trkpt><trkpt lat="43.4301397" lon="12.6397178"><ele>448.0</ele><time>2026-04-04T12:46:03.214Z</time></trkpt><trkpt lat="43.4299838" lon="12.6398041"><ele>448.0</ele><time>2026-04-04T12:46:04.214Z</time></trkpt><trkpt lat="43.4298228" lon="12.639897"><ele>448.0</ele><time>2026-04-04T12:46:05.215Z</time></trkpt><trkpt lat="43.4296678" lon="12.6399977"><ele>450.33333333333337</ele><time>2026-04-04T12:46:06.214Z</time></trkpt><trkpt lat="43.4295088" lon="12.6400864"><ele>452.66666666666663</ele><time>2026-04-04T12:46:07.214Z</time></trkpt><trkpt lat="43.4293515" lon="12.6401742"><ele>455.0</ele><time>2026-04-04T12:46:08.214Z</time></trkpt><trkpt lat="43.4291896" lon="12.6402686"><ele>453.3333333333333</ele><time>2026-04-04T12:46:09.215Z</time></trkpt><trkpt lat="43.4290301" lon="12.6403665"><ele>451.66666666666663</ele><time>2026-04-04T12:46:10.214Z</time></trkpt><trkpt lat="43.4288715" lon="12.6404669"><ele>450.0</ele><time>2026-04-04T12:46:11.214Z</time></trkpt><trkpt lat="43.4287152" lon="12.6405576"><ele>450.0</ele><time>2026-04-04T12:46:12.214Z</time></trkpt><trkpt lat="43.4285607" lon="12.6406509"><ele>450.0</ele><time>2026-04-04T12:46:13.215Z</time></trkpt><trkpt lat="43.4284029" lon="12.6407454"><ele>450.0</ele><time>2026-04-04T12:46:14.214Z</time></trkpt><trkpt lat="43.4282514" lon="12.6408403"><ele>450.0</ele><time>2026-04-04T12:46:15.214Z</time></trkpt><trkpt lat="43.4281044" lon="12.6409398"><ele>450.0</ele><time>2026-04-04T12:46:16.215Z</time></trkpt><trkpt lat="43.4279657" lon="12.6410577"><ele>450.0</ele><time>2026-04-04T12:46:17.214Z</time></trkpt><trkpt lat="43.4278262" lon="12.6411675"><ele>450.0</ele><time>2026-04-04T12:46:18.214Z</time></trkpt><trkpt lat="43.427684" lon="12.6412686"><ele>450.0</ele><time>2026-04-04T12:46:19.214Z</time></trkpt><trkpt lat="43.427541" lon="12.6413648"><ele>450.0</ele><time>2026-04-04T12:46:20.214Z</time></trkpt><trkpt lat="43.4274015" lon="12.6414814"><ele>450.0</ele><time>2026-04-04T12:46:21.214Z</time></trkpt><trkpt lat="43.427269" lon="12.6416118"><ele>450.0</ele><time>2026-04-04T12:46:22.214Z</time></trkpt><trkpt lat="43.4271474" lon="12.6417474"><ele>450.0</ele><time>2026-04-04T12:46:23.214Z</time></trkpt><trkpt lat="43.4270422" lon="12.6418864"><ele>453.5</ele><time>2026-04-04T12:46:24.215Z</time></trkpt><trkpt lat="43.4269569" lon="12.6420475"><ele>457.0</ele><time>2026-04-04T12:46:25.215Z</time></trkpt><trkpt lat="43.4268854" lon="12.6422205"><ele>460.5</ele><time>2026-04-04T12:46:26.214Z</time></trkpt><trkpt lat="43.4268439" lon="12.6424131"><ele>464.0</ele><time>2026-04-04T12:46:27.215Z</time></trkpt><trkpt lat="43.4268091" lon="12.6426123"><ele>463.75</ele><time>2026-04-04T12:46:28.215Z</time></trkpt><trkpt lat="43.4267809" lon="12.6428125"><ele>463.5</ele><time>2026-04-04T12:46:29.214Z</time></trkpt><trkpt lat="43.4267629" lon="12.6430169"><ele>463.25</ele><time>2026-04-04T12:46:30.215Z</time></trkpt><trkpt lat="43.4267622" lon="12.6432216"><ele>463.0</ele><time>2026-04-04T12:46:31.214Z</time></trkpt><trkpt lat="43.4267733" lon="12.6434292"><ele>463.0</ele><time>2026-04-04T12:46:32.215Z</time></trkpt><trkpt lat="43.4268096" lon="12.6436302"><ele>463.0</ele><time>2026-04-04T12:46:33.214Z</time></trkpt><trkpt lat="43.4268647" lon="12.643825"><ele>463.0</ele><time>2026-04-04T12:46:34.214Z</time></trkpt><trkpt lat="43.4269244" lon="12.6439959"><ele>463.0</ele><time>2026-04-04T12:46:35.214Z</time></trkpt><trkpt lat="43.4269807" lon="12.64415"><ele>464.0</ele><time>2026-04-04T12:46:36.214Z</time></trkpt><trkpt lat="43.4270303" lon="12.6442974"><ele>464.99999999999994</ele><time>2026-04-04T12:46:37.214Z</time></trkpt><trkpt lat="43.4270601" lon="12.644434"><ele>465.99999999999994</ele><time>2026-04-04T12:46:38.214Z</time></trkpt><trkpt lat="43.4270613" lon="12.6445602"><ele>467.0</ele><time>2026-04-04T12:46:39.214Z</time></trkpt><trkpt lat="43.4270134" lon="12.6446803"><ele>468.0</ele><time>2026-04-04T12:46:40.214Z</time></trkpt><trkpt lat="43.426945" lon="12.6447872"><ele>468.5</ele><time>2026-04-04T12:46:41.214Z</time></trkpt><trkpt lat="43.4268402" lon="12.6448705"><ele>469.0</ele><time>2026-04-04T12:46:42.214Z</time></trkpt><trkpt lat="43.42672" lon="12.6449318"><ele>469.5</ele><time>2026-04-04T12:46:43.214Z</time></trkpt><trkpt lat="43.4265769" lon="12.6449775"><ele>470.0</ele><time>2026-04-04T12:46:44.215Z</time></trkpt><trkpt lat="43.426426" lon="12.644996"><ele>470.3333333333333</ele><time>2026-04-04T12:46:45.215Z</time></trkpt><trkpt lat="43.4262711" lon="12.6450154"><ele>470.66666666666663</ele><time>2026-04-04T12:46:46.214Z</time></trkpt><trkpt lat="43.4261008" lon="12.6450392"><ele>471.0</ele><time>2026-04-04T12:46:47.214Z</time></trkpt><trkpt lat="43.4259358" lon="12.6450642"><ele>471.0</ele><time>2026-04-04T12:46:48.214Z</time></trkpt><trkpt lat="43.4257904" lon="12.6450829"><ele>471.0</ele><time>2026-04-04T12:46:49.214Z</time></trkpt><trkpt lat="43.4256518" lon="12.6450998"><ele>471.0</ele><time>2026-04-04T12:46:50.215Z</time></trkpt><trkpt lat="43.4255241" lon="12.6451251"><ele>471.0</ele><time>2026-04-04T12:46:51.214Z</time></trkpt><trkpt lat="43.4254032" lon="12.6451684"><ele>470.8</ele><time>2026-04-04T12:46:52.215Z</time></trkpt><trkpt lat="43.4253103" lon="12.6452538"><ele>470.6</ele><time>2026-04-04T12:46:53.215Z</time></trkpt><trkpt lat="43.4252525" lon="12.6453673"><ele>470.4</ele><time>2026-04-04T12:46:54.214Z</time></trkpt><trkpt lat="43.4252071" lon="12.6455014"><ele>470.2</ele><time>2026-04-04T12:46:55.215Z</time></trkpt><trkpt lat="43.4252312" lon="12.6456751"><ele>470.0</ele><time>2026-04-04T12:46:56.214Z</time></trkpt><trkpt lat="43.425255" lon="12.6458392"><ele>469.4</ele><time>2026-04-04T12:46:57.215Z</time></trkpt><trkpt lat="43.4252689" lon="12.6459842"><ele>468.8</ele><time>2026-04-04T12:46:58.214Z</time></trkpt><trkpt lat="43.4252878" lon="12.6461162"><ele>468.20000000000005</ele><time>2026-04-04T12:46:59.214Z</time></trkpt><trkpt lat="43.4253224" lon="12.6462296"><ele>467.6</ele><time>2026-04-04T12:47:00.214Z</time></trkpt><trkpt lat="43.4253809" lon="12.6463193"><ele>467.0</ele><time>2026-04-04T12:47:01.214Z</time></trkpt><trkpt lat="43.4254667" lon="12.6463719"><ele>474.5</ele><time>2026-04-04T12:47:02.214Z</time></trkpt><trkpt lat="43.4255725" lon="12.6463818"><ele>482.0</ele><time>2026-04-04T12:47:03.214Z</time></trkpt><trkpt lat="43.4256928" lon="12.6463467"><ele>489.5</ele><time>2026-04-04T12:47:04.214Z</time></trkpt><trkpt lat="43.4258132" lon="12.646279"><ele>497.0</ele><time>2026-04-04T12:47:05.214Z</time></trkpt><trkpt lat="43.4259295" lon="12.6461752"><ele>494.5</ele><time>2026-04-04T12:47:06.214Z</time></trkpt><trkpt lat="43.4260451" lon="12.6460769"><ele>492.0</ele><time>2026-04-04T12:47:07.214Z</time></trkpt><trkpt lat="43.4261584" lon="12.6459775"><ele>489.5</ele><time>2026-04-04T12:47:08.215Z</time></trkpt><trkpt lat="43.4262718" lon="12.6458824"><ele>487.0</ele><time>2026-04-04T12:47:09.214Z</time></trkpt><trkpt lat="43.4263932" lon="12.645824"><ele>487.0</ele><time>2026-04-04T12:47:10.214Z</time></trkpt><trkpt lat="43.4265182" lon="12.6457859"><ele>487.0</ele><time>2026-04-04T12:47:11.214Z</time></trkpt><trkpt lat="43.4266666" lon="12.6457507"><ele>487.0</ele><time>2026-04-04T12:47:12.214Z</time></trkpt><trkpt lat="43.426798" lon="12.6456669"><ele>487.0</ele><time>2026-04-04T12:47:13.214Z</time></trkpt><trkpt lat="43.4269315" lon="12.6455584"><ele>487.0</ele><time>2026-04-04T12:47:14.215Z</time></trkpt><trkpt lat="43.4270668" lon="12.6454835"><ele>487.0</ele><time>2026-04-04T12:47:15.214Z</time></trkpt><trkpt lat="43.4272116" lon="12.6454359"><ele>487.0</ele><time>2026-04-04T12:47:16.215Z</time></trkpt><trkpt lat="43.4273459" lon="12.6453759"><ele>487.0</ele><time>2026-04-04T12:47:17.214Z</time></trkpt><trkpt lat="43.4274661" lon="12.6452862"><ele>486.0</ele><time>2026-04-04T12:47:18.215Z</time></trkpt><trkpt lat="43.4275787" lon="12.6451661"><ele>485.0</ele><time>2026-04-04T12:47:19.214Z</time></trkpt><trkpt lat="43.4276592" lon="12.6450133"><ele>484.0</ele><time>2026-04-04T12:47:20.214Z</time></trkpt><trkpt lat="43.4277359" lon="12.6448398"><ele>483.0</ele><time>2026-04-04T12:47:21.214Z</time></trkpt><trkpt lat="43.4278038" lon="12.6446804"><ele>483.0</ele><time>2026-04-04T12:47:22.214Z</time></trkpt><trkpt lat="43.427876" lon="12.6445195"><ele>482.99999999999994</ele><time>2026-04-04T12:47:23.214Z</time></trkpt><trkpt lat="43.4279335" lon="12.6443748"><ele>482.99999999999994</ele><time>2026-04-04T12:47:24.214Z</time></trkpt><trkpt lat="43.4279959" lon="12.6442555"><ele>483.0</ele><time>2026-04-04T12:47:25.215Z</time></trkpt><trkpt lat="43.4280542" lon="12.6441777"><ele>483.0</ele><time>2026-04-04T12:47:26.215Z</time></trkpt><trkpt lat="43.4281166" lon="12.6441433"><ele>483.0</ele><time>2026-04-04T12:47:27.215Z</time></trkpt><trkpt lat="43.4281799" lon="12.6441648"><ele>483.0</ele><time>2026-04-04T12:47:28.215Z</time></trkpt><trkpt lat="43.428212" lon="12.6442424"><ele>483.0</ele><time>2026-04-04T12:47:29.214Z</time></trkpt><trkpt lat="43.4282046" lon="12.6443468"><ele>483.0</ele><time>2026-04-04T12:47:30.214Z</time></trkpt><trkpt lat="43.4281384" lon="12.6444428"><ele>483.0</ele><time>2026-04-04T12:47:31.214Z</time></trkpt><trkpt lat="43.4280425" lon="12.6445489"><ele>483.0</ele><time>2026-04-04T12:47:32.215Z</time></trkpt><trkpt lat="43.4279463" lon="12.6446698"><ele>483.0</ele><time>2026-04-04T12:47:33.215Z</time></trkpt><trkpt lat="43.4278484" lon="12.6448225"><ele>483.0</ele><time>2026-04-04T12:47:34.214Z</time></trkpt><trkpt lat="43.4277456" lon="12.6450024"><ele>483.0</ele><time>2026-04-04T12:47:35.215Z</time></trkpt><trkpt lat="43.4276522" lon="12.6451682"><ele>492.33333333333337</ele><time>2026-04-04T12:47:36.214Z</time></trkpt><trkpt lat="43.4275473" lon="12.6453242"><ele>501.6666666666667</ele><time>2026-04-04T12:47:37.215Z</time></trkpt><trkpt lat="43.4274189" lon="12.6454452"><ele>511.0</ele><time>2026-04-04T12:47:38.214Z</time></trkpt><trkpt lat="43.4272816" lon="12.6455614"><ele>511.0</ele><time>2026-04-04T12:47:39.214Z</time></trkpt><trkpt lat="43.427151" lon="12.6456825"><ele>511.0</ele><time>2026-04-04T12:47:40.214Z</time></trkpt><trkpt lat="43.4270501" lon="12.6458287"><ele>511.0</ele><time>2026-04-04T12:47:41.214Z</time></trkpt><trkpt lat="43.4269416" lon="12.6459547"><ele>511.0</ele><time>2026-04-04T12:47:42.214Z</time></trkpt><trkpt lat="43.4268357" lon="12.6460596"><ele>511.0</ele><time>2026-04-04T12:47:43.214Z</time></trkpt><trkpt lat="43.4266977" lon="12.6460664"><ele>511.0</ele><time>2026-04-04T12:47:44.215Z</time></trkpt><trkpt lat="43.426563" lon="12.6460905"><ele>511.0</ele><time>2026-04-04T12:47:45.214Z</time></trkpt><trkpt lat="43.4264249" lon="12.6461382"><ele>511.0</ele><time>2026-04-04T12:47:46.215Z</time></trkpt><trkpt lat="43.4262849" lon="12.6462251"><ele>506.33333333333337</ele><time>2026-04-04T12:47:47.214Z</time></trkpt><trkpt lat="43.4261459" lon="12.6463735"><ele>501.66666666666663</ele><time>2026-04-04T12:47:48.214Z</time></trkpt><trkpt lat="43.4260171" lon="12.6465351"><ele>497.0</ele><time>2026-04-04T12:47:49.214Z</time></trkpt><trkpt lat="43.4258735" lon="12.6467079"><ele>497.0</ele><time>2026-04-04T12:47:50.214Z</time></trkpt><trkpt lat="43.4257206" lon="12.6468588"><ele>497.0</ele><time>2026-04-04T12:47:51.214Z</time></trkpt><trkpt lat="43.4255525" lon="12.6470008"><ele>497.0</ele><time>2026-04-04T12:47:52.215Z</time></trkpt><trkpt lat="43.4253805" lon="12.6470988"><ele>505.3333333333333</ele><time>2026-04-04T12:47:53.214Z</time></trkpt><trkpt lat="43.4252148" lon="12.6471937"><ele>513.6666666666666</ele><time>2026-04-04T12:47:54.214Z</time></trkpt><trkpt lat="43.4250458" lon="12.6472498"><ele>522.0</ele><time>2026-04-04T12:47:55.215Z</time></trkpt><trkpt lat="43.4248848" lon="12.6472722"><ele>522.0</ele><time>2026-04-04T12:47:56.214Z</time></trkpt><trkpt lat="43.4247181" lon="12.647262"><ele>522.0</ele><time>2026-04-04T12:47:57.214Z</time></trkpt><trkpt lat="43.4245518" lon="12.6472385"><ele>522.0</ele><time>2026-04-04T12:47:58.214Z</time></trkpt><trkpt lat="43.4243985" lon="12.64721"><ele>521.5</ele><time>2026-04-04T12:47:59.214Z</time></trkpt><trkpt lat="43.4242616" lon="12.6471971"><ele>521.0</ele><time>2026-04-04T12:48:00.214Z</time></trkpt><trkpt lat="43.424134" lon="12.6471915"><ele>520.5</ele><time>2026-04-04T12:48:01.215Z</time></trkpt><trkpt lat="43.4240133" lon="12.6472353"><ele>520.0</ele><time>2026-04-04T12:48:02.214Z</time></trkpt><trkpt lat="43.4238909" lon="12.6473148"><ele>514.0</ele><time>2026-04-04T12:48:03.214Z</time></trkpt><trkpt lat="43.4237735" lon="12.6474374"><ele>508.0</ele><time>2026-04-04T12:48:04.215Z</time></trkpt><trkpt lat="43.4236423" lon="12.6475834"><ele>502.0</ele><time>2026-04-04T12:48:05.214Z</time></trkpt><trkpt lat="43.4235092" lon="12.647728"><ele>511.33333333333337</ele><time>2026-04-04T12:48:06.214Z</time></trkpt><trkpt lat="43.4233797" lon="12.6478694"><ele>520.6666666666666</ele><time>2026-04-04T12:48:07.214Z</time></trkpt><trkpt lat="43.423253" lon="12.6480369"><ele>530.0</ele><time>2026-04-04T12:48:08.214Z</time></trkpt><trkpt lat="43.4231352" lon="12.6482251"><ele>530.0</ele><time>2026-04-04T12:48:09.214Z</time></trkpt><trkpt lat="43.4230255" lon="12.6484585"><ele>530.0</ele><time>2026-04-04T12:48:10.214Z</time></trkpt><trkpt lat="43.4229303" lon="12.6486782"><ele>530.0</ele><time>2026-04-04T12:48:11.215Z</time></trkpt><trkpt lat="43.4228403" lon="12.6489005"><ele>527.3333333333333</ele><time>2026-04-04T12:48:12.214Z</time></trkpt><trkpt lat="43.4227543" lon="12.6491232"><ele>524.6666666666666</ele><time>2026-04-04T12:48:13.214Z</time></trkpt><trkpt lat="43.4226652" lon="12.6493371"><ele>522.0</ele><time>2026-04-04T12:48:14.214Z</time></trkpt><trkpt lat="43.4225731" lon="12.6495407"><ele>528.3333333333334</ele><time>2026-04-04T12:48:15.214Z</time></trkpt><trkpt lat="43.4224674" lon="12.6497123"><ele>534.6666666666667</ele><time>2026-04-04T12:48:16.215Z</time></trkpt><trkpt lat="43.4223466" lon="12.6498683"><ele>541.0</ele><time>2026-04-04T12:48:17.214Z</time></trkpt><trkpt lat="43.4222076" lon="12.6500074"><ele>543.6666666666667</ele><time>2026-04-04T12:48:18.214Z</time></trkpt><trkpt lat="43.4220513" lon="12.6501274"><ele>546.3333333333334</ele><time>2026-04-04T12:48:19.214Z</time></trkpt><trkpt lat="43.42189" lon="12.6502585"><ele>549.0</ele><time>2026-04-04T12:48:20.215Z</time></trkpt><trkpt lat="43.4217221" lon="12.6503848"><ele>549.0</ele><time>2026-04-04T12:48:21.214Z</time></trkpt><trkpt lat="43.4215593" lon="12.6505095"><ele>549.0</ele><time>2026-04-04T12:48:22.214Z</time></trkpt><trkpt lat="43.4214019" lon="12.6506406"><ele>549.0</ele><time>2026-04-04T12:48:23.214Z</time></trkpt><trkpt lat="43.421245" lon="12.6507732"><ele>550.0</ele><time>2026-04-04T12:48:24.214Z</time></trkpt><trkpt lat="43.421099" lon="12.6509078"><ele>551.0</ele><time>2026-04-04T12:48:25.214Z</time></trkpt><trkpt lat="43.4209685" lon="12.6510603"><ele>552.0</ele><time>2026-04-04T12:48:26.214Z</time></trkpt><trkpt lat="43.4208418" lon="12.6512407"><ele>552.0</ele><time>2026-04-04T12:48:27.214Z</time></trkpt><trkpt lat="43.4207171" lon="12.6514014"><ele>552.0</ele><time>2026-04-04T12:48:28.214Z</time></trkpt><trkpt lat="43.4205818" lon="12.6515629"><ele>552.0</ele><time>2026-04-04T12:48:29.215Z</time></trkpt><trkpt lat="43.4204296" lon="12.6517035"><ele>554.0</ele><time>2026-04-04T12:48:30.215Z</time></trkpt><trkpt lat="43.4202666" lon="12.6518301"><ele>556.0</ele><time>2026-04-04T12:48:31.214Z</time></trkpt><trkpt lat="43.4200984" lon="12.6519556"><ele>558.0</ele><time>2026-04-04T12:48:32.214Z</time></trkpt><trkpt lat="43.4199301" lon="12.6520766"><ele>558.0</ele><time>2026-04-04T12:48:33.215Z</time></trkpt><trkpt lat="43.4197681" lon="12.6522026"><ele>558.0</ele><time>2026-04-04T12:48:34.214Z</time></trkpt><trkpt lat="43.4196198" lon="12.6523485"><ele>558.0</ele><time>2026-04-04T12:48:35.214Z</time></trkpt><trkpt lat="43.419481" lon="12.6525123"><ele>557.3333333333334</ele><time>2026-04-04T12:48:36.214Z</time></trkpt><trkpt lat="43.4193512" lon="12.6527009"><ele>556.6666666666667</ele><time>2026-04-04T12:48:37.214Z</time></trkpt><trkpt lat="43.4192233" lon="12.6528857"><ele>556.0</ele><time>2026-04-04T12:48:38.214Z</time></trkpt><trkpt lat="43.4191111" lon="12.6530944"><ele>556.0</ele><time>2026-04-04T12:48:39.214Z</time></trkpt><trkpt lat="43.4190015" lon="12.6532953"><ele>556.0</ele><time>2026-04-04T12:48:40.214Z</time></trkpt><trkpt lat="43.4188908" lon="12.653468"><ele>556.0</ele><time>2026-04-04T12:48:41.214Z</time></trkpt><trkpt lat="43.4187743" lon="12.653628"><ele>554.75</ele><time>2026-04-04T12:48:42.214Z</time></trkpt><trkpt lat="43.4186601" lon="12.653762"><ele>553.5</ele><time>2026-04-04T12:48:43.215Z</time></trkpt><trkpt lat="43.4185562" lon="12.6538821"><ele>552.25</ele><time>2026-04-04T12:48:44.214Z</time></trkpt><trkpt lat="43.4184577" lon="12.6539976"><ele>551.0</ele><time>2026-04-04T12:48:45.214Z</time></trkpt><trkpt lat="43.4183725" lon="12.6541283"><ele>551.0</ele><time>2026-04-04T12:48:46.215Z</time></trkpt><trkpt lat="43.4183089" lon="12.6542804"><ele>551.0</ele><time>2026-04-04T12:48:47.215Z</time></trkpt><trkpt lat="43.4182639" lon="12.6544727"><ele>551.0</ele><time>2026-04-04T12:48:48.214Z</time></trkpt><trkpt lat="43.4182221" lon="12.6546665"><ele>551.0</ele><time>2026-04-04T12:48:49.215Z</time></trkpt><trkpt lat="43.4181647" lon="12.6548579"><ele>554.3333333333333</ele><time>2026-04-04T12:48:50.214Z</time></trkpt><trkpt lat="43.4180849" lon="12.6550367"><ele>557.6666666666666</ele><time>2026-04-04T12:48:51.215Z</time></trkpt><trkpt lat="43.4179862" lon="12.6552002"><ele>561.0</ele><time>2026-04-04T12:48:52.215Z</time></trkpt><trkpt lat="43.4178848" lon="12.6553598"><ele>561.0</ele><time>2026-04-04T12:48:53.214Z</time></trkpt><trkpt lat="43.4177554" lon="12.6554573"><ele>561.0</ele><time>2026-04-04T12:48:54.214Z</time></trkpt><trkpt lat="43.4176269" lon="12.6555524"><ele>561.0</ele><time>2026-04-04T12:48:55.214Z</time></trkpt><trkpt lat="43.4175003" lon="12.6556182"><ele>561.0</ele><time>2026-04-04T12:48:56.214Z</time></trkpt><trkpt lat="43.4173776" lon="12.6556665"><ele>561.0</ele><time>2026-04-04T12:48:57.214Z</time></trkpt><trkpt lat="43.4172612" lon="12.6556613"><ele>561.0</ele><time>2026-04-04T12:48:58.214Z</time></trkpt><trkpt lat="43.4171528" lon="12.6556523"><ele>561.0</ele><time>2026-04-04T12:48:59.214Z</time></trkpt><trkpt lat="43.4170512" lon="12.6556057"><ele>561.0</ele><time>2026-04-04T12:49:00.214Z</time></trkpt><trkpt lat="43.4169682" lon="12.6555286"><ele>561.0</ele><time>2026-04-04T12:49:01.214Z</time></trkpt><trkpt lat="43.4169187" lon="12.655428"><ele>561.0</ele><time>2026-04-04T12:49:02.214Z</time></trkpt><trkpt lat="43.4168632" lon="12.6553113"><ele>561.0</ele><time>2026-04-04T12:49:03.214Z</time></trkpt><trkpt lat="43.4167834" lon="12.6552132"><ele>561.0</ele><time>2026-04-04T12:49:04.214Z</time></trkpt><trkpt lat="43.4166764" lon="12.6551503"><ele>561.0</ele><time>2026-04-04T12:49:05.214Z</time></trkpt><trkpt lat="43.4165701" lon="12.6551043"><ele>561.0</ele><time>2026-04-04T12:49:06.214Z</time></trkpt><trkpt lat="43.4164413" lon="12.6550694"><ele>564.75</ele><time>2026-04-04T12:49:07.214Z</time></trkpt><trkpt lat="43.416314" lon="12.6550082"><ele>568.5</ele><time>2026-04-04T12:49:08.215Z</time></trkpt><trkpt lat="43.4161822" lon="12.6549623"><ele>572.25</ele><time>2026-04-04T12:49:09.215Z</time></trkpt><trkpt lat="43.4160424" lon="12.6549395"><ele>576.0</ele><time>2026-04-04T12:49:10.214Z</time></trkpt><trkpt lat="43.4159014" lon="12.6549423"><ele>576.0</ele><time>2026-04-04T12:49:11.214Z</time></trkpt><trkpt lat="43.4157631" lon="12.6549317"><ele>576.0</ele><time>2026-04-04T12:49:12.214Z</time></trkpt><trkpt lat="43.4156302" lon="12.6549003"><ele>576.0</ele><time>2026-04-04T12:49:13.214Z</time></trkpt><trkpt lat="43.4155147" lon="12.6548134"><ele>576.0</ele><time>2026-04-04T12:49:14.214Z</time></trkpt><trkpt lat="43.4154145" lon="12.6547081"><ele>578.75</ele><time>2026-04-04T12:49:15.214Z</time></trkpt><trkpt lat="43.4153162" lon="12.6546031"><ele>581.5</ele><time>2026-04-04T12:49:16.214Z</time></trkpt><trkpt lat="43.4151996" lon="12.6545366"><ele>584.25</ele><time>2026-04-04T12:49:17.214Z</time></trkpt><trkpt lat="43.4150759" lon="12.6545113"><ele>587.0</ele><time>2026-04-04T12:49:18.214Z</time></trkpt><trkpt lat="43.4149531" lon="12.6545034"><ele>587.0</ele><time>2026-04-04T12:49:19.214Z</time></trkpt><trkpt lat="43.4148231" lon="12.6545525"><ele>587.0</ele><time>2026-04-04T12:49:20.215Z</time></trkpt><trkpt lat="43.4146831" lon="12.6546128"><ele>587.0</ele><time>2026-04-04T12:49:21.214Z</time></trkpt><trkpt lat="43.4145441" lon="12.6546807"><ele>587.0</ele><time>2026-04-04T12:49:22.214Z</time></trkpt><trkpt lat="43.4144107" lon="12.6547398"><ele>587.0</ele><time>2026-04-04T12:49:23.214Z</time></trkpt><trkpt lat="43.4142679" lon="12.654803"><ele>587.0</ele><time>2026-04-04T12:49:24.214Z</time></trkpt><trkpt lat="43.4141194" lon="12.6548428"><ele>587.0</ele><time>2026-04-04T12:49:25.214Z</time></trkpt><trkpt lat="43.4139773" lon="12.6548579"><ele>587.0</ele><time>2026-04-04T12:49:26.214Z</time></trkpt><trkpt lat="43.41383" lon="12.6548504"><ele>584.25</ele><time>2026-04-04T12:49:27.214Z</time></trkpt><trkpt lat="43.4136931" lon="12.6548398"><ele>581.5</ele><time>2026-04-04T12:49:28.214Z</time></trkpt><trkpt lat="43.4135716" lon="12.6548496"><ele>578.75</ele><time>2026-04-04T12:49:29.214Z</time></trkpt><trkpt lat="43.4134592" lon="12.6548867"><ele>576.0</ele><time>2026-04-04T12:49:30.214Z</time></trkpt><trkpt lat="43.4133792" lon="12.6549502"><ele>576.0</ele><time>2026-04-04T12:49:31.215Z</time></trkpt><trkpt lat="43.4133341" lon="12.6550482"><ele>576.0</ele><time>2026-04-04T12:49:32.214Z</time></trkpt><trkpt lat="43.4133366" lon="12.6551539"><ele>576.0</ele><time>2026-04-04T12:49:33.214Z</time></trkpt><trkpt lat="43.4133789" lon="12.65525"><ele>576.0</ele><time>2026-04-04T12:49:34.215Z</time></trkpt><trkpt lat="43.4134624" lon="12.6553026"><ele>576.0</ele><time>2026-04-04T12:49:35.214Z</time></trkpt><trkpt lat="43.4135641" lon="12.6553251"><ele>576.0</ele><time>2026-04-04T12:49:36.214Z</time></trkpt><trkpt lat="43.4136717" lon="12.6552926"><ele>576.0</ele><time>2026-04-04T12:49:37.215Z</time></trkpt><trkpt lat="43.413782" lon="12.6552267"><ele>576.0</ele><time>2026-04-04T12:49:38.214Z</time></trkpt><trkpt lat="43.4138983" lon="12.6551739"><ele>576.0</ele><time>2026-04-04T12:49:39.214Z</time></trkpt><trkpt lat="43.4140112" lon="12.6551423"><ele>576.0</ele><time>2026-04-04T12:49:40.214Z</time></trkpt><trkpt lat="43.4141656" lon="12.6551994"><ele>579.6666666666666</ele><time>2026-04-04T12:49:41.214Z</time></trkpt><trkpt lat="43.4143193" lon="12.6552112"><ele>583.3333333333333</ele><time>2026-04-04T12:49:42.214Z</time></trkpt><trkpt lat="43.4144706" lon="12.6552326"><ele>587.0</ele><time>2026-04-04T12:49:43.215Z</time></trkpt><trkpt lat="43.4146354" lon="12.6552588"><ele>587.0</ele><time>2026-04-04T12:49:44.214Z</time></trkpt><trkpt lat="43.4147948" lon="12.6552802"><ele>587.0</ele><time>2026-04-04T12:49:45.214Z</time></trkpt><trkpt lat="43.4149443" lon="12.6553107"><ele>587.0</ele><time>2026-04-04T12:49:46.214Z</time></trkpt><trkpt lat="43.4150882" lon="12.6553526"><ele>588.75</ele><time>2026-04-04T12:49:47.215Z</time></trkpt><trkpt lat="43.4152208" lon="12.6553994"><ele>590.5</ele><time>2026-04-04T12:49:48.215Z</time></trkpt><trkpt lat="43.4153391" lon="12.6554662"><ele>592.25</ele><time>2026-04-04T12:49:49.214Z</time></trkpt><trkpt lat="43.4154593" lon="12.655548"><ele>594.0</ele><time>2026-04-04T12:49:50.214Z</time></trkpt><trkpt lat="43.4155675" lon="12.655679"><ele>594.0</ele><time>2026-04-04T12:49:51.214Z</time></trkpt><trkpt lat="43.4156309" lon="12.6558566"><ele>594.0</ele><time>2026-04-04T12:49:52.214Z</time></trkpt><trkpt lat="43.4157004" lon="12.6559836"><ele>594.0</ele><time>2026-04-04T12:49:53.215Z</time></trkpt><trkpt lat="43.4157515" lon="12.6561093"><ele>594.0</ele><time>2026-04-04T12:49:54.214Z</time></trkpt><trkpt lat="43.4157859" lon="12.6562321"><ele>596.6666666666666</ele><time>2026-04-04T12:49:55.215Z</time></trkpt><trkpt lat="43.4157576" lon="12.6563223"><ele>599.3333333333334</ele><time>2026-04-04T12:49:56.214Z</time></trkpt><trkpt lat="43.4156985" lon="12.6563662"><ele>602.0</ele><time>2026-04-04T12:49:57.214Z</time></trkpt><trkpt lat="43.4156343" lon="12.656355"><ele>604.6666666666667</ele><time>2026-04-04T12:49:58.214Z</time></trkpt><trkpt lat="43.4155628" lon="12.6562771"><ele>607.3333333333334</ele><time>2026-04-04T12:49:59.215Z</time></trkpt><trkpt lat="43.4154953" lon="12.6561497"><ele>610.0</ele><time>2026-04-04T12:50:00.214Z</time></trkpt><trkpt lat="43.4154076" lon="12.6559941"><ele>610.0</ele><time>2026-04-04T12:50:01.214Z</time></trkpt><trkpt lat="43.4153335" lon="12.6558581"><ele>610.0</ele><time>2026-04-04T12:50:02.215Z</time></trkpt><trkpt lat="43.4152446" lon="12.6557448"><ele>610.0</ele><time>2026-04-04T12:50:03.215Z</time></trkpt><trkpt lat="43.4151252" lon="12.655668"><ele>610.0</ele><time>2026-04-04T12:50:04.214Z</time></trkpt><trkpt lat="43.4149925" lon="12.6556327"><ele>610.0</ele><time>2026-04-04T12:50:05.214Z</time></trkpt><trkpt lat="43.4148506" lon="12.6556307"><ele>610.0</ele><time>2026-04-04T12:50:06.215Z</time></trkpt><trkpt lat="43.4147061" lon="12.6556416"><ele>610.0</ele><time>2026-04-04T12:50:07.214Z</time></trkpt><trkpt lat="43.414551" lon="12.6556684"><ele>610.0</ele><time>2026-04-04T12:50:08.214Z</time></trkpt><trkpt lat="43.4144015" lon="12.655738"><ele>611.0</ele><time>2026-04-04T12:50:09.214Z</time></trkpt><trkpt lat="43.4142433" lon="12.6558374"><ele>612.0</ele><time>2026-04-04T12:50:10.214Z</time></trkpt><trkpt lat="43.4140806" lon="12.6559633"><ele>613.0</ele><time>2026-04-04T12:50:11.215Z</time></trkpt><trkpt lat="43.4139209" lon="12.6561182"><ele>615.0</ele><time>2026-04-04T12:50:12.214Z</time></trkpt><trkpt lat="43.413752" lon="12.6562847"><ele>617.0</ele><time>2026-04-04T12:50:13.215Z</time></trkpt><trkpt lat="43.4135726" lon="12.6564716"><ele>619.0</ele><time>2026-04-04T12:50:14.214Z</time></trkpt><trkpt lat="43.4133954" lon="12.6566644"><ele>619.0</ele><time>2026-04-04T12:50:15.215Z</time></trkpt><trkpt lat="43.4132208" lon="12.656848"><ele>619.0</ele><time>2026-04-04T12:50:16.214Z</time></trkpt><trkpt lat="43.4130503" lon="12.6570222"><ele>619.0</ele><time>2026-04-04T12:50:17.215Z</time></trkpt><trkpt lat="43.4128824" lon="12.657195"><ele>621.0</ele><time>2026-04-04T12:50:18.215Z</time></trkpt><trkpt lat="43.4127156" lon="12.6573753"><ele>623.0</ele><time>2026-04-04T12:50:19.215Z</time></trkpt><trkpt lat="43.4125502" lon="12.6575471"><ele>625.0</ele><time>2026-04-04T12:50:20.214Z</time></trkpt><trkpt lat="43.4123871" lon="12.6577156"><ele>628.6666666666667</ele><time>2026-04-04T12:50:21.214Z</time></trkpt><trkpt lat="43.4122299" lon="12.6578751"><ele>632.3333333333334</ele><time>2026-04-04T12:50:22.214Z</time></trkpt><trkpt lat="43.4120698" lon="12.6580319"><ele>636.0</ele><time>2026-04-04T12:50:23.215Z</time></trkpt><trkpt lat="43.4119213" lon="12.6581809"><ele>636.0</ele><time>2026-04-04T12:50:24.214Z</time></trkpt><trkpt lat="43.4117793" lon="12.6583366"><ele>636.0</ele><time>2026-04-04T12:50:25.214Z</time></trkpt><trkpt lat="43.4116559" lon="12.6584789"><ele>636.0</ele><time>2026-04-04T12:50:26.215Z</time></trkpt><trkpt lat="43.4115338" lon="12.6586274"><ele>637.6666666666666</ele><time>2026-04-04T12:50:27.214Z</time></trkpt><trkpt lat="43.4114219" lon="12.6587725"><ele>639.3333333333333</ele><time>2026-04-04T12:50:28.215Z</time></trkpt><trkpt lat="43.411323" lon="12.6589264"><ele>641.0</ele><time>2026-04-04T12:50:29.215Z</time></trkpt><trkpt lat="43.4112219" lon="12.6590818"><ele>641.0</ele><time>2026-04-04T12:50:30.214Z</time></trkpt><trkpt lat="43.4111246" lon="12.6592328"><ele>641.0</ele><time>2026-04-04T12:50:31.215Z</time></trkpt><trkpt lat="43.4110199" lon="12.659377"><ele>641.0</ele><time>2026-04-04T12:50:32.215Z</time></trkpt><trkpt lat="43.4109123" lon="12.6595359"><ele>640.0</ele><time>2026-04-04T12:50:33.215Z</time></trkpt><trkpt lat="43.4108" lon="12.6597109"><ele>639.0</ele><time>2026-04-04T12:50:34.214Z</time></trkpt><trkpt lat="43.4106752" lon="12.6598836"><ele>638.0</ele><time>2026-04-04T12:50:35.214Z</time></trkpt><trkpt lat="43.4105584" lon="12.6600633"><ele>638.3333333333333</ele><time>2026-04-04T12:50:36.214Z</time></trkpt><trkpt lat="43.4104412" lon="12.6602329"><ele>638.6666666666666</ele><time>2026-04-04T12:50:37.214Z</time></trkpt><trkpt lat="43.4103199" lon="12.6603937"><ele>639.0</ele><time>2026-04-04T12:50:38.214Z</time></trkpt><trkpt lat="43.4101855" lon="12.6604955"><ele>639.0</ele><time>2026-04-04T12:50:39.214Z</time></trkpt><trkpt lat="43.4100221" lon="12.6605532"><ele>639.0</ele><time>2026-04-04T12:50:40.215Z</time></trkpt><trkpt lat="43.4098371" lon="12.6606106"><ele>639.0</ele><time>2026-04-04T12:50:41.214Z</time></trkpt><trkpt lat="43.4096567" lon="12.6606719"><ele>635.6666666666666</ele><time>2026-04-04T12:50:42.214Z</time></trkpt><trkpt lat="43.4094684" lon="12.660742"><ele>632.3333333333333</ele><time>2026-04-04T12:50:43.214Z</time></trkpt><trkpt lat="43.4092693" lon="12.6608153"><ele>629.0</ele><time>2026-04-04T12:50:44.214Z</time></trkpt><trkpt lat="43.4090685" lon="12.6608901"><ele>629.0</ele><time>2026-04-04T12:50:45.215Z</time></trkpt><trkpt lat="43.408873" lon="12.6609782"><ele>629.0</ele><time>2026-04-04T12:50:46.214Z</time></trkpt><trkpt lat="43.408671" lon="12.6610506"><ele>629.0</ele><time>2026-04-04T12:50:47.215Z</time></trkpt><trkpt lat="43.4084769" lon="12.6611209"><ele>628.3333333333333</ele><time>2026-04-04T12:50:48.215Z</time></trkpt><trkpt lat="43.4082932" lon="12.6611866"><ele>627.6666666666666</ele><time>2026-04-04T12:50:49.215Z</time></trkpt><trkpt lat="43.4081147" lon="12.661249"><ele>627.0</ele><time>2026-04-04T12:50:50.214Z</time></trkpt><trkpt lat="43.4079446" lon="12.6612982"><ele>624.3333333333334</ele><time>2026-04-04T12:50:51.214Z</time></trkpt><trkpt lat="43.4077779" lon="12.661365"><ele>621.6666666666667</ele><time>2026-04-04T12:50:52.214Z</time></trkpt><trkpt lat="43.4076141" lon="12.6614442"><ele>619.0</ele><time>2026-04-04T12:50:53.214Z</time></trkpt><trkpt lat="43.4074524" lon="12.6615512"><ele>619.0</ele><time>2026-04-04T12:50:54.215Z</time></trkpt><trkpt lat="43.4072878" lon="12.6616692"><ele>619.0</ele><time>2026-04-04T12:50:55.214Z</time></trkpt><trkpt lat="43.4071181" lon="12.6618005"><ele>619.0</ele><time>2026-04-04T12:50:56.215Z</time></trkpt><trkpt lat="43.4069542" lon="12.6619387"><ele>617.6666666666667</ele><time>2026-04-04T12:50:57.214Z</time></trkpt><trkpt lat="43.4067899" lon="12.66208"><ele>616.3333333333334</ele><time>2026-04-04T12:50:58.214Z</time></trkpt><trkpt lat="43.406622" lon="12.6622164"><ele>615.0</ele><time>2026-04-04T12:50:59.215Z</time></trkpt><trkpt lat="43.406455" lon="12.6623529"><ele>611.3333333333334</ele><time>2026-04-04T12:51:00.214Z</time></trkpt><trkpt lat="43.4062868" lon="12.6624867"><ele>607.6666666666667</ele><time>2026-04-04T12:51:01.214Z</time></trkpt><trkpt lat="43.4061231" lon="12.6626173"><ele>604.0</ele><time>2026-04-04T12:51:02.215Z</time></trkpt><trkpt lat="43.4059536" lon="12.6627528"><ele>602.6666666666667</ele><time>2026-04-04T12:51:03.214Z</time></trkpt><trkpt lat="43.4057856" lon="12.6628853"><ele>601.3333333333334</ele><time>2026-04-04T12:51:04.214Z</time></trkpt><trkpt lat="43.4056216" lon="12.6630198"><ele>600.0</ele><time>2026-04-04T12:51:05.214Z</time></trkpt><trkpt lat="43.405462" lon="12.6631539"><ele>600.0</ele><time>2026-04-04T12:51:06.214Z</time></trkpt><trkpt lat="43.4053101" lon="12.6632829"><ele>600.0</ele><time>2026-04-04T12:51:07.214Z</time></trkpt><trkpt lat="43.4051601" lon="12.6634074"><ele>600.0</ele><time>2026-04-04T12:51:08.214Z</time></trkpt><trkpt lat="43.405016" lon="12.6635321"><ele>600.0</ele><time>2026-04-04T12:51:09.215Z</time></trkpt><trkpt lat="43.4048781" lon="12.6636552"><ele>600.0</ele><time>2026-04-04T12:51:10.215Z</time></trkpt><trkpt lat="43.404738" lon="12.6637713"><ele>600.0</ele><time>2026-04-04T12:51:11.214Z</time></trkpt><trkpt lat="43.4045991" lon="12.6638887"><ele>600.0</ele><time>2026-04-04T12:51:12.214Z</time></trkpt><trkpt lat="43.4044607" lon="12.6639958"><ele>600.0</ele><time>2026-04-04T12:51:13.215Z</time></trkpt><trkpt lat="43.4043259" lon="12.6640859"><ele>600.0</ele><time>2026-04-04T12:51:14.214Z</time></trkpt><trkpt lat="43.4041886" lon="12.6641527"><ele>600.0</ele><time>2026-04-04T12:51:15.214Z</time></trkpt><trkpt lat="43.4040588" lon="12.6642211"><ele>600.0</ele><time>2026-04-04T12:51:16.215Z</time></trkpt><trkpt lat="43.4039417" lon="12.6642693"><ele>600.0</ele><time>2026-04-04T12:51:17.214Z</time></trkpt><trkpt lat="43.4038226" lon="12.6643069"><ele>600.0</ele><time>2026-04-04T12:51:18.214Z</time></trkpt><trkpt lat="43.4037097" lon="12.6643515"><ele>600.0</ele><time>2026-04-04T12:51:19.214Z</time></trkpt><trkpt lat="43.4036" lon="12.6643965"><ele>600.0</ele><time>2026-04-04T12:51:20.214Z</time></trkpt><trkpt lat="43.4034933" lon="12.6644608"><ele>600.0</ele><time>2026-04-04T12:51:21.214Z</time></trkpt><trkpt lat="43.4033928" lon="12.664549"><ele>600.0</ele><time>2026-04-04T12:51:22.214Z</time></trkpt><trkpt lat="43.4033069" lon="12.6646581"><ele>600.0</ele><time>2026-04-04T12:51:23.215Z</time></trkpt><trkpt lat="43.4032245" lon="12.6647893"><ele>600.0</ele><time>2026-04-04T12:51:24.214Z</time></trkpt><trkpt lat="43.4031518" lon="12.6649263"><ele>600.0</ele><time>2026-04-04T12:51:25.214Z</time></trkpt><trkpt lat="43.4030941" lon="12.6650766"><ele>600.0</ele><time>2026-04-04T12:51:26.215Z</time></trkpt><trkpt lat="43.4030454" lon="12.6652237"><ele>599.5</ele><time>2026-04-04T12:51:27.214Z</time></trkpt><trkpt lat="43.4029982" lon="12.6653682"><ele>599.0</ele><time>2026-04-04T12:51:28.214Z</time></trkpt><trkpt lat="43.402963" lon="12.665512"><ele>598.5</ele><time>2026-04-04T12:51:29.214Z</time></trkpt><trkpt lat="43.4029351" lon="12.6656623"><ele>598.0</ele><time>2026-04-04T12:51:30.214Z</time></trkpt><trkpt lat="43.4029218" lon="12.6658155"><ele>595.1999999999999</ele><time>2026-04-04T12:51:31.214Z</time></trkpt><trkpt lat="43.402914" lon="12.6659675"><ele>592.4</ele><time>2026-04-04T12:51:32.214Z</time></trkpt><trkpt lat="43.402914" lon="12.6661194"><ele>589.5999999999999</ele><time>2026-04-04T12:51:33.214Z</time></trkpt><trkpt lat="43.4029148" lon="12.6662594"><ele>586.8</ele><time>2026-04-04T12:51:34.215Z</time></trkpt><trkpt lat="43.402916" lon="12.6664045"><ele>584.0</ele><time>2026-04-04T12:51:35.215Z</time></trkpt><trkpt lat="43.40292" lon="12.6665515"><ele>584.0</ele><time>2026-04-04T12:51:36.214Z</time></trkpt><trkpt lat="43.4029201" lon="12.6667013"><ele>584.0</ele><time>2026-04-04T12:51:37.214Z</time></trkpt><trkpt lat="43.4029231" lon="12.6668536"><ele>584.0</ele><time>2026-04-04T12:51:38.214Z</time></trkpt><trkpt lat="43.4029272" lon="12.6670137"><ele>584.0</ele><time>2026-04-04T12:51:39.214Z</time></trkpt><trkpt lat="43.4029332" lon="12.6671743"><ele>583.25</ele><time>2026-04-04T12:51:40.215Z</time></trkpt><trkpt lat="43.4029349" lon="12.6673437"><ele>582.5</ele><time>2026-04-04T12:51:41.214Z</time></trkpt><trkpt lat="43.402929" lon="12.667508"><ele>581.75</ele><time>2026-04-04T12:51:42.215Z</time></trkpt><trkpt lat="43.4029117" lon="12.6676707"><ele>581.0</ele><time>2026-04-04T12:51:43.214Z</time></trkpt><trkpt lat="43.4028733" lon="12.667825"><ele>580.0</ele><time>2026-04-04T12:51:44.214Z</time></trkpt><trkpt lat="43.4028307" lon="12.6679822"><ele>579.0</ele><time>2026-04-04T12:51:45.214Z</time></trkpt><trkpt lat="43.402771" lon="12.668122"><ele>578.0</ele><time>2026-04-04T12:51:46.214Z</time></trkpt><trkpt lat="43.4027121" lon="12.6682746"><ele>577.0</ele><time>2026-04-04T12:51:47.214Z</time></trkpt><trkpt lat="43.4026444" lon="12.6684289"><ele>577.0</ele><time>2026-04-04T12:51:48.214Z</time></trkpt><trkpt lat="43.4025655" lon="12.6685747"><ele>577.0</ele><time>2026-04-04T12:51:49.214Z</time></trkpt><trkpt lat="43.4024882" lon="12.6687189"><ele>577.0</ele><time>2026-04-04T12:51:50.214Z</time></trkpt><trkpt lat="43.4024113" lon="12.668858"><ele>577.0</ele><time>2026-04-04T12:51:51.215Z</time></trkpt><trkpt lat="43.4023308" lon="12.669003"><ele>577.25</ele><time>2026-04-04T12:51:52.214Z</time></trkpt><trkpt lat="43.4022521" lon="12.6691479"><ele>577.5</ele><time>2026-04-04T12:51:53.214Z</time></trkpt><trkpt lat="43.4021798" lon="12.6693039"><ele>577.75</ele><time>2026-04-04T12:51:54.215Z</time></trkpt><trkpt lat="43.4020971" lon="12.669444"><ele>578.0</ele><time>2026-04-04T12:51:55.215Z</time></trkpt><trkpt lat="43.4020078" lon="12.6695705"><ele>578.75</ele><time>2026-04-04T12:51:56.215Z</time></trkpt><trkpt lat="43.4019046" lon="12.6696827"><ele>579.5</ele><time>2026-04-04T12:51:57.215Z</time></trkpt><trkpt lat="43.4017834" lon="12.6697638"><ele>580.25</ele><time>2026-04-04T12:51:58.214Z</time></trkpt><trkpt lat="43.4016487" lon="12.6698318"><ele>581.0</ele><time>2026-04-04T12:51:59.215Z</time></trkpt><trkpt lat="43.4015055" lon="12.66987"><ele>581.0</ele><time>2026-04-04T12:52:00.214Z</time></trkpt><trkpt lat="43.4013562" lon="12.6698975"><ele>581.0</ele><time>2026-04-04T12:52:01.214Z</time></trkpt><trkpt lat="43.4012086" lon="12.6699216"><ele>581.0</ele><time>2026-04-04T12:52:02.214Z</time></trkpt><trkpt lat="43.4010647" lon="12.6699421"><ele>581.0</ele><time>2026-04-04T12:52:03.214Z</time></trkpt><trkpt lat="43.4009212" lon="12.6699643"><ele>582.25</ele><time>2026-04-04T12:52:04.214Z</time></trkpt><trkpt lat="43.4007779" lon="12.6699843"><ele>583.5</ele><time>2026-04-04T12:52:05.214Z</time></trkpt><trkpt lat="43.4006354" lon="12.6699896"><ele>584.75</ele><time>2026-04-04T12:52:06.214Z</time></trkpt><trkpt lat="43.4004899" lon="12.6700128"><ele>586.0</ele><time>2026-04-04T12:52:07.214Z</time></trkpt><trkpt lat="43.4003427" lon="12.6700197"><ele>586.0</ele><time>2026-04-04T12:52:08.214Z</time></trkpt><trkpt lat="43.400195" lon="12.6700311"><ele>586.0</ele><time>2026-04-04T12:52:09.214Z</time></trkpt><trkpt lat="43.4000556" lon="12.6700528"><ele>586.0</ele><time>2026-04-04T12:52:10.215Z</time></trkpt><trkpt lat="43.3999194" lon="12.6700789"><ele>586.0</ele><time>2026-04-04T12:52:11.214Z</time></trkpt><trkpt lat="43.3997935" lon="12.6701149"><ele>586.0</ele><time>2026-04-04T12:52:12.214Z</time></trkpt><trkpt lat="43.3996781" lon="12.6701681"><ele>586.0</ele><time>2026-04-04T12:52:13.214Z</time></trkpt><trkpt lat="43.3995725" lon="12.6702421"><ele>586.0</ele><time>2026-04-04T12:52:14.214Z</time></trkpt><trkpt lat="43.3994782" lon="12.6703375"><ele>586.0</ele><time>2026-04-04T12:52:15.214Z</time></trkpt><trkpt lat="43.3993948" lon="12.6704581"><ele>587.25</ele><time>2026-04-04T12:52:16.214Z</time></trkpt><trkpt lat="43.3993194" lon="12.6705956"><ele>588.5</ele><time>2026-04-04T12:52:17.214Z</time></trkpt><trkpt lat="43.3992571" lon="12.6707369"><ele>589.75</ele><time>2026-04-04T12:52:18.214Z</time></trkpt><trkpt lat="43.3992132" lon="12.6708982"><ele>591.0</ele><time>2026-04-04T12:52:19.215Z</time></trkpt><trkpt lat="43.399183" lon="12.6710603"><ele>590.25</ele><time>2026-04-04T12:52:20.215Z</time></trkpt><trkpt lat="43.3991674" lon="12.6712367"><ele>589.5</ele><time>2026-04-04T12:52:21.214Z</time></trkpt><trkpt lat="43.3991614" lon="12.6714352"><ele>588.75</ele><time>2026-04-04T12:52:22.214Z</time></trkpt><trkpt lat="43.399158" lon="12.6716245"><ele>588.0</ele><time>2026-04-04T12:52:23.214Z</time></trkpt><trkpt lat="43.3991506" lon="12.6718199"><ele>586.0</ele><time>2026-04-04T12:52:24.215Z</time></trkpt><trkpt lat="43.3991371" lon="12.6720211"><ele>584.0</ele><time>2026-04-04T12:52:25.214Z</time></trkpt><trkpt lat="43.3991079" lon="12.6722258"><ele>582.0</ele><time>2026-04-04T12:52:26.214Z</time></trkpt><trkpt lat="43.3990634" lon="12.672442"><ele>582.0</ele><time>2026-04-04T12:52:27.215Z</time></trkpt><trkpt lat="43.3990092" lon="12.6726406"><ele>582.0</ele><time>2026-04-04T12:52:28.214Z</time></trkpt><trkpt lat="43.3989679" lon="12.6728658"><ele>582.0</ele><time>2026-04-04T12:52:29.215Z</time></trkpt><trkpt lat="43.3989125" lon="12.6730697"><ele>582.5</ele><time>2026-04-04T12:52:30.214Z</time></trkpt><trkpt lat="43.3988472" lon="12.6732605"><ele>583.0</ele><time>2026-04-04T12:52:31.214Z</time></trkpt><trkpt lat="43.39878" lon="12.6734442"><ele>583.5</ele><time>2026-04-04T12:52:32.214Z</time></trkpt><trkpt lat="43.3986972" lon="12.6736111"><ele>584.0</ele><time>2026-04-04T12:52:33.214Z</time></trkpt><trkpt lat="43.3985926" lon="12.6737558"><ele>581.6666666666666</ele><time>2026-04-04T12:52:34.214Z</time></trkpt><trkpt lat="43.3984725" lon="12.6738962"><ele>579.3333333333334</ele><time>2026-04-04T12:52:35.214Z</time></trkpt><trkpt lat="43.3983494" lon="12.6740468"><ele>577.0</ele><time>2026-04-04T12:52:36.215Z</time></trkpt><trkpt lat="43.3982255" lon="12.674216"><ele>577.0</ele><time>2026-04-04T12:52:37.214Z</time></trkpt><trkpt lat="43.3980998" lon="12.6743781"><ele>577.0</ele><time>2026-04-04T12:52:38.214Z</time></trkpt><trkpt lat="43.397982" lon="12.6745432"><ele>577.0</ele><time>2026-04-04T12:52:39.214Z</time></trkpt><trkpt lat="43.3978494" lon="12.6747136"><ele>575.3333333333334</ele><time>2026-04-04T12:52:40.214Z</time></trkpt><trkpt lat="43.3977162" lon="12.6748766"><ele>573.6666666666666</ele><time>2026-04-04T12:52:41.214Z</time></trkpt><trkpt lat="43.3975819" lon="12.6750348"><ele>572.0</ele><time>2026-04-04T12:52:42.214Z</time></trkpt><trkpt lat="43.3974454" lon="12.6752028"><ele>568.6666666666666</ele><time>2026-04-04T12:52:43.214Z</time></trkpt><trkpt lat="43.3973123" lon="12.6753793"><ele>565.3333333333334</ele><time>2026-04-04T12:52:44.215Z</time></trkpt><trkpt lat="43.3971864" lon="12.6755698"><ele>562.0</ele><time>2026-04-04T12:52:45.214Z</time></trkpt><trkpt lat="43.3970574" lon="12.6757782"><ele>562.0</ele><time>2026-04-04T12:52:46.214Z</time></trkpt><trkpt lat="43.3969406" lon="12.6759822"><ele>562.0</ele><time>2026-04-04T12:52:47.215Z</time></trkpt><trkpt lat="43.3968204" lon="12.6761826"><ele>562.0</ele><time>2026-04-04T12:52:48.214Z</time></trkpt><trkpt lat="43.3966998" lon="12.6763837"><ele>564.3333333333334</ele><time>2026-04-04T12:52:49.214Z</time></trkpt><trkpt lat="43.3965936" lon="12.6765904"><ele>566.6666666666666</ele><time>2026-04-04T12:52:50.214Z</time></trkpt><trkpt lat="43.3964941" lon="12.6768024"><ele>569.0</ele><time>2026-04-04T12:52:51.214Z</time></trkpt><trkpt lat="43.3964064" lon="12.677032"><ele>566.3333333333333</ele><time>2026-04-04T12:52:52.214Z</time></trkpt><trkpt lat="43.3963219" lon="12.6772491"><ele>563.6666666666666</ele><time>2026-04-04T12:52:53.214Z</time></trkpt><trkpt lat="43.3962383" lon="12.6774614"><ele>561.0</ele><time>2026-04-04T12:52:54.215Z</time></trkpt><trkpt lat="43.3961542" lon="12.6776654"><ele>563.0</ele><time>2026-04-04T12:52:55.214Z</time></trkpt><trkpt lat="43.396059" lon="12.6778552"><ele>565.0</ele><time>2026-04-04T12:52:56.214Z</time></trkpt><trkpt lat="43.3959597" lon="12.6780419"><ele>567.0</ele><time>2026-04-04T12:52:57.215Z</time></trkpt><trkpt lat="43.3958418" lon="12.6782166"><ele>567.0</ele><time>2026-04-04T12:52:58.214Z</time></trkpt><trkpt lat="43.3957172" lon="12.6783803"><ele>567.0</ele><time>2026-04-04T12:52:59.214Z</time></trkpt><trkpt lat="43.3955851" lon="12.678546"><ele>567.0</ele><time>2026-04-04T12:53:00.214Z</time></trkpt><trkpt lat="43.3954441" lon="12.6786976"><ele>566.3333333333334</ele><time>2026-04-04T12:53:01.215Z</time></trkpt><trkpt lat="43.3952977" lon="12.6788416"><ele>565.6666666666667</ele><time>2026-04-04T12:53:02.215Z</time></trkpt><trkpt lat="43.3951511" lon="12.678972"><ele>565.0</ele><time>2026-04-04T12:53:03.214Z</time></trkpt><trkpt lat="43.3950072" lon="12.6791105"><ele>565.0</ele><time>2026-04-04T12:53:04.215Z</time></trkpt><trkpt lat="43.3948582" lon="12.6792578"><ele>565.0</ele><time>2026-04-04T12:53:05.214Z</time></trkpt><trkpt lat="43.394707" lon="12.6793955"><ele>565.0</ele><time>2026-04-04T12:53:06.215Z</time></trkpt><trkpt lat="43.3945497" lon="12.6795368"><ele>564.3333333333334</ele><time>2026-04-04T12:53:07.214Z</time></trkpt><trkpt lat="43.3943933" lon="12.6796846"><ele>563.6666666666666</ele><time>2026-04-04T12:53:08.214Z</time></trkpt><trkpt lat="43.3942348" lon="12.6798296"><ele>563.0</ele><time>2026-04-04T12:53:09.214Z</time></trkpt><trkpt lat="43.3940703" lon="12.6799775"><ele>563.0</ele><time>2026-04-04T12:53:10.214Z</time></trkpt><trkpt lat="43.3939088" lon="12.6801304"><ele>563.0</ele><time>2026-04-04T12:53:11.214Z</time></trkpt><trkpt lat="43.393751" lon="12.6802748"><ele>563.0</ele><time>2026-04-04T12:53:12.214Z</time></trkpt><trkpt lat="43.3935925" lon="12.6804125"><ele>561.3333333333333</ele><time>2026-04-04T12:53:13.214Z</time></trkpt><trkpt lat="43.3934371" lon="12.6805506"><ele>559.6666666666666</ele><time>2026-04-04T12:53:14.215Z</time></trkpt><trkpt lat="43.3932839" lon="12.680692"><ele>558.0</ele><time>2026-04-04T12:53:15.214Z</time></trkpt><trkpt lat="43.3931265" lon="12.6808212"><ele>556.6666666666666</ele><time>2026-04-04T12:53:16.214Z</time></trkpt><trkpt lat="43.3929726" lon="12.6809477"><ele>555.3333333333333</ele><time>2026-04-04T12:53:17.214Z</time></trkpt><trkpt lat="43.3928242" lon="12.6810814"><ele>554.0</ele><time>2026-04-04T12:53:18.214Z</time></trkpt><trkpt lat="43.3926748" lon="12.6812175"><ele>554.0</ele><time>2026-04-04T12:53:19.214Z</time></trkpt><trkpt lat="43.3925234" lon="12.6813626"><ele>554.0</ele><time>2026-04-04T12:53:20.214Z</time></trkpt><trkpt lat="43.3923759" lon="12.6814977"><ele>554.0</ele><time>2026-04-04T12:53:21.214Z</time></trkpt><trkpt lat="43.3922227" lon="12.6816262"><ele>555.0</ele><time>2026-04-04T12:53:22.214Z</time></trkpt><trkpt lat="43.3920723" lon="12.6817537"><ele>556.0</ele><time>2026-04-04T12:53:23.214Z</time></trkpt><trkpt lat="43.3919083" lon="12.6818551"><ele>557.0</ele><time>2026-04-04T12:53:24.214Z</time></trkpt><trkpt lat="43.3917385" lon="12.6819369"><ele>557.0</ele><time>2026-04-04T12:53:25.214Z</time></trkpt><trkpt lat="43.3915732" lon="12.6820266"><ele>557.0</ele><time>2026-04-04T12:53:26.215Z</time></trkpt><trkpt lat="43.3914028" lon="12.6821125"><ele>557.0</ele><time>2026-04-04T12:53:27.214Z</time></trkpt><trkpt lat="43.3912416" lon="12.6822024"><ele>552.6666666666666</ele><time>2026-04-04T12:53:28.214Z</time></trkpt><trkpt lat="43.3910746" lon="12.6822876"><ele>548.3333333333334</ele><time>2026-04-04T12:53:29.214Z</time></trkpt><trkpt lat="43.3909139" lon="12.6823657"><ele>544.0</ele><time>2026-04-04T12:53:30.214Z</time></trkpt><trkpt lat="43.3907557" lon="12.6824365"><ele>544.0</ele><time>2026-04-04T12:53:31.214Z</time></trkpt><trkpt lat="43.3906023" lon="12.6824826"><ele>544.0</ele><time>2026-04-04T12:53:32.214Z</time></trkpt><trkpt lat="43.3904444" lon="12.682506"><ele>544.0</ele><time>2026-04-04T12:53:33.215Z</time></trkpt><trkpt lat="43.3902829" lon="12.682484"><ele>541.6666666666667</ele><time>2026-04-04T12:53:34.214Z</time></trkpt><trkpt lat="43.3901294" lon="12.6824768"><ele>539.3333333333334</ele><time>2026-04-04T12:53:35.214Z</time></trkpt><trkpt lat="43.3899766" lon="12.6824636"><ele>537.0</ele><time>2026-04-04T12:53:36.215Z</time></trkpt><trkpt lat="43.3898241" lon="12.6824444"><ele>536.6666666666666</ele><time>2026-04-04T12:53:37.214Z</time></trkpt><trkpt lat="43.389661" lon="12.6824171"><ele>536.3333333333333</ele><time>2026-04-04T12:53:38.214Z</time></trkpt><trkpt lat="43.3895207" lon="12.6824149"><ele>536.0</ele><time>2026-04-04T12:53:39.214Z</time></trkpt><trkpt lat="43.389374" lon="12.6823893"><ele>536.0</ele><time>2026-04-04T12:53:40.214Z</time></trkpt><trkpt lat="43.3892251" lon="12.6823694"><ele>536.0</ele><time>2026-04-04T12:53:41.215Z</time></trkpt><trkpt lat="43.3890802" lon="12.6823512"><ele>536.0</ele><time>2026-04-04T12:53:42.214Z</time></trkpt><trkpt lat="43.3889338" lon="12.6823302"><ele>536.0</ele><time>2026-04-04T12:53:43.215Z</time></trkpt><trkpt lat="43.3887836" lon="12.682314"><ele>536.0</ele><time>2026-04-04T12:53:44.214Z</time></trkpt><trkpt lat="43.3886266" lon="12.6822864"><ele>536.0</ele><time>2026-04-04T12:53:45.214Z</time></trkpt><trkpt lat="43.388466" lon="12.6822705"><ele>536.0</ele><time>2026-04-04T12:53:46.214Z</time></trkpt><trkpt lat="43.3883077" lon="12.6822527"><ele>536.0</ele><time>2026-04-04T12:53:47.215Z</time></trkpt><trkpt lat="43.3881445" lon="12.6822367"><ele>536.0</ele><time>2026-04-04T12:53:48.214Z</time></trkpt><trkpt lat="43.3879789" lon="12.6822239"><ele>536.0</ele><time>2026-04-04T12:53:49.214Z</time></trkpt><trkpt lat="43.3878171" lon="12.6822068"><ele>535.0</ele><time>2026-04-04T12:53:50.214Z</time></trkpt><trkpt lat="43.3876616" lon="12.6821893"><ele>534.0</ele><time>2026-04-04T12:53:51.215Z</time></trkpt><trkpt lat="43.3875115" lon="12.6821683"><ele>533.0</ele><time>2026-04-04T12:53:52.214Z</time></trkpt><trkpt lat="43.3873709" lon="12.6821124"><ele>533.0</ele><time>2026-04-04T12:53:53.214Z</time></trkpt><trkpt lat="43.3872403" lon="12.6820365"><ele>533.0</ele><time>2026-04-04T12:53:54.214Z</time></trkpt><trkpt lat="43.3871219" lon="12.6819242"><ele>533.0</ele><time>2026-04-04T12:53:55.214Z</time></trkpt><trkpt lat="43.3870158" lon="12.6817874"><ele>533.0</ele><time>2026-04-04T12:53:56.214Z</time></trkpt><trkpt lat="43.3869088" lon="12.681634"><ele>538.0</ele><time>2026-04-04T12:53:57.214Z</time></trkpt><trkpt lat="43.386797" lon="12.681476"><ele>543.0</ele><time>2026-04-04T12:53:58.215Z</time></trkpt><trkpt lat="43.3866833" lon="12.6813156"><ele>548.0</ele><time>2026-04-04T12:53:59.214Z</time></trkpt><trkpt lat="43.3865678" lon="12.6811537"><ele>550.3333333333333</ele><time>2026-04-04T12:54:00.215Z</time></trkpt><trkpt lat="43.386457" lon="12.6809915"><ele>552.6666666666666</ele><time>2026-04-04T12:54:01.215Z</time></trkpt><trkpt lat="43.3863326" lon="12.6808347"><ele>555.0</ele><time>2026-04-04T12:54:02.214Z</time></trkpt><trkpt lat="43.3861997" lon="12.6806747"><ele>555.0</ele><time>2026-04-04T12:54:03.215Z</time></trkpt><trkpt lat="43.3860725" lon="12.6805135"><ele>555.0</ele><time>2026-04-04T12:54:04.214Z</time></trkpt><trkpt lat="43.3859448" lon="12.6803542"><ele>555.0</ele><time>2026-04-04T12:54:05.214Z</time></trkpt><trkpt lat="43.3858247" lon="12.6801949"><ele>554.6666666666666</ele><time>2026-04-04T12:54:06.214Z</time></trkpt><trkpt lat="43.3857037" lon="12.6800364"><ele>554.3333333333333</ele><time>2026-04-04T12:54:07.214Z</time></trkpt><trkpt lat="43.3855823" lon="12.6798856"><ele>554.0</ele><time>2026-04-04T12:54:08.214Z</time></trkpt><trkpt lat="43.3854611" lon="12.6797466"><ele>554.0</ele><time>2026-04-04T12:54:09.214Z</time></trkpt><trkpt lat="43.3853272" lon="12.6796274"><ele>554.0</ele><time>2026-04-04T12:54:10.215Z</time></trkpt><trkpt lat="43.3851756" lon="12.6795218"><ele>554.0</ele><time>2026-04-04T12:54:11.214Z</time></trkpt><trkpt lat="43.3849967" lon="12.6794353"><ele>552.0</ele><time>2026-04-04T12:54:12.214Z</time></trkpt><trkpt lat="43.384827" lon="12.6793506"><ele>550.0</ele><time>2026-04-04T12:54:13.215Z</time></trkpt><trkpt lat="43.3846539" lon="12.6792705"><ele>548.0</ele><time>2026-04-04T12:54:14.214Z</time></trkpt><trkpt lat="43.3844801" lon="12.6791937"><ele>548.0</ele><time>2026-04-04T12:54:15.215Z</time></trkpt><trkpt lat="43.3843002" lon="12.6791148"><ele>548.0</ele><time>2026-04-04T12:54:16.214Z</time></trkpt><trkpt lat="43.3841228" lon="12.6790406"><ele>548.0</ele><time>2026-04-04T12:54:17.214Z</time></trkpt><trkpt lat="43.3839498" lon="12.678959"><ele>550.6666666666666</ele><time>2026-04-04T12:54:18.214Z</time></trkpt><trkpt lat="43.3837727" lon="12.6788794"><ele>553.3333333333334</ele><time>2026-04-04T12:54:19.215Z</time></trkpt><trkpt lat="43.3835947" lon="12.6788285"><ele>556.0</ele><time>2026-04-04T12:54:20.214Z</time></trkpt><trkpt lat="43.3834082" lon="12.6787722"><ele>556.0</ele><time>2026-04-04T12:54:21.214Z</time></trkpt><trkpt lat="43.3832224" lon="12.6787349"><ele>556.0</ele><time>2026-04-04T12:54:22.215Z</time></trkpt><trkpt lat="43.3830344" lon="12.6787076"><ele>556.0</ele><time>2026-04-04T12:54:23.214Z</time></trkpt><trkpt lat="43.3828499" lon="12.6786856"><ele>554.6666666666667</ele><time>2026-04-04T12:54:24.214Z</time></trkpt><trkpt lat="43.3826732" lon="12.6786699"><ele>553.3333333333334</ele><time>2026-04-04T12:54:25.214Z</time></trkpt><trkpt lat="43.382511" lon="12.6786615"><ele>552.0</ele><time>2026-04-04T12:54:26.215Z</time></trkpt><trkpt lat="43.3823647" lon="12.6786529"><ele>552.0</ele><time>2026-04-04T12:54:27.214Z</time></trkpt><trkpt lat="43.3822316" lon="12.6786899"><ele>552.0</ele><time>2026-04-04T12:54:28.214Z</time></trkpt><trkpt lat="43.3821108" lon="12.6787514"><ele>552.0</ele><time>2026-04-04T12:54:29.215Z</time></trkpt><trkpt lat="43.3820155" lon="12.6788637"><ele>552.0</ele><time>2026-04-04T12:54:30.214Z</time></trkpt><trkpt lat="43.3819477" lon="12.6790122"><ele>549.25</ele><time>2026-04-04T12:54:31.214Z</time></trkpt><trkpt lat="43.3819049" lon="12.6791925"><ele>546.5</ele><time>2026-04-04T12:54:32.214Z</time></trkpt><trkpt lat="43.3818862" lon="12.6793836"><ele>543.75</ele><time>2026-04-04T12:54:33.215Z</time></trkpt><trkpt lat="43.3818989" lon="12.6795617"><ele>541.0</ele><time>2026-04-04T12:54:34.214Z</time></trkpt><trkpt lat="43.3819427" lon="12.6797418"><ele>540.75</ele><time>2026-04-04T12:54:35.214Z</time></trkpt><trkpt lat="43.3820106" lon="12.6799119"><ele>540.5</ele><time>2026-04-04T12:54:36.215Z</time></trkpt><trkpt lat="43.3820961" lon="12.6800866"><ele>540.25</ele><time>2026-04-04T12:54:37.215Z</time></trkpt><trkpt lat="43.3821776" lon="12.6802532"><ele>540.0</ele><time>2026-04-04T12:54:38.214Z</time></trkpt><trkpt lat="43.3822543" lon="12.6804165"><ele>542.25</ele><time>2026-04-04T12:54:39.214Z</time></trkpt><trkpt lat="43.3823275" lon="12.6805748"><ele>544.5</ele><time>2026-04-04T12:54:40.215Z</time></trkpt><trkpt lat="43.3823788" lon="12.6807487"><ele>546.75</ele><time>2026-04-04T12:54:41.214Z</time></trkpt><trkpt lat="43.3824025" lon="12.6809445"><ele>549.0</ele><time>2026-04-04T12:54:42.214Z</time></trkpt><trkpt lat="43.3823978" lon="12.6811491"><ele>549.0</ele><time>2026-04-04T12:54:43.214Z</time></trkpt><trkpt lat="43.3823718" lon="12.6813638"><ele>549.0</ele><time>2026-04-04T12:54:44.214Z</time></trkpt><trkpt lat="43.3823359" lon="12.6815809"><ele>549.0</ele><time>2026-04-04T12:54:45.215Z</time></trkpt><trkpt lat="43.3822744" lon="12.6818022"><ele>550.0</ele><time>2026-04-04T12:54:46.215Z</time></trkpt><trkpt lat="43.3821958" lon="12.6820078"><ele>551.0</ele><time>2026-04-04T12:54:47.214Z</time></trkpt><trkpt lat="43.3821081" lon="12.6822135"><ele>552.0</ele><time>2026-04-04T12:54:48.215Z</time></trkpt><trkpt lat="43.3820189" lon="12.6824256"><ele>547.3333333333334</ele><time>2026-04-04T12:54:49.214Z</time></trkpt><trkpt lat="43.3819215" lon="12.6826368"><ele>542.6666666666667</ele><time>2026-04-04T12:54:50.214Z</time></trkpt><trkpt lat="43.3818223" lon="12.6828542"><ele>538.0</ele><time>2026-04-04T12:54:51.214Z</time></trkpt><trkpt lat="43.381726" lon="12.6830741"><ele>538.0</ele><time>2026-04-04T12:54:52.214Z</time></trkpt><trkpt lat="43.3816312" lon="12.6832901"><ele>538.0</ele><time>2026-04-04T12:54:53.214Z</time></trkpt><trkpt lat="43.3815314" lon="12.6835075"><ele>538.0</ele><time>2026-04-04T12:54:54.214Z</time></trkpt><trkpt lat="43.3814354" lon="12.6837332"><ele>536.0</ele><time>2026-04-04T12:54:55.214Z</time></trkpt><trkpt lat="43.3813321" lon="12.6839728"><ele>534.0</ele><time>2026-04-04T12:54:56.214Z</time></trkpt><trkpt lat="43.3812334" lon="12.6841978"><ele>532.0</ele><time>2026-04-04T12:54:57.215Z</time></trkpt><trkpt lat="43.3811395" lon="12.6844278"><ele>532.0</ele><time>2026-04-04T12:54:58.214Z</time></trkpt><trkpt lat="43.3810366" lon="12.6846459"><ele>532.0</ele><time>2026-04-04T12:54:59.214Z</time></trkpt><trkpt lat="43.3809406" lon="12.684869"><ele>532.0</ele><time>2026-04-04T12:55:00.214Z</time></trkpt><trkpt lat="43.380841" lon="12.6850907"><ele>533.3333333333334</ele><time>2026-04-04T12:55:01.214Z</time></trkpt><trkpt lat="43.3807436" lon="12.6853166"><ele>534.6666666666666</ele><time>2026-04-04T12:55:02.214Z</time></trkpt><trkpt lat="43.3806425" lon="12.6855369"><ele>536.0</ele><time>2026-04-04T12:55:03.214Z</time></trkpt><trkpt lat="43.3805456" lon="12.6857586"><ele>535.6666666666666</ele><time>2026-04-04T12:55:04.214Z</time></trkpt><trkpt lat="43.3804463" lon="12.6859788"><ele>535.3333333333334</ele><time>2026-04-04T12:55:05.215Z</time></trkpt><trkpt lat="43.3803457" lon="12.6862042"><ele>535.0</ele><time>2026-04-04T12:55:06.214Z</time></trkpt><trkpt lat="43.3802394" lon="12.6864304"><ele>535.0</ele><time>2026-04-04T12:55:07.214Z</time></trkpt><trkpt lat="43.3801401" lon="12.6866463"><ele>535.0</ele><time>2026-04-04T12:55:08.214Z</time></trkpt><trkpt lat="43.3800432" lon="12.6868577"><ele>535.0</ele><time>2026-04-04T12:55:09.214Z</time></trkpt><trkpt lat="43.3799504" lon="12.6870629"><ele>534.6666666666667</ele><time>2026-04-04T12:55:10.214Z</time></trkpt><trkpt lat="43.3798528" lon="12.6872661"><ele>534.3333333333334</ele><time>2026-04-04T12:55:11.214Z</time></trkpt><trkpt lat="43.3797629" lon="12.6874712"><ele>534.0</ele><time>2026-04-04T12:55:12.214Z</time></trkpt><trkpt lat="43.3796748" lon="12.6876856"><ele>534.0</ele><time>2026-04-04T12:55:13.214Z</time></trkpt><trkpt lat="43.3795906" lon="12.687907"><ele>534.0</ele><time>2026-04-04T12:55:14.215Z</time></trkpt><trkpt lat="43.3794989" lon="12.6881178"><ele>534.0</ele><time>2026-04-04T12:55:15.214Z</time></trkpt><trkpt lat="43.3793991" lon="12.6883175"><ele>534.0</ele><time>2026-04-04T12:55:16.215Z</time></trkpt><trkpt lat="43.3792942" lon="12.6885116"><ele>534.0</ele><time>2026-04-04T12:55:17.214Z</time></trkpt><trkpt lat="43.3791759" lon="12.6886907"><ele>534.0</ele><time>2026-04-04T12:55:18.215Z</time></trkpt><trkpt lat="43.3790466" lon="12.6888538"><ele>534.6666666666666</ele><time>2026-04-04T12:55:19.214Z</time></trkpt><trkpt lat="43.3789109" lon="12.6890088"><ele>535.3333333333333</ele><time>2026-04-04T12:55:20.214Z</time></trkpt><trkpt lat="43.3787802" lon="12.6891693"><ele>536.0</ele><time>2026-04-04T12:55:21.215Z</time></trkpt><trkpt lat="43.3786439" lon="12.6893258"><ele>537.0</ele><time>2026-04-04T12:55:22.214Z</time></trkpt><trkpt lat="43.378518" lon="12.689488"><ele>538.0</ele><time>2026-04-04T12:55:23.214Z</time></trkpt><trkpt lat="43.3783884" lon="12.6896521"><ele>539.0</ele><time>2026-04-04T12:55:24.215Z</time></trkpt><trkpt lat="43.3782684" lon="12.689808"><ele>539.0</ele><time>2026-04-04T12:55:25.214Z</time></trkpt><trkpt lat="43.3781591" lon="12.6899626"><ele>539.0</ele><time>2026-04-04T12:55:26.214Z</time></trkpt><trkpt lat="43.3780516" lon="12.6901118"><ele>539.0</ele><time>2026-04-04T12:55:27.214Z</time></trkpt><trkpt lat="43.3779492" lon="12.6902691"><ele>538.75</ele><time>2026-04-04T12:55:28.215Z</time></trkpt><trkpt lat="43.3778592" lon="12.6904366"><ele>538.5</ele><time>2026-04-04T12:55:29.214Z</time></trkpt><trkpt lat="43.3777874" lon="12.6906057"><ele>538.25</ele><time>2026-04-04T12:55:30.214Z</time></trkpt><trkpt lat="43.3777358" lon="12.6907833"><ele>538.0</ele><time>2026-04-04T12:55:31.214Z</time></trkpt><trkpt lat="43.3777034" lon="12.6909696"><ele>538.6666666666667</ele><time>2026-04-04T12:55:32.214Z</time></trkpt><trkpt lat="43.3776952" lon="12.6911637"><ele>539.3333333333334</ele><time>2026-04-04T12:55:33.214Z</time></trkpt><trkpt lat="43.3777111" lon="12.6913708"><ele>540.0</ele><time>2026-04-04T12:55:34.214Z</time></trkpt><trkpt lat="43.377751" lon="12.6915911"><ele>540.0</ele><time>2026-04-04T12:55:35.214Z</time></trkpt><trkpt lat="43.3777937" lon="12.6917926"><ele>540.0</ele><time>2026-04-04T12:55:36.214Z</time></trkpt><trkpt lat="43.3778361" lon="12.6919873"><ele>540.0</ele><time>2026-04-04T12:55:37.214Z</time></trkpt><trkpt lat="43.377872" lon="12.6921807"><ele>540.0</ele><time>2026-04-04T12:55:38.214Z</time></trkpt><trkpt lat="43.3779023" lon="12.6923671"><ele>540.4</ele><time>2026-04-04T12:55:39.214Z</time></trkpt><trkpt lat="43.3779193" lon="12.6925299"><ele>540.8</ele><time>2026-04-04T12:55:40.214Z</time></trkpt><trkpt lat="43.377931" lon="12.6926742"><ele>541.2</ele><time>2026-04-04T12:55:41.214Z</time></trkpt><trkpt lat="43.3779229" lon="12.6928151"><ele>541.6</ele><time>2026-04-04T12:55:42.214Z</time></trkpt><trkpt lat="43.3778749" lon="12.692933"><ele>542.0</ele><time>2026-04-04T12:55:43.214Z</time></trkpt><trkpt lat="43.3778129" lon="12.6930307"><ele>543.6</ele><time>2026-04-04T12:55:44.214Z</time></trkpt><trkpt lat="43.3777388" lon="12.6931025"><ele>545.2</ele><time>2026-04-04T12:55:45.214Z</time></trkpt><trkpt lat="43.3776372" lon="12.6931379"><ele>546.8</ele><time>2026-04-04T12:55:46.214Z</time></trkpt><trkpt lat="43.3775309" lon="12.6931629"><ele>548.4</ele><time>2026-04-04T12:55:47.215Z</time></trkpt><trkpt lat="43.3774182" lon="12.6931768"><ele>550.0</ele><time>2026-04-04T12:55:48.215Z</time></trkpt><trkpt lat="43.3772959" lon="12.6931956"><ele>551.75</ele><time>2026-04-04T12:55:49.215Z</time></trkpt><trkpt lat="43.3771698" lon="12.6932404"><ele>553.5</ele><time>2026-04-04T12:55:50.214Z</time></trkpt><trkpt lat="43.3770466" lon="12.6933152"><ele>555.25</ele><time>2026-04-04T12:55:51.215Z</time></trkpt><trkpt lat="43.3769241" lon="12.6933936"><ele>557.0</ele><time>2026-04-04T12:55:52.214Z</time></trkpt><trkpt lat="43.376794" lon="12.6934791"><ele>557.0</ele><time>2026-04-04T12:55:53.215Z</time></trkpt><trkpt lat="43.3766693" lon="12.6935851"><ele>557.0</ele><time>2026-04-04T12:55:54.215Z</time></trkpt><trkpt lat="43.3765439" lon="12.6936873"><ele>557.0</ele><time>2026-04-04T12:55:55.215Z</time></trkpt><trkpt lat="43.3764195" lon="12.6937936"><ele>557.0</ele><time>2026-04-04T12:55:56.215Z</time></trkpt><trkpt lat="43.3762905" lon="12.6939049"><ele>555.6666666666666</ele><time>2026-04-04T12:55:57.214Z</time></trkpt><trkpt lat="43.3761581" lon="12.6940202"><ele>554.3333333333334</ele><time>2026-04-04T12:55:58.214Z</time></trkpt><trkpt lat="43.3760247" lon="12.6941296"><ele>553.0</ele><time>2026-04-04T12:55:59.214Z</time></trkpt><trkpt lat="43.3758855" lon="12.6942373"><ele>553.0</ele><time>2026-04-04T12:56:00.214Z</time></trkpt><trkpt lat="43.37574" lon="12.6943339"><ele>553.0</ele><time>2026-04-04T12:56:01.214Z</time></trkpt><trkpt lat="43.3755876" lon="12.6944213"><ele>553.0</ele><time>2026-04-04T12:56:02.215Z</time></trkpt><trkpt lat="43.3754202" lon="12.6945057"><ele>554.0</ele><time>2026-04-04T12:56:03.215Z</time></trkpt><trkpt lat="43.3752586" lon="12.694579"><ele>555.0</ele><time>2026-04-04T12:56:04.214Z</time></trkpt><trkpt lat="43.375097" lon="12.694663"><ele>556.0</ele><time>2026-04-04T12:56:05.214Z</time></trkpt><trkpt lat="43.3749434" lon="12.69475"><ele>556.0</ele><time>2026-04-04T12:56:06.214Z</time></trkpt><trkpt lat="43.3747832" lon="12.6948243"><ele>556.0</ele><time>2026-04-04T12:56:07.214Z</time></trkpt><trkpt lat="43.3746233" lon="12.6949022"><ele>556.0</ele><time>2026-04-04T12:56:08.215Z</time></trkpt><trkpt lat="43.3744655" lon="12.6949845"><ele>551.6666666666667</ele><time>2026-04-04T12:56:09.214Z</time></trkpt><trkpt lat="43.3743028" lon="12.6950622"><ele>547.3333333333334</ele><time>2026-04-04T12:56:10.214Z</time></trkpt><trkpt lat="43.3741443" lon="12.6951395"><ele>543.0</ele><time>2026-04-04T12:56:11.214Z</time></trkpt><trkpt lat="43.3739889" lon="12.6952273"><ele>543.3333333333334</ele><time>2026-04-04T12:56:12.214Z</time></trkpt><trkpt lat="43.3738308" lon="12.6953306"><ele>543.6666666666667</ele><time>2026-04-04T12:56:13.214Z</time></trkpt><trkpt lat="43.3736776" lon="12.6954481"><ele>544.0</ele><time>2026-04-04T12:56:14.214Z</time></trkpt><trkpt lat="43.3735206" lon="12.6955809"><ele>544.0</ele><time>2026-04-04T12:56:15.214Z</time></trkpt><trkpt lat="43.3733517" lon="12.6957245"><ele>544.0</ele><time>2026-04-04T12:56:16.215Z</time></trkpt><trkpt lat="43.3731928" lon="12.6958784"><ele>544.0</ele><time>2026-04-04T12:56:17.215Z</time></trkpt><trkpt lat="43.3730286" lon="12.6960223"><ele>544.3333333333334</ele><time>2026-04-04T12:56:18.214Z</time></trkpt><trkpt lat="43.3728596" lon="12.6961603"><ele>544.6666666666666</ele><time>2026-04-04T12:56:19.215Z</time></trkpt><trkpt lat="43.372687" lon="12.6962842"><ele>545.0</ele><time>2026-04-04T12:56:20.214Z</time></trkpt><trkpt lat="43.3725144" lon="12.6963994"><ele>545.0</ele><time>2026-04-04T12:56:21.214Z</time></trkpt><trkpt lat="43.3723445" lon="12.6965082"><ele>545.0</ele><time>2026-04-04T12:56:22.214Z</time></trkpt><trkpt lat="43.3721752" lon="12.696619"><ele>545.0</ele><time>2026-04-04T12:56:23.214Z</time></trkpt><trkpt lat="43.3720113" lon="12.6967269"><ele>545.6666666666666</ele><time>2026-04-04T12:56:24.214Z</time></trkpt><trkpt lat="43.371849" lon="12.6968365"><ele>546.3333333333334</ele><time>2026-04-04T12:56:25.214Z</time></trkpt><trkpt lat="43.3716864" lon="12.6969497"><ele>547.0</ele><time>2026-04-04T12:56:26.215Z</time></trkpt><trkpt lat="43.3715244" lon="12.6970646"><ele>547.0</ele><time>2026-04-04T12:56:27.214Z</time></trkpt><trkpt lat="43.3713643" lon="12.6971868"><ele>547.0</ele><time>2026-04-04T12:56:28.214Z</time></trkpt><trkpt lat="43.3712156" lon="12.6973142"><ele>547.0</ele><time>2026-04-04T12:56:29.214Z</time></trkpt><trkpt lat="43.3710625" lon="12.6974591"><ele>545.6666666666667</ele><time>2026-04-04T12:56:30.214Z</time></trkpt><trkpt lat="43.3709134" lon="12.697628"><ele>544.3333333333334</ele><time>2026-04-04T12:56:31.214Z</time></trkpt><trkpt lat="43.370772" lon="12.6978123"><ele>543.0</ele><time>2026-04-04T12:56:32.214Z</time></trkpt><trkpt lat="43.3706281" lon="12.6979916"><ele>538.0</ele><time>2026-04-04T12:56:33.214Z</time></trkpt><trkpt lat="43.3704835" lon="12.6981845"><ele>533.0</ele><time>2026-04-04T12:56:34.214Z</time></trkpt><trkpt lat="43.3703362" lon="12.6983799"><ele>528.0</ele><time>2026-04-04T12:56:35.214Z</time></trkpt><trkpt lat="43.3701869" lon="12.6985844"><ele>531.3333333333334</ele><time>2026-04-04T12:56:36.214Z</time></trkpt><trkpt lat="43.370037" lon="12.6987921"><ele>534.6666666666667</ele><time>2026-04-04T12:56:37.214Z</time></trkpt><trkpt lat="43.3698833" lon="12.6990005"><ele>538.0</ele><time>2026-04-04T12:56:38.214Z</time></trkpt><trkpt lat="43.3697281" lon="12.6992039"><ele>533.6666666666667</ele><time>2026-04-04T12:56:39.214Z</time></trkpt><trkpt lat="43.369569" lon="12.6994159"><ele>529.3333333333334</ele><time>2026-04-04T12:56:40.215Z</time></trkpt><trkpt lat="43.3694083" lon="12.6996216"><ele>525.0</ele><time>2026-04-04T12:56:41.215Z</time></trkpt><trkpt lat="43.3692506" lon="12.6998354"><ele>525.0</ele><time>2026-04-04T12:56:42.214Z</time></trkpt><trkpt lat="43.3690917" lon="12.700043"><ele>525.0</ele><time>2026-04-04T12:56:43.214Z</time></trkpt><trkpt lat="43.3689298" lon="12.7002503"><ele>525.0</ele><time>2026-04-04T12:56:44.214Z</time></trkpt><trkpt lat="43.3687715" lon="12.7004601"><ele>523.0</ele><time>2026-04-04T12:56:45.215Z</time></trkpt><trkpt lat="43.3686168" lon="12.7006622"><ele>521.0</ele><time>2026-04-04T12:56:46.214Z</time></trkpt><trkpt lat="43.3684594" lon="12.7008651"><ele>519.0</ele><time>2026-04-04T12:56:47.215Z</time></trkpt><trkpt lat="43.3683066" lon="12.7010605"><ele>519.6666666666666</ele><time>2026-04-04T12:56:48.214Z</time></trkpt><trkpt lat="43.3681488" lon="12.7012363"><ele>520.3333333333333</ele><time>2026-04-04T12:56:49.215Z</time></trkpt><trkpt lat="43.3679842" lon="12.7014185"><ele>521.0</ele><time>2026-04-04T12:56:50.214Z</time></trkpt><trkpt lat="43.3678263" lon="12.701591"><ele>521.0</ele><time>2026-04-04T12:56:51.214Z</time></trkpt><trkpt lat="43.3676636" lon="12.7017496"><ele>521.0</ele><time>2026-04-04T12:56:52.214Z</time></trkpt><trkpt lat="43.3675008" lon="12.7019024"><ele>521.0</ele><time>2026-04-04T12:56:53.215Z</time></trkpt><trkpt lat="43.3673343" lon="12.7020491"><ele>522.6666666666666</ele><time>2026-04-04T12:56:54.214Z</time></trkpt><trkpt lat="43.3671773" lon="12.7022045"><ele>524.3333333333334</ele><time>2026-04-04T12:56:55.214Z</time></trkpt><trkpt lat="43.367021" lon="12.7023588"><ele>526.0</ele><time>2026-04-04T12:56:56.214Z</time></trkpt><trkpt lat="43.3668698" lon="12.7024997"><ele>526.0</ele><time>2026-04-04T12:56:57.215Z</time></trkpt><trkpt lat="43.3667269" lon="12.7026459"><ele>526.0</ele><time>2026-04-04T12:56:58.214Z</time></trkpt><trkpt lat="43.3665885" lon="12.7027742"><ele>526.0</ele><time>2026-04-04T12:56:59.215Z</time></trkpt><trkpt lat="43.3664601" lon="12.702904"><ele>527.3333333333334</ele><time>2026-04-04T12:57:00.214Z</time></trkpt><trkpt lat="43.3663362" lon="12.7030532"><ele>528.6666666666666</ele><time>2026-04-04T12:57:01.214Z</time></trkpt><trkpt lat="43.3662103" lon="12.7032172"><ele>530.0</ele><time>2026-04-04T12:57:02.215Z</time></trkpt><trkpt lat="43.366084" lon="12.7033876"><ele>530.0</ele><time>2026-04-04T12:57:03.214Z</time></trkpt><trkpt lat="43.3659565" lon="12.7035652"><ele>530.0</ele><time>2026-04-04T12:57:04.214Z</time></trkpt><trkpt lat="43.3658329" lon="12.7037476"><ele>530.0</ele><time>2026-04-04T12:57:05.214Z</time></trkpt><trkpt lat="43.3657076" lon="12.7039214"><ele>530.3333333333333</ele><time>2026-04-04T12:57:06.214Z</time></trkpt><trkpt lat="43.3655808" lon="12.7041042"><ele>530.6666666666666</ele><time>2026-04-04T12:57:07.215Z</time></trkpt><trkpt lat="43.3654483" lon="12.7042909"><ele>531.0</ele><time>2026-04-04T12:57:08.215Z</time></trkpt><trkpt lat="43.365309" lon="12.7044943"><ele>529.6666666666666</ele><time>2026-04-04T12:57:09.214Z</time></trkpt><trkpt lat="43.3651711" lon="12.7046961"><ele>528.3333333333333</ele><time>2026-04-04T12:57:10.213Z</time></trkpt><trkpt lat="43.3650291" lon="12.7048988"><ele>527.0</ele><time>2026-04-04T12:57:11.214Z</time></trkpt><trkpt lat="43.3648895" lon="12.7051009"><ele>527.6666666666666</ele><time>2026-04-04T12:57:12.215Z</time></trkpt><trkpt lat="43.3647481" lon="12.7053002"><ele>528.3333333333334</ele><time>2026-04-04T12:57:13.214Z</time></trkpt><trkpt lat="43.3646066" lon="12.7055056"><ele>529.0</ele><time>2026-04-04T12:57:14.214Z</time></trkpt><trkpt lat="43.3644695" lon="12.7057134"><ele>529.0</ele><time>2026-04-04T12:57:15.213Z</time></trkpt><trkpt lat="43.3643319" lon="12.7059264"><ele>529.0</ele><time>2026-04-04T12:57:16.214Z</time></trkpt><trkpt lat="43.3641929" lon="12.7061354"><ele>529.0</ele><time>2026-04-04T12:57:17.215Z</time></trkpt><trkpt lat="43.3640534" lon="12.7063484"><ele>528.6666666666667</ele><time>2026-04-04T12:57:18.214Z</time></trkpt><trkpt lat="43.3639143" lon="12.7065606"><ele>528.3333333333334</ele><time>2026-04-04T12:57:19.215Z</time></trkpt><trkpt lat="43.363773" lon="12.7067619"><ele>528.0</ele><time>2026-04-04T12:57:20.214Z</time></trkpt><trkpt lat="43.3636255" lon="12.7069684"><ele>531.6666666666666</ele><time>2026-04-04T12:57:21.214Z</time></trkpt><trkpt lat="43.36348" lon="12.707168"><ele>535.3333333333333</ele><time>2026-04-04T12:57:22.215Z</time></trkpt><trkpt lat="43.3633294" lon="12.7073739"><ele>539.0</ele><time>2026-04-04T12:57:23.215Z</time></trkpt><trkpt lat="43.3631778" lon="12.7075762"><ele>538.6666666666666</ele><time>2026-04-04T12:57:24.214Z</time></trkpt><trkpt lat="43.3630196" lon="12.707768"><ele>538.3333333333334</ele><time>2026-04-04T12:57:25.214Z</time></trkpt><trkpt lat="43.3628649" lon="12.7079657"><ele>538.0</ele><time>2026-04-04T12:57:26.214Z</time></trkpt><trkpt lat="43.3627067" lon="12.7081628"><ele>538.0</ele><time>2026-04-04T12:57:27.215Z</time></trkpt><trkpt lat="43.3625513" lon="12.7083628"><ele>538.0</ele><time>2026-04-04T12:57:28.214Z</time></trkpt><trkpt lat="43.362397" lon="12.7085549"><ele>538.0</ele><time>2026-04-04T12:57:29.214Z</time></trkpt><trkpt lat="43.3622495" lon="12.7087512"><ele>539.3333333333334</ele><time>2026-04-04T12:57:30.214Z</time></trkpt><trkpt lat="43.3621022" lon="12.7089306"><ele>540.6666666666666</ele><time>2026-04-04T12:57:31.215Z</time></trkpt><trkpt lat="43.3619568" lon="12.7091101"><ele>542.0</ele><time>2026-04-04T12:57:32.214Z</time></trkpt><trkpt lat="43.3618286" lon="12.7092859"><ele>543.6666666666666</ele><time>2026-04-04T12:57:33.215Z</time></trkpt><trkpt lat="43.3617092" lon="12.7094718"><ele>545.3333333333334</ele><time>2026-04-04T12:57:34.214Z</time></trkpt><trkpt lat="43.3615942" lon="12.7096668"><ele>547.0</ele><time>2026-04-04T12:57:35.215Z</time></trkpt><trkpt lat="43.361489" lon="12.7098565"><ele>547.0</ele><time>2026-04-04T12:57:36.214Z</time></trkpt><trkpt lat="43.3613986" lon="12.7100512"><ele>547.0</ele><time>2026-04-04T12:57:37.214Z</time></trkpt><trkpt lat="43.3613239" lon="12.7102447"><ele>547.0</ele><time>2026-04-04T12:57:38.215Z</time></trkpt><trkpt lat="43.3612644" lon="12.7104511"><ele>547.0</ele><time>2026-04-04T12:57:39.214Z</time></trkpt><trkpt lat="43.3612156" lon="12.7106645"><ele>547.0</ele><time>2026-04-04T12:57:40.214Z</time></trkpt><trkpt lat="43.3611699" lon="12.7108802"><ele>547.0</ele><time>2026-04-04T12:57:41.215Z</time></trkpt><trkpt lat="43.3611315" lon="12.7111008"><ele>547.0</ele><time>2026-04-04T12:57:42.215Z</time></trkpt><trkpt lat="43.3610924" lon="12.7113157"><ele>547.0</ele><time>2026-04-04T12:57:43.214Z</time></trkpt><trkpt lat="43.361056" lon="12.7115244"><ele>547.0</ele><time>2026-04-04T12:57:44.214Z</time></trkpt><trkpt lat="43.3610229" lon="12.7117175"><ele>547.0</ele><time>2026-04-04T12:57:45.214Z</time></trkpt><trkpt lat="43.360987" lon="12.7119057"><ele>547.0</ele><time>2026-04-04T12:57:46.214Z</time></trkpt><trkpt lat="43.3609441" lon="12.7120932"><ele>547.0</ele><time>2026-04-04T12:57:47.215Z</time></trkpt><trkpt lat="43.360892" lon="12.7122773"><ele>547.0</ele><time>2026-04-04T12:57:48.214Z</time></trkpt><trkpt lat="43.3608367" lon="12.7124608"><ele>546.75</ele><time>2026-04-04T12:57:49.215Z</time></trkpt><trkpt lat="43.3607716" lon="12.7126368"><ele>546.5</ele><time>2026-04-04T12:57:50.214Z</time></trkpt><trkpt lat="43.3606918" lon="12.7128078"><ele>546.25</ele><time>2026-04-04T12:57:51.214Z</time></trkpt><trkpt lat="43.3606152" lon="12.7129825"><ele>546.0</ele><time>2026-04-04T12:57:52.214Z</time></trkpt><trkpt lat="43.3605286" lon="12.7131597"><ele>547.6666666666666</ele><time>2026-04-04T12:57:53.213Z</time></trkpt><trkpt lat="43.3604266" lon="12.7133211"><ele>549.3333333333333</ele><time>2026-04-04T12:57:54.214Z</time></trkpt><trkpt lat="43.3603196" lon="12.7134847"><ele>551.0</ele><time>2026-04-04T12:57:55.215Z</time></trkpt><trkpt lat="43.3602128" lon="12.7136447"><ele>545.6666666666666</ele><time>2026-04-04T12:57:56.214Z</time></trkpt><trkpt lat="43.3601077" lon="12.7138104"><ele>540.3333333333334</ele><time>2026-04-04T12:57:57.214Z</time></trkpt><trkpt lat="43.3599936" lon="12.7139706"><ele>535.0</ele><time>2026-04-04T12:57:58.215Z</time></trkpt><trkpt lat="43.3598801" lon="12.7141349"><ele>535.0</ele><time>2026-04-04T12:57:59.215Z</time></trkpt><trkpt lat="43.3597687" lon="12.7142973"><ele>535.0</ele><time>2026-04-04T12:58:00.214Z</time></trkpt><trkpt lat="43.3596481" lon="12.7144646"><ele>535.0</ele><time>2026-04-04T12:58:01.214Z</time></trkpt><trkpt lat="43.3595266" lon="12.7146293"><ele>533.3333333333334</ele><time>2026-04-04T12:58:02.215Z</time></trkpt><trkpt lat="43.3594011" lon="12.7147828"><ele>531.6666666666666</ele><time>2026-04-04T12:58:03.215Z</time></trkpt><trkpt lat="43.3592723" lon="12.7149411"><ele>530.0</ele><time>2026-04-04T12:58:04.214Z</time></trkpt><trkpt lat="43.3591351" lon="12.7150854"><ele>530.0</ele><time>2026-04-04T12:58:05.214Z</time></trkpt><trkpt lat="43.359001" lon="12.7152215"><ele>530.0</ele><time>2026-04-04T12:58:06.214Z</time></trkpt><trkpt lat="43.3588625" lon="12.7153599"><ele>530.0</ele><time>2026-04-04T12:58:07.214Z</time></trkpt><trkpt lat="43.3587221" lon="12.715499"><ele>528.3333333333333</ele><time>2026-04-04T12:58:08.214Z</time></trkpt><trkpt lat="43.358582" lon="12.7156384"><ele>526.6666666666666</ele><time>2026-04-04T12:58:09.214Z</time></trkpt><trkpt lat="43.3584369" lon="12.7157762"><ele>525.0</ele><time>2026-04-04T12:58:10.215Z</time></trkpt><trkpt lat="43.3582847" lon="12.7159112"><ele>525.0</ele><time>2026-04-04T12:58:11.215Z</time></trkpt><trkpt lat="43.3581378" lon="12.7160378"><ele>525.0</ele><time>2026-04-04T12:58:12.214Z</time></trkpt><trkpt lat="43.3579837" lon="12.7161587"><ele>525.0</ele><time>2026-04-04T12:58:13.214Z</time></trkpt><trkpt lat="43.3578282" lon="12.7162774"><ele>525.6666666666666</ele><time>2026-04-04T12:58:14.214Z</time></trkpt><trkpt lat="43.3576699" lon="12.7163891"><ele>526.3333333333333</ele><time>2026-04-04T12:58:15.214Z</time></trkpt><trkpt lat="43.3575122" lon="12.7164907"><ele>527.0</ele><time>2026-04-04T12:58:16.214Z</time></trkpt><trkpt lat="43.3573517" lon="12.7166007"><ele>528.3333333333333</ele><time>2026-04-04T12:58:17.214Z</time></trkpt><trkpt lat="43.3571906" lon="12.7167043"><ele>529.6666666666666</ele><time>2026-04-04T12:58:18.214Z</time></trkpt><trkpt lat="43.3570293" lon="12.7168262"><ele>531.0</ele><time>2026-04-04T12:58:19.215Z</time></trkpt><trkpt lat="43.3568692" lon="12.7169559"><ele>531.0</ele><time>2026-04-04T12:58:20.214Z</time></trkpt><trkpt lat="43.3567153" lon="12.7170976"><ele>531.0</ele><time>2026-04-04T12:58:21.214Z</time></trkpt><trkpt lat="43.3565561" lon="12.7172381"><ele>531.0</ele><time>2026-04-04T12:58:22.214Z</time></trkpt><trkpt lat="43.3563971" lon="12.7173777"><ele>530.6666666666666</ele><time>2026-04-04T12:58:23.214Z</time></trkpt><trkpt lat="43.3562333" lon="12.7175027"><ele>530.3333333333333</ele><time>2026-04-04T12:58:24.214Z</time></trkpt><trkpt lat="43.3560716" lon="12.7176339"><ele>530.0</ele><time>2026-04-04T12:58:25.214Z</time></trkpt><trkpt lat="43.3559056" lon="12.7177581"><ele>530.0</ele><time>2026-04-04T12:58:26.214Z</time></trkpt><trkpt lat="43.3557409" lon="12.7178884"><ele>530.0</ele><time>2026-04-04T12:58:27.215Z</time></trkpt><trkpt lat="43.3555758" lon="12.7180117"><ele>530.0</ele><time>2026-04-04T12:58:28.214Z</time></trkpt><trkpt lat="43.3554086" lon="12.7181278"><ele>526.3333333333333</ele><time>2026-04-04T12:58:29.215Z</time></trkpt><trkpt lat="43.3552392" lon="12.7182529"><ele>522.6666666666666</ele><time>2026-04-04T12:58:30.215Z</time></trkpt><trkpt lat="43.3550733" lon="12.7183727"><ele>519.0</ele><time>2026-04-04T12:58:31.215Z</time></trkpt><trkpt lat="43.354913" lon="12.7184895"><ele>519.3333333333334</ele><time>2026-04-04T12:58:32.214Z</time></trkpt><trkpt lat="43.3547535" lon="12.7186193"><ele>519.6666666666667</ele><time>2026-04-04T12:58:33.214Z</time></trkpt><trkpt lat="43.3546046" lon="12.718753"><ele>520.0</ele><time>2026-04-04T12:58:34.214Z</time></trkpt><trkpt lat="43.3544566" lon="12.7188869"><ele>520.0</ele><time>2026-04-04T12:58:35.214Z</time></trkpt><trkpt lat="43.3543082" lon="12.7190154"><ele>520.0</ele><time>2026-04-04T12:58:36.215Z</time></trkpt><trkpt lat="43.3541569" lon="12.7191293"><ele>520.0</ele><time>2026-04-04T12:58:37.215Z</time></trkpt><trkpt lat="43.3540017" lon="12.7192571"><ele>517.6666666666667</ele><time>2026-04-04T12:58:38.214Z</time></trkpt><trkpt lat="43.3538446" lon="12.7193856"><ele>515.3333333333334</ele><time>2026-04-04T12:58:39.214Z</time></trkpt><trkpt lat="43.3536879" lon="12.7195198"><ele>513.0</ele><time>2026-04-04T12:58:40.215Z</time></trkpt><trkpt lat="43.3535314" lon="12.7196682"><ele>513.0</ele><time>2026-04-04T12:58:41.214Z</time></trkpt><trkpt lat="43.3533714" lon="12.719818"><ele>513.0</ele><time>2026-04-04T12:58:42.214Z</time></trkpt><trkpt lat="43.3532101" lon="12.7199628"><ele>513.0</ele><time>2026-04-04T12:58:43.214Z</time></trkpt><trkpt lat="43.353044" lon="12.720105"><ele>512.6666666666666</ele><time>2026-04-04T12:58:44.214Z</time></trkpt><trkpt lat="43.3528798" lon="12.7202498"><ele>512.3333333333333</ele><time>2026-04-04T12:58:45.214Z</time></trkpt><trkpt lat="43.3527107" lon="12.7203871"><ele>512.0</ele><time>2026-04-04T12:58:46.215Z</time></trkpt><trkpt lat="43.3525491" lon="12.7205256"><ele>512.0</ele><time>2026-04-04T12:58:47.214Z</time></trkpt><trkpt lat="43.3523882" lon="12.7206608"><ele>512.0</ele><time>2026-04-04T12:58:48.214Z</time></trkpt><trkpt lat="43.3522284" lon="12.7207934"><ele>512.0</ele><time>2026-04-04T12:58:49.214Z</time></trkpt><trkpt lat="43.3520717" lon="12.7209188"><ele>512.3333333333333</ele><time>2026-04-04T12:58:50.215Z</time></trkpt><trkpt lat="43.351914" lon="12.7210412"><ele>512.6666666666666</ele><time>2026-04-04T12:58:51.214Z</time></trkpt><trkpt lat="43.3517598" lon="12.7211609"><ele>513.0</ele><time>2026-04-04T12:58:52.214Z</time></trkpt><trkpt lat="43.3516098" lon="12.7212762"><ele>513.0</ele><time>2026-04-04T12:58:53.214Z</time></trkpt><trkpt lat="43.3514625" lon="12.7213894"><ele>513.0</ele><time>2026-04-04T12:58:54.214Z</time></trkpt><trkpt lat="43.3513312" lon="12.7215186"><ele>513.0</ele><time>2026-04-04T12:58:55.215Z</time></trkpt><trkpt lat="43.3512164" lon="12.7216607"><ele>509.33333333333337</ele><time>2026-04-04T12:58:56.215Z</time></trkpt><trkpt lat="43.3511184" lon="12.7218368"><ele>505.6666666666667</ele><time>2026-04-04T12:58:57.214Z</time></trkpt><trkpt lat="43.351038" lon="12.7220154"><ele>502.0</ele><time>2026-04-04T12:58:58.215Z</time></trkpt><trkpt lat="43.3509648" lon="12.7221987"><ele>502.0</ele><time>2026-04-04T12:58:59.215Z</time></trkpt><trkpt lat="43.3508932" lon="12.7223774"><ele>502.0</ele><time>2026-04-04T12:59:00.213Z</time></trkpt><trkpt lat="43.3508167" lon="12.7225423"><ele>502.0</ele><time>2026-04-04T12:59:01.214Z</time></trkpt><trkpt lat="43.3507227" lon="12.722678"><ele>502.0</ele><time>2026-04-04T12:59:02.214Z</time></trkpt><trkpt lat="43.3506082" lon="12.7227834"><ele>501.75</ele><time>2026-04-04T12:59:03.215Z</time></trkpt><trkpt lat="43.3504765" lon="12.7228479"><ele>501.5</ele><time>2026-04-04T12:59:04.214Z</time></trkpt><trkpt lat="43.3503267" lon="12.7228843"><ele>501.25</ele><time>2026-04-04T12:59:05.214Z</time></trkpt><trkpt lat="43.3501904" lon="12.7229322"><ele>501.0</ele><time>2026-04-04T12:59:06.214Z</time></trkpt><trkpt lat="43.3500398" lon="12.7229834"><ele>501.0</ele><time>2026-04-04T12:59:07.215Z</time></trkpt><trkpt lat="43.3498875" lon="12.72304"><ele>501.0</ele><time>2026-04-04T12:59:08.215Z</time></trkpt><trkpt lat="43.3497357" lon="12.723103"><ele>501.0</ele><time>2026-04-04T12:59:09.214Z</time></trkpt><trkpt lat="43.3495834" lon="12.7231827"><ele>500.66666666666663</ele><time>2026-04-04T12:59:10.214Z</time></trkpt><trkpt lat="43.3494304" lon="12.723274"><ele>500.3333333333333</ele><time>2026-04-04T12:59:11.214Z</time></trkpt><trkpt lat="43.3492826" lon="12.7233747"><ele>500.0</ele><time>2026-04-04T12:59:12.215Z</time></trkpt><trkpt lat="43.3491346" lon="12.7234753"><ele>500.3333333333333</ele><time>2026-04-04T12:59:13.214Z</time></trkpt><trkpt lat="43.3489832" lon="12.7235934"><ele>500.66666666666663</ele><time>2026-04-04T12:59:14.214Z</time></trkpt><trkpt lat="43.3488314" lon="12.7237109"><ele>501.0</ele><time>2026-04-04T12:59:15.214Z</time></trkpt><trkpt lat="43.3486712" lon="12.7238241"><ele>501.0</ele><time>2026-04-04T12:59:16.215Z</time></trkpt><trkpt lat="43.3485106" lon="12.7239456"><ele>501.0</ele><time>2026-04-04T12:59:17.214Z</time></trkpt><trkpt lat="43.3483434" lon="12.7240661"><ele>501.0</ele><time>2026-04-04T12:59:18.214Z</time></trkpt><trkpt lat="43.3481729" lon="12.7241888"><ele>499.33333333333337</ele><time>2026-04-04T12:59:19.214Z</time></trkpt><trkpt lat="43.348003" lon="12.7243172"><ele>497.6666666666667</ele><time>2026-04-04T12:59:20.214Z</time></trkpt><trkpt lat="43.3478286" lon="12.7244431"><ele>496.0</ele><time>2026-04-04T12:59:21.214Z</time></trkpt><trkpt lat="43.3476571" lon="12.7245734"><ele>496.0</ele><time>2026-04-04T12:59:22.214Z</time></trkpt><trkpt lat="43.3474863" lon="12.7246973"><ele>496.0</ele><time>2026-04-04T12:59:23.214Z</time></trkpt><trkpt lat="43.3473115" lon="12.7248371"><ele>496.0</ele><time>2026-04-04T12:59:24.214Z</time></trkpt><trkpt lat="43.3471329" lon="12.724968"><ele>496.33333333333337</ele><time>2026-04-04T12:59:25.214Z</time></trkpt><trkpt lat="43.3469557" lon="12.7251012"><ele>496.66666666666663</ele><time>2026-04-04T12:59:26.214Z</time></trkpt><trkpt lat="43.3467762" lon="12.725236"><ele>497.0</ele><time>2026-04-04T12:59:27.215Z</time></trkpt><trkpt lat="43.3465939" lon="12.7253673"><ele>497.0</ele><time>2026-04-04T12:59:28.214Z</time></trkpt><trkpt lat="43.3464134" lon="12.7255103"><ele>497.0</ele><time>2026-04-04T12:59:29.215Z</time></trkpt><trkpt lat="43.3462315" lon="12.7256397"><ele>497.0</ele><time>2026-04-04T12:59:30.215Z</time></trkpt><trkpt lat="43.3460553" lon="12.7257745"><ele>494.3333333333333</ele><time>2026-04-04T12:59:31.214Z</time></trkpt><trkpt lat="43.3458757" lon="12.7259113"><ele>491.66666666666663</ele><time>2026-04-04T12:59:32.215Z</time></trkpt><trkpt lat="43.3456966" lon="12.7260469"><ele>489.0</ele><time>2026-04-04T12:59:33.214Z</time></trkpt><trkpt lat="43.3455177" lon="12.7261842"><ele>489.0</ele><time>2026-04-04T12:59:34.214Z</time></trkpt><trkpt lat="43.3453379" lon="12.7263203"><ele>489.0</ele><time>2026-04-04T12:59:35.215Z</time></trkpt><trkpt lat="43.3451519" lon="12.7264585"><ele>489.0</ele><time>2026-04-04T12:59:36.214Z</time></trkpt><trkpt lat="43.3449618" lon="12.7265919"><ele>489.0</ele><time>2026-04-04T12:59:37.215Z</time></trkpt><trkpt lat="43.3447708" lon="12.72673"><ele>489.0</ele><time>2026-04-04T12:59:38.214Z</time></trkpt><trkpt lat="43.3445818" lon="12.7268767"><ele>489.0</ele><time>2026-04-04T12:59:39.214Z</time></trkpt><trkpt lat="43.3443862" lon="12.7270168"><ele>488.66666666666663</ele><time>2026-04-04T12:59:40.214Z</time></trkpt><trkpt lat="43.3441906" lon="12.7271638"><ele>488.3333333333333</ele><time>2026-04-04T12:59:41.214Z</time></trkpt><trkpt lat="43.3439952" lon="12.7272995"><ele>488.0</ele><time>2026-04-04T12:59:42.214Z</time></trkpt><trkpt lat="43.3437981" lon="12.7274464"><ele>487.0</ele><time>2026-04-04T12:59:43.214Z</time></trkpt><trkpt lat="43.3435994" lon="12.727587"><ele>486.0</ele><time>2026-04-04T12:59:44.215Z</time></trkpt><trkpt lat="43.3433984" lon="12.7277408"><ele>487.0</ele><time>2026-04-04T12:59:45.214Z</time></trkpt><trkpt lat="43.3432015" lon="12.7278828"><ele>488.0</ele><time>2026-04-04T12:59:46.214Z</time></trkpt><trkpt lat="43.3430046" lon="12.7280158"><ele>489.0</ele><time>2026-04-04T12:59:47.214Z</time></trkpt><trkpt lat="43.3428086" lon="12.7281538"><ele>489.0</ele><time>2026-04-04T12:59:48.214Z</time></trkpt><trkpt lat="43.342613" lon="12.7283021"><ele>489.0</ele><time>2026-04-04T12:59:49.215Z</time></trkpt><trkpt lat="43.3424144" lon="12.728446"><ele>489.0</ele><time>2026-04-04T12:59:50.215Z</time></trkpt><trkpt lat="43.3422199" lon="12.7285897"><ele>489.0</ele><time>2026-04-04T12:59:51.214Z</time></trkpt><trkpt lat="43.3420189" lon="12.7287381"><ele>489.0</ele><time>2026-04-04T12:59:52.214Z</time></trkpt><trkpt lat="43.3418194" lon="12.7288851"><ele>489.0</ele><time>2026-04-04T12:59:53.215Z</time></trkpt><trkpt lat="43.3416193" lon="12.7290285"><ele>489.0</ele><time>2026-04-04T12:59:54.214Z</time></trkpt><trkpt lat="43.3414217" lon="12.7291762"><ele>488.66666666666663</ele><time>2026-04-04T12:59:55.214Z</time></trkpt><trkpt lat="43.3412239" lon="12.729322"><ele>488.3333333333333</ele><time>2026-04-04T12:59:56.215Z</time></trkpt><trkpt lat="43.3410272" lon="12.7294654"><ele>488.0</ele><time>2026-04-04T12:59:57.214Z</time></trkpt><trkpt lat="43.3408336" lon="12.7296063"><ele>488.0</ele><time>2026-04-04T12:59:58.214Z</time></trkpt><trkpt lat="43.3406469" lon="12.7297376"><ele>488.0</ele><time>2026-04-04T12:59:59.214Z</time></trkpt><trkpt lat="43.3404567" lon="12.7298669"><ele>488.0</ele><time>2026-04-04T13:00:00.215Z</time></trkpt><trkpt lat="43.3402667" lon="12.7299961"><ele>488.3333333333333</ele><time>2026-04-04T13:00:01.214Z</time></trkpt><trkpt lat="43.3400778" lon="12.7301281"><ele>488.66666666666663</ele><time>2026-04-04T13:00:02.214Z</time></trkpt><trkpt lat="43.3398891" lon="12.7302472"><ele>489.0</ele><time>2026-04-04T13:00:03.214Z</time></trkpt><trkpt lat="43.3397002" lon="12.7303593"><ele>489.0</ele><time>2026-04-04T13:00:04.214Z</time></trkpt><trkpt lat="43.3395142" lon="12.7304696"><ele>489.0</ele><time>2026-04-04T13:00:05.214Z</time></trkpt><trkpt lat="43.3393297" lon="12.730583"><ele>489.0</ele><time>2026-04-04T13:00:06.214Z</time></trkpt><trkpt lat="43.3391484" lon="12.7306989"><ele>489.0</ele><time>2026-04-04T13:00:07.214Z</time></trkpt><trkpt lat="43.3389736" lon="12.7308184"><ele>489.0</ele><time>2026-04-04T13:00:08.214Z</time></trkpt><trkpt lat="43.3388041" lon="12.7309475"><ele>489.0</ele><time>2026-04-04T13:00:09.214Z</time></trkpt><trkpt lat="43.3386357" lon="12.7310937"><ele>488.0</ele><time>2026-04-04T13:00:10.214Z</time></trkpt><trkpt lat="43.3384726" lon="12.7312475"><ele>487.0</ele><time>2026-04-04T13:00:11.214Z</time></trkpt><trkpt lat="43.338315" lon="12.731405"><ele>486.0</ele><time>2026-04-04T13:00:12.215Z</time></trkpt><trkpt lat="43.3381615" lon="12.7315915"><ele>485.0</ele><time>2026-04-04T13:00:13.214Z</time></trkpt><trkpt lat="43.3380058" lon="12.7317759"><ele>484.0</ele><time>2026-04-04T13:00:14.215Z</time></trkpt><trkpt lat="43.3378517" lon="12.7319631"><ele>483.0</ele><time>2026-04-04T13:00:15.214Z</time></trkpt><trkpt lat="43.3376953" lon="12.7321484"><ele>483.0</ele><time>2026-04-04T13:00:16.214Z</time></trkpt><trkpt lat="43.3375436" lon="12.7323352"><ele>483.0</ele><time>2026-04-04T13:00:17.214Z</time></trkpt><trkpt lat="43.3373907" lon="12.732516"><ele>483.0</ele><time>2026-04-04T13:00:18.215Z</time></trkpt><trkpt lat="43.3372411" lon="12.7326963"><ele>482.0</ele><time>2026-04-04T13:00:19.215Z</time></trkpt><trkpt lat="43.3370959" lon="12.7328762"><ele>481.0</ele><time>2026-04-04T13:00:20.214Z</time></trkpt><trkpt lat="43.3369543" lon="12.7330489"><ele>480.0</ele><time>2026-04-04T13:00:21.214Z</time></trkpt><trkpt lat="43.3368103" lon="12.7332195"><ele>480.0</ele><time>2026-04-04T13:00:22.215Z</time></trkpt><trkpt lat="43.3366693" lon="12.7333938"><ele>480.0</ele><time>2026-04-04T13:00:23.214Z</time></trkpt><trkpt lat="43.3365302" lon="12.7335632"><ele>480.0</ele><time>2026-04-04T13:00:24.214Z</time></trkpt><trkpt lat="43.336386" lon="12.733736"><ele>479.66666666666663</ele><time>2026-04-04T13:00:25.214Z</time></trkpt><trkpt lat="43.3362544" lon="12.7339063"><ele>479.3333333333333</ele><time>2026-04-04T13:00:26.214Z</time></trkpt><trkpt lat="43.3361224" lon="12.7340766"><ele>479.0</ele><time>2026-04-04T13:00:27.214Z</time></trkpt><trkpt lat="43.3359906" lon="12.7342345"><ele>479.0</ele><time>2026-04-04T13:00:28.214Z</time></trkpt><trkpt lat="43.3358606" lon="12.7343877"><ele>479.0</ele><time>2026-04-04T13:00:29.214Z</time></trkpt><trkpt lat="43.3357393" lon="12.7345295"><ele>479.0</ele><time>2026-04-04T13:00:30.214Z</time></trkpt><trkpt lat="43.3356214" lon="12.7346788"><ele>478.75</ele><time>2026-04-04T13:00:31.214Z</time></trkpt><trkpt lat="43.3355065" lon="12.7348217"><ele>478.5</ele><time>2026-04-04T13:00:32.214Z</time></trkpt><trkpt lat="43.3353966" lon="12.7349558"><ele>478.25</ele><time>2026-04-04T13:00:33.215Z</time></trkpt><trkpt lat="43.3352923" lon="12.7350823"><ele>478.0</ele><time>2026-04-04T13:00:34.214Z</time></trkpt><trkpt lat="43.3351933" lon="12.7352181"><ele>479.25</ele><time>2026-04-04T13:00:35.214Z</time></trkpt><trkpt lat="43.3350958" lon="12.7353416"><ele>480.5</ele><time>2026-04-04T13:00:36.214Z</time></trkpt><trkpt lat="43.3350051" lon="12.7354645"><ele>481.75</ele><time>2026-04-04T13:00:37.214Z</time></trkpt><trkpt lat="43.3349145" lon="12.7355727"><ele>483.0</ele><time>2026-04-04T13:00:38.214Z</time></trkpt><trkpt lat="43.3348295" lon="12.7356836"><ele>483.0</ele><time>2026-04-04T13:00:39.215Z</time></trkpt><trkpt lat="43.3347414" lon="12.7357918"><ele>483.0</ele><time>2026-04-04T13:00:40.215Z</time></trkpt><trkpt lat="43.3346476" lon="12.7359015"><ele>483.0</ele><time>2026-04-04T13:00:41.214Z</time></trkpt><trkpt lat="43.3345491" lon="12.7360086"><ele>483.0</ele><time>2026-04-04T13:00:42.214Z</time></trkpt><trkpt lat="43.3344486" lon="12.7361302"><ele>484.25</ele><time>2026-04-04T13:00:43.214Z</time></trkpt><trkpt lat="43.3343445" lon="12.7362648"><ele>485.5</ele><time>2026-04-04T13:00:44.214Z</time></trkpt><trkpt lat="43.3342408" lon="12.7364051"><ele>486.75</ele><time>2026-04-04T13:00:45.214Z</time></trkpt><trkpt lat="43.3341312" lon="12.736546"><ele>488.0</ele><time>2026-04-04T13:00:46.214Z</time></trkpt><trkpt lat="43.3340183" lon="12.7366831"><ele>488.0</ele><time>2026-04-04T13:00:47.214Z</time></trkpt><trkpt lat="43.3339037" lon="12.7368283"><ele>488.0</ele><time>2026-04-04T13:00:48.214Z</time></trkpt><trkpt lat="43.3337924" lon="12.7369789"><ele>488.0</ele><time>2026-04-04T13:00:49.214Z</time></trkpt><trkpt lat="43.3336857" lon="12.7371243"><ele>489.0</ele><time>2026-04-04T13:00:50.215Z</time></trkpt><trkpt lat="43.3335844" lon="12.737267"><ele>490.0</ele><time>2026-04-04T13:00:51.214Z</time></trkpt><trkpt lat="43.3334889" lon="12.7374026"><ele>491.0</ele><time>2026-04-04T13:00:52.214Z</time></trkpt><trkpt lat="43.3334007" lon="12.7375338"><ele>492.0</ele><time>2026-04-04T13:00:53.214Z</time></trkpt><trkpt lat="43.3333197" lon="12.7376556"><ele>491.5</ele><time>2026-04-04T13:00:54.215Z</time></trkpt><trkpt lat="43.3332372" lon="12.7377813"><ele>491.0</ele><time>2026-04-04T13:00:55.215Z</time></trkpt><trkpt lat="43.3331625" lon="12.7378953"><ele>490.5</ele><time>2026-04-04T13:00:56.215Z</time></trkpt><trkpt lat="43.3330843" lon="12.7380085"><ele>490.0</ele><time>2026-04-04T13:00:57.214Z</time></trkpt><trkpt lat="43.3330107" lon="12.7381232"><ele>490.0</ele><time>2026-04-04T13:00:58.214Z</time></trkpt><trkpt lat="43.3329393" lon="12.7382364"><ele>490.0</ele><time>2026-04-04T13:00:59.214Z</time></trkpt><trkpt lat="43.3328695" lon="12.7383474"><ele>490.0</ele><time>2026-04-04T13:01:00.214Z</time></trkpt><trkpt lat="43.3328042" lon="12.7384585"><ele>490.0</ele><time>2026-04-04T13:01:01.215Z</time></trkpt><trkpt lat="43.3327384" lon="12.7385671"><ele>490.0</ele><time>2026-04-04T13:01:02.214Z</time></trkpt><trkpt lat="43.3326751" lon="12.7386688"><ele>490.33333333333337</ele><time>2026-04-04T13:01:03.215Z</time></trkpt><trkpt lat="43.3326086" lon="12.7387654"><ele>490.6666666666667</ele><time>2026-04-04T13:01:04.213Z</time></trkpt><trkpt lat="43.332552" lon="12.7388541"><ele>491.0</ele><time>2026-04-04T13:01:05.214Z</time></trkpt><trkpt lat="43.3324868" lon="12.7389467"><ele>491.33333333333337</ele><time>2026-04-04T13:01:06.214Z</time></trkpt><trkpt lat="43.3324347" lon="12.7390319"><ele>491.6666666666667</ele><time>2026-04-04T13:01:07.215Z</time></trkpt><trkpt lat="43.332377" lon="12.7391152"><ele>492.0</ele><time>2026-04-04T13:01:08.214Z</time></trkpt><trkpt lat="43.332321" lon="12.7391969"><ele>492.0</ele><time>2026-04-04T13:01:09.214Z</time></trkpt><trkpt lat="43.3322738" lon="12.7392829"><ele>492.0</ele><time>2026-04-04T13:01:10.215Z</time></trkpt><trkpt lat="43.3322198" lon="12.7393582"><ele>492.0</ele><time>2026-04-04T13:01:11.214Z</time></trkpt><trkpt lat="43.3321705" lon="12.7394305"><ele>492.0</ele><time>2026-04-04T13:01:12.214Z</time></trkpt><trkpt lat="43.3321168" lon="12.7395104"><ele>492.0</ele><time>2026-04-04T13:01:13.214Z</time></trkpt><trkpt lat="43.3320585" lon="12.7395874"><ele>492.0</ele><time>2026-04-04T13:01:14.214Z</time></trkpt><trkpt lat="43.3319995" lon="12.7396706"><ele>491.8333333333333</ele><time>2026-04-04T13:01:15.214Z</time></trkpt><trkpt lat="43.3319402" lon="12.7397588"><ele>491.66666666666663</ele><time>2026-04-04T13:01:16.215Z</time></trkpt><trkpt lat="43.3318817" lon="12.7398495"><ele>491.5</ele><time>2026-04-04T13:01:17.214Z</time></trkpt><trkpt lat="43.3318246" lon="12.7399459"><ele>491.3333333333333</ele><time>2026-04-04T13:01:18.214Z</time></trkpt><trkpt lat="43.3317711" lon="12.7400355"><ele>491.16666666666663</ele><time>2026-04-04T13:01:19.214Z</time></trkpt><trkpt lat="43.3317139" lon="12.7401211"><ele>491.0</ele><time>2026-04-04T13:01:20.214Z</time></trkpt><trkpt lat="43.3316656" lon="12.7402054"><ele>491.8333333333333</ele><time>2026-04-04T13:01:21.214Z</time></trkpt><trkpt lat="43.3316211" lon="12.7402772"><ele>492.66666666666663</ele><time>2026-04-04T13:01:22.215Z</time></trkpt><trkpt lat="43.3315757" lon="12.7403525"><ele>493.5</ele><time>2026-04-04T13:01:23.215Z</time></trkpt><trkpt lat="43.3315108" lon="12.7404558"><ele>494.33333333333337</ele><time>2026-04-04T13:01:25.214Z</time></trkpt><trkpt lat="43.3314781" lon="12.7405441"><ele>495.1666666666667</ele><time>2026-04-04T13:01:27.214Z</time></trkpt><trkpt lat="43.3314335" lon="12.740628"><ele>496.0</ele><time>2026-04-04T13:01:29.214Z</time></trkpt><trkpt lat="43.33137" lon="12.7407312"><ele>494.33333333333337</ele><time>2026-04-04T13:01:31.215Z</time></trkpt><trkpt lat="43.3312972" lon="12.7408719"><ele>492.6666666666667</ele><time>2026-04-04T13:01:33.214Z</time></trkpt><trkpt lat="43.331255" lon="12.7409452"><ele>491.0</ele><time>2026-04-04T13:01:34.214Z</time></trkpt><trkpt lat="43.3312268" lon="12.741027"><ele>489.33333333333337</ele><time>2026-04-04T13:01:35.215Z</time></trkpt><trkpt lat="43.3312039" lon="12.7411165"><ele>487.6666666666667</ele><time>2026-04-04T13:01:36.214Z</time></trkpt><trkpt lat="43.3311752" lon="12.7411991"><ele>486.0</ele><time>2026-04-04T13:01:37.214Z</time></trkpt><trkpt lat="43.3311521" lon="12.74141"><ele>485.6</ele><time>2026-04-04T13:01:39.215Z</time></trkpt><trkpt lat="43.3311605" lon="12.7415464"><ele>485.20000000000005</ele><time>2026-04-04T13:01:40.214Z</time></trkpt><trkpt lat="43.331165" lon="12.7416743"><ele>484.79999999999995</ele><time>2026-04-04T13:01:41.215Z</time></trkpt><trkpt lat="43.3311683" lon="12.7417991"><ele>484.4</ele><time>2026-04-04T13:01:42.214Z</time></trkpt><trkpt lat="43.3311793" lon="12.7419141"><ele>484.0</ele><time>2026-04-04T13:01:43.215Z</time></trkpt><trkpt lat="43.3311783" lon="12.7420327"><ele>483.1666666666667</ele><time>2026-04-04T13:01:44.215Z</time></trkpt><trkpt lat="43.3311739" lon="12.7421494"><ele>482.33333333333337</ele><time>2026-04-04T13:01:45.215Z</time></trkpt><trkpt lat="43.33116" lon="12.7422489"><ele>481.5</ele><time>2026-04-04T13:01:46.214Z</time></trkpt><trkpt lat="43.3311478" lon="12.7423661"><ele>480.66666666666663</ele><time>2026-04-04T13:01:47.215Z</time></trkpt><trkpt lat="43.3311254" lon="12.7424809"><ele>479.8333333333333</ele><time>2026-04-04T13:01:48.214Z</time></trkpt><trkpt lat="43.3310851" lon="12.7425886"><ele>479.0</ele><time>2026-04-04T13:01:49.214Z</time></trkpt><trkpt lat="43.3310344" lon="12.742688"><ele>478.8333333333333</ele><time>2026-04-04T13:01:50.214Z</time></trkpt><trkpt lat="43.3309816" lon="12.7427806"><ele>478.66666666666663</ele><time>2026-04-04T13:01:51.215Z</time></trkpt><trkpt lat="43.3309207" lon="12.7428647"><ele>478.5</ele><time>2026-04-04T13:01:52.215Z</time></trkpt><trkpt lat="43.3308598" lon="12.7429397"><ele>478.33333333333337</ele><time>2026-04-04T13:01:53.214Z</time></trkpt><trkpt lat="43.3307892" lon="12.7430096"><ele>478.1666666666667</ele><time>2026-04-04T13:01:54.214Z</time></trkpt><trkpt lat="43.3307148" lon="12.7430765"><ele>478.0</ele><time>2026-04-04T13:01:55.214Z</time></trkpt><trkpt lat="43.330642" lon="12.7431675"><ele>478.0</ele><time>2026-04-04T13:01:56.214Z</time></trkpt><trkpt lat="43.3305583" lon="12.7432526"><ele>478.0</ele><time>2026-04-04T13:01:57.214Z</time></trkpt><trkpt lat="43.3304639" lon="12.7433498"><ele>478.0</ele><time>2026-04-04T13:01:58.215Z</time></trkpt><trkpt lat="43.3303742" lon="12.743452"><ele>478.0</ele><time>2026-04-04T13:01:59.214Z</time></trkpt><trkpt lat="43.3302758" lon="12.7435626"><ele>478.75</ele><time>2026-04-04T13:02:00.214Z</time></trkpt><trkpt lat="43.330171" lon="12.7436919"><ele>479.5</ele><time>2026-04-04T13:02:01.214Z</time></trkpt><trkpt lat="43.330062" lon="12.7438101"><ele>480.25</ele><time>2026-04-04T13:02:02.214Z</time></trkpt><trkpt lat="43.3299473" lon="12.7439391"><ele>481.0</ele><time>2026-04-04T13:02:03.215Z</time></trkpt><trkpt lat="43.3298332" lon="12.7440571"><ele>481.0</ele><time>2026-04-04T13:02:04.214Z</time></trkpt><trkpt lat="43.3297257" lon="12.7441695"><ele>481.0</ele><time>2026-04-04T13:02:05.215Z</time></trkpt><trkpt lat="43.3296203" lon="12.7442718"><ele>481.0</ele><time>2026-04-04T13:02:06.214Z</time></trkpt><trkpt lat="43.3295088" lon="12.7443693"><ele>481.0</ele><time>2026-04-04T13:02:07.214Z</time></trkpt><trkpt lat="43.3294015" lon="12.7444443"><ele>481.25</ele><time>2026-04-04T13:02:08.214Z</time></trkpt><trkpt lat="43.3292944" lon="12.7445017"><ele>481.5</ele><time>2026-04-04T13:02:09.215Z</time></trkpt><trkpt lat="43.329183" lon="12.7445246"><ele>481.75</ele><time>2026-04-04T13:02:10.214Z</time></trkpt><trkpt lat="43.329061" lon="12.7445188"><ele>482.0</ele><time>2026-04-04T13:02:11.215Z</time></trkpt><trkpt lat="43.3289358" lon="12.7444941"><ele>484.75</ele><time>2026-04-04T13:02:12.215Z</time></trkpt><trkpt lat="43.3287961" lon="12.7444717"><ele>487.5</ele><time>2026-04-04T13:02:13.214Z</time></trkpt><trkpt lat="43.3286641" lon="12.7444523"><ele>490.25</ele><time>2026-04-04T13:02:14.214Z</time></trkpt><trkpt lat="43.32853" lon="12.744439"><ele>493.0</ele><time>2026-04-04T13:02:15.214Z</time></trkpt><trkpt lat="43.3283868" lon="12.7444238"><ele>493.0</ele><time>2026-04-04T13:02:16.214Z</time></trkpt><trkpt lat="43.3282401" lon="12.7444128"><ele>493.0</ele><time>2026-04-04T13:02:17.214Z</time></trkpt><trkpt lat="43.3280972" lon="12.7444106"><ele>493.0</ele><time>2026-04-04T13:02:18.215Z</time></trkpt><trkpt lat="43.3279547" lon="12.7444193"><ele>493.0</ele><time>2026-04-04T13:02:19.214Z</time></trkpt><trkpt lat="43.3278117" lon="12.7444334"><ele>494.0</ele><time>2026-04-04T13:02:20.214Z</time></trkpt><trkpt lat="43.3276652" lon="12.7444544"><ele>495.0</ele><time>2026-04-04T13:02:21.214Z</time></trkpt><trkpt lat="43.3275244" lon="12.7444751"><ele>496.0</ele><time>2026-04-04T13:02:22.214Z</time></trkpt><trkpt lat="43.3273864" lon="12.744491"><ele>497.0</ele><time>2026-04-04T13:02:23.214Z</time></trkpt><trkpt lat="43.3272466" lon="12.7445169"><ele>496.75</ele><time>2026-04-04T13:02:24.215Z</time></trkpt><trkpt lat="43.3271053" lon="12.7445421"><ele>496.5</ele><time>2026-04-04T13:02:25.215Z</time></trkpt><trkpt lat="43.3269622" lon="12.7445667"><ele>496.25</ele><time>2026-04-04T13:02:26.214Z</time></trkpt><trkpt lat="43.3268171" lon="12.7445732"><ele>496.0</ele><time>2026-04-04T13:02:27.214Z</time></trkpt><trkpt lat="43.3266772" lon="12.7446001"><ele>496.0</ele><time>2026-04-04T13:02:28.214Z</time></trkpt><trkpt lat="43.3265333" lon="12.7446189"><ele>496.0</ele><time>2026-04-04T13:02:29.214Z</time></trkpt><trkpt lat="43.3264006" lon="12.7446428"><ele>496.0</ele><time>2026-04-04T13:02:30.214Z</time></trkpt><trkpt lat="43.3262664" lon="12.7446761"><ele>496.0</ele><time>2026-04-04T13:02:31.214Z</time></trkpt><trkpt lat="43.3261327" lon="12.7447214"><ele>495.0</ele><time>2026-04-04T13:02:32.214Z</time></trkpt><trkpt lat="43.3260077" lon="12.7447868"><ele>494.0</ele><time>2026-04-04T13:02:33.214Z</time></trkpt><trkpt lat="43.3258929" lon="12.744878"><ele>493.0</ele><time>2026-04-04T13:02:34.214Z</time></trkpt><trkpt lat="43.3257992" lon="12.7450045"><ele>492.0</ele><time>2026-04-04T13:02:35.215Z</time></trkpt><trkpt lat="43.3257118" lon="12.7451484"><ele>492.25</ele><time>2026-04-04T13:02:36.214Z</time></trkpt><trkpt lat="43.3256395" lon="12.7452983"><ele>492.5</ele><time>2026-04-04T13:02:37.215Z</time></trkpt><trkpt lat="43.3255719" lon="12.7454653"><ele>492.75</ele><time>2026-04-04T13:02:38.215Z</time></trkpt><trkpt lat="43.325515" lon="12.745629"><ele>493.0</ele><time>2026-04-04T13:02:39.214Z</time></trkpt><trkpt lat="43.3254627" lon="12.7457968"><ele>490.5</ele><time>2026-04-04T13:02:40.214Z</time></trkpt><trkpt lat="43.3254133" lon="12.7459566"><ele>488.0</ele><time>2026-04-04T13:02:41.214Z</time></trkpt><trkpt lat="43.3253457" lon="12.7461226"><ele>485.5</ele><time>2026-04-04T13:02:42.215Z</time></trkpt><trkpt lat="43.3252762" lon="12.7462842"><ele>483.0</ele><time>2026-04-04T13:02:43.214Z</time></trkpt><trkpt lat="43.3252003" lon="12.7464392"><ele>483.0</ele><time>2026-04-04T13:02:44.214Z</time></trkpt><trkpt lat="43.3251166" lon="12.7465947"><ele>483.0</ele><time>2026-04-04T13:02:45.214Z</time></trkpt><trkpt lat="43.3250367" lon="12.746738"><ele>483.0</ele><time>2026-04-04T13:02:46.215Z</time></trkpt><trkpt lat="43.3249494" lon="12.7468744"><ele>483.0</ele><time>2026-04-04T13:02:47.214Z</time></trkpt><trkpt lat="43.324863" lon="12.7470062"><ele>483.5</ele><time>2026-04-04T13:02:48.214Z</time></trkpt><trkpt lat="43.3247732" lon="12.7471498"><ele>484.0</ele><time>2026-04-04T13:02:49.214Z</time></trkpt><trkpt lat="43.3246815" lon="12.7472885"><ele>484.5</ele><time>2026-04-04T13:02:50.214Z</time></trkpt><trkpt lat="43.3245972" lon="12.7474378"><ele>485.0</ele><time>2026-04-04T13:02:51.215Z</time></trkpt><trkpt lat="43.3245184" lon="12.7475946"><ele>486.25</ele><time>2026-04-04T13:02:52.214Z</time></trkpt><trkpt lat="43.324441" lon="12.7477448"><ele>487.5</ele><time>2026-04-04T13:02:53.214Z</time></trkpt><trkpt lat="43.3243588" lon="12.7479078"><ele>488.75</ele><time>2026-04-04T13:02:54.214Z</time></trkpt><trkpt lat="43.324283" lon="12.7480535"><ele>490.0</ele><time>2026-04-04T13:02:55.215Z</time></trkpt><trkpt lat="43.3241861" lon="12.7481554"><ele>490.0</ele><time>2026-04-04T13:02:56.214Z</time></trkpt><trkpt lat="43.3241031" lon="12.748324"><ele>490.0</ele><time>2026-04-04T13:02:57.214Z</time></trkpt><trkpt lat="43.3240198" lon="12.7484887"><ele>490.0</ele><time>2026-04-04T13:02:58.215Z</time></trkpt><trkpt lat="43.3239428" lon="12.7486637"><ele>490.0</ele><time>2026-04-04T13:02:59.214Z</time></trkpt><trkpt lat="43.3238648" lon="12.7488324"><ele>491.5</ele><time>2026-04-04T13:03:00.215Z</time></trkpt><trkpt lat="43.3237808" lon="12.7489982"><ele>493.0</ele><time>2026-04-04T13:03:01.214Z</time></trkpt><trkpt lat="43.323699" lon="12.7491599"><ele>494.5</ele><time>2026-04-04T13:03:02.215Z</time></trkpt><trkpt lat="43.3236208" lon="12.7493188"><ele>496.0</ele><time>2026-04-04T13:03:03.215Z</time></trkpt><trkpt lat="43.3235413" lon="12.7494738"><ele>496.75</ele><time>2026-04-04T13:03:04.214Z</time></trkpt><trkpt lat="43.3234534" lon="12.7496228"><ele>497.5</ele><time>2026-04-04T13:03:05.214Z</time></trkpt><trkpt lat="43.3233547" lon="12.7497622"><ele>498.25</ele><time>2026-04-04T13:03:06.215Z</time></trkpt><trkpt lat="43.3232496" lon="12.7499011"><ele>499.0</ele><time>2026-04-04T13:03:07.214Z</time></trkpt><trkpt lat="43.3231362" lon="12.7500352"><ele>499.0</ele><time>2026-04-04T13:03:08.214Z</time></trkpt><trkpt lat="43.3230146" lon="12.7501535"><ele>499.0</ele><time>2026-04-04T13:03:09.214Z</time></trkpt><trkpt lat="43.3228939" lon="12.7502722"><ele>499.0</ele><time>2026-04-04T13:03:10.214Z</time></trkpt><trkpt lat="43.322768" lon="12.7503652"><ele>499.0</ele><time>2026-04-04T13:03:11.214Z</time></trkpt><trkpt lat="43.3226383" lon="12.7504523"><ele>499.0</ele><time>2026-04-04T13:03:12.215Z</time></trkpt><trkpt lat="43.3225145" lon="12.7505464"><ele>499.0</ele><time>2026-04-04T13:03:13.215Z</time></trkpt><trkpt lat="43.3223972" lon="12.7506546"><ele>499.0</ele><time>2026-04-04T13:03:14.215Z</time></trkpt><trkpt lat="43.3222769" lon="12.7507752"><ele>499.0</ele><time>2026-04-04T13:03:15.214Z</time></trkpt><trkpt lat="43.3221548" lon="12.7509169"><ele>499.33333333333337</ele><time>2026-04-04T13:03:16.215Z</time></trkpt><trkpt lat="43.3220304" lon="12.7510597"><ele>499.66666666666663</ele><time>2026-04-04T13:03:17.214Z</time></trkpt><trkpt lat="43.3219066" lon="12.7512226"><ele>500.0</ele><time>2026-04-04T13:03:18.215Z</time></trkpt><trkpt lat="43.3217845" lon="12.7513933"><ele>500.0</ele><time>2026-04-04T13:03:19.215Z</time></trkpt><trkpt lat="43.3216742" lon="12.7515645"><ele>500.0</ele><time>2026-04-04T13:03:20.215Z</time></trkpt><trkpt lat="43.3215684" lon="12.7517427"><ele>500.0</ele><time>2026-04-04T13:03:21.214Z</time></trkpt><trkpt lat="43.3214776" lon="12.751941"><ele>499.3333333333333</ele><time>2026-04-04T13:03:22.214Z</time></trkpt><trkpt lat="43.3213778" lon="12.7521177"><ele>498.66666666666663</ele><time>2026-04-04T13:03:23.214Z</time></trkpt><trkpt lat="43.3212783" lon="12.7522913"><ele>498.0</ele><time>2026-04-04T13:03:24.214Z</time></trkpt><trkpt lat="43.3211755" lon="12.7524513"><ele>498.0</ele><time>2026-04-04T13:03:25.213Z</time></trkpt><trkpt lat="43.321069" lon="12.7525932"><ele>498.0</ele><time>2026-04-04T13:03:26.214Z</time></trkpt><trkpt lat="43.3209561" lon="12.7527188"><ele>498.0</ele><time>2026-04-04T13:03:27.214Z</time></trkpt><trkpt lat="43.3208393" lon="12.7528269"><ele>498.0</ele><time>2026-04-04T13:03:28.214Z</time></trkpt><trkpt lat="43.3207224" lon="12.7529203"><ele>497.66666666666663</ele><time>2026-04-04T13:03:29.214Z</time></trkpt><trkpt lat="43.3205938" lon="12.7530108"><ele>497.3333333333333</ele><time>2026-04-04T13:03:30.214Z</time></trkpt><trkpt lat="43.3204577" lon="12.7531008"><ele>497.0</ele><time>2026-04-04T13:03:31.214Z</time></trkpt><trkpt lat="43.3203191" lon="12.7532"><ele>497.0</ele><time>2026-04-04T13:03:32.214Z</time></trkpt><trkpt lat="43.320175" lon="12.7532998"><ele>497.0</ele><time>2026-04-04T13:03:33.215Z</time></trkpt><trkpt lat="43.3200358" lon="12.7533951"><ele>497.0</ele><time>2026-04-04T13:03:34.214Z</time></trkpt><trkpt lat="43.3198924" lon="12.753479"><ele>496.25</ele><time>2026-04-04T13:03:35.214Z</time></trkpt><trkpt lat="43.3197587" lon="12.7535591"><ele>495.5</ele><time>2026-04-04T13:03:36.214Z</time></trkpt><trkpt lat="43.3196353" lon="12.7536476"><ele>494.75</ele><time>2026-04-04T13:03:37.215Z</time></trkpt><trkpt lat="43.3195086" lon="12.7537405"><ele>494.0</ele><time>2026-04-04T13:03:38.214Z</time></trkpt><trkpt lat="43.3193858" lon="12.7538679"><ele>494.0</ele><time>2026-04-04T13:03:39.214Z</time></trkpt><trkpt lat="43.3192765" lon="12.7540193"><ele>494.0</ele><time>2026-04-04T13:03:40.215Z</time></trkpt><trkpt lat="43.3191773" lon="12.7541882"><ele>494.0</ele><time>2026-04-04T13:03:41.214Z</time></trkpt><trkpt lat="43.3190848" lon="12.7543618"><ele>493.0</ele><time>2026-04-04T13:03:42.215Z</time></trkpt><trkpt lat="43.3190053" lon="12.7545447"><ele>492.0</ele><time>2026-04-04T13:03:43.214Z</time></trkpt><trkpt lat="43.318926" lon="12.7547293"><ele>491.0</ele><time>2026-04-04T13:03:44.214Z</time></trkpt><trkpt lat="43.3188462" lon="12.7549075"><ele>491.0</ele><time>2026-04-04T13:03:45.215Z</time></trkpt><trkpt lat="43.3187719" lon="12.7550894"><ele>491.0</ele><time>2026-04-04T13:03:46.214Z</time></trkpt><trkpt lat="43.3187022" lon="12.7552665"><ele>491.0</ele><time>2026-04-04T13:03:47.214Z</time></trkpt><trkpt lat="43.3186354" lon="12.7554433"><ele>491.0</ele><time>2026-04-04T13:03:48.215Z</time></trkpt><trkpt lat="43.3185801" lon="12.7556394"><ele>491.25</ele><time>2026-04-04T13:03:49.213Z</time></trkpt><trkpt lat="43.3185301" lon="12.7558229"><ele>491.5</ele><time>2026-04-04T13:03:50.214Z</time></trkpt><trkpt lat="43.3184824" lon="12.7560283"><ele>491.75</ele><time>2026-04-04T13:03:51.214Z</time></trkpt><trkpt lat="43.3184322" lon="12.7562223"><ele>492.0</ele><time>2026-04-04T13:03:52.214Z</time></trkpt><trkpt lat="43.3183822" lon="12.7564266"><ele>492.66666666666663</ele><time>2026-04-04T13:03:53.215Z</time></trkpt><trkpt lat="43.3183537" lon="12.7566444"><ele>493.3333333333333</ele><time>2026-04-04T13:03:54.214Z</time></trkpt><trkpt lat="43.3183136" lon="12.7568453"><ele>494.0</ele><time>2026-04-04T13:03:55.214Z</time></trkpt><trkpt lat="43.3182772" lon="12.7570462"><ele>494.66666666666663</ele><time>2026-04-04T13:03:56.215Z</time></trkpt><trkpt lat="43.3182437" lon="12.7572449"><ele>495.33333333333337</ele><time>2026-04-04T13:03:57.214Z</time></trkpt><trkpt lat="43.3182222" lon="12.7574486"><ele>496.0</ele><time>2026-04-04T13:03:58.214Z</time></trkpt><trkpt lat="43.3182113" lon="12.7576563"><ele>496.25</ele><time>2026-04-04T13:03:59.215Z</time></trkpt><trkpt lat="43.3182103" lon="12.7578729"><ele>496.5</ele><time>2026-04-04T13:04:00.214Z</time></trkpt><trkpt lat="43.3182177" lon="12.7580753"><ele>496.75</ele><time>2026-04-04T13:04:01.215Z</time></trkpt><trkpt lat="43.3182251" lon="12.7582615"><ele>497.0</ele><time>2026-04-04T13:04:02.214Z</time></trkpt><trkpt lat="43.3182383" lon="12.7584323"><ele>497.40000000000003</ele><time>2026-04-04T13:04:03.214Z</time></trkpt><trkpt lat="43.3182517" lon="12.7585879"><ele>497.80000000000007</ele><time>2026-04-04T13:04:04.214Z</time></trkpt><trkpt lat="43.3182541" lon="12.7587354"><ele>498.2</ele><time>2026-04-04T13:04:05.215Z</time></trkpt><trkpt lat="43.318236" lon="12.7588754"><ele>498.6</ele><time>2026-04-04T13:04:06.214Z</time></trkpt><trkpt lat="43.3181803" lon="12.7590021"><ele>499.0</ele><time>2026-04-04T13:04:07.214Z</time></trkpt><trkpt lat="43.3180955" lon="12.7590971"><ele>498.6</ele><time>2026-04-04T13:04:08.214Z</time></trkpt><trkpt lat="43.317996" lon="12.7591812"><ele>498.2</ele><time>2026-04-04T13:04:09.215Z</time></trkpt><trkpt lat="43.3178902" lon="12.7592332"><ele>497.80000000000007</ele><time>2026-04-04T13:04:10.214Z</time></trkpt><trkpt lat="43.3177826" lon="12.7592686"><ele>497.40000000000003</ele><time>2026-04-04T13:04:11.214Z</time></trkpt><trkpt lat="43.3176743" lon="12.7592827"><ele>497.0</ele><time>2026-04-04T13:04:12.215Z</time></trkpt><trkpt lat="43.3175645" lon="12.7592194"><ele>497.0</ele><time>2026-04-04T13:04:13.215Z</time></trkpt><trkpt lat="43.3174492" lon="12.759119"><ele>497.0</ele><time>2026-04-04T13:04:14.215Z</time></trkpt><trkpt lat="43.3173331" lon="12.7590317"><ele>497.0</ele><time>2026-04-04T13:04:15.214Z</time></trkpt><trkpt lat="43.3172094" lon="12.7589432"><ele>497.0</ele><time>2026-04-04T13:04:16.214Z</time></trkpt><trkpt lat="43.3170854" lon="12.7588485"><ele>499.5</ele><time>2026-04-04T13:04:17.214Z</time></trkpt><trkpt lat="43.3169636" lon="12.7587628"><ele>502.0</ele><time>2026-04-04T13:04:18.215Z</time></trkpt><trkpt lat="43.3168464" lon="12.7586852"><ele>504.5</ele><time>2026-04-04T13:04:19.214Z</time></trkpt><trkpt lat="43.3167357" lon="12.7586094"><ele>507.0</ele><time>2026-04-04T13:04:20.214Z</time></trkpt><trkpt lat="43.3166362" lon="12.7585381"><ele>506.6</ele><time>2026-04-04T13:04:21.214Z</time></trkpt><trkpt lat="43.3165315" lon="12.7584698"><ele>506.20000000000005</ele><time>2026-04-04T13:04:22.215Z</time></trkpt><trkpt lat="43.3164321" lon="12.7584082"><ele>505.8</ele><time>2026-04-04T13:04:23.214Z</time></trkpt><trkpt lat="43.3163356" lon="12.7583484"><ele>505.4</ele><time>2026-04-04T13:04:24.214Z</time></trkpt><trkpt lat="43.3162587" lon="12.7582958"><ele>505.0</ele><time>2026-04-04T13:04:25.214Z</time></trkpt><trkpt lat="43.3161631" lon="12.758228"><ele>505.00000000000006</ele><time>2026-04-04T13:04:27.215Z</time></trkpt><trkpt lat="43.3160987" lon="12.7581671"><ele>505.0</ele><time>2026-04-04T13:06:02.215Z</time></trkpt><trkpt lat="43.3160149" lon="12.7581205"><ele>505.0</ele><time>2026-04-04T13:06:04.215Z</time></trkpt><trkpt lat="43.315955" lon="12.7580879"><ele>505.0</ele><time>2026-04-04T13:06:05.213Z</time></trkpt><trkpt lat="43.3158295" lon="12.758036"><ele>505.00000000000006</ele><time>2026-04-04T13:06:07.214Z</time></trkpt><trkpt lat="43.315762" lon="12.7580096"><ele>505.0</ele><time>2026-04-04T13:06:08.215Z</time></trkpt><trkpt lat="43.3156813" lon="12.7579938"><ele>505.00000000000006</ele><time>2026-04-04T13:06:09.214Z</time></trkpt><trkpt lat="43.3155996" lon="12.7579881"><ele>505.0</ele><time>2026-04-04T13:06:10.214Z</time></trkpt><trkpt lat="43.3155178" lon="12.7579735"><ele>505.0</ele><time>2026-04-04T13:06:11.214Z</time></trkpt><trkpt lat="43.3154169" lon="12.7579501"><ele>505.0</ele><time>2026-04-04T13:06:13.214Z</time></trkpt><trkpt lat="43.3153405" lon="12.7579543"><ele>505.00000000000006</ele><time>2026-04-04T13:06:57.214Z</time></trkpt><trkpt lat="43.3152796" lon="12.7579824"><ele>505.0</ele><time>2026-04-04T13:06:59.214Z</time></trkpt><trkpt lat="43.3151488" lon="12.7580017"><ele>504.75</ele><time>2026-04-04T13:07:01.214Z</time></trkpt><trkpt lat="43.3150215" lon="12.757999"><ele>504.5</ele><time>2026-04-04T13:07:02.214Z</time></trkpt><trkpt lat="43.3149117" lon="12.7580042"><ele>504.25</ele><time>2026-04-04T13:07:03.214Z</time></trkpt><trkpt lat="43.3147925" lon="12.7580152"><ele>504.0</ele><time>2026-04-04T13:07:04.214Z</time></trkpt><trkpt lat="43.3146644" lon="12.758027"><ele>503.5</ele><time>2026-04-04T13:07:05.214Z</time></trkpt><trkpt lat="43.3145216" lon="12.7580509"><ele>503.0</ele><time>2026-04-04T13:07:06.214Z</time></trkpt><trkpt lat="43.3143946" lon="12.7580751"><ele>502.5</ele><time>2026-04-04T13:07:07.215Z</time></trkpt><trkpt lat="43.314256" lon="12.7581057"><ele>502.0</ele><time>2026-04-04T13:07:08.215Z</time></trkpt><trkpt lat="43.3141096" lon="12.758138"><ele>502.0</ele><time>2026-04-04T13:07:09.214Z</time></trkpt><trkpt lat="43.3139638" lon="12.7581772"><ele>502.0</ele><time>2026-04-04T13:07:10.214Z</time></trkpt><trkpt lat="43.3138164" lon="12.7582143"><ele>502.0</ele><time>2026-04-04T13:07:11.214Z</time></trkpt><trkpt lat="43.3136648" lon="12.7582573"><ele>500.0</ele><time>2026-04-04T13:07:12.214Z</time></trkpt><trkpt lat="43.3135117" lon="12.7582988"><ele>498.0</ele><time>2026-04-04T13:07:13.214Z</time></trkpt><trkpt lat="43.3133525" lon="12.7583389"><ele>496.0</ele><time>2026-04-04T13:07:14.214Z</time></trkpt><trkpt lat="43.3131938" lon="12.7583854"><ele>494.6666666666667</ele><time>2026-04-04T13:07:15.214Z</time></trkpt><trkpt lat="43.3130308" lon="12.7584356"><ele>493.33333333333337</ele><time>2026-04-04T13:07:16.214Z</time></trkpt><trkpt lat="43.3128638" lon="12.758486"><ele>492.0</ele><time>2026-04-04T13:07:17.214Z</time></trkpt><trkpt lat="43.3126963" lon="12.7585299"><ele>492.66666666666663</ele><time>2026-04-04T13:07:18.215Z</time></trkpt><trkpt lat="43.3125287" lon="12.7585803"><ele>493.3333333333333</ele><time>2026-04-04T13:07:19.214Z</time></trkpt><trkpt lat="43.3123551" lon="12.7586101"><ele>494.0</ele><time>2026-04-04T13:07:20.214Z</time></trkpt><trkpt lat="43.3121838" lon="12.7586514"><ele>494.0</ele><time>2026-04-04T13:07:21.215Z</time></trkpt><trkpt lat="43.3120089" lon="12.7586971"><ele>494.0</ele><time>2026-04-04T13:07:22.215Z</time></trkpt><trkpt lat="43.3118302" lon="12.7587402"><ele>494.0</ele><time>2026-04-04T13:07:23.214Z</time></trkpt><trkpt lat="43.3116494" lon="12.7587802"><ele>494.0</ele><time>2026-04-04T13:07:24.214Z</time></trkpt><trkpt lat="43.3114721" lon="12.7588238"><ele>494.0</ele><time>2026-04-04T13:07:25.215Z</time></trkpt><trkpt lat="43.3112896" lon="12.7588709"><ele>494.0</ele><time>2026-04-04T13:07:26.214Z</time></trkpt><trkpt lat="43.311106" lon="12.7589144"><ele>494.0</ele><time>2026-04-04T13:07:27.214Z</time></trkpt><trkpt lat="43.3109229" lon="12.7589525"><ele>494.0</ele><time>2026-04-04T13:07:28.215Z</time></trkpt><trkpt lat="43.3107361" lon="12.7589849"><ele>494.0</ele><time>2026-04-04T13:07:29.214Z</time></trkpt><trkpt lat="43.3105518" lon="12.7590106"><ele>494.0</ele><time>2026-04-04T13:07:30.214Z</time></trkpt><trkpt lat="43.3103718" lon="12.7590324"><ele>494.0</ele><time>2026-04-04T13:07:31.214Z</time></trkpt><trkpt lat="43.3101875" lon="12.7590584"><ele>494.0</ele><time>2026-04-04T13:07:32.215Z</time></trkpt><trkpt lat="43.3100074" lon="12.7590678"><ele>494.0</ele><time>2026-04-04T13:07:33.214Z</time></trkpt><trkpt lat="43.3098276" lon="12.7590823"><ele>494.0</ele><time>2026-04-04T13:07:34.214Z</time></trkpt><trkpt lat="43.3096531" lon="12.7590964"><ele>494.0</ele><time>2026-04-04T13:07:35.214Z</time></trkpt><trkpt lat="43.3094813" lon="12.7591091"><ele>495.3333333333333</ele><time>2026-04-04T13:07:36.214Z</time></trkpt><trkpt lat="43.3093169" lon="12.7591229"><ele>496.66666666666663</ele><time>2026-04-04T13:07:37.215Z</time></trkpt><trkpt lat="43.3091505" lon="12.7591089"><ele>498.0</ele><time>2026-04-04T13:07:38.214Z</time></trkpt><trkpt lat="43.3089791" lon="12.7590729"><ele>496.66666666666663</ele><time>2026-04-04T13:07:39.214Z</time></trkpt><trkpt lat="43.3088012" lon="12.7590396"><ele>495.3333333333333</ele><time>2026-04-04T13:07:40.215Z</time></trkpt><trkpt lat="43.3086164" lon="12.7590009"><ele>494.0</ele><time>2026-04-04T13:07:41.215Z</time></trkpt><trkpt lat="43.308428" lon="12.7589635"><ele>494.0</ele><time>2026-04-04T13:07:42.215Z</time></trkpt><trkpt lat="43.3082422" lon="12.7589196"><ele>494.0</ele><time>2026-04-04T13:07:43.215Z</time></trkpt><trkpt lat="43.308055" lon="12.7588745"><ele>494.0</ele><time>2026-04-04T13:07:44.214Z</time></trkpt><trkpt lat="43.3078675" lon="12.7588382"><ele>492.0</ele><time>2026-04-04T13:07:45.214Z</time></trkpt><trkpt lat="43.3076708" lon="12.7587967"><ele>490.0</ele><time>2026-04-04T13:07:46.215Z</time></trkpt><trkpt lat="43.3074733" lon="12.7587503"><ele>488.0</ele><time>2026-04-04T13:07:47.214Z</time></trkpt><trkpt lat="43.3072786" lon="12.7587158"><ele>486.3333333333333</ele><time>2026-04-04T13:07:48.214Z</time></trkpt><trkpt lat="43.3070809" lon="12.758684"><ele>484.66666666666663</ele><time>2026-04-04T13:07:49.213Z</time></trkpt><trkpt lat="43.3068795" lon="12.7586714"><ele>483.0</ele><time>2026-04-04T13:07:50.215Z</time></trkpt><trkpt lat="43.306669" lon="12.7586769"><ele>483.0</ele><time>2026-04-04T13:07:51.215Z</time></trkpt><trkpt lat="43.3064628" lon="12.7586818"><ele>483.0</ele><time>2026-04-04T13:07:52.215Z</time></trkpt><trkpt lat="43.3062553" lon="12.7586907"><ele>483.0</ele><time>2026-04-04T13:07:53.214Z</time></trkpt><trkpt lat="43.3060492" lon="12.7587008"><ele>481.33333333333337</ele><time>2026-04-04T13:07:54.214Z</time></trkpt><trkpt lat="43.3058469" lon="12.758711"><ele>479.6666666666667</ele><time>2026-04-04T13:07:55.214Z</time></trkpt><trkpt lat="43.3056377" lon="12.7587144"><ele>478.0</ele><time>2026-04-04T13:07:56.215Z</time></trkpt><trkpt lat="43.3054361" lon="12.7587255"><ele>476.6666666666667</ele><time>2026-04-04T13:07:57.214Z</time></trkpt><trkpt lat="43.3052338" lon="12.758736"><ele>475.33333333333337</ele><time>2026-04-04T13:07:58.214Z</time></trkpt><trkpt lat="43.3050307" lon="12.758747"><ele>474.0</ele><time>2026-04-04T13:07:59.214Z</time></trkpt><trkpt lat="43.3048262" lon="12.7587539"><ele>473.66666666666663</ele><time>2026-04-04T13:08:00.215Z</time></trkpt><trkpt lat="43.3046239" lon="12.7587631"><ele>473.3333333333333</ele><time>2026-04-04T13:08:01.214Z</time></trkpt><trkpt lat="43.3044216" lon="12.7587749"><ele>473.0</ele><time>2026-04-04T13:08:02.214Z</time></trkpt><trkpt lat="43.3042217" lon="12.758783"><ele>473.0</ele><time>2026-04-04T13:08:03.214Z</time></trkpt><trkpt lat="43.3040239" lon="12.7587931"><ele>473.0</ele><time>2026-04-04T13:08:04.215Z</time></trkpt><trkpt lat="43.3038268" lon="12.7588005"><ele>473.0</ele><time>2026-04-04T13:08:05.212Z</time></trkpt><trkpt lat="43.3036349" lon="12.7587994"><ele>472.66666666666663</ele><time>2026-04-04T13:08:06.214Z</time></trkpt><trkpt lat="43.3034506" lon="12.7587814"><ele>472.33333333333337</ele><time>2026-04-04T13:08:07.214Z</time></trkpt><trkpt lat="43.3032732" lon="12.7587431"><ele>472.0</ele><time>2026-04-04T13:08:08.213Z</time></trkpt><trkpt lat="43.3030819" lon="12.7586863"><ele>472.33333333333337</ele><time>2026-04-04T13:08:09.214Z</time></trkpt><trkpt lat="43.3028964" lon="12.7586373"><ele>472.66666666666663</ele><time>2026-04-04T13:08:10.214Z</time></trkpt><trkpt lat="43.302726" lon="12.7585808"><ele>473.0</ele><time>2026-04-04T13:08:11.214Z</time></trkpt><trkpt lat="43.3025716" lon="12.7585086"><ele>473.0</ele><time>2026-04-04T13:08:12.214Z</time></trkpt><trkpt lat="43.3024283" lon="12.7584522"><ele>473.0</ele><time>2026-04-04T13:08:13.214Z</time></trkpt><trkpt lat="43.3022994" lon="12.7584155"><ele>473.0</ele><time>2026-04-04T13:08:14.215Z</time></trkpt><trkpt lat="43.3021671" lon="12.758348"><ele>473.0</ele><time>2026-04-04T13:08:15.213Z</time></trkpt><trkpt lat="43.3020403" lon="12.7582788"><ele>473.0</ele><time>2026-04-04T13:08:16.214Z</time></trkpt><trkpt lat="43.3019189" lon="12.7582071"><ele>473.0</ele><time>2026-04-04T13:08:17.214Z</time></trkpt><trkpt lat="43.3017904" lon="12.7581307"><ele>473.0</ele><time>2026-04-04T13:08:18.214Z</time></trkpt><trkpt lat="43.3016546" lon="12.7580564"><ele>473.0</ele><time>2026-04-04T13:08:19.214Z</time></trkpt><trkpt lat="43.3015128" lon="12.7579784"><ele>470.66666666666663</ele><time>2026-04-04T13:08:20.214Z</time></trkpt><trkpt lat="43.3013637" lon="12.7578971"><ele>468.33333333333337</ele><time>2026-04-04T13:08:21.214Z</time></trkpt><trkpt lat="43.3012085" lon="12.7578075"><ele>466.0</ele><time>2026-04-04T13:08:22.215Z</time></trkpt><trkpt lat="43.301058" lon="12.7577183"><ele>466.33333333333337</ele><time>2026-04-04T13:08:23.215Z</time></trkpt><trkpt lat="43.3009089" lon="12.7576247"><ele>466.66666666666663</ele><time>2026-04-04T13:08:24.214Z</time></trkpt><trkpt lat="43.300765" lon="12.7575332"><ele>467.0</ele><time>2026-04-04T13:08:25.214Z</time></trkpt><trkpt lat="43.3006286" lon="12.757433"><ele>465.25</ele><time>2026-04-04T13:08:26.214Z</time></trkpt><trkpt lat="43.3004969" lon="12.7573357"><ele>463.5</ele><time>2026-04-04T13:08:27.213Z</time></trkpt><trkpt lat="43.3003809" lon="12.7572459"><ele>461.75</ele><time>2026-04-04T13:08:28.214Z</time></trkpt><trkpt lat="43.3002679" lon="12.7571549"><ele>460.0</ele><time>2026-04-04T13:08:29.214Z</time></trkpt><trkpt lat="43.3001776" lon="12.7570869"><ele>460.00000000000006</ele><time>2026-04-04T13:08:30.214Z</time></trkpt><trkpt lat="43.300096" lon="12.7570324"><ele>460.0</ele><time>2026-04-04T13:08:31.214Z</time></trkpt><trkpt lat="43.3000319" lon="12.7569535"><ele>460.0</ele><time>2026-04-04T13:08:32.214Z</time></trkpt><trkpt lat="43.2999894" lon="12.7568631"><ele>460.0</ele><time>2026-04-04T13:08:33.214Z</time></trkpt><trkpt lat="43.2999275" lon="12.7567864"><ele>460.00000000000006</ele><time>2026-04-04T13:08:34.214Z</time></trkpt><trkpt lat="43.2998563" lon="12.7567446"><ele>460.0</ele><time>2026-04-04T13:08:35.214Z</time></trkpt><trkpt lat="43.2997811" lon="12.7567425"><ele>458.8</ele><time>2026-04-04T13:08:36.213Z</time></trkpt><trkpt lat="43.2997022" lon="12.7567604"><ele>457.6</ele><time>2026-04-04T13:08:37.214Z</time></trkpt><trkpt lat="43.2996146" lon="12.7567603"><ele>456.4</ele><time>2026-04-04T13:08:38.214Z</time></trkpt><trkpt lat="43.2995177" lon="12.7567432"><ele>455.2</ele><time>2026-04-04T13:08:39.215Z</time></trkpt><trkpt lat="43.2994003" lon="12.7566652"><ele>454.0</ele><time>2026-04-04T13:08:40.215Z</time></trkpt><trkpt lat="43.2992781" lon="12.7565786"><ele>454.0</ele><time>2026-04-04T13:08:41.214Z</time></trkpt><trkpt lat="43.2991486" lon="12.7564865"><ele>454.0</ele><time>2026-04-04T13:08:42.215Z</time></trkpt><trkpt lat="43.2990143" lon="12.7563946"><ele>454.0</ele><time>2026-04-04T13:08:43.214Z</time></trkpt><trkpt lat="43.298878" lon="12.7562983"><ele>454.0</ele><time>2026-04-04T13:08:44.215Z</time></trkpt><trkpt lat="43.2987403" lon="12.756207"><ele>452.6666666666667</ele><time>2026-04-04T13:08:45.214Z</time></trkpt><trkpt lat="43.2986026" lon="12.7561083"><ele>451.33333333333337</ele><time>2026-04-04T13:08:46.212Z</time></trkpt><trkpt lat="43.2984656" lon="12.7560087"><ele>450.0</ele><time>2026-04-04T13:08:47.214Z</time></trkpt><trkpt lat="43.2983359" lon="12.7558955"><ele>449.66666666666663</ele><time>2026-04-04T13:08:48.215Z</time></trkpt><trkpt lat="43.29821" lon="12.7557706"><ele>449.3333333333333</ele><time>2026-04-04T13:08:49.215Z</time></trkpt><trkpt lat="43.298094" lon="12.7556303"><ele>449.0</ele><time>2026-04-04T13:08:50.215Z</time></trkpt><trkpt lat="43.2979877" lon="12.7554693"><ele>448.3333333333333</ele><time>2026-04-04T13:08:51.214Z</time></trkpt><trkpt lat="43.2978859" lon="12.755303"><ele>447.66666666666663</ele><time>2026-04-04T13:08:52.214Z</time></trkpt><trkpt lat="43.2977852" lon="12.7551395"><ele>447.0</ele><time>2026-04-04T13:08:53.214Z</time></trkpt><trkpt lat="43.2976775" lon="12.7549788"><ele>446.66666666666663</ele><time>2026-04-04T13:08:54.215Z</time></trkpt><trkpt lat="43.2975586" lon="12.7548209"><ele>446.3333333333333</ele><time>2026-04-04T13:08:55.214Z</time></trkpt><trkpt lat="43.2974383" lon="12.7546681"><ele>446.0</ele><time>2026-04-04T13:08:56.214Z</time></trkpt><trkpt lat="43.2973177" lon="12.754514"><ele>445.3333333333333</ele><time>2026-04-04T13:08:57.215Z</time></trkpt><trkpt lat="43.2971978" lon="12.7543543"><ele>444.66666666666663</ele><time>2026-04-04T13:08:58.215Z</time></trkpt><trkpt lat="43.2970868" lon="12.754195"><ele>444.0</ele><time>2026-04-04T13:08:59.214Z</time></trkpt><trkpt lat="43.2969749" lon="12.7540322"><ele>444.0</ele><time>2026-04-04T13:09:00.214Z</time></trkpt><trkpt lat="43.2968639" lon="12.7538459"><ele>444.0</ele><time>2026-04-04T13:09:01.214Z</time></trkpt><trkpt lat="43.2967606" lon="12.7536501"><ele>444.0</ele><time>2026-04-04T13:09:02.215Z</time></trkpt><trkpt lat="43.2966479" lon="12.7534613"><ele>444.0</ele><time>2026-04-04T13:09:03.215Z</time></trkpt><trkpt lat="43.2965308" lon="12.7532617"><ele>444.0</ele><time>2026-04-04T13:09:04.214Z</time></trkpt><trkpt lat="43.2964167" lon="12.7530712"><ele>444.0</ele><time>2026-04-04T13:09:05.214Z</time></trkpt><trkpt lat="43.2963042" lon="12.7528793"><ele>443.66666666666663</ele><time>2026-04-04T13:09:06.214Z</time></trkpt><trkpt lat="43.2961877" lon="12.7526898"><ele>443.3333333333333</ele><time>2026-04-04T13:09:07.214Z</time></trkpt><trkpt lat="43.2960682" lon="12.7525027"><ele>443.0</ele><time>2026-04-04T13:09:08.215Z</time></trkpt><trkpt lat="43.2959463" lon="12.7523229"><ele>443.0</ele><time>2026-04-04T13:09:09.215Z</time></trkpt><trkpt lat="43.2958181" lon="12.7521502"><ele>443.0</ele><time>2026-04-04T13:09:10.214Z</time></trkpt><trkpt lat="43.2956856" lon="12.7519831"><ele>443.0</ele><time>2026-04-04T13:09:11.214Z</time></trkpt><trkpt lat="43.2955695" lon="12.7518234"><ele>444.0</ele><time>2026-04-04T13:09:12.215Z</time></trkpt><trkpt lat="43.2954552" lon="12.7516462"><ele>445.0</ele><time>2026-04-04T13:09:13.214Z</time></trkpt><trkpt lat="43.2953418" lon="12.7514764"><ele>446.0</ele><time>2026-04-04T13:09:14.215Z</time></trkpt><trkpt lat="43.2952334" lon="12.7513079"><ele>446.0</ele><time>2026-04-04T13:09:15.214Z</time></trkpt><trkpt lat="43.2951305" lon="12.751143"><ele>446.0</ele><time>2026-04-04T13:09:16.214Z</time></trkpt><trkpt lat="43.295024" lon="12.7509837"><ele>446.0</ele><time>2026-04-04T13:09:17.214Z</time></trkpt><trkpt lat="43.2949159" lon="12.7508306"><ele>444.25</ele><time>2026-04-04T13:09:18.215Z</time></trkpt><trkpt lat="43.2948024" lon="12.7506914"><ele>442.5</ele><time>2026-04-04T13:09:19.214Z</time></trkpt><trkpt lat="43.2946853" lon="12.7505647"><ele>440.75</ele><time>2026-04-04T13:09:20.214Z</time></trkpt><trkpt lat="43.2945688" lon="12.7504563"><ele>439.0</ele><time>2026-04-04T13:09:21.215Z</time></trkpt><trkpt lat="43.2944552" lon="12.7503601"><ele>439.0</ele><time>2026-04-04T13:09:22.213Z</time></trkpt><trkpt lat="43.2943454" lon="12.750276"><ele>439.0</ele><time>2026-04-04T13:09:23.214Z</time></trkpt><trkpt lat="43.2942356" lon="12.750195"><ele>439.0</ele><time>2026-04-04T13:09:24.214Z</time></trkpt><trkpt lat="43.2941145" lon="12.7501501"><ele>439.0</ele><time>2026-04-04T13:09:25.214Z</time></trkpt><trkpt lat="43.2939757" lon="12.7501535"><ele>437.0</ele><time>2026-04-04T13:09:26.214Z</time></trkpt><trkpt lat="43.2938417" lon="12.7501801"><ele>435.0</ele><time>2026-04-04T13:09:27.215Z</time></trkpt><trkpt lat="43.2937007" lon="12.7502197"><ele>433.0</ele><time>2026-04-04T13:09:28.214Z</time></trkpt><trkpt lat="43.2935591" lon="12.7502645"><ele>431.0</ele><time>2026-04-04T13:09:29.214Z</time></trkpt><trkpt lat="43.2934222" lon="12.7503085"><ele>431.0</ele><time>2026-04-04T13:09:30.214Z</time></trkpt><trkpt lat="43.2932929" lon="12.7503491"><ele>431.0</ele><time>2026-04-04T13:09:31.215Z</time></trkpt><trkpt lat="43.2931587" lon="12.7503843"><ele>431.0</ele><time>2026-04-04T13:09:32.214Z</time></trkpt><trkpt lat="43.2930258" lon="12.7504172"><ele>431.0</ele><time>2026-04-04T13:09:33.215Z</time></trkpt><trkpt lat="43.2928909" lon="12.7504251"><ele>430.5</ele><time>2026-04-04T13:09:34.215Z</time></trkpt><trkpt lat="43.2927592" lon="12.7504147"><ele>430.0</ele><time>2026-04-04T13:09:35.214Z</time></trkpt><trkpt lat="43.2926261" lon="12.7503764"><ele>429.5</ele><time>2026-04-04T13:09:36.215Z</time></trkpt><trkpt lat="43.2924913" lon="12.7503256"><ele>429.0</ele><time>2026-04-04T13:09:37.212Z</time></trkpt><trkpt lat="43.2923619" lon="12.7502681"><ele>428.5</ele><time>2026-04-04T13:09:38.214Z</time></trkpt><trkpt lat="43.2922394" lon="12.7502156"><ele>428.0</ele><time>2026-04-04T13:09:39.215Z</time></trkpt><trkpt lat="43.2921207" lon="12.7501671"><ele>427.5</ele><time>2026-04-04T13:09:40.214Z</time></trkpt><trkpt lat="43.2920048" lon="12.7501233"><ele>427.0</ele><time>2026-04-04T13:09:41.214Z</time></trkpt><trkpt lat="43.291886" lon="12.7500819"><ele>426.20000000000005</ele><time>2026-04-04T13:09:42.213Z</time></trkpt><trkpt lat="43.2917679" lon="12.7500404"><ele>425.40000000000003</ele><time>2026-04-04T13:09:43.214Z</time></trkpt><trkpt lat="43.29166" lon="12.7500156"><ele>424.6</ele><time>2026-04-04T13:09:44.212Z</time></trkpt><trkpt lat="43.2915552" lon="12.7499949"><ele>423.79999999999995</ele><time>2026-04-04T13:09:45.214Z</time></trkpt><trkpt lat="43.2914473" lon="12.7499784"><ele>423.0</ele><time>2026-04-04T13:09:46.215Z</time></trkpt><trkpt lat="43.2913381" lon="12.7499633"><ele>423.0</ele><time>2026-04-04T13:09:47.214Z</time></trkpt><trkpt lat="43.2912186" lon="12.7499359"><ele>423.0</ele><time>2026-04-04T13:09:48.215Z</time></trkpt><trkpt lat="43.291103" lon="12.7498977"><ele>423.0</ele><time>2026-04-04T13:09:49.214Z</time></trkpt><trkpt lat="43.2909808" lon="12.7498673"><ele>423.0</ele><time>2026-04-04T13:09:50.215Z</time></trkpt><trkpt lat="43.2908509" lon="12.7498343"><ele>423.0</ele><time>2026-04-04T13:09:51.212Z</time></trkpt><trkpt lat="43.2907305" lon="12.7498032"><ele>423.0</ele><time>2026-04-04T13:09:52.214Z</time></trkpt><trkpt lat="43.2906081" lon="12.7497562"><ele>423.0</ele><time>2026-04-04T13:09:53.215Z</time></trkpt><trkpt lat="43.2904801" lon="12.7497061"><ele>423.0</ele><time>2026-04-04T13:09:54.214Z</time></trkpt><trkpt lat="43.2903516" lon="12.7496495"><ele>422.75</ele><time>2026-04-04T13:09:55.214Z</time></trkpt><trkpt lat="43.2902222" lon="12.7495874"><ele>422.5</ele><time>2026-04-04T13:09:56.215Z</time></trkpt><trkpt lat="43.2900902" lon="12.7495296"><ele>422.25</ele><time>2026-04-04T13:09:57.214Z</time></trkpt><trkpt lat="43.2899621" lon="12.7494587"><ele>422.0</ele><time>2026-04-04T13:09:58.214Z</time></trkpt><trkpt lat="43.2898237" lon="12.7493925"><ele>421.25</ele><time>2026-04-04T13:09:59.214Z</time></trkpt><trkpt lat="43.2896951" lon="12.7493266"><ele>420.5</ele><time>2026-04-04T13:10:00.214Z</time></trkpt><trkpt lat="43.289553" lon="12.7492658"><ele>419.75</ele><time>2026-04-04T13:10:01.213Z</time></trkpt><trkpt lat="43.2894059" lon="12.7492025"><ele>419.0</ele><time>2026-04-04T13:10:02.215Z</time></trkpt><trkpt lat="43.2892577" lon="12.749144"><ele>419.0</ele><time>2026-04-04T13:10:03.214Z</time></trkpt><trkpt lat="43.2891124" lon="12.7490976"><ele>419.0</ele><time>2026-04-04T13:10:04.215Z</time></trkpt><trkpt lat="43.2889685" lon="12.7490692"><ele>419.0</ele><time>2026-04-04T13:10:05.215Z</time></trkpt><trkpt lat="43.2888152" lon="12.7490538"><ele>419.0</ele><time>2026-04-04T13:10:06.214Z</time></trkpt><trkpt lat="43.2886549" lon="12.7490591"><ele>418.0</ele><time>2026-04-04T13:10:07.213Z</time></trkpt><trkpt lat="43.288487" lon="12.7490779"><ele>417.0</ele><time>2026-04-04T13:10:08.214Z</time></trkpt><trkpt lat="43.2883213" lon="12.7491041"><ele>416.0</ele><time>2026-04-04T13:10:09.213Z</time></trkpt><trkpt lat="43.2881547" lon="12.7491352"><ele>415.3333333333333</ele><time>2026-04-04T13:10:10.214Z</time></trkpt><trkpt lat="43.2879799" lon="12.7491738"><ele>414.66666666666663</ele><time>2026-04-04T13:10:11.215Z</time></trkpt><trkpt lat="43.287807" lon="12.7492147"><ele>414.0</ele><time>2026-04-04T13:10:12.214Z</time></trkpt><trkpt lat="43.2876293" lon="12.7492541"><ele>414.0</ele><time>2026-04-04T13:10:13.214Z</time></trkpt><trkpt lat="43.2874481" lon="12.7492915"><ele>414.0</ele><time>2026-04-04T13:10:14.215Z</time></trkpt><trkpt lat="43.2872639" lon="12.7493347"><ele>414.0</ele><time>2026-04-04T13:10:15.215Z</time></trkpt><trkpt lat="43.2870805" lon="12.7493875"><ele>414.66666666666663</ele><time>2026-04-04T13:10:16.214Z</time></trkpt><trkpt lat="43.286892" lon="12.7494325"><ele>415.3333333333333</ele><time>2026-04-04T13:10:17.214Z</time></trkpt><trkpt lat="43.2866984" lon="12.7494859"><ele>416.0</ele><time>2026-04-04T13:10:18.214Z</time></trkpt><trkpt lat="43.2865132" lon="12.7495388"><ele>416.66666666666663</ele><time>2026-04-04T13:10:19.214Z</time></trkpt><trkpt lat="43.2863384" lon="12.7495976"><ele>417.33333333333337</ele><time>2026-04-04T13:10:20.214Z</time></trkpt><trkpt lat="43.2861613" lon="12.7496695"><ele>418.0</ele><time>2026-04-04T13:10:21.215Z</time></trkpt><trkpt lat="43.2859867" lon="12.7497734"><ele>418.0</ele><time>2026-04-04T13:10:22.214Z</time></trkpt><trkpt lat="43.2858119" lon="12.749892"><ele>418.0</ele><time>2026-04-04T13:10:23.215Z</time></trkpt><trkpt lat="43.2856406" lon="12.7500207"><ele>418.0</ele><time>2026-04-04T13:10:24.215Z</time></trkpt><trkpt lat="43.2854703" lon="12.7501471"><ele>418.6666666666667</ele><time>2026-04-04T13:10:25.214Z</time></trkpt><trkpt lat="43.2852967" lon="12.7502655"><ele>419.33333333333337</ele><time>2026-04-04T13:10:26.213Z</time></trkpt><trkpt lat="43.2851286" lon="12.7503891"><ele>420.0</ele><time>2026-04-04T13:10:27.214Z</time></trkpt><trkpt lat="43.2849599" lon="12.7505129"><ele>420.0</ele><time>2026-04-04T13:10:28.214Z</time></trkpt><trkpt lat="43.2847878" lon="12.7506267"><ele>420.0</ele><time>2026-04-04T13:10:29.214Z</time></trkpt><trkpt lat="43.2846135" lon="12.7507611"><ele>420.0</ele><time>2026-04-04T13:10:30.214Z</time></trkpt><trkpt lat="43.2844504" lon="12.7508972"><ele>421.33333333333337</ele><time>2026-04-04T13:10:31.214Z</time></trkpt><trkpt lat="43.2842955" lon="12.7510576"><ele>422.6666666666667</ele><time>2026-04-04T13:10:32.215Z</time></trkpt><trkpt lat="43.284141" lon="12.7512303"><ele>424.0</ele><time>2026-04-04T13:10:33.214Z</time></trkpt><trkpt lat="43.2839925" lon="12.7514056"><ele>424.33333333333337</ele><time>2026-04-04T13:10:34.215Z</time></trkpt><trkpt lat="43.2838448" lon="12.7515813"><ele>424.66666666666663</ele><time>2026-04-04T13:10:35.214Z</time></trkpt><trkpt lat="43.2837104" lon="12.751774"><ele>425.0</ele><time>2026-04-04T13:10:36.214Z</time></trkpt><trkpt lat="43.283583" lon="12.7519775"><ele>425.0</ele><time>2026-04-04T13:10:37.214Z</time></trkpt><trkpt lat="43.2834743" lon="12.752192"><ele>425.0</ele><time>2026-04-04T13:10:38.213Z</time></trkpt><trkpt lat="43.2833708" lon="12.752428"><ele>425.0</ele><time>2026-04-04T13:10:39.214Z</time></trkpt><trkpt lat="43.2832731" lon="12.7526684"><ele>425.3333333333333</ele><time>2026-04-04T13:10:40.215Z</time></trkpt><trkpt lat="43.2831627" lon="12.7528937"><ele>425.66666666666663</ele><time>2026-04-04T13:10:41.214Z</time></trkpt><trkpt lat="43.2830452" lon="12.7531083"><ele>426.0</ele><time>2026-04-04T13:10:42.214Z</time></trkpt><trkpt lat="43.2829262" lon="12.7533117"><ele>426.0</ele><time>2026-04-04T13:10:43.214Z</time></trkpt><trkpt lat="43.2827888" lon="12.7534955"><ele>426.0</ele><time>2026-04-04T13:10:44.214Z</time></trkpt><trkpt lat="43.2826544" lon="12.7536734"><ele>426.0</ele><time>2026-04-04T13:10:45.212Z</time></trkpt><trkpt lat="43.2825155" lon="12.7538495"><ele>425.33333333333337</ele><time>2026-04-04T13:10:46.214Z</time></trkpt><trkpt lat="43.2823755" lon="12.7540123"><ele>424.6666666666667</ele><time>2026-04-04T13:10:47.215Z</time></trkpt><trkpt lat="43.28222" lon="12.7541677"><ele>424.0</ele><time>2026-04-04T13:10:48.214Z</time></trkpt><trkpt lat="43.2820656" lon="12.7543103"><ele>426.33333333333337</ele><time>2026-04-04T13:10:49.214Z</time></trkpt><trkpt lat="43.2819029" lon="12.7544453"><ele>428.66666666666663</ele><time>2026-04-04T13:10:50.214Z</time></trkpt><trkpt lat="43.281737" lon="12.7545655"><ele>431.0</ele><time>2026-04-04T13:10:51.213Z</time></trkpt><trkpt lat="43.2815663" lon="12.7546537"><ele>430.66666666666663</ele><time>2026-04-04T13:10:52.214Z</time></trkpt><trkpt lat="43.2813938" lon="12.7547061"><ele>430.33333333333337</ele><time>2026-04-04T13:10:53.214Z</time></trkpt><trkpt lat="43.2812049" lon="12.7547223"><ele>430.0</ele><time>2026-04-04T13:10:54.214Z</time></trkpt><trkpt lat="43.2810126" lon="12.7547201"><ele>430.0</ele><time>2026-04-04T13:10:55.214Z</time></trkpt><trkpt lat="43.2808178" lon="12.7547054"><ele>430.0</ele><time>2026-04-04T13:10:56.214Z</time></trkpt><trkpt lat="43.2806313" lon="12.7546952"><ele>430.0</ele><time>2026-04-04T13:10:57.214Z</time></trkpt><trkpt lat="43.2804503" lon="12.7546817"><ele>428.0</ele><time>2026-04-04T13:10:58.214Z</time></trkpt><trkpt lat="43.2802751" lon="12.7546744"><ele>426.0</ele><time>2026-04-04T13:10:59.214Z</time></trkpt><trkpt lat="43.2801028" lon="12.7546707"><ele>424.0</ele><time>2026-04-04T13:11:00.213Z</time></trkpt><trkpt lat="43.2799407" lon="12.7546704"><ele>424.0</ele><time>2026-04-04T13:11:01.214Z</time></trkpt><trkpt lat="43.2797799" lon="12.7546838"><ele>424.0</ele><time>2026-04-04T13:11:02.214Z</time></trkpt><trkpt lat="43.2796196" lon="12.7547192"><ele>424.0</ele><time>2026-04-04T13:11:03.214Z</time></trkpt><trkpt lat="43.2794623" lon="12.754779"><ele>423.33333333333337</ele><time>2026-04-04T13:11:04.215Z</time></trkpt><trkpt lat="43.2793069" lon="12.7548633"><ele>422.66666666666663</ele><time>2026-04-04T13:11:05.214Z</time></trkpt><trkpt lat="43.2791567" lon="12.7549607"><ele>422.0</ele><time>2026-04-04T13:11:06.214Z</time></trkpt><trkpt lat="43.2790052" lon="12.7550538"><ele>421.0</ele><time>2026-04-04T13:11:07.214Z</time></trkpt><trkpt lat="43.2788545" lon="12.7551513"><ele>420.0</ele><time>2026-04-04T13:11:08.215Z</time></trkpt><trkpt lat="43.2787014" lon="12.7552413"><ele>419.0</ele><time>2026-04-04T13:11:09.215Z</time></trkpt><trkpt lat="43.2785444" lon="12.7553347"><ele>420.3333333333333</ele><time>2026-04-04T13:11:10.215Z</time></trkpt><trkpt lat="43.2783891" lon="12.7554324"><ele>421.66666666666663</ele><time>2026-04-04T13:11:11.214Z</time></trkpt><trkpt lat="43.2782274" lon="12.7555251"><ele>423.0</ele><time>2026-04-04T13:11:12.213Z</time></trkpt><trkpt lat="43.2780552" lon="12.7556142"><ele>423.0</ele><time>2026-04-04T13:11:13.214Z</time></trkpt><trkpt lat="43.2778784" lon="12.7556788"><ele>423.0</ele><time>2026-04-04T13:11:14.214Z</time></trkpt><trkpt lat="43.2777022" lon="12.7557248"><ele>423.0</ele><time>2026-04-04T13:11:15.214Z</time></trkpt><trkpt lat="43.2775146" lon="12.7557556"><ele>423.0</ele><time>2026-04-04T13:11:16.214Z</time></trkpt><trkpt lat="43.2773276" lon="12.7557864"><ele>423.0</ele><time>2026-04-04T13:11:17.215Z</time></trkpt><trkpt lat="43.2771425" lon="12.7558105"><ele>423.0</ele><time>2026-04-04T13:11:18.214Z</time></trkpt><trkpt lat="43.2769569" lon="12.7558397"><ele>421.66666666666663</ele><time>2026-04-04T13:11:19.214Z</time></trkpt><trkpt lat="43.276775" lon="12.7558758"><ele>420.3333333333333</ele><time>2026-04-04T13:11:20.215Z</time></trkpt><trkpt lat="43.2766007" lon="12.7559139"><ele>419.0</ele><time>2026-04-04T13:11:21.214Z</time></trkpt><trkpt lat="43.2764275" lon="12.7559575"><ele>419.0</ele><time>2026-04-04T13:11:22.215Z</time></trkpt><trkpt lat="43.2762554" lon="12.7560004"><ele>419.0</ele><time>2026-04-04T13:11:23.214Z</time></trkpt><trkpt lat="43.2760858" lon="12.7560522"><ele>419.0</ele><time>2026-04-04T13:11:24.214Z</time></trkpt><trkpt lat="43.2759127" lon="12.7560873"><ele>419.3333333333333</ele><time>2026-04-04T13:11:25.214Z</time></trkpt><trkpt lat="43.2757491" lon="12.7561174"><ele>419.66666666666663</ele><time>2026-04-04T13:11:26.214Z</time></trkpt><trkpt lat="43.2755765" lon="12.7561385"><ele>420.0</ele><time>2026-04-04T13:11:27.215Z</time></trkpt><trkpt lat="43.2754022" lon="12.7561602"><ele>420.0</ele><time>2026-04-04T13:11:28.215Z</time></trkpt><trkpt lat="43.2752353" lon="12.7561866"><ele>420.0</ele><time>2026-04-04T13:11:29.214Z</time></trkpt><trkpt lat="43.2750742" lon="12.7562221"><ele>420.0</ele><time>2026-04-04T13:11:30.214Z</time></trkpt><trkpt lat="43.2749151" lon="12.7562833"><ele>419.0</ele><time>2026-04-04T13:11:31.214Z</time></trkpt><trkpt lat="43.2747676" lon="12.756375"><ele>418.0</ele><time>2026-04-04T13:11:32.214Z</time></trkpt><trkpt lat="43.2746397" lon="12.7565301"><ele>417.0</ele><time>2026-04-04T13:11:33.215Z</time></trkpt><trkpt lat="43.2745006" lon="12.7566847"><ele>417.0</ele><time>2026-04-04T13:11:34.214Z</time></trkpt><trkpt lat="43.2743736" lon="12.7568369"><ele>417.0</ele><time>2026-04-04T13:11:35.214Z</time></trkpt><trkpt lat="43.2742485" lon="12.7570063"><ele>417.0</ele><time>2026-04-04T13:11:36.214Z</time></trkpt><trkpt lat="43.2741223" lon="12.7571714"><ele>417.66666666666663</ele><time>2026-04-04T13:11:37.214Z</time></trkpt><trkpt lat="43.2739904" lon="12.7573473"><ele>418.3333333333333</ele><time>2026-04-04T13:11:38.214Z</time></trkpt><trkpt lat="43.2738648" lon="12.7575316"><ele>419.0</ele><time>2026-04-04T13:11:39.214Z</time></trkpt><trkpt lat="43.273733" lon="12.7577101"><ele>421.66666666666663</ele><time>2026-04-04T13:11:40.215Z</time></trkpt><trkpt lat="43.2736045" lon="12.7578746"><ele>424.33333333333337</ele><time>2026-04-04T13:11:41.214Z</time></trkpt><trkpt lat="43.2734762" lon="12.7580403"><ele>427.0</ele><time>2026-04-04T13:11:42.214Z</time></trkpt><trkpt lat="43.2733469" lon="12.7582112"><ele>427.0</ele><time>2026-04-04T13:11:43.213Z</time></trkpt><trkpt lat="43.2732223" lon="12.7583796"><ele>427.0</ele><time>2026-04-04T13:11:44.215Z</time></trkpt><trkpt lat="43.2730955" lon="12.7585464"><ele>427.0</ele><time>2026-04-04T13:11:45.215Z</time></trkpt><trkpt lat="43.2729702" lon="12.7587131"><ele>429.0</ele><time>2026-04-04T13:11:46.214Z</time></trkpt><trkpt lat="43.2728467" lon="12.7588777"><ele>431.0</ele><time>2026-04-04T13:11:47.214Z</time></trkpt><trkpt lat="43.272731" lon="12.7590231"><ele>433.0</ele><time>2026-04-04T13:11:48.214Z</time></trkpt><trkpt lat="43.2726044" lon="12.7591812"><ele>433.0</ele><time>2026-04-04T13:11:49.214Z</time></trkpt><trkpt lat="43.2724839" lon="12.7593476"><ele>433.0</ele><time>2026-04-04T13:11:50.214Z</time></trkpt><trkpt lat="43.2723595" lon="12.7594987"><ele>433.0</ele><time>2026-04-04T13:11:51.215Z</time></trkpt><trkpt lat="43.2722322" lon="12.7596533"><ele>433.33333333333337</ele><time>2026-04-04T13:11:52.215Z</time></trkpt><trkpt lat="43.272098" lon="12.7598195"><ele>433.66666666666663</ele><time>2026-04-04T13:11:53.214Z</time></trkpt><trkpt lat="43.2719578" lon="12.7599561"><ele>434.0</ele><time>2026-04-04T13:11:54.215Z</time></trkpt><trkpt lat="43.2717996" lon="12.760074"><ele>434.0</ele><time>2026-04-04T13:11:55.215Z</time></trkpt><trkpt lat="43.2716296" lon="12.7601732"><ele>434.0</ele><time>2026-04-04T13:11:56.213Z</time></trkpt><trkpt lat="43.2714345" lon="12.7602328"><ele>434.0</ele><time>2026-04-04T13:11:57.214Z</time></trkpt><trkpt lat="43.2712415" lon="12.7602821"><ele>437.66666666666663</ele><time>2026-04-04T13:11:58.214Z</time></trkpt><trkpt lat="43.2710456" lon="12.7603138"><ele>441.33333333333337</ele><time>2026-04-04T13:11:59.215Z</time></trkpt><trkpt lat="43.2708499" lon="12.7603396"><ele>445.0</ele><time>2026-04-04T13:12:00.214Z</time></trkpt><trkpt lat="43.2706641" lon="12.760368"><ele>444.6666666666667</ele><time>2026-04-04T13:12:01.215Z</time></trkpt><trkpt lat="43.270481" lon="12.7604011"><ele>444.33333333333337</ele><time>2026-04-04T13:12:02.215Z</time></trkpt><trkpt lat="43.2703016" lon="12.7604487"><ele>444.0</ele><time>2026-04-04T13:12:03.214Z</time></trkpt><trkpt lat="43.2701318" lon="12.7605096"><ele>444.0</ele><time>2026-04-04T13:12:04.215Z</time></trkpt><trkpt lat="43.269967" lon="12.7606077"><ele>444.0</ele><time>2026-04-04T13:12:05.214Z</time></trkpt><trkpt lat="43.2698065" lon="12.760717"><ele>444.0</ele><time>2026-04-04T13:12:06.214Z</time></trkpt><trkpt lat="43.2696507" lon="12.7608483"><ele>443.66666666666663</ele><time>2026-04-04T13:12:07.215Z</time></trkpt><trkpt lat="43.2695018" lon="12.7610036"><ele>443.3333333333333</ele><time>2026-04-04T13:12:08.215Z</time></trkpt><trkpt lat="43.2693571" lon="12.7611804"><ele>443.0</ele><time>2026-04-04T13:12:09.214Z</time></trkpt><trkpt lat="43.2692211" lon="12.7613707"><ele>443.0</ele><time>2026-04-04T13:12:10.214Z</time></trkpt><trkpt lat="43.269089" lon="12.7615633"><ele>443.0</ele><time>2026-04-04T13:12:11.214Z</time></trkpt><trkpt lat="43.2689521" lon="12.7617504"><ele>443.0</ele><time>2026-04-04T13:12:12.214Z</time></trkpt><trkpt lat="43.268814" lon="12.7619269"><ele>443.3333333333333</ele><time>2026-04-04T13:12:13.214Z</time></trkpt><trkpt lat="43.2686603" lon="12.7620861"><ele>443.66666666666663</ele><time>2026-04-04T13:12:14.214Z</time></trkpt><trkpt lat="43.2685057" lon="12.7622284"><ele>444.0</ele><time>2026-04-04T13:12:15.214Z</time></trkpt><trkpt lat="43.2683455" lon="12.7623475"><ele>444.0</ele><time>2026-04-04T13:12:16.214Z</time></trkpt><trkpt lat="43.2681792" lon="12.7624499"><ele>444.0</ele><time>2026-04-04T13:12:17.213Z</time></trkpt><trkpt lat="43.2679984" lon="12.7625297"><ele>444.0</ele><time>2026-04-04T13:12:18.215Z</time></trkpt><trkpt lat="43.2678191" lon="12.7625943"><ele>446.0</ele><time>2026-04-04T13:12:19.214Z</time></trkpt><trkpt lat="43.2676381" lon="12.7626428"><ele>448.0</ele><time>2026-04-04T13:12:20.214Z</time></trkpt><trkpt lat="43.2674656" lon="12.7626938"><ele>450.0</ele><time>2026-04-04T13:12:21.214Z</time></trkpt><trkpt lat="43.2672968" lon="12.7627364"><ele>448.33333333333337</ele><time>2026-04-04T13:12:22.214Z</time></trkpt><trkpt lat="43.2671352" lon="12.7627675"><ele>446.6666666666667</ele><time>2026-04-04T13:12:23.215Z</time></trkpt><trkpt lat="43.2669768" lon="12.7627993"><ele>445.0</ele><time>2026-04-04T13:12:24.214Z</time></trkpt><trkpt lat="43.26682" lon="12.7628206"><ele>445.0</ele><time>2026-04-04T13:12:25.215Z</time></trkpt><trkpt lat="43.2666745" lon="12.7628465"><ele>445.0</ele><time>2026-04-04T13:12:26.214Z</time></trkpt><trkpt lat="43.2665412" lon="12.7628631"><ele>445.0</ele><time>2026-04-04T13:12:27.214Z</time></trkpt><trkpt lat="43.2664149" lon="12.7628495"><ele>445.0</ele><time>2026-04-04T13:12:28.214Z</time></trkpt><trkpt lat="43.2663012" lon="12.7628122"><ele>444.5</ele><time>2026-04-04T13:12:29.215Z</time></trkpt><trkpt lat="43.2661924" lon="12.7627756"><ele>444.0</ele><time>2026-04-04T13:12:30.215Z</time></trkpt><trkpt lat="43.266082" lon="12.7627999"><ele>443.5</ele><time>2026-04-04T13:12:31.212Z</time></trkpt><trkpt lat="43.2659766" lon="12.7628562"><ele>443.0</ele><time>2026-04-04T13:12:32.214Z</time></trkpt><trkpt lat="43.265867" lon="12.7629168"><ele>443.0</ele><time>2026-04-04T13:12:33.214Z</time></trkpt><trkpt lat="43.2657406" lon="12.7629473"><ele>443.0</ele><time>2026-04-04T13:12:34.214Z</time></trkpt><trkpt lat="43.2656183" lon="12.7629783"><ele>443.0</ele><time>2026-04-04T13:12:35.214Z</time></trkpt><trkpt lat="43.2654876" lon="12.7629952"><ele>443.0</ele><time>2026-04-04T13:12:36.213Z</time></trkpt><trkpt lat="43.2653479" lon="12.7629978"><ele>443.0</ele><time>2026-04-04T13:12:37.214Z</time></trkpt><trkpt lat="43.2652085" lon="12.763002"><ele>443.0</ele><time>2026-04-04T13:12:38.214Z</time></trkpt><trkpt lat="43.2650716" lon="12.763001"><ele>443.0</ele><time>2026-04-04T13:12:39.214Z</time></trkpt><trkpt lat="43.2649333" lon="12.7629853"><ele>443.0</ele><time>2026-04-04T13:12:40.215Z</time></trkpt><trkpt lat="43.2647865" lon="12.7629774"><ele>442.0</ele><time>2026-04-04T13:12:41.214Z</time></trkpt><trkpt lat="43.2646308" lon="12.7629686"><ele>441.0</ele><time>2026-04-04T13:12:42.214Z</time></trkpt><trkpt lat="43.2644752" lon="12.7629544"><ele>440.0</ele><time>2026-04-04T13:12:43.212Z</time></trkpt><trkpt lat="43.2643066" lon="12.7629389"><ele>440.0</ele><time>2026-04-04T13:12:44.215Z</time></trkpt><trkpt lat="43.2641364" lon="12.7629198"><ele>440.0</ele><time>2026-04-04T13:12:45.214Z</time></trkpt><trkpt lat="43.2639521" lon="12.7629004"><ele>440.0</ele><time>2026-04-04T13:12:46.214Z</time></trkpt><trkpt lat="43.2637846" lon="12.7628768"><ele>440.66666666666663</ele><time>2026-04-04T13:12:47.214Z</time></trkpt><trkpt lat="43.2636123" lon="12.7628558"><ele>441.33333333333337</ele><time>2026-04-04T13:12:48.214Z</time></trkpt><trkpt lat="43.2634398" lon="12.7628332"><ele>442.0</ele><time>2026-04-04T13:12:49.213Z</time></trkpt><trkpt lat="43.2632649" lon="12.7628063"><ele>443.0</ele><time>2026-04-04T13:12:50.214Z</time></trkpt><trkpt lat="43.2630897" lon="12.7627842"><ele>444.0</ele><time>2026-04-04T13:12:51.214Z</time></trkpt><trkpt lat="43.2629128" lon="12.7627567"><ele>445.0</ele><time>2026-04-04T13:12:52.214Z</time></trkpt><trkpt lat="43.2627427" lon="12.7627305"><ele>445.0</ele><time>2026-04-04T13:12:53.213Z</time></trkpt><trkpt lat="43.2625692" lon="12.7627103"><ele>445.0</ele><time>2026-04-04T13:12:54.215Z</time></trkpt><trkpt lat="43.2623983" lon="12.7626941"><ele>445.0</ele><time>2026-04-04T13:12:55.214Z</time></trkpt><trkpt lat="43.2622193" lon="12.7626784"><ele>444.33333333333337</ele><time>2026-04-04T13:12:56.214Z</time></trkpt><trkpt lat="43.2620373" lon="12.7626711"><ele>443.66666666666663</ele><time>2026-04-04T13:12:57.214Z</time></trkpt><trkpt lat="43.2618624" lon="12.7626824"><ele>443.0</ele><time>2026-04-04T13:12:58.214Z</time></trkpt><trkpt lat="43.2616844" lon="12.7626984"><ele>443.0</ele><time>2026-04-04T13:12:59.212Z</time></trkpt><trkpt lat="43.2615047" lon="12.7627229"><ele>443.0</ele><time>2026-04-04T13:13:00.213Z</time></trkpt><trkpt lat="43.2613334" lon="12.7627539"><ele>443.0</ele><time>2026-04-04T13:13:01.212Z</time></trkpt><trkpt lat="43.2611624" lon="12.7627928"><ele>443.0</ele><time>2026-04-04T13:13:02.214Z</time></trkpt><trkpt lat="43.2609914" lon="12.7628342"><ele>443.0</ele><time>2026-04-04T13:13:03.214Z</time></trkpt><trkpt lat="43.2608158" lon="12.7628742"><ele>443.0</ele><time>2026-04-04T13:13:04.214Z</time></trkpt><trkpt lat="43.2606439" lon="12.7629197"><ele>443.0</ele><time>2026-04-04T13:13:05.212Z</time></trkpt><trkpt lat="43.2604674" lon="12.7629635"><ele>443.0</ele><time>2026-04-04T13:13:06.215Z</time></trkpt><trkpt lat="43.2603002" lon="12.7630064"><ele>443.0</ele><time>2026-04-04T13:13:07.215Z</time></trkpt><trkpt lat="43.260136" lon="12.7630457"><ele>443.0</ele><time>2026-04-04T13:13:08.215Z</time></trkpt><trkpt lat="43.2599659" lon="12.7630821"><ele>443.0</ele><time>2026-04-04T13:13:09.212Z</time></trkpt><trkpt lat="43.2597965" lon="12.7631183"><ele>443.0</ele><time>2026-04-04T13:13:10.214Z</time></trkpt><trkpt lat="43.2596243" lon="12.7631533"><ele>442.66666666666663</ele><time>2026-04-04T13:13:11.212Z</time></trkpt><trkpt lat="43.2594505" lon="12.7631936"><ele>442.33333333333337</ele><time>2026-04-04T13:13:12.214Z</time></trkpt><trkpt lat="43.2592751" lon="12.7632367"><ele>442.0</ele><time>2026-04-04T13:13:13.214Z</time></trkpt><trkpt lat="43.2591007" lon="12.763285"><ele>441.0</ele><time>2026-04-04T13:13:14.214Z</time></trkpt><trkpt lat="43.2589245" lon="12.7633434"><ele>440.0</ele><time>2026-04-04T13:13:15.215Z</time></trkpt><trkpt lat="43.2587503" lon="12.7634122"><ele>439.0</ele><time>2026-04-04T13:13:16.213Z</time></trkpt><trkpt lat="43.2585776" lon="12.7634941"><ele>439.0</ele><time>2026-04-04T13:13:17.212Z</time></trkpt><trkpt lat="43.2584107" lon="12.7635791"><ele>439.0</ele><time>2026-04-04T13:13:18.214Z</time></trkpt><trkpt lat="43.2582365" lon="12.7636546"><ele>439.0</ele><time>2026-04-04T13:13:19.213Z</time></trkpt><trkpt lat="43.2580646" lon="12.7637226"><ele>439.0</ele><time>2026-04-04T13:13:20.215Z</time></trkpt><trkpt lat="43.2579044" lon="12.7637831"><ele>439.0</ele><time>2026-04-04T13:13:21.213Z</time></trkpt><trkpt lat="43.2577542" lon="12.7638439"><ele>439.0</ele><time>2026-04-04T13:13:22.212Z</time></trkpt><trkpt lat="43.2576206" lon="12.763897"><ele>439.0</ele><time>2026-04-04T13:13:23.212Z</time></trkpt><trkpt lat="43.2575072" lon="12.7639327"><ele>439.0</ele><time>2026-04-04T13:13:24.215Z</time></trkpt><trkpt lat="43.2574148" lon="12.7639685"><ele>439.0</ele><time>2026-04-04T13:13:25.213Z</time></trkpt><trkpt lat="43.2573457" lon="12.7639809"><ele>439.0</ele><time>2026-04-04T13:13:26.213Z</time></trkpt><trkpt lat="43.2572387" lon="12.7640181"><ele>439.0</ele><time>2026-04-04T13:13:28.214Z</time></trkpt><trkpt lat="43.2571615" lon="12.7640387"><ele>439.00000000000006</ele><time>2026-04-04T13:13:30.215Z</time></trkpt><trkpt lat="43.2570978" lon="12.7640618"><ele>439.0</ele><time>2026-04-04T13:17:12.2Z</time></trkpt><trkpt lat="43.257136" lon="12.7641613"><ele>439.0</ele><time>2026-04-04T13:21:38.2Z</time></trkpt><trkpt lat="43.2572276" lon="12.7641219"><ele>439.0</ele><time>2026-04-04T13:21:40.2Z</time></trkpt><trkpt lat="43.2572959" lon="12.7640932"><ele>439.00000000000006</ele><time>2026-04-04T13:21:41.2Z</time></trkpt><trkpt lat="43.2573632" lon="12.7640608"><ele>439.0</ele><time>2026-04-04T13:21:42.2Z</time></trkpt><trkpt lat="43.2574428" lon="12.7640297"><ele>439.0</ele><time>2026-04-04T13:21:43.2Z</time></trkpt><trkpt lat="43.2575281" lon="12.7639944"><ele>439.0</ele><time>2026-04-04T13:21:44.2Z</time></trkpt><trkpt lat="43.2576164" lon="12.763954"><ele>439.0</ele><time>2026-04-04T13:21:45.2Z</time></trkpt><trkpt lat="43.2577081" lon="12.7639145"><ele>439.0</ele><time>2026-04-04T13:21:46.2Z</time></trkpt><trkpt lat="43.2578086" lon="12.7638732"><ele>439.0</ele><time>2026-04-04T13:21:47.201Z</time></trkpt><trkpt lat="43.2579379" lon="12.7638671"><ele>439.0</ele><time>2026-04-04T13:21:48.2Z</time></trkpt><trkpt lat="43.258041" lon="12.7638179"><ele>439.0</ele><time>2026-04-04T13:21:49.2Z</time></trkpt><trkpt lat="43.2581487" lon="12.763766"><ele>439.0</ele><time>2026-04-04T13:21:50.2Z</time></trkpt><trkpt lat="43.2582572" lon="12.7637127"><ele>439.0</ele><time>2026-04-04T13:21:51.201Z</time></trkpt><trkpt lat="43.2583678" lon="12.763662"><ele>439.0</ele><time>2026-04-04T13:21:52.199Z</time></trkpt><trkpt lat="43.2584869" lon="12.7636096"><ele>439.0</ele><time>2026-04-04T13:21:53.201Z</time></trkpt><trkpt lat="43.2586023" lon="12.7635589"><ele>439.0</ele><time>2026-04-04T13:21:54.2Z</time></trkpt><trkpt lat="43.2587125" lon="12.7635041"><ele>439.0</ele><time>2026-04-04T13:21:55.2Z</time></trkpt><trkpt lat="43.2588135" lon="12.7634684"><ele>439.00000000000006</ele><time>2026-04-04T13:21:56.2Z</time></trkpt><trkpt lat="43.2589057" lon="12.7634265"><ele>439.0</ele><time>2026-04-04T13:21:57.2Z</time></trkpt><trkpt lat="43.2589825" lon="12.763383"><ele>439.0</ele><time>2026-04-04T13:21:58.2Z</time></trkpt><trkpt lat="43.2590445" lon="12.7633159"><ele>439.0</ele><time>2026-04-04T13:21:59.2Z</time></trkpt><trkpt lat="43.2590823" lon="12.7632311"><ele>439.00000000000006</ele><time>2026-04-04T13:22:00.2Z</time></trkpt><trkpt lat="43.2590917" lon="12.7631205"><ele>439.0</ele><time>2026-04-04T13:22:01.2Z</time></trkpt><trkpt lat="43.2590765" lon="12.7629896"><ele>438.75</ele><time>2026-04-04T13:22:02.2Z</time></trkpt><trkpt lat="43.2590571" lon="12.7628449"><ele>438.5</ele><time>2026-04-04T13:22:03.2Z</time></trkpt><trkpt lat="43.2590387" lon="12.7626701"><ele>438.25</ele><time>2026-04-04T13:22:04.2Z</time></trkpt><trkpt lat="43.2590245" lon="12.7624887"><ele>438.0</ele><time>2026-04-04T13:22:05.2Z</time></trkpt><trkpt lat="43.2590061" lon="12.7623044"><ele>438.0</ele><time>2026-04-04T13:22:06.2Z</time></trkpt><trkpt lat="43.258985" lon="12.762102"><ele>438.0</ele><time>2026-04-04T13:22:07.201Z</time></trkpt><trkpt lat="43.2589706" lon="12.7619058"><ele>438.0</ele><time>2026-04-04T13:22:08.2Z</time></trkpt><trkpt lat="43.2589602" lon="12.7617001"><ele>438.0</ele><time>2026-04-04T13:22:09.2Z</time></trkpt><trkpt lat="43.258947" lon="12.7614971"><ele>437.0</ele><time>2026-04-04T13:22:10.201Z</time></trkpt><trkpt lat="43.2589453" lon="12.7612846"><ele>436.0</ele><time>2026-04-04T13:22:11.2Z</time></trkpt><trkpt lat="43.2589412" lon="12.7610627"><ele>435.0</ele><time>2026-04-04T13:22:12.201Z</time></trkpt><trkpt lat="43.2589398" lon="12.7608447"><ele>434.66666666666663</ele><time>2026-04-04T13:22:13.2Z</time></trkpt><trkpt lat="43.258937" lon="12.7606214"><ele>434.3333333333333</ele><time>2026-04-04T13:22:14.201Z</time></trkpt><trkpt lat="43.258933" lon="12.7603997"><ele>434.0</ele><time>2026-04-04T13:22:15.2Z</time></trkpt><trkpt lat="43.2589311" lon="12.760179"><ele>433.66666666666663</ele><time>2026-04-04T13:22:16.2Z</time></trkpt><trkpt lat="43.2589288" lon="12.7599667"><ele>433.33333333333337</ele><time>2026-04-04T13:22:17.2Z</time></trkpt><trkpt lat="43.2589244" lon="12.7597519"><ele>433.0</ele><time>2026-04-04T13:22:18.2Z</time></trkpt><trkpt lat="43.2589189" lon="12.7595503"><ele>432.75</ele><time>2026-04-04T13:22:19.201Z</time></trkpt><trkpt lat="43.2589202" lon="12.7593515"><ele>432.5</ele><time>2026-04-04T13:22:20.2Z</time></trkpt><trkpt lat="43.2589209" lon="12.7591592"><ele>432.25</ele><time>2026-04-04T13:22:21.2Z</time></trkpt><trkpt lat="43.258923" lon="12.7589646"><ele>432.0</ele><time>2026-04-04T13:22:22.2Z</time></trkpt><trkpt lat="43.2589272" lon="12.7587739"><ele>432.0</ele><time>2026-04-04T13:22:23.201Z</time></trkpt><trkpt lat="43.258939" lon="12.7585814"><ele>432.0</ele><time>2026-04-04T13:22:24.2Z</time></trkpt><trkpt lat="43.2589479" lon="12.7583795"><ele>432.0</ele><time>2026-04-04T13:22:25.201Z</time></trkpt><trkpt lat="43.2589473" lon="12.7581714"><ele>432.0</ele><time>2026-04-04T13:22:26.2Z</time></trkpt><trkpt lat="43.2589428" lon="12.7579643"><ele>430.66666666666663</ele><time>2026-04-04T13:22:27.201Z</time></trkpt><trkpt lat="43.2589204" lon="12.7577578"><ele>429.3333333333333</ele><time>2026-04-04T13:22:28.2Z</time></trkpt><trkpt lat="43.2588856" lon="12.7575495"><ele>428.0</ele><time>2026-04-04T13:22:29.201Z</time></trkpt><trkpt lat="43.2588385" lon="12.7573371"><ele>427.0</ele><time>2026-04-04T13:22:30.2Z</time></trkpt><trkpt lat="43.2587859" lon="12.7571286"><ele>426.0</ele><time>2026-04-04T13:22:31.2Z</time></trkpt><trkpt lat="43.2587316" lon="12.7569167"><ele>425.0</ele><time>2026-04-04T13:22:32.2Z</time></trkpt><trkpt lat="43.2586669" lon="12.7567025"><ele>424.0</ele><time>2026-04-04T13:22:33.2Z</time></trkpt><trkpt lat="43.2586056" lon="12.7564923"><ele>423.0</ele><time>2026-04-04T13:22:34.201Z</time></trkpt><trkpt lat="43.2585475" lon="12.7562829"><ele>422.0</ele><time>2026-04-04T13:22:35.2Z</time></trkpt><trkpt lat="43.2584711" lon="12.7560728"><ele>421.3333333333333</ele><time>2026-04-04T13:22:36.2Z</time></trkpt><trkpt lat="43.2584053" lon="12.7558774"><ele>420.66666666666663</ele><time>2026-04-04T13:22:37.2Z</time></trkpt><trkpt lat="43.2583401" lon="12.7556856"><ele>420.0</ele><time>2026-04-04T13:22:38.2Z</time></trkpt><trkpt lat="43.2582682" lon="12.7555018"><ele>420.0</ele><time>2026-04-04T13:22:39.201Z</time></trkpt><trkpt lat="43.2582192" lon="12.7553427"><ele>420.0</ele><time>2026-04-04T13:22:40.2Z</time></trkpt><trkpt lat="43.258169" lon="12.7551924"><ele>420.0</ele><time>2026-04-04T13:22:41.201Z</time></trkpt><trkpt lat="43.2581406" lon="12.7550425"><ele>420.0</ele><time>2026-04-04T13:22:42.2Z</time></trkpt><trkpt lat="43.2581241" lon="12.7548918"><ele>420.0</ele><time>2026-04-04T13:22:43.2Z</time></trkpt><trkpt lat="43.2581275" lon="12.7547367"><ele>420.0</ele><time>2026-04-04T13:22:44.201Z</time></trkpt><trkpt lat="43.2581429" lon="12.7545812"><ele>420.0</ele><time>2026-04-04T13:22:45.201Z</time></trkpt><trkpt lat="43.2581846" lon="12.7544374"><ele>420.0</ele><time>2026-04-04T13:22:46.2Z</time></trkpt><trkpt lat="43.2582563" lon="12.7543097"><ele>419.75</ele><time>2026-04-04T13:22:47.2Z</time></trkpt><trkpt lat="43.2583442" lon="12.7541941"><ele>419.5</ele><time>2026-04-04T13:22:48.2Z</time></trkpt><trkpt lat="43.2584455" lon="12.7540998"><ele>419.25</ele><time>2026-04-04T13:22:49.2Z</time></trkpt><trkpt lat="43.2585584" lon="12.7540135"><ele>419.0</ele><time>2026-04-04T13:22:50.2Z</time></trkpt><trkpt lat="43.2586785" lon="12.7539223"><ele>419.0</ele><time>2026-04-04T13:22:51.2Z</time></trkpt><trkpt lat="43.2588086" lon="12.7538297"><ele>419.0</ele><time>2026-04-04T13:22:52.2Z</time></trkpt><trkpt lat="43.2589402" lon="12.7537534"><ele>419.0</ele><time>2026-04-04T13:22:53.2Z</time></trkpt><trkpt lat="43.2590797" lon="12.7537032"><ele>419.0</ele><time>2026-04-04T13:22:54.2Z</time></trkpt><trkpt lat="43.2592159" lon="12.7536697"><ele>418.75</ele><time>2026-04-04T13:22:55.2Z</time></trkpt><trkpt lat="43.2593508" lon="12.7536423"><ele>418.5</ele><time>2026-04-04T13:22:56.2Z</time></trkpt><trkpt lat="43.2594884" lon="12.7536191"><ele>418.25</ele><time>2026-04-04T13:22:57.201Z</time></trkpt><trkpt lat="43.2596334" lon="12.7536047"><ele>418.0</ele><time>2026-04-04T13:22:58.2Z</time></trkpt><trkpt lat="43.2597887" lon="12.7535906"><ele>417.6666666666667</ele><time>2026-04-04T13:22:59.201Z</time></trkpt><trkpt lat="43.2599526" lon="12.7535816"><ele>417.33333333333337</ele><time>2026-04-04T13:23:00.2Z</time></trkpt><trkpt lat="43.2601269" lon="12.7535733"><ele>417.0</ele><time>2026-04-04T13:23:01.2Z</time></trkpt><trkpt lat="43.2603159" lon="12.7535616"><ele>417.0</ele><time>2026-04-04T13:23:02.201Z</time></trkpt><trkpt lat="43.260527" lon="12.7535516"><ele>417.0</ele><time>2026-04-04T13:23:03.2Z</time></trkpt><trkpt lat="43.2607484" lon="12.7535454"><ele>417.0</ele><time>2026-04-04T13:23:04.2Z</time></trkpt><trkpt lat="43.2609711" lon="12.7535477"><ele>417.0</ele><time>2026-04-04T13:23:05.2Z</time></trkpt><trkpt lat="43.2611862" lon="12.753544"><ele>417.0</ele><time>2026-04-04T13:23:06.2Z</time></trkpt><trkpt lat="43.261401" lon="12.7535417"><ele>417.0</ele><time>2026-04-04T13:23:07.2Z</time></trkpt><trkpt lat="43.261615" lon="12.753546"><ele>417.0</ele><time>2026-04-04T13:23:08.201Z</time></trkpt><trkpt lat="43.2618286" lon="12.7535434"><ele>417.0</ele><time>2026-04-04T13:23:09.201Z</time></trkpt><trkpt lat="43.2620416" lon="12.7535472"><ele>417.0</ele><time>2026-04-04T13:23:10.201Z</time></trkpt><trkpt lat="43.2622552" lon="12.7535491"><ele>415.66666666666663</ele><time>2026-04-04T13:23:11.2Z</time></trkpt><trkpt lat="43.2624715" lon="12.7535497"><ele>414.3333333333333</ele><time>2026-04-04T13:23:12.2Z</time></trkpt><trkpt lat="43.2626845" lon="12.7535518"><ele>413.0</ele><time>2026-04-04T13:23:13.201Z</time></trkpt><trkpt lat="43.2629068" lon="12.7535525"><ele>413.0</ele><time>2026-04-04T13:23:14.2Z</time></trkpt><trkpt lat="43.2631229" lon="12.7535545"><ele>413.0</ele><time>2026-04-04T13:23:15.2Z</time></trkpt><trkpt lat="43.2633422" lon="12.7535529"><ele>413.0</ele><time>2026-04-04T13:23:16.201Z</time></trkpt><trkpt lat="43.2635653" lon="12.7535576"><ele>413.0</ele><time>2026-04-04T13:23:17.2Z</time></trkpt><trkpt lat="43.26379" lon="12.7535595"><ele>413.0</ele><time>2026-04-04T13:23:18.201Z</time></trkpt><trkpt lat="43.2640146" lon="12.7535668"><ele>413.0</ele><time>2026-04-04T13:23:19.201Z</time></trkpt><trkpt lat="43.2642397" lon="12.7535672"><ele>412.3333333333333</ele><time>2026-04-04T13:23:20.201Z</time></trkpt><trkpt lat="43.2644634" lon="12.7535671"><ele>411.66666666666663</ele><time>2026-04-04T13:23:21.2Z</time></trkpt><trkpt lat="43.2646845" lon="12.7535718"><ele>411.0</ele><time>2026-04-04T13:23:22.2Z</time></trkpt><trkpt lat="43.2649087" lon="12.7535729"><ele>411.0</ele><time>2026-04-04T13:23:23.2Z</time></trkpt><trkpt lat="43.2651377" lon="12.7535765"><ele>411.0</ele><time>2026-04-04T13:23:24.2Z</time></trkpt><trkpt lat="43.2653637" lon="12.7535759"><ele>411.0</ele><time>2026-04-04T13:23:25.201Z</time></trkpt><trkpt lat="43.2655894" lon="12.7535824"><ele>411.0</ele><time>2026-04-04T13:23:26.2Z</time></trkpt><trkpt lat="43.2658129" lon="12.7535868"><ele>411.0</ele><time>2026-04-04T13:23:27.2Z</time></trkpt><trkpt lat="43.2660376" lon="12.7535845"><ele>409.5</ele><time>2026-04-04T13:23:28.2Z</time></trkpt><trkpt lat="43.2662648" lon="12.7535721"><ele>408.0</ele><time>2026-04-04T13:23:29.2Z</time></trkpt><trkpt lat="43.2664939" lon="12.7535556"><ele>408.0</ele><time>2026-04-04T13:23:30.2Z</time></trkpt><trkpt lat="43.266726" lon="12.7535419"><ele>408.0</ele><time>2026-04-04T13:23:31.2Z</time></trkpt><trkpt lat="43.2669568" lon="12.7535268"><ele>407.0</ele><time>2026-04-04T13:23:32.2Z</time></trkpt><trkpt lat="43.2671926" lon="12.7535054"><ele>406.0</ele><time>2026-04-04T13:23:33.201Z</time></trkpt><trkpt lat="43.2674355" lon="12.7534811"><ele>406.0</ele><time>2026-04-04T13:23:34.201Z</time></trkpt><trkpt lat="43.2676747" lon="12.7534559"><ele>406.0</ele><time>2026-04-04T13:23:35.2Z</time></trkpt><trkpt lat="43.2679192" lon="12.7534378"><ele>405.5</ele><time>2026-04-04T13:23:36.201Z</time></trkpt><trkpt lat="43.2681599" lon="12.7534129"><ele>405.0</ele><time>2026-04-04T13:23:37.2Z</time></trkpt><trkpt lat="43.2684053" lon="12.7533877"><ele>405.0</ele><time>2026-04-04T13:23:38.201Z</time></trkpt><trkpt lat="43.2686556" lon="12.7533644"><ele>405.0</ele><time>2026-04-04T13:23:39.201Z</time></trkpt><trkpt lat="43.2688989" lon="12.7533361"><ele>404.0</ele><time>2026-04-04T13:23:40.201Z</time></trkpt><trkpt lat="43.2691394" lon="12.753312"><ele>403.0</ele><time>2026-04-04T13:23:41.2Z</time></trkpt><trkpt lat="43.2693855" lon="12.753286"><ele>403.0</ele><time>2026-04-04T13:23:42.2Z</time></trkpt><trkpt lat="43.2696295" lon="12.7532592"><ele>403.0</ele><time>2026-04-04T13:23:43.2Z</time></trkpt><trkpt lat="43.2698814" lon="12.7532337"><ele>401.5</ele><time>2026-04-04T13:23:44.2Z</time></trkpt><trkpt lat="43.2701375" lon="12.7532035"><ele>400.0</ele><time>2026-04-04T13:23:45.201Z</time></trkpt><trkpt lat="43.2703946" lon="12.7531792"><ele>400.0</ele><time>2026-04-04T13:23:46.2Z</time></trkpt><trkpt lat="43.2706545" lon="12.7531528"><ele>400.0</ele><time>2026-04-04T13:23:47.2Z</time></trkpt><trkpt lat="43.2709189" lon="12.7531269"><ele>400.0</ele><time>2026-04-04T13:23:48.2Z</time></trkpt><trkpt lat="43.2711756" lon="12.7530986"><ele>400.0</ele><time>2026-04-04T13:23:49.201Z</time></trkpt><trkpt lat="43.2714335" lon="12.7530696"><ele>401.5</ele><time>2026-04-04T13:23:50.2Z</time></trkpt><trkpt lat="43.2716883" lon="12.7530419"><ele>403.0</ele><time>2026-04-04T13:23:51.2Z</time></trkpt><trkpt lat="43.2719418" lon="12.7530119"><ele>403.0</ele><time>2026-04-04T13:23:52.2Z</time></trkpt><trkpt lat="43.2721906" lon="12.7529867"><ele>403.0</ele><time>2026-04-04T13:23:53.2Z</time></trkpt><trkpt lat="43.2724386" lon="12.7529608"><ele>402.0</ele><time>2026-04-04T13:23:54.2Z</time></trkpt><trkpt lat="43.2726982" lon="12.7529354"><ele>401.0</ele><time>2026-04-04T13:23:55.201Z</time></trkpt><trkpt lat="43.2729444" lon="12.7529085"><ele>402.5</ele><time>2026-04-04T13:23:56.2Z</time></trkpt><trkpt lat="43.27319" lon="12.7528818"><ele>404.0</ele><time>2026-04-04T13:23:57.2Z</time></trkpt><trkpt lat="43.2734316" lon="12.7528546"><ele>404.0</ele><time>2026-04-04T13:23:58.2Z</time></trkpt><trkpt lat="43.2736717" lon="12.7528365"><ele>404.0</ele><time>2026-04-04T13:23:59.201Z</time></trkpt><trkpt lat="43.2739112" lon="12.7528097"><ele>404.5</ele><time>2026-04-04T13:24:00.2Z</time></trkpt><trkpt lat="43.2741494" lon="12.7527791"><ele>405.0</ele><time>2026-04-04T13:24:01.2Z</time></trkpt><trkpt lat="43.2743832" lon="12.7527554"><ele>405.0</ele><time>2026-04-04T13:24:02.2Z</time></trkpt><trkpt lat="43.2746193" lon="12.7527288"><ele>405.0</ele><time>2026-04-04T13:24:03.2Z</time></trkpt><trkpt lat="43.274854" lon="12.7527009"><ele>404.0</ele><time>2026-04-04T13:24:04.201Z</time></trkpt><trkpt lat="43.2750891" lon="12.7526822"><ele>403.0</ele><time>2026-04-04T13:24:05.2Z</time></trkpt><trkpt lat="43.2753229" lon="12.7526526"><ele>403.0</ele><time>2026-04-04T13:24:06.201Z</time></trkpt><trkpt lat="43.2755704" lon="12.752633"><ele>403.0</ele><time>2026-04-04T13:24:07.2Z</time></trkpt><trkpt lat="43.275811" lon="12.7526027"><ele>403.0</ele><time>2026-04-04T13:24:08.2Z</time></trkpt><trkpt lat="43.2760467" lon="12.7525728"><ele>403.0</ele><time>2026-04-04T13:24:09.2Z</time></trkpt><trkpt lat="43.276285" lon="12.7525427"><ele>403.0</ele><time>2026-04-04T13:24:10.2Z</time></trkpt><trkpt lat="43.2765198" lon="12.7524993"><ele>403.0</ele><time>2026-04-04T13:24:11.201Z</time></trkpt><trkpt lat="43.2767552" lon="12.7524604"><ele>403.0</ele><time>2026-04-04T13:24:12.2Z</time></trkpt><trkpt lat="43.2770043" lon="12.7524186"><ele>403.0</ele><time>2026-04-04T13:24:13.201Z</time></trkpt><trkpt lat="43.2772431" lon="12.7523646"><ele>403.5</ele><time>2026-04-04T13:24:14.2Z</time></trkpt><trkpt lat="43.2774769" lon="12.7522971"><ele>404.0</ele><time>2026-04-04T13:24:15.201Z</time></trkpt><trkpt lat="43.2777102" lon="12.7522265"><ele>404.0</ele><time>2026-04-04T13:24:16.2Z</time></trkpt><trkpt lat="43.2779415" lon="12.7521551"><ele>404.0</ele><time>2026-04-04T13:24:17.2Z</time></trkpt><trkpt lat="43.2781721" lon="12.7520881"><ele>404.5</ele><time>2026-04-04T13:24:18.2Z</time></trkpt><trkpt lat="43.2783987" lon="12.7520049"><ele>405.0</ele><time>2026-04-04T13:24:19.2Z</time></trkpt><trkpt lat="43.2786315" lon="12.7519198"><ele>403.0</ele><time>2026-04-04T13:24:20.2Z</time></trkpt><trkpt lat="43.2788575" lon="12.7518302"><ele>401.0</ele><time>2026-04-04T13:24:21.2Z</time></trkpt><trkpt lat="43.2790831" lon="12.7517333"><ele>401.0</ele><time>2026-04-04T13:24:22.2Z</time></trkpt><trkpt lat="43.2793066" lon="12.7516291"><ele>401.0</ele><time>2026-04-04T13:24:23.2Z</time></trkpt><trkpt lat="43.2795367" lon="12.7515194"><ele>401.0</ele><time>2026-04-04T13:24:24.201Z</time></trkpt><trkpt lat="43.2797651" lon="12.7514011"><ele>401.0</ele><time>2026-04-04T13:24:25.2Z</time></trkpt><trkpt lat="43.2799903" lon="12.7512833"><ele>402.0</ele><time>2026-04-04T13:24:26.2Z</time></trkpt><trkpt lat="43.2802175" lon="12.7511529"><ele>403.0</ele><time>2026-04-04T13:24:27.2Z</time></trkpt><trkpt lat="43.2804333" lon="12.7510174"><ele>404.5</ele><time>2026-04-04T13:24:28.201Z</time></trkpt><trkpt lat="43.2806615" lon="12.7508792"><ele>406.0</ele><time>2026-04-04T13:24:29.201Z</time></trkpt><trkpt lat="43.2808792" lon="12.7507325"><ele>406.0</ele><time>2026-04-04T13:24:30.2Z</time></trkpt><trkpt lat="43.2810971" lon="12.7505828"><ele>406.0</ele><time>2026-04-04T13:24:31.2Z</time></trkpt><trkpt lat="43.281311" lon="12.7504335"><ele>406.5</ele><time>2026-04-04T13:24:32.2Z</time></trkpt><trkpt lat="43.2815221" lon="12.7502817"><ele>407.0</ele><time>2026-04-04T13:24:33.2Z</time></trkpt><trkpt lat="43.2817346" lon="12.7501181"><ele>407.0</ele><time>2026-04-04T13:24:34.201Z</time></trkpt><trkpt lat="43.2819444" lon="12.7499472"><ele>407.0</ele><time>2026-04-04T13:24:35.2Z</time></trkpt><trkpt lat="43.2821494" lon="12.7497651"><ele>409.0</ele><time>2026-04-04T13:24:36.2Z</time></trkpt><trkpt lat="43.2823558" lon="12.7495765"><ele>411.0</ele><time>2026-04-04T13:24:37.201Z</time></trkpt><trkpt lat="43.2825646" lon="12.749391"><ele>410.0</ele><time>2026-04-04T13:24:38.2Z</time></trkpt><trkpt lat="43.2827663" lon="12.7491989"><ele>409.0</ele><time>2026-04-04T13:24:39.2Z</time></trkpt><trkpt lat="43.2829659" lon="12.7490107"><ele>409.5</ele><time>2026-04-04T13:24:40.2Z</time></trkpt><trkpt lat="43.2831614" lon="12.7488092"><ele>410.0</ele><time>2026-04-04T13:24:41.2Z</time></trkpt><trkpt lat="43.2833536" lon="12.7485945"><ele>408.5</ele><time>2026-04-04T13:24:42.2Z</time></trkpt><trkpt lat="43.2835456" lon="12.748377"><ele>407.0</ele><time>2026-04-04T13:24:43.201Z</time></trkpt><trkpt lat="43.2837314" lon="12.748163"><ele>407.0</ele><time>2026-04-04T13:24:44.201Z</time></trkpt><trkpt lat="43.2839163" lon="12.7479398"><ele>407.0</ele><time>2026-04-04T13:24:45.2Z</time></trkpt><trkpt lat="43.2840989" lon="12.7477155"><ele>406.5</ele><time>2026-04-04T13:24:46.2Z</time></trkpt><trkpt lat="43.2842712" lon="12.7474793"><ele>406.0</ele><time>2026-04-04T13:24:47.2Z</time></trkpt><trkpt lat="43.2844459" lon="12.7472507"><ele>406.0</ele><time>2026-04-04T13:24:48.2Z</time></trkpt><trkpt lat="43.284618" lon="12.7470235"><ele>406.0</ele><time>2026-04-04T13:24:49.2Z</time></trkpt><trkpt lat="43.2847913" lon="12.7467764"><ele>407.0</ele><time>2026-04-04T13:24:50.2Z</time></trkpt><trkpt lat="43.2849586" lon="12.7465385"><ele>408.0</ele><time>2026-04-04T13:24:51.2Z</time></trkpt><trkpt lat="43.2851251" lon="12.7463018"><ele>408.0</ele><time>2026-04-04T13:24:52.2Z</time></trkpt><trkpt lat="43.2852893" lon="12.7460648"><ele>408.0</ele><time>2026-04-04T13:24:53.2Z</time></trkpt><trkpt lat="43.285454" lon="12.7458245"><ele>408.5</ele><time>2026-04-04T13:24:54.2Z</time></trkpt><trkpt lat="43.2856176" lon="12.7455822"><ele>409.0</ele><time>2026-04-04T13:24:55.201Z</time></trkpt><trkpt lat="43.2857816" lon="12.7453353"><ele>407.5</ele><time>2026-04-04T13:24:56.201Z</time></trkpt><trkpt lat="43.2859437" lon="12.7451001"><ele>406.0</ele><time>2026-04-04T13:24:57.2Z</time></trkpt><trkpt lat="43.2860994" lon="12.7448728"><ele>406.0</ele><time>2026-04-04T13:24:58.201Z</time></trkpt><trkpt lat="43.2862635" lon="12.744636"><ele>406.0</ele><time>2026-04-04T13:24:59.2Z</time></trkpt><trkpt lat="43.2864213" lon="12.7444021"><ele>406.0</ele><time>2026-04-04T13:25:00.2Z</time></trkpt><trkpt lat="43.2865788" lon="12.7441709"><ele>406.0</ele><time>2026-04-04T13:25:01.2Z</time></trkpt><trkpt lat="43.2867344" lon="12.7439432"><ele>406.0</ele><time>2026-04-04T13:25:02.2Z</time></trkpt><trkpt lat="43.2868891" lon="12.7437124"><ele>406.0</ele><time>2026-04-04T13:25:03.201Z</time></trkpt><trkpt lat="43.2870391" lon="12.7434805"><ele>406.0</ele><time>2026-04-04T13:25:04.201Z</time></trkpt><trkpt lat="43.2871917" lon="12.7432528"><ele>406.0</ele><time>2026-04-04T13:25:05.201Z</time></trkpt><trkpt lat="43.2873388" lon="12.7430335"><ele>406.0</ele><time>2026-04-04T13:25:06.201Z</time></trkpt><trkpt lat="43.2874699" lon="12.7428408"><ele>405.6666666666667</ele><time>2026-04-04T13:25:07.2Z</time></trkpt><trkpt lat="43.2875991" lon="12.7426527"><ele>405.33333333333337</ele><time>2026-04-04T13:25:08.2Z</time></trkpt><trkpt lat="43.2877291" lon="12.7424495"><ele>405.0</ele><time>2026-04-04T13:25:09.2Z</time></trkpt><trkpt lat="43.287864" lon="12.7422398"><ele>405.0</ele><time>2026-04-04T13:25:10.2Z</time></trkpt><trkpt lat="43.2880029" lon="12.7420316"><ele>405.0</ele><time>2026-04-04T13:25:11.201Z</time></trkpt><trkpt lat="43.2881451" lon="12.7418179"><ele>405.0</ele><time>2026-04-04T13:25:12.2Z</time></trkpt><trkpt lat="43.2882912" lon="12.741606"><ele>405.0</ele><time>2026-04-04T13:25:13.2Z</time></trkpt><trkpt lat="43.2884347" lon="12.7413934"><ele>405.0</ele><time>2026-04-04T13:25:14.2Z</time></trkpt><trkpt lat="43.2885797" lon="12.741181"><ele>405.0</ele><time>2026-04-04T13:25:15.2Z</time></trkpt><trkpt lat="43.2887227" lon="12.7409659"><ele>405.0</ele><time>2026-04-04T13:25:16.201Z</time></trkpt><trkpt lat="43.288866" lon="12.7407528"><ele>405.0</ele><time>2026-04-04T13:25:17.201Z</time></trkpt><trkpt lat="43.2890156" lon="12.740538"><ele>405.0</ele><time>2026-04-04T13:25:18.2Z</time></trkpt><trkpt lat="43.2891655" lon="12.7403236"><ele>405.33333333333337</ele><time>2026-04-04T13:25:19.2Z</time></trkpt><trkpt lat="43.2893158" lon="12.7401265"><ele>405.6666666666667</ele><time>2026-04-04T13:25:20.201Z</time></trkpt><trkpt lat="43.2894566" lon="12.7399291"><ele>406.0</ele><time>2026-04-04T13:25:21.2Z</time></trkpt><trkpt lat="43.2895942" lon="12.7397283"><ele>406.0</ele><time>2026-04-04T13:25:22.201Z</time></trkpt><trkpt lat="43.2897264" lon="12.739522"><ele>406.0</ele><time>2026-04-04T13:25:23.2Z</time></trkpt><trkpt lat="43.2898597" lon="12.7393325"><ele>406.0</ele><time>2026-04-04T13:25:24.2Z</time></trkpt><trkpt lat="43.2899819" lon="12.7391548"><ele>406.33333333333337</ele><time>2026-04-04T13:25:25.2Z</time></trkpt><trkpt lat="43.2901051" lon="12.7389846"><ele>406.66666666666663</ele><time>2026-04-04T13:25:26.201Z</time></trkpt><trkpt lat="43.2902281" lon="12.7388371"><ele>407.0</ele><time>2026-04-04T13:25:27.2Z</time></trkpt><trkpt lat="43.2903642" lon="12.7387035"><ele>407.0</ele><time>2026-04-04T13:25:28.2Z</time></trkpt><trkpt lat="43.2905113" lon="12.7385989"><ele>407.0</ele><time>2026-04-04T13:25:29.2Z</time></trkpt><trkpt lat="43.2906603" lon="12.7385189"><ele>407.0</ele><time>2026-04-04T13:25:30.201Z</time></trkpt><trkpt lat="43.2908236" lon="12.738456"><ele>407.66666666666663</ele><time>2026-04-04T13:25:31.2Z</time></trkpt><trkpt lat="43.290993" lon="12.738409"><ele>408.33333333333337</ele><time>2026-04-04T13:25:32.2Z</time></trkpt><trkpt lat="43.2911758" lon="12.7384286"><ele>409.0</ele><time>2026-04-04T13:25:33.2Z</time></trkpt><trkpt lat="43.2913505" lon="12.7384355"><ele>410.0</ele><time>2026-04-04T13:25:34.201Z</time></trkpt><trkpt lat="43.2915273" lon="12.7384629"><ele>411.0</ele><time>2026-04-04T13:25:35.2Z</time></trkpt><trkpt lat="43.2916973" lon="12.7385234"><ele>412.0</ele><time>2026-04-04T13:25:36.2Z</time></trkpt><trkpt lat="43.2918559" lon="12.738602"><ele>412.6666666666667</ele><time>2026-04-04T13:25:37.201Z</time></trkpt><trkpt lat="43.2920075" lon="12.7387018"><ele>413.33333333333337</ele><time>2026-04-04T13:25:38.2Z</time></trkpt><trkpt lat="43.2921561" lon="12.738822"><ele>414.0</ele><time>2026-04-04T13:25:39.201Z</time></trkpt><trkpt lat="43.2923076" lon="12.7389524"><ele>415.33333333333337</ele><time>2026-04-04T13:25:40.2Z</time></trkpt><trkpt lat="43.2924679" lon="12.7391024"><ele>416.6666666666667</ele><time>2026-04-04T13:25:41.2Z</time></trkpt><trkpt lat="43.2926383" lon="12.7392558"><ele>418.0</ele><time>2026-04-04T13:25:42.201Z</time></trkpt><trkpt lat="43.2928076" lon="12.7394045"><ele>418.33333333333337</ele><time>2026-04-04T13:25:43.201Z</time></trkpt><trkpt lat="43.2929777" lon="12.7395638"><ele>418.66666666666663</ele><time>2026-04-04T13:25:44.2Z</time></trkpt><trkpt lat="43.2931491" lon="12.7397226"><ele>419.0</ele><time>2026-04-04T13:25:45.2Z</time></trkpt><trkpt lat="43.2933259" lon="12.7398941"><ele>421.3333333333333</ele><time>2026-04-04T13:25:46.2Z</time></trkpt><trkpt lat="43.2935049" lon="12.7400771"><ele>423.66666666666663</ele><time>2026-04-04T13:25:47.2Z</time></trkpt><trkpt lat="43.2936799" lon="12.7402576"><ele>426.0</ele><time>2026-04-04T13:25:48.2Z</time></trkpt><trkpt lat="43.2938638" lon="12.7404298"><ele>430.66666666666663</ele><time>2026-04-04T13:25:49.2Z</time></trkpt><trkpt lat="43.2940344" lon="12.7405955"><ele>435.3333333333333</ele><time>2026-04-04T13:25:50.2Z</time></trkpt><trkpt lat="43.2942022" lon="12.7407628"><ele>440.0</ele><time>2026-04-04T13:25:51.2Z</time></trkpt><trkpt lat="43.2943608" lon="12.7409222"><ele>439.66666666666663</ele><time>2026-04-04T13:25:52.2Z</time></trkpt><trkpt lat="43.294539" lon="12.7410968"><ele>439.33333333333337</ele><time>2026-04-04T13:25:53.2Z</time></trkpt><trkpt lat="43.2947096" lon="12.7412663"><ele>439.0</ele><time>2026-04-04T13:25:54.2Z</time></trkpt><trkpt lat="43.2948755" lon="12.7414348"><ele>439.0</ele><time>2026-04-04T13:25:55.2Z</time></trkpt><trkpt lat="43.2950199" lon="12.7415942"><ele>439.0</ele><time>2026-04-04T13:25:56.201Z</time></trkpt><trkpt lat="43.295184" lon="12.7417702"><ele>439.0</ele><time>2026-04-04T13:25:57.2Z</time></trkpt><trkpt lat="43.2953525" lon="12.7419642"><ele>439.33333333333337</ele><time>2026-04-04T13:25:58.2Z</time></trkpt><trkpt lat="43.2955086" lon="12.7421638"><ele>439.66666666666663</ele><time>2026-04-04T13:25:59.201Z</time></trkpt><trkpt lat="43.2956688" lon="12.7423893"><ele>440.0</ele><time>2026-04-04T13:26:00.201Z</time></trkpt><trkpt lat="43.2958192" lon="12.7426041"><ele>440.66666666666663</ele><time>2026-04-04T13:26:01.2Z</time></trkpt><trkpt lat="43.2959619" lon="12.7428175"><ele>441.33333333333337</ele><time>2026-04-04T13:26:02.2Z</time></trkpt><trkpt lat="43.2961031" lon="12.7430602"><ele>442.0</ele><time>2026-04-04T13:26:03.2Z</time></trkpt><trkpt lat="43.2962369" lon="12.743288"><ele>442.0</ele><time>2026-04-04T13:26:04.201Z</time></trkpt><trkpt lat="43.2963658" lon="12.7435282"><ele>442.0</ele><time>2026-04-04T13:26:05.2Z</time></trkpt><trkpt lat="43.2964907" lon="12.7437744"><ele>442.0</ele><time>2026-04-04T13:26:06.2Z</time></trkpt><trkpt lat="43.2966158" lon="12.7440274"><ele>441.6666666666667</ele><time>2026-04-04T13:26:07.2Z</time></trkpt><trkpt lat="43.2967419" lon="12.7442678"><ele>441.33333333333337</ele><time>2026-04-04T13:26:08.2Z</time></trkpt><trkpt lat="43.29686" lon="12.7445269"><ele>441.0</ele><time>2026-04-04T13:26:09.2Z</time></trkpt><trkpt lat="43.2969773" lon="12.7447781"><ele>443.0</ele><time>2026-04-04T13:26:10.2Z</time></trkpt><trkpt lat="43.2970926" lon="12.7450358"><ele>445.0</ele><time>2026-04-04T13:26:11.201Z</time></trkpt><trkpt lat="43.2972107" lon="12.7452893"><ele>447.0</ele><time>2026-04-04T13:26:12.2Z</time></trkpt><trkpt lat="43.2973299" lon="12.7455428"><ele>447.0</ele><time>2026-04-04T13:26:13.2Z</time></trkpt><trkpt lat="43.2974485" lon="12.7457939"><ele>447.0</ele><time>2026-04-04T13:26:14.201Z</time></trkpt><trkpt lat="43.2975633" lon="12.7460428"><ele>447.0</ele><time>2026-04-04T13:26:15.201Z</time></trkpt><trkpt lat="43.2976795" lon="12.7462923"><ele>450.0</ele><time>2026-04-04T13:26:16.2Z</time></trkpt><trkpt lat="43.2977988" lon="12.746543"><ele>453.0</ele><time>2026-04-04T13:26:17.2Z</time></trkpt><trkpt lat="43.2979153" lon="12.7467943"><ele>456.0</ele><time>2026-04-04T13:26:18.2Z</time></trkpt><trkpt lat="43.2980415" lon="12.747044"><ele>456.33333333333337</ele><time>2026-04-04T13:26:19.2Z</time></trkpt><trkpt lat="43.2981639" lon="12.747291"><ele>456.6666666666667</ele><time>2026-04-04T13:26:20.2Z</time></trkpt><trkpt lat="43.2982847" lon="12.7475574"><ele>457.0</ele><time>2026-04-04T13:26:21.2Z</time></trkpt><trkpt lat="43.2984069" lon="12.7478185"><ele>458.0</ele><time>2026-04-04T13:26:22.2Z</time></trkpt><trkpt lat="43.2985292" lon="12.7480819"><ele>459.0</ele><time>2026-04-04T13:26:23.2Z</time></trkpt><trkpt lat="43.2986493" lon="12.7483382"><ele>460.0</ele><time>2026-04-04T13:26:24.201Z</time></trkpt><trkpt lat="43.2987703" lon="12.7485949"><ele>459.33333333333337</ele><time>2026-04-04T13:26:25.2Z</time></trkpt><trkpt lat="43.2988879" lon="12.7488501"><ele>458.66666666666663</ele><time>2026-04-04T13:26:26.2Z</time></trkpt><trkpt lat="43.2990065" lon="12.7491033"><ele>458.0</ele><time>2026-04-04T13:26:27.201Z</time></trkpt><trkpt lat="43.2991241" lon="12.7493579"><ele>460.0</ele><time>2026-04-04T13:26:28.2Z</time></trkpt><trkpt lat="43.2992401" lon="12.7496175"><ele>462.0</ele><time>2026-04-04T13:26:29.2Z</time></trkpt><trkpt lat="43.2993546" lon="12.7498749"><ele>464.0</ele><time>2026-04-04T13:26:30.2Z</time></trkpt><trkpt lat="43.299463" lon="12.7501334"><ele>466.0</ele><time>2026-04-04T13:26:31.2Z</time></trkpt><trkpt lat="43.2995759" lon="12.7503972"><ele>468.0</ele><time>2026-04-04T13:26:32.201Z</time></trkpt><trkpt lat="43.2996708" lon="12.7506712"><ele>470.0</ele><time>2026-04-04T13:26:33.2Z</time></trkpt><trkpt lat="43.2997609" lon="12.7509537"><ele>465.0</ele><time>2026-04-04T13:26:34.2Z</time></trkpt><trkpt lat="43.2998447" lon="12.7512436"><ele>460.0</ele><time>2026-04-04T13:26:35.2Z</time></trkpt><trkpt lat="43.2999166" lon="12.7515342"><ele>460.0</ele><time>2026-04-04T13:26:36.2Z</time></trkpt><trkpt lat="43.2999789" lon="12.7518404"><ele>460.0</ele><time>2026-04-04T13:26:37.2Z</time></trkpt><trkpt lat="43.3000361" lon="12.75214"><ele>462.0</ele><time>2026-04-04T13:26:38.201Z</time></trkpt><trkpt lat="43.300081" lon="12.752442"><ele>464.0</ele><time>2026-04-04T13:26:39.2Z</time></trkpt><trkpt lat="43.3001156" lon="12.7527564"><ele>465.0</ele><time>2026-04-04T13:26:40.2Z</time></trkpt><trkpt lat="43.300137" lon="12.7530691"><ele>466.0</ele><time>2026-04-04T13:26:41.2Z</time></trkpt><trkpt lat="43.3001497" lon="12.7533768"><ele>469.0</ele><time>2026-04-04T13:26:42.2Z</time></trkpt><trkpt lat="43.3001577" lon="12.7536852"><ele>472.0</ele><time>2026-04-04T13:26:43.2Z</time></trkpt><trkpt lat="43.3001596" lon="12.7539945"><ele>472.0</ele><time>2026-04-04T13:26:44.2Z</time></trkpt><trkpt lat="43.3001641" lon="12.7543096"><ele>472.0</ele><time>2026-04-04T13:26:45.2Z</time></trkpt><trkpt lat="43.3001604" lon="12.7546247"><ele>472.0</ele><time>2026-04-04T13:26:46.201Z</time></trkpt><trkpt lat="43.3001518" lon="12.7549269"><ele>472.0</ele><time>2026-04-04T13:26:47.2Z</time></trkpt><trkpt lat="43.3001387" lon="12.755233"><ele>472.0</ele><time>2026-04-04T13:26:48.201Z</time></trkpt><trkpt lat="43.3001347" lon="12.7555405"><ele>470.0</ele><time>2026-04-04T13:26:49.201Z</time></trkpt><trkpt lat="43.3001346" lon="12.7558504"><ele>468.0</ele><time>2026-04-04T13:26:50.201Z</time></trkpt><trkpt lat="43.3001351" lon="12.7561497"><ele>466.0</ele><time>2026-04-04T13:26:51.2Z</time></trkpt><trkpt lat="43.3001452" lon="12.7564444"><ele>465.33333333333337</ele><time>2026-04-04T13:26:52.201Z</time></trkpt><trkpt lat="43.3001545" lon="12.7567353"><ele>464.66666666666663</ele><time>2026-04-04T13:26:53.2Z</time></trkpt><trkpt lat="43.3001662" lon="12.7570264"><ele>464.0</ele><time>2026-04-04T13:26:54.2Z</time></trkpt><trkpt lat="43.3001794" lon="12.7573218"><ele>462.66666666666663</ele><time>2026-04-04T13:26:55.201Z</time></trkpt><trkpt lat="43.3001915" lon="12.7576136"><ele>461.33333333333337</ele><time>2026-04-04T13:26:56.2Z</time></trkpt><trkpt lat="43.3002043" lon="12.757908"><ele>460.0</ele><time>2026-04-04T13:26:57.2Z</time></trkpt><trkpt lat="43.3002143" lon="12.7582086"><ele>459.6666666666667</ele><time>2026-04-04T13:26:58.2Z</time></trkpt><trkpt lat="43.3002332" lon="12.7585173"><ele>459.33333333333337</ele><time>2026-04-04T13:26:59.2Z</time></trkpt><trkpt lat="43.3002479" lon="12.7588093"><ele>459.0</ele><time>2026-04-04T13:27:00.201Z</time></trkpt><trkpt lat="43.3002567" lon="12.7591048"><ele>469.5</ele><time>2026-04-04T13:27:01.2Z</time></trkpt><trkpt lat="43.3002723" lon="12.7594177"><ele>480.0</ele><time>2026-04-04T13:27:02.2Z</time></trkpt><trkpt lat="43.3002859" lon="12.7597322"><ele>480.0</ele><time>2026-04-04T13:27:03.2Z</time></trkpt><trkpt lat="43.3002999" lon="12.7600456"><ele>480.0</ele><time>2026-04-04T13:27:04.201Z</time></trkpt><trkpt lat="43.3003155" lon="12.7603631"><ele>483.0</ele><time>2026-04-04T13:27:05.2Z</time></trkpt><trkpt lat="43.3003337" lon="12.7606795"><ele>486.0</ele><time>2026-04-04T13:27:06.2Z</time></trkpt><trkpt lat="43.30035" lon="12.7610079"><ele>487.0</ele><time>2026-04-04T13:27:07.201Z</time></trkpt><trkpt lat="43.300361" lon="12.7613292"><ele>488.0</ele><time>2026-04-04T13:27:08.2Z</time></trkpt><trkpt lat="43.3003758" lon="12.7616505"><ele>487.5</ele><time>2026-04-04T13:27:09.201Z</time></trkpt><trkpt lat="43.3003927" lon="12.7619655"><ele>487.0</ele><time>2026-04-04T13:27:10.2Z</time></trkpt><trkpt lat="43.3004059" lon="12.7622782"><ele>487.0</ele><time>2026-04-04T13:27:11.2Z</time></trkpt><trkpt lat="43.3004314" lon="12.7626059"><ele>487.0</ele><time>2026-04-04T13:27:12.201Z</time></trkpt><trkpt lat="43.3004489" lon="12.762929"><ele>486.5</ele><time>2026-04-04T13:27:13.2Z</time></trkpt><trkpt lat="43.3004619" lon="12.7632455"><ele>486.0</ele><time>2026-04-04T13:27:14.2Z</time></trkpt><trkpt lat="43.3004783" lon="12.7635537"><ele>485.5</ele><time>2026-04-04T13:27:15.2Z</time></trkpt><trkpt lat="43.3004833" lon="12.7638617"><ele>485.0</ele><time>2026-04-04T13:27:16.2Z</time></trkpt><trkpt lat="43.3004992" lon="12.7641711"><ele>487.0</ele><time>2026-04-04T13:27:17.2Z</time></trkpt><trkpt lat="43.3005211" lon="12.7644684"><ele>489.0</ele><time>2026-04-04T13:27:18.2Z</time></trkpt><trkpt lat="43.3005537" lon="12.76477"><ele>491.0</ele><time>2026-04-04T13:27:19.2Z</time></trkpt><trkpt lat="43.3006045" lon="12.7650682"><ele>492.66666666666663</ele><time>2026-04-04T13:27:20.2Z</time></trkpt><trkpt lat="43.3006706" lon="12.7653552"><ele>494.33333333333337</ele><time>2026-04-04T13:27:21.2Z</time></trkpt><trkpt lat="43.3007557" lon="12.7656387"><ele>496.0</ele><time>2026-04-04T13:27:22.2Z</time></trkpt><trkpt lat="43.3008541" lon="12.7659076"><ele>494.0</ele><time>2026-04-04T13:27:23.2Z</time></trkpt><trkpt lat="43.300976" lon="12.7661502"><ele>492.0</ele><time>2026-04-04T13:27:24.2Z</time></trkpt><trkpt lat="43.301113" lon="12.7663747"><ele>490.0</ele><time>2026-04-04T13:27:25.2Z</time></trkpt><trkpt lat="43.3012544" lon="12.7666089"><ele>490.0</ele><time>2026-04-04T13:27:26.201Z</time></trkpt><trkpt lat="43.3014003" lon="12.7668248"><ele>490.0</ele><time>2026-04-04T13:27:27.2Z</time></trkpt><trkpt lat="43.3015472" lon="12.7670505"><ele>490.0</ele><time>2026-04-04T13:27:28.201Z</time></trkpt><trkpt lat="43.3016935" lon="12.7672799"><ele>489.6666666666667</ele><time>2026-04-04T13:27:29.201Z</time></trkpt><trkpt lat="43.3018374" lon="12.7675067"><ele>489.33333333333337</ele><time>2026-04-04T13:27:30.2Z</time></trkpt><trkpt lat="43.301972" lon="12.7677534"><ele>489.0</ele><time>2026-04-04T13:27:31.201Z</time></trkpt><trkpt lat="43.3020975" lon="12.7680073"><ele>489.0</ele><time>2026-04-04T13:27:32.2Z</time></trkpt><trkpt lat="43.3022116" lon="12.7682775"><ele>489.0</ele><time>2026-04-04T13:27:33.2Z</time></trkpt><trkpt lat="43.3023097" lon="12.7685573"><ele>493.5</ele><time>2026-04-04T13:27:34.201Z</time></trkpt><trkpt lat="43.3023988" lon="12.7688479"><ele>498.0</ele><time>2026-04-04T13:27:35.2Z</time></trkpt><trkpt lat="43.302473" lon="12.7691446"><ele>498.0</ele><time>2026-04-04T13:27:36.2Z</time></trkpt><trkpt lat="43.3025445" lon="12.7694516"><ele>498.0</ele><time>2026-04-04T13:27:37.2Z</time></trkpt><trkpt lat="43.3025963" lon="12.769762"><ele>498.0</ele><time>2026-04-04T13:27:38.201Z</time></trkpt><trkpt lat="43.3026415" lon="12.7700723"><ele>498.0</ele><time>2026-04-04T13:27:39.2Z</time></trkpt><trkpt lat="43.3026773" lon="12.7703881"><ele>498.5</ele><time>2026-04-04T13:27:40.2Z</time></trkpt><trkpt lat="43.3027077" lon="12.7707042"><ele>499.0</ele><time>2026-04-04T13:27:41.201Z</time></trkpt><trkpt lat="43.302738" lon="12.7710185"><ele>499.0</ele><time>2026-04-04T13:27:42.201Z</time></trkpt><trkpt lat="43.3027707" lon="12.7713299"><ele>499.0</ele><time>2026-04-04T13:27:43.2Z</time></trkpt><trkpt lat="43.3028022" lon="12.771639"><ele>501.0</ele><time>2026-04-04T13:27:44.201Z</time></trkpt><trkpt lat="43.3028356" lon="12.7719523"><ele>503.0</ele><time>2026-04-04T13:27:45.201Z</time></trkpt><trkpt lat="43.3028522" lon="12.7722614"><ele>503.0</ele><time>2026-04-04T13:27:46.2Z</time></trkpt><trkpt lat="43.3028549" lon="12.7725805"><ele>503.0</ele><time>2026-04-04T13:27:47.2Z</time></trkpt><trkpt lat="43.302842" lon="12.7728997"><ele>505.5</ele><time>2026-04-04T13:27:48.2Z</time></trkpt><trkpt lat="43.302811" lon="12.7732177"><ele>508.0</ele><time>2026-04-04T13:27:49.2Z</time></trkpt><trkpt lat="43.3027726" lon="12.7735302"><ele>513.0</ele><time>2026-04-04T13:27:50.201Z</time></trkpt><trkpt lat="43.3027181" lon="12.7738417"><ele>518.0</ele><time>2026-04-04T13:27:51.2Z</time></trkpt><trkpt lat="43.3026559" lon="12.7741542"><ele>520.5</ele><time>2026-04-04T13:27:52.2Z</time></trkpt><trkpt lat="43.3025836" lon="12.7744618"><ele>523.0</ele><time>2026-04-04T13:27:53.2Z</time></trkpt><trkpt lat="43.3025058" lon="12.7747636"><ele>523.0</ele><time>2026-04-04T13:27:54.2Z</time></trkpt><trkpt lat="43.3024349" lon="12.7750677"><ele>523.0</ele><time>2026-04-04T13:27:55.2Z</time></trkpt><trkpt lat="43.3023623" lon="12.7753684"><ele>524.5</ele><time>2026-04-04T13:27:56.2Z</time></trkpt><trkpt lat="43.3022866" lon="12.775667"><ele>526.0</ele><time>2026-04-04T13:27:57.2Z</time></trkpt><trkpt lat="43.3022135" lon="12.7759584"><ele>526.0</ele><time>2026-04-04T13:27:58.201Z</time></trkpt><trkpt lat="43.3021449" lon="12.7762574"><ele>526.0</ele><time>2026-04-04T13:27:59.2Z</time></trkpt><trkpt lat="43.3020833" lon="12.7765576"><ele>526.0</ele><time>2026-04-04T13:28:00.201Z</time></trkpt><trkpt lat="43.3020337" lon="12.7768607"><ele>526.0</ele><time>2026-04-04T13:28:01.2Z</time></trkpt><trkpt lat="43.3019899" lon="12.777166"><ele>526.0</ele><time>2026-04-04T13:28:02.201Z</time></trkpt><trkpt lat="43.3019591" lon="12.7774725"><ele>526.0</ele><time>2026-04-04T13:28:03.2Z</time></trkpt><trkpt lat="43.3019401" lon="12.7777836"><ele>528.5</ele><time>2026-04-04T13:28:04.2Z</time></trkpt><trkpt lat="43.3019139" lon="12.7780987"><ele>531.0</ele><time>2026-04-04T13:28:05.2Z</time></trkpt><trkpt lat="43.3018995" lon="12.7784187"><ele>534.5</ele><time>2026-04-04T13:28:06.201Z</time></trkpt><trkpt lat="43.3018981" lon="12.7787369"><ele>538.0</ele><time>2026-04-04T13:28:07.201Z</time></trkpt><trkpt lat="43.3020434" lon="12.7802228"><ele>546.0</ele><time>2026-04-04T13:28:12.2Z</time></trkpt><trkpt lat="43.302102" lon="12.7805506"><ele>554.0</ele><time>2026-04-04T13:28:13.2Z</time></trkpt><trkpt lat="43.3021411" lon="12.7808505"><ele>561.0</ele><time>2026-04-04T13:28:14.201Z</time></trkpt><trkpt lat="43.3021829" lon="12.7811582"><ele>568.0</ele><time>2026-04-04T13:28:15.2Z</time></trkpt><trkpt lat="43.3011347" lon="12.7888805"><ele>576.0</ele><time>2026-04-04T13:28:41.201Z</time></trkpt><trkpt lat="43.3010279" lon="12.7891484"><ele>584.0</ele><time>2026-04-04T13:28:42.201Z</time></trkpt><trkpt lat="43.3009207" lon="12.7894157"><ele>592.0</ele><time>2026-04-04T13:28:43.201Z</time></trkpt><trkpt lat="43.2996106" lon="12.7943388"><ele>592.0</ele><time>2026-04-04T13:29:00.2Z</time></trkpt><trkpt lat="43.2995833" lon="12.794651"><ele>592.0</ele><time>2026-04-04T13:29:01.201Z</time></trkpt><trkpt lat="43.2995622" lon="12.794963"><ele>602.0</ele><time>2026-04-04T13:29:02.201Z</time></trkpt><trkpt lat="43.2995367" lon="12.7952702"><ele>612.0</ele><time>2026-04-04T13:29:03.201Z</time></trkpt><trkpt lat="43.2995321" lon="12.7955931"><ele>612.0</ele><time>2026-04-04T13:29:04.201Z</time></trkpt><trkpt lat="43.2995202" lon="12.7959173"><ele>612.0</ele><time>2026-04-04T13:29:05.201Z</time></trkpt><trkpt lat="43.2995103" lon="12.7962364"><ele>571.0</ele><time>2026-04-04T13:29:06.201Z</time></trkpt><trkpt lat="43.2991113" lon="12.8078476"><ele>571.0</ele><time>2026-04-04T13:29:41.201Z</time></trkpt><trkpt lat="43.2991107" lon="12.8081712"><ele>571.0</ele><time>2026-04-04T13:29:42.2Z</time></trkpt><trkpt lat="43.2991136" lon="12.8085028"><ele>574.0</ele><time>2026-04-04T13:29:43.2Z</time></trkpt><trkpt lat="43.2991174" lon="12.808831"><ele>577.0</ele><time>2026-04-04T13:29:44.2Z</time></trkpt><trkpt lat="43.2991397" lon="12.8091606"><ele>591.5</ele><time>2026-04-04T13:29:45.2Z</time></trkpt><trkpt lat="43.2991531" lon="12.8094906"><ele>606.0</ele><time>2026-04-04T13:29:46.2Z</time></trkpt><trkpt lat="43.2991732" lon="12.8098241"><ele>620.0</ele><time>2026-04-04T13:29:47.2Z</time></trkpt><trkpt lat="43.299204" lon="12.8101625"><ele>634.0</ele><time>2026-04-04T13:29:48.2Z</time></trkpt><trkpt lat="43.303224" lon="12.8238171"><ele>589.6666666666667</ele><time>2026-04-04T13:30:30.2Z</time></trkpt><trkpt lat="43.3033217" lon="12.8240144"><ele>545.3333333333334</ele><time>2026-04-04T13:30:31.2Z</time></trkpt><trkpt lat="43.3033917" lon="12.8243082"><ele>501.0</ele><time>2026-04-04T13:30:32.2Z</time></trkpt><trkpt lat="43.3034461" lon="12.8246168"><ele>496.0</ele><time>2026-04-04T13:30:33.2Z</time></trkpt><trkpt lat="43.3034838" lon="12.8249313"><ele>491.0</ele><time>2026-04-04T13:30:34.2Z</time></trkpt><trkpt lat="43.3035125" lon="12.8252331"><ele>491.0</ele><time>2026-04-04T13:30:35.2Z</time></trkpt><trkpt lat="43.303541" lon="12.8255442"><ele>491.0</ele><time>2026-04-04T13:30:36.2Z</time></trkpt><trkpt lat="43.3035482" lon="12.8258642"><ele>493.5</ele><time>2026-04-04T13:30:37.2Z</time></trkpt><trkpt lat="43.3035435" lon="12.8261889"><ele>496.0</ele><time>2026-04-04T13:30:38.201Z</time></trkpt><trkpt lat="43.303525" lon="12.8265181"><ele>501.5</ele><time>2026-04-04T13:30:39.2Z</time></trkpt><trkpt lat="43.3035014" lon="12.8268404"><ele>507.0</ele><time>2026-04-04T13:30:40.2Z</time></trkpt><trkpt lat="43.3034693" lon="12.8271704"><ele>470.0</ele><time>2026-04-04T13:30:41.2Z</time></trkpt><trkpt lat="43.3029981" lon="12.8315688"><ele>465.0</ele><time>2026-04-04T13:30:54.2Z</time></trkpt><trkpt lat="43.3029683" lon="12.8318649"><ele>460.0</ele><time>2026-04-04T13:30:55.201Z</time></trkpt><trkpt lat="43.3029423" lon="12.8321984"><ele>460.0</ele><time>2026-04-04T13:30:56.201Z</time></trkpt><trkpt lat="43.302909" lon="12.8325394"><ele>460.0</ele><time>2026-04-04T13:30:57.2Z</time></trkpt><trkpt lat="43.3028757" lon="12.8328869"><ele>456.5</ele><time>2026-04-04T13:30:58.2Z</time></trkpt><trkpt lat="43.3028431" lon="12.8332302"><ele>453.0</ele><time>2026-04-04T13:30:59.2Z</time></trkpt><trkpt lat="43.302809" lon="12.8335761"><ele>450.5</ele><time>2026-04-04T13:31:00.2Z</time></trkpt><trkpt lat="43.3027731" lon="12.8339162"><ele>448.0</ele><time>2026-04-04T13:31:01.2Z</time></trkpt><trkpt lat="43.3027375" lon="12.8342518"><ele>447.0</ele><time>2026-04-04T13:31:02.201Z</time></trkpt><trkpt lat="43.3027122" lon="12.8345884"><ele>446.0</ele><time>2026-04-04T13:31:03.2Z</time></trkpt><trkpt lat="43.3026805" lon="12.8349278"><ele>444.5</ele><time>2026-04-04T13:31:04.2Z</time></trkpt><trkpt lat="43.3026478" lon="12.8352644"><ele>443.0</ele><time>2026-04-04T13:31:05.2Z</time></trkpt><trkpt lat="43.302618" lon="12.8355957"><ele>443.0</ele><time>2026-04-04T13:31:06.2Z</time></trkpt><trkpt lat="43.3025852" lon="12.8359305"><ele>443.0</ele><time>2026-04-04T13:31:07.2Z</time></trkpt><trkpt lat="43.3025509" lon="12.8362653"><ele>441.0</ele><time>2026-04-04T13:31:08.201Z</time></trkpt><trkpt lat="43.3025236" lon="12.8366018"><ele>439.0</ele><time>2026-04-04T13:31:09.2Z</time></trkpt><trkpt lat="43.3025063" lon="12.8369375"><ele>437.5</ele><time>2026-04-04T13:31:10.201Z</time></trkpt><trkpt lat="43.3025088" lon="12.8372748"><ele>436.0</ele><time>2026-04-04T13:31:11.2Z</time></trkpt><trkpt lat="43.3025194" lon="12.8376116"><ele>434.0</ele><time>2026-04-04T13:31:12.2Z</time></trkpt><trkpt lat="43.3025487" lon="12.837951"><ele>432.0</ele><time>2026-04-04T13:31:13.2Z</time></trkpt><trkpt lat="43.3025943" lon="12.838285"><ele>429.0</ele><time>2026-04-04T13:31:14.201Z</time></trkpt><trkpt lat="43.3026544" lon="12.8386139"><ele>426.0</ele><time>2026-04-04T13:31:15.201Z</time></trkpt><trkpt lat="43.3027288" lon="12.838938"><ele>426.0</ele><time>2026-04-04T13:31:16.2Z</time></trkpt><trkpt lat="43.3028202" lon="12.8392556"><ele>426.0</ele><time>2026-04-04T13:31:17.2Z</time></trkpt><trkpt lat="43.3029252" lon="12.8395634"><ele>424.0</ele><time>2026-04-04T13:31:18.2Z</time></trkpt><trkpt lat="43.3030463" lon="12.8398604"><ele>422.0</ele><time>2026-04-04T13:31:19.2Z</time></trkpt><trkpt lat="43.3031844" lon="12.8401427"><ele>422.0</ele><time>2026-04-04T13:31:20.201Z</time></trkpt><trkpt lat="43.3033381" lon="12.8404127"><ele>422.0</ele><time>2026-04-04T13:31:21.201Z</time></trkpt><trkpt lat="43.3035067" lon="12.8406701"><ele>422.0</ele><time>2026-04-04T13:31:22.2Z</time></trkpt><trkpt lat="43.3036856" lon="12.8409172"><ele>422.0</ele><time>2026-04-04T13:31:23.2Z</time></trkpt><trkpt lat="43.3038787" lon="12.841147"><ele>421.5</ele><time>2026-04-04T13:31:24.201Z</time></trkpt><trkpt lat="43.3040805" lon="12.8413629"><ele>421.0</ele><time>2026-04-04T13:31:25.201Z</time></trkpt><trkpt lat="43.3042848" lon="12.8415738"><ele>421.0</ele><time>2026-04-04T13:31:26.201Z</time></trkpt><trkpt lat="43.3044889" lon="12.8417859"><ele>421.0</ele><time>2026-04-04T13:31:27.2Z</time></trkpt><trkpt lat="43.3046811" lon="12.8420157"><ele>420.0</ele><time>2026-04-04T13:31:28.2Z</time></trkpt><trkpt lat="43.3048657" lon="12.8422563"><ele>419.0</ele><time>2026-04-04T13:31:29.2Z</time></trkpt><trkpt lat="43.3050481" lon="12.8425005"><ele>411.0</ele><time>2026-04-04T13:31:30.2Z</time></trkpt><trkpt lat="43.3052303" lon="12.8427466"><ele>403.0</ele><time>2026-04-04T13:31:31.2Z</time></trkpt><trkpt lat="43.305414" lon="12.8429933"><ele>403.0</ele><time>2026-04-04T13:31:32.2Z</time></trkpt><trkpt lat="43.3055999" lon="12.8432396"><ele>403.0</ele><time>2026-04-04T13:31:33.2Z</time></trkpt><trkpt lat="43.3057852" lon="12.8434901"><ele>403.0</ele><time>2026-04-04T13:31:34.2Z</time></trkpt><trkpt lat="43.3059716" lon="12.843743"><ele>403.0</ele><time>2026-04-04T13:31:35.201Z</time></trkpt><trkpt lat="43.3061567" lon="12.8440003"><ele>403.0</ele><time>2026-04-04T13:31:36.201Z</time></trkpt><trkpt lat="43.3063363" lon="12.844257"><ele>403.0</ele><time>2026-04-04T13:31:37.201Z</time></trkpt><trkpt lat="43.3065117" lon="12.8445113"><ele>406.5</ele><time>2026-04-04T13:31:38.2Z</time></trkpt><trkpt lat="43.3066951" lon="12.8447936"><ele>410.0</ele><time>2026-04-04T13:31:39.2Z</time></trkpt><trkpt lat="43.3068688" lon="12.8450761"><ele>405.5</ele><time>2026-04-04T13:31:40.2Z</time></trkpt><trkpt lat="43.3070469" lon="12.8453611"><ele>401.0</ele><time>2026-04-04T13:31:41.201Z</time></trkpt><trkpt lat="43.3072124" lon="12.845643"><ele>401.5</ele><time>2026-04-04T13:31:42.2Z</time></trkpt><trkpt lat="43.3073771" lon="12.8459322"><ele>402.0</ele><time>2026-04-04T13:31:43.2Z</time></trkpt><trkpt lat="43.3075427" lon="12.8462096"><ele>402.0</ele><time>2026-04-04T13:31:44.2Z</time></trkpt><trkpt lat="43.3077038" lon="12.8464923"><ele>402.0</ele><time>2026-04-04T13:31:45.2Z</time></trkpt><trkpt lat="43.3078644" lon="12.8467778"><ele>399.5</ele><time>2026-04-04T13:31:46.2Z</time></trkpt><trkpt lat="43.3080296" lon="12.8470699"><ele>397.0</ele><time>2026-04-04T13:31:47.2Z</time></trkpt><trkpt lat="43.3081849" lon="12.8473562"><ele>398.5</ele><time>2026-04-04T13:31:48.2Z</time></trkpt><trkpt lat="43.3083371" lon="12.847652"><ele>400.0</ele><time>2026-04-04T13:31:49.2Z</time></trkpt><trkpt lat="43.3084828" lon="12.8479434"><ele>400.0</ele><time>2026-04-04T13:31:50.2Z</time></trkpt><trkpt lat="43.3086246" lon="12.8482509"><ele>400.0</ele><time>2026-04-04T13:31:51.2Z</time></trkpt><trkpt lat="43.3087565" lon="12.8485546"><ele>397.0</ele><time>2026-04-04T13:31:52.2Z</time></trkpt><trkpt lat="43.3088771" lon="12.8488621"><ele>394.0</ele><time>2026-04-04T13:31:53.201Z</time></trkpt><trkpt lat="43.3089911" lon="12.8491798"><ele>396.5</ele><time>2026-04-04T13:31:54.201Z</time></trkpt><trkpt lat="43.3090973" lon="12.8495065"><ele>399.0</ele><time>2026-04-04T13:31:55.2Z</time></trkpt><trkpt lat="43.309204" lon="12.8498386"><ele>396.0</ele><time>2026-04-04T13:31:56.2Z</time></trkpt><trkpt lat="43.3092974" lon="12.8501682"><ele>393.0</ele><time>2026-04-04T13:31:57.2Z</time></trkpt><trkpt lat="43.3093888" lon="12.8505016"><ele>393.0</ele><time>2026-04-04T13:31:58.2Z</time></trkpt><trkpt lat="43.3094706" lon="12.85083"><ele>393.0</ele><time>2026-04-04T13:31:59.2Z</time></trkpt><trkpt lat="43.3095469" lon="12.8511638"><ele>392.0</ele><time>2026-04-04T13:32:00.2Z</time></trkpt><trkpt lat="43.3096168" lon="12.8515001"><ele>391.0</ele><time>2026-04-04T13:32:01.2Z</time></trkpt><trkpt lat="43.3096877" lon="12.851835"><ele>396.0</ele><time>2026-04-04T13:32:02.201Z</time></trkpt><trkpt lat="43.309757" lon="12.8521696"><ele>401.0</ele><time>2026-04-04T13:32:03.2Z</time></trkpt><trkpt lat="43.3098242" lon="12.8525034"><ele>398.0</ele><time>2026-04-04T13:32:04.2Z</time></trkpt><trkpt lat="43.3098864" lon="12.8528327"><ele>395.0</ele><time>2026-04-04T13:32:05.201Z</time></trkpt><trkpt lat="43.3099504" lon="12.853167"><ele>393.5</ele><time>2026-04-04T13:32:06.2Z</time></trkpt><trkpt lat="43.3100186" lon="12.8535034"><ele>392.0</ele><time>2026-04-04T13:32:07.2Z</time></trkpt><trkpt lat="43.3100761" lon="12.853839"><ele>392.0</ele><time>2026-04-04T13:32:08.2Z</time></trkpt><trkpt lat="43.3101386" lon="12.8541734"><ele>392.0</ele><time>2026-04-04T13:32:09.201Z</time></trkpt><trkpt lat="43.3102043" lon="12.8545052"><ele>391.0</ele><time>2026-04-04T13:32:10.2Z</time></trkpt><trkpt lat="43.3102694" lon="12.8548462"><ele>390.0</ele><time>2026-04-04T13:32:11.2Z</time></trkpt><trkpt lat="43.3103307" lon="12.8551877"><ele>390.0</ele><time>2026-04-04T13:32:12.201Z</time></trkpt><trkpt lat="43.3103968" lon="12.8555188"><ele>390.0</ele><time>2026-04-04T13:32:13.2Z</time></trkpt><trkpt lat="43.3104618" lon="12.8558555"><ele>388.5</ele><time>2026-04-04T13:32:14.2Z</time></trkpt><trkpt lat="43.3105258" lon="12.8561856"><ele>387.0</ele><time>2026-04-04T13:32:15.2Z</time></trkpt><trkpt lat="43.3105919" lon="12.8565138"><ele>384.5</ele><time>2026-04-04T13:32:16.201Z</time></trkpt><trkpt lat="43.3106529" lon="12.8568317"><ele>382.0</ele><time>2026-04-04T13:32:17.2Z</time></trkpt><trkpt lat="43.3107134" lon="12.8571525"><ele>382.0</ele><time>2026-04-04T13:32:18.2Z</time></trkpt><trkpt lat="43.3107748" lon="12.8574717"><ele>382.0</ele><time>2026-04-04T13:32:19.2Z</time></trkpt><trkpt lat="43.3108396" lon="12.8577793"><ele>380.5</ele><time>2026-04-04T13:32:20.2Z</time></trkpt><trkpt lat="43.3109065" lon="12.8580895"><ele>379.0</ele><time>2026-04-04T13:32:21.201Z</time></trkpt><trkpt lat="43.3109806" lon="12.8584013"><ele>378.5</ele><time>2026-04-04T13:32:22.201Z</time></trkpt><trkpt lat="43.3110631" lon="12.8587113"><ele>378.0</ele><time>2026-04-04T13:32:23.2Z</time></trkpt><trkpt lat="43.3111591" lon="12.8590176"><ele>378.5</ele><time>2026-04-04T13:32:24.201Z</time></trkpt><trkpt lat="43.3112626" lon="12.85932"><ele>379.0</ele><time>2026-04-04T13:32:25.201Z</time></trkpt><trkpt lat="43.3113795" lon="12.859617"><ele>378.0</ele><time>2026-04-04T13:32:26.201Z</time></trkpt><trkpt lat="43.3115056" lon="12.8599107"><ele>377.0</ele><time>2026-04-04T13:32:27.2Z</time></trkpt><trkpt lat="43.3116312" lon="12.860196"><ele>379.5</ele><time>2026-04-04T13:32:28.2Z</time></trkpt><trkpt lat="43.3117655" lon="12.8604677"><ele>382.0</ele><time>2026-04-04T13:32:29.2Z</time></trkpt><trkpt lat="43.3119032" lon="12.860739"><ele>386.5</ele><time>2026-04-04T13:32:30.201Z</time></trkpt><trkpt lat="43.3120458" lon="12.8610007"><ele>391.0</ele><time>2026-04-04T13:32:31.201Z</time></trkpt><trkpt lat="43.3121933" lon="12.8612599"><ele>387.5</ele><time>2026-04-04T13:32:32.2Z</time></trkpt><trkpt lat="43.3123444" lon="12.8615101"><ele>384.0</ele><time>2026-04-04T13:32:33.201Z</time></trkpt><trkpt lat="43.3125123" lon="12.8617569"><ele>385.5</ele><time>2026-04-04T13:32:34.2Z</time></trkpt><trkpt lat="43.312666" lon="12.8619945"><ele>387.0</ele><time>2026-04-04T13:32:35.2Z</time></trkpt><trkpt lat="43.31282" lon="12.8622402"><ele>387.0</ele><time>2026-04-04T13:32:36.2Z</time></trkpt><trkpt lat="43.3129751" lon="12.8624756"><ele>387.0</ele><time>2026-04-04T13:32:37.2Z</time></trkpt><trkpt lat="43.313133" lon="12.8627204"><ele>387.0</ele><time>2026-04-04T13:32:38.2Z</time></trkpt><trkpt lat="43.3132812" lon="12.8629527"><ele>387.0</ele><time>2026-04-04T13:32:39.2Z</time></trkpt><trkpt lat="43.3134304" lon="12.8631925"><ele>387.0</ele><time>2026-04-04T13:32:40.2Z</time></trkpt><trkpt lat="43.3135696" lon="12.8634414"><ele>387.0</ele><time>2026-04-04T13:32:41.2Z</time></trkpt><trkpt lat="43.3137017" lon="12.8636839"><ele>387.0</ele><time>2026-04-04T13:32:42.2Z</time></trkpt><trkpt lat="43.3138259" lon="12.8639275"><ele>389.0</ele><time>2026-04-04T13:32:43.201Z</time></trkpt><trkpt lat="43.3139412" lon="12.8641699"><ele>391.0</ele><time>2026-04-04T13:32:44.2Z</time></trkpt><trkpt lat="43.3140466" lon="12.8644198"><ele>393.0</ele><time>2026-04-04T13:32:45.2Z</time></trkpt><trkpt lat="43.3141469" lon="12.8646764"><ele>393.0</ele><time>2026-04-04T13:32:46.201Z</time></trkpt><trkpt lat="43.314238" lon="12.8649408"><ele>393.0</ele><time>2026-04-04T13:32:47.2Z</time></trkpt><trkpt lat="43.3143271" lon="12.8652029"><ele>393.0</ele><time>2026-04-04T13:32:48.201Z</time></trkpt><trkpt lat="43.3144095" lon="12.8654684"><ele>390.0</ele><time>2026-04-04T13:32:49.2Z</time></trkpt><trkpt lat="43.3151786" lon="12.8715288"><ele>394.5</ele><time>2026-04-04T13:33:08.2Z</time></trkpt><trkpt lat="43.3152046" lon="12.8718621"><ele>399.0</ele><time>2026-04-04T13:33:09.2Z</time></trkpt><trkpt lat="43.3152327" lon="12.8721773"><ele>399.0</ele><time>2026-04-04T13:33:10.2Z</time></trkpt><trkpt lat="43.3152665" lon="12.8725022"><ele>399.0</ele><time>2026-04-04T13:33:11.2Z</time></trkpt><trkpt lat="43.3152971" lon="12.8728295"><ele>364.0</ele><time>2026-04-04T13:33:12.2Z</time></trkpt><trkpt lat="43.3198492" lon="12.8910914"><ele>364.0</ele><time>2026-04-04T13:34:07.2Z</time></trkpt><trkpt lat="43.3199221" lon="12.8913901"><ele>364.0</ele><time>2026-04-04T13:34:08.2Z</time></trkpt><trkpt lat="43.3200054" lon="12.8916767"><ele>372.0</ele><time>2026-04-04T13:34:09.2Z</time></trkpt><trkpt lat="43.3200987" lon="12.8919706"><ele>380.0</ele><time>2026-04-04T13:34:10.201Z</time></trkpt><trkpt lat="43.3202004" lon="12.8922572"><ele>380.0</ele><time>2026-04-04T13:34:11.2Z</time></trkpt><trkpt lat="43.320286" lon="12.8925401"><ele>380.0</ele><time>2026-04-04T13:34:12.2Z</time></trkpt><trkpt lat="43.3203784" lon="12.8928319"><ele>385.0</ele><time>2026-04-04T13:34:13.2Z</time></trkpt><trkpt lat="43.3204696" lon="12.8931234"><ele>390.0</ele><time>2026-04-04T13:34:14.2Z</time></trkpt><trkpt lat="43.3242926" lon="12.9053765"><ele>390.0</ele><time>2026-04-04T13:34:56.198Z</time></trkpt><trkpt lat="43.324354" lon="12.9056758"><ele>390.0</ele><time>2026-04-04T13:34:57.198Z</time></trkpt><trkpt lat="43.3244287" lon="12.9059752"><ele>393.5</ele><time>2026-04-04T13:34:58.198Z</time></trkpt><trkpt lat="43.3244938" lon="12.9062841"><ele>397.0</ele><time>2026-04-04T13:34:59.198Z</time></trkpt><trkpt lat="43.3245568" lon="12.9065895"><ele>401.0</ele><time>2026-04-04T13:35:00.198Z</time></trkpt><trkpt lat="43.3246128" lon="12.9068982"><ele>405.0</ele><time>2026-04-04T13:35:01.198Z</time></trkpt><trkpt lat="43.3246699" lon="12.9072082"><ele>405.0</ele><time>2026-04-04T13:35:02.199Z</time></trkpt><trkpt lat="43.3247253" lon="12.9075195"><ele>405.0</ele><time>2026-04-04T13:35:03.198Z</time></trkpt><trkpt lat="43.3247739" lon="12.9078288"><ele>396.5</ele><time>2026-04-04T13:35:04.199Z</time></trkpt><trkpt lat="43.3248189" lon="12.9081463"><ele>388.0</ele><time>2026-04-04T13:35:05.199Z</time></trkpt><trkpt lat="43.3248652" lon="12.9084634"><ele>388.0</ele><time>2026-04-04T13:35:06.198Z</time></trkpt><trkpt lat="43.3249037" lon="12.9087795"><ele>388.0</ele><time>2026-04-04T13:35:07.198Z</time></trkpt><trkpt lat="43.3249446" lon="12.9090951"><ele>390.0</ele><time>2026-04-04T13:35:08.198Z</time></trkpt><trkpt lat="43.3249836" lon="12.9094146"><ele>392.0</ele><time>2026-04-04T13:35:09.198Z</time></trkpt><trkpt lat="43.3250245" lon="12.9097318"><ele>392.0</ele><time>2026-04-04T13:35:10.198Z</time></trkpt><trkpt lat="43.3250652" lon="12.9100476"><ele>392.0</ele><time>2026-04-04T13:35:11.198Z</time></trkpt><trkpt lat="43.3251048" lon="12.9103663"><ele>362.0</ele><time>2026-04-04T13:35:12.199Z</time></trkpt><trkpt lat="43.3259906" lon="12.9170767"><ele>362.0</ele><time>2026-04-04T13:35:35.198Z</time></trkpt><trkpt lat="43.3260082" lon="12.9173106"><ele>362.0</ele><time>2026-04-04T13:35:36.198Z</time></trkpt><trkpt lat="43.326041" lon="12.9175359"><ele>362.0</ele><time>2026-04-04T13:35:37.199Z</time></trkpt><trkpt lat="43.3260698" lon="12.9177627"><ele>360.33333333333337</ele><time>2026-04-04T13:35:38.198Z</time></trkpt><trkpt lat="43.326105" lon="12.9179868"><ele>358.6666666666667</ele><time>2026-04-04T13:35:39.198Z</time></trkpt><trkpt lat="43.3261502" lon="12.9182309"><ele>357.0</ele><time>2026-04-04T13:35:40.198Z</time></trkpt><trkpt lat="43.3261951" lon="12.9184853"><ele>355.0</ele><time>2026-04-04T13:35:41.199Z</time></trkpt><trkpt lat="43.3262509" lon="12.9187561"><ele>353.0</ele><time>2026-04-04T13:35:42.198Z</time></trkpt><trkpt lat="43.3263143" lon="12.9190296"><ele>351.0</ele><time>2026-04-04T13:35:43.199Z</time></trkpt><trkpt lat="43.3263719" lon="12.9193159"><ele>351.0</ele><time>2026-04-04T13:35:44.198Z</time></trkpt><trkpt lat="43.3264423" lon="12.9195983"><ele>351.0</ele><time>2026-04-04T13:35:45.198Z</time></trkpt><trkpt lat="43.326517" lon="12.9198843"><ele>351.0</ele><time>2026-04-04T13:35:46.198Z</time></trkpt><trkpt lat="43.3265968" lon="12.9201759"><ele>351.0</ele><time>2026-04-04T13:35:47.198Z</time></trkpt><trkpt lat="43.3266839" lon="12.9204698"><ele>351.0</ele><time>2026-04-04T13:35:48.198Z</time></trkpt><trkpt lat="43.3267769" lon="12.9207622"><ele>348.0</ele><time>2026-04-04T13:35:49.198Z</time></trkpt><trkpt lat="43.3268749" lon="12.9210523"><ele>345.0</ele><time>2026-04-04T13:35:50.198Z</time></trkpt><trkpt lat="43.32698" lon="12.9213424"><ele>345.0</ele><time>2026-04-04T13:35:51.199Z</time></trkpt><trkpt lat="43.3270911" lon="12.9216289"><ele>345.0</ele><time>2026-04-04T13:35:52.198Z</time></trkpt><trkpt lat="43.3272078" lon="12.9219158"><ele>347.5</ele><time>2026-04-04T13:35:53.199Z</time></trkpt><trkpt lat="43.327334" lon="12.9221941"><ele>350.0</ele><time>2026-04-04T13:35:54.199Z</time></trkpt><trkpt lat="43.3274602" lon="12.9224684"><ele>347.0</ele><time>2026-04-04T13:35:55.198Z</time></trkpt><trkpt lat="43.3275906" lon="12.9227408"><ele>344.0</ele><time>2026-04-04T13:35:56.198Z</time></trkpt><trkpt lat="43.3277265" lon="12.9230048"><ele>344.0</ele><time>2026-04-04T13:35:57.198Z</time></trkpt><trkpt lat="43.3278698" lon="12.9232616"><ele>344.0</ele><time>2026-04-04T13:35:58.199Z</time></trkpt><trkpt lat="43.3280205" lon="12.9235184"><ele>341.0</ele><time>2026-04-04T13:35:59.198Z</time></trkpt><trkpt lat="43.3281722" lon="12.9237751"><ele>338.0</ele><time>2026-04-04T13:36:00.198Z</time></trkpt><trkpt lat="43.3283301" lon="12.9240227"><ele>334.5</ele><time>2026-04-04T13:36:01.198Z</time></trkpt><trkpt lat="43.3284936" lon="12.924266"><ele>331.0</ele><time>2026-04-04T13:36:02.198Z</time></trkpt><trkpt lat="43.3286624" lon="12.9245027"><ele>331.0</ele><time>2026-04-04T13:36:03.199Z</time></trkpt><trkpt lat="43.3288364" lon="12.924733"><ele>331.0</ele><time>2026-04-04T13:36:04.198Z</time></trkpt><trkpt lat="43.3290144" lon="12.9249596"><ele>328.5</ele><time>2026-04-04T13:36:05.198Z</time></trkpt><trkpt lat="43.3291978" lon="12.9251772"><ele>326.0</ele><time>2026-04-04T13:36:06.198Z</time></trkpt><trkpt lat="43.3293859" lon="12.9253911"><ele>326.0</ele><time>2026-04-04T13:36:07.198Z</time></trkpt><trkpt lat="43.3295756" lon="12.9256054"><ele>326.0</ele><time>2026-04-04T13:36:08.198Z</time></trkpt><trkpt lat="43.3297689" lon="12.9258164"><ele>322.5</ele><time>2026-04-04T13:36:09.198Z</time></trkpt><trkpt lat="43.3299614" lon="12.9260271"><ele>319.0</ele><time>2026-04-04T13:36:10.198Z</time></trkpt><trkpt lat="43.3301566" lon="12.9262361"><ele>319.0</ele><time>2026-04-04T13:36:11.198Z</time></trkpt><trkpt lat="43.330355" lon="12.9264399"><ele>319.0</ele><time>2026-04-04T13:36:12.198Z</time></trkpt><trkpt lat="43.330554" lon="12.9266431"><ele>320.5</ele><time>2026-04-04T13:36:13.198Z</time></trkpt><trkpt lat="43.3307523" lon="12.9268466"><ele>322.0</ele><time>2026-04-04T13:36:14.198Z</time></trkpt><trkpt lat="43.3309513" lon="12.9270478"><ele>322.0</ele><time>2026-04-04T13:36:15.198Z</time></trkpt><trkpt lat="43.3311504" lon="12.9272497"><ele>322.0</ele><time>2026-04-04T13:36:16.198Z</time></trkpt><trkpt lat="43.3313507" lon="12.9274564"><ele>325.0</ele><time>2026-04-04T13:36:17.198Z</time></trkpt><trkpt lat="43.3315517" lon="12.9276628"><ele>328.0</ele><time>2026-04-04T13:36:18.198Z</time></trkpt><trkpt lat="43.3317518" lon="12.9278713"><ele>328.0</ele><time>2026-04-04T13:36:19.198Z</time></trkpt><trkpt lat="43.3319538" lon="12.9280766"><ele>328.0</ele><time>2026-04-04T13:36:20.199Z</time></trkpt><trkpt lat="43.3321556" lon="12.9282796"><ele>332.5</ele><time>2026-04-04T13:36:21.198Z</time></trkpt><trkpt lat="43.3323572" lon="12.9284827"><ele>337.0</ele><time>2026-04-04T13:36:22.198Z</time></trkpt><trkpt lat="43.3325577" lon="12.9286872"><ele>323.0</ele><time>2026-04-04T13:36:23.198Z</time></trkpt><trkpt lat="43.3362206" lon="12.9330329"><ele>318.0</ele><time>2026-04-04T13:36:42.198Z</time></trkpt><trkpt lat="43.3363987" lon="12.933314"><ele>313.0</ele><time>2026-04-04T13:36:43.199Z</time></trkpt><trkpt lat="43.336547" lon="12.9335987"><ele>313.0</ele><time>2026-04-04T13:36:44.198Z</time></trkpt><trkpt lat="43.3367075" lon="12.9338833"><ele>313.0</ele><time>2026-04-04T13:36:45.198Z</time></trkpt><trkpt lat="43.3368541" lon="12.9341728"><ele>313.5</ele><time>2026-04-04T13:36:46.199Z</time></trkpt><trkpt lat="43.3370002" lon="12.9344643"><ele>314.0</ele><time>2026-04-04T13:36:47.198Z</time></trkpt><trkpt lat="43.3371393" lon="12.9347625"><ele>313.5</ele><time>2026-04-04T13:36:48.198Z</time></trkpt><trkpt lat="43.337277" lon="12.9350593"><ele>313.0</ele><time>2026-04-04T13:36:49.198Z</time></trkpt><trkpt lat="43.3374009" lon="12.9353577"><ele>313.0</ele><time>2026-04-04T13:36:50.199Z</time></trkpt><trkpt lat="43.3375209" lon="12.9356609"><ele>313.0</ele><time>2026-04-04T13:36:51.198Z</time></trkpt><trkpt lat="43.3376388" lon="12.9359661"><ele>311.0</ele><time>2026-04-04T13:36:52.198Z</time></trkpt><trkpt lat="43.3377533" lon="12.9362643"><ele>309.0</ele><time>2026-04-04T13:36:53.198Z</time></trkpt><trkpt lat="43.3378651" lon="12.9365707"><ele>308.5</ele><time>2026-04-04T13:36:54.199Z</time></trkpt><trkpt lat="43.3379771" lon="12.9368758"><ele>308.0</ele><time>2026-04-04T13:36:55.198Z</time></trkpt><trkpt lat="43.3380878" lon="12.937182"><ele>308.0</ele><time>2026-04-04T13:36:56.198Z</time></trkpt><trkpt lat="43.3381979" lon="12.9374868"><ele>308.0</ele><time>2026-04-04T13:36:57.198Z</time></trkpt><trkpt lat="43.3383121" lon="12.9377872"><ele>311.5</ele><time>2026-04-04T13:36:58.199Z</time></trkpt><trkpt lat="43.3384266" lon="12.938085"><ele>315.0</ele><time>2026-04-04T13:36:59.199Z</time></trkpt><trkpt lat="43.3385387" lon="12.9383884"><ele>320.5</ele><time>2026-04-04T13:37:00.198Z</time></trkpt><trkpt lat="43.3386449" lon="12.9386827"><ele>326.0</ele><time>2026-04-04T13:37:01.198Z</time></trkpt><trkpt lat="43.3387513" lon="12.9389798"><ele>330.5</ele><time>2026-04-04T13:37:02.198Z</time></trkpt><trkpt lat="43.3388584" lon="12.9392765"><ele>335.0</ele><time>2026-04-04T13:37:03.198Z</time></trkpt><trkpt lat="43.3407144" lon="12.944221"><ele>314.0</ele><time>2026-04-04T13:37:19.198Z</time></trkpt><trkpt lat="43.3408136" lon="12.9445313"><ele>293.0</ele><time>2026-04-04T13:37:20.198Z</time></trkpt><trkpt lat="43.3409323" lon="12.9448071"><ele>300.0</ele><time>2026-04-04T13:37:21.198Z</time></trkpt><trkpt lat="43.3410334" lon="12.9450879"><ele>307.0</ele><time>2026-04-04T13:37:22.198Z</time></trkpt><trkpt lat="43.3411293" lon="12.9453658"><ele>307.0</ele><time>2026-04-04T13:37:23.198Z</time></trkpt><trkpt lat="43.3412288" lon="12.9456518"><ele>307.0</ele><time>2026-04-04T13:37:24.198Z</time></trkpt><trkpt lat="43.3413219" lon="12.9459411"><ele>276.0</ele><time>2026-04-04T13:37:25.198Z</time></trkpt><trkpt lat="43.3415944" lon="12.9468277"><ele>276.0</ele><time>2026-04-04T13:37:28.199Z</time></trkpt><trkpt lat="43.3416454" lon="12.9471118"><ele>276.0</ele><time>2026-04-04T13:37:29.198Z</time></trkpt><trkpt lat="43.3417312" lon="12.9474049"><ele>276.0</ele><time>2026-04-04T13:37:30.199Z</time></trkpt><trkpt lat="43.3418161" lon="12.9477066"><ele>275.5</ele><time>2026-04-04T13:37:31.198Z</time></trkpt><trkpt lat="43.3419034" lon="12.9480075"><ele>275.0</ele><time>2026-04-04T13:37:32.199Z</time></trkpt><trkpt lat="43.3419852" lon="12.9483095"><ele>274.5</ele><time>2026-04-04T13:37:33.198Z</time></trkpt><trkpt lat="43.3420636" lon="12.9486092"><ele>274.0</ele><time>2026-04-04T13:37:34.199Z</time></trkpt><trkpt lat="43.3421414" lon="12.9489"><ele>274.0</ele><time>2026-04-04T13:37:35.198Z</time></trkpt><trkpt lat="43.342213" lon="12.9491854"><ele>274.0</ele><time>2026-04-04T13:37:36.198Z</time></trkpt><trkpt lat="43.3422865" lon="12.9494587"><ele>274.0</ele><time>2026-04-04T13:37:37.198Z</time></trkpt><trkpt lat="43.342358" lon="12.949726"><ele>272.66666666666663</ele><time>2026-04-04T13:37:38.199Z</time></trkpt><trkpt lat="43.3424251" lon="12.9499849"><ele>271.3333333333333</ele><time>2026-04-04T13:37:39.198Z</time></trkpt><trkpt lat="43.3424902" lon="12.9502308"><ele>270.0</ele><time>2026-04-04T13:37:40.198Z</time></trkpt><trkpt lat="43.3425508" lon="12.9504622"><ele>270.0</ele><time>2026-04-04T13:37:41.198Z</time></trkpt><trkpt lat="43.3426008" lon="12.9506761"><ele>270.0</ele><time>2026-04-04T13:37:42.198Z</time></trkpt><trkpt lat="43.3426429" lon="12.9508626"><ele>270.0</ele><time>2026-04-04T13:37:43.198Z</time></trkpt><trkpt lat="43.3426625" lon="12.9510296"><ele>270.0</ele><time>2026-04-04T13:37:44.198Z</time></trkpt><trkpt lat="43.3426504" lon="12.9511938"><ele>269.25</ele><time>2026-04-04T13:37:45.198Z</time></trkpt><trkpt lat="43.3426051" lon="12.9513512"><ele>268.5</ele><time>2026-04-04T13:37:46.198Z</time></trkpt><trkpt lat="43.3425316" lon="12.9514907"><ele>267.75</ele><time>2026-04-04T13:37:47.199Z</time></trkpt><trkpt lat="43.3424338" lon="12.9516002"><ele>267.0</ele><time>2026-04-04T13:37:48.199Z</time></trkpt><trkpt lat="43.342319" lon="12.9516773"><ele>266.75</ele><time>2026-04-04T13:37:49.198Z</time></trkpt><trkpt lat="43.3421977" lon="12.9517391"><ele>266.5</ele><time>2026-04-04T13:37:50.199Z</time></trkpt><trkpt lat="43.3420834" lon="12.9518367"><ele>266.25</ele><time>2026-04-04T13:37:51.198Z</time></trkpt><trkpt lat="43.3419868" lon="12.9519686"><ele>266.0</ele><time>2026-04-04T13:37:52.198Z</time></trkpt><trkpt lat="43.341914" lon="12.9521352"><ele>266.0</ele><time>2026-04-04T13:37:53.198Z</time></trkpt><trkpt lat="43.3418673" lon="12.9523205"><ele>266.0</ele><time>2026-04-04T13:37:54.199Z</time></trkpt><trkpt lat="43.3418501" lon="12.9525076"><ele>266.0</ele><time>2026-04-04T13:37:55.199Z</time></trkpt><trkpt lat="43.3418706" lon="12.9526877"><ele>266.0</ele><time>2026-04-04T13:37:56.198Z</time></trkpt><trkpt lat="43.3419217" lon="12.9528569"><ele>265.75</ele><time>2026-04-04T13:37:57.199Z</time></trkpt><trkpt lat="43.3420109" lon="12.9529957"><ele>265.5</ele><time>2026-04-04T13:37:58.198Z</time></trkpt><trkpt lat="43.3421197" lon="12.9531094"><ele>265.25</ele><time>2026-04-04T13:37:59.199Z</time></trkpt><trkpt lat="43.3422369" lon="12.9532184"><ele>265.0</ele><time>2026-04-04T13:38:00.198Z</time></trkpt><trkpt lat="43.3423605" lon="12.953341"><ele>264.3333333333333</ele><time>2026-04-04T13:38:01.198Z</time></trkpt><trkpt lat="43.3424687" lon="12.9534886"><ele>263.6666666666667</ele><time>2026-04-04T13:38:02.199Z</time></trkpt><trkpt lat="43.3425674" lon="12.953654"><ele>263.0</ele><time>2026-04-04T13:38:03.198Z</time></trkpt><trkpt lat="43.3426611" lon="12.9538408"><ele>263.0</ele><time>2026-04-04T13:38:04.198Z</time></trkpt><trkpt lat="43.3427382" lon="12.9540462"><ele>263.0</ele><time>2026-04-04T13:38:05.198Z</time></trkpt><trkpt lat="43.3428093" lon="12.95425"><ele>263.0</ele><time>2026-04-04T13:38:06.199Z</time></trkpt><trkpt lat="43.3428805" lon="12.9544408"><ele>262.33333333333337</ele><time>2026-04-04T13:38:07.198Z</time></trkpt><trkpt lat="43.3429733" lon="12.954621"><ele>261.6666666666667</ele><time>2026-04-04T13:38:08.198Z</time></trkpt><trkpt lat="43.3430605" lon="12.9547813"><ele>261.0</ele><time>2026-04-04T13:38:09.198Z</time></trkpt><trkpt lat="43.3431829" lon="12.9548844"><ele>260.0</ele><time>2026-04-04T13:38:10.199Z</time></trkpt><trkpt lat="43.3433066" lon="12.9549604"><ele>259.0</ele><time>2026-04-04T13:38:11.199Z</time></trkpt><trkpt lat="43.3434484" lon="12.9549803"><ele>258.0</ele><time>2026-04-04T13:38:12.198Z</time></trkpt><trkpt lat="43.3435904" lon="12.9549568"><ele>257.0</ele><time>2026-04-04T13:38:13.198Z</time></trkpt><trkpt lat="43.3437317" lon="12.9549052"><ele>257.0</ele><time>2026-04-04T13:38:14.199Z</time></trkpt><trkpt lat="43.3438604" lon="12.9548284"><ele>257.0</ele><time>2026-04-04T13:38:15.198Z</time></trkpt><trkpt lat="43.3439658" lon="12.9547527"><ele>257.0</ele><time>2026-04-04T13:38:16.198Z</time></trkpt><trkpt lat="43.3440529" lon="12.9546825"><ele>257.0</ele><time>2026-04-04T13:38:17.199Z</time></trkpt><trkpt lat="43.3441293" lon="12.9546214"><ele>257.0</ele><time>2026-04-04T13:38:18.198Z</time></trkpt><trkpt lat="43.3442069" lon="12.954587"><ele>256.75</ele><time>2026-04-04T13:38:19.198Z</time></trkpt><trkpt lat="43.3442974" lon="12.9545982"><ele>256.5</ele><time>2026-04-04T13:38:20.199Z</time></trkpt><trkpt lat="43.3444058" lon="12.9546346"><ele>256.25</ele><time>2026-04-04T13:38:21.198Z</time></trkpt><trkpt lat="43.3445339" lon="12.9546649"><ele>256.0</ele><time>2026-04-04T13:38:22.199Z</time></trkpt><trkpt lat="43.3446624" lon="12.9546783"><ele>255.8</ele><time>2026-04-04T13:38:23.198Z</time></trkpt><trkpt lat="43.344782" lon="12.9546589"><ele>255.60000000000002</ele><time>2026-04-04T13:38:24.198Z</time></trkpt><trkpt lat="43.3448877" lon="12.9546256"><ele>255.4</ele><time>2026-04-04T13:38:25.198Z</time></trkpt><trkpt lat="43.3449819" lon="12.9545861"><ele>255.2</ele><time>2026-04-04T13:38:26.198Z</time></trkpt><trkpt lat="43.3450691" lon="12.9545713"><ele>255.0</ele><time>2026-04-04T13:38:27.199Z</time></trkpt><trkpt lat="43.345143" lon="12.9545938"><ele>255.0</ele><time>2026-04-04T13:38:28.198Z</time></trkpt><trkpt lat="43.3452107" lon="12.9546464"><ele>255.0</ele><time>2026-04-04T13:38:29.198Z</time></trkpt><trkpt lat="43.3452638" lon="12.9547299"><ele>255.0</ele><time>2026-04-04T13:38:30.199Z</time></trkpt><trkpt lat="43.3453005" lon="12.9548431"><ele>255.0</ele><time>2026-04-04T13:38:31.198Z</time></trkpt><trkpt lat="43.345313" lon="12.9549717"><ele>255.0</ele><time>2026-04-04T13:38:32.198Z</time></trkpt><trkpt lat="43.3453003" lon="12.9551005"><ele>255.0</ele><time>2026-04-04T13:38:33.198Z</time></trkpt><trkpt lat="43.345266" lon="12.9552233"><ele>254.8</ele><time>2026-04-04T13:38:34.198Z</time></trkpt><trkpt lat="43.3452131" lon="12.9553322"><ele>254.6</ele><time>2026-04-04T13:38:35.199Z</time></trkpt><trkpt lat="43.3451602" lon="12.9554387"><ele>254.39999999999998</ele><time>2026-04-04T13:38:36.198Z</time></trkpt><trkpt lat="43.345093" lon="12.9555191"><ele>254.2</ele><time>2026-04-04T13:38:37.198Z</time></trkpt><trkpt lat="43.3450105" lon="12.9555763"><ele>254.0</ele><time>2026-04-04T13:38:38.199Z</time></trkpt><trkpt lat="43.3449205" lon="12.9555997"><ele>254.0</ele><time>2026-04-04T13:38:39.198Z</time></trkpt><trkpt lat="43.3448316" lon="12.9555772"><ele>253.99999999999997</ele><time>2026-04-04T13:38:40.198Z</time></trkpt><trkpt lat="43.3447294" lon="12.9555537"><ele>253.99999999999997</ele><time>2026-04-04T13:38:41.199Z</time></trkpt><trkpt lat="43.344628" lon="12.9555441"><ele>254.0</ele><time>2026-04-04T13:38:42.198Z</time></trkpt><trkpt lat="43.3445241" lon="12.9555786"><ele>254.0</ele><time>2026-04-04T13:38:43.199Z</time></trkpt><trkpt lat="43.3444298" lon="12.9556397"><ele>253.79999999999998</ele><time>2026-04-04T13:38:44.198Z</time></trkpt><trkpt lat="43.3443503" lon="12.9557295"><ele>253.59999999999997</ele><time>2026-04-04T13:38:45.198Z</time></trkpt><trkpt lat="43.3442911" lon="12.9558563"><ele>253.4</ele><time>2026-04-04T13:38:46.198Z</time></trkpt><trkpt lat="43.3442558" lon="12.955986"><ele>253.2</ele><time>2026-04-04T13:38:47.198Z</time></trkpt><trkpt lat="43.3442246" lon="12.9561343"><ele>253.0</ele><time>2026-04-04T13:38:48.198Z</time></trkpt><trkpt lat="43.3441699" lon="12.9562827"><ele>252.33333333333331</ele><time>2026-04-04T13:38:49.199Z</time></trkpt><trkpt lat="43.3440912" lon="12.9564215"><ele>251.66666666666669</ele><time>2026-04-04T13:38:50.199Z</time></trkpt><trkpt lat="43.343968" lon="12.9565704"><ele>251.0</ele><time>2026-04-04T13:38:51.198Z</time></trkpt><trkpt lat="43.3438227" lon="12.9567185"><ele>251.0</ele><time>2026-04-04T13:38:52.199Z</time></trkpt><trkpt lat="43.3436428" lon="12.9568457"><ele>251.0</ele><time>2026-04-04T13:38:53.198Z</time></trkpt><trkpt lat="43.3434683" lon="12.9569968"><ele>251.0</ele><time>2026-04-04T13:38:54.198Z</time></trkpt><trkpt lat="43.3432938" lon="12.9571548"><ele>251.0</ele><time>2026-04-04T13:38:55.199Z</time></trkpt><trkpt lat="43.343111" lon="12.9573061"><ele>251.0</ele><time>2026-04-04T13:38:56.198Z</time></trkpt><trkpt lat="43.3429282" lon="12.9574734"><ele>251.0</ele><time>2026-04-04T13:38:57.198Z</time></trkpt><trkpt lat="43.3427426" lon="12.9576425"><ele>250.5</ele><time>2026-04-04T13:38:58.198Z</time></trkpt><trkpt lat="43.3425558" lon="12.9578163"><ele>250.0</ele><time>2026-04-04T13:38:59.198Z</time></trkpt><trkpt lat="43.3423667" lon="12.957986"><ele>250.0</ele><time>2026-04-04T13:39:00.198Z</time></trkpt><trkpt lat="43.3421793" lon="12.9581506"><ele>250.0</ele><time>2026-04-04T13:39:01.199Z</time></trkpt><trkpt lat="43.3419962" lon="12.9583159"><ele>250.0</ele><time>2026-04-04T13:39:02.199Z</time></trkpt><trkpt lat="43.3418151" lon="12.9584662"><ele>250.0</ele><time>2026-04-04T13:39:03.198Z</time></trkpt><trkpt lat="43.3416302" lon="12.9586158"><ele>250.0</ele><time>2026-04-04T13:39:04.199Z</time></trkpt><trkpt lat="43.3414453" lon="12.9587718"><ele>250.0</ele><time>2026-04-04T13:39:05.198Z</time></trkpt><trkpt lat="43.3412668" lon="12.9589445"><ele>250.66666666666666</ele><time>2026-04-04T13:39:06.198Z</time></trkpt><trkpt lat="43.3410852" lon="12.9591118"><ele>251.33333333333331</ele><time>2026-04-04T13:39:07.199Z</time></trkpt><trkpt lat="43.3409023" lon="12.9592968"><ele>252.0</ele><time>2026-04-04T13:39:08.198Z</time></trkpt><trkpt lat="43.3407364" lon="12.9594842"><ele>252.0</ele><time>2026-04-04T13:39:09.198Z</time></trkpt><trkpt lat="43.3405732" lon="12.9596829"><ele>252.0</ele><time>2026-04-04T13:39:10.198Z</time></trkpt><trkpt lat="43.3404111" lon="12.9598915"><ele>252.0</ele><time>2026-04-04T13:39:11.198Z</time></trkpt><trkpt lat="43.3402593" lon="12.9601116"><ele>251.66666666666669</ele><time>2026-04-04T13:39:12.198Z</time></trkpt><trkpt lat="43.3401165" lon="12.9603438"><ele>251.33333333333334</ele><time>2026-04-04T13:39:13.198Z</time></trkpt><trkpt lat="43.3399821" lon="12.9605839"><ele>251.0</ele><time>2026-04-04T13:39:14.198Z</time></trkpt><trkpt lat="43.3398561" lon="12.9608317"><ele>250.66666666666669</ele><time>2026-04-04T13:39:15.198Z</time></trkpt><trkpt lat="43.3397294" lon="12.9610817"><ele>250.33333333333331</ele><time>2026-04-04T13:39:16.198Z</time></trkpt><trkpt lat="43.3396033" lon="12.9613371"><ele>250.0</ele><time>2026-04-04T13:39:17.198Z</time></trkpt><trkpt lat="43.33948" lon="12.9615771"><ele>249.33333333333331</ele><time>2026-04-04T13:39:18.198Z</time></trkpt><trkpt lat="43.3393683" lon="12.9618111"><ele>248.66666666666669</ele><time>2026-04-04T13:39:19.199Z</time></trkpt><trkpt lat="43.339251" lon="12.9620175"><ele>248.0</ele><time>2026-04-04T13:39:20.199Z</time></trkpt><trkpt lat="43.3391312" lon="12.9622059"><ele>248.0</ele><time>2026-04-04T13:39:21.198Z</time></trkpt><trkpt lat="43.33901" lon="12.9623867"><ele>248.0</ele><time>2026-04-04T13:39:22.199Z</time></trkpt><trkpt lat="43.3388771" lon="12.9625549"><ele>248.0</ele><time>2026-04-04T13:39:23.198Z</time></trkpt><trkpt lat="43.3387392" lon="12.962704"><ele>248.66666666666669</ele><time>2026-04-04T13:39:24.198Z</time></trkpt><trkpt lat="43.3385928" lon="12.9628672"><ele>249.33333333333331</ele><time>2026-04-04T13:39:25.198Z</time></trkpt><trkpt lat="43.3384394" lon="12.9630222"><ele>250.0</ele><time>2026-04-04T13:39:26.198Z</time></trkpt><trkpt lat="43.338293" lon="12.9631659"><ele>250.0</ele><time>2026-04-04T13:39:27.198Z</time></trkpt><trkpt lat="43.3381137" lon="12.9632976"><ele>250.0</ele><time>2026-04-04T13:39:28.198Z</time></trkpt><trkpt lat="43.3379164" lon="12.963406"><ele>250.0</ele><time>2026-04-04T13:39:29.198Z</time></trkpt><trkpt lat="43.3377253" lon="12.9635142"><ele>249.66666666666666</ele><time>2026-04-04T13:39:30.198Z</time></trkpt><trkpt lat="43.3375162" lon="12.9636052"><ele>249.33333333333331</ele><time>2026-04-04T13:39:31.198Z</time></trkpt><trkpt lat="43.3373103" lon="12.9636858"><ele>249.0</ele><time>2026-04-04T13:39:32.198Z</time></trkpt><trkpt lat="43.3371046" lon="12.9637499"><ele>253.33333333333331</ele><time>2026-04-04T13:39:33.198Z</time></trkpt><trkpt lat="43.3368943" lon="12.9638048"><ele>257.66666666666663</ele><time>2026-04-04T13:39:34.199Z</time></trkpt><trkpt lat="43.3366811" lon="12.9638376"><ele>262.0</ele><time>2026-04-04T13:39:35.198Z</time></trkpt><trkpt lat="43.3364659" lon="12.9638699"><ele>263.0</ele><time>2026-04-04T13:39:36.199Z</time></trkpt><trkpt lat="43.3362496" lon="12.9638885"><ele>264.0</ele><time>2026-04-04T13:39:37.198Z</time></trkpt><trkpt lat="43.3360315" lon="12.9638996"><ele>265.0</ele><time>2026-04-04T13:39:38.198Z</time></trkpt><trkpt lat="43.3358028" lon="12.9639118"><ele>265.0</ele><time>2026-04-04T13:39:39.198Z</time></trkpt><trkpt lat="43.3355895" lon="12.9639206"><ele>265.0</ele><time>2026-04-04T13:39:40.199Z</time></trkpt><trkpt lat="43.3353757" lon="12.9639317"><ele>265.0</ele><time>2026-04-04T13:39:41.199Z</time></trkpt><trkpt lat="43.3351651" lon="12.9639402"><ele>263.0</ele><time>2026-04-04T13:39:42.198Z</time></trkpt><trkpt lat="43.3349462" lon="12.9639603"><ele>261.0</ele><time>2026-04-04T13:39:43.198Z</time></trkpt><trkpt lat="43.3347329" lon="12.9639882"><ele>259.0</ele><time>2026-04-04T13:39:44.199Z</time></trkpt><trkpt lat="43.3345182" lon="12.9640219"><ele>259.0</ele><time>2026-04-04T13:39:45.198Z</time></trkpt><trkpt lat="43.3343092" lon="12.9640735"><ele>259.0</ele><time>2026-04-04T13:39:46.198Z</time></trkpt><trkpt lat="43.3340971" lon="12.9641276"><ele>259.0</ele><time>2026-04-04T13:39:47.199Z</time></trkpt><trkpt lat="43.3338877" lon="12.964186"><ele>261.0</ele><time>2026-04-04T13:39:48.199Z</time></trkpt><trkpt lat="43.3336825" lon="12.9642597"><ele>263.0</ele><time>2026-04-04T13:39:49.199Z</time></trkpt><trkpt lat="43.3334777" lon="12.9643382"><ele>265.0</ele><time>2026-04-04T13:39:50.198Z</time></trkpt><trkpt lat="43.3332769" lon="12.9644199"><ele>265.0</ele><time>2026-04-04T13:39:51.199Z</time></trkpt><trkpt lat="43.3330753" lon="12.9645067"><ele>265.0</ele><time>2026-04-04T13:39:52.199Z</time></trkpt><trkpt lat="43.3328733" lon="12.9646026"><ele>265.0</ele><time>2026-04-04T13:39:53.198Z</time></trkpt><trkpt lat="43.3326739" lon="12.9647098"><ele>268.66666666666663</ele><time>2026-04-04T13:39:54.198Z</time></trkpt><trkpt lat="43.3324735" lon="12.9648226"><ele>272.3333333333333</ele><time>2026-04-04T13:39:55.198Z</time></trkpt><trkpt lat="43.3322734" lon="12.9649406"><ele>276.0</ele><time>2026-04-04T13:39:56.198Z</time></trkpt><trkpt lat="43.3320755" lon="12.9650648"><ele>277.0</ele><time>2026-04-04T13:39:57.198Z</time></trkpt><trkpt lat="43.3251532" lon="12.972231"><ele>277.0</ele><time>2026-04-04T13:40:37.199Z</time></trkpt><trkpt lat="43.3249375" lon="12.9723205"><ele>277.0</ele><time>2026-04-04T13:40:38.198Z</time></trkpt><trkpt lat="43.3247262" lon="12.9724024"><ele>277.0</ele><time>2026-04-04T13:40:39.199Z</time></trkpt><trkpt lat="43.324512" lon="12.9724763"><ele>275.5</ele><time>2026-04-04T13:40:40.199Z</time></trkpt><trkpt lat="43.3242941" lon="12.9725409"><ele>274.0</ele><time>2026-04-04T13:40:41.199Z</time></trkpt><trkpt lat="43.3240689" lon="12.9726004"><ele>277.5</ele><time>2026-04-04T13:40:42.198Z</time></trkpt><trkpt lat="43.3238435" lon="12.9726511"><ele>281.0</ele><time>2026-04-04T13:40:43.199Z</time></trkpt><trkpt lat="43.3236151" lon="12.9727028"><ele>281.0</ele><time>2026-04-04T13:40:44.199Z</time></trkpt><trkpt lat="43.3233836" lon="12.9727487"><ele>281.0</ele><time>2026-04-04T13:40:45.198Z</time></trkpt><trkpt lat="43.3231485" lon="12.97279"><ele>281.5</ele><time>2026-04-04T13:40:46.198Z</time></trkpt><trkpt lat="43.3229135" lon="12.9728287"><ele>282.0</ele><time>2026-04-04T13:40:47.199Z</time></trkpt><trkpt lat="43.3226761" lon="12.9728674"><ele>282.0</ele><time>2026-04-04T13:40:48.198Z</time></trkpt><trkpt lat="43.3224387" lon="12.9729039"><ele>282.0</ele><time>2026-04-04T13:40:49.198Z</time></trkpt><trkpt lat="43.3222025" lon="12.972939"><ele>283.0</ele><time>2026-04-04T13:40:50.198Z</time></trkpt><trkpt lat="43.3219662" lon="12.9729722"><ele>284.0</ele><time>2026-04-04T13:40:51.198Z</time></trkpt><trkpt lat="43.3217346" lon="12.9730072"><ele>284.0</ele><time>2026-04-04T13:40:52.198Z</time></trkpt><trkpt lat="43.3215056" lon="12.9730461"><ele>284.0</ele><time>2026-04-04T13:40:53.199Z</time></trkpt><trkpt lat="43.3212732" lon="12.9730819"><ele>284.5</ele><time>2026-04-04T13:40:54.198Z</time></trkpt><trkpt lat="43.3210414" lon="12.973117"><ele>285.0</ele><time>2026-04-04T13:40:55.198Z</time></trkpt><trkpt lat="43.3208094" lon="12.9731541"><ele>285.0</ele><time>2026-04-04T13:40:56.198Z</time></trkpt><trkpt lat="43.3205798" lon="12.9731883"><ele>285.0</ele><time>2026-04-04T13:40:57.198Z</time></trkpt><trkpt lat="43.3203485" lon="12.9732231"><ele>284.5</ele><time>2026-04-04T13:40:58.198Z</time></trkpt><trkpt lat="43.3201175" lon="12.9732625"><ele>284.0</ele><time>2026-04-04T13:40:59.198Z</time></trkpt><trkpt lat="43.3198862" lon="12.9732987"><ele>283.5</ele><time>2026-04-04T13:41:00.198Z</time></trkpt><trkpt lat="43.3196557" lon="12.9733318"><ele>283.0</ele><time>2026-04-04T13:41:01.198Z</time></trkpt><trkpt lat="43.3194263" lon="12.9733644"><ele>279.5</ele><time>2026-04-04T13:41:02.198Z</time></trkpt><trkpt lat="43.3191978" lon="12.9733989"><ele>276.0</ele><time>2026-04-04T13:41:03.199Z</time></trkpt><trkpt lat="43.3189679" lon="12.973435"><ele>275.5</ele><time>2026-04-04T13:41:04.198Z</time></trkpt><trkpt lat="43.318737" lon="12.9734721"><ele>275.0</ele><time>2026-04-04T13:41:05.198Z</time></trkpt><trkpt lat="43.3185059" lon="12.9735066"><ele>275.0</ele><time>2026-04-04T13:41:06.198Z</time></trkpt><trkpt lat="43.3182735" lon="12.9735429"><ele>275.0</ele><time>2026-04-04T13:41:07.199Z</time></trkpt><trkpt lat="43.3180441" lon="12.9735754"><ele>275.5</ele><time>2026-04-04T13:41:08.198Z</time></trkpt><trkpt lat="43.3178128" lon="12.9736089"><ele>276.0</ele><time>2026-04-04T13:41:09.199Z</time></trkpt><trkpt lat="43.3175806" lon="12.9736415"><ele>276.0</ele><time>2026-04-04T13:41:10.198Z</time></trkpt><trkpt lat="43.3173477" lon="12.9736784"><ele>276.0</ele><time>2026-04-04T13:41:11.198Z</time></trkpt><trkpt lat="43.3171142" lon="12.973714"><ele>274.0</ele><time>2026-04-04T13:41:12.198Z</time></trkpt><trkpt lat="43.31688" lon="12.9737516"><ele>272.0</ele><time>2026-04-04T13:41:13.198Z</time></trkpt><trkpt lat="43.316641" lon="12.9737886"><ele>272.0</ele><time>2026-04-04T13:41:14.199Z</time></trkpt><trkpt lat="43.3164055" lon="12.9738263"><ele>272.0</ele><time>2026-04-04T13:41:15.198Z</time></trkpt><trkpt lat="43.3161714" lon="12.9738619"><ele>271.0</ele><time>2026-04-04T13:41:16.198Z</time></trkpt><trkpt lat="43.315936" lon="12.9739"><ele>270.0</ele><time>2026-04-04T13:41:17.198Z</time></trkpt><trkpt lat="43.3157016" lon="12.9739345"><ele>271.0</ele><time>2026-04-04T13:41:18.198Z</time></trkpt><trkpt lat="43.3154659" lon="12.97397"><ele>272.0</ele><time>2026-04-04T13:41:19.198Z</time></trkpt><trkpt lat="43.3152322" lon="12.9740063"><ele>272.0</ele><time>2026-04-04T13:41:20.198Z</time></trkpt><trkpt lat="43.3149997" lon="12.9740392"><ele>272.0</ele><time>2026-04-04T13:41:21.199Z</time></trkpt><trkpt lat="43.3147651" lon="12.9740767"><ele>272.0</ele><time>2026-04-04T13:41:22.198Z</time></trkpt><trkpt lat="43.3145299" lon="12.974112"><ele>272.0</ele><time>2026-04-04T13:41:23.199Z</time></trkpt><trkpt lat="43.3142962" lon="12.9741447"><ele>272.0</ele><time>2026-04-04T13:41:24.198Z</time></trkpt><trkpt lat="43.3140594" lon="12.9741848"><ele>272.0</ele><time>2026-04-04T13:41:25.198Z</time></trkpt><trkpt lat="43.3138234" lon="12.974218"><ele>274.0</ele><time>2026-04-04T13:41:26.198Z</time></trkpt><trkpt lat="43.3135867" lon="12.974252"><ele>276.0</ele><time>2026-04-04T13:41:27.199Z</time></trkpt><trkpt lat="43.3133541" lon="12.9742885"><ele>276.0</ele><time>2026-04-04T13:41:28.199Z</time></trkpt><trkpt lat="43.313122" lon="12.9743294"><ele>276.0</ele><time>2026-04-04T13:41:29.198Z</time></trkpt><trkpt lat="43.3128892" lon="12.9743677"><ele>275.5</ele><time>2026-04-04T13:41:30.198Z</time></trkpt><trkpt lat="43.3126496" lon="12.9744104"><ele>275.0</ele><time>2026-04-04T13:41:31.198Z</time></trkpt><trkpt lat="43.3124153" lon="12.9744496"><ele>275.0</ele><time>2026-04-04T13:41:32.199Z</time></trkpt><trkpt lat="43.3121832" lon="12.9744899"><ele>275.0</ele><time>2026-04-04T13:41:33.198Z</time></trkpt><trkpt lat="43.3119461" lon="12.97453"><ele>275.0</ele><time>2026-04-04T13:41:34.198Z</time></trkpt><trkpt lat="43.3117175" lon="12.974571"><ele>275.0</ele><time>2026-04-04T13:41:35.198Z</time></trkpt><trkpt lat="43.3114832" lon="12.9746134"><ele>275.0</ele><time>2026-04-04T13:41:36.199Z</time></trkpt><trkpt lat="43.311248" lon="12.9746582"><ele>275.0</ele><time>2026-04-04T13:41:37.198Z</time></trkpt><trkpt lat="43.3110107" lon="12.9747106"><ele>275.0</ele><time>2026-04-04T13:41:38.199Z</time></trkpt><trkpt lat="43.3107791" lon="12.9747662"><ele>275.0</ele><time>2026-04-04T13:41:39.199Z</time></trkpt><trkpt lat="43.3105418" lon="12.9748095"><ele>275.5</ele><time>2026-04-04T13:41:40.199Z</time></trkpt><trkpt lat="43.3103105" lon="12.9748703"><ele>276.0</ele><time>2026-04-04T13:41:41.198Z</time></trkpt><trkpt lat="43.3100762" lon="12.9749301"><ele>276.0</ele><time>2026-04-04T13:41:42.198Z</time></trkpt><trkpt lat="43.3098306" lon="12.9749837"><ele>276.0</ele><time>2026-04-04T13:41:43.198Z</time></trkpt><trkpt lat="43.3095965" lon="12.9750507"><ele>275.0</ele><time>2026-04-04T13:41:44.198Z</time></trkpt><trkpt lat="43.3093567" lon="12.9751228"><ele>274.0</ele><time>2026-04-04T13:41:45.198Z</time></trkpt><trkpt lat="43.3091206" lon="12.9752038"><ele>276.0</ele><time>2026-04-04T13:41:46.199Z</time></trkpt><trkpt lat="43.3088921" lon="12.975275"><ele>278.0</ele><time>2026-04-04T13:41:47.198Z</time></trkpt><trkpt lat="43.3086596" lon="12.9753557"><ele>278.0</ele><time>2026-04-04T13:41:48.198Z</time></trkpt><trkpt lat="43.3084265" lon="12.9754323"><ele>278.0</ele><time>2026-04-04T13:41:49.199Z</time></trkpt><trkpt lat="43.3081959" lon="12.9755131"><ele>279.0</ele><time>2026-04-04T13:41:50.198Z</time></trkpt><trkpt lat="43.3079603" lon="12.9756018"><ele>280.0</ele><time>2026-04-04T13:41:51.199Z</time></trkpt><trkpt lat="43.3077267" lon="12.9756778"><ele>280.0</ele><time>2026-04-04T13:41:52.198Z</time></trkpt><trkpt lat="43.3074991" lon="12.9757599"><ele>280.0</ele><time>2026-04-04T13:41:53.198Z</time></trkpt><trkpt lat="43.3072728" lon="12.9758428"><ele>276.5</ele><time>2026-04-04T13:41:54.198Z</time></trkpt><trkpt lat="43.3070465" lon="12.9759257"><ele>273.0</ele><time>2026-04-04T13:41:55.198Z</time></trkpt><trkpt lat="43.306825" lon="12.9760092"><ele>273.0</ele><time>2026-04-04T13:41:56.198Z</time></trkpt><trkpt lat="43.3066006" lon="12.976096"><ele>273.0</ele><time>2026-04-04T13:41:57.198Z</time></trkpt><trkpt lat="43.3063766" lon="12.9761856"><ele>275.5</ele><time>2026-04-04T13:41:58.198Z</time></trkpt><trkpt lat="43.3061526" lon="12.9762762"><ele>278.0</ele><time>2026-04-04T13:41:59.198Z</time></trkpt><trkpt lat="43.3059331" lon="12.9763606"><ele>278.0</ele><time>2026-04-04T13:42:00.199Z</time></trkpt><trkpt lat="43.3057097" lon="12.9764386"><ele>278.0</ele><time>2026-04-04T13:42:01.199Z</time></trkpt><trkpt lat="43.3054878" lon="12.9765223"><ele>280.0</ele><time>2026-04-04T13:42:02.198Z</time></trkpt><trkpt lat="43.3052621" lon="12.976604"><ele>282.0</ele><time>2026-04-04T13:42:03.198Z</time></trkpt><trkpt lat="43.3050408" lon="12.9766869"><ele>282.0</ele><time>2026-04-04T13:42:04.198Z</time></trkpt><trkpt lat="43.3048276" lon="12.976773"><ele>282.0</ele><time>2026-04-04T13:42:05.199Z</time></trkpt><trkpt lat="43.3046107" lon="12.9768555"><ele>282.0</ele><time>2026-04-04T13:42:06.198Z</time></trkpt><trkpt lat="43.3043921" lon="12.9769293"><ele>282.3333333333333</ele><time>2026-04-04T13:42:07.198Z</time></trkpt><trkpt lat="43.3041773" lon="12.9770073"><ele>282.66666666666663</ele><time>2026-04-04T13:42:08.198Z</time></trkpt><trkpt lat="43.3039581" lon="12.9770844"><ele>283.0</ele><time>2026-04-04T13:42:09.199Z</time></trkpt><trkpt lat="43.303742" lon="12.9771645"><ele>284.0</ele><time>2026-04-04T13:42:10.198Z</time></trkpt><trkpt lat="43.3035284" lon="12.9772456"><ele>285.0</ele><time>2026-04-04T13:42:11.198Z</time></trkpt><trkpt lat="43.3033177" lon="12.9773127"><ele>286.0</ele><time>2026-04-04T13:42:12.198Z</time></trkpt><trkpt lat="43.3030944" lon="12.977391"><ele>287.0</ele><time>2026-04-04T13:42:13.199Z</time></trkpt><trkpt lat="43.3028873" lon="12.9774748"><ele>288.0</ele><time>2026-04-04T13:42:14.199Z</time></trkpt><trkpt lat="43.3026675" lon="12.977554"><ele>289.0</ele><time>2026-04-04T13:42:15.198Z</time></trkpt><trkpt lat="43.302455" lon="12.9776383"><ele>287.0</ele><time>2026-04-04T13:42:16.198Z</time></trkpt><trkpt lat="43.302231" lon="12.9777215"><ele>285.0</ele><time>2026-04-04T13:42:17.198Z</time></trkpt><trkpt lat="43.3020213" lon="12.9777931"><ele>283.0</ele><time>2026-04-04T13:42:18.199Z</time></trkpt><trkpt lat="43.3018139" lon="12.977873"><ele>283.0</ele><time>2026-04-04T13:42:19.198Z</time></trkpt><trkpt lat="43.3016033" lon="12.9779466"><ele>283.0</ele><time>2026-04-04T13:42:20.198Z</time></trkpt><trkpt lat="43.3013879" lon="12.9780272"><ele>283.0</ele><time>2026-04-04T13:42:21.199Z</time></trkpt><trkpt lat="43.3011792" lon="12.9781055"><ele>284.3333333333333</ele><time>2026-04-04T13:42:22.198Z</time></trkpt><trkpt lat="43.3009616" lon="12.9781774"><ele>285.6666666666667</ele><time>2026-04-04T13:42:23.198Z</time></trkpt><trkpt lat="43.3007556" lon="12.9782604"><ele>287.0</ele><time>2026-04-04T13:42:24.198Z</time></trkpt><trkpt lat="43.3005452" lon="12.9783412"><ele>286.33333333333337</ele><time>2026-04-04T13:42:25.198Z</time></trkpt><trkpt lat="43.3003316" lon="12.9784177"><ele>285.6666666666667</ele><time>2026-04-04T13:42:26.198Z</time></trkpt><trkpt lat="43.3001223" lon="12.9784902"><ele>285.0</ele><time>2026-04-04T13:42:27.198Z</time></trkpt><trkpt lat="43.2999068" lon="12.9785699"><ele>285.6666666666667</ele><time>2026-04-04T13:42:28.198Z</time></trkpt><trkpt lat="43.2996875" lon="12.9786588"><ele>286.33333333333337</ele><time>2026-04-04T13:42:29.198Z</time></trkpt><trkpt lat="43.2994832" lon="12.9787336"><ele>287.0</ele><time>2026-04-04T13:42:30.198Z</time></trkpt><trkpt lat="43.2992741" lon="12.9788084"><ele>287.0</ele><time>2026-04-04T13:42:31.198Z</time></trkpt><trkpt lat="43.2990731" lon="12.9788857"><ele>287.0</ele><time>2026-04-04T13:42:32.198Z</time></trkpt><trkpt lat="43.2988557" lon="12.978966"><ele>287.0</ele><time>2026-04-04T13:42:33.198Z</time></trkpt><trkpt lat="43.2986509" lon="12.9790459"><ele>286.6666666666667</ele><time>2026-04-04T13:42:34.198Z</time></trkpt><trkpt lat="43.2984441" lon="12.9791219"><ele>286.3333333333333</ele><time>2026-04-04T13:42:35.198Z</time></trkpt><trkpt lat="43.2982363" lon="12.9791976"><ele>286.0</ele><time>2026-04-04T13:42:36.198Z</time></trkpt><trkpt lat="43.2980276" lon="12.9792629"><ele>287.3333333333333</ele><time>2026-04-04T13:42:37.198Z</time></trkpt><trkpt lat="43.2978158" lon="12.9793334"><ele>288.6666666666667</ele><time>2026-04-04T13:42:38.198Z</time></trkpt><trkpt lat="43.2975995" lon="12.9794106"><ele>290.0</ele><time>2026-04-04T13:42:39.198Z</time></trkpt><trkpt lat="43.2973827" lon="12.979503"><ele>291.0</ele><time>2026-04-04T13:42:40.199Z</time></trkpt><trkpt lat="43.2971645" lon="12.9795881"><ele>292.0</ele><time>2026-04-04T13:42:41.198Z</time></trkpt><trkpt lat="43.2969425" lon="12.9796738"><ele>292.0</ele><time>2026-04-04T13:42:42.198Z</time></trkpt><trkpt lat="43.2967266" lon="12.9797498"><ele>292.0</ele><time>2026-04-04T13:42:43.198Z</time></trkpt><trkpt lat="43.2965085" lon="12.9798332"><ele>292.0</ele><time>2026-04-04T13:42:44.198Z</time></trkpt><trkpt lat="43.2962893" lon="12.9799152"><ele>291.0</ele><time>2026-04-04T13:42:45.199Z</time></trkpt><trkpt lat="43.2960706" lon="12.9799966"><ele>290.0</ele><time>2026-04-04T13:42:46.198Z</time></trkpt><trkpt lat="43.295851" lon="12.9800928"><ele>290.0</ele><time>2026-04-04T13:42:47.198Z</time></trkpt><trkpt lat="43.295632" lon="12.9801729"><ele>290.0</ele><time>2026-04-04T13:42:48.198Z</time></trkpt><trkpt lat="43.2954119" lon="12.9802497"><ele>290.0</ele><time>2026-04-04T13:42:49.199Z</time></trkpt><trkpt lat="43.2951938" lon="12.9803283"><ele>290.0</ele><time>2026-04-04T13:42:50.198Z</time></trkpt><trkpt lat="43.2949689" lon="12.9804245"><ele>292.0</ele><time>2026-04-04T13:42:51.199Z</time></trkpt><trkpt lat="43.2947466" lon="12.9805016"><ele>294.0</ele><time>2026-04-04T13:42:52.198Z</time></trkpt><trkpt lat="43.2945279" lon="12.9805801"><ele>294.0</ele><time>2026-04-04T13:42:53.198Z</time></trkpt><trkpt lat="43.294308" lon="12.980662"><ele>294.0</ele><time>2026-04-04T13:42:54.198Z</time></trkpt><trkpt lat="43.2940887" lon="12.9807477"><ele>292.0</ele><time>2026-04-04T13:42:55.198Z</time></trkpt><trkpt lat="43.29387" lon="12.9808329"><ele>290.0</ele><time>2026-04-04T13:42:56.198Z</time></trkpt><trkpt lat="43.2936539" lon="12.9809167"><ele>287.5</ele><time>2026-04-04T13:42:57.198Z</time></trkpt><trkpt lat="43.2934351" lon="12.9810025"><ele>285.0</ele><time>2026-04-04T13:42:58.199Z</time></trkpt><trkpt lat="43.2932121" lon="12.9810945"><ele>285.0</ele><time>2026-04-04T13:42:59.198Z</time></trkpt><trkpt lat="43.2929937" lon="12.9811899"><ele>285.0</ele><time>2026-04-04T13:43:00.198Z</time></trkpt><trkpt lat="43.2927739" lon="12.9812844"><ele>285.0</ele><time>2026-04-04T13:43:01.198Z</time></trkpt><trkpt lat="43.2925565" lon="12.981382"><ele>285.0</ele><time>2026-04-04T13:43:02.198Z</time></trkpt><trkpt lat="43.2923411" lon="12.9814892"><ele>285.5</ele><time>2026-04-04T13:43:03.199Z</time></trkpt><trkpt lat="43.2921196" lon="12.9816015"><ele>286.0</ele><time>2026-04-04T13:43:04.198Z</time></trkpt><trkpt lat="43.2919066" lon="12.9817175"><ele>289.0</ele><time>2026-04-04T13:43:05.198Z</time></trkpt><trkpt lat="43.2916929" lon="12.981837"><ele>292.0</ele><time>2026-04-04T13:43:06.198Z</time></trkpt><trkpt lat="43.2914785" lon="12.9819562"><ele>293.5</ele><time>2026-04-04T13:43:07.198Z</time></trkpt><trkpt lat="43.2912632" lon="12.9820806"><ele>295.0</ele><time>2026-04-04T13:43:08.199Z</time></trkpt><trkpt lat="43.2910462" lon="12.9822041"><ele>295.0</ele><time>2026-04-04T13:43:09.198Z</time></trkpt><trkpt lat="43.2908359" lon="12.9823302"><ele>295.0</ele><time>2026-04-04T13:43:10.198Z</time></trkpt><trkpt lat="43.2906197" lon="12.9824493"><ele>295.5</ele><time>2026-04-04T13:43:11.199Z</time></trkpt><trkpt lat="43.2904021" lon="12.9825656"><ele>296.0</ele><time>2026-04-04T13:43:12.198Z</time></trkpt><trkpt lat="43.2901863" lon="12.9826786"><ele>296.0</ele><time>2026-04-04T13:43:13.198Z</time></trkpt><trkpt lat="43.2899667" lon="12.9827808"><ele>296.0</ele><time>2026-04-04T13:43:14.198Z</time></trkpt><trkpt lat="43.2897472" lon="12.9828913"><ele>297.5</ele><time>2026-04-04T13:43:15.199Z</time></trkpt><trkpt lat="43.2895285" lon="12.982995"><ele>299.0</ele><time>2026-04-04T13:43:16.198Z</time></trkpt><trkpt lat="43.2893105" lon="12.9831002"><ele>299.0</ele><time>2026-04-04T13:43:17.198Z</time></trkpt><trkpt lat="43.2890915" lon="12.9831963"><ele>299.0</ele><time>2026-04-04T13:43:18.198Z</time></trkpt><trkpt lat="43.2888681" lon="12.9832838"><ele>300.5</ele><time>2026-04-04T13:43:19.198Z</time></trkpt><trkpt lat="43.2886453" lon="12.9833602"><ele>302.0</ele><time>2026-04-04T13:43:20.198Z</time></trkpt><trkpt lat="43.2884303" lon="12.98344"><ele>302.0</ele><time>2026-04-04T13:43:21.198Z</time></trkpt><trkpt lat="43.2882212" lon="12.9835118"><ele>302.0</ele><time>2026-04-04T13:43:22.198Z</time></trkpt><trkpt lat="43.28801" lon="12.9835729"><ele>302.0</ele><time>2026-04-04T13:43:23.198Z</time></trkpt><trkpt lat="43.287798" lon="12.9836267"><ele>304.0</ele><time>2026-04-04T13:43:24.198Z</time></trkpt><trkpt lat="43.2875879" lon="12.9836844"><ele>306.0</ele><time>2026-04-04T13:43:25.198Z</time></trkpt><trkpt lat="43.2873776" lon="12.9837385"><ele>308.0</ele><time>2026-04-04T13:43:26.199Z</time></trkpt><trkpt lat="43.2871724" lon="12.9837861"><ele>310.33333333333337</ele><time>2026-04-04T13:43:27.198Z</time></trkpt><trkpt lat="43.2869702" lon="12.9838281"><ele>312.6666666666667</ele><time>2026-04-04T13:43:28.199Z</time></trkpt><trkpt lat="43.2867611" lon="12.9838636"><ele>315.0</ele><time>2026-04-04T13:43:29.199Z</time></trkpt><trkpt lat="43.2865598" lon="12.9839112"><ele>318.6666666666667</ele><time>2026-04-04T13:43:30.199Z</time></trkpt><trkpt lat="43.2863579" lon="12.983949"><ele>322.33333333333337</ele><time>2026-04-04T13:43:31.198Z</time></trkpt><trkpt lat="43.2861541" lon="12.9839824"><ele>326.0</ele><time>2026-04-04T13:43:32.198Z</time></trkpt><trkpt lat="43.2859432" lon="12.9840315"><ele>326.0</ele><time>2026-04-04T13:43:33.199Z</time></trkpt><trkpt lat="43.2857374" lon="12.984075"><ele>326.0</ele><time>2026-04-04T13:43:34.199Z</time></trkpt><trkpt lat="43.2855387" lon="12.9841247"><ele>326.0</ele><time>2026-04-04T13:43:35.198Z</time></trkpt><trkpt lat="43.2853314" lon="12.9841635"><ele>324.6666666666667</ele><time>2026-04-04T13:43:36.199Z</time></trkpt><trkpt lat="43.2851231" lon="12.984208"><ele>323.3333333333333</ele><time>2026-04-04T13:43:37.198Z</time></trkpt><trkpt lat="43.2849101" lon="12.9842536"><ele>322.0</ele><time>2026-04-04T13:43:38.199Z</time></trkpt><trkpt lat="43.2846968" lon="12.9843099"><ele>322.0</ele><time>2026-04-04T13:43:39.199Z</time></trkpt><trkpt lat="43.2844879" lon="12.9843622"><ele>322.0</ele><time>2026-04-04T13:43:40.198Z</time></trkpt><trkpt lat="43.2842896" lon="12.984423"><ele>322.0</ele><time>2026-04-04T13:43:41.198Z</time></trkpt><trkpt lat="43.2840766" lon="12.9844946"><ele>323.3333333333333</ele><time>2026-04-04T13:43:42.198Z</time></trkpt><trkpt lat="43.2838708" lon="12.9845727"><ele>324.6666666666667</ele><time>2026-04-04T13:43:43.199Z</time></trkpt><trkpt lat="43.2836664" lon="12.9846475"><ele>326.0</ele><time>2026-04-04T13:43:44.198Z</time></trkpt><trkpt lat="43.2834592" lon="12.9847354"><ele>326.0</ele><time>2026-04-04T13:43:45.198Z</time></trkpt><trkpt lat="43.283256" lon="12.9848169"><ele>326.0</ele><time>2026-04-04T13:43:46.199Z</time></trkpt><trkpt lat="43.2830547" lon="12.9849094"><ele>326.0</ele><time>2026-04-04T13:43:47.199Z</time></trkpt><trkpt lat="43.2828522" lon="12.9850077"><ele>326.0</ele><time>2026-04-04T13:43:48.198Z</time></trkpt><trkpt lat="43.2826537" lon="12.9851115"><ele>326.0</ele><time>2026-04-04T13:43:49.198Z</time></trkpt><trkpt lat="43.2824538" lon="12.9852175"><ele>326.0</ele><time>2026-04-04T13:43:50.198Z</time></trkpt><trkpt lat="43.2822467" lon="12.9853308"><ele>328.0</ele><time>2026-04-04T13:43:51.198Z</time></trkpt><trkpt lat="43.2820535" lon="12.9854453"><ele>330.0</ele><time>2026-04-04T13:43:52.199Z</time></trkpt><trkpt lat="43.2818534" lon="12.9855607"><ele>332.0</ele><time>2026-04-04T13:43:53.198Z</time></trkpt><trkpt lat="43.2816504" lon="12.985682"><ele>332.0</ele><time>2026-04-04T13:43:54.198Z</time></trkpt><trkpt lat="43.28145" lon="12.985795"><ele>332.0</ele><time>2026-04-04T13:43:55.198Z</time></trkpt><trkpt lat="43.2812507" lon="12.9859184"><ele>332.0</ele><time>2026-04-04T13:43:56.198Z</time></trkpt><trkpt lat="43.2810513" lon="12.9860367"><ele>331.6666666666667</ele><time>2026-04-04T13:43:57.199Z</time></trkpt><trkpt lat="43.2808488" lon="12.9861545"><ele>331.3333333333333</ele><time>2026-04-04T13:43:58.198Z</time></trkpt><trkpt lat="43.2806457" lon="12.9862695"><ele>331.0</ele><time>2026-04-04T13:43:59.199Z</time></trkpt><trkpt lat="43.2804423" lon="12.986385"><ele>330.66666666666663</ele><time>2026-04-04T13:44:00.198Z</time></trkpt><trkpt lat="43.2802413" lon="12.9865058"><ele>330.3333333333333</ele><time>2026-04-04T13:44:01.198Z</time></trkpt><trkpt lat="43.280038" lon="12.9866291"><ele>330.0</ele><time>2026-04-04T13:44:02.198Z</time></trkpt><trkpt lat="43.2798318" lon="12.986749"><ele>329.0</ele><time>2026-04-04T13:44:03.198Z</time></trkpt><trkpt lat="43.2796243" lon="12.9868612"><ele>328.0</ele><time>2026-04-04T13:44:04.199Z</time></trkpt><trkpt lat="43.2794197" lon="12.9869992"><ele>328.0</ele><time>2026-04-04T13:44:05.198Z</time></trkpt><trkpt lat="43.2792076" lon="12.9871218"><ele>328.0</ele><time>2026-04-04T13:44:06.199Z</time></trkpt><trkpt lat="43.2789991" lon="12.9872495"><ele>327.0</ele><time>2026-04-04T13:44:07.199Z</time></trkpt><trkpt lat="43.2787866" lon="12.9873797"><ele>326.0</ele><time>2026-04-04T13:44:08.198Z</time></trkpt><trkpt lat="43.2785772" lon="12.9875066"><ele>323.0</ele><time>2026-04-04T13:44:09.198Z</time></trkpt><trkpt lat="43.2783666" lon="12.9876324"><ele>320.0</ele><time>2026-04-04T13:44:10.199Z</time></trkpt><trkpt lat="43.2781544" lon="12.987759"><ele>320.5</ele><time>2026-04-04T13:44:11.198Z</time></trkpt><trkpt lat="43.2779483" lon="12.9878973"><ele>321.0</ele><time>2026-04-04T13:44:12.198Z</time></trkpt><trkpt lat="43.277733" lon="12.988027"><ele>321.0</ele><time>2026-04-04T13:44:13.198Z</time></trkpt><trkpt lat="43.277517" lon="12.9881536"><ele>321.0</ele><time>2026-04-04T13:44:14.198Z</time></trkpt><trkpt lat="43.2772972" lon="12.9882758"><ele>320.0</ele><time>2026-04-04T13:44:15.198Z</time></trkpt><trkpt lat="43.2770795" lon="12.9883989"><ele>319.0</ele><time>2026-04-04T13:44:16.198Z</time></trkpt><trkpt lat="43.276858" lon="12.9885146"><ele>319.0</ele><time>2026-04-04T13:44:17.198Z</time></trkpt><trkpt lat="43.2766331" lon="12.9886247"><ele>319.0</ele><time>2026-04-04T13:44:18.198Z</time></trkpt><trkpt lat="43.2764094" lon="12.9887359"><ele>320.0</ele><time>2026-04-04T13:44:19.199Z</time></trkpt><trkpt lat="43.2761851" lon="12.9888355"><ele>321.0</ele><time>2026-04-04T13:44:20.199Z</time></trkpt><trkpt lat="43.275969" lon="12.9889347"><ele>321.0</ele><time>2026-04-04T13:44:21.198Z</time></trkpt><trkpt lat="43.2757452" lon="12.989029"><ele>321.0</ele><time>2026-04-04T13:44:22.198Z</time></trkpt><trkpt lat="43.2755185" lon="12.9891115"><ele>319.5</ele><time>2026-04-04T13:44:23.198Z</time></trkpt><trkpt lat="43.275306" lon="12.9891855"><ele>318.0</ele><time>2026-04-04T13:44:24.198Z</time></trkpt><trkpt lat="43.2750622" lon="12.9892495"><ele>318.0</ele><time>2026-04-04T13:44:25.198Z</time></trkpt><trkpt lat="43.2748343" lon="12.9893122"><ele>318.0</ele><time>2026-04-04T13:44:26.198Z</time></trkpt><trkpt lat="43.2746063" lon="12.9893678"><ele>319.5</ele><time>2026-04-04T13:44:27.198Z</time></trkpt><trkpt lat="43.2743801" lon="12.9894128"><ele>321.0</ele><time>2026-04-04T13:44:28.199Z</time></trkpt><trkpt lat="43.2741549" lon="12.989452"><ele>320.0</ele><time>2026-04-04T13:44:29.199Z</time></trkpt><trkpt lat="43.2739314" lon="12.9894826"><ele>319.0</ele><time>2026-04-04T13:44:30.198Z</time></trkpt><trkpt lat="43.2737018" lon="12.9895015"><ele>319.0</ele><time>2026-04-04T13:44:31.198Z</time></trkpt><trkpt lat="43.273484" lon="12.9895194"><ele>319.0</ele><time>2026-04-04T13:44:32.198Z</time></trkpt><trkpt lat="43.2732655" lon="12.9895267"><ele>319.0</ele><time>2026-04-04T13:44:33.198Z</time></trkpt><trkpt lat="43.2730392" lon="12.9895285"><ele>320.5</ele><time>2026-04-04T13:44:34.198Z</time></trkpt><trkpt lat="43.2728155" lon="12.9895269"><ele>322.0</ele><time>2026-04-04T13:44:35.199Z</time></trkpt><trkpt lat="43.2725867" lon="12.9895164"><ele>322.0</ele><time>2026-04-04T13:44:36.198Z</time></trkpt><trkpt lat="43.2723722" lon="12.9895028"><ele>322.0</ele><time>2026-04-04T13:44:37.198Z</time></trkpt><trkpt lat="43.2721499" lon="12.9894753"><ele>322.0</ele><time>2026-04-04T13:44:38.199Z</time></trkpt><trkpt lat="43.2719511" lon="12.9894422"><ele>322.66666666666663</ele><time>2026-04-04T13:44:39.198Z</time></trkpt><trkpt lat="43.271742" lon="12.9893997"><ele>323.3333333333333</ele><time>2026-04-04T13:44:40.199Z</time></trkpt><trkpt lat="43.2715286" lon="12.9893569"><ele>324.0</ele><time>2026-04-04T13:44:41.199Z</time></trkpt><trkpt lat="43.2713197" lon="12.9893063"><ele>323.6666666666667</ele><time>2026-04-04T13:44:42.198Z</time></trkpt><trkpt lat="43.2711211" lon="12.9892441"><ele>323.33333333333337</ele><time>2026-04-04T13:44:43.198Z</time></trkpt><trkpt lat="43.2709236" lon="12.9891758"><ele>323.0</ele><time>2026-04-04T13:44:44.198Z</time></trkpt><trkpt lat="43.2707218" lon="12.9891012"><ele>325.33333333333337</ele><time>2026-04-04T13:44:45.198Z</time></trkpt><trkpt lat="43.2705294" lon="12.9890346"><ele>327.6666666666667</ele><time>2026-04-04T13:44:46.198Z</time></trkpt><trkpt lat="43.2703332" lon="12.9889592"><ele>330.0</ele><time>2026-04-04T13:44:47.199Z</time></trkpt><trkpt lat="43.2701372" lon="12.9888795"><ele>330.0</ele><time>2026-04-04T13:44:48.198Z</time></trkpt><trkpt lat="43.2699404" lon="12.9887883"><ele>330.0</ele><time>2026-04-04T13:44:49.198Z</time></trkpt><trkpt lat="43.2697481" lon="12.9887"><ele>330.0</ele><time>2026-04-04T13:44:50.198Z</time></trkpt><trkpt lat="43.2695518" lon="12.9886055"><ele>330.0</ele><time>2026-04-04T13:44:51.198Z</time></trkpt><trkpt lat="43.2693594" lon="12.9885082"><ele>330.0</ele><time>2026-04-04T13:44:52.199Z</time></trkpt><trkpt lat="43.2691623" lon="12.988407"><ele>330.0</ele><time>2026-04-04T13:44:53.198Z</time></trkpt><trkpt lat="43.2689664" lon="12.9883135"><ele>333.3333333333333</ele><time>2026-04-04T13:44:54.198Z</time></trkpt><trkpt lat="43.2687774" lon="12.9882191"><ele>336.66666666666663</ele><time>2026-04-04T13:44:55.199Z</time></trkpt><trkpt lat="43.2685907" lon="12.9881175"><ele>340.0</ele><time>2026-04-04T13:44:56.198Z</time></trkpt><trkpt lat="43.2683961" lon="12.9880177"><ele>340.0</ele><time>2026-04-04T13:44:57.199Z</time></trkpt><trkpt lat="43.268207" lon="12.9879271"><ele>340.0</ele><time>2026-04-04T13:44:58.198Z</time></trkpt><trkpt lat="43.2680133" lon="12.98783"><ele>340.0</ele><time>2026-04-04T13:44:59.198Z</time></trkpt><trkpt lat="43.2678198" lon="12.9877405"><ele>339.3333333333333</ele><time>2026-04-04T13:45:00.198Z</time></trkpt><trkpt lat="43.2676265" lon="12.9876531"><ele>338.6666666666667</ele><time>2026-04-04T13:45:01.198Z</time></trkpt><trkpt lat="43.2674317" lon="12.9875725"><ele>338.0</ele><time>2026-04-04T13:45:02.198Z</time></trkpt><trkpt lat="43.2672346" lon="12.9874911"><ele>338.0</ele><time>2026-04-04T13:45:03.199Z</time></trkpt><trkpt lat="43.267042" lon="12.9874135"><ele>338.0</ele><time>2026-04-04T13:45:04.199Z</time></trkpt><trkpt lat="43.2668318" lon="12.9873353"><ele>338.0</ele><time>2026-04-04T13:45:05.198Z</time></trkpt><trkpt lat="43.2666298" lon="12.9872658"><ele>339.0</ele><time>2026-04-04T13:45:06.198Z</time></trkpt><trkpt lat="43.2664273" lon="12.9871958"><ele>340.0</ele><time>2026-04-04T13:45:07.198Z</time></trkpt><trkpt lat="43.2662256" lon="12.9871299"><ele>341.0</ele><time>2026-04-04T13:45:08.199Z</time></trkpt><trkpt lat="43.2660214" lon="12.9870655"><ele>341.0</ele><time>2026-04-04T13:45:09.199Z</time></trkpt><trkpt lat="43.2658159" lon="12.9870119"><ele>341.0</ele><time>2026-04-04T13:45:10.199Z</time></trkpt><trkpt lat="43.2656034" lon="12.9869571"><ele>341.0</ele><time>2026-04-04T13:45:11.198Z</time></trkpt><trkpt lat="43.2654007" lon="12.986908"><ele>344.33333333333337</ele><time>2026-04-04T13:45:12.198Z</time></trkpt><trkpt lat="43.2651931" lon="12.9868575"><ele>347.6666666666667</ele><time>2026-04-04T13:45:13.198Z</time></trkpt><trkpt lat="43.2649853" lon="12.9868117"><ele>351.0</ele><time>2026-04-04T13:45:14.198Z</time></trkpt><trkpt lat="43.2647804" lon="12.9867718"><ele>351.6666666666667</ele><time>2026-04-04T13:45:15.199Z</time></trkpt><trkpt lat="43.2645773" lon="12.986729"><ele>352.33333333333337</ele><time>2026-04-04T13:45:16.198Z</time></trkpt><trkpt lat="43.2643741" lon="12.9866964"><ele>353.0</ele><time>2026-04-04T13:45:17.199Z</time></trkpt><trkpt lat="43.2641674" lon="12.9866692"><ele>353.0</ele><time>2026-04-04T13:45:18.199Z</time></trkpt><trkpt lat="43.2639619" lon="12.9866439"><ele>353.0</ele><time>2026-04-04T13:45:19.199Z</time></trkpt><trkpt lat="43.2637589" lon="12.9866257"><ele>353.0</ele><time>2026-04-04T13:45:20.199Z</time></trkpt><trkpt lat="43.2635427" lon="12.9866137"><ele>351.6666666666667</ele><time>2026-04-04T13:45:21.199Z</time></trkpt><trkpt lat="43.2633382" lon="12.9866103"><ele>350.3333333333333</ele><time>2026-04-04T13:45:22.198Z</time></trkpt><trkpt lat="43.263136" lon="12.986589"><ele>349.0</ele><time>2026-04-04T13:45:23.198Z</time></trkpt><trkpt lat="43.2629241" lon="12.9865733"><ele>349.0</ele><time>2026-04-04T13:45:24.199Z</time></trkpt><trkpt lat="43.2627203" lon="12.9865677"><ele>349.0</ele><time>2026-04-04T13:45:25.198Z</time></trkpt><trkpt lat="43.2625171" lon="12.9865693"><ele>349.0</ele><time>2026-04-04T13:45:26.199Z</time></trkpt><trkpt lat="43.2623219" lon="12.9865733"><ele>353.0</ele><time>2026-04-04T13:45:27.198Z</time></trkpt><trkpt lat="43.2621163" lon="12.9865792"><ele>357.0</ele><time>2026-04-04T13:45:28.199Z</time></trkpt><trkpt lat="43.2619077" lon="12.9865853"><ele>361.0</ele><time>2026-04-04T13:45:29.199Z</time></trkpt><trkpt lat="43.2616951" lon="12.9865922"><ele>361.0</ele><time>2026-04-04T13:45:30.198Z</time></trkpt><trkpt lat="43.2614822" lon="12.9866005"><ele>361.0</ele><time>2026-04-04T13:45:31.198Z</time></trkpt><trkpt lat="43.2612694" lon="12.9866101"><ele>361.0</ele><time>2026-04-04T13:45:32.198Z</time></trkpt><trkpt lat="43.2470422" lon="12.9874308"><ele>365.66666666666663</ele><time>2026-04-04T13:46:37.198Z</time></trkpt><trkpt lat="43.2468302" lon="12.9874531"><ele>370.3333333333333</ele><time>2026-04-04T13:46:38.198Z</time></trkpt><trkpt lat="43.2466191" lon="12.987482"><ele>375.0</ele><time>2026-04-04T13:46:39.199Z</time></trkpt><trkpt lat="43.2464058" lon="12.9875155"><ele>378.33333333333337</ele><time>2026-04-04T13:46:40.198Z</time></trkpt><trkpt lat="43.2461953" lon="12.9875546"><ele>381.6666666666667</ele><time>2026-04-04T13:46:41.198Z</time></trkpt><trkpt lat="43.2459821" lon="12.9875997"><ele>385.0</ele><time>2026-04-04T13:46:42.199Z</time></trkpt><trkpt lat="43.2457676" lon="12.9876531"><ele>385.33333333333337</ele><time>2026-04-04T13:46:43.198Z</time></trkpt><trkpt lat="43.2455572" lon="12.9877135"><ele>385.66666666666663</ele><time>2026-04-04T13:46:44.199Z</time></trkpt><trkpt lat="43.2453464" lon="12.9877824"><ele>386.0</ele><time>2026-04-04T13:46:45.199Z</time></trkpt><trkpt lat="43.2451382" lon="12.9878586"><ele>386.0</ele><time>2026-04-04T13:46:46.198Z</time></trkpt><trkpt lat="43.2449343" lon="12.9879465"><ele>386.0</ele><time>2026-04-04T13:46:47.198Z</time></trkpt><trkpt lat="43.2447295" lon="12.988041"><ele>386.0</ele><time>2026-04-04T13:46:48.198Z</time></trkpt><trkpt lat="43.2445326" lon="12.9881411"><ele>386.0</ele><time>2026-04-04T13:46:49.199Z</time></trkpt><trkpt lat="43.244333" lon="12.9882462"><ele>386.0</ele><time>2026-04-04T13:46:50.199Z</time></trkpt><trkpt lat="43.2441369" lon="12.988359"><ele>386.0</ele><time>2026-04-04T13:46:51.199Z</time></trkpt><trkpt lat="43.243942" lon="12.9884758"><ele>386.3333333333333</ele><time>2026-04-04T13:46:52.198Z</time></trkpt><trkpt lat="43.24375" lon="12.988599"><ele>386.66666666666663</ele><time>2026-04-04T13:46:53.198Z</time></trkpt><trkpt lat="43.2435612" lon="12.9887304"><ele>387.0</ele><time>2026-04-04T13:46:54.198Z</time></trkpt><trkpt lat="43.2433755" lon="12.9888707"><ele>387.0</ele><time>2026-04-04T13:46:55.198Z</time></trkpt><trkpt lat="43.2431933" lon="12.9890165"><ele>387.0</ele><time>2026-04-04T13:46:56.198Z</time></trkpt><trkpt lat="43.2430124" lon="12.9891677"><ele>387.0</ele><time>2026-04-04T13:46:57.198Z</time></trkpt><trkpt lat="43.2428352" lon="12.9893264"><ele>387.66666666666663</ele><time>2026-04-04T13:46:58.199Z</time></trkpt><trkpt lat="43.2426599" lon="12.9894916"><ele>388.3333333333333</ele><time>2026-04-04T13:46:59.198Z</time></trkpt><trkpt lat="43.2424871" lon="12.9896643"><ele>389.0</ele><time>2026-04-04T13:47:00.198Z</time></trkpt><trkpt lat="43.2423171" lon="12.9898444"><ele>389.3333333333333</ele><time>2026-04-04T13:47:01.198Z</time></trkpt><trkpt lat="43.2421518" lon="12.9900334"><ele>389.66666666666663</ele><time>2026-04-04T13:47:02.198Z</time></trkpt><trkpt lat="43.241991" lon="12.9902306"><ele>390.0</ele><time>2026-04-04T13:47:03.198Z</time></trkpt><trkpt lat="43.241831" lon="12.9904343"><ele>390.0</ele><time>2026-04-04T13:47:04.199Z</time></trkpt><trkpt lat="43.2416738" lon="12.9906464"><ele>390.0</ele><time>2026-04-04T13:47:05.198Z</time></trkpt><trkpt lat="43.2415191" lon="12.9908645"><ele>390.0</ele><time>2026-04-04T13:47:06.199Z</time></trkpt><trkpt lat="43.2413674" lon="12.9910898"><ele>390.0</ele><time>2026-04-04T13:47:07.199Z</time></trkpt><trkpt lat="43.2412198" lon="12.9913225"><ele>390.0</ele><time>2026-04-04T13:47:08.199Z</time></trkpt><trkpt lat="43.2410782" lon="12.9915619"><ele>390.0</ele><time>2026-04-04T13:47:09.199Z</time></trkpt><trkpt lat="43.2409417" lon="12.9918107"><ele>388.5</ele><time>2026-04-04T13:47:10.198Z</time></trkpt><trkpt lat="43.2408089" lon="12.9920625"><ele>387.0</ele><time>2026-04-04T13:47:11.198Z</time></trkpt><trkpt lat="43.2406843" lon="12.992321"><ele>392.5</ele><time>2026-04-04T13:47:12.198Z</time></trkpt><trkpt lat="43.2405646" lon="12.9925811"><ele>398.0</ele><time>2026-04-04T13:47:13.198Z</time></trkpt><trkpt lat="43.240449" lon="12.9928471"><ele>398.0</ele><time>2026-04-04T13:47:14.198Z</time></trkpt><trkpt lat="43.2403385" lon="12.9931152"><ele>398.0</ele><time>2026-04-04T13:47:15.199Z</time></trkpt><trkpt lat="43.2402336" lon="12.9933874"><ele>398.0</ele><time>2026-04-04T13:47:16.198Z</time></trkpt><trkpt lat="43.2401354" lon="12.9936638"><ele>401.3333333333333</ele><time>2026-04-04T13:47:17.198Z</time></trkpt><trkpt lat="43.2400428" lon="12.9939425"><ele>404.66666666666663</ele><time>2026-04-04T13:47:18.198Z</time></trkpt><trkpt lat="43.2399555" lon="12.9942233"><ele>408.0</ele><time>2026-04-04T13:47:19.198Z</time></trkpt><trkpt lat="43.2398733" lon="12.994503"><ele>410.66666666666663</ele><time>2026-04-04T13:47:20.198Z</time></trkpt><trkpt lat="43.2397962" lon="12.9947879"><ele>413.3333333333333</ele><time>2026-04-04T13:47:21.198Z</time></trkpt><trkpt lat="43.2397238" lon="12.9950727"><ele>416.0</ele><time>2026-04-04T13:47:22.198Z</time></trkpt><trkpt lat="43.2396515" lon="12.995357"><ele>416.0</ele><time>2026-04-04T13:47:23.198Z</time></trkpt><trkpt lat="43.2395855" lon="12.9956432"><ele>416.0</ele><time>2026-04-04T13:47:24.199Z</time></trkpt><trkpt lat="43.2395217" lon="12.9959263"><ele>416.0</ele><time>2026-04-04T13:47:25.198Z</time></trkpt><trkpt lat="43.2394564" lon="12.9962072"><ele>415.0</ele><time>2026-04-04T13:47:26.198Z</time></trkpt><trkpt lat="43.2393929" lon="12.9964919"><ele>414.0</ele><time>2026-04-04T13:47:27.199Z</time></trkpt><trkpt lat="43.239328" lon="12.9967763"><ele>413.0</ele><time>2026-04-04T13:47:28.199Z</time></trkpt><trkpt lat="43.239264" lon="12.9970602"><ele>413.0</ele><time>2026-04-04T13:47:29.198Z</time></trkpt><trkpt lat="43.2392013" lon="12.9973451"><ele>413.0</ele><time>2026-04-04T13:47:30.198Z</time></trkpt><trkpt lat="43.2391376" lon="12.9976294"><ele>413.0</ele><time>2026-04-04T13:47:31.198Z</time></trkpt><trkpt lat="43.2390767" lon="12.9979134"><ele>412.66666666666663</ele><time>2026-04-04T13:47:32.198Z</time></trkpt><trkpt lat="43.2390156" lon="12.9981947"><ele>412.33333333333337</ele><time>2026-04-04T13:47:33.198Z</time></trkpt><trkpt lat="43.2389543" lon="12.9984763"><ele>412.0</ele><time>2026-04-04T13:47:34.198Z</time></trkpt><trkpt lat="43.2388944" lon="12.998756"><ele>414.33333333333337</ele><time>2026-04-04T13:47:35.199Z</time></trkpt><trkpt lat="43.2388327" lon="12.9990388"><ele>416.66666666666663</ele><time>2026-04-04T13:47:36.198Z</time></trkpt><trkpt lat="43.2387721" lon="12.9993241"><ele>419.0</ele><time>2026-04-04T13:47:37.199Z</time></trkpt><trkpt lat="43.2387137" lon="12.9996089"><ele>419.0</ele><time>2026-04-04T13:47:38.198Z</time></trkpt><trkpt lat="43.2386565" lon="12.9998927"><ele>419.0</ele><time>2026-04-04T13:47:39.198Z</time></trkpt><trkpt lat="43.2386059" lon="13.0001805"><ele>419.0</ele><time>2026-04-04T13:47:40.198Z</time></trkpt><trkpt lat="43.2385608" lon="13.000471"><ele>419.0</ele><time>2026-04-04T13:47:41.198Z</time></trkpt><trkpt lat="43.2385201" lon="13.0007631"><ele>419.0</ele><time>2026-04-04T13:47:42.199Z</time></trkpt><trkpt lat="43.2384827" lon="13.0010578"><ele>419.0</ele><time>2026-04-04T13:47:43.199Z</time></trkpt><trkpt lat="43.2384463" lon="13.0013502"><ele>418.0</ele><time>2026-04-04T13:47:44.199Z</time></trkpt><trkpt lat="43.2384098" lon="13.0016433"><ele>417.0</ele><time>2026-04-04T13:47:45.199Z</time></trkpt><trkpt lat="43.2384259" lon="13.0046692"><ele>417.0</ele><time>2026-04-04T13:47:55.198Z</time></trkpt><trkpt lat="43.238465" lon="13.0049508"><ele>417.0</ele><time>2026-04-04T13:47:56.198Z</time></trkpt><trkpt lat="43.2385263" lon="13.0052677"><ele>417.0</ele><time>2026-04-04T13:47:57.198Z</time></trkpt><trkpt lat="43.2385616" lon="13.0055845"><ele>411.0</ele><time>2026-04-04T13:47:58.198Z</time></trkpt><trkpt lat="43.2386093" lon="13.005893"><ele>405.0</ele><time>2026-04-04T13:47:59.199Z</time></trkpt><trkpt lat="43.2386538" lon="13.0061994"><ele>405.0</ele><time>2026-04-04T13:48:00.199Z</time></trkpt><trkpt lat="43.2387013" lon="13.0065076"><ele>405.0</ele><time>2026-04-04T13:48:01.199Z</time></trkpt><trkpt lat="43.238746" lon="13.0068183"><ele>401.5</ele><time>2026-04-04T13:48:02.199Z</time></trkpt><trkpt lat="43.238792" lon="13.0071245"><ele>398.0</ele><time>2026-04-04T13:48:03.198Z</time></trkpt><trkpt lat="43.2388359" lon="13.0074405"><ele>395.0</ele><time>2026-04-04T13:48:04.198Z</time></trkpt><trkpt lat="43.2388733" lon="13.0077501"><ele>392.0</ele><time>2026-04-04T13:48:05.198Z</time></trkpt><trkpt lat="43.2389127" lon="13.0080572"><ele>392.3333333333333</ele><time>2026-04-04T13:48:06.198Z</time></trkpt><trkpt lat="43.2389391" lon="13.0083643"><ele>392.66666666666663</ele><time>2026-04-04T13:48:07.199Z</time></trkpt><trkpt lat="43.2389619" lon="13.0086694"><ele>393.0</ele><time>2026-04-04T13:48:08.198Z</time></trkpt><trkpt lat="43.2389777" lon="13.0089751"><ele>392.0</ele><time>2026-04-04T13:48:09.198Z</time></trkpt><trkpt lat="43.2389831" lon="13.0092785"><ele>391.0</ele><time>2026-04-04T13:48:10.199Z</time></trkpt><trkpt lat="43.2389861" lon="13.0095781"><ele>390.0</ele><time>2026-04-04T13:48:11.198Z</time></trkpt><trkpt lat="43.2389818" lon="13.0098764"><ele>389.66666666666663</ele><time>2026-04-04T13:48:12.198Z</time></trkpt><trkpt lat="43.2389727" lon="13.0101744"><ele>389.3333333333333</ele><time>2026-04-04T13:48:13.199Z</time></trkpt><trkpt lat="43.2389598" lon="13.0104724"><ele>389.0</ele><time>2026-04-04T13:48:14.198Z</time></trkpt><trkpt lat="43.2389386" lon="13.0107714"><ele>389.66666666666663</ele><time>2026-04-04T13:48:15.198Z</time></trkpt><trkpt lat="43.2389148" lon="13.0110707"><ele>390.33333333333337</ele><time>2026-04-04T13:48:16.199Z</time></trkpt><trkpt lat="43.2388854" lon="13.0113669"><ele>391.0</ele><time>2026-04-04T13:48:17.199Z</time></trkpt><trkpt lat="43.2388454" lon="13.0116639"><ele>391.0</ele><time>2026-04-04T13:48:18.198Z</time></trkpt><trkpt lat="43.2388002" lon="13.01196"><ele>391.0</ele><time>2026-04-04T13:48:19.198Z</time></trkpt><trkpt lat="43.2387517" lon="13.0122572"><ele>391.0</ele><time>2026-04-04T13:48:20.198Z</time></trkpt><trkpt lat="43.2386951" lon="13.0125522"><ele>390.6666666666667</ele><time>2026-04-04T13:48:21.198Z</time></trkpt><trkpt lat="43.2386335" lon="13.0128458"><ele>390.33333333333337</ele><time>2026-04-04T13:48:22.199Z</time></trkpt><trkpt lat="43.2385655" lon="13.0131393"><ele>390.0</ele><time>2026-04-04T13:48:23.198Z</time></trkpt><trkpt lat="43.2384929" lon="13.0134327"><ele>392.0</ele><time>2026-04-04T13:48:24.198Z</time></trkpt><trkpt lat="43.238415" lon="13.0137248"><ele>394.0</ele><time>2026-04-04T13:48:25.198Z</time></trkpt><trkpt lat="43.2383287" lon="13.014014"><ele>393.0</ele><time>2026-04-04T13:48:26.198Z</time></trkpt><trkpt lat="43.2382351" lon="13.0142992"><ele>392.0</ele><time>2026-04-04T13:48:27.199Z</time></trkpt><trkpt lat="43.2381375" lon="13.0145823"><ele>390.5</ele><time>2026-04-04T13:48:28.198Z</time></trkpt><trkpt lat="43.2380318" lon="13.0148626"><ele>389.0</ele><time>2026-04-04T13:48:29.198Z</time></trkpt><trkpt lat="43.2379198" lon="13.0151397"><ele>389.0</ele><time>2026-04-04T13:48:30.198Z</time></trkpt><trkpt lat="43.2378017" lon="13.0154126"><ele>389.0</ele><time>2026-04-04T13:48:31.199Z</time></trkpt><trkpt lat="43.2376769" lon="13.0156818"><ele>387.5</ele><time>2026-04-04T13:48:32.198Z</time></trkpt><trkpt lat="43.2375453" lon="13.0159479"><ele>386.0</ele><time>2026-04-04T13:48:33.199Z</time></trkpt><trkpt lat="43.2374069" lon="13.0162097"><ele>387.5</ele><time>2026-04-04T13:48:34.198Z</time></trkpt><trkpt lat="43.2372631" lon="13.016466"><ele>389.0</ele><time>2026-04-04T13:48:35.198Z</time></trkpt><trkpt lat="43.2371157" lon="13.0167166"><ele>390.0</ele><time>2026-04-04T13:48:36.199Z</time></trkpt><trkpt lat="43.2369593" lon="13.0169577"><ele>391.0</ele><time>2026-04-04T13:48:37.199Z</time></trkpt><trkpt lat="43.2367996" lon="13.0171944"><ele>391.0</ele><time>2026-04-04T13:48:38.198Z</time></trkpt><trkpt lat="43.236639" lon="13.017426"><ele>391.0</ele><time>2026-04-04T13:48:39.198Z</time></trkpt><trkpt lat="43.2364729" lon="13.0176469"><ele>392.0</ele><time>2026-04-04T13:48:40.198Z</time></trkpt><trkpt lat="43.2363044" lon="13.0178572"><ele>393.0</ele><time>2026-04-04T13:48:41.198Z</time></trkpt><trkpt lat="43.2361372" lon="13.0180701"><ele>393.0</ele><time>2026-04-04T13:48:42.198Z</time></trkpt><trkpt lat="43.2359569" lon="13.0182622"><ele>393.0</ele><time>2026-04-04T13:48:43.199Z</time></trkpt><trkpt lat="43.2357817" lon="13.0184454"><ele>393.0</ele><time>2026-04-04T13:48:44.198Z</time></trkpt><trkpt lat="43.2356094" lon="13.0186378"><ele>392.5</ele><time>2026-04-04T13:48:45.199Z</time></trkpt><trkpt lat="43.2354311" lon="13.0188308"><ele>392.0</ele><time>2026-04-04T13:48:46.198Z</time></trkpt><trkpt lat="43.2352537" lon="13.0190195"><ele>392.3333333333333</ele><time>2026-04-04T13:48:47.199Z</time></trkpt><trkpt lat="43.2350714" lon="13.0192102"><ele>392.66666666666663</ele><time>2026-04-04T13:48:48.198Z</time></trkpt><trkpt lat="43.2349046" lon="13.0194021"><ele>393.0</ele><time>2026-04-04T13:48:49.198Z</time></trkpt><trkpt lat="43.2347278" lon="13.0195898"><ele>393.0</ele><time>2026-04-04T13:48:50.199Z</time></trkpt><trkpt lat="43.2345497" lon="13.01978"><ele>393.0</ele><time>2026-04-04T13:48:51.198Z</time></trkpt><trkpt lat="43.2343786" lon="13.0199769"><ele>393.0</ele><time>2026-04-04T13:48:52.198Z</time></trkpt><trkpt lat="43.2342041" lon="13.0201815"><ele>390.5</ele><time>2026-04-04T13:48:53.199Z</time></trkpt><trkpt lat="43.2340378" lon="13.0203946"><ele>388.0</ele><time>2026-04-04T13:48:54.198Z</time></trkpt><trkpt lat="43.2338706" lon="13.0206089"><ele>389.5</ele><time>2026-04-04T13:48:55.199Z</time></trkpt><trkpt lat="43.2337048" lon="13.0208228"><ele>391.0</ele><time>2026-04-04T13:48:56.199Z</time></trkpt><trkpt lat="43.2335459" lon="13.0210422"><ele>391.0</ele><time>2026-04-04T13:48:57.198Z</time></trkpt><trkpt lat="43.2333898" lon="13.0212691"><ele>391.0</ele><time>2026-04-04T13:48:58.199Z</time></trkpt><trkpt lat="43.2332373" lon="13.0215095"><ele>388.5</ele><time>2026-04-04T13:48:59.198Z</time></trkpt><trkpt lat="43.2330844" lon="13.0217427"><ele>386.0</ele><time>2026-04-04T13:49:00.198Z</time></trkpt><trkpt lat="43.2329343" lon="13.0219867"><ele>386.0</ele><time>2026-04-04T13:49:01.198Z</time></trkpt><trkpt lat="43.2327851" lon="13.0222285"><ele>386.0</ele><time>2026-04-04T13:49:02.199Z</time></trkpt><trkpt lat="43.2326379" lon="13.0224734"><ele>383.5</ele><time>2026-04-04T13:49:03.198Z</time></trkpt><trkpt lat="43.2324891" lon="13.0227167"><ele>381.0</ele><time>2026-04-04T13:49:04.198Z</time></trkpt><trkpt lat="43.23234" lon="13.0229596"><ele>375.5</ele><time>2026-04-04T13:49:05.198Z</time></trkpt><trkpt lat="43.2321928" lon="13.0232018"><ele>370.0</ele><time>2026-04-04T13:49:06.198Z</time></trkpt><trkpt lat="43.2320401" lon="13.0234506"><ele>370.0</ele><time>2026-04-04T13:49:07.198Z</time></trkpt><trkpt lat="43.2318875" lon="13.0237133"><ele>370.0</ele><time>2026-04-04T13:49:08.198Z</time></trkpt><trkpt lat="43.2317331" lon="13.0239611"><ele>370.0</ele><time>2026-04-04T13:49:09.198Z</time></trkpt><trkpt lat="43.2315768" lon="13.024202"><ele>370.0</ele><time>2026-04-04T13:49:10.198Z</time></trkpt><trkpt lat="43.2314235" lon="13.0244519"><ele>370.0</ele><time>2026-04-04T13:49:11.198Z</time></trkpt><trkpt lat="43.2312703" lon="13.0246978"><ele>370.0</ele><time>2026-04-04T13:49:12.198Z</time></trkpt><trkpt lat="43.2311136" lon="13.024937"><ele>372.0</ele><time>2026-04-04T13:49:13.198Z</time></trkpt><trkpt lat="43.2309647" lon="13.0251831"><ele>374.0</ele><time>2026-04-04T13:49:14.198Z</time></trkpt><trkpt lat="43.2308121" lon="13.025423"><ele>374.0</ele><time>2026-04-04T13:49:15.199Z</time></trkpt><trkpt lat="43.2306651" lon="13.0256741"><ele>374.0</ele><time>2026-04-04T13:49:16.199Z</time></trkpt><trkpt lat="43.2305226" lon="13.0259254"><ele>369.5</ele><time>2026-04-04T13:49:17.198Z</time></trkpt><trkpt lat="43.230382" lon="13.026185"><ele>365.0</ele><time>2026-04-04T13:49:18.199Z</time></trkpt><trkpt lat="43.2302432" lon="13.0264418"><ele>362.5</ele><time>2026-04-04T13:49:19.198Z</time></trkpt><trkpt lat="43.2301192" lon="13.0267119"><ele>360.0</ele><time>2026-04-04T13:49:20.198Z</time></trkpt><trkpt lat="43.2299923" lon="13.0269702"><ele>360.0</ele><time>2026-04-04T13:49:21.198Z</time></trkpt><trkpt lat="43.229867" lon="13.0272365"><ele>360.0</ele><time>2026-04-04T13:49:22.198Z</time></trkpt><trkpt lat="43.2297473" lon="13.0275004"><ele>355.5</ele><time>2026-04-04T13:49:23.198Z</time></trkpt><trkpt lat="43.2296258" lon="13.0277663"><ele>351.0</ele><time>2026-04-04T13:49:24.199Z</time></trkpt><trkpt lat="43.2295093" lon="13.028038"><ele>348.5</ele><time>2026-04-04T13:49:25.199Z</time></trkpt><trkpt lat="43.2293994" lon="13.0283248"><ele>346.0</ele><time>2026-04-04T13:49:26.199Z</time></trkpt><trkpt lat="43.2292947" lon="13.028606"><ele>346.0</ele><time>2026-04-04T13:49:27.199Z</time></trkpt><trkpt lat="43.2291928" lon="13.0288822"><ele>346.0</ele><time>2026-04-04T13:49:28.198Z</time></trkpt><trkpt lat="43.2290888" lon="13.0291536"><ele>346.0</ele><time>2026-04-04T13:49:29.199Z</time></trkpt><trkpt lat="43.2289896" lon="13.0294258"><ele>345.66666666666663</ele><time>2026-04-04T13:49:30.199Z</time></trkpt><trkpt lat="43.2288908" lon="13.0296956"><ele>345.3333333333333</ele><time>2026-04-04T13:49:31.198Z</time></trkpt><trkpt lat="43.2287861" lon="13.0299647"><ele>345.0</ele><time>2026-04-04T13:49:32.198Z</time></trkpt><trkpt lat="43.2286845" lon="13.0302275"><ele>344.6666666666667</ele><time>2026-04-04T13:49:33.198Z</time></trkpt><trkpt lat="43.2285882" lon="13.0304937"><ele>344.33333333333337</ele><time>2026-04-04T13:49:34.198Z</time></trkpt><trkpt lat="43.228501" lon="13.030757"><ele>344.0</ele><time>2026-04-04T13:49:35.199Z</time></trkpt><trkpt lat="43.2284099" lon="13.0310219"><ele>344.0</ele><time>2026-04-04T13:49:36.198Z</time></trkpt><trkpt lat="43.2283141" lon="13.0312826"><ele>344.0</ele><time>2026-04-04T13:49:37.198Z</time></trkpt><trkpt lat="43.2282211" lon="13.0315306"><ele>344.0</ele><time>2026-04-04T13:49:38.198Z</time></trkpt><trkpt lat="43.2281248" lon="13.0317912"><ele>344.6666666666667</ele><time>2026-04-04T13:49:39.198Z</time></trkpt><trkpt lat="43.2280369" lon="13.0320484"><ele>345.3333333333333</ele><time>2026-04-04T13:49:40.198Z</time></trkpt><trkpt lat="43.2279366" lon="13.03229"><ele>346.0</ele><time>2026-04-04T13:49:41.198Z</time></trkpt><trkpt lat="43.2278424" lon="13.0325273"><ele>344.3333333333333</ele><time>2026-04-04T13:49:42.199Z</time></trkpt><trkpt lat="43.2277545" lon="13.032752"><ele>342.6666666666667</ele><time>2026-04-04T13:49:43.198Z</time></trkpt><trkpt lat="43.2276695" lon="13.0329696"><ele>341.0</ele><time>2026-04-04T13:49:44.198Z</time></trkpt><trkpt lat="43.2275873" lon="13.0331832"><ele>339.33333333333337</ele><time>2026-04-04T13:49:45.198Z</time></trkpt><trkpt lat="43.2275078" lon="13.0333878"><ele>337.6666666666667</ele><time>2026-04-04T13:49:46.198Z</time></trkpt><trkpt lat="43.2274358" lon="13.0335813"><ele>336.0</ele><time>2026-04-04T13:49:47.199Z</time></trkpt><trkpt lat="43.2273554" lon="13.033788"><ele>335.3333333333333</ele><time>2026-04-04T13:49:48.199Z</time></trkpt><trkpt lat="43.227274" lon="13.0339833"><ele>334.66666666666663</ele><time>2026-04-04T13:49:49.198Z</time></trkpt><trkpt lat="43.2271822" lon="13.0341735"><ele>334.0</ele><time>2026-04-04T13:49:50.198Z</time></trkpt><trkpt lat="43.2270767" lon="13.0343492"><ele>333.66666666666663</ele><time>2026-04-04T13:49:51.198Z</time></trkpt><trkpt lat="43.2269565" lon="13.034509"><ele>333.3333333333333</ele><time>2026-04-04T13:49:52.198Z</time></trkpt><trkpt lat="43.2268154" lon="13.0346572"><ele>333.0</ele><time>2026-04-04T13:49:53.198Z</time></trkpt><trkpt lat="43.2266611" lon="13.0347875"><ele>333.0</ele><time>2026-04-04T13:49:54.199Z</time></trkpt><trkpt lat="43.2264987" lon="13.03488"><ele>333.0</ele><time>2026-04-04T13:49:55.198Z</time></trkpt><trkpt lat="43.2263411" lon="13.0349595"><ele>333.0</ele><time>2026-04-04T13:49:56.199Z</time></trkpt><trkpt lat="43.226191" lon="13.0350285"><ele>335.5</ele><time>2026-04-04T13:49:57.198Z</time></trkpt><trkpt lat="43.2260554" lon="13.0350806"><ele>338.0</ele><time>2026-04-04T13:49:58.199Z</time></trkpt><trkpt lat="43.2259297" lon="13.0351357"><ele>340.5</ele><time>2026-04-04T13:49:59.199Z</time></trkpt><trkpt lat="43.2258116" lon="13.0352118"><ele>343.0</ele><time>2026-04-04T13:50:00.198Z</time></trkpt><trkpt lat="43.2257176" lon="13.0353217"><ele>343.0</ele><time>2026-04-04T13:50:01.198Z</time></trkpt><trkpt lat="43.2256492" lon="13.0354622"><ele>343.0</ele><time>2026-04-04T13:50:02.198Z</time></trkpt><trkpt lat="43.2256122" lon="13.035622"><ele>343.0</ele><time>2026-04-04T13:50:03.198Z</time></trkpt><trkpt lat="43.2256051" lon="13.0357841"><ele>343.0</ele><time>2026-04-04T13:50:04.198Z</time></trkpt><trkpt lat="43.2256354" lon="13.0359444"><ele>340.25</ele><time>2026-04-04T13:50:05.198Z</time></trkpt><trkpt lat="43.2257253" lon="13.0360961"><ele>337.5</ele><time>2026-04-04T13:50:06.198Z</time></trkpt><trkpt lat="43.2258172" lon="13.0362313"><ele>334.75</ele><time>2026-04-04T13:50:07.198Z</time></trkpt><trkpt lat="43.2259361" lon="13.0363487"><ele>332.0</ele><time>2026-04-04T13:50:08.198Z</time></trkpt><trkpt lat="43.226067" lon="13.0364646"><ele>332.0</ele><time>2026-04-04T13:50:09.198Z</time></trkpt><trkpt lat="43.2261938" lon="13.0365922"><ele>332.0</ele><time>2026-04-04T13:50:10.199Z</time></trkpt><trkpt lat="43.2263316" lon="13.0367164"><ele>332.0</ele><time>2026-04-04T13:50:11.198Z</time></trkpt><trkpt lat="43.2264725" lon="13.0368355"><ele>331.5</ele><time>2026-04-04T13:50:12.199Z</time></trkpt><trkpt lat="43.2266081" lon="13.0369531"><ele>331.0</ele><time>2026-04-04T13:50:13.199Z</time></trkpt><trkpt lat="43.2267349" lon="13.0370632"><ele>330.5</ele><time>2026-04-04T13:50:14.198Z</time></trkpt><trkpt lat="43.2268457" lon="13.0371705"><ele>330.0</ele><time>2026-04-04T13:50:15.198Z</time></trkpt><trkpt lat="43.2269367" lon="13.0372615"><ele>330.0</ele><time>2026-04-04T13:50:16.198Z</time></trkpt><trkpt lat="43.2270009" lon="13.0373364"><ele>330.0</ele><time>2026-04-04T13:50:17.198Z</time></trkpt><trkpt lat="43.2270473" lon="13.0374256"><ele>330.0</ele><time>2026-04-04T13:50:18.198Z</time></trkpt><trkpt lat="43.2270726" lon="13.0375264"><ele>330.0</ele><time>2026-04-04T13:50:19.199Z</time></trkpt><trkpt lat="43.2270932" lon="13.0376473"><ele>330.0</ele><time>2026-04-04T13:50:20.198Z</time></trkpt><trkpt lat="43.2270886" lon="13.0377713"><ele>330.0</ele><time>2026-04-04T13:50:21.198Z</time></trkpt><trkpt lat="43.2270606" lon="13.03789"><ele>330.25</ele><time>2026-04-04T13:50:22.198Z</time></trkpt><trkpt lat="43.2269616" lon="13.0379941"><ele>330.5</ele><time>2026-04-04T13:50:23.199Z</time></trkpt><trkpt lat="43.2268444" lon="13.0380887"><ele>330.75</ele><time>2026-04-04T13:50:24.199Z</time></trkpt><trkpt lat="43.2267236" lon="13.0381726"><ele>331.0</ele><time>2026-04-04T13:50:25.198Z</time></trkpt><trkpt lat="43.2265777" lon="13.0382472"><ele>330.66666666666663</ele><time>2026-04-04T13:50:26.198Z</time></trkpt><trkpt lat="43.2264227" lon="13.0383166"><ele>330.3333333333333</ele><time>2026-04-04T13:50:27.198Z</time></trkpt><trkpt lat="43.2262614" lon="13.0383674"><ele>330.0</ele><time>2026-04-04T13:50:28.199Z</time></trkpt><trkpt lat="43.2260902" lon="13.0384195"><ele>330.0</ele><time>2026-04-04T13:50:29.198Z</time></trkpt><trkpt lat="43.2259205" lon="13.0384671"><ele>330.0</ele><time>2026-04-04T13:50:30.198Z</time></trkpt><trkpt lat="43.2257466" lon="13.0385097"><ele>330.0</ele><time>2026-04-04T13:50:31.199Z</time></trkpt><trkpt lat="43.225572" lon="13.0385608"><ele>329.3333333333333</ele><time>2026-04-04T13:50:32.198Z</time></trkpt><trkpt lat="43.2253974" lon="13.0386101"><ele>328.66666666666663</ele><time>2026-04-04T13:50:33.198Z</time></trkpt><trkpt lat="43.2252256" lon="13.0386814"><ele>328.0</ele><time>2026-04-04T13:50:34.199Z</time></trkpt><trkpt lat="43.2250501" lon="13.0387474"><ele>328.0</ele><time>2026-04-04T13:50:35.198Z</time></trkpt><trkpt lat="43.2248811" lon="13.0388203"><ele>328.0</ele><time>2026-04-04T13:50:36.198Z</time></trkpt><trkpt lat="43.2247355" lon="13.0389284"><ele>328.0</ele><time>2026-04-04T13:50:37.198Z</time></trkpt><trkpt lat="43.2245826" lon="13.0390427"><ele>328.3333333333333</ele><time>2026-04-04T13:50:38.198Z</time></trkpt><trkpt lat="43.2244347" lon="13.0391668"><ele>328.6666666666667</ele><time>2026-04-04T13:50:39.198Z</time></trkpt><trkpt lat="43.2242958" lon="13.0393102"><ele>329.0</ele><time>2026-04-04T13:50:40.198Z</time></trkpt><trkpt lat="43.2241645" lon="13.0394664"><ele>329.0</ele><time>2026-04-04T13:50:41.198Z</time></trkpt><trkpt lat="43.2240344" lon="13.0396259"><ele>329.0</ele><time>2026-04-04T13:50:42.198Z</time></trkpt><trkpt lat="43.2239072" lon="13.0397862"><ele>329.0</ele><time>2026-04-04T13:50:43.198Z</time></trkpt><trkpt lat="43.2237837" lon="13.0399587"><ele>328.6666666666667</ele><time>2026-04-04T13:50:44.198Z</time></trkpt><trkpt lat="43.2236589" lon="13.0401212"><ele>328.3333333333333</ele><time>2026-04-04T13:50:45.198Z</time></trkpt><trkpt lat="43.2235298" lon="13.0402829"><ele>328.0</ele><time>2026-04-04T13:50:46.198Z</time></trkpt><trkpt lat="43.2234043" lon="13.040454"><ele>328.0</ele><time>2026-04-04T13:50:47.199Z</time></trkpt><trkpt lat="43.2232843" lon="13.0406139"><ele>328.0</ele><time>2026-04-04T13:50:48.198Z</time></trkpt><trkpt lat="43.2231573" lon="13.0407702"><ele>328.0</ele><time>2026-04-04T13:50:49.198Z</time></trkpt><trkpt lat="43.2230346" lon="13.0409415"><ele>327.3333333333333</ele><time>2026-04-04T13:50:50.198Z</time></trkpt><trkpt lat="43.2229146" lon="13.0411037"><ele>326.6666666666667</ele><time>2026-04-04T13:50:51.198Z</time></trkpt><trkpt lat="43.2227907" lon="13.0412634"><ele>326.0</ele><time>2026-04-04T13:50:52.198Z</time></trkpt><trkpt lat="43.2226634" lon="13.0414242"><ele>326.0</ele><time>2026-04-04T13:50:53.199Z</time></trkpt><trkpt lat="43.2225339" lon="13.0415894"><ele>326.0</ele><time>2026-04-04T13:50:54.198Z</time></trkpt><trkpt lat="43.2224124" lon="13.0417583"><ele>326.0</ele><time>2026-04-04T13:50:55.198Z</time></trkpt><trkpt lat="43.2222889" lon="13.0419214"><ele>324.6666666666667</ele><time>2026-04-04T13:50:56.198Z</time></trkpt><trkpt lat="43.2221708" lon="13.0420862"><ele>323.3333333333333</ele><time>2026-04-04T13:50:57.198Z</time></trkpt><trkpt lat="43.2220476" lon="13.0422493"><ele>322.0</ele><time>2026-04-04T13:50:58.199Z</time></trkpt><trkpt lat="43.2219238" lon="13.0424109"><ele>323.0</ele><time>2026-04-04T13:50:59.198Z</time></trkpt><trkpt lat="43.221807" lon="13.0425644"><ele>324.0</ele><time>2026-04-04T13:51:00.198Z</time></trkpt><trkpt lat="43.2217061" lon="13.0427079"><ele>325.0</ele><time>2026-04-04T13:51:01.199Z</time></trkpt><trkpt lat="43.2215961" lon="13.0428522"><ele>323.3333333333333</ele><time>2026-04-04T13:51:02.199Z</time></trkpt><trkpt lat="43.2214642" lon="13.0429767"><ele>321.6666666666667</ele><time>2026-04-04T13:51:03.198Z</time></trkpt><trkpt lat="43.2213345" lon="13.0430891"><ele>320.0</ele><time>2026-04-04T13:51:04.199Z</time></trkpt><trkpt lat="43.2212011" lon="13.043184"><ele>320.0</ele><time>2026-04-04T13:51:05.198Z</time></trkpt><trkpt lat="43.2210569" lon="13.0432637"><ele>320.0</ele><time>2026-04-04T13:51:06.198Z</time></trkpt><trkpt lat="43.2209364" lon="13.0433278"><ele>320.0</ele><time>2026-04-04T13:51:07.198Z</time></trkpt><trkpt lat="43.2208104" lon="13.0433987"><ele>320.0</ele><time>2026-04-04T13:51:08.198Z</time></trkpt><trkpt lat="43.2206726" lon="13.0434655"><ele>319.33333333333337</ele><time>2026-04-04T13:51:09.198Z</time></trkpt><trkpt lat="43.2205348" lon="13.0435644"><ele>318.6666666666667</ele><time>2026-04-04T13:51:10.198Z</time></trkpt><trkpt lat="43.2204029" lon="13.0436586"><ele>318.0</ele><time>2026-04-04T13:51:11.198Z</time></trkpt><trkpt lat="43.2202864" lon="13.0438107"><ele>318.0</ele><time>2026-04-04T13:51:12.199Z</time></trkpt><trkpt lat="43.2201733" lon="13.0439757"><ele>318.0</ele><time>2026-04-04T13:51:13.198Z</time></trkpt><trkpt lat="43.2200774" lon="13.0441673"><ele>318.0</ele><time>2026-04-04T13:51:14.198Z</time></trkpt><trkpt lat="43.2199594" lon="13.0443333"><ele>317.6666666666667</ele><time>2026-04-04T13:51:15.198Z</time></trkpt><trkpt lat="43.2198423" lon="13.044493"><ele>317.33333333333337</ele><time>2026-04-04T13:51:16.198Z</time></trkpt><trkpt lat="43.2197184" lon="13.0446437"><ele>317.0</ele><time>2026-04-04T13:51:17.198Z</time></trkpt><trkpt lat="43.219591" lon="13.044782"><ele>317.0</ele><time>2026-04-04T13:51:18.198Z</time></trkpt><trkpt lat="43.2194444" lon="13.0449185"><ele>317.0</ele><time>2026-04-04T13:51:19.198Z</time></trkpt><trkpt lat="43.2193076" lon="13.0450467"><ele>317.0</ele><time>2026-04-04T13:51:20.198Z</time></trkpt><trkpt lat="43.2191734" lon="13.0451869"><ele>317.0</ele><time>2026-04-04T13:51:21.198Z</time></trkpt><trkpt lat="43.2190333" lon="13.0453218"><ele>317.0</ele><time>2026-04-04T13:51:22.198Z</time></trkpt><trkpt lat="43.2188922" lon="13.0454571"><ele>317.0</ele><time>2026-04-04T13:51:23.199Z</time></trkpt><trkpt lat="43.2187434" lon="13.0455937"><ele>317.0</ele><time>2026-04-04T13:51:24.198Z</time></trkpt><trkpt lat="43.2185925" lon="13.0457329"><ele>317.0</ele><time>2026-04-04T13:51:25.199Z</time></trkpt><trkpt lat="43.2184439" lon="13.0458781"><ele>317.0</ele><time>2026-04-04T13:51:26.198Z</time></trkpt><trkpt lat="43.2182935" lon="13.0460147"><ele>316.0</ele><time>2026-04-04T13:51:27.199Z</time></trkpt><trkpt lat="43.2181415" lon="13.0461365"><ele>315.0</ele><time>2026-04-04T13:51:28.198Z</time></trkpt><trkpt lat="43.2179761" lon="13.0462397"><ele>314.0</ele><time>2026-04-04T13:51:29.198Z</time></trkpt><trkpt lat="43.2178098" lon="13.0463061"><ele>314.0</ele><time>2026-04-04T13:51:30.198Z</time></trkpt><trkpt lat="43.2176288" lon="13.0463444"><ele>314.0</ele><time>2026-04-04T13:51:31.199Z</time></trkpt><trkpt lat="43.2174493" lon="13.0463798"><ele>314.0</ele><time>2026-04-04T13:51:32.198Z</time></trkpt><trkpt lat="43.2172529" lon="13.0464173"><ele>314.6666666666667</ele><time>2026-04-04T13:51:33.198Z</time></trkpt><trkpt lat="43.2170684" lon="13.0464466"><ele>315.3333333333333</ele><time>2026-04-04T13:51:34.198Z</time></trkpt><trkpt lat="43.2168848" lon="13.0464737"><ele>316.0</ele><time>2026-04-04T13:51:35.198Z</time></trkpt><trkpt lat="43.2166982" lon="13.0465012"><ele>316.0</ele><time>2026-04-04T13:51:36.199Z</time></trkpt><trkpt lat="43.2165197" lon="13.0465288"><ele>316.0</ele><time>2026-04-04T13:51:37.198Z</time></trkpt><trkpt lat="43.2163409" lon="13.0465511"><ele>316.0</ele><time>2026-04-04T13:51:38.198Z</time></trkpt><trkpt lat="43.216162" lon="13.0465767"><ele>317.66666666666663</ele><time>2026-04-04T13:51:39.199Z</time></trkpt><trkpt lat="43.2159892" lon="13.0465999"><ele>319.3333333333333</ele><time>2026-04-04T13:51:40.198Z</time></trkpt><trkpt lat="43.2158188" lon="13.0466101"><ele>321.0</ele><time>2026-04-04T13:51:41.198Z</time></trkpt><trkpt lat="43.2156404" lon="13.0466136"><ele>321.0</ele><time>2026-04-04T13:51:42.198Z</time></trkpt><trkpt lat="43.2154555" lon="13.0466266"><ele>321.0</ele><time>2026-04-04T13:51:43.198Z</time></trkpt><trkpt lat="43.215271" lon="13.0466396"><ele>321.0</ele><time>2026-04-04T13:51:44.198Z</time></trkpt><trkpt lat="43.215074" lon="13.0466613"><ele>318.0</ele><time>2026-04-04T13:51:45.198Z</time></trkpt><trkpt lat="43.2148821" lon="13.0466845"><ele>315.0</ele><time>2026-04-04T13:51:46.198Z</time></trkpt><trkpt lat="43.2146906" lon="13.0467092"><ele>312.0</ele><time>2026-04-04T13:51:47.199Z</time></trkpt><trkpt lat="43.2145056" lon="13.0467295"><ele>311.6666666666667</ele><time>2026-04-04T13:51:48.198Z</time></trkpt><trkpt lat="43.2143022" lon="13.046753"><ele>311.33333333333337</ele><time>2026-04-04T13:51:49.198Z</time></trkpt><trkpt lat="43.2141185" lon="13.0467717"><ele>311.0</ele><time>2026-04-04T13:51:50.198Z</time></trkpt><trkpt lat="43.2139346" lon="13.0467894"><ele>310.33333333333337</ele><time>2026-04-04T13:51:51.198Z</time></trkpt><trkpt lat="43.213756" lon="13.0467948"><ele>309.6666666666667</ele><time>2026-04-04T13:51:52.198Z</time></trkpt><trkpt lat="43.2135878" lon="13.0468147"><ele>309.0</ele><time>2026-04-04T13:51:53.198Z</time></trkpt><trkpt lat="43.2134019" lon="13.0468509"><ele>309.0</ele><time>2026-04-04T13:51:54.199Z</time></trkpt><trkpt lat="43.2132171" lon="13.0468923"><ele>309.0</ele><time>2026-04-04T13:51:55.199Z</time></trkpt><trkpt lat="43.2130352" lon="13.0469618"><ele>309.0</ele><time>2026-04-04T13:51:56.198Z</time></trkpt><trkpt lat="43.2128572" lon="13.0470514"><ele>310.0</ele><time>2026-04-04T13:51:57.198Z</time></trkpt><trkpt lat="43.2126764" lon="13.0471555"><ele>311.0</ele><time>2026-04-04T13:51:58.198Z</time></trkpt><trkpt lat="43.2124949" lon="13.047259"><ele>312.0</ele><time>2026-04-04T13:51:59.198Z</time></trkpt><trkpt lat="43.2123167" lon="13.0473666"><ele>311.6666666666667</ele><time>2026-04-04T13:52:00.199Z</time></trkpt><trkpt lat="43.2121323" lon="13.0474705"><ele>311.33333333333337</ele><time>2026-04-04T13:52:01.198Z</time></trkpt><trkpt lat="43.211952" lon="13.0475757"><ele>311.0</ele><time>2026-04-04T13:52:02.198Z</time></trkpt><trkpt lat="43.2117785" lon="13.047681"><ele>311.0</ele><time>2026-04-04T13:52:03.198Z</time></trkpt><trkpt lat="43.2116108" lon="13.0477779"><ele>311.0</ele><time>2026-04-04T13:52:04.199Z</time></trkpt><trkpt lat="43.2114374" lon="13.0478737"><ele>311.0</ele><time>2026-04-04T13:52:05.198Z</time></trkpt><trkpt lat="43.2112604" lon="13.047962"><ele>313.0</ele><time>2026-04-04T13:52:06.198Z</time></trkpt><trkpt lat="43.2110833" lon="13.0480426"><ele>315.0</ele><time>2026-04-04T13:52:07.198Z</time></trkpt><trkpt lat="43.2109071" lon="13.0481021"><ele>317.0</ele><time>2026-04-04T13:52:08.198Z</time></trkpt><trkpt lat="43.2107323" lon="13.0481479"><ele>318.33333333333337</ele><time>2026-04-04T13:52:09.198Z</time></trkpt><trkpt lat="43.2105645" lon="13.0481717"><ele>319.6666666666667</ele><time>2026-04-04T13:52:10.198Z</time></trkpt><trkpt lat="43.2104008" lon="13.0481935"><ele>321.0</ele><time>2026-04-04T13:52:11.198Z</time></trkpt><trkpt lat="43.2102397" lon="13.0482138"><ele>321.0</ele><time>2026-04-04T13:52:12.198Z</time></trkpt><trkpt lat="43.2100928" lon="13.048232"><ele>321.0</ele><time>2026-04-04T13:52:13.198Z</time></trkpt><trkpt lat="43.209968" lon="13.0482776"><ele>321.0</ele><time>2026-04-04T13:52:14.198Z</time></trkpt><trkpt lat="43.2098464" lon="13.0483425"><ele>321.0</ele><time>2026-04-04T13:52:15.198Z</time></trkpt><trkpt lat="43.2097227" lon="13.0484297"><ele>319.5</ele><time>2026-04-04T13:52:16.198Z</time></trkpt><trkpt lat="43.2096172" lon="13.0485679"><ele>318.0</ele><time>2026-04-04T13:52:17.198Z</time></trkpt><trkpt lat="43.2095256" lon="13.0487281"><ele>316.5</ele><time>2026-04-04T13:52:18.198Z</time></trkpt><trkpt lat="43.209442" lon="13.0489004"><ele>315.0</ele><time>2026-04-04T13:52:19.199Z</time></trkpt><trkpt lat="43.2093717" lon="13.0490748"><ele>314.25</ele><time>2026-04-04T13:52:20.199Z</time></trkpt><trkpt lat="43.2093124" lon="13.0492436"><ele>313.5</ele><time>2026-04-04T13:52:21.198Z</time></trkpt><trkpt lat="43.2092437" lon="13.0494079"><ele>312.75</ele><time>2026-04-04T13:52:22.198Z</time></trkpt><trkpt lat="43.2091687" lon="13.0495501"><ele>312.0</ele><time>2026-04-04T13:52:23.198Z</time></trkpt><trkpt lat="43.2091069" lon="13.0497027"><ele>312.0</ele><time>2026-04-04T13:52:24.198Z</time></trkpt><trkpt lat="43.2090467" lon="13.0498516"><ele>312.0</ele><time>2026-04-04T13:52:25.198Z</time></trkpt><trkpt lat="43.2089877" lon="13.0500001"><ele>312.0</ele><time>2026-04-04T13:52:26.198Z</time></trkpt><trkpt lat="43.20893" lon="13.0501428"><ele>312.0</ele><time>2026-04-04T13:52:27.198Z</time></trkpt><trkpt lat="43.2088764" lon="13.0502922"><ele>311.8</ele><time>2026-04-04T13:52:28.199Z</time></trkpt><trkpt lat="43.2088227" lon="13.0504321"><ele>311.6</ele><time>2026-04-04T13:52:29.198Z</time></trkpt><trkpt lat="43.2087801" lon="13.0505629"><ele>311.40000000000003</ele><time>2026-04-04T13:52:30.198Z</time></trkpt><trkpt lat="43.20873" lon="13.0506792"><ele>311.2</ele><time>2026-04-04T13:52:31.198Z</time></trkpt><trkpt lat="43.2086845" lon="13.0507814"><ele>311.0</ele><time>2026-04-04T13:52:32.199Z</time></trkpt><trkpt lat="43.2086342" lon="13.0508718"><ele>311.0</ele><time>2026-04-04T13:52:33.198Z</time></trkpt><trkpt lat="43.2085736" lon="13.0509223"><ele>311.0</ele><time>2026-04-04T13:52:34.198Z</time></trkpt><trkpt lat="43.2085133" lon="13.050993"><ele>311.0</ele><time>2026-04-04T13:52:35.198Z</time></trkpt><trkpt lat="43.2084753" lon="13.0510758"><ele>311.0</ele><time>2026-04-04T13:52:36.199Z</time></trkpt><trkpt lat="43.2084693" lon="13.0511884"><ele>311.0</ele><time>2026-04-04T13:52:37.198Z</time></trkpt><trkpt lat="43.2084588" lon="13.0512942"><ele>311.0</ele><time>2026-04-04T13:52:38.198Z</time></trkpt><trkpt lat="43.2084198" lon="13.0514145"><ele>311.0</ele><time>2026-04-04T13:52:39.198Z</time></trkpt><trkpt lat="43.2083611" lon="13.0515429"><ele>311.0</ele><time>2026-04-04T13:52:40.199Z</time></trkpt><trkpt lat="43.2083097" lon="13.0516881"><ele>311.0</ele><time>2026-04-04T13:52:41.198Z</time></trkpt><trkpt lat="43.2082567" lon="13.0518279"><ele>311.0</ele><time>2026-04-04T13:52:42.198Z</time></trkpt><trkpt lat="43.2082041" lon="13.051973"><ele>311.75</ele><time>2026-04-04T13:52:43.198Z</time></trkpt><trkpt lat="43.2081462" lon="13.0521179"><ele>312.5</ele><time>2026-04-04T13:52:44.198Z</time></trkpt><trkpt lat="43.2080917" lon="13.0522708"><ele>313.25</ele><time>2026-04-04T13:52:45.198Z</time></trkpt><trkpt lat="43.2080236" lon="13.0524374"><ele>314.0</ele><time>2026-04-04T13:52:46.198Z</time></trkpt><trkpt lat="43.2079572" lon="13.0525998"><ele>314.0</ele><time>2026-04-04T13:52:47.199Z</time></trkpt><trkpt lat="43.2078939" lon="13.0527709"><ele>314.0</ele><time>2026-04-04T13:52:48.198Z</time></trkpt><trkpt lat="43.2078289" lon="13.0529456"><ele>314.0</ele><time>2026-04-04T13:52:49.198Z</time></trkpt><trkpt lat="43.2077702" lon="13.0531241"><ele>314.0</ele><time>2026-04-04T13:52:50.198Z</time></trkpt><trkpt lat="43.2077042" lon="13.0532911"><ele>314.0</ele><time>2026-04-04T13:52:51.198Z</time></trkpt><trkpt lat="43.2076281" lon="13.0534515"><ele>314.0</ele><time>2026-04-04T13:52:52.198Z</time></trkpt><trkpt lat="43.2075432" lon="13.0536068"><ele>314.0</ele><time>2026-04-04T13:52:53.199Z</time></trkpt><trkpt lat="43.2074482" lon="13.053757"><ele>314.0</ele><time>2026-04-04T13:52:54.198Z</time></trkpt><trkpt lat="43.207345" lon="13.0538964"><ele>314.5</ele><time>2026-04-04T13:52:55.198Z</time></trkpt><trkpt lat="43.2072322" lon="13.0540173"><ele>315.0</ele><time>2026-04-04T13:52:56.198Z</time></trkpt><trkpt lat="43.2071089" lon="13.0541186"><ele>315.5</ele><time>2026-04-04T13:52:57.199Z</time></trkpt><trkpt lat="43.2069816" lon="13.0541949"><ele>316.0</ele><time>2026-04-04T13:52:58.198Z</time></trkpt><trkpt lat="43.2068509" lon="13.0542502"><ele>316.0</ele><time>2026-04-04T13:52:59.198Z</time></trkpt><trkpt lat="43.2067157" lon="13.0542975"><ele>316.0</ele><time>2026-04-04T13:53:00.198Z</time></trkpt><trkpt lat="43.2065808" lon="13.0543211"><ele>316.0</ele><time>2026-04-04T13:53:01.198Z</time></trkpt><trkpt lat="43.2064527" lon="13.0543379"><ele>316.0</ele><time>2026-04-04T13:53:02.198Z</time></trkpt><trkpt lat="43.2063204" lon="13.0543502"><ele>316.5</ele><time>2026-04-04T13:53:03.199Z</time></trkpt><trkpt lat="43.2061734" lon="13.0543512"><ele>317.0</ele><time>2026-04-04T13:53:04.198Z</time></trkpt><trkpt lat="43.2060307" lon="13.0543447"><ele>317.5</ele><time>2026-04-04T13:53:05.198Z</time></trkpt><trkpt lat="43.2058891" lon="13.0543379"><ele>318.0</ele><time>2026-04-04T13:53:06.198Z</time></trkpt><trkpt lat="43.2057507" lon="13.0543402"><ele>318.5</ele><time>2026-04-04T13:53:07.198Z</time></trkpt><trkpt lat="43.2056159" lon="13.0543414"><ele>319.0</ele><time>2026-04-04T13:53:08.198Z</time></trkpt><trkpt lat="43.2054745" lon="13.054342"><ele>319.5</ele><time>2026-04-04T13:53:09.199Z</time></trkpt><trkpt lat="43.2053186" lon="13.0543358"><ele>320.0</ele><time>2026-04-04T13:53:10.198Z</time></trkpt><trkpt lat="43.2051804" lon="13.0543417"><ele>320.0</ele><time>2026-04-04T13:53:11.198Z</time></trkpt><trkpt lat="43.2050512" lon="13.0543435"><ele>320.0</ele><time>2026-04-04T13:53:12.199Z</time></trkpt><trkpt lat="43.2049159" lon="13.0543469"><ele>320.0</ele><time>2026-04-04T13:53:13.198Z</time></trkpt><trkpt lat="43.2047766" lon="13.054347"><ele>320.0</ele><time>2026-04-04T13:53:14.198Z</time></trkpt><trkpt lat="43.2046324" lon="13.0543488"><ele>319.75</ele><time>2026-04-04T13:53:15.198Z</time></trkpt><trkpt lat="43.2044831" lon="13.0543439"><ele>319.5</ele><time>2026-04-04T13:53:16.198Z</time></trkpt><trkpt lat="43.2043356" lon="13.0543408"><ele>319.25</ele><time>2026-04-04T13:53:17.198Z</time></trkpt><trkpt lat="43.2041888" lon="13.0543376"><ele>319.0</ele><time>2026-04-04T13:53:18.198Z</time></trkpt><trkpt lat="43.204036" lon="13.0543322"><ele>318.66666666666663</ele><time>2026-04-04T13:53:19.198Z</time></trkpt><trkpt lat="43.2038865" lon="13.0543138"><ele>318.3333333333333</ele><time>2026-04-04T13:53:20.198Z</time></trkpt><trkpt lat="43.2037387" lon="13.0543036"><ele>318.0</ele><time>2026-04-04T13:53:21.199Z</time></trkpt><trkpt lat="43.2035772" lon="13.0543093"><ele>318.0</ele><time>2026-04-04T13:53:22.198Z</time></trkpt><trkpt lat="43.2034242" lon="13.0543049"><ele>318.0</ele><time>2026-04-04T13:53:23.198Z</time></trkpt><trkpt lat="43.2032653" lon="13.0543162"><ele>318.0</ele><time>2026-04-04T13:53:24.198Z</time></trkpt><trkpt lat="43.2031078" lon="13.0543406"><ele>318.6666666666667</ele><time>2026-04-04T13:53:25.199Z</time></trkpt><trkpt lat="43.2029385" lon="13.0543669"><ele>319.33333333333337</ele><time>2026-04-04T13:53:26.198Z</time></trkpt><trkpt lat="43.2027873" lon="13.0543862"><ele>320.0</ele><time>2026-04-04T13:53:27.199Z</time></trkpt><trkpt lat="43.2026412" lon="13.054399"><ele>320.0</ele><time>2026-04-04T13:53:28.199Z</time></trkpt><trkpt lat="43.2025013" lon="13.0544061"><ele>320.0</ele><time>2026-04-04T13:53:29.198Z</time></trkpt><trkpt lat="43.2023467" lon="13.0544052"><ele>320.0</ele><time>2026-04-04T13:53:30.198Z</time></trkpt><trkpt lat="43.202187" lon="13.0543835"><ele>317.33333333333337</ele><time>2026-04-04T13:53:31.198Z</time></trkpt><trkpt lat="43.2020328" lon="13.0543455"><ele>314.6666666666667</ele><time>2026-04-04T13:53:32.198Z</time></trkpt><trkpt lat="43.2018736" lon="13.0542812"><ele>312.0</ele><time>2026-04-04T13:53:33.198Z</time></trkpt><trkpt lat="43.2017304" lon="13.0542209"><ele>312.0</ele><time>2026-04-04T13:53:34.199Z</time></trkpt><trkpt lat="43.2015955" lon="13.054145"><ele>312.0</ele><time>2026-04-04T13:53:35.198Z</time></trkpt><trkpt lat="43.2014514" lon="13.054058"><ele>312.0</ele><time>2026-04-04T13:53:36.198Z</time></trkpt><trkpt lat="43.2012988" lon="13.0539591"><ele>312.6666666666667</ele><time>2026-04-04T13:53:37.198Z</time></trkpt><trkpt lat="43.2011357" lon="13.0538545"><ele>313.33333333333337</ele><time>2026-04-04T13:53:38.198Z</time></trkpt><trkpt lat="43.2009712" lon="13.0537561"><ele>314.0</ele><time>2026-04-04T13:53:39.198Z</time></trkpt><trkpt lat="43.2008252" lon="13.0536481"><ele>314.0</ele><time>2026-04-04T13:53:40.198Z</time></trkpt><trkpt lat="43.2006798" lon="13.0535422"><ele>314.0</ele><time>2026-04-04T13:53:41.199Z</time></trkpt><trkpt lat="43.2005286" lon="13.0534393"><ele>314.0</ele><time>2026-04-04T13:53:42.199Z</time></trkpt><trkpt lat="43.2003788" lon="13.0533278"><ele>313.6666666666667</ele><time>2026-04-04T13:53:43.198Z</time></trkpt><trkpt lat="43.2002349" lon="13.0532198"><ele>313.3333333333333</ele><time>2026-04-04T13:53:44.198Z</time></trkpt><trkpt lat="43.2000841" lon="13.0531051"><ele>313.0</ele><time>2026-04-04T13:53:45.198Z</time></trkpt><trkpt lat="43.1999409" lon="13.0529777"><ele>310.0</ele><time>2026-04-04T13:53:46.199Z</time></trkpt><trkpt lat="43.1997999" lon="13.0528467"><ele>307.0</ele><time>2026-04-04T13:53:47.198Z</time></trkpt><trkpt lat="43.1996677" lon="13.0526928"><ele>304.0</ele><time>2026-04-04T13:53:48.198Z</time></trkpt><trkpt lat="43.1995314" lon="13.0525289"><ele>306.0</ele><time>2026-04-04T13:53:49.199Z</time></trkpt><trkpt lat="43.199386" lon="13.0523796"><ele>308.0</ele><time>2026-04-04T13:53:50.198Z</time></trkpt><trkpt lat="43.1992533" lon="13.0522283"><ele>310.0</ele><time>2026-04-04T13:53:51.198Z</time></trkpt><trkpt lat="43.1991161" lon="13.0520779"><ele>309.3333333333333</ele><time>2026-04-04T13:53:52.198Z</time></trkpt><trkpt lat="43.1989799" lon="13.0519303"><ele>308.6666666666667</ele><time>2026-04-04T13:53:53.198Z</time></trkpt><trkpt lat="43.198841" lon="13.0517758"><ele>308.0</ele><time>2026-04-04T13:53:54.198Z</time></trkpt><trkpt lat="43.1986838" lon="13.0516389"><ele>307.33333333333337</ele><time>2026-04-04T13:53:55.198Z</time></trkpt><trkpt lat="43.1985514" lon="13.0514856"><ele>306.6666666666667</ele><time>2026-04-04T13:53:56.198Z</time></trkpt><trkpt lat="43.1984143" lon="13.0513305"><ele>306.0</ele><time>2026-04-04T13:53:57.198Z</time></trkpt><trkpt lat="43.1982835" lon="13.0511679"><ele>306.3333333333333</ele><time>2026-04-04T13:53:58.198Z</time></trkpt><trkpt lat="43.1981451" lon="13.0510135"><ele>306.66666666666663</ele><time>2026-04-04T13:53:59.199Z</time></trkpt><trkpt lat="43.1980182" lon="13.0508623"><ele>307.0</ele><time>2026-04-04T13:54:00.198Z</time></trkpt><trkpt lat="43.1978929" lon="13.0507224"><ele>307.75</ele><time>2026-04-04T13:54:01.198Z</time></trkpt><trkpt lat="43.1977741" lon="13.0505906"><ele>308.5</ele><time>2026-04-04T13:54:02.199Z</time></trkpt><trkpt lat="43.1976612" lon="13.0504633"><ele>309.25</ele><time>2026-04-04T13:54:03.199Z</time></trkpt><trkpt lat="43.1975617" lon="13.0503587"><ele>310.0</ele><time>2026-04-04T13:54:04.198Z</time></trkpt><trkpt lat="43.1974603" lon="13.0502757"><ele>310.0</ele><time>2026-04-04T13:54:05.198Z</time></trkpt><trkpt lat="43.1973785" lon="13.0502118"><ele>310.0</ele><time>2026-04-04T13:54:06.199Z</time></trkpt><trkpt lat="43.1973063" lon="13.0501482"><ele>310.0</ele><time>2026-04-04T13:54:07.198Z</time></trkpt><trkpt lat="43.1972318" lon="13.0500857"><ele>310.0</ele><time>2026-04-04T13:54:08.199Z</time></trkpt><trkpt lat="43.1971561" lon="13.0500163"><ele>310.0</ele><time>2026-04-04T13:54:09.199Z</time></trkpt><trkpt lat="43.1970818" lon="13.0499724"><ele>310.0</ele><time>2026-04-04T13:54:10.199Z</time></trkpt><trkpt lat="43.1970017" lon="13.0499671"><ele>309.8</ele><time>2026-04-04T13:54:11.198Z</time></trkpt><trkpt lat="43.196924" lon="13.0500043"><ele>309.6</ele><time>2026-04-04T13:54:12.198Z</time></trkpt><trkpt lat="43.1968452" lon="13.0500799"><ele>309.4</ele><time>2026-04-04T13:54:13.198Z</time></trkpt><trkpt lat="43.1967544" lon="13.0501896"><ele>309.2</ele><time>2026-04-04T13:54:14.199Z</time></trkpt><trkpt lat="43.196649" lon="13.0502905"><ele>309.0</ele><time>2026-04-04T13:54:15.198Z</time></trkpt><trkpt lat="43.1965315" lon="13.0503689"><ele>309.6666666666667</ele><time>2026-04-04T13:54:16.198Z</time></trkpt><trkpt lat="43.1963995" lon="13.0504431"><ele>310.33333333333337</ele><time>2026-04-04T13:54:17.198Z</time></trkpt><trkpt lat="43.1962551" lon="13.050521"><ele>311.0</ele><time>2026-04-04T13:54:18.198Z</time></trkpt><trkpt lat="43.196104" lon="13.0506108"><ele>311.0</ele><time>2026-04-04T13:54:19.198Z</time></trkpt><trkpt lat="43.1959552" lon="13.0507013"><ele>311.0</ele><time>2026-04-04T13:54:20.198Z</time></trkpt><trkpt lat="43.1958059" lon="13.0508021"><ele>311.0</ele><time>2026-04-04T13:54:21.199Z</time></trkpt><trkpt lat="43.1956582" lon="13.0509186"><ele>312.33333333333337</ele><time>2026-04-04T13:54:22.199Z</time></trkpt><trkpt lat="43.1955086" lon="13.0510463"><ele>313.6666666666667</ele><time>2026-04-04T13:54:23.198Z</time></trkpt><trkpt lat="43.1953645" lon="13.0511873"><ele>315.0</ele><time>2026-04-04T13:54:24.198Z</time></trkpt><trkpt lat="43.195225" lon="13.0513187"><ele>315.0</ele><time>2026-04-04T13:54:25.198Z</time></trkpt><trkpt lat="43.1950828" lon="13.0514517"><ele>315.0</ele><time>2026-04-04T13:54:26.199Z</time></trkpt><trkpt lat="43.1949401" lon="13.0515897"><ele>315.0</ele><time>2026-04-04T13:54:27.198Z</time></trkpt><trkpt lat="43.1947865" lon="13.0517171"><ele>316.3333333333333</ele><time>2026-04-04T13:54:28.198Z</time></trkpt><trkpt lat="43.1946322" lon="13.0518379"><ele>317.66666666666663</ele><time>2026-04-04T13:54:29.198Z</time></trkpt><trkpt lat="43.1944755" lon="13.0519568"><ele>319.0</ele><time>2026-04-04T13:54:30.199Z</time></trkpt><trkpt lat="43.1943114" lon="13.052066"><ele>319.0</ele><time>2026-04-04T13:54:31.198Z</time></trkpt><trkpt lat="43.1941256" lon="13.0521687"><ele>319.0</ele><time>2026-04-04T13:54:32.198Z</time></trkpt><trkpt lat="43.1939507" lon="13.052279"><ele>319.0</ele><time>2026-04-04T13:54:33.198Z</time></trkpt><trkpt lat="43.19378" lon="13.0523891"><ele>319.66666666666663</ele><time>2026-04-04T13:54:34.198Z</time></trkpt><trkpt lat="43.1936169" lon="13.052502"><ele>320.3333333333333</ele><time>2026-04-04T13:54:35.199Z</time></trkpt><trkpt lat="43.1934504" lon="13.0526178"><ele>321.0</ele><time>2026-04-04T13:54:36.198Z</time></trkpt><trkpt lat="43.1932869" lon="13.0527367"><ele>321.3333333333333</ele><time>2026-04-04T13:54:37.199Z</time></trkpt><trkpt lat="43.1931113" lon="13.0528554"><ele>321.66666666666663</ele><time>2026-04-04T13:54:38.199Z</time></trkpt><trkpt lat="43.1929377" lon="13.0529726"><ele>322.0</ele><time>2026-04-04T13:54:39.199Z</time></trkpt><trkpt lat="43.1927624" lon="13.053098"><ele>322.0</ele><time>2026-04-04T13:54:40.198Z</time></trkpt><trkpt lat="43.1925884" lon="13.0532219"><ele>322.0</ele><time>2026-04-04T13:54:41.199Z</time></trkpt><trkpt lat="43.1924133" lon="13.0533524"><ele>322.0</ele><time>2026-04-04T13:54:42.198Z</time></trkpt><trkpt lat="43.1922324" lon="13.0534815"><ele>322.0</ele><time>2026-04-04T13:54:43.198Z</time></trkpt><trkpt lat="43.1920454" lon="13.0536076"><ele>322.0</ele><time>2026-04-04T13:54:44.198Z</time></trkpt><trkpt lat="43.1918695" lon="13.0537272"><ele>322.0</ele><time>2026-04-04T13:54:45.199Z</time></trkpt><trkpt lat="43.1916921" lon="13.053845"><ele>322.3333333333333</ele><time>2026-04-04T13:54:46.199Z</time></trkpt><trkpt lat="43.1914895" lon="13.0539497"><ele>322.6666666666667</ele><time>2026-04-04T13:54:47.198Z</time></trkpt><trkpt lat="43.1912972" lon="13.0540399"><ele>323.0</ele><time>2026-04-04T13:54:48.198Z</time></trkpt><trkpt lat="43.1910904" lon="13.054122"><ele>323.0</ele><time>2026-04-04T13:54:49.199Z</time></trkpt><trkpt lat="43.1908849" lon="13.054189"><ele>323.0</ele><time>2026-04-04T13:54:50.198Z</time></trkpt><trkpt lat="43.1906783" lon="13.0542458"><ele>323.0</ele><time>2026-04-04T13:54:51.198Z</time></trkpt><trkpt lat="43.1904689" lon="13.0542967"><ele>325.6666666666667</ele><time>2026-04-04T13:54:52.199Z</time></trkpt><trkpt lat="43.1902632" lon="13.0543441"><ele>328.3333333333333</ele><time>2026-04-04T13:54:53.198Z</time></trkpt><trkpt lat="43.1900521" lon="13.0543951"><ele>331.0</ele><time>2026-04-04T13:54:54.199Z</time></trkpt><trkpt lat="43.1898496" lon="13.0544377"><ele>334.0</ele><time>2026-04-04T13:54:55.198Z</time></trkpt><trkpt lat="43.1896431" lon="13.0544801"><ele>337.0</ele><time>2026-04-04T13:54:56.199Z</time></trkpt><trkpt lat="43.1894406" lon="13.0545212"><ele>340.0</ele><time>2026-04-04T13:54:57.199Z</time></trkpt><trkpt lat="43.1892343" lon="13.0545518"><ele>340.0</ele><time>2026-04-04T13:54:58.199Z</time></trkpt><trkpt lat="43.189023" lon="13.0545735"><ele>340.0</ele><time>2026-04-04T13:54:59.198Z</time></trkpt><trkpt lat="43.1888189" lon="13.054606"><ele>340.0</ele><time>2026-04-04T13:55:00.199Z</time></trkpt><trkpt lat="43.1886037" lon="13.054637"><ele>344.0</ele><time>2026-04-04T13:55:01.198Z</time></trkpt><trkpt lat="43.1883926" lon="13.0546591"><ele>348.0</ele><time>2026-04-04T13:55:02.198Z</time></trkpt><trkpt lat="43.1881876" lon="13.0546903"><ele>352.0</ele><time>2026-04-04T13:55:03.198Z</time></trkpt><trkpt lat="43.1879873" lon="13.0547124"><ele>352.66666666666663</ele><time>2026-04-04T13:55:04.198Z</time></trkpt><trkpt lat="43.1877895" lon="13.0547404"><ele>353.3333333333333</ele><time>2026-04-04T13:55:05.198Z</time></trkpt><trkpt lat="43.1876147" lon="13.0547634"><ele>354.0</ele><time>2026-04-04T13:55:06.199Z</time></trkpt><trkpt lat="43.1874096" lon="13.0548034"><ele>354.6666666666667</ele><time>2026-04-04T13:55:07.198Z</time></trkpt><trkpt lat="43.187212" lon="13.0548434"><ele>355.33333333333337</ele><time>2026-04-04T13:55:08.198Z</time></trkpt><trkpt lat="43.1870203" lon="13.0548954"><ele>356.0</ele><time>2026-04-04T13:55:09.198Z</time></trkpt><trkpt lat="43.1868222" lon="13.0549453"><ele>351.6666666666667</ele><time>2026-04-04T13:55:10.198Z</time></trkpt><trkpt lat="43.186622" lon="13.0549954"><ele>347.3333333333333</ele><time>2026-04-04T13:55:11.198Z</time></trkpt><trkpt lat="43.18643" lon="13.055039"><ele>343.0</ele><time>2026-04-04T13:55:12.199Z</time></trkpt><trkpt lat="43.1862249" lon="13.0550933"><ele>342.0</ele><time>2026-04-04T13:55:13.198Z</time></trkpt><trkpt lat="43.1860243" lon="13.0551499"><ele>341.0</ele><time>2026-04-04T13:55:14.199Z</time></trkpt><trkpt lat="43.1858194" lon="13.055196"><ele>340.0</ele><time>2026-04-04T13:55:15.199Z</time></trkpt><trkpt lat="43.1856216" lon="13.0552476"><ele>342.0</ele><time>2026-04-04T13:55:16.199Z</time></trkpt><trkpt lat="43.1854124" lon="13.0552898"><ele>344.0</ele><time>2026-04-04T13:55:17.199Z</time></trkpt><trkpt lat="43.1852065" lon="13.0553402"><ele>346.0</ele><time>2026-04-04T13:55:18.199Z</time></trkpt><trkpt lat="43.1850024" lon="13.0553826"><ele>346.3333333333333</ele><time>2026-04-04T13:55:19.198Z</time></trkpt><trkpt lat="43.1847952" lon="13.0554232"><ele>346.6666666666667</ele><time>2026-04-04T13:55:20.198Z</time></trkpt><trkpt lat="43.1846043" lon="13.0554579"><ele>347.0</ele><time>2026-04-04T13:55:21.198Z</time></trkpt><trkpt lat="43.1844214" lon="13.0554842"><ele>347.0</ele><time>2026-04-04T13:55:22.198Z</time></trkpt><trkpt lat="43.1842417" lon="13.0554861"><ele>347.0</ele><time>2026-04-04T13:55:23.199Z</time></trkpt><trkpt lat="43.184063" lon="13.0554775"><ele>347.0</ele><time>2026-04-04T13:55:24.198Z</time></trkpt><trkpt lat="43.1838663" lon="13.0553896"><ele>343.33333333333337</ele><time>2026-04-04T13:55:25.198Z</time></trkpt><trkpt lat="43.1836789" lon="13.0553061"><ele>339.6666666666667</ele><time>2026-04-04T13:55:26.198Z</time></trkpt><trkpt lat="43.1834993" lon="13.0552166"><ele>336.0</ele><time>2026-04-04T13:55:27.199Z</time></trkpt><trkpt lat="43.1833179" lon="13.0551054"><ele>338.0</ele><time>2026-04-04T13:55:28.199Z</time></trkpt><trkpt lat="43.1831266" lon="13.0550009"><ele>340.0</ele><time>2026-04-04T13:55:29.198Z</time></trkpt><trkpt lat="43.1829367" lon="13.0548926"><ele>342.0</ele><time>2026-04-04T13:55:30.198Z</time></trkpt><trkpt lat="43.1827396" lon="13.0547835"><ele>342.0</ele><time>2026-04-04T13:55:31.199Z</time></trkpt><trkpt lat="43.1825494" lon="13.054671"><ele>342.0</ele><time>2026-04-04T13:55:32.198Z</time></trkpt><trkpt lat="43.1823562" lon="13.0545658"><ele>342.0</ele><time>2026-04-04T13:55:33.199Z</time></trkpt><trkpt lat="43.18216" lon="13.0544748"><ele>340.0</ele><time>2026-04-04T13:55:34.198Z</time></trkpt><trkpt lat="43.1819686" lon="13.0544"><ele>338.0</ele><time>2026-04-04T13:55:35.198Z</time></trkpt><trkpt lat="43.1817723" lon="13.0543246"><ele>336.0</ele><time>2026-04-04T13:55:36.199Z</time></trkpt><trkpt lat="43.1815735" lon="13.0542641"><ele>335.0</ele><time>2026-04-04T13:55:37.198Z</time></trkpt><trkpt lat="43.1813728" lon="13.0542102"><ele>334.0</ele><time>2026-04-04T13:55:38.199Z</time></trkpt><trkpt lat="43.1811675" lon="13.0541713"><ele>333.0</ele><time>2026-04-04T13:55:39.198Z</time></trkpt><trkpt lat="43.1809616" lon="13.0541401"><ele>336.0</ele><time>2026-04-04T13:55:40.198Z</time></trkpt><trkpt lat="43.1807802" lon="13.0540882"><ele>339.0</ele><time>2026-04-04T13:55:41.198Z</time></trkpt><trkpt lat="43.1805657" lon="13.0540736"><ele>342.0</ele><time>2026-04-04T13:55:42.199Z</time></trkpt><trkpt lat="43.1803544" lon="13.054052"><ele>342.0</ele><time>2026-04-04T13:55:43.198Z</time></trkpt><trkpt lat="43.1801417" lon="13.054033"><ele>342.0</ele><time>2026-04-04T13:55:44.199Z</time></trkpt><trkpt lat="43.1799323" lon="13.0540156"><ele>342.0</ele><time>2026-04-04T13:55:45.198Z</time></trkpt><trkpt lat="43.1797252" lon="13.0539991"><ele>342.3333333333333</ele><time>2026-04-04T13:55:46.198Z</time></trkpt><trkpt lat="43.1795229" lon="13.0539852"><ele>342.66666666666663</ele><time>2026-04-04T13:55:47.199Z</time></trkpt><trkpt lat="43.1793195" lon="13.0539941"><ele>343.0</ele><time>2026-04-04T13:55:48.198Z</time></trkpt><trkpt lat="43.1791155" lon="13.0540101"><ele>342.66666666666663</ele><time>2026-04-04T13:55:49.199Z</time></trkpt><trkpt lat="43.1789126" lon="13.054042"><ele>342.3333333333333</ele><time>2026-04-04T13:55:50.198Z</time></trkpt><trkpt lat="43.1787155" lon="13.0540703"><ele>342.0</ele><time>2026-04-04T13:55:51.199Z</time></trkpt><trkpt lat="43.1785152" lon="13.0540905"><ele>342.0</ele><time>2026-04-04T13:55:52.199Z</time></trkpt><trkpt lat="43.178314" lon="13.0541144"><ele>342.0</ele><time>2026-04-04T13:55:53.199Z</time></trkpt><trkpt lat="43.1781062" lon="13.0541452"><ele>342.0</ele><time>2026-04-04T13:55:54.198Z</time></trkpt><trkpt lat="43.1779071" lon="13.0541697"><ele>339.3333333333333</ele><time>2026-04-04T13:55:55.198Z</time></trkpt><trkpt lat="43.1777011" lon="13.0541943"><ele>336.66666666666663</ele><time>2026-04-04T13:55:56.198Z</time></trkpt><trkpt lat="43.1774985" lon="13.0542172"><ele>334.0</ele><time>2026-04-04T13:55:57.198Z</time></trkpt><trkpt lat="43.1772841" lon="13.0542452"><ele>333.66666666666663</ele><time>2026-04-04T13:55:58.198Z</time></trkpt><trkpt lat="43.1770757" lon="13.0542736"><ele>333.3333333333333</ele><time>2026-04-04T13:55:59.198Z</time></trkpt><trkpt lat="43.1768794" lon="13.0543011"><ele>333.0</ele><time>2026-04-04T13:56:00.199Z</time></trkpt><trkpt lat="43.176679" lon="13.054328"><ele>332.6666666666667</ele><time>2026-04-04T13:56:01.198Z</time></trkpt><trkpt lat="43.1764785" lon="13.0543599"><ele>332.33333333333337</ele><time>2026-04-04T13:56:02.198Z</time></trkpt><trkpt lat="43.1762846" lon="13.054393"><ele>332.0</ele><time>2026-04-04T13:56:03.199Z</time></trkpt><trkpt lat="43.1760862" lon="13.0544256"><ele>332.0</ele><time>2026-04-04T13:56:04.198Z</time></trkpt><trkpt lat="43.1758844" lon="13.0544568"><ele>332.0</ele><time>2026-04-04T13:56:05.198Z</time></trkpt><trkpt lat="43.1756924" lon="13.0544832"><ele>332.0</ele><time>2026-04-04T13:56:06.198Z</time></trkpt><trkpt lat="43.1754908" lon="13.0545038"><ele>331.0</ele><time>2026-04-04T13:56:07.198Z</time></trkpt><trkpt lat="43.1752946" lon="13.0545315"><ele>330.0</ele><time>2026-04-04T13:56:08.198Z</time></trkpt><trkpt lat="43.1751053" lon="13.0545585"><ele>329.0</ele><time>2026-04-04T13:56:09.198Z</time></trkpt><trkpt lat="43.174913" lon="13.0545856"><ele>330.0</ele><time>2026-04-04T13:56:10.199Z</time></trkpt><trkpt lat="43.1747231" lon="13.0546181"><ele>331.0</ele><time>2026-04-04T13:56:11.198Z</time></trkpt><trkpt lat="43.1745309" lon="13.0546496"><ele>332.0</ele><time>2026-04-04T13:56:12.198Z</time></trkpt><trkpt lat="43.1743397" lon="13.0546743"><ele>332.0</ele><time>2026-04-04T13:56:13.198Z</time></trkpt><trkpt lat="43.1741493" lon="13.0547046"><ele>332.0</ele><time>2026-04-04T13:56:14.198Z</time></trkpt><trkpt lat="43.1739647" lon="13.0547353"><ele>332.0</ele><time>2026-04-04T13:56:15.199Z</time></trkpt><trkpt lat="43.1737812" lon="13.0547774"><ele>332.0</ele><time>2026-04-04T13:56:16.199Z</time></trkpt><trkpt lat="43.1735891" lon="13.0548327"><ele>332.0</ele><time>2026-04-04T13:56:17.198Z</time></trkpt><trkpt lat="43.1734069" lon="13.0549198"><ele>332.0</ele><time>2026-04-04T13:56:18.198Z</time></trkpt><trkpt lat="43.1732195" lon="13.0550058"><ele>332.6666666666667</ele><time>2026-04-04T13:56:19.198Z</time></trkpt><trkpt lat="43.1730386" lon="13.0550988"><ele>333.3333333333333</ele><time>2026-04-04T13:56:20.198Z</time></trkpt><trkpt lat="43.172851" lon="13.0551939"><ele>334.0</ele><time>2026-04-04T13:56:21.198Z</time></trkpt><trkpt lat="43.1726718" lon="13.0552981"><ele>334.0</ele><time>2026-04-04T13:56:22.199Z</time></trkpt><trkpt lat="43.1724985" lon="13.0554048"><ele>334.0</ele><time>2026-04-04T13:56:23.198Z</time></trkpt><trkpt lat="43.1723102" lon="13.0555053"><ele>334.0</ele><time>2026-04-04T13:56:24.198Z</time></trkpt><trkpt lat="43.1721188" lon="13.0556087"><ele>334.0</ele><time>2026-04-04T13:56:25.198Z</time></trkpt><trkpt lat="43.1719393" lon="13.0557092"><ele>334.0</ele><time>2026-04-04T13:56:26.198Z</time></trkpt><trkpt lat="43.1717637" lon="13.0558096"><ele>334.0</ele><time>2026-04-04T13:56:27.198Z</time></trkpt><trkpt lat="43.1715843" lon="13.0559176"><ele>333.66666666666663</ele><time>2026-04-04T13:56:28.199Z</time></trkpt><trkpt lat="43.1714125" lon="13.0560254"><ele>333.3333333333333</ele><time>2026-04-04T13:56:29.198Z</time></trkpt><trkpt lat="43.1712333" lon="13.0561309"><ele>333.0</ele><time>2026-04-04T13:56:30.199Z</time></trkpt><trkpt lat="43.1710556" lon="13.0562427"><ele>333.0</ele><time>2026-04-04T13:56:31.198Z</time></trkpt><trkpt lat="43.170876" lon="13.0563439"><ele>333.0</ele><time>2026-04-04T13:56:32.199Z</time></trkpt><trkpt lat="43.1706979" lon="13.0564466"><ele>333.0</ele><time>2026-04-04T13:56:33.198Z</time></trkpt><trkpt lat="43.1705204" lon="13.0565484"><ele>333.0</ele><time>2026-04-04T13:56:34.198Z</time></trkpt><trkpt lat="43.170342" lon="13.056654"><ele>333.0</ele><time>2026-04-04T13:56:35.199Z</time></trkpt><trkpt lat="43.1701642" lon="13.056761"><ele>333.0</ele><time>2026-04-04T13:56:36.198Z</time></trkpt><trkpt lat="43.1699859" lon="13.0568717"><ele>333.3333333333333</ele><time>2026-04-04T13:56:37.199Z</time></trkpt><trkpt lat="43.1698128" lon="13.056974"><ele>333.66666666666663</ele><time>2026-04-04T13:56:38.198Z</time></trkpt><trkpt lat="43.1696371" lon="13.0570811"><ele>334.0</ele><time>2026-04-04T13:56:39.199Z</time></trkpt><trkpt lat="43.1694627" lon="13.0571823"><ele>334.0</ele><time>2026-04-04T13:56:40.198Z</time></trkpt><trkpt lat="43.1692797" lon="13.0572819"><ele>334.0</ele><time>2026-04-04T13:56:41.198Z</time></trkpt><trkpt lat="43.1691027" lon="13.0573806"><ele>334.0</ele><time>2026-04-04T13:56:42.198Z</time></trkpt><trkpt lat="43.1689153" lon="13.0574664"><ele>334.0</ele><time>2026-04-04T13:56:43.198Z</time></trkpt><trkpt lat="43.1687408" lon="13.0575543"><ele>334.0</ele><time>2026-04-04T13:56:44.199Z</time></trkpt><trkpt lat="43.1685662" lon="13.0576411"><ele>334.0</ele><time>2026-04-04T13:56:45.198Z</time></trkpt><trkpt lat="43.1683931" lon="13.0577259"><ele>334.0</ele><time>2026-04-04T13:56:46.198Z</time></trkpt><trkpt lat="43.1682098" lon="13.0578102"><ele>334.0</ele><time>2026-04-04T13:56:47.198Z</time></trkpt><trkpt lat="43.1680385" lon="13.0578912"><ele>334.0</ele><time>2026-04-04T13:56:48.198Z</time></trkpt><trkpt lat="43.1678714" lon="13.0579547"><ele>334.66666666666663</ele><time>2026-04-04T13:56:49.198Z</time></trkpt><trkpt lat="43.1676933" lon="13.0580025"><ele>335.3333333333333</ele><time>2026-04-04T13:56:50.198Z</time></trkpt><trkpt lat="43.1675091" lon="13.0580232"><ele>336.0</ele><time>2026-04-04T13:56:51.198Z</time></trkpt><trkpt lat="43.1673209" lon="13.0580285"><ele>336.6666666666667</ele><time>2026-04-04T13:56:52.198Z</time></trkpt><trkpt lat="43.1671413" lon="13.0580567"><ele>337.33333333333337</ele><time>2026-04-04T13:56:53.198Z</time></trkpt><trkpt lat="43.166962" lon="13.0580967"><ele>338.0</ele><time>2026-04-04T13:56:54.199Z</time></trkpt><trkpt lat="43.1667811" lon="13.0581681"><ele>338.0</ele><time>2026-04-04T13:56:55.198Z</time></trkpt><trkpt lat="43.1666111" lon="13.0582558"><ele>338.0</ele><time>2026-04-04T13:56:56.198Z</time></trkpt><trkpt lat="43.1664415" lon="13.058351"><ele>338.0</ele><time>2026-04-04T13:56:57.198Z</time></trkpt><trkpt lat="43.1662754" lon="13.0584417"><ele>339.6666666666667</ele><time>2026-04-04T13:56:58.198Z</time></trkpt><trkpt lat="43.1661153" lon="13.0585398"><ele>341.3333333333333</ele><time>2026-04-04T13:56:59.198Z</time></trkpt><trkpt lat="43.1659538" lon="13.0586347"><ele>343.0</ele><time>2026-04-04T13:57:00.198Z</time></trkpt><trkpt lat="43.165784" lon="13.0587146"><ele>342.3333333333333</ele><time>2026-04-04T13:57:01.198Z</time></trkpt><trkpt lat="43.165618" lon="13.0587551"><ele>341.6666666666667</ele><time>2026-04-04T13:57:02.199Z</time></trkpt><trkpt lat="43.1654557" lon="13.0587537"><ele>341.0</ele><time>2026-04-04T13:57:03.198Z</time></trkpt><trkpt lat="43.1653008" lon="13.0587283"><ele>341.0</ele><time>2026-04-04T13:57:04.198Z</time></trkpt><trkpt lat="43.1651438" lon="13.0586885"><ele>341.0</ele><time>2026-04-04T13:57:05.198Z</time></trkpt><trkpt lat="43.1649951" lon="13.0586704"><ele>341.0</ele><time>2026-04-04T13:57:06.199Z</time></trkpt><trkpt lat="43.1648378" lon="13.0586936"><ele>341.33333333333337</ele><time>2026-04-04T13:57:07.198Z</time></trkpt><trkpt lat="43.1646682" lon="13.0587212"><ele>341.6666666666667</ele><time>2026-04-04T13:57:08.198Z</time></trkpt><trkpt lat="43.1644961" lon="13.0587472"><ele>342.0</ele><time>2026-04-04T13:57:09.198Z</time></trkpt><trkpt lat="43.1643242" lon="13.0587988"><ele>342.0</ele><time>2026-04-04T13:57:10.199Z</time></trkpt><trkpt lat="43.1641488" lon="13.0588555"><ele>342.0</ele><time>2026-04-04T13:57:11.198Z</time></trkpt><trkpt lat="43.1639762" lon="13.0589118"><ele>342.0</ele><time>2026-04-04T13:57:12.198Z</time></trkpt><trkpt lat="43.1638069" lon="13.0589479"><ele>344.3333333333333</ele><time>2026-04-04T13:57:13.198Z</time></trkpt><trkpt lat="43.1636533" lon="13.0589862"><ele>346.66666666666663</ele><time>2026-04-04T13:57:14.198Z</time></trkpt><trkpt lat="43.1634958" lon="13.0590214"><ele>349.0</ele><time>2026-04-04T13:57:15.198Z</time></trkpt><trkpt lat="43.1633452" lon="13.0590589"><ele>349.66666666666663</ele><time>2026-04-04T13:57:16.198Z</time></trkpt><trkpt lat="43.1631933" lon="13.0591033"><ele>350.3333333333333</ele><time>2026-04-04T13:57:17.198Z</time></trkpt><trkpt lat="43.16303" lon="13.0591432"><ele>351.0</ele><time>2026-04-04T13:57:18.198Z</time></trkpt><trkpt lat="43.1628811" lon="13.0591992"><ele>351.0</ele><time>2026-04-04T13:57:19.198Z</time></trkpt><trkpt lat="43.1627166" lon="13.0592806"><ele>351.0</ele><time>2026-04-04T13:57:20.198Z</time></trkpt><trkpt lat="43.1625562" lon="13.059385"><ele>351.0</ele><time>2026-04-04T13:57:21.198Z</time></trkpt><trkpt lat="43.1623873" lon="13.059499"><ele>353.3333333333333</ele><time>2026-04-04T13:57:22.198Z</time></trkpt><trkpt lat="43.1622249" lon="13.0596163"><ele>355.66666666666663</ele><time>2026-04-04T13:57:23.198Z</time></trkpt><trkpt lat="43.1620617" lon="13.0597455"><ele>358.0</ele><time>2026-04-04T13:57:24.198Z</time></trkpt><trkpt lat="43.1619003" lon="13.0598836"><ele>358.0</ele><time>2026-04-04T13:57:25.198Z</time></trkpt><trkpt lat="43.1617455" lon="13.0600188"><ele>358.0</ele><time>2026-04-04T13:57:26.198Z</time></trkpt><trkpt lat="43.1615943" lon="13.060186"><ele>358.0</ele><time>2026-04-04T13:57:27.198Z</time></trkpt><trkpt lat="43.1614491" lon="13.0603554"><ele>359.66666666666663</ele><time>2026-04-04T13:57:28.199Z</time></trkpt><trkpt lat="43.1613112" lon="13.0605321"><ele>361.3333333333333</ele><time>2026-04-04T13:57:29.198Z</time></trkpt><trkpt lat="43.1611687" lon="13.0607073"><ele>363.0</ele><time>2026-04-04T13:57:30.199Z</time></trkpt><trkpt lat="43.1610177" lon="13.0608752"><ele>363.0</ele><time>2026-04-04T13:57:31.198Z</time></trkpt><trkpt lat="43.1608658" lon="13.0610233"><ele>363.0</ele><time>2026-04-04T13:57:32.198Z</time></trkpt><trkpt lat="43.1607084" lon="13.0611604"><ele>363.0</ele><time>2026-04-04T13:57:33.198Z</time></trkpt><trkpt lat="43.1605402" lon="13.061291"><ele>365.0</ele><time>2026-04-04T13:57:34.198Z</time></trkpt><trkpt lat="43.1603747" lon="13.061407"><ele>367.0</ele><time>2026-04-04T13:57:35.199Z</time></trkpt><trkpt lat="43.1602143" lon="13.0615112"><ele>369.0</ele><time>2026-04-04T13:57:36.198Z</time></trkpt><trkpt lat="43.1600486" lon="13.061594"><ele>369.0</ele><time>2026-04-04T13:57:37.198Z</time></trkpt><trkpt lat="43.1598682" lon="13.0616517"><ele>369.0</ele><time>2026-04-04T13:57:38.198Z</time></trkpt><trkpt lat="43.1596746" lon="13.0616699"><ele>369.0</ele><time>2026-04-04T13:57:39.199Z</time></trkpt><trkpt lat="43.1594807" lon="13.0616822"><ele>369.0</ele><time>2026-04-04T13:57:40.198Z</time></trkpt><trkpt lat="43.1592827" lon="13.0616947"><ele>369.0</ele><time>2026-04-04T13:57:41.198Z</time></trkpt><trkpt lat="43.1590806" lon="13.0617204"><ele>369.0</ele><time>2026-04-04T13:57:42.198Z</time></trkpt><trkpt lat="43.1588851" lon="13.0617737"><ele>372.0</ele><time>2026-04-04T13:57:43.198Z</time></trkpt><trkpt lat="43.1587027" lon="13.0618218"><ele>375.0</ele><time>2026-04-04T13:57:44.198Z</time></trkpt><trkpt lat="43.1585231" lon="13.0618724"><ele>378.0</ele><time>2026-04-04T13:57:45.199Z</time></trkpt><trkpt lat="43.1583469" lon="13.0619113"><ele>379.3333333333333</ele><time>2026-04-04T13:57:46.199Z</time></trkpt><trkpt lat="43.1581869" lon="13.0619411"><ele>380.66666666666663</ele><time>2026-04-04T13:57:47.198Z</time></trkpt><trkpt lat="43.158018" lon="13.0619488"><ele>382.0</ele><time>2026-04-04T13:57:48.198Z</time></trkpt><trkpt lat="43.1578443" lon="13.0619116"><ele>382.0</ele><time>2026-04-04T13:57:49.198Z</time></trkpt><trkpt lat="43.1576566" lon="13.0618312"><ele>382.0</ele><time>2026-04-04T13:57:50.198Z</time></trkpt><trkpt lat="43.157483" lon="13.0617387"><ele>382.0</ele><time>2026-04-04T13:57:51.198Z</time></trkpt><trkpt lat="43.1573049" lon="13.0616243"><ele>385.3333333333333</ele><time>2026-04-04T13:57:52.198Z</time></trkpt><trkpt lat="43.1571287" lon="13.0615102"><ele>388.66666666666663</ele><time>2026-04-04T13:57:53.198Z</time></trkpt><trkpt lat="43.1569473" lon="13.0613761"><ele>392.0</ele><time>2026-04-04T13:57:54.198Z</time></trkpt><trkpt lat="43.1567698" lon="13.0612599"><ele>392.0</ele><time>2026-04-04T13:57:55.198Z</time></trkpt><trkpt lat="43.156588" lon="13.0611528"><ele>392.0</ele><time>2026-04-04T13:57:56.198Z</time></trkpt><trkpt lat="43.1564104" lon="13.0610489"><ele>392.0</ele><time>2026-04-04T13:57:57.199Z</time></trkpt><trkpt lat="43.1562286" lon="13.060964"><ele>391.66666666666663</ele><time>2026-04-04T13:57:58.198Z</time></trkpt><trkpt lat="43.1560506" lon="13.0608934"><ele>391.33333333333337</ele><time>2026-04-04T13:57:59.199Z</time></trkpt><trkpt lat="43.1558771" lon="13.0608589"><ele>391.0</ele><time>2026-04-04T13:58:00.199Z</time></trkpt><trkpt lat="43.1557103" lon="13.060853"><ele>392.6666666666667</ele><time>2026-04-04T13:58:01.198Z</time></trkpt><trkpt lat="43.1555542" lon="13.0608907"><ele>394.33333333333337</ele><time>2026-04-04T13:58:02.198Z</time></trkpt><trkpt lat="43.1553994" lon="13.0609647"><ele>396.0</ele><time>2026-04-04T13:58:03.198Z</time></trkpt><trkpt lat="43.1552857" lon="13.0610944"><ele>396.0</ele><time>2026-04-04T13:58:04.198Z</time></trkpt><trkpt lat="43.1551797" lon="13.061221"><ele>396.0</ele><time>2026-04-04T13:58:05.198Z</time></trkpt><trkpt lat="43.1550843" lon="13.0613289"><ele>396.0</ele><time>2026-04-04T13:58:06.198Z</time></trkpt><trkpt lat="43.1549885" lon="13.0614035"><ele>396.0</ele><time>2026-04-04T13:58:07.198Z</time></trkpt><trkpt lat="43.154878" lon="13.0614252"><ele>398.75</ele><time>2026-04-04T13:58:08.198Z</time></trkpt><trkpt lat="43.1547693" lon="13.0614385"><ele>401.5</ele><time>2026-04-04T13:58:09.199Z</time></trkpt><trkpt lat="43.1546769" lon="13.0613166"><ele>404.25</ele><time>2026-04-04T13:58:10.198Z</time></trkpt><trkpt lat="43.1545969" lon="13.0611658"><ele>407.0</ele><time>2026-04-04T13:58:11.198Z</time></trkpt><trkpt lat="43.1545962" lon="13.060997"><ele>407.0</ele><time>2026-04-04T13:58:12.199Z</time></trkpt><trkpt lat="43.1546228" lon="13.0608308"><ele>407.0</ele><time>2026-04-04T13:58:13.198Z</time></trkpt><trkpt lat="43.1547084" lon="13.0606739"><ele>407.0</ele><time>2026-04-04T13:58:14.198Z</time></trkpt><trkpt lat="43.1547875" lon="13.060525"><ele>407.0</ele><time>2026-04-04T13:58:15.198Z</time></trkpt><trkpt lat="43.154912" lon="13.0604144"><ele>406.25</ele><time>2026-04-04T13:58:16.198Z</time></trkpt><trkpt lat="43.155019" lon="13.0603003"><ele>405.5</ele><time>2026-04-04T13:58:17.198Z</time></trkpt><trkpt lat="43.1551058" lon="13.0601759"><ele>404.75</ele><time>2026-04-04T13:58:18.198Z</time></trkpt><trkpt lat="43.155153" lon="13.0600293"><ele>404.0</ele><time>2026-04-04T13:58:19.198Z</time></trkpt><trkpt lat="43.155172" lon="13.0598808"><ele>405.5</ele><time>2026-04-04T13:58:20.198Z</time></trkpt><trkpt lat="43.1551462" lon="13.0597267"><ele>407.0</ele><time>2026-04-04T13:58:21.198Z</time></trkpt><trkpt lat="43.1550948" lon="13.0595801"><ele>408.5</ele><time>2026-04-04T13:58:22.198Z</time></trkpt><trkpt lat="43.15501" lon="13.059465"><ele>410.0</ele><time>2026-04-04T13:58:23.198Z</time></trkpt><trkpt lat="43.1549127" lon="13.0593818"><ele>411.5</ele><time>2026-04-04T13:58:24.199Z</time></trkpt><trkpt lat="43.1547998" lon="13.0593529"><ele>413.0</ele><time>2026-04-04T13:58:25.199Z</time></trkpt><trkpt lat="43.1546772" lon="13.0593704"><ele>414.5</ele><time>2026-04-04T13:58:26.198Z</time></trkpt><trkpt lat="43.1545672" lon="13.059415"><ele>416.0</ele><time>2026-04-04T13:58:27.198Z</time></trkpt><trkpt lat="43.1544665" lon="13.0594764"><ele>416.0</ele><time>2026-04-04T13:58:28.198Z</time></trkpt><trkpt lat="43.1543708" lon="13.0595606"><ele>416.0</ele><time>2026-04-04T13:58:29.198Z</time></trkpt><trkpt lat="43.1542704" lon="13.0596479"><ele>416.0</ele><time>2026-04-04T13:58:30.198Z</time></trkpt><trkpt lat="43.1541765" lon="13.059743"><ele>416.0</ele><time>2026-04-04T13:58:31.199Z</time></trkpt><trkpt lat="43.154081" lon="13.0598433"><ele>416.75</ele><time>2026-04-04T13:58:32.198Z</time></trkpt><trkpt lat="43.1540014" lon="13.0599532"><ele>417.5</ele><time>2026-04-04T13:58:33.198Z</time></trkpt><trkpt lat="43.1539224" lon="13.0600691"><ele>418.25</ele><time>2026-04-04T13:58:34.198Z</time></trkpt><trkpt lat="43.1538523" lon="13.0601968"><ele>419.0</ele><time>2026-04-04T13:58:35.198Z</time></trkpt><trkpt lat="43.1537853" lon="13.0603397"><ele>419.0</ele><time>2026-04-04T13:58:36.198Z</time></trkpt><trkpt lat="43.1537269" lon="13.0604889"><ele>419.0</ele><time>2026-04-04T13:58:37.198Z</time></trkpt><trkpt lat="43.1536719" lon="13.0606481"><ele>419.0</ele><time>2026-04-04T13:58:38.198Z</time></trkpt><trkpt lat="43.1536264" lon="13.0608123"><ele>419.0</ele><time>2026-04-04T13:58:39.199Z</time></trkpt><trkpt lat="43.1535777" lon="13.0609746"><ele>419.0</ele><time>2026-04-04T13:58:40.199Z</time></trkpt><trkpt lat="43.153537" lon="13.0611354"><ele>419.0</ele><time>2026-04-04T13:58:41.198Z</time></trkpt><trkpt lat="43.1534864" lon="13.0612844"><ele>419.0</ele><time>2026-04-04T13:58:42.198Z</time></trkpt><trkpt lat="43.1534335" lon="13.0614434"><ele>419.0</ele><time>2026-04-04T13:58:43.198Z</time></trkpt><trkpt lat="43.1533669" lon="13.0615809"><ele>418.75</ele><time>2026-04-04T13:58:44.198Z</time></trkpt><trkpt lat="43.1532896" lon="13.0617183"><ele>418.5</ele><time>2026-04-04T13:58:45.199Z</time></trkpt><trkpt lat="43.1531892" lon="13.0618131"><ele>418.25</ele><time>2026-04-04T13:58:46.198Z</time></trkpt><trkpt lat="43.1530734" lon="13.0619001"><ele>418.0</ele><time>2026-04-04T13:58:47.198Z</time></trkpt><trkpt lat="43.1529666" lon="13.0619855"><ele>420.25</ele><time>2026-04-04T13:58:48.199Z</time></trkpt><trkpt lat="43.1528514" lon="13.0620635"><ele>422.5</ele><time>2026-04-04T13:58:49.199Z</time></trkpt><trkpt lat="43.152731" lon="13.0621416"><ele>424.75</ele><time>2026-04-04T13:58:50.199Z</time></trkpt><trkpt lat="43.1526238" lon="13.0622225"><ele>427.0</ele><time>2026-04-04T13:58:51.199Z</time></trkpt><trkpt lat="43.1525087" lon="13.0622964"><ele>427.0</ele><time>2026-04-04T13:58:52.199Z</time></trkpt><trkpt lat="43.1523954" lon="13.0623622"><ele>427.0</ele><time>2026-04-04T13:58:53.198Z</time></trkpt><trkpt lat="43.1522847" lon="13.0624304"><ele>427.0</ele><time>2026-04-04T13:58:54.199Z</time></trkpt><trkpt lat="43.1521796" lon="13.0624971"><ele>427.0</ele><time>2026-04-04T13:58:55.198Z</time></trkpt><trkpt lat="43.1520729" lon="13.0625548"><ele>428.40000000000003</ele><time>2026-04-04T13:58:56.198Z</time></trkpt><trkpt lat="43.1519698" lon="13.0626031"><ele>429.80000000000007</ele><time>2026-04-04T13:58:57.198Z</time></trkpt><trkpt lat="43.1518683" lon="13.0626263"><ele>431.2</ele><time>2026-04-04T13:58:58.198Z</time></trkpt><trkpt lat="43.15177" lon="13.0626127"><ele>432.6</ele><time>2026-04-04T13:58:59.198Z</time></trkpt><trkpt lat="43.1516823" lon="13.0625751"><ele>434.0</ele><time>2026-04-04T13:59:00.198Z</time></trkpt><trkpt lat="43.1516038" lon="13.0625018"><ele>434.49999999999994</ele><time>2026-04-04T13:59:01.198Z</time></trkpt><trkpt lat="43.1515539" lon="13.0623969"><ele>435.0</ele><time>2026-04-04T13:59:02.198Z</time></trkpt><trkpt lat="43.1515317" lon="13.062289"><ele>435.5</ele><time>2026-04-04T13:59:03.199Z</time></trkpt><trkpt lat="43.1515294" lon="13.0621757"><ele>436.0</ele><time>2026-04-04T13:59:04.198Z</time></trkpt><trkpt lat="43.1515396" lon="13.0620533"><ele>436.49999999999994</ele><time>2026-04-04T13:59:05.198Z</time></trkpt><trkpt lat="43.1515696" lon="13.0619275"><ele>437.0</ele><time>2026-04-04T13:59:06.198Z</time></trkpt><trkpt lat="43.151595" lon="13.0618079"><ele>437.0</ele><time>2026-04-04T13:59:07.198Z</time></trkpt><trkpt lat="43.1516208" lon="13.061674"><ele>437.00000000000006</ele><time>2026-04-04T13:59:08.198Z</time></trkpt><trkpt lat="43.1516532" lon="13.0615383"><ele>437.00000000000006</ele><time>2026-04-04T13:59:09.198Z</time></trkpt><trkpt lat="43.1516746" lon="13.0614027"><ele>437.0</ele><time>2026-04-04T13:59:10.199Z</time></trkpt><trkpt lat="43.1516955" lon="13.0612641"><ele>437.0</ele><time>2026-04-04T13:59:11.198Z</time></trkpt><trkpt lat="43.1517192" lon="13.0611201"><ele>437.8</ele><time>2026-04-04T13:59:12.198Z</time></trkpt><trkpt lat="43.1517343" lon="13.0609767"><ele>438.6</ele><time>2026-04-04T13:59:13.199Z</time></trkpt><trkpt lat="43.1517436" lon="13.0608353"><ele>439.40000000000003</ele><time>2026-04-04T13:59:14.198Z</time></trkpt><trkpt lat="43.1517341" lon="13.0606925"><ele>440.20000000000005</ele><time>2026-04-04T13:59:15.199Z</time></trkpt><trkpt lat="43.151705" lon="13.0605575"><ele>441.0</ele><time>2026-04-04T13:59:16.198Z</time></trkpt><trkpt lat="43.151659" lon="13.0604499"><ele>441.20000000000005</ele><time>2026-04-04T13:59:17.198Z</time></trkpt><trkpt lat="43.1516003" lon="13.0603631"><ele>441.40000000000003</ele><time>2026-04-04T13:59:18.198Z</time></trkpt><trkpt lat="43.1515367" lon="13.0602822"><ele>441.6</ele><time>2026-04-04T13:59:19.199Z</time></trkpt><trkpt lat="43.151437" lon="13.0602304"><ele>441.8</ele><time>2026-04-04T13:59:20.199Z</time></trkpt><trkpt lat="43.1513537" lon="13.0602091"><ele>442.0</ele><time>2026-04-04T13:59:21.198Z</time></trkpt><trkpt lat="43.1512574" lon="13.0602251"><ele>444.20000000000005</ele><time>2026-04-04T13:59:22.199Z</time></trkpt><trkpt lat="43.151172" lon="13.0602725"><ele>446.40000000000003</ele><time>2026-04-04T13:59:23.198Z</time></trkpt><trkpt lat="43.1510763" lon="13.0603589"><ele>448.59999999999997</ele><time>2026-04-04T13:59:24.198Z</time></trkpt><trkpt lat="43.1510034" lon="13.0604659"><ele>450.79999999999995</ele><time>2026-04-04T13:59:25.198Z</time></trkpt><trkpt lat="43.1509368" lon="13.0605976"><ele>453.0</ele><time>2026-04-04T13:59:26.199Z</time></trkpt><trkpt lat="43.1508757" lon="13.0607451"><ele>453.25</ele><time>2026-04-04T13:59:27.199Z</time></trkpt><trkpt lat="43.1508226" lon="13.0609028"><ele>453.5</ele><time>2026-04-04T13:59:28.199Z</time></trkpt><trkpt lat="43.1507688" lon="13.0610666"><ele>453.75</ele><time>2026-04-04T13:59:29.198Z</time></trkpt><trkpt lat="43.1506983" lon="13.0612179"><ele>454.0</ele><time>2026-04-04T13:59:30.198Z</time></trkpt><trkpt lat="43.1506143" lon="13.0613728"><ele>456.0</ele><time>2026-04-04T13:59:31.198Z</time></trkpt><trkpt lat="43.1505266" lon="13.0615318"><ele>458.0</ele><time>2026-04-04T13:59:32.198Z</time></trkpt><trkpt lat="43.150416" lon="13.0616817"><ele>460.0</ele><time>2026-04-04T13:59:33.199Z</time></trkpt><trkpt lat="43.1503117" lon="13.0618149"><ele>462.0</ele><time>2026-04-04T13:59:34.198Z</time></trkpt><trkpt lat="43.150205" lon="13.0619508"><ele>462.0</ele><time>2026-04-04T13:59:35.198Z</time></trkpt><trkpt lat="43.1500975" lon="13.062073"><ele>462.0</ele><time>2026-04-04T13:59:36.198Z</time></trkpt><trkpt lat="43.1499862" lon="13.0622138"><ele>462.0</ele><time>2026-04-04T13:59:37.198Z</time></trkpt><trkpt lat="43.149871" lon="13.0623559"><ele>462.0</ele><time>2026-04-04T13:59:38.199Z</time></trkpt><trkpt lat="43.1497607" lon="13.0625011"><ele>465.0</ele><time>2026-04-04T13:59:39.199Z</time></trkpt><trkpt lat="43.1496484" lon="13.0626513"><ele>468.0</ele><time>2026-04-04T13:59:40.198Z</time></trkpt><trkpt lat="43.149535" lon="13.062807"><ele>471.0</ele><time>2026-04-04T13:59:41.198Z</time></trkpt><trkpt lat="43.1494217" lon="13.0629484"><ele>471.0</ele><time>2026-04-04T13:59:42.198Z</time></trkpt><trkpt lat="43.1493111" lon="13.0630864"><ele>471.0</ele><time>2026-04-04T13:59:43.198Z</time></trkpt><trkpt lat="43.1491947" lon="13.0632052"><ele>471.0</ele><time>2026-04-04T13:59:44.198Z</time></trkpt><trkpt lat="43.1490746" lon="13.0633259"><ele>471.0</ele><time>2026-04-04T13:59:45.198Z</time></trkpt><trkpt lat="43.1489539" lon="13.063443"><ele>472.5</ele><time>2026-04-04T13:59:46.198Z</time></trkpt><trkpt lat="43.1488323" lon="13.0635551"><ele>474.0</ele><time>2026-04-04T13:59:47.198Z</time></trkpt><trkpt lat="43.1487149" lon="13.0636681"><ele>475.5</ele><time>2026-04-04T13:59:48.198Z</time></trkpt><trkpt lat="43.1485998" lon="13.0637798"><ele>477.0</ele><time>2026-04-04T13:59:49.199Z</time></trkpt><trkpt lat="43.1484881" lon="13.0638946"><ele>477.0</ele><time>2026-04-04T13:59:50.199Z</time></trkpt><trkpt lat="43.1483733" lon="13.0640035"><ele>477.0</ele><time>2026-04-04T13:59:51.198Z</time></trkpt><trkpt lat="43.1482566" lon="13.0641038"><ele>477.0</ele><time>2026-04-04T13:59:52.198Z</time></trkpt><trkpt lat="43.1481357" lon="13.064207"><ele>477.0</ele><time>2026-04-04T13:59:53.198Z</time></trkpt><trkpt lat="43.1480196" lon="13.0643022"><ele>479.5</ele><time>2026-04-04T13:59:54.198Z</time></trkpt><trkpt lat="43.1479074" lon="13.0643929"><ele>482.0</ele><time>2026-04-04T13:59:55.199Z</time></trkpt><trkpt lat="43.1478058" lon="13.0644836"><ele>484.5</ele><time>2026-04-04T13:59:56.198Z</time></trkpt><trkpt lat="43.1477171" lon="13.064567"><ele>487.0</ele><time>2026-04-04T13:59:57.199Z</time></trkpt><trkpt lat="43.147628" lon="13.0646459"><ele>487.0</ele><time>2026-04-04T13:59:58.198Z</time></trkpt><trkpt lat="43.1475375" lon="13.0647288"><ele>487.00000000000006</ele><time>2026-04-04T13:59:59.198Z</time></trkpt><trkpt lat="43.1474465" lon="13.0648051"><ele>487.00000000000006</ele><time>2026-04-04T14:00:00.199Z</time></trkpt><trkpt lat="43.1473512" lon="13.0648838"><ele>487.0</ele><time>2026-04-04T14:00:01.198Z</time></trkpt><trkpt lat="43.1472562" lon="13.0649724"><ele>487.0</ele><time>2026-04-04T14:00:02.198Z</time></trkpt><trkpt lat="43.1471694" lon="13.065059"><ele>487.25</ele><time>2026-04-04T14:00:03.198Z</time></trkpt><trkpt lat="43.147072" lon="13.06516"><ele>487.5</ele><time>2026-04-04T14:00:04.198Z</time></trkpt><trkpt lat="43.1469799" lon="13.0652703"><ele>487.75</ele><time>2026-04-04T14:00:05.199Z</time></trkpt><trkpt lat="43.1468934" lon="13.0653929"><ele>488.0</ele><time>2026-04-04T14:00:06.199Z</time></trkpt><trkpt lat="43.1468196" lon="13.0655249"><ele>488.0</ele><time>2026-04-04T14:00:07.198Z</time></trkpt><trkpt lat="43.1467566" lon="13.0656617"><ele>488.0</ele><time>2026-04-04T14:00:08.198Z</time></trkpt><trkpt lat="43.1466923" lon="13.0657946"><ele>488.0</ele><time>2026-04-04T14:00:09.198Z</time></trkpt><trkpt lat="43.1466344" lon="13.0659338"><ele>488.0</ele><time>2026-04-04T14:00:10.199Z</time></trkpt><trkpt lat="43.146586" lon="13.0660768"><ele>489.75</ele><time>2026-04-04T14:00:11.198Z</time></trkpt><trkpt lat="43.1465303" lon="13.0662079"><ele>491.5</ele><time>2026-04-04T14:00:12.198Z</time></trkpt><trkpt lat="43.1464685" lon="13.0663319"><ele>493.25</ele><time>2026-04-04T14:00:13.198Z</time></trkpt><trkpt lat="43.1463969" lon="13.0664647"><ele>495.0</ele><time>2026-04-04T14:00:14.198Z</time></trkpt><trkpt lat="43.146318" lon="13.0665726"><ele>494.75</ele><time>2026-04-04T14:00:15.198Z</time></trkpt><trkpt lat="43.1462204" lon="13.0666709"><ele>494.5</ele><time>2026-04-04T14:00:16.198Z</time></trkpt><trkpt lat="43.1461183" lon="13.0667617"><ele>494.25</ele><time>2026-04-04T14:00:17.198Z</time></trkpt><trkpt lat="43.1460021" lon="13.0668261"><ele>494.0</ele><time>2026-04-04T14:00:18.198Z</time></trkpt><trkpt lat="43.1458862" lon="13.0668707"><ele>494.0</ele><time>2026-04-04T14:00:19.198Z</time></trkpt><trkpt lat="43.145767" lon="13.066895"><ele>494.0</ele><time>2026-04-04T14:00:20.199Z</time></trkpt><trkpt lat="43.1456318" lon="13.0669177"><ele>494.0</ele><time>2026-04-04T14:00:21.198Z</time></trkpt><trkpt lat="43.145509" lon="13.0669556"><ele>494.0</ele><time>2026-04-04T14:00:22.198Z</time></trkpt><trkpt lat="43.1453922" lon="13.0670024"><ele>495.79999999999995</ele><time>2026-04-04T14:00:23.199Z</time></trkpt><trkpt lat="43.1452907" lon="13.0670702"><ele>497.59999999999997</ele><time>2026-04-04T14:00:24.198Z</time></trkpt><trkpt lat="43.1451957" lon="13.0671453"><ele>499.4</ele><time>2026-04-04T14:00:25.199Z</time></trkpt><trkpt lat="43.1451117" lon="13.0672442"><ele>501.2</ele><time>2026-04-04T14:00:26.198Z</time></trkpt><trkpt lat="43.1450506" lon="13.0673702"><ele>503.0</ele><time>2026-04-04T14:00:27.198Z</time></trkpt><trkpt lat="43.145" lon="13.0675022"><ele>503.0</ele><time>2026-04-04T14:00:28.198Z</time></trkpt><trkpt lat="43.1449791" lon="13.0676436"><ele>502.99999999999994</ele><time>2026-04-04T14:00:29.198Z</time></trkpt><trkpt lat="43.1449676" lon="13.0677909"><ele>502.99999999999994</ele><time>2026-04-04T14:00:30.198Z</time></trkpt><trkpt lat="43.1449826" lon="13.0679287"><ele>503.0</ele><time>2026-04-04T14:00:31.198Z</time></trkpt><trkpt lat="43.145008" lon="13.0680778"><ele>503.0</ele><time>2026-04-04T14:00:32.198Z</time></trkpt><trkpt lat="43.145007" lon="13.068225"><ele>503.5</ele><time>2026-04-04T14:00:33.198Z</time></trkpt><trkpt lat="43.1449949" lon="13.0683841"><ele>504.0</ele><time>2026-04-04T14:00:34.198Z</time></trkpt><trkpt lat="43.1449591" lon="13.0685402"><ele>504.5</ele><time>2026-04-04T14:00:35.198Z</time></trkpt><trkpt lat="43.1449086" lon="13.0686935"><ele>505.0</ele><time>2026-04-04T14:00:36.198Z</time></trkpt><trkpt lat="43.1448518" lon="13.0688385"><ele>506.8</ele><time>2026-04-04T14:00:37.199Z</time></trkpt><trkpt lat="43.1447835" lon="13.0689758"><ele>508.6</ele><time>2026-04-04T14:00:38.198Z</time></trkpt><trkpt lat="43.1447417" lon="13.0691243"><ele>510.4</ele><time>2026-04-04T14:00:39.199Z</time></trkpt><trkpt lat="43.144713" lon="13.0692601"><ele>512.2</ele><time>2026-04-04T14:00:40.198Z</time></trkpt><trkpt lat="43.1446922" lon="13.0693903"><ele>514.0</ele><time>2026-04-04T14:00:41.198Z</time></trkpt><trkpt lat="43.1446799" lon="13.0695223"><ele>514.8333333333334</ele><time>2026-04-04T14:00:42.198Z</time></trkpt><trkpt lat="43.144674" lon="13.0696488"><ele>515.6666666666667</ele><time>2026-04-04T14:00:43.198Z</time></trkpt><trkpt lat="43.1446738" lon="13.0697661"><ele>516.5</ele><time>2026-04-04T14:00:44.198Z</time></trkpt><trkpt lat="43.1446799" lon="13.0698812"><ele>517.3333333333334</ele><time>2026-04-04T14:00:45.199Z</time></trkpt><trkpt lat="43.1446921" lon="13.0699849"><ele>518.1666666666666</ele><time>2026-04-04T14:00:46.198Z</time></trkpt><trkpt lat="43.1446898" lon="13.0700804"><ele>519.0</ele><time>2026-04-04T14:00:47.198Z</time></trkpt><trkpt lat="43.1446735" lon="13.0701805"><ele>519.1428571428571</ele><time>2026-04-04T14:00:48.199Z</time></trkpt><trkpt lat="43.1446442" lon="13.0702783"><ele>519.2857142857142</ele><time>2026-04-04T14:00:49.199Z</time></trkpt><trkpt lat="43.1446015" lon="13.070361"><ele>519.4285714285714</ele><time>2026-04-04T14:00:50.198Z</time></trkpt><trkpt lat="43.1445499" lon="13.070429"><ele>519.5714285714286</ele><time>2026-04-04T14:00:51.198Z</time></trkpt><trkpt lat="43.1444856" lon="13.0704716"><ele>519.7142857142858</ele><time>2026-04-04T14:00:52.198Z</time></trkpt><trkpt lat="43.1444172" lon="13.0704878"><ele>519.8571428571429</ele><time>2026-04-04T14:00:53.198Z</time></trkpt><trkpt lat="43.1443425" lon="13.0704782"><ele>520.0</ele><time>2026-04-04T14:00:54.198Z</time></trkpt><trkpt lat="43.1442583" lon="13.0704486"><ele>520.0</ele><time>2026-04-04T14:00:55.198Z</time></trkpt><trkpt lat="43.1441809" lon="13.0704157"><ele>520.0</ele><time>2026-04-04T14:00:56.198Z</time></trkpt><trkpt lat="43.1441242" lon="13.0702757"><ele>520.0</ele><time>2026-04-04T14:00:57.198Z</time></trkpt><trkpt lat="43.1440823" lon="13.0701595"><ele>520.0</ele><time>2026-04-04T14:00:58.198Z</time></trkpt><trkpt lat="43.1440439" lon="13.0700435"><ele>520.0</ele><time>2026-04-04T14:00:59.198Z</time></trkpt><trkpt lat="43.1440282" lon="13.0699139"><ele>522.2</ele><time>2026-04-04T14:01:00.198Z</time></trkpt><trkpt lat="43.1440163" lon="13.0697768"><ele>524.4</ele><time>2026-04-04T14:01:01.199Z</time></trkpt><trkpt lat="43.14401" lon="13.0696332"><ele>526.6</ele><time>2026-04-04T14:01:02.198Z</time></trkpt><trkpt lat="43.1440104" lon="13.0694848"><ele>528.8</ele><time>2026-04-04T14:01:03.199Z</time></trkpt><trkpt lat="43.144016" lon="13.0693389"><ele>531.0</ele><time>2026-04-04T14:01:04.198Z</time></trkpt><trkpt lat="43.1440305" lon="13.0691938"><ele>529.8</ele><time>2026-04-04T14:01:05.198Z</time></trkpt><trkpt lat="43.1440383" lon="13.0690491"><ele>528.6</ele><time>2026-04-04T14:01:06.198Z</time></trkpt><trkpt lat="43.1440317" lon="13.0689104"><ele>527.4</ele><time>2026-04-04T14:01:07.199Z</time></trkpt><trkpt lat="43.1440025" lon="13.0687763"><ele>526.2</ele><time>2026-04-04T14:01:08.198Z</time></trkpt><trkpt lat="43.1439433" lon="13.0686642"><ele>525.0</ele><time>2026-04-04T14:01:09.198Z</time></trkpt><trkpt lat="43.1438684" lon="13.068568"><ele>525.0</ele><time>2026-04-04T14:01:10.198Z</time></trkpt><trkpt lat="43.143789" lon="13.0684992"><ele>525.0</ele><time>2026-04-04T14:01:11.199Z</time></trkpt><trkpt lat="43.1436789" lon="13.068475"><ele>525.0</ele><time>2026-04-04T14:01:12.198Z</time></trkpt><trkpt lat="43.1436147" lon="13.0684397"><ele>525.0</ele><time>2026-04-04T14:01:13.199Z</time></trkpt><trkpt lat="43.1435457" lon="13.0683987"><ele>525.0</ele><time>2026-04-04T14:01:15.199Z</time></trkpt><trkpt lat="43.1434897" lon="13.0683273"><ele>525.0</ele><time>2026-04-04T14:01:17.198Z</time></trkpt><trkpt lat="43.143409" lon="13.0682227"><ele>524.0</ele><time>2026-04-04T14:01:19.198Z</time></trkpt><trkpt lat="43.1433532" lon="13.0681596"><ele>523.0</ele><time>2026-04-04T14:01:20.198Z</time></trkpt><trkpt lat="43.143248" lon="13.0680926"><ele>522.0</ele><time>2026-04-04T14:01:22.199Z</time></trkpt><trkpt lat="43.1431423" lon="13.0681084"><ele>521.0</ele><time>2026-04-04T14:01:24.198Z</time></trkpt><trkpt lat="43.1430408" lon="13.0681973"><ele>520.0</ele><time>2026-04-04T14:01:26.198Z</time></trkpt><trkpt lat="43.1429489" lon="13.0682991"><ele>522.1666666666667</ele><time>2026-04-04T14:01:28.199Z</time></trkpt><trkpt lat="43.1428412" lon="13.0683477"><ele>524.3333333333334</ele><time>2026-04-04T14:01:30.198Z</time></trkpt><trkpt lat="43.1427744" lon="13.0683617"><ele>526.5</ele><time>2026-04-04T14:01:31.199Z</time></trkpt><trkpt lat="43.1427087" lon="13.0683631"><ele>528.6666666666666</ele><time>2026-04-04T14:01:32.198Z</time></trkpt><trkpt lat="43.1426408" lon="13.0683475"><ele>530.8333333333333</ele><time>2026-04-04T14:01:33.198Z</time></trkpt><trkpt lat="43.1425677" lon="13.0683026"><ele>533.0</ele><time>2026-04-04T14:01:34.198Z</time></trkpt><trkpt lat="43.1424917" lon="13.0682537"><ele>533.0</ele><time>2026-04-04T14:01:35.198Z</time></trkpt><trkpt lat="43.1424113" lon="13.0681999"><ele>533.0</ele><time>2026-04-04T14:01:36.198Z</time></trkpt><trkpt lat="43.142338" lon="13.0681361"><ele>533.0</ele><time>2026-04-04T14:01:37.198Z</time></trkpt><trkpt lat="43.1422737" lon="13.0680785"><ele>533.0</ele><time>2026-04-04T14:01:38.198Z</time></trkpt><trkpt lat="43.1422092" lon="13.0680256"><ele>533.0</ele><time>2026-04-04T14:01:39.198Z</time></trkpt><trkpt lat="43.1421425" lon="13.0679744"><ele>533.0</ele><time>2026-04-04T14:01:40.198Z</time></trkpt><trkpt lat="43.1420728" lon="13.0679183"><ele>534.6666666666666</ele><time>2026-04-04T14:01:41.198Z</time></trkpt><trkpt lat="43.1420046" lon="13.067864"><ele>536.3333333333334</ele><time>2026-04-04T14:01:42.198Z</time></trkpt><trkpt lat="43.141936" lon="13.0678099"><ele>538.0</ele><time>2026-04-04T14:01:43.198Z</time></trkpt><trkpt lat="43.1412243" lon="13.0666081"><ele>538.0</ele><time>2026-04-04T14:01:51.198Z</time></trkpt><trkpt lat="43.1410968" lon="13.0664693"><ele>538.0</ele><time>2026-04-04T14:01:52.198Z</time></trkpt><trkpt lat="43.140979" lon="13.0663034"><ele>538.0</ele><time>2026-04-04T14:01:53.198Z</time></trkpt><trkpt lat="43.140852" lon="13.0661202"><ele>539.3333333333334</ele><time>2026-04-04T14:01:54.198Z</time></trkpt><trkpt lat="43.1407008" lon="13.065933"><ele>540.6666666666666</ele><time>2026-04-04T14:01:55.199Z</time></trkpt><trkpt lat="43.1405756" lon="13.0657606"><ele>542.0</ele><time>2026-04-04T14:01:56.198Z</time></trkpt><trkpt lat="43.1404604" lon="13.0656094"><ele>542.0</ele><time>2026-04-04T14:01:57.198Z</time></trkpt><trkpt lat="43.1403514" lon="13.0654665"><ele>542.0</ele><time>2026-04-04T14:01:58.198Z</time></trkpt><trkpt lat="43.1402423" lon="13.0653259"><ele>542.0</ele><time>2026-04-04T14:01:59.199Z</time></trkpt><trkpt lat="43.1401355" lon="13.0651884"><ele>542.0</ele><time>2026-04-04T14:02:00.198Z</time></trkpt><trkpt lat="43.1400307" lon="13.0650351"><ele>541.25</ele><time>2026-04-04T14:02:01.198Z</time></trkpt><trkpt lat="43.1399416" lon="13.0648872"><ele>540.5</ele><time>2026-04-04T14:02:02.198Z</time></trkpt><trkpt lat="43.1398756" lon="13.0647283"><ele>539.75</ele><time>2026-04-04T14:02:03.198Z</time></trkpt><trkpt lat="43.1398277" lon="13.0645723"><ele>539.0</ele><time>2026-04-04T14:02:04.198Z</time></trkpt><trkpt lat="43.1397779" lon="13.0644068"><ele>539.5</ele><time>2026-04-04T14:02:05.198Z</time></trkpt><trkpt lat="43.1397373" lon="13.06424"><ele>540.0</ele><time>2026-04-04T14:02:06.198Z</time></trkpt><trkpt lat="43.139688" lon="13.0640757"><ele>540.5</ele><time>2026-04-04T14:02:07.198Z</time></trkpt><trkpt lat="43.1396331" lon="13.0639144"><ele>541.0</ele><time>2026-04-04T14:02:08.198Z</time></trkpt><trkpt lat="43.1395646" lon="13.0637625"><ele>541.0</ele><time>2026-04-04T14:02:09.198Z</time></trkpt><trkpt lat="43.1394847" lon="13.0636207"><ele>541.0</ele><time>2026-04-04T14:02:10.198Z</time></trkpt><trkpt lat="43.1393942" lon="13.0634892"><ele>541.0</ele><time>2026-04-04T14:02:11.199Z</time></trkpt><trkpt lat="43.1393044" lon="13.063355"><ele>541.0</ele><time>2026-04-04T14:02:12.198Z</time></trkpt><trkpt lat="43.1392175" lon="13.0632268"><ele>542.0</ele><time>2026-04-04T14:02:13.198Z</time></trkpt><trkpt lat="43.1391316" lon="13.0631032"><ele>543.0</ele><time>2026-04-04T14:02:14.199Z</time></trkpt><trkpt lat="43.1390456" lon="13.0629839"><ele>544.0</ele><time>2026-04-04T14:02:15.198Z</time></trkpt><trkpt lat="43.1389559" lon="13.0628574"><ele>545.0</ele><time>2026-04-04T14:02:16.198Z</time></trkpt><trkpt lat="43.1388629" lon="13.0627241"><ele>545.0</ele><time>2026-04-04T14:02:17.199Z</time></trkpt><trkpt lat="43.1387658" lon="13.0625871"><ele>545.0</ele><time>2026-04-04T14:02:18.198Z</time></trkpt><trkpt lat="43.1386646" lon="13.0624416"><ele>545.0</ele><time>2026-04-04T14:02:19.198Z</time></trkpt><trkpt lat="43.1385512" lon="13.0622889"><ele>545.0</ele><time>2026-04-04T14:02:20.198Z</time></trkpt><trkpt lat="43.1384182" lon="13.0621151"><ele>544.6666666666666</ele><time>2026-04-04T14:02:21.198Z</time></trkpt><trkpt lat="43.1382849" lon="13.0619151"><ele>544.3333333333334</ele><time>2026-04-04T14:02:22.198Z</time></trkpt><trkpt lat="43.1381782" lon="13.0617432"><ele>544.0</ele><time>2026-04-04T14:02:23.198Z</time></trkpt><trkpt lat="43.1380885" lon="13.0616044"><ele>544.0</ele><time>2026-04-04T14:02:24.199Z</time></trkpt><trkpt lat="43.1380115" lon="13.061489"><ele>544.0</ele><time>2026-04-04T14:02:25.198Z</time></trkpt><trkpt lat="43.1379356" lon="13.0613781"><ele>544.0</ele><time>2026-04-04T14:02:26.199Z</time></trkpt><trkpt lat="43.1378511" lon="13.0612675"><ele>544.0</ele><time>2026-04-04T14:02:27.199Z</time></trkpt><trkpt lat="43.1377614" lon="13.061169"><ele>544.0</ele><time>2026-04-04T14:02:28.198Z</time></trkpt><trkpt lat="43.137664" lon="13.0610915"><ele>544.0</ele><time>2026-04-04T14:02:29.198Z</time></trkpt><trkpt lat="43.1375383" lon="13.0610321"><ele>544.0</ele><time>2026-04-04T14:02:30.198Z</time></trkpt><trkpt lat="43.1373869" lon="13.0609783"><ele>544.0</ele><time>2026-04-04T14:02:31.198Z</time></trkpt><trkpt lat="43.1372248" lon="13.0609181"><ele>543.6666666666667</ele><time>2026-04-04T14:02:32.199Z</time></trkpt><trkpt lat="43.1370511" lon="13.0608813"><ele>543.3333333333334</ele><time>2026-04-04T14:02:33.198Z</time></trkpt><trkpt lat="43.1368031" lon="13.0607841"><ele>543.0</ele><time>2026-04-04T14:02:34.198Z</time></trkpt><trkpt lat="43.1365741" lon="13.060718"><ele>542.0</ele><time>2026-04-04T14:02:35.198Z</time></trkpt><trkpt lat="43.1363328" lon="13.0606821"><ele>541.0</ele><time>2026-04-04T14:02:36.198Z</time></trkpt><trkpt lat="43.1360931" lon="13.0606629"><ele>541.0</ele><time>2026-04-04T14:02:37.198Z</time></trkpt><trkpt lat="43.1358358" lon="13.0606304"><ele>541.0</ele><time>2026-04-04T14:02:38.198Z</time></trkpt><trkpt lat="43.1355838" lon="13.0606277"><ele>542.5</ele><time>2026-04-04T14:02:39.198Z</time></trkpt><trkpt lat="43.1353387" lon="13.0606237"><ele>544.0</ele><time>2026-04-04T14:02:40.198Z</time></trkpt><trkpt lat="43.1351036" lon="13.0606208"><ele>545.6666666666667</ele><time>2026-04-04T14:02:41.199Z</time></trkpt><trkpt lat="43.1348788" lon="13.060632"><ele>547.3333333333334</ele><time>2026-04-04T14:02:42.198Z</time></trkpt><trkpt lat="43.1346556" lon="13.060631"><ele>549.0</ele><time>2026-04-04T14:02:43.198Z</time></trkpt><trkpt lat="43.1344382" lon="13.0606221"><ele>549.0</ele><time>2026-04-04T14:02:44.198Z</time></trkpt><trkpt lat="43.1342396" lon="13.0606122"><ele>549.0</ele><time>2026-04-04T14:02:45.198Z</time></trkpt><trkpt lat="43.1340429" lon="13.060588"><ele>549.0</ele><time>2026-04-04T14:02:46.199Z</time></trkpt><trkpt lat="43.1338527" lon="13.0605401"><ele>552.6666666666666</ele><time>2026-04-04T14:02:47.198Z</time></trkpt><trkpt lat="43.1336691" lon="13.0604632"><ele>556.3333333333333</ele><time>2026-04-04T14:02:48.198Z</time></trkpt><trkpt lat="43.1335" lon="13.060355"><ele>560.0</ele><time>2026-04-04T14:02:49.198Z</time></trkpt><trkpt lat="43.1333378" lon="13.0602507"><ele>559.0</ele><time>2026-04-04T14:02:50.198Z</time></trkpt><trkpt lat="43.1331795" lon="13.0601155"><ele>558.0</ele><time>2026-04-04T14:02:51.198Z</time></trkpt><trkpt lat="43.133016" lon="13.0599664"><ele>557.0</ele><time>2026-04-04T14:02:52.198Z</time></trkpt><trkpt lat="43.1328424" lon="13.0598354"><ele>557.0</ele><time>2026-04-04T14:02:53.198Z</time></trkpt><trkpt lat="43.1326838" lon="13.0597076"><ele>557.0</ele><time>2026-04-04T14:02:54.199Z</time></trkpt><trkpt lat="43.132533" lon="13.0596066"><ele>557.0</ele><time>2026-04-04T14:02:55.198Z</time></trkpt><trkpt lat="43.1323895" lon="13.059525"><ele>557.75</ele><time>2026-04-04T14:02:56.198Z</time></trkpt><trkpt lat="43.1322427" lon="13.0594595"><ele>558.5</ele><time>2026-04-04T14:02:57.198Z</time></trkpt><trkpt lat="43.1321161" lon="13.0594208"><ele>559.25</ele><time>2026-04-04T14:02:58.198Z</time></trkpt><trkpt lat="43.1320013" lon="13.059398"><ele>560.0</ele><time>2026-04-04T14:02:59.198Z</time></trkpt><trkpt lat="43.1318878" lon="13.059402"><ele>560.0</ele><time>2026-04-04T14:03:00.198Z</time></trkpt><trkpt lat="43.131772" lon="13.0594116"><ele>560.0</ele><time>2026-04-04T14:03:01.198Z</time></trkpt><trkpt lat="43.1316574" lon="13.0594203"><ele>560.0</ele><time>2026-04-04T14:03:02.198Z</time></trkpt><trkpt lat="43.1315417" lon="13.0594221"><ele>560.0</ele><time>2026-04-04T14:03:03.198Z</time></trkpt><trkpt lat="43.13142" lon="13.0594101"><ele>558.0</ele><time>2026-04-04T14:03:04.199Z</time></trkpt><trkpt lat="43.1312984" lon="13.0593961"><ele>556.0</ele><time>2026-04-04T14:03:05.198Z</time></trkpt><trkpt lat="43.1311722" lon="13.0593726"><ele>554.0</ele><time>2026-04-04T14:03:06.198Z</time></trkpt><trkpt lat="43.131046" lon="13.0593515"><ele>552.0</ele><time>2026-04-04T14:03:07.198Z</time></trkpt><trkpt lat="43.1309212" lon="13.0593256"><ele>552.0</ele><time>2026-04-04T14:03:08.198Z</time></trkpt><trkpt lat="43.1307917" lon="13.0592938"><ele>552.0</ele><time>2026-04-04T14:03:09.198Z</time></trkpt><trkpt lat="43.130678" lon="13.0592529"><ele>552.0</ele><time>2026-04-04T14:03:10.198Z</time></trkpt><trkpt lat="43.130567" lon="13.0592212"><ele>552.0</ele><time>2026-04-04T14:03:11.199Z</time></trkpt><trkpt lat="43.1304591" lon="13.0592028"><ele>551.2</ele><time>2026-04-04T14:03:12.199Z</time></trkpt><trkpt lat="43.1303507" lon="13.0591855"><ele>550.4000000000001</ele><time>2026-04-04T14:03:13.198Z</time></trkpt><trkpt lat="43.1302506" lon="13.059177"><ele>549.5999999999999</ele><time>2026-04-04T14:03:14.199Z</time></trkpt><trkpt lat="43.1301524" lon="13.0591985"><ele>548.8</ele><time>2026-04-04T14:03:15.199Z</time></trkpt><trkpt lat="43.1300434" lon="13.0592341"><ele>548.0</ele><time>2026-04-04T14:03:16.198Z</time></trkpt><trkpt lat="43.1299414" lon="13.0592727"><ele>546.1999999999999</ele><time>2026-04-04T14:03:17.199Z</time></trkpt><trkpt lat="43.1298438" lon="13.0593202"><ele>544.4</ele><time>2026-04-04T14:03:18.198Z</time></trkpt><trkpt lat="43.1297361" lon="13.0593696"><ele>542.5999999999999</ele><time>2026-04-04T14:03:19.199Z</time></trkpt><trkpt lat="43.1296466" lon="13.0594144"><ele>540.8</ele><time>2026-04-04T14:03:20.199Z</time></trkpt><trkpt lat="43.1295559" lon="13.0594544"><ele>539.0</ele><time>2026-04-04T14:03:21.198Z</time></trkpt><trkpt lat="43.1294784" lon="13.0594833"><ele>539.0</ele><time>2026-04-04T14:03:22.198Z</time></trkpt><trkpt lat="43.1293978" lon="13.0595017"><ele>539.0</ele><time>2026-04-04T14:03:23.198Z</time></trkpt><trkpt lat="43.1293161" lon="13.0595203"><ele>539.0</ele><time>2026-04-04T14:03:24.199Z</time></trkpt><trkpt lat="43.1292326" lon="13.0595334"><ele>539.0</ele><time>2026-04-04T14:03:25.198Z</time></trkpt><trkpt lat="43.1291568" lon="13.0595347"><ele>539.0</ele><time>2026-04-04T14:03:26.198Z</time></trkpt><trkpt lat="43.1290666" lon="13.0595428"><ele>539.0</ele><time>2026-04-04T14:03:28.198Z</time></trkpt><trkpt lat="43.1289953" lon="13.059543"><ele>537.4</ele><time>2026-04-04T14:03:32.198Z</time></trkpt><trkpt lat="43.1289294" lon="13.0595384"><ele>535.8</ele><time>2026-04-04T14:03:35.198Z</time></trkpt><trkpt lat="43.1288404" lon="13.0594743"><ele>534.2</ele><time>2026-04-04T14:03:37.198Z</time></trkpt><trkpt lat="43.128836" lon="13.0593117"><ele>532.6</ele><time>2026-04-04T14:03:39.199Z</time></trkpt><trkpt lat="43.1289001" lon="13.0592274"><ele>531.0</ele><time>2026-04-04T14:03:40.198Z</time></trkpt><trkpt lat="43.1289928" lon="13.0591393"><ele>529.0</ele><time>2026-04-04T14:03:41.198Z</time></trkpt><trkpt lat="43.1291242" lon="13.0590706"><ele>527.0</ele><time>2026-04-04T14:03:42.199Z</time></trkpt><trkpt lat="43.1292793" lon="13.058996"><ele>525.0</ele><time>2026-04-04T14:03:43.198Z</time></trkpt><trkpt lat="43.1294402" lon="13.0589152"><ele>525.0</ele><time>2026-04-04T14:03:44.198Z</time></trkpt><trkpt lat="43.129592" lon="13.0587976"><ele>525.0</ele><time>2026-04-04T14:03:45.199Z</time></trkpt><trkpt lat="43.1297612" lon="13.0586661"><ele>525.0</ele><time>2026-04-04T14:03:46.198Z</time></trkpt><trkpt lat="43.1298999" lon="13.0585383"><ele>524.0</ele><time>2026-04-04T14:03:47.198Z</time></trkpt><trkpt lat="43.1300284" lon="13.0584014"><ele>523.0</ele><time>2026-04-04T14:03:48.198Z</time></trkpt><trkpt lat="43.1301542" lon="13.0582623"><ele>522.0</ele><time>2026-04-04T14:03:49.198Z</time></trkpt><trkpt lat="43.1302592" lon="13.0580973"><ele>522.0</ele><time>2026-04-04T14:03:50.198Z</time></trkpt><trkpt lat="43.1303497" lon="13.057912"><ele>522.0</ele><time>2026-04-04T14:03:51.198Z</time></trkpt><trkpt lat="43.1304226" lon="13.0577174"><ele>522.0</ele><time>2026-04-04T14:03:52.199Z</time></trkpt><trkpt lat="43.1304751" lon="13.0575239"><ele>521.0</ele><time>2026-04-04T14:03:53.198Z</time></trkpt><trkpt lat="43.1305036" lon="13.0573189"><ele>520.0</ele><time>2026-04-04T14:03:54.199Z</time></trkpt><trkpt lat="43.1305106" lon="13.0571097"><ele>519.0</ele><time>2026-04-04T14:03:55.199Z</time></trkpt><trkpt lat="43.130483" lon="13.0569051"><ele>519.0</ele><time>2026-04-04T14:03:56.198Z</time></trkpt><trkpt lat="43.1304304" lon="13.0567007"><ele>519.0</ele><time>2026-04-04T14:03:57.198Z</time></trkpt><trkpt lat="43.1303479" lon="13.0564957"><ele>519.0</ele><time>2026-04-04T14:03:58.199Z</time></trkpt><trkpt lat="43.130252" lon="13.0562985"><ele>519.6666666666666</ele><time>2026-04-04T14:03:59.198Z</time></trkpt><trkpt lat="43.1301483" lon="13.0561169"><ele>520.3333333333333</ele><time>2026-04-04T14:04:00.198Z</time></trkpt><trkpt lat="43.1300438" lon="13.0559543"><ele>521.0</ele><time>2026-04-04T14:04:01.199Z</time></trkpt><trkpt lat="43.1299223" lon="13.0557935"><ele>517.75</ele><time>2026-04-04T14:04:02.198Z</time></trkpt><trkpt lat="43.1297897" lon="13.0556757"><ele>514.5</ele><time>2026-04-04T14:04:03.198Z</time></trkpt><trkpt lat="43.1296718" lon="13.0555681"><ele>511.25</ele><time>2026-04-04T14:04:04.198Z</time></trkpt><trkpt lat="43.1295677" lon="13.0554616"><ele>508.0</ele><time>2026-04-04T14:04:05.198Z</time></trkpt><trkpt lat="43.1294779" lon="13.055354"><ele>508.0</ele><time>2026-04-04T14:04:06.198Z</time></trkpt><trkpt lat="43.1294112" lon="13.0552252"><ele>508.0</ele><time>2026-04-04T14:04:07.198Z</time></trkpt><trkpt lat="43.1293861" lon="13.0550675"><ele>508.0</ele><time>2026-04-04T14:04:08.198Z</time></trkpt><trkpt lat="43.1293753" lon="13.0549073"><ele>508.0</ele><time>2026-04-04T14:04:09.199Z</time></trkpt><trkpt lat="43.1293619" lon="13.054747"><ele>507.0</ele><time>2026-04-04T14:04:10.198Z</time></trkpt><trkpt lat="43.1293645" lon="13.0545645"><ele>506.0</ele><time>2026-04-04T14:04:11.199Z</time></trkpt><trkpt lat="43.1293463" lon="13.0543826"><ele>505.0</ele><time>2026-04-04T14:04:12.199Z</time></trkpt><trkpt lat="43.1293391" lon="13.0541906"><ele>504.0</ele><time>2026-04-04T14:04:13.199Z</time></trkpt><trkpt lat="43.1293269" lon="13.0540031"><ele>504.0</ele><time>2026-04-04T14:04:14.199Z</time></trkpt><trkpt lat="43.1293113" lon="13.0538224"><ele>504.0</ele><time>2026-04-04T14:04:15.198Z</time></trkpt><trkpt lat="43.129293" lon="13.0536496"><ele>504.0</ele><time>2026-04-04T14:04:16.199Z</time></trkpt><trkpt lat="43.1292474" lon="13.0534969"><ele>504.0</ele><time>2026-04-04T14:04:17.198Z</time></trkpt><trkpt lat="43.1291981" lon="13.0533569"><ele>504.4</ele><time>2026-04-04T14:04:18.199Z</time></trkpt><trkpt lat="43.1291453" lon="13.0532285"><ele>504.79999999999995</ele><time>2026-04-04T14:04:19.198Z</time></trkpt><trkpt lat="43.1290927" lon="13.0531098"><ele>505.20000000000005</ele><time>2026-04-04T14:04:20.198Z</time></trkpt><trkpt lat="43.1290339" lon="13.0529924"><ele>505.6</ele><time>2026-04-04T14:04:21.199Z</time></trkpt><trkpt lat="43.1289671" lon="13.0528858"><ele>506.0</ele><time>2026-04-04T14:04:22.198Z</time></trkpt><trkpt lat="43.1288781" lon="13.0527748"><ele>506.0</ele><time>2026-04-04T14:04:23.198Z</time></trkpt><trkpt lat="43.1287912" lon="13.052714"><ele>506.0</ele><time>2026-04-04T14:04:24.198Z</time></trkpt><trkpt lat="43.1286912" lon="13.0526886"><ele>506.0</ele><time>2026-04-04T14:04:25.198Z</time></trkpt><trkpt lat="43.1285944" lon="13.0526939"><ele>506.0</ele><time>2026-04-04T14:04:26.198Z</time></trkpt><trkpt lat="43.1285047" lon="13.0527521"><ele>506.0</ele><time>2026-04-04T14:04:27.199Z</time></trkpt><trkpt lat="43.1284329" lon="13.0528592"><ele>506.0</ele><time>2026-04-04T14:04:28.198Z</time></trkpt><trkpt lat="43.1283889" lon="13.0529989"><ele>506.0</ele><time>2026-04-04T14:04:29.198Z</time></trkpt><trkpt lat="43.1283538" lon="13.0531602"><ele>506.0</ele><time>2026-04-04T14:04:30.199Z</time></trkpt><trkpt lat="43.1283278" lon="13.0533402"><ele>506.0</ele><time>2026-04-04T14:04:31.198Z</time></trkpt><trkpt lat="43.1283034" lon="13.0535153"><ele>503.75</ele><time>2026-04-04T14:04:32.198Z</time></trkpt><trkpt lat="43.1282905" lon="13.0536958"><ele>501.5</ele><time>2026-04-04T14:04:33.198Z</time></trkpt><trkpt lat="43.1282943" lon="13.0538707"><ele>499.25</ele><time>2026-04-04T14:04:34.198Z</time></trkpt><trkpt lat="43.1283157" lon="13.0540383"><ele>497.0</ele><time>2026-04-04T14:04:35.198Z</time></trkpt><trkpt lat="43.1283399" lon="13.0542026"><ele>496.0</ele><time>2026-04-04T14:04:36.198Z</time></trkpt><trkpt lat="43.1283724" lon="13.0543591"><ele>495.0</ele><time>2026-04-04T14:04:37.199Z</time></trkpt><trkpt lat="43.1283933" lon="13.0545143"><ele>494.0</ele><time>2026-04-04T14:04:38.199Z</time></trkpt><trkpt lat="43.1284077" lon="13.0546828"><ele>493.0</ele><time>2026-04-04T14:04:39.198Z</time></trkpt><trkpt lat="43.1283915" lon="13.0548356"><ele>493.25</ele><time>2026-04-04T14:04:40.198Z</time></trkpt><trkpt lat="43.1283415" lon="13.0549998"><ele>493.5</ele><time>2026-04-04T14:04:41.199Z</time></trkpt><trkpt lat="43.1282391" lon="13.0551363"><ele>493.75</ele><time>2026-04-04T14:04:42.199Z</time></trkpt><trkpt lat="43.1281403" lon="13.0552646"><ele>494.0</ele><time>2026-04-04T14:04:43.198Z</time></trkpt><trkpt lat="43.1280147" lon="13.0553823"><ele>490.66666666666663</ele><time>2026-04-04T14:04:44.199Z</time></trkpt><trkpt lat="43.1278859" lon="13.0555062"><ele>487.33333333333337</ele><time>2026-04-04T14:04:45.199Z</time></trkpt><trkpt lat="43.1277636" lon="13.055643"><ele>484.0</ele><time>2026-04-04T14:04:46.198Z</time></trkpt><trkpt lat="43.1276383" lon="13.0557924"><ele>484.0</ele><time>2026-04-04T14:04:47.198Z</time></trkpt><trkpt lat="43.1275219" lon="13.0559565"><ele>484.0</ele><time>2026-04-04T14:04:48.198Z</time></trkpt><trkpt lat="43.1274118" lon="13.0561178"><ele>484.0</ele><time>2026-04-04T14:04:49.198Z</time></trkpt><trkpt lat="43.1273018" lon="13.0562784"><ele>482.5</ele><time>2026-04-04T14:04:50.199Z</time></trkpt><trkpt lat="43.1271948" lon="13.0564343"><ele>481.0</ele><time>2026-04-04T14:04:51.199Z</time></trkpt><trkpt lat="43.1270888" lon="13.0565707"><ele>479.5</ele><time>2026-04-04T14:04:52.198Z</time></trkpt><trkpt lat="43.1269779" lon="13.0566892"><ele>478.0</ele><time>2026-04-04T14:04:53.198Z</time></trkpt><trkpt lat="43.1268521" lon="13.0567682"><ele>478.0</ele><time>2026-04-04T14:04:54.198Z</time></trkpt><trkpt lat="43.1267196" lon="13.0568215"><ele>478.0</ele><time>2026-04-04T14:04:55.198Z</time></trkpt><trkpt lat="43.1265902" lon="13.0568216"><ele>478.0</ele><time>2026-04-04T14:04:56.199Z</time></trkpt><trkpt lat="43.1264494" lon="13.0568455"><ele>478.0</ele><time>2026-04-04T14:04:57.198Z</time></trkpt><trkpt lat="43.1263257" lon="13.0568816"><ele>476.25</ele><time>2026-04-04T14:04:58.198Z</time></trkpt><trkpt lat="43.1262099" lon="13.0569753"><ele>474.5</ele><time>2026-04-04T14:04:59.198Z</time></trkpt><trkpt lat="43.1261064" lon="13.0571011"><ele>472.75</ele><time>2026-04-04T14:05:00.198Z</time></trkpt><trkpt lat="43.1260045" lon="13.0572497"><ele>471.0</ele><time>2026-04-04T14:05:01.199Z</time></trkpt><trkpt lat="43.1259086" lon="13.0574124"><ele>473.0</ele><time>2026-04-04T14:05:02.198Z</time></trkpt><trkpt lat="43.1258082" lon="13.0575767"><ele>475.0</ele><time>2026-04-04T14:05:03.199Z</time></trkpt><trkpt lat="43.1257039" lon="13.0577444"><ele>477.0</ele><time>2026-04-04T14:05:04.198Z</time></trkpt><trkpt lat="43.1255976" lon="13.0578965"><ele>472.33333333333337</ele><time>2026-04-04T14:05:05.198Z</time></trkpt><trkpt lat="43.125472" lon="13.0580285"><ele>467.6666666666667</ele><time>2026-04-04T14:05:06.198Z</time></trkpt><trkpt lat="43.1253355" lon="13.0581223"><ele>463.0</ele><time>2026-04-04T14:05:07.198Z</time></trkpt><trkpt lat="43.1252022" lon="13.0582175"><ele>461.0</ele><time>2026-04-04T14:05:08.198Z</time></trkpt><trkpt lat="43.125063" lon="13.0583196"><ele>459.0</ele><time>2026-04-04T14:05:09.198Z</time></trkpt><trkpt lat="43.1249354" lon="13.0584398"><ele>457.0</ele><time>2026-04-04T14:05:10.198Z</time></trkpt><trkpt lat="43.1248164" lon="13.0585866"><ele>457.0</ele><time>2026-04-04T14:05:11.198Z</time></trkpt><trkpt lat="43.124695" lon="13.0587322"><ele>457.0</ele><time>2026-04-04T14:05:12.198Z</time></trkpt><trkpt lat="43.1245728" lon="13.0588763"><ele>457.0</ele><time>2026-04-04T14:05:13.198Z</time></trkpt><trkpt lat="43.1244543" lon="13.0590137"><ele>456.33333333333337</ele><time>2026-04-04T14:05:14.198Z</time></trkpt><trkpt lat="43.1243239" lon="13.0591334"><ele>455.66666666666663</ele><time>2026-04-04T14:05:15.198Z</time></trkpt><trkpt lat="43.1241862" lon="13.0592315"><ele>455.0</ele><time>2026-04-04T14:05:16.199Z</time></trkpt><trkpt lat="43.1240406" lon="13.0593063"><ele>455.0</ele><time>2026-04-04T14:05:17.198Z</time></trkpt><trkpt lat="43.1238914" lon="13.0593666"><ele>455.0</ele><time>2026-04-04T14:05:18.198Z</time></trkpt><trkpt lat="43.123736" lon="13.0594222"><ele>455.0</ele><time>2026-04-04T14:05:19.198Z</time></trkpt><trkpt lat="43.1235683" lon="13.0594733"><ele>455.0</ele><time>2026-04-04T14:05:20.199Z</time></trkpt><trkpt lat="43.1234079" lon="13.059512"><ele>455.0</ele><time>2026-04-04T14:05:21.198Z</time></trkpt><trkpt lat="43.1232426" lon="13.0595236"><ele>455.0</ele><time>2026-04-04T14:05:22.198Z</time></trkpt><trkpt lat="43.1230688" lon="13.0595128"><ele>453.0</ele><time>2026-04-04T14:05:23.198Z</time></trkpt><trkpt lat="43.1228843" lon="13.0594701"><ele>451.0</ele><time>2026-04-04T14:05:24.198Z</time></trkpt><trkpt lat="43.1227054" lon="13.059404"><ele>449.0</ele><time>2026-04-04T14:05:25.198Z</time></trkpt><trkpt lat="43.1225305" lon="13.0593456"><ele>451.3333333333333</ele><time>2026-04-04T14:05:26.198Z</time></trkpt><trkpt lat="43.1223497" lon="13.0592675"><ele>453.66666666666663</ele><time>2026-04-04T14:05:27.198Z</time></trkpt><trkpt lat="43.1221753" lon="13.0591969"><ele>456.0</ele><time>2026-04-04T14:05:28.198Z</time></trkpt><trkpt lat="43.1220132" lon="13.0591192"><ele>455.66666666666663</ele><time>2026-04-04T14:05:29.199Z</time></trkpt><trkpt lat="43.1218666" lon="13.0590259"><ele>455.3333333333333</ele><time>2026-04-04T14:05:30.198Z</time></trkpt><trkpt lat="43.1217531" lon="13.0588892"><ele>455.0</ele><time>2026-04-04T14:05:31.198Z</time></trkpt><trkpt lat="43.1216604" lon="13.0587393"><ele>455.0</ele><time>2026-04-04T14:05:32.198Z</time></trkpt><trkpt lat="43.1215862" lon="13.0585624"><ele>455.0</ele><time>2026-04-04T14:05:33.198Z</time></trkpt><trkpt lat="43.1215125" lon="13.0583717"><ele>455.0</ele><time>2026-04-04T14:05:34.198Z</time></trkpt><trkpt lat="43.1214351" lon="13.0581912"><ele>456.3333333333333</ele><time>2026-04-04T14:05:35.198Z</time></trkpt><trkpt lat="43.1213446" lon="13.0580155"><ele>457.66666666666663</ele><time>2026-04-04T14:05:36.199Z</time></trkpt><trkpt lat="43.1212201" lon="13.05785"><ele>459.0</ele><time>2026-04-04T14:05:37.198Z</time></trkpt><trkpt lat="43.1210703" lon="13.0577102"><ele>459.0</ele><time>2026-04-04T14:05:38.198Z</time></trkpt><trkpt lat="43.1208932" lon="13.0575728"><ele>459.0</ele><time>2026-04-04T14:05:39.198Z</time></trkpt><trkpt lat="43.1207134" lon="13.0574396"><ele>459.0</ele><time>2026-04-04T14:05:40.198Z</time></trkpt><trkpt lat="43.120536" lon="13.057287"><ele>460.5</ele><time>2026-04-04T14:05:41.199Z</time></trkpt><trkpt lat="43.1203309" lon="13.0571315"><ele>462.0</ele><time>2026-04-04T14:05:42.198Z</time></trkpt><trkpt lat="43.1201286" lon="13.0569934"><ele>462.0</ele><time>2026-04-04T14:05:43.198Z</time></trkpt><trkpt lat="43.1199332" lon="13.0568518"><ele>462.0</ele><time>2026-04-04T14:05:44.198Z</time></trkpt><trkpt lat="43.1197423" lon="13.0567041"><ele>462.0</ele><time>2026-04-04T14:05:45.199Z</time></trkpt><trkpt lat="43.1195504" lon="13.0565509"><ele>463.33333333333337</ele><time>2026-04-04T14:05:46.199Z</time></trkpt><trkpt lat="43.1193606" lon="13.0563988"><ele>464.6666666666667</ele><time>2026-04-04T14:05:47.198Z</time></trkpt><trkpt lat="43.119178" lon="13.056234"><ele>466.0</ele><time>2026-04-04T14:05:48.198Z</time></trkpt><trkpt lat="43.1190004" lon="13.0560752"><ele>466.6666666666667</ele><time>2026-04-04T14:05:49.198Z</time></trkpt><trkpt lat="43.1188236" lon="13.0559212"><ele>467.33333333333337</ele><time>2026-04-04T14:05:50.199Z</time></trkpt><trkpt lat="43.1186473" lon="13.0557741"><ele>468.0</ele><time>2026-04-04T14:05:51.198Z</time></trkpt><trkpt lat="43.1184634" lon="13.0556621"><ele>468.0</ele><time>2026-04-04T14:05:52.199Z</time></trkpt><trkpt lat="43.1182642" lon="13.0555799"><ele>468.0</ele><time>2026-04-04T14:05:53.198Z</time></trkpt><trkpt lat="43.1180616" lon="13.0555219"><ele>468.0</ele><time>2026-04-04T14:05:54.199Z</time></trkpt><trkpt lat="43.1178438" lon="13.0554903"><ele>469.0</ele><time>2026-04-04T14:05:55.198Z</time></trkpt><trkpt lat="43.117626" lon="13.0554627"><ele>470.0</ele><time>2026-04-04T14:05:56.199Z</time></trkpt><trkpt lat="43.1174132" lon="13.0554462"><ele>471.0</ele><time>2026-04-04T14:05:57.199Z</time></trkpt><trkpt lat="43.1172001" lon="13.0554336"><ele>471.66666666666663</ele><time>2026-04-04T14:05:58.199Z</time></trkpt><trkpt lat="43.1169862" lon="13.0554229"><ele>472.3333333333333</ele><time>2026-04-04T14:05:59.198Z</time></trkpt><trkpt lat="43.1167722" lon="13.0554157"><ele>473.0</ele><time>2026-04-04T14:06:00.198Z</time></trkpt><trkpt lat="43.1165617" lon="13.0553915"><ele>475.66666666666663</ele><time>2026-04-04T14:06:01.199Z</time></trkpt><trkpt lat="43.1163477" lon="13.0553398"><ele>478.33333333333337</ele><time>2026-04-04T14:06:02.199Z</time></trkpt><trkpt lat="43.1161371" lon="13.0552773"><ele>481.0</ele><time>2026-04-04T14:06:03.198Z</time></trkpt><trkpt lat="43.1159191" lon="13.0551982"><ele>485.0</ele><time>2026-04-04T14:06:04.198Z</time></trkpt><trkpt lat="43.1156834" lon="13.0550976"><ele>489.0</ele><time>2026-04-04T14:06:05.198Z</time></trkpt><trkpt lat="43.1154877" lon="13.0549964"><ele>486.66666666666663</ele><time>2026-04-04T14:06:06.199Z</time></trkpt><trkpt lat="43.115294" lon="13.0549038"><ele>484.3333333333333</ele><time>2026-04-04T14:06:07.199Z</time></trkpt><trkpt lat="43.1151051" lon="13.054808"><ele>482.0</ele><time>2026-04-04T14:06:08.198Z</time></trkpt><trkpt lat="43.1149238" lon="13.054703"><ele>485.3333333333333</ele><time>2026-04-04T14:06:09.198Z</time></trkpt><trkpt lat="43.114748" lon="13.0545744"><ele>488.66666666666663</ele><time>2026-04-04T14:06:10.198Z</time></trkpt><trkpt lat="43.1145939" lon="13.0544066"><ele>492.0</ele><time>2026-04-04T14:06:11.199Z</time></trkpt><trkpt lat="43.1144437" lon="13.0542052"><ele>491.33333333333337</ele><time>2026-04-04T14:06:12.198Z</time></trkpt><trkpt lat="43.1143161" lon="13.0539713"><ele>490.6666666666667</ele><time>2026-04-04T14:06:13.199Z</time></trkpt><trkpt lat="43.1142041" lon="13.053724"><ele>490.0</ele><time>2026-04-04T14:06:14.198Z</time></trkpt><trkpt lat="43.1140975" lon="13.0534853"><ele>492.0</ele><time>2026-04-04T14:06:15.199Z</time></trkpt><trkpt lat="43.1139996" lon="13.0532581"><ele>494.0</ele><time>2026-04-04T14:06:16.198Z</time></trkpt><trkpt lat="43.1139008" lon="13.0530445"><ele>496.0</ele><time>2026-04-04T14:06:17.198Z</time></trkpt><trkpt lat="43.1138011" lon="13.0528635"><ele>496.0</ele><time>2026-04-04T14:06:18.198Z</time></trkpt><trkpt lat="43.1136788" lon="13.0527198"><ele>496.0</ele><time>2026-04-04T14:06:19.199Z</time></trkpt><trkpt lat="43.1135261" lon="13.0526048"><ele>496.0</ele><time>2026-04-04T14:06:20.198Z</time></trkpt><trkpt lat="43.1133477" lon="13.0525151"><ele>495.6666666666667</ele><time>2026-04-04T14:06:21.198Z</time></trkpt><trkpt lat="43.1131598" lon="13.0524529"><ele>495.33333333333337</ele><time>2026-04-04T14:06:22.199Z</time></trkpt><trkpt lat="43.1129614" lon="13.0523852"><ele>495.0</ele><time>2026-04-04T14:06:23.198Z</time></trkpt><trkpt lat="43.1127669" lon="13.0522882"><ele>495.0</ele><time>2026-04-04T14:06:24.198Z</time></trkpt><trkpt lat="43.1125792" lon="13.0521891"><ele>495.0</ele><time>2026-04-04T14:06:25.198Z</time></trkpt><trkpt lat="43.1123858" lon="13.0520696"><ele>495.0</ele><time>2026-04-04T14:06:26.198Z</time></trkpt><trkpt lat="43.1121839" lon="13.0519525"><ele>497.0</ele><time>2026-04-04T14:06:27.198Z</time></trkpt><trkpt lat="43.1119866" lon="13.0518221"><ele>499.0</ele><time>2026-04-04T14:06:28.198Z</time></trkpt><trkpt lat="43.1117834" lon="13.0516927"><ele>501.0</ele><time>2026-04-04T14:06:29.199Z</time></trkpt><trkpt lat="43.1115851" lon="13.0515762"><ele>503.0</ele><time>2026-04-04T14:06:30.199Z</time></trkpt><trkpt lat="43.1113872" lon="13.0514663"><ele>505.0</ele><time>2026-04-04T14:06:31.198Z</time></trkpt><trkpt lat="43.1111878" lon="13.051355"><ele>507.0</ele><time>2026-04-04T14:06:32.198Z</time></trkpt><trkpt lat="43.1109911" lon="13.0512486"><ele>507.0</ele><time>2026-04-04T14:06:33.198Z</time></trkpt><trkpt lat="43.1107669" lon="13.0511612"><ele>507.0</ele><time>2026-04-04T14:06:34.198Z</time></trkpt><trkpt lat="43.1105479" lon="13.0510775"><ele>511.0</ele><time>2026-04-04T14:06:35.199Z</time></trkpt><trkpt lat="43.1103266" lon="13.0509955"><ele>515.0</ele><time>2026-04-04T14:06:36.199Z</time></trkpt><trkpt lat="43.1101025" lon="13.0509108"><ele>515.0</ele><time>2026-04-04T14:06:37.199Z</time></trkpt><trkpt lat="43.1098756" lon="13.0508381"><ele>515.0</ele><time>2026-04-04T14:06:38.199Z</time></trkpt><trkpt lat="43.1096543" lon="13.0507499"><ele>515.0</ele><time>2026-04-04T14:06:39.198Z</time></trkpt><trkpt lat="43.1094349" lon="13.0506628"><ele>515.0</ele><time>2026-04-04T14:06:40.198Z</time></trkpt><trkpt lat="43.1092154" lon="13.0505873"><ele>517.0</ele><time>2026-04-04T14:06:41.198Z</time></trkpt><trkpt lat="43.1090112" lon="13.0505218"><ele>519.0</ele><time>2026-04-04T14:06:42.198Z</time></trkpt><trkpt lat="43.1088239" lon="13.0504616"><ele>521.0</ele><time>2026-04-04T14:06:43.198Z</time></trkpt><trkpt lat="43.1086402" lon="13.0504077"><ele>521.0</ele><time>2026-04-04T14:06:44.199Z</time></trkpt><trkpt lat="43.1084623" lon="13.0503767"><ele>521.0</ele><time>2026-04-04T14:06:45.198Z</time></trkpt><trkpt lat="43.1082844" lon="13.0503491"><ele>521.0</ele><time>2026-04-04T14:06:46.198Z</time></trkpt><trkpt lat="43.1081111" lon="13.0503107"><ele>520.3333333333333</ele><time>2026-04-04T14:06:47.198Z</time></trkpt><trkpt lat="43.107944" lon="13.0502531"><ele>519.6666666666666</ele><time>2026-04-04T14:06:48.199Z</time></trkpt><trkpt lat="43.1078001" lon="13.0501255"><ele>519.0</ele><time>2026-04-04T14:06:49.198Z</time></trkpt><trkpt lat="43.1076829" lon="13.0499562"><ele>519.0</ele><time>2026-04-04T14:06:50.198Z</time></trkpt><trkpt lat="43.1075629" lon="13.0497727"><ele>519.0</ele><time>2026-04-04T14:06:51.198Z</time></trkpt><trkpt lat="43.1074356" lon="13.0495811"><ele>519.0</ele><time>2026-04-04T14:06:52.198Z</time></trkpt><trkpt lat="43.1073038" lon="13.0494223"><ele>520.0</ele><time>2026-04-04T14:06:53.198Z</time></trkpt><trkpt lat="43.1071615" lon="13.0492887"><ele>521.0</ele><time>2026-04-04T14:06:54.199Z</time></trkpt><trkpt lat="43.1069944" lon="13.0491819"><ele>522.0</ele><time>2026-04-04T14:06:55.198Z</time></trkpt><trkpt lat="43.1068137" lon="13.0490858"><ele>522.0</ele><time>2026-04-04T14:06:56.198Z</time></trkpt><trkpt lat="43.1066232" lon="13.049022"><ele>522.0</ele><time>2026-04-04T14:06:57.198Z</time></trkpt><trkpt lat="43.1064191" lon="13.0489865"><ele>522.0</ele><time>2026-04-04T14:06:58.198Z</time></trkpt><trkpt lat="43.1062201" lon="13.0489785"><ele>523.0</ele><time>2026-04-04T14:06:59.198Z</time></trkpt><trkpt lat="43.1060207" lon="13.0489803"><ele>524.0</ele><time>2026-04-04T14:07:00.198Z</time></trkpt><trkpt lat="43.1058197" lon="13.0489783"><ele>525.0</ele><time>2026-04-04T14:07:01.198Z</time></trkpt><trkpt lat="43.105615" lon="13.048968"><ele>528.3333333333334</ele><time>2026-04-04T14:07:02.198Z</time></trkpt><trkpt lat="43.1054098" lon="13.0489318"><ele>531.6666666666667</ele><time>2026-04-04T14:07:03.198Z</time></trkpt><trkpt lat="43.1052043" lon="13.0488546"><ele>535.0</ele><time>2026-04-04T14:07:04.198Z</time></trkpt><trkpt lat="43.1050122" lon="13.0487597"><ele>538.0</ele><time>2026-04-04T14:07:05.199Z</time></trkpt><trkpt lat="43.1048209" lon="13.0486661"><ele>541.0</ele><time>2026-04-04T14:07:06.198Z</time></trkpt><trkpt lat="43.1046206" lon="13.0485777"><ele>544.0</ele><time>2026-04-04T14:07:07.199Z</time></trkpt><trkpt lat="43.1044247" lon="13.0484917"><ele>544.0</ele><time>2026-04-04T14:07:08.199Z</time></trkpt><trkpt lat="43.1042387" lon="13.0484382"><ele>544.0</ele><time>2026-04-04T14:07:09.199Z</time></trkpt><trkpt lat="43.1040517" lon="13.0484147"><ele>544.0</ele><time>2026-04-04T14:07:10.198Z</time></trkpt><trkpt lat="43.1038581" lon="13.0484072"><ele>544.6666666666667</ele><time>2026-04-04T14:07:11.198Z</time></trkpt><trkpt lat="43.1036599" lon="13.0483859"><ele>545.3333333333334</ele><time>2026-04-04T14:07:12.198Z</time></trkpt><trkpt lat="43.1034587" lon="13.0483383"><ele>546.0</ele><time>2026-04-04T14:07:13.199Z</time></trkpt><trkpt lat="43.1032648" lon="13.0482693"><ele>547.6666666666666</ele><time>2026-04-04T14:07:14.198Z</time></trkpt><trkpt lat="43.1030707" lon="13.0481875"><ele>549.3333333333333</ele><time>2026-04-04T14:07:15.198Z</time></trkpt><trkpt lat="43.102896" lon="13.0481016"><ele>551.0</ele><time>2026-04-04T14:07:16.198Z</time></trkpt><trkpt lat="43.1027245" lon="13.0480276"><ele>551.0</ele><time>2026-04-04T14:07:17.199Z</time></trkpt><trkpt lat="43.1025625" lon="13.0479728"><ele>551.0</ele><time>2026-04-04T14:07:18.199Z</time></trkpt><trkpt lat="43.1024047" lon="13.0479466"><ele>551.0</ele><time>2026-04-04T14:07:19.198Z</time></trkpt><trkpt lat="43.102246" lon="13.0479493"><ele>556.3333333333333</ele><time>2026-04-04T14:07:20.199Z</time></trkpt><trkpt lat="43.1020852" lon="13.0479723"><ele>561.6666666666666</ele><time>2026-04-04T14:07:21.199Z</time></trkpt><trkpt lat="43.1019241" lon="13.0480179"><ele>567.0</ele><time>2026-04-04T14:07:22.198Z</time></trkpt><trkpt lat="43.101755" lon="13.0480818"><ele>567.0</ele><time>2026-04-04T14:07:23.199Z</time></trkpt><trkpt lat="43.1016013" lon="13.0481381"><ele>567.0</ele><time>2026-04-04T14:07:24.198Z</time></trkpt><trkpt lat="43.1014602" lon="13.0481884"><ele>567.0</ele><time>2026-04-04T14:07:25.198Z</time></trkpt><trkpt lat="43.1013216" lon="13.0482409"><ele>567.0</ele><time>2026-04-04T14:07:26.198Z</time></trkpt><trkpt lat="43.1011936" lon="13.0482845"><ele>565.5</ele><time>2026-04-04T14:07:27.198Z</time></trkpt><trkpt lat="43.1010746" lon="13.0483192"><ele>564.0</ele><time>2026-04-04T14:07:28.198Z</time></trkpt><trkpt lat="43.1009435" lon="13.0483308"><ele>562.5</ele><time>2026-04-04T14:07:29.199Z</time></trkpt><trkpt lat="43.1008288" lon="13.0483094"><ele>561.0</ele><time>2026-04-04T14:07:30.199Z</time></trkpt><trkpt lat="43.1007258" lon="13.0482626"><ele>561.0</ele><time>2026-04-04T14:07:31.198Z</time></trkpt><trkpt lat="43.1006153" lon="13.0482019"><ele>561.0</ele><time>2026-04-04T14:07:32.198Z</time></trkpt><trkpt lat="43.1005179" lon="13.0481407"><ele>561.0</ele><time>2026-04-04T14:07:33.198Z</time></trkpt><trkpt lat="43.1004304" lon="13.0480724"><ele>561.0</ele><time>2026-04-04T14:07:34.199Z</time></trkpt><trkpt lat="43.1003422" lon="13.0480154"><ele>561.0</ele><time>2026-04-04T14:07:35.199Z</time></trkpt><trkpt lat="43.1002706" lon="13.0479688"><ele>561.0</ele><time>2026-04-04T14:07:36.198Z</time></trkpt><trkpt lat="43.1002101" lon="13.0479209"><ele>561.0</ele><time>2026-04-04T14:07:37.198Z</time></trkpt><trkpt lat="43.1001046" lon="13.0478567"><ele>561.0</ele><time>2026-04-04T14:07:39.198Z</time></trkpt><trkpt lat="43.1000069" lon="13.0478176"><ele>561.0</ele><time>2026-04-04T14:07:41.199Z</time></trkpt><trkpt lat="43.0999276" lon="13.0477735"><ele>561.0</ele><time>2026-04-04T14:07:43.198Z</time></trkpt><trkpt lat="43.0998681" lon="13.0477188"><ele>561.0</ele><time>2026-04-04T14:07:45.198Z</time></trkpt><trkpt lat="43.0997952" lon="13.0476662"><ele>561.6</ele><time>2026-04-04T14:08:37.199Z</time></trkpt><trkpt lat="43.0996915" lon="13.0476067"><ele>562.2</ele><time>2026-04-04T14:08:39.199Z</time></trkpt><trkpt lat="43.0996278" lon="13.0475635"><ele>562.8</ele><time>2026-04-04T14:08:40.198Z</time></trkpt><trkpt lat="43.0995461" lon="13.0475066"><ele>563.4</ele><time>2026-04-04T14:08:41.199Z</time></trkpt><trkpt lat="43.0994581" lon="13.0474432"><ele>564.0</ele><time>2026-04-04T14:08:42.199Z</time></trkpt><trkpt lat="43.0993613" lon="13.047381"><ele>564.0</ele><time>2026-04-04T14:08:43.199Z</time></trkpt><trkpt lat="43.099251" lon="13.0473132"><ele>564.0</ele><time>2026-04-04T14:08:44.199Z</time></trkpt><trkpt lat="43.0991383" lon="13.0472587"><ele>564.0</ele><time>2026-04-04T14:08:45.198Z</time></trkpt><trkpt lat="43.0990244" lon="13.047219"><ele>564.0</ele><time>2026-04-04T14:08:46.199Z</time></trkpt><trkpt lat="43.0989022" lon="13.047202"><ele>562.75</ele><time>2026-04-04T14:08:47.198Z</time></trkpt><trkpt lat="43.0987737" lon="13.0472031"><ele>561.5</ele><time>2026-04-04T14:08:48.198Z</time></trkpt><trkpt lat="43.0986348" lon="13.0472251"><ele>560.25</ele><time>2026-04-04T14:08:49.198Z</time></trkpt><trkpt lat="43.0984979" lon="13.0472484"><ele>559.0</ele><time>2026-04-04T14:08:50.198Z</time></trkpt><trkpt lat="43.0983573" lon="13.0472757"><ele>558.3333333333334</ele><time>2026-04-04T14:08:51.199Z</time></trkpt><trkpt lat="43.0982133" lon="13.0473024"><ele>557.6666666666666</ele><time>2026-04-04T14:08:52.198Z</time></trkpt><trkpt lat="43.0980662" lon="13.0473347"><ele>557.0</ele><time>2026-04-04T14:08:53.198Z</time></trkpt><trkpt lat="43.0979112" lon="13.0473648"><ele>557.0</ele><time>2026-04-04T14:08:54.198Z</time></trkpt><trkpt lat="43.0977607" lon="13.0473979"><ele>557.0</ele><time>2026-04-04T14:08:55.198Z</time></trkpt><trkpt lat="43.0976014" lon="13.04743"><ele>557.0</ele><time>2026-04-04T14:08:56.198Z</time></trkpt><trkpt lat="43.0974392" lon="13.0474624"><ele>551.0</ele><time>2026-04-04T14:08:57.198Z</time></trkpt><trkpt lat="43.0972836" lon="13.0474924"><ele>545.0</ele><time>2026-04-04T14:08:58.198Z</time></trkpt><trkpt lat="43.0971314" lon="13.0475211"><ele>539.0</ele><time>2026-04-04T14:08:59.198Z</time></trkpt><trkpt lat="43.0969854" lon="13.0475494"><ele>539.0</ele><time>2026-04-04T14:09:00.199Z</time></trkpt><trkpt lat="43.0968404" lon="13.0475738"><ele>539.0</ele><time>2026-04-04T14:09:01.198Z</time></trkpt><trkpt lat="43.0967002" lon="13.0476043"><ele>539.0</ele><time>2026-04-04T14:09:02.198Z</time></trkpt><trkpt lat="43.0965641" lon="13.047646"><ele>539.0</ele><time>2026-04-04T14:09:03.199Z</time></trkpt><trkpt lat="43.0964221" lon="13.0477045"><ele>539.75</ele><time>2026-04-04T14:09:04.198Z</time></trkpt><trkpt lat="43.0963009" lon="13.0477855"><ele>540.5</ele><time>2026-04-04T14:09:05.199Z</time></trkpt><trkpt lat="43.0961956" lon="13.0478846"><ele>541.25</ele><time>2026-04-04T14:09:06.199Z</time></trkpt><trkpt lat="43.0960871" lon="13.0480023"><ele>542.0</ele><time>2026-04-04T14:09:07.198Z</time></trkpt><trkpt lat="43.0959904" lon="13.0481253"><ele>542.0</ele><time>2026-04-04T14:09:08.199Z</time></trkpt><trkpt lat="43.0959031" lon="13.0482539"><ele>542.0</ele><time>2026-04-04T14:09:09.199Z</time></trkpt><trkpt lat="43.095817" lon="13.0483858"><ele>542.0</ele><time>2026-04-04T14:09:10.198Z</time></trkpt><trkpt lat="43.0957287" lon="13.0485148"><ele>542.0</ele><time>2026-04-04T14:09:11.199Z</time></trkpt><trkpt lat="43.0956397" lon="13.0486391"><ele>538.75</ele><time>2026-04-04T14:09:12.199Z</time></trkpt><trkpt lat="43.0955526" lon="13.0487519"><ele>535.5</ele><time>2026-04-04T14:09:13.198Z</time></trkpt><trkpt lat="43.0954559" lon="13.0488529"><ele>532.25</ele><time>2026-04-04T14:09:14.198Z</time></trkpt><trkpt lat="43.0953473" lon="13.0489606"><ele>529.0</ele><time>2026-04-04T14:09:15.198Z</time></trkpt><trkpt lat="43.095221" lon="13.0490019"><ele>529.0</ele><time>2026-04-04T14:09:16.199Z</time></trkpt><trkpt lat="43.0950741" lon="13.049011"><ele>529.0</ele><time>2026-04-04T14:09:17.198Z</time></trkpt><trkpt lat="43.0949123" lon="13.0489976"><ele>529.0</ele><time>2026-04-04T14:09:18.199Z</time></trkpt><trkpt lat="43.0947398" lon="13.0489506"><ele>528.3333333333334</ele><time>2026-04-04T14:09:19.198Z</time></trkpt><trkpt lat="43.0945641" lon="13.0489251"><ele>527.6666666666666</ele><time>2026-04-04T14:09:20.199Z</time></trkpt><trkpt lat="43.0943976" lon="13.0489108"><ele>527.0</ele><time>2026-04-04T14:09:21.199Z</time></trkpt><trkpt lat="43.0942323" lon="13.0489449"><ele>527.0</ele><time>2026-04-04T14:09:22.198Z</time></trkpt><trkpt lat="43.09407" lon="13.0489993"><ele>527.0</ele><time>2026-04-04T14:09:23.198Z</time></trkpt><trkpt lat="43.093914" lon="13.0490803"><ele>527.0</ele><time>2026-04-04T14:09:24.198Z</time></trkpt><trkpt lat="43.0937714" lon="13.0491694"><ele>524.0</ele><time>2026-04-04T14:09:25.199Z</time></trkpt><trkpt lat="43.0936299" lon="13.0492518"><ele>521.0</ele><time>2026-04-04T14:09:26.198Z</time></trkpt><trkpt lat="43.093482" lon="13.0493229"><ele>518.0</ele><time>2026-04-04T14:09:27.199Z</time></trkpt><trkpt lat="43.093316" lon="13.0493841"><ele>517.0</ele><time>2026-04-04T14:09:28.198Z</time></trkpt><trkpt lat="43.0931379" lon="13.0494064"><ele>516.0</ele><time>2026-04-04T14:09:29.199Z</time></trkpt><trkpt lat="43.0929533" lon="13.0494086"><ele>515.0</ele><time>2026-04-04T14:09:30.198Z</time></trkpt><trkpt lat="43.0927596" lon="13.0493996"><ele>515.0</ele><time>2026-04-04T14:09:31.198Z</time></trkpt><trkpt lat="43.0925617" lon="13.0493818"><ele>515.0</ele><time>2026-04-04T14:09:32.198Z</time></trkpt><trkpt lat="43.0923607" lon="13.049361"><ele>515.0</ele><time>2026-04-04T14:09:33.198Z</time></trkpt><trkpt lat="43.0921637" lon="13.0493459"><ele>513.0</ele><time>2026-04-04T14:09:34.198Z</time></trkpt><trkpt lat="43.0919567" lon="13.0493178"><ele>511.0</ele><time>2026-04-04T14:09:35.199Z</time></trkpt><trkpt lat="43.0917461" lon="13.0492786"><ele>509.0</ele><time>2026-04-04T14:09:36.198Z</time></trkpt><trkpt lat="43.0915315" lon="13.0492255"><ele>507.0</ele><time>2026-04-04T14:09:37.198Z</time></trkpt><trkpt lat="43.0913202" lon="13.0491631"><ele>505.0</ele><time>2026-04-04T14:09:38.198Z</time></trkpt><trkpt lat="43.0911042" lon="13.0491023"><ele>503.0</ele><time>2026-04-04T14:09:39.198Z</time></trkpt><trkpt lat="43.0908943" lon="13.0490426"><ele>505.0</ele><time>2026-04-04T14:09:40.198Z</time></trkpt><trkpt lat="43.0906904" lon="13.0489942"><ele>507.0</ele><time>2026-04-04T14:09:41.198Z</time></trkpt><trkpt lat="43.0904922" lon="13.0489349"><ele>509.0</ele><time>2026-04-04T14:09:42.199Z</time></trkpt><trkpt lat="43.0903088" lon="13.0488813"><ele>509.0</ele><time>2026-04-04T14:09:43.198Z</time></trkpt><trkpt lat="43.0901318" lon="13.0488231"><ele>509.0</ele><time>2026-04-04T14:09:44.199Z</time></trkpt><trkpt lat="43.0899721" lon="13.0487638"><ele>509.0</ele><time>2026-04-04T14:09:45.199Z</time></trkpt><trkpt lat="43.0898175" lon="13.0486831"><ele>503.0</ele><time>2026-04-04T14:09:46.199Z</time></trkpt><trkpt lat="43.0896817" lon="13.0485823"><ele>497.0</ele><time>2026-04-04T14:09:47.199Z</time></trkpt><trkpt lat="43.089564" lon="13.0484649"><ele>491.0</ele><time>2026-04-04T14:09:48.198Z</time></trkpt><trkpt lat="43.089456" lon="13.04831"><ele>494.0</ele><time>2026-04-04T14:09:49.198Z</time></trkpt><trkpt lat="43.0893602" lon="13.0481168"><ele>497.0</ele><time>2026-04-04T14:09:50.198Z</time></trkpt><trkpt lat="43.0892574" lon="13.0479144"><ele>500.0</ele><time>2026-04-04T14:09:51.199Z</time></trkpt><trkpt lat="43.0891595" lon="13.0477144"><ele>496.3333333333333</ele><time>2026-04-04T14:09:52.198Z</time></trkpt><trkpt lat="43.0890621" lon="13.0475331"><ele>492.66666666666663</ele><time>2026-04-04T14:09:53.198Z</time></trkpt><trkpt lat="43.0889536" lon="13.0473663"><ele>489.0</ele><time>2026-04-04T14:09:54.198Z</time></trkpt><trkpt lat="43.0888404" lon="13.0472277"><ele>489.0</ele><time>2026-04-04T14:09:55.198Z</time></trkpt><trkpt lat="43.088725" lon="13.0471069"><ele>489.0</ele><time>2026-04-04T14:09:56.199Z</time></trkpt><trkpt lat="43.0886199" lon="13.0469822"><ele>489.0</ele><time>2026-04-04T14:09:57.198Z</time></trkpt><trkpt lat="43.0885296" lon="13.0468323"><ele>489.0</ele><time>2026-04-04T14:09:58.198Z</time></trkpt><trkpt lat="43.088455" lon="13.0466672"><ele>489.0</ele><time>2026-04-04T14:09:59.198Z</time></trkpt><trkpt lat="43.0883814" lon="13.0465104"><ele>489.0</ele><time>2026-04-04T14:10:00.198Z</time></trkpt><trkpt lat="43.0882891" lon="13.0463858"><ele>489.0</ele><time>2026-04-04T14:10:01.199Z</time></trkpt><trkpt lat="43.0881776" lon="13.0462868"><ele>489.0</ele><time>2026-04-04T14:10:02.199Z</time></trkpt><trkpt lat="43.0880446" lon="13.0462311"><ele>489.0</ele><time>2026-04-04T14:10:03.199Z</time></trkpt><trkpt lat="43.0879035" lon="13.0461958"><ele>489.0</ele><time>2026-04-04T14:10:04.199Z</time></trkpt><trkpt lat="43.0877724" lon="13.0461695"><ele>489.0</ele><time>2026-04-04T14:10:05.199Z</time></trkpt><trkpt lat="43.0876394" lon="13.0461218"><ele>489.0</ele><time>2026-04-04T14:10:06.198Z</time></trkpt><trkpt lat="43.0875159" lon="13.0460401"><ele>487.0</ele><time>2026-04-04T14:10:07.198Z</time></trkpt><trkpt lat="43.0873858" lon="13.0459282"><ele>485.0</ele><time>2026-04-04T14:10:08.198Z</time></trkpt><trkpt lat="43.0872547" lon="13.045798"><ele>483.0</ele><time>2026-04-04T14:10:09.198Z</time></trkpt><trkpt lat="43.087111" lon="13.0456619"><ele>483.0</ele><time>2026-04-04T14:10:10.199Z</time></trkpt><trkpt lat="43.0869686" lon="13.0455268"><ele>483.0</ele><time>2026-04-04T14:10:11.198Z</time></trkpt><trkpt lat="43.0868255" lon="13.0453896"><ele>483.0</ele><time>2026-04-04T14:10:12.198Z</time></trkpt><trkpt lat="43.0866822" lon="13.0452675"><ele>480.33333333333337</ele><time>2026-04-04T14:10:13.198Z</time></trkpt><trkpt lat="43.0865247" lon="13.0451633"><ele>477.6666666666667</ele><time>2026-04-04T14:10:14.198Z</time></trkpt><trkpt lat="43.0863646" lon="13.0450818"><ele>475.0</ele><time>2026-04-04T14:10:15.198Z</time></trkpt><trkpt lat="43.0862021" lon="13.0450247"><ele>475.6666666666667</ele><time>2026-04-04T14:10:16.198Z</time></trkpt><trkpt lat="43.0860376" lon="13.0449594"><ele>476.33333333333337</ele><time>2026-04-04T14:10:17.198Z</time></trkpt><trkpt lat="43.0858807" lon="13.0448918"><ele>477.0</ele><time>2026-04-04T14:10:18.198Z</time></trkpt><trkpt lat="43.0857251" lon="13.0448214"><ele>475.5</ele><time>2026-04-04T14:10:19.198Z</time></trkpt><trkpt lat="43.0855752" lon="13.0447558"><ele>474.0</ele><time>2026-04-04T14:10:20.199Z</time></trkpt><trkpt lat="43.0854351" lon="13.044688"><ele>472.5</ele><time>2026-04-04T14:10:21.198Z</time></trkpt><trkpt lat="43.0853027" lon="13.0446133"><ele>471.0</ele><time>2026-04-04T14:10:22.198Z</time></trkpt><trkpt lat="43.0851747" lon="13.0445417"><ele>471.0</ele><time>2026-04-04T14:10:23.199Z</time></trkpt><trkpt lat="43.0850498" lon="13.0444535"><ele>471.0</ele><time>2026-04-04T14:10:24.198Z</time></trkpt><trkpt lat="43.0849286" lon="13.0443505"><ele>471.0</ele><time>2026-04-04T14:10:25.199Z</time></trkpt><trkpt lat="43.0848039" lon="13.0442531"><ele>471.0</ele><time>2026-04-04T14:10:26.198Z</time></trkpt><trkpt lat="43.0846897" lon="13.0441513"><ele>470.5</ele><time>2026-04-04T14:10:27.198Z</time></trkpt><trkpt lat="43.0845822" lon="13.0440547"><ele>470.0</ele><time>2026-04-04T14:10:28.198Z</time></trkpt><trkpt lat="43.0844774" lon="13.0439734"><ele>469.5</ele><time>2026-04-04T14:10:29.198Z</time></trkpt><trkpt lat="43.0843578" lon="13.0439109"><ele>469.0</ele><time>2026-04-04T14:10:30.199Z</time></trkpt><trkpt lat="43.0842286" lon="13.0438719"><ele>467.75</ele><time>2026-04-04T14:10:31.198Z</time></trkpt><trkpt lat="43.0840924" lon="13.0438346"><ele>466.5</ele><time>2026-04-04T14:10:32.198Z</time></trkpt><trkpt lat="43.0839505" lon="13.0438115"><ele>465.25</ele><time>2026-04-04T14:10:33.199Z</time></trkpt><trkpt lat="43.0838064" lon="13.043789"><ele>464.0</ele><time>2026-04-04T14:10:34.199Z</time></trkpt><trkpt lat="43.0836612" lon="13.0437739"><ele>464.0</ele><time>2026-04-04T14:10:35.198Z</time></trkpt><trkpt lat="43.0835186" lon="13.0437419"><ele>464.0</ele><time>2026-04-04T14:10:36.199Z</time></trkpt><trkpt lat="43.0833857" lon="13.0437298"><ele>464.0</ele><time>2026-04-04T14:10:37.198Z</time></trkpt><trkpt lat="43.0832539" lon="13.0437157"><ele>464.0</ele><time>2026-04-04T14:10:38.198Z</time></trkpt><trkpt lat="43.0831348" lon="13.0437036"><ele>463.0</ele><time>2026-04-04T14:10:39.199Z</time></trkpt><trkpt lat="43.0830173" lon="13.0436909"><ele>462.0</ele><time>2026-04-04T14:10:40.199Z</time></trkpt><trkpt lat="43.082896" lon="13.0436823"><ele>461.0</ele><time>2026-04-04T14:10:41.199Z</time></trkpt><trkpt lat="43.0827788" lon="13.0436769"><ele>460.0</ele><time>2026-04-04T14:10:42.198Z</time></trkpt><trkpt lat="43.0826636" lon="13.0436668"><ele>460.0</ele><time>2026-04-04T14:10:43.198Z</time></trkpt><trkpt lat="43.082567" lon="13.0436522"><ele>460.0</ele><time>2026-04-04T14:10:44.198Z</time></trkpt><trkpt lat="43.0824654" lon="13.0436374"><ele>460.0</ele><time>2026-04-04T14:10:45.198Z</time></trkpt><trkpt lat="43.0823626" lon="13.0436008"><ele>460.0</ele><time>2026-04-04T14:10:46.199Z</time></trkpt><trkpt lat="43.0822655" lon="13.0435527"><ele>460.0</ele><time>2026-04-04T14:10:47.199Z</time></trkpt><trkpt lat="43.0821681" lon="13.0435131"><ele>459.4</ele><time>2026-04-04T14:10:48.199Z</time></trkpt><trkpt lat="43.0820719" lon="13.0435077"><ele>458.8</ele><time>2026-04-04T14:10:49.198Z</time></trkpt><trkpt lat="43.0819828" lon="13.0434999"><ele>458.20000000000005</ele><time>2026-04-04T14:10:50.198Z</time></trkpt><trkpt lat="43.0818945" lon="13.0435055"><ele>457.6</ele><time>2026-04-04T14:10:51.199Z</time></trkpt><trkpt lat="43.0818006" lon="13.0435199"><ele>457.0</ele><time>2026-04-04T14:10:52.199Z</time></trkpt><trkpt lat="43.0817025" lon="13.0435362"><ele>457.0</ele><time>2026-04-04T14:10:53.198Z</time></trkpt><trkpt lat="43.0816004" lon="13.0435478"><ele>457.00000000000006</ele><time>2026-04-04T14:10:54.198Z</time></trkpt><trkpt lat="43.0815024" lon="13.0435645"><ele>457.00000000000006</ele><time>2026-04-04T14:10:55.198Z</time></trkpt><trkpt lat="43.0813952" lon="13.0435778"><ele>457.0</ele><time>2026-04-04T14:10:56.198Z</time></trkpt><trkpt lat="43.0812854" lon="13.0435921"><ele>457.0</ele><time>2026-04-04T14:10:57.198Z</time></trkpt><trkpt lat="43.0811713" lon="13.043613"><ele>456.50000000000006</ele><time>2026-04-04T14:10:58.199Z</time></trkpt><trkpt lat="43.0810673" lon="13.0436306"><ele>456.0</ele><time>2026-04-04T14:10:59.198Z</time></trkpt><trkpt lat="43.0809969" lon="13.0436404"><ele>455.5</ele><time>2026-04-04T14:11:00.198Z</time></trkpt><trkpt lat="43.0808876" lon="13.0436478"><ele>455.0</ele><time>2026-04-04T14:11:02.198Z</time></trkpt><trkpt lat="43.0808134" lon="13.0436555"><ele>454.50000000000006</ele><time>2026-04-04T14:11:04.199Z</time></trkpt><trkpt lat="43.0807574" lon="13.0437222"><ele>454.0</ele><time>2026-04-04T14:11:06.199Z</time></trkpt><trkpt lat="43.0807382" lon="13.0438043"><ele>454.0</ele><time>2026-04-04T14:11:07.198Z</time></trkpt><trkpt lat="43.080724" lon="13.043921"><ele>454.0</ele><time>2026-04-04T14:11:08.198Z</time></trkpt><trkpt lat="43.0807361" lon="13.0440486"><ele>454.0</ele><time>2026-04-04T14:11:09.198Z</time></trkpt><trkpt lat="43.0807468" lon="13.0442039"><ele>454.0</ele><time>2026-04-04T14:11:10.199Z</time></trkpt><trkpt lat="43.0807586" lon="13.0443765"><ele>454.0</ele><time>2026-04-04T14:11:11.198Z</time></trkpt><trkpt lat="43.0807667" lon="13.0445625"><ele>454.0</ele><time>2026-04-04T14:11:12.199Z</time></trkpt><trkpt lat="43.0807757" lon="13.044751"><ele>454.0</ele><time>2026-04-04T14:11:13.198Z</time></trkpt><trkpt lat="43.080787" lon="13.0449463"><ele>454.0</ele><time>2026-04-04T14:11:14.199Z</time></trkpt><trkpt lat="43.0807954" lon="13.0451413"><ele>454.0</ele><time>2026-04-04T14:11:15.198Z</time></trkpt><trkpt lat="43.0808018" lon="13.0453339"><ele>453.75</ele><time>2026-04-04T14:11:16.198Z</time></trkpt><trkpt lat="43.0808092" lon="13.0455315"><ele>453.5</ele><time>2026-04-04T14:11:17.198Z</time></trkpt><trkpt lat="43.0808173" lon="13.0457217"><ele>453.25</ele><time>2026-04-04T14:11:18.199Z</time></trkpt><trkpt lat="43.0808256" lon="13.0459121"><ele>453.0</ele><time>2026-04-04T14:11:19.198Z</time></trkpt><trkpt lat="43.080833" lon="13.0460972"><ele>452.5</ele><time>2026-04-04T14:11:20.198Z</time></trkpt><trkpt lat="43.080843" lon="13.0462828"><ele>452.0</ele><time>2026-04-04T14:11:21.198Z</time></trkpt><trkpt lat="43.0808506" lon="13.0464697"><ele>451.5</ele><time>2026-04-04T14:11:22.198Z</time></trkpt><trkpt lat="43.0808575" lon="13.0466577"><ele>451.0</ele><time>2026-04-04T14:11:23.198Z</time></trkpt><trkpt lat="43.0808594" lon="13.0468531"><ele>451.0</ele><time>2026-04-04T14:11:24.198Z</time></trkpt><trkpt lat="43.0808556" lon="13.0470575"><ele>451.0</ele><time>2026-04-04T14:11:25.198Z</time></trkpt><trkpt lat="43.0808557" lon="13.0472859"><ele>451.0</ele><time>2026-04-04T14:11:26.199Z</time></trkpt><trkpt lat="43.080847" lon="13.0475243"><ele>451.0</ele><time>2026-04-04T14:11:27.199Z</time></trkpt><trkpt lat="43.0808317" lon="13.0477705"><ele>451.0</ele><time>2026-04-04T14:11:28.199Z</time></trkpt><trkpt lat="43.0808052" lon="13.0480501"><ele>451.0</ele><time>2026-04-04T14:11:29.198Z</time></trkpt><trkpt lat="43.0807664" lon="13.0483361"><ele>450.33333333333337</ele><time>2026-04-04T14:11:30.198Z</time></trkpt><trkpt lat="43.080722" lon="13.0486126"><ele>449.66666666666663</ele><time>2026-04-04T14:11:31.198Z</time></trkpt><trkpt lat="43.0806836" lon="13.0488718"><ele>449.0</ele><time>2026-04-04T14:11:32.199Z</time></trkpt><trkpt lat="43.0806423" lon="13.0491223"><ele>448.3333333333333</ele><time>2026-04-04T14:11:33.199Z</time></trkpt><trkpt lat="43.0806072" lon="13.0493445"><ele>447.66666666666663</ele><time>2026-04-04T14:11:34.198Z</time></trkpt><trkpt lat="43.0805746" lon="13.049554"><ele>447.0</ele><time>2026-04-04T14:11:35.198Z</time></trkpt><trkpt lat="43.08055" lon="13.0497531"><ele>447.0</ele><time>2026-04-04T14:11:36.198Z</time></trkpt><trkpt lat="43.0805264" lon="13.0499458"><ele>447.0</ele><time>2026-04-04T14:11:37.198Z</time></trkpt><trkpt lat="43.0804934" lon="13.0501502"><ele>447.0</ele><time>2026-04-04T14:11:38.198Z</time></trkpt><trkpt lat="43.0804391" lon="13.0503538"><ele>447.0</ele><time>2026-04-04T14:11:39.198Z</time></trkpt><trkpt lat="43.0803606" lon="13.0505564"><ele>447.0</ele><time>2026-04-04T14:11:40.199Z</time></trkpt><trkpt lat="43.080259" lon="13.0507522"><ele>447.0</ele><time>2026-04-04T14:11:41.198Z</time></trkpt><trkpt lat="43.0801527" lon="13.0509513"><ele>447.66666666666663</ele><time>2026-04-04T14:11:42.199Z</time></trkpt><trkpt lat="43.0800389" lon="13.051151"><ele>448.3333333333333</ele><time>2026-04-04T14:11:43.198Z</time></trkpt><trkpt lat="43.0799019" lon="13.0513697"><ele>449.0</ele><time>2026-04-04T14:11:44.198Z</time></trkpt><trkpt lat="43.0797564" lon="13.0516212"><ele>446.5</ele><time>2026-04-04T14:11:45.198Z</time></trkpt><trkpt lat="43.0795922" lon="13.0518951"><ele>444.0</ele><time>2026-04-04T14:11:46.199Z</time></trkpt><trkpt lat="43.0794139" lon="13.0521804"><ele>445.0</ele><time>2026-04-04T14:11:47.198Z</time></trkpt><trkpt lat="43.0792317" lon="13.0524613"><ele>446.0</ele><time>2026-04-04T14:11:48.198Z</time></trkpt><trkpt lat="43.079054" lon="13.0527273"><ele>443.0</ele><time>2026-04-04T14:11:49.198Z</time></trkpt><trkpt lat="43.0788809" lon="13.0529904"><ele>440.0</ele><time>2026-04-04T14:11:50.199Z</time></trkpt><trkpt lat="43.078716" lon="13.0532433"><ele>440.5</ele><time>2026-04-04T14:11:51.198Z</time></trkpt><trkpt lat="43.0785614" lon="13.0534874"><ele>441.0</ele><time>2026-04-04T14:11:52.198Z</time></trkpt><trkpt lat="43.0784156" lon="13.053722"><ele>441.0</ele><time>2026-04-04T14:11:53.199Z</time></trkpt><trkpt lat="43.0782933" lon="13.05393"><ele>441.0</ele><time>2026-04-04T14:11:54.199Z</time></trkpt><trkpt lat="43.0781768" lon="13.0541183"><ele>441.0</ele><time>2026-04-04T14:11:55.198Z</time></trkpt><trkpt lat="43.0780567" lon="13.0542974"><ele>440.66666666666663</ele><time>2026-04-04T14:11:56.198Z</time></trkpt><trkpt lat="43.0779367" lon="13.0544911"><ele>440.3333333333333</ele><time>2026-04-04T14:11:57.198Z</time></trkpt><trkpt lat="43.0778104" lon="13.0546883"><ele>440.0</ele><time>2026-04-04T14:11:58.199Z</time></trkpt><trkpt lat="43.0776813" lon="13.0548867"><ele>440.0</ele><time>2026-04-04T14:11:59.199Z</time></trkpt><trkpt lat="43.077555" lon="13.0550843"><ele>440.0</ele><time>2026-04-04T14:12:00.198Z</time></trkpt><trkpt lat="43.077435" lon="13.0552861"><ele>440.0</ele><time>2026-04-04T14:12:01.199Z</time></trkpt><trkpt lat="43.0773256" lon="13.0554921"><ele>440.0</ele><time>2026-04-04T14:12:02.199Z</time></trkpt><trkpt lat="43.0772263" lon="13.0557087"><ele>440.0</ele><time>2026-04-04T14:12:03.199Z</time></trkpt><trkpt lat="43.0771313" lon="13.0559313"><ele>440.0</ele><time>2026-04-04T14:12:04.198Z</time></trkpt><trkpt lat="43.0770346" lon="13.0561588"><ele>439.0</ele><time>2026-04-04T14:12:05.198Z</time></trkpt><trkpt lat="43.0769503" lon="13.0563868"><ele>438.0</ele><time>2026-04-04T14:12:06.198Z</time></trkpt><trkpt lat="43.0768639" lon="13.0566085"><ele>437.0</ele><time>2026-04-04T14:12:07.198Z</time></trkpt><trkpt lat="43.0767723" lon="13.0568341"><ele>437.0</ele><time>2026-04-04T14:12:08.198Z</time></trkpt><trkpt lat="43.0766882" lon="13.0570719"><ele>437.0</ele><time>2026-04-04T14:12:09.198Z</time></trkpt><trkpt lat="43.0766148" lon="13.0573152"><ele>437.0</ele><time>2026-04-04T14:12:10.198Z</time></trkpt><trkpt lat="43.0765465" lon="13.0575759"><ele>436.3333333333333</ele><time>2026-04-04T14:12:11.198Z</time></trkpt><trkpt lat="43.0764944" lon="13.057826"><ele>435.66666666666663</ele><time>2026-04-04T14:12:12.199Z</time></trkpt><trkpt lat="43.0764275" lon="13.0580927"><ele>435.0</ele><time>2026-04-04T14:12:13.198Z</time></trkpt><trkpt lat="43.0763625" lon="13.0583524"><ele>435.0</ele><time>2026-04-04T14:12:14.198Z</time></trkpt><trkpt lat="43.0762958" lon="13.0586034"><ele>435.0</ele><time>2026-04-04T14:12:15.198Z</time></trkpt><trkpt lat="43.076232" lon="13.0588489"><ele>435.0</ele><time>2026-04-04T14:12:16.198Z</time></trkpt><trkpt lat="43.0761767" lon="13.0591097"><ele>435.66666666666663</ele><time>2026-04-04T14:12:17.198Z</time></trkpt><trkpt lat="43.0761199" lon="13.0593672"><ele>436.3333333333333</ele><time>2026-04-04T14:12:18.199Z</time></trkpt><trkpt lat="43.07606" lon="13.0596324"><ele>437.0</ele><time>2026-04-04T14:12:19.198Z</time></trkpt><trkpt lat="43.0759927" lon="13.0598801"><ele>437.0</ele><time>2026-04-04T14:12:20.198Z</time></trkpt><trkpt lat="43.0759325" lon="13.0601175"><ele>437.0</ele><time>2026-04-04T14:12:21.198Z</time></trkpt><trkpt lat="43.0758689" lon="13.0603596"><ele>437.0</ele><time>2026-04-04T14:12:22.198Z</time></trkpt><trkpt lat="43.0758117" lon="13.0605886"><ele>435.0</ele><time>2026-04-04T14:12:23.199Z</time></trkpt><trkpt lat="43.0757579" lon="13.0608118"><ele>433.0</ele><time>2026-04-04T14:12:24.198Z</time></trkpt><trkpt lat="43.0757041" lon="13.061036"><ele>431.0</ele><time>2026-04-04T14:12:25.199Z</time></trkpt><trkpt lat="43.0756636" lon="13.0612556"><ele>431.0</ele><time>2026-04-04T14:12:26.198Z</time></trkpt><trkpt lat="43.0756356" lon="13.0614736"><ele>431.0</ele><time>2026-04-04T14:12:27.199Z</time></trkpt><trkpt lat="43.0756209" lon="13.0616933"><ele>431.0</ele><time>2026-04-04T14:12:28.198Z</time></trkpt><trkpt lat="43.0756145" lon="13.0619228"><ele>430.66666666666663</ele><time>2026-04-04T14:12:29.198Z</time></trkpt><trkpt lat="43.0756128" lon="13.0621497"><ele>430.33333333333337</ele><time>2026-04-04T14:12:30.199Z</time></trkpt><trkpt lat="43.0756196" lon="13.062378"><ele>430.0</ele><time>2026-04-04T14:12:31.198Z</time></trkpt><trkpt lat="43.0756254" lon="13.0625909"><ele>429.75</ele><time>2026-04-04T14:12:32.198Z</time></trkpt><trkpt lat="43.075634" lon="13.062794"><ele>429.5</ele><time>2026-04-04T14:12:33.199Z</time></trkpt><trkpt lat="43.0756477" lon="13.0629903"><ele>429.25</ele><time>2026-04-04T14:12:34.198Z</time></trkpt><trkpt lat="43.0756642" lon="13.0631705"><ele>429.0</ele><time>2026-04-04T14:12:35.199Z</time></trkpt><trkpt lat="43.0756644" lon="13.0633249"><ele>428.8333333333333</ele><time>2026-04-04T14:12:36.199Z</time></trkpt><trkpt lat="43.0756728" lon="13.0634694"><ele>428.66666666666663</ele><time>2026-04-04T14:12:37.199Z</time></trkpt><trkpt lat="43.0756757" lon="13.0635868"><ele>428.5</ele><time>2026-04-04T14:12:38.198Z</time></trkpt><trkpt lat="43.0756558" lon="13.0636906"><ele>428.3333333333333</ele><time>2026-04-04T14:12:39.198Z</time></trkpt><trkpt lat="43.0755905" lon="13.0637719"><ele>428.16666666666663</ele><time>2026-04-04T14:12:40.198Z</time></trkpt><trkpt lat="43.0755199" lon="13.0638342"><ele>428.0</ele><time>2026-04-04T14:12:41.198Z</time></trkpt><trkpt lat="43.0754449" lon="13.0638727"><ele>428.0</ele><time>2026-04-04T14:12:42.198Z</time></trkpt><trkpt lat="43.0753329" lon="13.0638814"><ele>428.0</ele><time>2026-04-04T14:12:43.198Z</time></trkpt><trkpt lat="43.0752095" lon="13.0638858"><ele>428.0</ele><time>2026-04-04T14:12:44.198Z</time></trkpt><trkpt lat="43.0750806" lon="13.063893"><ele>428.0</ele><time>2026-04-04T14:12:45.198Z</time></trkpt><trkpt lat="43.0749586" lon="13.0639032"><ele>428.0</ele><time>2026-04-04T14:12:46.198Z</time></trkpt><trkpt lat="43.0748311" lon="13.0639097"><ele>428.0</ele><time>2026-04-04T14:12:47.199Z</time></trkpt><trkpt lat="43.0747132" lon="13.0639199"><ele>428.0</ele><time>2026-04-04T14:12:48.199Z</time></trkpt><trkpt lat="43.0745931" lon="13.0639307"><ele>428.0</ele><time>2026-04-04T14:12:49.198Z</time></trkpt><trkpt lat="43.0744858" lon="13.0639295"><ele>427.99999999999994</ele><time>2026-04-04T14:12:50.198Z</time></trkpt><trkpt lat="43.0743892" lon="13.0638968"><ele>428.0</ele><time>2026-04-04T14:12:51.198Z</time></trkpt><trkpt lat="43.0743161" lon="13.063845"><ele>428.0</ele><time>2026-04-04T14:12:52.198Z</time></trkpt><trkpt lat="43.0742412" lon="13.0637945"><ele>428.0</ele><time>2026-04-04T14:12:53.198Z</time></trkpt><trkpt lat="43.0741772" lon="13.0637438"><ele>427.99999999999994</ele><time>2026-04-04T14:12:54.198Z</time></trkpt><trkpt lat="43.0741227" lon="13.0636726"><ele>428.0</ele><time>2026-04-04T14:12:55.198Z</time></trkpt><trkpt lat="43.0740527" lon="13.0636243"><ele>429.16666666666663</ele><time>2026-04-04T14:12:56.198Z</time></trkpt><trkpt lat="43.0739306" lon="13.0636412"><ele>430.3333333333333</ele><time>2026-04-04T14:12:58.199Z</time></trkpt><trkpt lat="43.0738827" lon="13.0637013"><ele>431.5</ele><time>2026-04-04T14:12:59.199Z</time></trkpt><trkpt lat="43.0738372" lon="13.0637748"><ele>432.66666666666663</ele><time>2026-04-04T14:13:00.198Z</time></trkpt><trkpt lat="43.073788" lon="13.0638646"><ele>433.8333333333333</ele><time>2026-04-04T14:13:01.198Z</time></trkpt><trkpt lat="43.0737235" lon="13.0639407"><ele>435.0</ele><time>2026-04-04T14:13:02.199Z</time></trkpt><trkpt lat="43.0736481" lon="13.0639898"><ele>435.0</ele><time>2026-04-04T14:13:03.198Z</time></trkpt><trkpt lat="43.073562" lon="13.0640265"><ele>435.0</ele><time>2026-04-04T14:13:04.199Z</time></trkpt><trkpt lat="43.0734516" lon="13.0640532"><ele>435.0</ele><time>2026-04-04T14:13:05.198Z</time></trkpt><trkpt lat="43.0733028" lon="13.064067"><ele>435.0</ele><time>2026-04-04T14:13:06.199Z</time></trkpt><trkpt lat="43.0731136" lon="13.0640717"><ele>437.0</ele><time>2026-04-04T14:13:07.198Z</time></trkpt><trkpt lat="43.0729015" lon="13.0640823"><ele>439.0</ele><time>2026-04-04T14:13:08.198Z</time></trkpt><trkpt lat="43.0726529" lon="13.0640637"><ele>438.0</ele><time>2026-04-04T14:13:09.198Z</time></trkpt><trkpt lat="43.0723925" lon="13.064024"><ele>437.0</ele><time>2026-04-04T14:13:10.199Z</time></trkpt><trkpt lat="43.0721176" lon="13.063985"><ele>437.0</ele><time>2026-04-04T14:13:11.199Z</time></trkpt><trkpt lat="43.0718411" lon="13.0639485"><ele>437.0</ele><time>2026-04-04T14:13:12.198Z</time></trkpt><trkpt lat="43.0715818" lon="13.063904"><ele>437.5</ele><time>2026-04-04T14:13:13.198Z</time></trkpt><trkpt lat="43.0713347" lon="13.0638633"><ele>438.0</ele><time>2026-04-04T14:13:14.198Z</time></trkpt><trkpt lat="43.0710985" lon="13.0638212"><ele>438.0</ele><time>2026-04-04T14:13:15.198Z</time></trkpt><trkpt lat="43.0708648" lon="13.063772"><ele>438.0</ele><time>2026-04-04T14:13:16.199Z</time></trkpt><trkpt lat="43.070635" lon="13.063725"><ele>434.0</ele><time>2026-04-04T14:13:17.198Z</time></trkpt><trkpt lat="43.0704022" lon="13.0636809"><ele>430.0</ele><time>2026-04-04T14:13:18.198Z</time></trkpt><trkpt lat="43.0701665" lon="13.0636392"><ele>431.5</ele><time>2026-04-04T14:13:19.199Z</time></trkpt><trkpt lat="43.0699343" lon="13.0635904"><ele>433.0</ele><time>2026-04-04T14:13:20.199Z</time></trkpt><trkpt lat="43.0696944" lon="13.063531"><ele>433.0</ele><time>2026-04-04T14:13:21.198Z</time></trkpt><trkpt lat="43.0694632" lon="13.0634859"><ele>433.0</ele><time>2026-04-04T14:13:22.198Z</time></trkpt><trkpt lat="43.0692274" lon="13.0634407"><ele>433.0</ele><time>2026-04-04T14:13:23.198Z</time></trkpt><trkpt lat="43.0689894" lon="13.0633925"><ele>433.0</ele><time>2026-04-04T14:13:24.198Z</time></trkpt><trkpt lat="43.0687552" lon="13.0633473"><ele>433.0</ele><time>2026-04-04T14:13:25.198Z</time></trkpt><trkpt lat="43.0685198" lon="13.0633041"><ele>433.0</ele><time>2026-04-04T14:13:26.198Z</time></trkpt><trkpt lat="43.0682861" lon="13.0632563"><ele>437.0</ele><time>2026-04-04T14:13:27.198Z</time></trkpt><trkpt lat="43.068052" lon="13.0632186"><ele>441.0</ele><time>2026-04-04T14:13:28.198Z</time></trkpt><trkpt lat="43.06781" lon="13.063167"><ele>441.0</ele><time>2026-04-04T14:13:29.198Z</time></trkpt><trkpt lat="43.0675688" lon="13.0631145"><ele>441.0</ele><time>2026-04-04T14:13:30.199Z</time></trkpt><trkpt lat="43.0673314" lon="13.0630643"><ele>444.0</ele><time>2026-04-04T14:13:31.198Z</time></trkpt><trkpt lat="43.0670907" lon="13.0630152"><ele>447.0</ele><time>2026-04-04T14:13:32.198Z</time></trkpt><trkpt lat="43.0668511" lon="13.0629623"><ele>447.0</ele><time>2026-04-04T14:13:33.198Z</time></trkpt><trkpt lat="43.0666107" lon="13.0629121"><ele>447.0</ele><time>2026-04-04T14:13:34.198Z</time></trkpt><trkpt lat="43.0663711" lon="13.0628611"><ele>447.0</ele><time>2026-04-04T14:13:35.198Z</time></trkpt><trkpt lat="43.0661316" lon="13.0628104"><ele>447.0</ele><time>2026-04-04T14:13:36.198Z</time></trkpt><trkpt lat="43.0658969" lon="13.062764"><ele>444.0</ele><time>2026-04-04T14:13:37.198Z</time></trkpt><trkpt lat="43.0656683" lon="13.0627143"><ele>441.0</ele><time>2026-04-04T14:13:38.199Z</time></trkpt><trkpt lat="43.0654307" lon="13.0626615"><ele>441.0</ele><time>2026-04-04T14:13:39.198Z</time></trkpt><trkpt lat="43.0651918" lon="13.0626086"><ele>441.0</ele><time>2026-04-04T14:13:40.198Z</time></trkpt><trkpt lat="43.064941" lon="13.0625724"><ele>441.0</ele><time>2026-04-04T14:13:41.198Z</time></trkpt><trkpt lat="43.0647067" lon="13.0625328"><ele>441.0</ele><time>2026-04-04T14:13:42.198Z</time></trkpt><trkpt lat="43.0644737" lon="13.0624864"><ele>442.0</ele><time>2026-04-04T14:13:43.198Z</time></trkpt><trkpt lat="43.0642265" lon="13.0624418"><ele>443.0</ele><time>2026-04-04T14:13:44.198Z</time></trkpt><trkpt lat="43.0639942" lon="13.062402"><ele>444.0</ele><time>2026-04-04T14:13:45.199Z</time></trkpt><trkpt lat="43.0637555" lon="13.0623449"><ele>445.0</ele><time>2026-04-04T14:13:46.198Z</time></trkpt><trkpt lat="43.0635183" lon="13.0622979"><ele>445.0</ele><time>2026-04-04T14:13:47.199Z</time></trkpt><trkpt lat="43.0632821" lon="13.0622626"><ele>445.0</ele><time>2026-04-04T14:13:48.198Z</time></trkpt><trkpt lat="43.0630491" lon="13.0622122"><ele>445.0</ele><time>2026-04-04T14:13:49.199Z</time></trkpt><trkpt lat="43.0628145" lon="13.0621657"><ele>445.0</ele><time>2026-04-04T14:13:50.198Z</time></trkpt><trkpt lat="43.0625807" lon="13.0621191"><ele>446.0</ele><time>2026-04-04T14:13:51.198Z</time></trkpt><trkpt lat="43.0623516" lon="13.0620727"><ele>447.0</ele><time>2026-04-04T14:13:52.198Z</time></trkpt><trkpt lat="43.0621236" lon="13.0620261"><ele>447.0</ele><time>2026-04-04T14:13:53.199Z</time></trkpt><trkpt lat="43.0618883" lon="13.0619743"><ele>447.0</ele><time>2026-04-04T14:13:54.198Z</time></trkpt><trkpt lat="43.0616546" lon="13.0619174"><ele>447.5</ele><time>2026-04-04T14:13:55.198Z</time></trkpt><trkpt lat="43.0614233" lon="13.0618729"><ele>448.0</ele><time>2026-04-04T14:13:56.198Z</time></trkpt><trkpt lat="43.0611859" lon="13.0618229"><ele>448.0</ele><time>2026-04-04T14:13:57.199Z</time></trkpt><trkpt lat="43.0609535" lon="13.0617757"><ele>448.0</ele><time>2026-04-04T14:13:58.199Z</time></trkpt><trkpt lat="43.0607145" lon="13.0617252"><ele>447.5</ele><time>2026-04-04T14:13:59.198Z</time></trkpt><trkpt lat="43.060484" lon="13.0616817"><ele>447.0</ele><time>2026-04-04T14:14:00.199Z</time></trkpt><trkpt lat="43.0602577" lon="13.0616373"><ele>450.5</ele><time>2026-04-04T14:14:01.198Z</time></trkpt><trkpt lat="43.0600256" lon="13.0615924"><ele>454.0</ele><time>2026-04-04T14:14:02.198Z</time></trkpt><trkpt lat="43.0597981" lon="13.0615562"><ele>454.33333333333337</ele><time>2026-04-04T14:14:03.198Z</time></trkpt><trkpt lat="43.0595778" lon="13.061513"><ele>454.66666666666663</ele><time>2026-04-04T14:14:04.198Z</time></trkpt><trkpt lat="43.0593601" lon="13.0614656"><ele>455.0</ele><time>2026-04-04T14:14:05.198Z</time></trkpt><trkpt lat="43.0591445" lon="13.061412"><ele>454.3333333333333</ele><time>2026-04-04T14:14:06.198Z</time></trkpt><trkpt lat="43.0589363" lon="13.0613445"><ele>453.66666666666663</ele><time>2026-04-04T14:14:07.199Z</time></trkpt><trkpt lat="43.0587354" lon="13.0612589"><ele>453.0</ele><time>2026-04-04T14:14:08.199Z</time></trkpt><trkpt lat="43.0585363" lon="13.0611482"><ele>453.0</ele><time>2026-04-04T14:14:09.198Z</time></trkpt><trkpt lat="43.0583365" lon="13.061036"><ele>453.0</ele><time>2026-04-04T14:14:10.198Z</time></trkpt><trkpt lat="43.0581433" lon="13.0609043"><ele>453.0</ele><time>2026-04-04T14:14:11.199Z</time></trkpt><trkpt lat="43.0579344" lon="13.0607683"><ele>456.0</ele><time>2026-04-04T14:14:12.198Z</time></trkpt><trkpt lat="43.0577253" lon="13.0606205"><ele>459.0</ele><time>2026-04-04T14:14:13.198Z</time></trkpt><trkpt lat="43.0575138" lon="13.0604702"><ele>456.5</ele><time>2026-04-04T14:14:14.198Z</time></trkpt><trkpt lat="43.0572991" lon="13.0603121"><ele>454.0</ele><time>2026-04-04T14:14:15.198Z</time></trkpt><trkpt lat="43.0570897" lon="13.0601649"><ele>454.0</ele><time>2026-04-04T14:14:16.198Z</time></trkpt><trkpt lat="43.0568804" lon="13.0600167"><ele>454.0</ele><time>2026-04-04T14:14:17.198Z</time></trkpt><trkpt lat="43.0566693" lon="13.0598589"><ele>457.0</ele><time>2026-04-04T14:14:18.198Z</time></trkpt><trkpt lat="43.0564572" lon="13.0597038"><ele>460.0</ele><time>2026-04-04T14:14:19.199Z</time></trkpt><trkpt lat="43.05624" lon="13.0595482"><ele>460.0</ele><time>2026-04-04T14:14:20.198Z</time></trkpt><trkpt lat="43.0560196" lon="13.0593904"><ele>460.0</ele><time>2026-04-04T14:14:21.198Z</time></trkpt><trkpt lat="43.0558057" lon="13.0592379"><ele>461.0</ele><time>2026-04-04T14:14:22.198Z</time></trkpt><trkpt lat="43.0555951" lon="13.0590856"><ele>462.0</ele><time>2026-04-04T14:14:23.198Z</time></trkpt><trkpt lat="43.0553851" lon="13.0589408"><ele>462.0</ele><time>2026-04-04T14:14:24.198Z</time></trkpt><trkpt lat="43.055179" lon="13.0588001"><ele>462.0</ele><time>2026-04-04T14:14:25.198Z</time></trkpt><trkpt lat="43.0549777" lon="13.0586593"><ele>460.66666666666663</ele><time>2026-04-04T14:14:26.199Z</time></trkpt><trkpt lat="43.0547785" lon="13.0585204"><ele>459.3333333333333</ele><time>2026-04-04T14:14:27.198Z</time></trkpt><trkpt lat="43.0545768" lon="13.058394"><ele>458.0</ele><time>2026-04-04T14:14:28.198Z</time></trkpt><trkpt lat="43.0543819" lon="13.0582673"><ele>457.66666666666663</ele><time>2026-04-04T14:14:29.198Z</time></trkpt><trkpt lat="43.054187" lon="13.0581335"><ele>457.33333333333337</ele><time>2026-04-04T14:14:30.199Z</time></trkpt><trkpt lat="43.0539821" lon="13.0579979"><ele>457.0</ele><time>2026-04-04T14:14:31.198Z</time></trkpt><trkpt lat="43.0537921" lon="13.057842"><ele>457.0</ele><time>2026-04-04T14:14:32.199Z</time></trkpt><trkpt lat="43.053605" lon="13.0576662"><ele>457.0</ele><time>2026-04-04T14:14:33.198Z</time></trkpt><trkpt lat="43.0534268" lon="13.0574953"><ele>457.0</ele><time>2026-04-04T14:14:34.198Z</time></trkpt><trkpt lat="43.0532478" lon="13.057314"><ele>457.6666666666667</ele><time>2026-04-04T14:14:35.198Z</time></trkpt><trkpt lat="43.0530744" lon="13.0571258"><ele>458.33333333333337</ele><time>2026-04-04T14:14:36.198Z</time></trkpt><trkpt lat="43.0529054" lon="13.0569349"><ele>459.0</ele><time>2026-04-04T14:14:37.198Z</time></trkpt><trkpt lat="43.0527366" lon="13.0567384"><ele>459.0</ele><time>2026-04-04T14:14:38.198Z</time></trkpt><trkpt lat="43.0525844" lon="13.0565368"><ele>459.0</ele><time>2026-04-04T14:14:39.198Z</time></trkpt><trkpt lat="43.0524337" lon="13.0563476"><ele>459.0</ele><time>2026-04-04T14:14:40.198Z</time></trkpt><trkpt lat="43.0522842" lon="13.0561721"><ele>459.0</ele><time>2026-04-04T14:14:41.198Z</time></trkpt><trkpt lat="43.0521362" lon="13.0559888"><ele>459.0</ele><time>2026-04-04T14:14:42.199Z</time></trkpt><trkpt lat="43.0519895" lon="13.0558192"><ele>459.0</ele><time>2026-04-04T14:14:43.198Z</time></trkpt><trkpt lat="43.0518322" lon="13.0556517"><ele>458.66666666666663</ele><time>2026-04-04T14:14:44.198Z</time></trkpt><trkpt lat="43.0516657" lon="13.0554809"><ele>458.3333333333333</ele><time>2026-04-04T14:14:45.198Z</time></trkpt><trkpt lat="43.0514795" lon="13.0553097"><ele>458.0</ele><time>2026-04-04T14:14:46.199Z</time></trkpt><trkpt lat="43.0512856" lon="13.0551351"><ele>458.0</ele><time>2026-04-04T14:14:47.198Z</time></trkpt><trkpt lat="43.0510912" lon="13.0549589"><ele>458.0</ele><time>2026-04-04T14:14:48.198Z</time></trkpt><trkpt lat="43.0508944" lon="13.0547758"><ele>459.0</ele><time>2026-04-04T14:14:49.198Z</time></trkpt><trkpt lat="43.0506999" lon="13.0545874"><ele>460.0</ele><time>2026-04-04T14:14:50.198Z</time></trkpt><trkpt lat="43.0505032" lon="13.0544067"><ele>460.0</ele><time>2026-04-04T14:14:51.199Z</time></trkpt><trkpt lat="43.0503071" lon="13.0542271"><ele>460.0</ele><time>2026-04-04T14:14:52.199Z</time></trkpt><trkpt lat="43.0501101" lon="13.0540482"><ele>461.0</ele><time>2026-04-04T14:14:53.199Z</time></trkpt><trkpt lat="43.0499202" lon="13.0538699"><ele>462.0</ele><time>2026-04-04T14:14:54.198Z</time></trkpt><trkpt lat="43.0497372" lon="13.0537073"><ele>463.0</ele><time>2026-04-04T14:14:55.199Z</time></trkpt><trkpt lat="43.0495559" lon="13.0535539"><ele>463.0</ele><time>2026-04-04T14:14:56.198Z</time></trkpt><trkpt lat="43.0493771" lon="13.0534159"><ele>463.0</ele><time>2026-04-04T14:14:57.199Z</time></trkpt><trkpt lat="43.0491929" lon="13.053297"><ele>463.0</ele><time>2026-04-04T14:14:58.198Z</time></trkpt><trkpt lat="43.0490061" lon="13.0531908"><ele>464.0</ele><time>2026-04-04T14:14:59.199Z</time></trkpt><trkpt lat="43.0488225" lon="13.0531012"><ele>465.0</ele><time>2026-04-04T14:15:00.198Z</time></trkpt><trkpt lat="43.0486505" lon="13.0530204"><ele>466.0</ele><time>2026-04-04T14:15:01.198Z</time></trkpt><trkpt lat="43.0484809" lon="13.0529374"><ele>466.0</ele><time>2026-04-04T14:15:02.199Z</time></trkpt><trkpt lat="43.0483145" lon="13.0528564"><ele>466.0</ele><time>2026-04-04T14:15:03.198Z</time></trkpt><trkpt lat="43.0481574" lon="13.0527773"><ele>466.0</ele><time>2026-04-04T14:15:04.198Z</time></trkpt><trkpt lat="43.0480045" lon="13.0527048"><ele>465.6666666666667</ele><time>2026-04-04T14:15:05.198Z</time></trkpt><trkpt lat="43.0478482" lon="13.0526307"><ele>465.33333333333337</ele><time>2026-04-04T14:15:06.198Z</time></trkpt><trkpt lat="43.0476948" lon="13.0525607"><ele>465.0</ele><time>2026-04-04T14:15:07.198Z</time></trkpt><trkpt lat="43.0475428" lon="13.0524847"><ele>466.5</ele><time>2026-04-04T14:15:08.198Z</time></trkpt><trkpt lat="43.0473958" lon="13.0524059"><ele>468.0</ele><time>2026-04-04T14:15:09.199Z</time></trkpt><trkpt lat="43.047262" lon="13.052338"><ele>469.5</ele><time>2026-04-04T14:15:10.198Z</time></trkpt><trkpt lat="43.0471269" lon="13.0522719"><ele>471.0</ele><time>2026-04-04T14:15:11.198Z</time></trkpt><trkpt lat="43.0470013" lon="13.0522054"><ele>471.0</ele><time>2026-04-04T14:15:12.199Z</time></trkpt><trkpt lat="43.0468781" lon="13.0521442"><ele>471.0</ele><time>2026-04-04T14:15:13.199Z</time></trkpt><trkpt lat="43.0467542" lon="13.052092"><ele>471.0</ele><time>2026-04-04T14:15:14.199Z</time></trkpt><trkpt lat="43.0466285" lon="13.0520585"><ele>471.0</ele><time>2026-04-04T14:15:15.199Z</time></trkpt><trkpt lat="43.0464966" lon="13.05205"><ele>470.5</ele><time>2026-04-04T14:15:16.199Z</time></trkpt><trkpt lat="43.0463567" lon="13.0520484"><ele>470.0</ele><time>2026-04-04T14:15:17.198Z</time></trkpt><trkpt lat="43.0462207" lon="13.05205"><ele>469.5</ele><time>2026-04-04T14:15:18.198Z</time></trkpt><trkpt lat="43.0460862" lon="13.0520568"><ele>469.0</ele><time>2026-04-04T14:15:19.198Z</time></trkpt><trkpt lat="43.0459485" lon="13.0520474"><ele>469.0</ele><time>2026-04-04T14:15:20.198Z</time></trkpt><trkpt lat="43.0458088" lon="13.0520288"><ele>469.0</ele><time>2026-04-04T14:15:21.198Z</time></trkpt><trkpt lat="43.0456675" lon="13.0520094"><ele>469.0</ele><time>2026-04-04T14:15:22.198Z</time></trkpt><trkpt lat="43.0455261" lon="13.0519734"><ele>469.0</ele><time>2026-04-04T14:15:23.198Z</time></trkpt><trkpt lat="43.0453889" lon="13.0519339"><ele>469.0</ele><time>2026-04-04T14:15:24.198Z</time></trkpt><trkpt lat="43.0452731" lon="13.0518764"><ele>469.0</ele><time>2026-04-04T14:15:25.198Z</time></trkpt><trkpt lat="43.0451554" lon="13.051814"><ele>469.0</ele><time>2026-04-04T14:15:26.199Z</time></trkpt><trkpt lat="43.0450384" lon="13.0517276"><ele>469.0</ele><time>2026-04-04T14:15:27.198Z</time></trkpt><trkpt lat="43.0449166" lon="13.0516408"><ele>470.0</ele><time>2026-04-04T14:15:28.199Z</time></trkpt><trkpt lat="43.0447925" lon="13.0515439"><ele>471.0</ele><time>2026-04-04T14:15:29.198Z</time></trkpt><trkpt lat="43.0446587" lon="13.0514392"><ele>472.0</ele><time>2026-04-04T14:15:30.198Z</time></trkpt><trkpt lat="43.0444994" lon="13.0513233"><ele>472.0</ele><time>2026-04-04T14:15:31.198Z</time></trkpt><trkpt lat="43.0443289" lon="13.0511873"><ele>472.0</ele><time>2026-04-04T14:15:32.198Z</time></trkpt><trkpt lat="43.0441445" lon="13.0510351"><ele>472.0</ele><time>2026-04-04T14:15:33.198Z</time></trkpt><trkpt lat="43.0439733" lon="13.0508786"><ele>471.6666666666667</ele><time>2026-04-04T14:15:34.198Z</time></trkpt><trkpt lat="43.0438061" lon="13.0507241"><ele>471.33333333333337</ele><time>2026-04-04T14:15:35.199Z</time></trkpt><trkpt lat="43.0436324" lon="13.0505769"><ele>471.0</ele><time>2026-04-04T14:15:36.199Z</time></trkpt><trkpt lat="43.0434672" lon="13.0504355"><ele>471.0</ele><time>2026-04-04T14:15:37.199Z</time></trkpt><trkpt lat="43.0432992" lon="13.0502949"><ele>471.0</ele><time>2026-04-04T14:15:38.198Z</time></trkpt><trkpt lat="43.0431364" lon="13.0501567"><ele>471.0</ele><time>2026-04-04T14:15:39.199Z</time></trkpt><trkpt lat="43.0429818" lon="13.0500264"><ele>471.33333333333337</ele><time>2026-04-04T14:15:40.198Z</time></trkpt><trkpt lat="43.0428499" lon="13.0499015"><ele>471.6666666666667</ele><time>2026-04-04T14:15:41.198Z</time></trkpt><trkpt lat="43.0427155" lon="13.049788"><ele>472.0</ele><time>2026-04-04T14:15:42.198Z</time></trkpt><trkpt lat="43.0425859" lon="13.0496758"><ele>472.0</ele><time>2026-04-04T14:15:43.198Z</time></trkpt><trkpt lat="43.0424773" lon="13.0495723"><ele>472.0</ele><time>2026-04-04T14:15:44.199Z</time></trkpt><trkpt lat="43.0423802" lon="13.0494707"><ele>472.0</ele><time>2026-04-04T14:15:45.198Z</time></trkpt><trkpt lat="43.0422809" lon="13.0493799"><ele>472.0</ele><time>2026-04-04T14:15:46.198Z</time></trkpt><trkpt lat="43.042212" lon="13.0493053"><ele>472.0</ele><time>2026-04-04T14:15:47.198Z</time></trkpt><trkpt lat="43.0421338" lon="13.0492277"><ele>472.00000000000006</ele><time>2026-04-04T14:15:48.198Z</time></trkpt><trkpt lat="43.0420525" lon="13.0491579"><ele>472.00000000000006</ele><time>2026-04-04T14:15:49.199Z</time></trkpt><trkpt lat="43.0419826" lon="13.0490911"><ele>472.0</ele><time>2026-04-04T14:15:50.199Z</time></trkpt><trkpt lat="43.0419018" lon="13.0490209"><ele>472.0</ele><time>2026-04-04T14:15:51.198Z</time></trkpt><trkpt lat="43.0417917" lon="13.0489341"><ele>472.75</ele><time>2026-04-04T14:15:52.199Z</time></trkpt><trkpt lat="43.0417003" lon="13.0488324"><ele>473.5</ele><time>2026-04-04T14:15:53.199Z</time></trkpt><trkpt lat="43.0415938" lon="13.0487091"><ele>474.25</ele><time>2026-04-04T14:15:54.198Z</time></trkpt><trkpt lat="43.0414783" lon="13.0485885"><ele>475.0</ele><time>2026-04-04T14:15:55.199Z</time></trkpt><trkpt lat="43.0413692" lon="13.0484705"><ele>475.0</ele><time>2026-04-04T14:15:56.198Z</time></trkpt><trkpt lat="43.0412452" lon="13.0483616"><ele>475.0</ele><time>2026-04-04T14:15:57.199Z</time></trkpt><trkpt lat="43.0411325" lon="13.0482551"><ele>475.0</ele><time>2026-04-04T14:15:58.198Z</time></trkpt><trkpt lat="43.0410249" lon="13.0481505"><ele>475.0</ele><time>2026-04-04T14:15:59.198Z</time></trkpt><trkpt lat="43.0409124" lon="13.0480445"><ele>475.75</ele><time>2026-04-04T14:16:00.198Z</time></trkpt><trkpt lat="43.0407901" lon="13.0479488"><ele>476.5</ele><time>2026-04-04T14:16:01.198Z</time></trkpt><trkpt lat="43.0406757" lon="13.0478459"><ele>477.25</ele><time>2026-04-04T14:16:02.198Z</time></trkpt><trkpt lat="43.0405504" lon="13.0477474"><ele>478.0</ele><time>2026-04-04T14:16:03.198Z</time></trkpt><trkpt lat="43.0404278" lon="13.0476475"><ele>478.0</ele><time>2026-04-04T14:16:04.198Z</time></trkpt><trkpt lat="43.0402998" lon="13.0475456"><ele>478.0</ele><time>2026-04-04T14:16:05.199Z</time></trkpt><trkpt lat="43.0401706" lon="13.0474481"><ele>478.0</ele><time>2026-04-04T14:16:06.198Z</time></trkpt><trkpt lat="43.0400436" lon="13.0473494"><ele>478.0</ele><time>2026-04-04T14:16:07.199Z</time></trkpt><trkpt lat="43.0399136" lon="13.0472472"><ele>478.75</ele><time>2026-04-04T14:16:08.198Z</time></trkpt><trkpt lat="43.0397878" lon="13.0471464"><ele>479.5</ele><time>2026-04-04T14:16:09.199Z</time></trkpt><trkpt lat="43.0396561" lon="13.0470411"><ele>480.25</ele><time>2026-04-04T14:16:10.198Z</time></trkpt><trkpt lat="43.0395258" lon="13.0469385"><ele>481.0</ele><time>2026-04-04T14:16:11.198Z</time></trkpt><trkpt lat="43.0394004" lon="13.0468324"><ele>481.0</ele><time>2026-04-04T14:16:12.198Z</time></trkpt><trkpt lat="43.0392802" lon="13.0467259"><ele>481.0</ele><time>2026-04-04T14:16:13.198Z</time></trkpt><trkpt lat="43.0391504" lon="13.0466125"><ele>481.0</ele><time>2026-04-04T14:16:14.198Z</time></trkpt><trkpt lat="43.0390247" lon="13.0464999"><ele>481.0</ele><time>2026-04-04T14:16:15.198Z</time></trkpt><trkpt lat="43.0388957" lon="13.0463893"><ele>480.33333333333337</ele><time>2026-04-04T14:16:16.198Z</time></trkpt><trkpt lat="43.0387653" lon="13.0462763"><ele>479.66666666666663</ele><time>2026-04-04T14:16:17.198Z</time></trkpt><trkpt lat="43.0386324" lon="13.0461517"><ele>479.0</ele><time>2026-04-04T14:16:18.198Z</time></trkpt><trkpt lat="43.0385253" lon="13.0460117"><ele>479.0</ele><time>2026-04-04T14:16:19.198Z</time></trkpt><trkpt lat="43.0384218" lon="13.0458772"><ele>479.0</ele><time>2026-04-04T14:16:20.199Z</time></trkpt><trkpt lat="43.0383229" lon="13.0457405"><ele>479.0</ele><time>2026-04-04T14:16:21.198Z</time></trkpt><trkpt lat="43.0382339" lon="13.0456116"><ele>479.0</ele><time>2026-04-04T14:16:22.198Z</time></trkpt><trkpt lat="43.0381398" lon="13.0454645"><ele>479.5</ele><time>2026-04-04T14:16:23.198Z</time></trkpt><trkpt lat="43.0380473" lon="13.0453046"><ele>480.0</ele><time>2026-04-04T14:16:24.198Z</time></trkpt><trkpt lat="43.0379607" lon="13.0451414"><ele>480.5</ele><time>2026-04-04T14:16:25.199Z</time></trkpt><trkpt lat="43.0378748" lon="13.0449692"><ele>481.0</ele><time>2026-04-04T14:16:26.198Z</time></trkpt><trkpt lat="43.0377931" lon="13.0447845"><ele>481.6666666666667</ele><time>2026-04-04T14:16:27.198Z</time></trkpt><trkpt lat="43.0377198" lon="13.0445678"><ele>482.33333333333337</ele><time>2026-04-04T14:16:28.198Z</time></trkpt><trkpt lat="43.0376517" lon="13.0443597"><ele>483.0</ele><time>2026-04-04T14:16:29.198Z</time></trkpt><trkpt lat="43.03759" lon="13.0441559"><ele>483.33333333333337</ele><time>2026-04-04T14:16:30.198Z</time></trkpt><trkpt lat="43.0375323" lon="13.0439393"><ele>483.6666666666667</ele><time>2026-04-04T14:16:31.198Z</time></trkpt><trkpt lat="43.0374677" lon="13.0437279"><ele>484.0</ele><time>2026-04-04T14:16:32.198Z</time></trkpt><trkpt lat="43.0374026" lon="13.0435289"><ele>484.0</ele><time>2026-04-04T14:16:33.198Z</time></trkpt><trkpt lat="43.0373398" lon="13.0433193"><ele>484.0</ele><time>2026-04-04T14:16:34.199Z</time></trkpt><trkpt lat="43.03728" lon="13.0431117"><ele>484.0</ele><time>2026-04-04T14:16:35.198Z</time></trkpt><trkpt lat="43.0372193" lon="13.0429037"><ele>484.6666666666667</ele><time>2026-04-04T14:16:36.198Z</time></trkpt><trkpt lat="43.0371547" lon="13.0426925"><ele>485.33333333333337</ele><time>2026-04-04T14:16:37.198Z</time></trkpt><trkpt lat="43.0370896" lon="13.0424861"><ele>486.0</ele><time>2026-04-04T14:16:38.199Z</time></trkpt><trkpt lat="43.0370156" lon="13.0422822"><ele>487.66666666666663</ele><time>2026-04-04T14:16:39.198Z</time></trkpt><trkpt lat="43.0369462" lon="13.0420786"><ele>489.3333333333333</ele><time>2026-04-04T14:16:40.198Z</time></trkpt><trkpt lat="43.0368794" lon="13.0418772"><ele>491.0</ele><time>2026-04-04T14:16:41.198Z</time></trkpt><trkpt lat="43.0368004" lon="13.0416794"><ele>493.0</ele><time>2026-04-04T14:16:42.198Z</time></trkpt><trkpt lat="43.0367188" lon="13.0414828"><ele>495.0</ele><time>2026-04-04T14:16:43.199Z</time></trkpt><trkpt lat="43.0366319" lon="13.0412886"><ele>497.0</ele><time>2026-04-04T14:16:44.198Z</time></trkpt><trkpt lat="43.036546" lon="13.0410961"><ele>496.66666666666663</ele><time>2026-04-04T14:16:45.198Z</time></trkpt><trkpt lat="43.0364543" lon="13.0409005"><ele>496.33333333333337</ele><time>2026-04-04T14:16:46.199Z</time></trkpt><trkpt lat="43.0363574" lon="13.0407046"><ele>496.0</ele><time>2026-04-04T14:16:47.198Z</time></trkpt><trkpt lat="43.0362632" lon="13.0405055"><ele>496.0</ele><time>2026-04-04T14:16:48.199Z</time></trkpt><trkpt lat="43.0361703" lon="13.0403091"><ele>496.0</ele><time>2026-04-04T14:16:49.198Z</time></trkpt><trkpt lat="43.0360705" lon="13.0401064"><ele>496.0</ele><time>2026-04-04T14:16:50.198Z</time></trkpt><trkpt lat="43.0359819" lon="13.0399132"><ele>497.0</ele><time>2026-04-04T14:16:51.198Z</time></trkpt><trkpt lat="43.0358907" lon="13.0397238"><ele>498.0</ele><time>2026-04-04T14:16:52.198Z</time></trkpt><trkpt lat="43.0357999" lon="13.0395303"><ele>499.0</ele><time>2026-04-04T14:16:53.198Z</time></trkpt><trkpt lat="43.0357103" lon="13.0393332"><ele>500.0</ele><time>2026-04-04T14:16:54.199Z</time></trkpt><trkpt lat="43.0356106" lon="13.0391397"><ele>501.0</ele><time>2026-04-04T14:16:55.198Z</time></trkpt><trkpt lat="43.0355113" lon="13.0389556"><ele>502.0</ele><time>2026-04-04T14:16:56.198Z</time></trkpt><trkpt lat="43.0354108" lon="13.0387696"><ele>502.0</ele><time>2026-04-04T14:16:57.199Z</time></trkpt><trkpt lat="43.0353041" lon="13.0385896"><ele>502.0</ele><time>2026-04-04T14:16:58.198Z</time></trkpt><trkpt lat="43.0351914" lon="13.0384068"><ele>502.0</ele><time>2026-04-04T14:16:59.198Z</time></trkpt><trkpt lat="43.0350741" lon="13.038217"><ele>501.0</ele><time>2026-04-04T14:17:00.198Z</time></trkpt><trkpt lat="43.0349571" lon="13.0380258"><ele>500.0</ele><time>2026-04-04T14:17:01.198Z</time></trkpt><trkpt lat="43.0348372" lon="13.037838"><ele>499.0</ele><time>2026-04-04T14:17:02.199Z</time></trkpt><trkpt lat="43.0347166" lon="13.0376732"><ele>499.0</ele><time>2026-04-04T14:17:03.198Z</time></trkpt><trkpt lat="43.0345947" lon="13.0375198"><ele>499.0</ele><time>2026-04-04T14:17:04.198Z</time></trkpt><trkpt lat="43.0344711" lon="13.0373762"><ele>499.0</ele><time>2026-04-04T14:17:05.198Z</time></trkpt><trkpt lat="43.0343307" lon="13.0372535"><ele>501.0</ele><time>2026-04-04T14:17:06.199Z</time></trkpt><trkpt lat="43.0341515" lon="13.0371737"><ele>503.0</ele><time>2026-04-04T14:17:07.198Z</time></trkpt><trkpt lat="43.033959" lon="13.037108"><ele>505.0</ele><time>2026-04-04T14:17:08.198Z</time></trkpt><trkpt lat="43.0337601" lon="13.0370524"><ele>505.0</ele><time>2026-04-04T14:17:09.198Z</time></trkpt><trkpt lat="43.033553" lon="13.0369989"><ele>505.0</ele><time>2026-04-04T14:17:10.198Z</time></trkpt><trkpt lat="43.0333443" lon="13.0369456"><ele>505.0</ele><time>2026-04-04T14:17:11.198Z</time></trkpt><trkpt lat="43.0331324" lon="13.0368907"><ele>503.33333333333337</ele><time>2026-04-04T14:17:12.199Z</time></trkpt><trkpt lat="43.0329273" lon="13.0368376"><ele>501.66666666666663</ele><time>2026-04-04T14:17:13.198Z</time></trkpt><trkpt lat="43.0327204" lon="13.0367835"><ele>500.0</ele><time>2026-04-04T14:17:14.198Z</time></trkpt><trkpt lat="43.0325205" lon="13.03674"><ele>500.3333333333333</ele><time>2026-04-04T14:17:15.198Z</time></trkpt><trkpt lat="43.0323354" lon="13.0366976"><ele>500.66666666666663</ele><time>2026-04-04T14:17:16.198Z</time></trkpt><trkpt lat="43.032156" lon="13.0366501"><ele>501.0</ele><time>2026-04-04T14:17:17.198Z</time></trkpt><trkpt lat="43.0319946" lon="13.0365833"><ele>501.33333333333337</ele><time>2026-04-04T14:17:18.198Z</time></trkpt><trkpt lat="43.0318376" lon="13.0365007"><ele>501.6666666666667</ele><time>2026-04-04T14:17:19.198Z</time></trkpt><trkpt lat="43.0316906" lon="13.0363832"><ele>502.0</ele><time>2026-04-04T14:17:20.198Z</time></trkpt><trkpt lat="43.0315662" lon="13.0362202"><ele>502.0</ele><time>2026-04-04T14:17:21.198Z</time></trkpt><trkpt lat="43.0314549" lon="13.0360314"><ele>502.0</ele><time>2026-04-04T14:17:22.198Z</time></trkpt><trkpt lat="43.0313404" lon="13.0358302"><ele>502.0</ele><time>2026-04-04T14:17:23.198Z</time></trkpt><trkpt lat="43.0312067" lon="13.0356387"><ele>502.33333333333337</ele><time>2026-04-04T14:17:24.199Z</time></trkpt><trkpt lat="43.0310678" lon="13.0354557"><ele>502.66666666666663</ele><time>2026-04-04T14:17:25.199Z</time></trkpt><trkpt lat="43.0309277" lon="13.0352765"><ele>503.0</ele><time>2026-04-04T14:17:26.198Z</time></trkpt><trkpt lat="43.0307778" lon="13.0351218"><ele>503.0</ele><time>2026-04-04T14:17:27.198Z</time></trkpt><trkpt lat="43.0306173" lon="13.0349915"><ele>503.0</ele><time>2026-04-04T14:17:28.198Z</time></trkpt><trkpt lat="43.0304492" lon="13.0348728"><ele>503.0</ele><time>2026-04-04T14:17:29.199Z</time></trkpt><trkpt lat="43.0302829" lon="13.0347783"><ele>508.0</ele><time>2026-04-04T14:17:30.198Z</time></trkpt><trkpt lat="43.0301008" lon="13.0347019"><ele>513.0</ele><time>2026-04-04T14:17:31.198Z</time></trkpt><trkpt lat="43.0299084" lon="13.0346457"><ele>518.0</ele><time>2026-04-04T14:17:32.199Z</time></trkpt><trkpt lat="43.0297195" lon="13.0346023"><ele>518.0</ele><time>2026-04-04T14:17:33.198Z</time></trkpt><trkpt lat="43.02953" lon="13.0345645"><ele>518.0</ele><time>2026-04-04T14:17:34.198Z</time></trkpt><trkpt lat="43.0293294" lon="13.0345275"><ele>518.0</ele><time>2026-04-04T14:17:35.198Z</time></trkpt><trkpt lat="43.0291242" lon="13.0344924"><ele>517.6666666666666</ele><time>2026-04-04T14:17:36.199Z</time></trkpt><trkpt lat="43.0289185" lon="13.0344557"><ele>517.3333333333334</ele><time>2026-04-04T14:17:37.198Z</time></trkpt><trkpt lat="43.02871" lon="13.0344282"><ele>517.0</ele><time>2026-04-04T14:17:38.199Z</time></trkpt><trkpt lat="43.028502" lon="13.0343956"><ele>517.0</ele><time>2026-04-04T14:17:39.198Z</time></trkpt><trkpt lat="43.0282982" lon="13.0343685"><ele>517.0</ele><time>2026-04-04T14:17:40.198Z</time></trkpt><trkpt lat="43.0280907" lon="13.0343343"><ele>517.0</ele><time>2026-04-04T14:17:41.198Z</time></trkpt><trkpt lat="43.0278821" lon="13.0342984"><ele>517.0</ele><time>2026-04-04T14:17:42.199Z</time></trkpt><trkpt lat="43.0276779" lon="13.0342636"><ele>517.0</ele><time>2026-04-04T14:17:43.198Z</time></trkpt><trkpt lat="43.0274659" lon="13.0342314"><ele>517.0</ele><time>2026-04-04T14:17:44.198Z</time></trkpt><trkpt lat="43.0272728" lon="13.0342053"><ele>518.6666666666667</ele><time>2026-04-04T14:17:45.198Z</time></trkpt><trkpt lat="43.0270838" lon="13.034192"><ele>520.3333333333334</ele><time>2026-04-04T14:17:46.198Z</time></trkpt><trkpt lat="43.0269017" lon="13.034194"><ele>522.0</ele><time>2026-04-04T14:17:47.199Z</time></trkpt><trkpt lat="43.026727" lon="13.0342108"><ele>519.3333333333334</ele><time>2026-04-04T14:17:48.198Z</time></trkpt><trkpt lat="43.0265675" lon="13.0342362"><ele>516.6666666666667</ele><time>2026-04-04T14:17:49.199Z</time></trkpt><trkpt lat="43.0264215" lon="13.0342558"><ele>514.0</ele><time>2026-04-04T14:17:50.199Z</time></trkpt><trkpt lat="43.0262772" lon="13.034269"><ele>514.0</ele><time>2026-04-04T14:17:51.198Z</time></trkpt><trkpt lat="43.0261096" lon="13.0342046"><ele>514.0</ele><time>2026-04-04T14:17:52.198Z</time></trkpt><trkpt lat="43.0259489" lon="13.0341467"><ele>514.0</ele><time>2026-04-04T14:17:53.199Z</time></trkpt><trkpt lat="43.0257795" lon="13.0340714"><ele>512.6666666666667</ele><time>2026-04-04T14:17:54.198Z</time></trkpt><trkpt lat="43.025595" lon="13.0340211"><ele>511.33333333333337</ele><time>2026-04-04T14:17:55.199Z</time></trkpt><trkpt lat="43.0254124" lon="13.0339725"><ele>510.0</ele><time>2026-04-04T14:17:56.198Z</time></trkpt><trkpt lat="43.0310678" lon="13.0354557"><ele>510.0</ele><time>2026-04-04T14:17:25.199Z</time></trkpt><trkpt lat="43.0309277" lon="13.0352765"><ele>510.0</ele><time>2026-04-04T14:17:26.198Z</time></trkpt><trkpt lat="43.0307778" lon="13.0351218"><ele>510.0</ele><time>2026-04-04T14:17:27.198Z</time></trkpt><trkpt lat="43.0306173" lon="13.0349915"><ele>513.6666666666666</ele><time>2026-04-04T14:17:28.198Z</time></trkpt><trkpt lat="43.0304492" lon="13.0348728"><ele>517.3333333333333</ele><time>2026-04-04T14:17:29.199Z</time></trkpt><trkpt lat="43.0302829" lon="13.0347783"><ele>521.0</ele><time>2026-04-04T14:17:30.198Z</time></trkpt><trkpt lat="43.0301008" lon="13.0347019"><ele>520.0</ele><time>2026-04-04T14:17:31.198Z</time></trkpt><trkpt lat="43.0299084" lon="13.0346457"><ele>519.0</ele><time>2026-04-04T14:17:32.199Z</time></trkpt><trkpt lat="43.0297195" lon="13.0346023"><ele>518.0</ele><time>2026-04-04T14:17:33.198Z</time></trkpt><trkpt lat="43.02953" lon="13.0345645"><ele>518.0</ele><time>2026-04-04T14:17:34.198Z</time></trkpt><trkpt lat="43.0293294" lon="13.0345275"><ele>518.0</ele><time>2026-04-04T14:17:35.198Z</time></trkpt><trkpt lat="43.0291242" lon="13.0344924"><ele>518.0</ele><time>2026-04-04T14:17:36.199Z</time></trkpt><trkpt lat="43.0289185" lon="13.0344557"><ele>517.6666666666666</ele><time>2026-04-04T14:17:37.198Z</time></trkpt><trkpt lat="43.02871" lon="13.0344282"><ele>517.3333333333334</ele><time>2026-04-04T14:17:38.199Z</time></trkpt><trkpt lat="43.028502" lon="13.0343956"><ele>517.0</ele><time>2026-04-04T14:17:39.198Z</time></trkpt><trkpt lat="43.0282982" lon="13.0343685"><ele>517.0</ele><time>2026-04-04T14:17:40.198Z</time></trkpt><trkpt lat="43.0280907" lon="13.0343343"><ele>517.0</ele><time>2026-04-04T14:17:41.198Z</time></trkpt><trkpt lat="43.0278821" lon="13.0342984"><ele>517.0</ele><time>2026-04-04T14:17:42.199Z</time></trkpt><trkpt lat="43.0276779" lon="13.0342636"><ele>518.6666666666667</ele><time>2026-04-04T14:17:43.198Z</time></trkpt><trkpt lat="43.0274659" lon="13.0342314"><ele>520.3333333333334</ele><time>2026-04-04T14:17:44.198Z</time></trkpt><trkpt lat="43.0272728" lon="13.0342053"><ele>522.0</ele><time>2026-04-04T14:17:45.198Z</time></trkpt><trkpt lat="43.0270838" lon="13.034192"><ele>522.0</ele><time>2026-04-04T14:17:46.198Z</time></trkpt><trkpt lat="43.0269017" lon="13.034194"><ele>522.0</ele><time>2026-04-04T14:17:47.199Z</time></trkpt><trkpt lat="43.026727" lon="13.0342108"><ele>522.0</ele><time>2026-04-04T14:17:48.198Z</time></trkpt><trkpt lat="43.0265675" lon="13.0342362"><ele>519.3333333333334</ele><time>2026-04-04T14:17:49.199Z</time></trkpt><trkpt lat="43.0264215" lon="13.0342558"><ele>516.6666666666667</ele><time>2026-04-04T14:17:50.199Z</time></trkpt><trkpt lat="43.0262772" lon="13.034269"><ele>514.0</ele><time>2026-04-04T14:17:51.198Z</time></trkpt><trkpt lat="43.0261096" lon="13.0342046"><ele>514.0</ele><time>2026-04-04T14:17:52.198Z</time></trkpt><trkpt lat="43.0259489" lon="13.0341467"><ele>514.0</ele><time>2026-04-04T14:17:53.199Z</time></trkpt><trkpt lat="43.0257795" lon="13.0340714"><ele>514.0</ele><time>2026-04-04T14:17:54.198Z</time></trkpt><trkpt lat="43.025595" lon="13.0340211"><ele>516.6666666666667</ele><time>2026-04-04T14:17:55.199Z</time></trkpt><trkpt lat="43.0254124" lon="13.0339725"><ele>519.3333333333334</ele><time>2026-04-04T14:17:56.198Z</time></trkpt><trkpt lat="43.025221" lon="13.0339455"><ele>522.0</ele><time>2026-04-04T14:17:57.199Z</time></trkpt><trkpt lat="43.0250275" lon="13.0339273"><ele>526.0</ele><time>2026-04-04T14:17:58.198Z</time></trkpt><trkpt lat="43.0248301" lon="13.0338994"><ele>530.0</ele><time>2026-04-04T14:17:59.198Z</time></trkpt><trkpt lat="43.0246371" lon="13.0338541"><ele>534.0</ele><time>2026-04-04T14:18:00.198Z</time></trkpt><trkpt lat="43.024458" lon="13.0338217"><ele>534.0</ele><time>2026-04-04T14:18:01.198Z</time></trkpt><trkpt lat="43.0242864" lon="13.033793"><ele>534.0</ele><time>2026-04-04T14:18:02.198Z</time></trkpt><trkpt lat="43.0241155" lon="13.0337589"><ele>534.0</ele><time>2026-04-04T14:18:03.198Z</time></trkpt><trkpt lat="43.023955" lon="13.033692"><ele>533.3333333333334</ele><time>2026-04-04T14:18:04.198Z</time></trkpt><trkpt lat="43.0237962" lon="13.0335812"><ele>532.6666666666667</ele><time>2026-04-04T14:18:05.198Z</time></trkpt><trkpt lat="43.0236478" lon="13.0334826"><ele>532.0</ele><time>2026-04-04T14:18:06.198Z</time></trkpt><trkpt lat="43.0234833" lon="13.0334008"><ele>533.0</ele><time>2026-04-04T14:18:07.198Z</time></trkpt><trkpt lat="43.0233027" lon="13.0333258"><ele>534.0</ele><time>2026-04-04T14:18:08.199Z</time></trkpt><trkpt lat="43.0231213" lon="13.0332838"><ele>535.0</ele><time>2026-04-04T14:18:09.198Z</time></trkpt><trkpt lat="43.0229344" lon="13.0332623"><ele>536.0</ele><time>2026-04-04T14:18:10.199Z</time></trkpt><trkpt lat="43.0227511" lon="13.0332582"><ele>537.0</ele><time>2026-04-04T14:18:11.198Z</time></trkpt><trkpt lat="43.0225776" lon="13.0332772"><ele>538.0</ele><time>2026-04-04T14:18:12.198Z</time></trkpt><trkpt lat="43.0224218" lon="13.0333426"><ele>538.0</ele><time>2026-04-04T14:18:13.198Z</time></trkpt><trkpt lat="43.0222633" lon="13.0334231"><ele>538.0</ele><time>2026-04-04T14:18:14.199Z</time></trkpt><trkpt lat="43.0221205" lon="13.0335326"><ele>538.0</ele><time>2026-04-04T14:18:15.198Z</time></trkpt><trkpt lat="43.0219888" lon="13.033683"><ele>538.0</ele><time>2026-04-04T14:18:16.198Z</time></trkpt><trkpt lat="43.0218573" lon="13.0338565"><ele>538.0</ele><time>2026-04-04T14:18:17.198Z</time></trkpt><trkpt lat="43.0217405" lon="13.0340517"><ele>538.0</ele><time>2026-04-04T14:18:18.198Z</time></trkpt><trkpt lat="43.0216289" lon="13.0342666"><ele>531.0</ele><time>2026-04-04T14:18:19.198Z</time></trkpt><trkpt lat="43.0215142" lon="13.0344863"><ele>524.0</ele><time>2026-04-04T14:18:20.199Z</time></trkpt><trkpt lat="43.021401" lon="13.0347051"><ele>517.0</ele><time>2026-04-04T14:18:21.199Z</time></trkpt><trkpt lat="43.0212897" lon="13.0349095"><ele>517.6666666666667</ele><time>2026-04-04T14:18:22.198Z</time></trkpt><trkpt lat="43.0211802" lon="13.0351031"><ele>518.3333333333334</ele><time>2026-04-04T14:18:23.198Z</time></trkpt><trkpt lat="43.0210822" lon="13.0352808"><ele>519.0</ele><time>2026-04-04T14:18:24.198Z</time></trkpt><trkpt lat="43.0209847" lon="13.0354587"><ele>519.0</ele><time>2026-04-04T14:18:25.199Z</time></trkpt><trkpt lat="43.0208915" lon="13.0356347"><ele>519.0</ele><time>2026-04-04T14:18:26.199Z</time></trkpt><trkpt lat="43.0208213" lon="13.0358085"><ele>519.0</ele><time>2026-04-04T14:18:27.198Z</time></trkpt><trkpt lat="43.020758" lon="13.036"><ele>521.6666666666666</ele><time>2026-04-04T14:18:28.198Z</time></trkpt><trkpt lat="43.0207297" lon="13.0362093"><ele>524.3333333333333</ele><time>2026-04-04T14:18:29.199Z</time></trkpt><trkpt lat="43.0207247" lon="13.0364296"><ele>527.0</ele><time>2026-04-04T14:18:30.199Z</time></trkpt><trkpt lat="43.0207433" lon="13.0366576"><ele>527.0</ele><time>2026-04-04T14:18:31.198Z</time></trkpt><trkpt lat="43.0207392" lon="13.0368675"><ele>527.0</ele><time>2026-04-04T14:18:32.198Z</time></trkpt><trkpt lat="43.0207199" lon="13.0370798"><ele>527.0</ele><time>2026-04-04T14:18:33.199Z</time></trkpt><trkpt lat="43.0206629" lon="13.0372827"><ele>526.0</ele><time>2026-04-04T14:18:34.198Z</time></trkpt><trkpt lat="43.0205831" lon="13.0374926"><ele>525.0</ele><time>2026-04-04T14:18:35.199Z</time></trkpt><trkpt lat="43.0205018" lon="13.0377206"><ele>524.0</ele><time>2026-04-04T14:18:36.199Z</time></trkpt><trkpt lat="43.0204354" lon="13.0379683"><ele>524.0</ele><time>2026-04-04T14:18:37.199Z</time></trkpt><trkpt lat="43.0203894" lon="13.0382264"><ele>524.0</ele><time>2026-04-04T14:18:38.198Z</time></trkpt><trkpt lat="43.0203598" lon="13.038478"><ele>524.0</ele><time>2026-04-04T14:18:39.198Z</time></trkpt><trkpt lat="43.0203478" lon="13.038723"><ele>524.0</ele><time>2026-04-04T14:18:40.198Z</time></trkpt><trkpt lat="43.0203342" lon="13.0389524"><ele>524.0</ele><time>2026-04-04T14:18:41.198Z</time></trkpt><trkpt lat="43.0203374" lon="13.0391615"><ele>524.0</ele><time>2026-04-04T14:18:42.198Z</time></trkpt><trkpt lat="43.0203814" lon="13.0393782"><ele>523.6666666666666</ele><time>2026-04-04T14:18:43.199Z</time></trkpt><trkpt lat="43.0204569" lon="13.0395996"><ele>523.3333333333334</ele><time>2026-04-04T14:18:44.198Z</time></trkpt><trkpt lat="43.0205548" lon="13.0398325"><ele>523.0</ele><time>2026-04-04T14:18:45.199Z</time></trkpt><trkpt lat="43.0206624" lon="13.0400712"><ele>528.5</ele><time>2026-04-04T14:18:46.198Z</time></trkpt><trkpt lat="43.0207821" lon="13.040331"><ele>534.0</ele><time>2026-04-04T14:18:47.198Z</time></trkpt><trkpt lat="43.0208822" lon="13.040607"><ele>533.3333333333334</ele><time>2026-04-04T14:18:48.199Z</time></trkpt><trkpt lat="43.0209665" lon="13.0408923"><ele>532.6666666666667</ele><time>2026-04-04T14:18:49.198Z</time></trkpt><trkpt lat="43.0210351" lon="13.0411791"><ele>532.0</ele><time>2026-04-04T14:18:50.199Z</time></trkpt><trkpt lat="43.0210886" lon="13.041451"><ele>532.0</ele><time>2026-04-04T14:18:51.198Z</time></trkpt><trkpt lat="43.0211404" lon="13.0417009"><ele>532.0</ele><time>2026-04-04T14:18:52.199Z</time></trkpt><trkpt lat="43.0211892" lon="13.0419479"><ele>532.0</ele><time>2026-04-04T14:18:53.198Z</time></trkpt><trkpt lat="43.0212035" lon="13.04216"><ele>532.0</ele><time>2026-04-04T14:18:54.198Z</time></trkpt><trkpt lat="43.0211805" lon="13.0423749"><ele>532.0</ele><time>2026-04-04T14:18:55.198Z</time></trkpt><trkpt lat="43.0211279" lon="13.0425901"><ele>532.0</ele><time>2026-04-04T14:18:56.198Z</time></trkpt><trkpt lat="43.0210353" lon="13.042787"><ele>531.3333333333334</ele><time>2026-04-04T14:18:57.199Z</time></trkpt><trkpt lat="43.020935" lon="13.042974"><ele>530.6666666666666</ele><time>2026-04-04T14:18:58.199Z</time></trkpt><trkpt lat="43.0208192" lon="13.0431512"><ele>530.0</ele><time>2026-04-04T14:18:59.198Z</time></trkpt><trkpt lat="43.0207128" lon="13.0433271"><ele>536.6666666666666</ele><time>2026-04-04T14:19:00.198Z</time></trkpt><trkpt lat="43.0206243" lon="13.0435158"><ele>543.3333333333334</ele><time>2026-04-04T14:19:01.198Z</time></trkpt><trkpt lat="43.0205636" lon="13.0437289"><ele>550.0</ele><time>2026-04-04T14:19:02.198Z</time></trkpt><trkpt lat="43.020514" lon="13.0439741"><ele>545.3333333333334</ele><time>2026-04-04T14:19:03.198Z</time></trkpt><trkpt lat="43.0204769" lon="13.0442196"><ele>540.6666666666666</ele><time>2026-04-04T14:19:04.198Z</time></trkpt><trkpt lat="43.0204447" lon="13.0444729"><ele>536.0</ele><time>2026-04-04T14:19:05.198Z</time></trkpt><trkpt lat="43.0204088" lon="13.0447178"><ele>536.0</ele><time>2026-04-04T14:19:06.198Z</time></trkpt><trkpt lat="43.0203696" lon="13.044947"><ele>536.0</ele><time>2026-04-04T14:19:07.198Z</time></trkpt><trkpt lat="43.0203203" lon="13.0451805"><ele>536.0</ele><time>2026-04-04T14:19:08.198Z</time></trkpt><trkpt lat="43.0202417" lon="13.045393"><ele>535.3333333333333</ele><time>2026-04-04T14:19:09.199Z</time></trkpt><trkpt lat="43.0201388" lon="13.0456091"><ele>534.6666666666666</ele><time>2026-04-04T14:19:10.198Z</time></trkpt><trkpt lat="43.0200215" lon="13.0458301"><ele>534.0</ele><time>2026-04-04T14:19:11.198Z</time></trkpt><trkpt lat="43.0198994" lon="13.0460581"><ele>533.3333333333334</ele><time>2026-04-04T14:19:12.198Z</time></trkpt><trkpt lat="43.0197786" lon="13.0462967"><ele>532.6666666666667</ele><time>2026-04-04T14:19:13.198Z</time></trkpt><trkpt lat="43.0196575" lon="13.0465303"><ele>532.0</ele><time>2026-04-04T14:19:14.198Z</time></trkpt><trkpt lat="43.0195359" lon="13.0467531"><ele>532.0</ele><time>2026-04-04T14:19:15.198Z</time></trkpt><trkpt lat="43.0194154" lon="13.0469701"><ele>532.0</ele><time>2026-04-04T14:19:16.198Z</time></trkpt><trkpt lat="43.0192959" lon="13.04717"><ele>532.0</ele><time>2026-04-04T14:19:17.198Z</time></trkpt><trkpt lat="43.0191757" lon="13.0473744"><ele>532.6666666666667</ele><time>2026-04-04T14:19:18.198Z</time></trkpt><trkpt lat="43.0190421" lon="13.0475499"><ele>533.3333333333334</ele><time>2026-04-04T14:19:19.198Z</time></trkpt><trkpt lat="43.0188967" lon="13.0477136"><ele>534.0</ele><time>2026-04-04T14:19:20.198Z</time></trkpt><trkpt lat="43.0187403" lon="13.0478545"><ele>534.0</ele><time>2026-04-04T14:19:21.198Z</time></trkpt><trkpt lat="43.018579" lon="13.0479801"><ele>534.0</ele><time>2026-04-04T14:19:22.198Z</time></trkpt><trkpt lat="43.0184098" lon="13.0480678"><ele>534.0</ele><time>2026-04-04T14:19:23.198Z</time></trkpt><trkpt lat="43.018246" lon="13.0481442"><ele>535.75</ele><time>2026-04-04T14:19:24.198Z</time></trkpt><trkpt lat="43.0180958" lon="13.0481987"><ele>537.5</ele><time>2026-04-04T14:19:25.198Z</time></trkpt><trkpt lat="43.0179565" lon="13.048241"><ele>539.25</ele><time>2026-04-04T14:19:26.198Z</time></trkpt><trkpt lat="43.017826" lon="13.0482515"><ele>541.0</ele><time>2026-04-04T14:19:27.199Z</time></trkpt><trkpt lat="43.0176987" lon="13.0481746"><ele>541.0</ele><time>2026-04-04T14:19:28.198Z</time></trkpt><trkpt lat="43.0175801" lon="13.0479933"><ele>541.0</ele><time>2026-04-04T14:19:29.199Z</time></trkpt><trkpt lat="43.017453" lon="13.0478438"><ele>541.0</ele><time>2026-04-04T14:19:30.198Z</time></trkpt><trkpt lat="43.0173306" lon="13.0477178"><ele>543.0</ele><time>2026-04-04T14:19:31.198Z</time></trkpt><trkpt lat="43.0172005" lon="13.047624"><ele>545.0</ele><time>2026-04-04T14:19:32.198Z</time></trkpt><trkpt lat="43.017055" lon="13.0475725"><ele>547.0</ele><time>2026-04-04T14:19:33.198Z</time></trkpt><trkpt lat="43.01689" lon="13.047559"><ele>547.0</ele><time>2026-04-04T14:19:34.198Z</time></trkpt><trkpt lat="43.016717" lon="13.0475445"><ele>547.0</ele><time>2026-04-04T14:19:35.198Z</time></trkpt><trkpt lat="43.0165374" lon="13.0475367"><ele>547.0</ele><time>2026-04-04T14:19:36.199Z</time></trkpt><trkpt lat="43.0163597" lon="13.0475156"><ele>546.0</ele><time>2026-04-04T14:19:37.198Z</time></trkpt><trkpt lat="43.0161841" lon="13.0474567"><ele>545.0</ele><time>2026-04-04T14:19:38.198Z</time></trkpt><trkpt lat="43.0160215" lon="13.0473808"><ele>544.0</ele><time>2026-04-04T14:19:39.198Z</time></trkpt><trkpt lat="43.0158629" lon="13.0472698"><ele>545.0</ele><time>2026-04-04T14:19:40.198Z</time></trkpt><trkpt lat="43.0157265" lon="13.0471288"><ele>546.0</ele><time>2026-04-04T14:19:41.198Z</time></trkpt><trkpt lat="43.0155982" lon="13.0469778"><ele>547.0</ele><time>2026-04-04T14:19:42.199Z</time></trkpt><trkpt lat="43.0154738" lon="13.0468318"><ele>547.0</ele><time>2026-04-04T14:19:43.198Z</time></trkpt><trkpt lat="43.0153448" lon="13.0467241"><ele>547.0</ele><time>2026-04-04T14:19:44.198Z</time></trkpt><trkpt lat="43.0151989" lon="13.0466384"><ele>547.0</ele><time>2026-04-04T14:19:45.198Z</time></trkpt><trkpt lat="43.0150405" lon="13.0465871"><ele>547.3333333333334</ele><time>2026-04-04T14:19:46.199Z</time></trkpt><trkpt lat="43.0148677" lon="13.0465687"><ele>547.6666666666666</ele><time>2026-04-04T14:19:47.198Z</time></trkpt><trkpt lat="43.0146835" lon="13.0465656"><ele>548.0</ele><time>2026-04-04T14:19:48.199Z</time></trkpt><trkpt lat="43.0144997" lon="13.046578"><ele>548.0</ele><time>2026-04-04T14:19:49.198Z</time></trkpt><trkpt lat="43.0143238" lon="13.0465784"><ele>548.0</ele><time>2026-04-04T14:19:50.199Z</time></trkpt><trkpt lat="43.0141572" lon="13.0465481"><ele>548.0</ele><time>2026-04-04T14:19:51.198Z</time></trkpt><trkpt lat="43.0139939" lon="13.0465019"><ele>551.3333333333333</ele><time>2026-04-04T14:19:52.198Z</time></trkpt><trkpt lat="43.0138231" lon="13.0463816"><ele>554.6666666666666</ele><time>2026-04-04T14:19:53.198Z</time></trkpt><trkpt lat="43.0137205" lon="13.0461535"><ele>558.0</ele><time>2026-04-04T14:19:54.198Z</time></trkpt><trkpt lat="43.0135886" lon="13.0459523"><ele>557.0</ele><time>2026-04-04T14:19:55.199Z</time></trkpt><trkpt lat="43.0134714" lon="13.0457741"><ele>556.0</ele><time>2026-04-04T14:19:56.199Z</time></trkpt><trkpt lat="43.0133587" lon="13.0456172"><ele>555.0</ele><time>2026-04-04T14:19:57.199Z</time></trkpt><trkpt lat="43.013244" lon="13.0454731"><ele>554.6666666666666</ele><time>2026-04-04T14:19:58.198Z</time></trkpt><trkpt lat="43.013116" lon="13.0453557"><ele>554.3333333333333</ele><time>2026-04-04T14:19:59.198Z</time></trkpt><trkpt lat="43.0129724" lon="13.0452519"><ele>554.0</ele><time>2026-04-04T14:20:00.199Z</time></trkpt><trkpt lat="43.0128203" lon="13.0451703"><ele>554.0</ele><time>2026-04-04T14:20:01.198Z</time></trkpt><trkpt lat="43.0126663" lon="13.0451041"><ele>554.0</ele><time>2026-04-04T14:20:02.199Z</time></trkpt><trkpt lat="43.0125099" lon="13.0450587"><ele>554.0</ele><time>2026-04-04T14:20:03.198Z</time></trkpt><trkpt lat="43.0123567" lon="13.0450339"><ele>554.25</ele><time>2026-04-04T14:20:04.198Z</time></trkpt><trkpt lat="43.0122088" lon="13.0450462"><ele>554.5</ele><time>2026-04-04T14:20:05.198Z</time></trkpt><trkpt lat="43.0120677" lon="13.0451083"><ele>554.75</ele><time>2026-04-04T14:20:06.198Z</time></trkpt><trkpt lat="43.0119397" lon="13.0452166"><ele>555.0</ele><time>2026-04-04T14:20:07.198Z</time></trkpt><trkpt lat="43.0118116" lon="13.0453527"><ele>555.0</ele><time>2026-04-04T14:20:08.199Z</time></trkpt><trkpt lat="43.0116827" lon="13.0455639"><ele>555.0</ele><time>2026-04-04T14:20:09.199Z</time></trkpt><trkpt lat="43.0115603" lon="13.045766"><ele>555.0</ele><time>2026-04-04T14:20:10.198Z</time></trkpt><trkpt lat="43.0114426" lon="13.0459872"><ele>555.0</ele><time>2026-04-04T14:20:11.198Z</time></trkpt><trkpt lat="43.0113119" lon="13.0462047"><ele>555.0</ele><time>2026-04-04T14:20:12.198Z</time></trkpt><trkpt lat="43.0111834" lon="13.0464195"><ele>555.0</ele><time>2026-04-04T14:20:13.198Z</time></trkpt><trkpt lat="43.0110571" lon="13.0466356"><ele>553.0</ele><time>2026-04-04T14:20:14.198Z</time></trkpt><trkpt lat="43.010933" lon="13.0468448"><ele>551.0</ele><time>2026-04-04T14:20:15.198Z</time></trkpt><trkpt lat="43.010809" lon="13.0470367"><ele>549.0</ele><time>2026-04-04T14:20:16.198Z</time></trkpt><trkpt lat="43.01069" lon="13.0472286"><ele>549.0</ele><time>2026-04-04T14:20:17.198Z</time></trkpt><trkpt lat="43.0105642" lon="13.0474206"><ele>549.0</ele><time>2026-04-04T14:20:18.198Z</time></trkpt><trkpt lat="43.0104266" lon="13.0475683"><ele>549.0</ele><time>2026-04-04T14:20:19.198Z</time></trkpt><trkpt lat="43.010263" lon="13.0476843"><ele>549.6666666666666</ele><time>2026-04-04T14:20:20.198Z</time></trkpt><trkpt lat="43.0100868" lon="13.0477952"><ele>550.3333333333333</ele><time>2026-04-04T14:20:21.198Z</time></trkpt><trkpt lat="43.009871" lon="13.0478534"><ele>551.0</ele><time>2026-04-04T14:20:22.199Z</time></trkpt><trkpt lat="43.0096619" lon="13.0479115"><ele>552.0</ele><time>2026-04-04T14:20:23.198Z</time></trkpt><trkpt lat="43.0094421" lon="13.0479867"><ele>553.0</ele><time>2026-04-04T14:20:24.198Z</time></trkpt><trkpt lat="43.009218" lon="13.0480619"><ele>553.0</ele><time>2026-04-04T14:20:25.198Z</time></trkpt><trkpt lat="43.0089875" lon="13.0481499"><ele>553.0</ele><time>2026-04-04T14:20:26.198Z</time></trkpt><trkpt lat="43.0087592" lon="13.0482303"><ele>555.5</ele><time>2026-04-04T14:20:27.199Z</time></trkpt><trkpt lat="43.0085263" lon="13.04831"><ele>558.0</ele><time>2026-04-04T14:20:28.198Z</time></trkpt><trkpt lat="43.0082983" lon="13.0483862"><ele>558.0</ele><time>2026-04-04T14:20:29.198Z</time></trkpt><trkpt lat="43.0080735" lon="13.0484497"><ele>558.0</ele><time>2026-04-04T14:20:30.198Z</time></trkpt><trkpt lat="43.0078436" lon="13.0485102"><ele>558.0</ele><time>2026-04-04T14:20:31.198Z</time></trkpt><trkpt lat="43.0076137" lon="13.0485582"><ele>558.0</ele><time>2026-04-04T14:20:32.198Z</time></trkpt><trkpt lat="43.0073784" lon="13.0485972"><ele>557.5</ele><time>2026-04-04T14:20:33.199Z</time></trkpt><trkpt lat="43.0071489" lon="13.0486362"><ele>557.0</ele><time>2026-04-04T14:20:34.199Z</time></trkpt><trkpt lat="43.0069277" lon="13.0486781"><ele>557.0</ele><time>2026-04-04T14:20:35.199Z</time></trkpt><trkpt lat="43.006703" lon="13.0487223"><ele>557.0</ele><time>2026-04-04T14:20:36.198Z</time></trkpt><trkpt lat="43.0064791" lon="13.0487687"><ele>558.5</ele><time>2026-04-04T14:20:37.198Z</time></trkpt><trkpt lat="43.0062595" lon="13.0488306"><ele>560.0</ele><time>2026-04-04T14:20:38.199Z</time></trkpt><trkpt lat="43.0060313" lon="13.0488989"><ele>560.0</ele><time>2026-04-04T14:20:39.198Z</time></trkpt><trkpt lat="43.0058009" lon="13.048973"><ele>560.0</ele><time>2026-04-04T14:20:40.198Z</time></trkpt><trkpt lat="43.005571" lon="13.0490634"><ele>562.5</ele><time>2026-04-04T14:20:41.199Z</time></trkpt><trkpt lat="43.0053433" lon="13.049151"><ele>565.0</ele><time>2026-04-04T14:20:42.198Z</time></trkpt><trkpt lat="43.0051284" lon="13.0492484"><ele>563.5</ele><time>2026-04-04T14:20:43.198Z</time></trkpt><trkpt lat="43.0049069" lon="13.0493443"><ele>562.0</ele><time>2026-04-04T14:20:44.198Z</time></trkpt><trkpt lat="43.0046854" lon="13.0494282"><ele>562.0</ele><time>2026-04-04T14:20:45.198Z</time></trkpt><trkpt lat="43.0044669" lon="13.0495233"><ele>562.0</ele><time>2026-04-04T14:20:46.198Z</time></trkpt><trkpt lat="43.0042567" lon="13.0496442"><ele>564.0</ele><time>2026-04-04T14:20:47.199Z</time></trkpt><trkpt lat="43.0040463" lon="13.0497611"><ele>566.0</ele><time>2026-04-04T14:20:48.198Z</time></trkpt><trkpt lat="43.0038417" lon="13.0499072"><ele>566.0</ele><time>2026-04-04T14:20:49.198Z</time></trkpt><trkpt lat="43.0036323" lon="13.050066"><ele>566.0</ele><time>2026-04-04T14:20:50.198Z</time></trkpt><trkpt lat="43.0034323" lon="13.0502185"><ele>566.5</ele><time>2026-04-04T14:20:51.199Z</time></trkpt><trkpt lat="43.0032308" lon="13.050376"><ele>567.0</ele><time>2026-04-04T14:20:52.198Z</time></trkpt><trkpt lat="43.0030316" lon="13.0505134"><ele>567.0</ele><time>2026-04-04T14:20:53.198Z</time></trkpt><trkpt lat="43.0028378" lon="13.0506565"><ele>567.0</ele><time>2026-04-04T14:20:54.198Z</time></trkpt><trkpt lat="43.0026542" lon="13.0507999"><ele>567.0</ele><time>2026-04-04T14:20:55.198Z</time></trkpt><trkpt lat="43.0024667" lon="13.0509472"><ele>567.0</ele><time>2026-04-04T14:20:56.198Z</time></trkpt><trkpt lat="43.0022797" lon="13.0511003"><ele>567.0</ele><time>2026-04-04T14:20:57.198Z</time></trkpt><trkpt lat="43.0020949" lon="13.0512538"><ele>567.0</ele><time>2026-04-04T14:20:58.199Z</time></trkpt><trkpt lat="43.0019116" lon="13.0514118"><ele>567.0</ele><time>2026-04-04T14:20:59.198Z</time></trkpt><trkpt lat="43.0017311" lon="13.0515823"><ele>567.0</ele><time>2026-04-04T14:21:00.198Z</time></trkpt><trkpt lat="43.0015502" lon="13.051755"><ele>567.0</ele><time>2026-04-04T14:21:01.198Z</time></trkpt><trkpt lat="43.0013743" lon="13.0519294"><ele>567.0</ele><time>2026-04-04T14:21:02.199Z</time></trkpt><trkpt lat="43.0012009" lon="13.052104"><ele>567.0</ele><time>2026-04-04T14:21:03.199Z</time></trkpt><trkpt lat="43.0010326" lon="13.0522724"><ele>567.0</ele><time>2026-04-04T14:21:04.198Z</time></trkpt><trkpt lat="43.0008708" lon="13.0524356"><ele>568.3333333333334</ele><time>2026-04-04T14:21:05.198Z</time></trkpt><trkpt lat="43.0007217" lon="13.0525896"><ele>569.6666666666667</ele><time>2026-04-04T14:21:06.199Z</time></trkpt><trkpt lat="43.0005736" lon="13.0527414"><ele>571.0</ele><time>2026-04-04T14:21:07.199Z</time></trkpt><trkpt lat="43.0004262" lon="13.0528961"><ele>571.0</ele><time>2026-04-04T14:21:08.199Z</time></trkpt><trkpt lat="43.0002836" lon="13.0530625"><ele>571.0</ele><time>2026-04-04T14:21:09.199Z</time></trkpt><trkpt lat="43.0001478" lon="13.053227"><ele>571.0</ele><time>2026-04-04T14:21:10.198Z</time></trkpt><trkpt lat="43.000011" lon="13.0533936"><ele>572.0</ele><time>2026-04-04T14:21:11.198Z</time></trkpt><trkpt lat="42.9998825" lon="13.0535653"><ele>573.0</ele><time>2026-04-04T14:21:12.198Z</time></trkpt><trkpt lat="42.9997504" lon="13.0537496"><ele>574.0</ele><time>2026-04-04T14:21:13.198Z</time></trkpt><trkpt lat="42.9996188" lon="13.0539415"><ele>577.6666666666667</ele><time>2026-04-04T14:21:14.199Z</time></trkpt><trkpt lat="42.9994927" lon="13.05414"><ele>581.3333333333334</ele><time>2026-04-04T14:21:15.198Z</time></trkpt><trkpt lat="42.9993688" lon="13.0543374"><ele>585.0</ele><time>2026-04-04T14:21:16.199Z</time></trkpt><trkpt lat="42.9992452" lon="13.0545309"><ele>584.0</ele><time>2026-04-04T14:21:17.198Z</time></trkpt><trkpt lat="42.9991245" lon="13.0547293"><ele>583.0</ele><time>2026-04-04T14:21:18.198Z</time></trkpt><trkpt lat="42.9990039" lon="13.0549239"><ele>582.0</ele><time>2026-04-04T14:21:19.199Z</time></trkpt><trkpt lat="42.9988827" lon="13.0551189"><ele>582.0</ele><time>2026-04-04T14:21:20.198Z</time></trkpt><trkpt lat="42.9987581" lon="13.0553093"><ele>582.0</ele><time>2026-04-04T14:21:21.198Z</time></trkpt><trkpt lat="42.9986325" lon="13.0555033"><ele>582.0</ele><time>2026-04-04T14:21:22.198Z</time></trkpt><trkpt lat="42.9985074" lon="13.0556994"><ele>581.3333333333334</ele><time>2026-04-04T14:21:23.198Z</time></trkpt><trkpt lat="42.9983826" lon="13.0558997"><ele>580.6666666666667</ele><time>2026-04-04T14:21:24.198Z</time></trkpt><trkpt lat="42.9982552" lon="13.0561026"><ele>580.0</ele><time>2026-04-04T14:21:25.199Z</time></trkpt><trkpt lat="42.9981275" lon="13.0563088"><ele>580.0</ele><time>2026-04-04T14:21:26.198Z</time></trkpt><trkpt lat="42.9980099" lon="13.0565176"><ele>580.0</ele><time>2026-04-04T14:21:27.198Z</time></trkpt><trkpt lat="42.9978905" lon="13.0567321"><ele>580.0</ele><time>2026-04-04T14:21:28.198Z</time></trkpt><trkpt lat="42.9977726" lon="13.0569492"><ele>580.0</ele><time>2026-04-04T14:21:29.198Z</time></trkpt><trkpt lat="42.9976518" lon="13.0571697"><ele>580.0</ele><time>2026-04-04T14:21:30.199Z</time></trkpt><trkpt lat="42.9975435" lon="13.0574009"><ele>580.0</ele><time>2026-04-04T14:21:31.198Z</time></trkpt><trkpt lat="42.9974475" lon="13.0576458"><ele>580.0</ele><time>2026-04-04T14:21:32.198Z</time></trkpt><trkpt lat="42.9973425" lon="13.0579038"><ele>580.0</ele><time>2026-04-04T14:21:33.198Z</time></trkpt><trkpt lat="42.9972306" lon="13.058169"><ele>580.0</ele><time>2026-04-04T14:21:34.198Z</time></trkpt><trkpt lat="42.9971241" lon="13.0584325"><ele>580.3333333333334</ele><time>2026-04-04T14:21:35.199Z</time></trkpt><trkpt lat="42.9970253" lon="13.0586943"><ele>580.6666666666666</ele><time>2026-04-04T14:21:36.198Z</time></trkpt><trkpt lat="42.996927" lon="13.0589513"><ele>581.0</ele><time>2026-04-04T14:21:37.198Z</time></trkpt><trkpt lat="42.9968278" lon="13.0592142"><ele>581.3333333333333</ele><time>2026-04-04T14:21:38.199Z</time></trkpt><trkpt lat="42.9967336" lon="13.0594804"><ele>581.6666666666666</ele><time>2026-04-04T14:21:39.199Z</time></trkpt><trkpt lat="42.9966492" lon="13.0597505"><ele>582.0</ele><time>2026-04-04T14:21:40.198Z</time></trkpt><trkpt lat="42.9965807" lon="13.0600266"><ele>582.6666666666666</ele><time>2026-04-04T14:21:41.198Z</time></trkpt><trkpt lat="42.996525" lon="13.0603125"><ele>583.3333333333333</ele><time>2026-04-04T14:21:42.198Z</time></trkpt><trkpt lat="42.996493" lon="13.0606037"><ele>584.0</ele><time>2026-04-04T14:21:43.198Z</time></trkpt><trkpt lat="42.9964803" lon="13.0608999"><ele>586.3333333333333</ele><time>2026-04-04T14:21:44.198Z</time></trkpt><trkpt lat="42.9964837" lon="13.0611983"><ele>588.6666666666666</ele><time>2026-04-04T14:21:45.198Z</time></trkpt><trkpt lat="42.996494" lon="13.0614957"><ele>591.0</ele><time>2026-04-04T14:21:46.199Z</time></trkpt><trkpt lat="42.9965155" lon="13.0617825"><ele>591.6666666666666</ele><time>2026-04-04T14:21:47.198Z</time></trkpt><trkpt lat="42.9965556" lon="13.0620811"><ele>592.3333333333333</ele><time>2026-04-04T14:21:48.199Z</time></trkpt><trkpt lat="42.9965924" lon="13.062374"><ele>593.0</ele><time>2026-04-04T14:21:49.198Z</time></trkpt><trkpt lat="42.9966314" lon="13.0626668"><ele>595.0</ele><time>2026-04-04T14:21:50.198Z</time></trkpt><trkpt lat="42.996671" lon="13.0629575"><ele>597.0</ele><time>2026-04-04T14:21:51.198Z</time></trkpt><trkpt lat="42.9967064" lon="13.0632389"><ele>599.0</ele><time>2026-04-04T14:21:52.199Z</time></trkpt><trkpt lat="42.9967379" lon="13.0635211"><ele>599.0</ele><time>2026-04-04T14:21:53.198Z</time></trkpt><trkpt lat="42.9967626" lon="13.0638014"><ele>599.0</ele><time>2026-04-04T14:21:54.198Z</time></trkpt><trkpt lat="42.9967838" lon="13.0640855"><ele>599.0</ele><time>2026-04-04T14:21:55.198Z</time></trkpt><trkpt lat="42.9968015" lon="13.0643824"><ele>599.6666666666666</ele><time>2026-04-04T14:21:56.198Z</time></trkpt><trkpt lat="42.996789" lon="13.0646759"><ele>600.3333333333334</ele><time>2026-04-04T14:21:57.198Z</time></trkpt><trkpt lat="42.9967534" lon="13.0649791"><ele>601.0</ele><time>2026-04-04T14:21:58.199Z</time></trkpt><trkpt lat="42.9967005" lon="13.0652905"><ele>600.5</ele><time>2026-04-04T14:21:59.199Z</time></trkpt><trkpt lat="42.9966315" lon="13.0656022"><ele>600.0</ele><time>2026-04-04T14:22:00.198Z</time></trkpt><trkpt lat="42.9965452" lon="13.0658928"><ele>600.0</ele><time>2026-04-04T14:22:01.198Z</time></trkpt><trkpt lat="42.9964363" lon="13.0661791"><ele>600.0</ele><time>2026-04-04T14:22:02.198Z</time></trkpt><trkpt lat="42.9963052" lon="13.0664525"><ele>605.0</ele><time>2026-04-04T14:22:03.198Z</time></trkpt><trkpt lat="42.9961614" lon="13.0667221"><ele>610.0</ele><time>2026-04-04T14:22:04.198Z</time></trkpt><trkpt lat="42.9960056" lon="13.06698"><ele>610.0</ele><time>2026-04-04T14:22:05.198Z</time></trkpt><trkpt lat="42.9958443" lon="13.0672354"><ele>610.0</ele><time>2026-04-04T14:22:06.198Z</time></trkpt><trkpt lat="42.9956788" lon="13.0674895"><ele>608.5</ele><time>2026-04-04T14:22:07.198Z</time></trkpt><trkpt lat="42.9955291" lon="13.067747"><ele>607.0</ele><time>2026-04-04T14:22:08.198Z</time></trkpt><trkpt lat="42.9953715" lon="13.0679985"><ele>607.0</ele><time>2026-04-04T14:22:09.198Z</time></trkpt><trkpt lat="42.9952177" lon="13.0682488"><ele>607.0</ele><time>2026-04-04T14:22:10.198Z</time></trkpt><trkpt lat="42.9950711" lon="13.0685007"><ele>606.5</ele><time>2026-04-04T14:22:11.198Z</time></trkpt><trkpt lat="42.9949229" lon="13.0687381"><ele>606.0</ele><time>2026-04-04T14:22:12.198Z</time></trkpt><trkpt lat="42.9947785" lon="13.0689849"><ele>610.0</ele><time>2026-04-04T14:22:13.198Z</time></trkpt><trkpt lat="42.9946207" lon="13.0692067"><ele>614.0</ele><time>2026-04-04T14:22:14.198Z</time></trkpt><trkpt lat="42.9944604" lon="13.0694163"><ele>618.0</ele><time>2026-04-04T14:22:15.199Z</time></trkpt><trkpt lat="42.9942908" lon="13.0696225"><ele>619.0</ele><time>2026-04-04T14:22:16.198Z</time></trkpt><trkpt lat="42.9941277" lon="13.0698103"><ele>620.0</ele><time>2026-04-04T14:22:17.198Z</time></trkpt><trkpt lat="42.9939549" lon="13.0699907"><ele>621.0</ele><time>2026-04-04T14:22:18.198Z</time></trkpt><trkpt lat="42.9937811" lon="13.0701681"><ele>621.0</ele><time>2026-04-04T14:22:19.198Z</time></trkpt><trkpt lat="42.9935932" lon="13.0703213"><ele>621.0</ele><time>2026-04-04T14:22:20.198Z</time></trkpt><trkpt lat="42.9934084" lon="13.0704634"><ele>621.0</ele><time>2026-04-04T14:22:21.199Z</time></trkpt><trkpt lat="42.9932135" lon="13.0705904"><ele>622.6666666666666</ele><time>2026-04-04T14:22:22.198Z</time></trkpt><trkpt lat="42.9930132" lon="13.0707099"><ele>624.3333333333333</ele><time>2026-04-04T14:22:23.199Z</time></trkpt><trkpt lat="42.9928211" lon="13.0708333"><ele>626.0</ele><time>2026-04-04T14:22:24.198Z</time></trkpt><trkpt lat="42.9926268" lon="13.0709477"><ele>622.6666666666666</ele><time>2026-04-04T14:22:25.198Z</time></trkpt><trkpt lat="42.9924325" lon="13.0710595"><ele>619.3333333333334</ele><time>2026-04-04T14:22:26.198Z</time></trkpt><trkpt lat="42.9922371" lon="13.0711678"><ele>616.0</ele><time>2026-04-04T14:22:27.198Z</time></trkpt><trkpt lat="42.9920509" lon="13.0712785"><ele>616.0</ele><time>2026-04-04T14:22:28.198Z</time></trkpt><trkpt lat="42.9918688" lon="13.0713871"><ele>616.0</ele><time>2026-04-04T14:22:29.198Z</time></trkpt><trkpt lat="42.9916804" lon="13.0714959"><ele>616.0</ele><time>2026-04-04T14:22:30.198Z</time></trkpt><trkpt lat="42.9914923" lon="13.0716023"><ele>621.6666666666667</ele><time>2026-04-04T14:22:31.198Z</time></trkpt><trkpt lat="42.9913071" lon="13.0717189"><ele>627.3333333333334</ele><time>2026-04-04T14:22:32.198Z</time></trkpt><trkpt lat="42.9911194" lon="13.0718469"><ele>633.0</ele><time>2026-04-04T14:22:33.198Z</time></trkpt><trkpt lat="42.9909445" lon="13.071992"><ele>631.3333333333334</ele><time>2026-04-04T14:22:34.198Z</time></trkpt><trkpt lat="42.9907571" lon="13.0721459"><ele>629.6666666666667</ele><time>2026-04-04T14:22:35.198Z</time></trkpt><trkpt lat="42.9905812" lon="13.0723073"><ele>628.0</ele><time>2026-04-04T14:22:36.199Z</time></trkpt><trkpt lat="42.9904046" lon="13.0724811"><ele>629.3333333333334</ele><time>2026-04-04T14:22:37.198Z</time></trkpt><trkpt lat="42.9902313" lon="13.0726452"><ele>630.6666666666666</ele><time>2026-04-04T14:22:38.198Z</time></trkpt><trkpt lat="42.9900571" lon="13.072806"><ele>632.0</ele><time>2026-04-04T14:22:39.198Z</time></trkpt><trkpt lat="42.9898855" lon="13.0729704"><ele>632.0</ele><time>2026-04-04T14:22:40.198Z</time></trkpt><trkpt lat="42.9897157" lon="13.0731382"><ele>632.0</ele><time>2026-04-04T14:22:41.199Z</time></trkpt><trkpt lat="42.9895476" lon="13.0733046"><ele>632.0</ele><time>2026-04-04T14:22:42.199Z</time></trkpt><trkpt lat="42.9893762" lon="13.073469"><ele>631.6666666666666</ele><time>2026-04-04T14:22:43.198Z</time></trkpt><trkpt lat="42.9891997" lon="13.0736187"><ele>631.3333333333334</ele><time>2026-04-04T14:22:44.199Z</time></trkpt><trkpt lat="42.9890256" lon="13.0737709"><ele>631.0</ele><time>2026-04-04T14:22:45.198Z</time></trkpt><trkpt lat="42.9888506" lon="13.0739284"><ele>631.0</ele><time>2026-04-04T14:22:46.198Z</time></trkpt><trkpt lat="42.9886552" lon="13.0740471"><ele>631.0</ele><time>2026-04-04T14:22:47.198Z</time></trkpt><trkpt lat="42.9884604" lon="13.0741681"><ele>631.0</ele><time>2026-04-04T14:22:48.199Z</time></trkpt><trkpt lat="42.9882651" lon="13.0742767"><ele>636.3333333333334</ele><time>2026-04-04T14:22:49.199Z</time></trkpt><trkpt lat="42.9880564" lon="13.0743753"><ele>641.6666666666666</ele><time>2026-04-04T14:22:50.198Z</time></trkpt><trkpt lat="42.9878412" lon="13.0744609"><ele>647.0</ele><time>2026-04-04T14:22:51.198Z</time></trkpt><trkpt lat="42.9876267" lon="13.0745477"><ele>642.5</ele><time>2026-04-04T14:22:52.198Z</time></trkpt><trkpt lat="42.9874084" lon="13.074643"><ele>638.0</ele><time>2026-04-04T14:22:53.199Z</time></trkpt><trkpt lat="42.9871974" lon="13.0747565"><ele>638.0</ele><time>2026-04-04T14:22:54.199Z</time></trkpt><trkpt lat="42.9869903" lon="13.0748742"><ele>638.0</ele><time>2026-04-04T14:22:55.199Z</time></trkpt><trkpt lat="42.9867875" lon="13.0749896"><ele>638.0</ele><time>2026-04-04T14:22:56.198Z</time></trkpt><trkpt lat="42.9865833" lon="13.0750972"><ele>642.3333333333333</ele><time>2026-04-04T14:22:57.198Z</time></trkpt><trkpt lat="42.986376" lon="13.0751889"><ele>646.6666666666666</ele><time>2026-04-04T14:22:58.198Z</time></trkpt><trkpt lat="42.9861576" lon="13.075279"><ele>651.0</ele><time>2026-04-04T14:22:59.198Z</time></trkpt><trkpt lat="42.9859364" lon="13.0753431"><ele>652.0</ele><time>2026-04-04T14:23:00.198Z</time></trkpt><trkpt lat="42.985714" lon="13.0753984"><ele>653.0</ele><time>2026-04-04T14:23:01.198Z</time></trkpt><trkpt lat="42.9854913" lon="13.0754465"><ele>653.0</ele><time>2026-04-04T14:23:02.198Z</time></trkpt><trkpt lat="42.9852642" lon="13.0754974"><ele>653.0</ele><time>2026-04-04T14:23:03.198Z</time></trkpt><trkpt lat="42.985044" lon="13.0755551"><ele>652.5</ele><time>2026-04-04T14:23:04.199Z</time></trkpt><trkpt lat="42.9848127" lon="13.0755921"><ele>652.0</ele><time>2026-04-04T14:23:05.198Z</time></trkpt><trkpt lat="42.9845844" lon="13.075643"><ele>652.0</ele><time>2026-04-04T14:23:06.198Z</time></trkpt><trkpt lat="42.9843525" lon="13.075698"><ele>652.0</ele><time>2026-04-04T14:23:07.198Z</time></trkpt><trkpt lat="42.9841223" lon="13.075741"><ele>664.5</ele><time>2026-04-04T14:23:08.199Z</time></trkpt><trkpt lat="42.983892" lon="13.0757753"><ele>677.0</ele><time>2026-04-04T14:23:09.198Z</time></trkpt><trkpt lat="42.9836665" lon="13.0758169"><ele>677.0</ele><time>2026-04-04T14:23:10.198Z</time></trkpt><trkpt lat="42.9834394" lon="13.0758599"><ele>677.0</ele><time>2026-04-04T14:23:11.199Z</time></trkpt><trkpt lat="42.9832103" lon="13.0759034"><ele>676.0</ele><time>2026-04-04T14:23:12.199Z</time></trkpt><trkpt lat="42.9829819" lon="13.0759546"><ele>675.0</ele><time>2026-04-04T14:23:13.198Z</time></trkpt><trkpt lat="42.982756" lon="13.0760144"><ele>675.0</ele><time>2026-04-04T14:23:14.199Z</time></trkpt><trkpt lat="42.9825272" lon="13.0760645"><ele>675.0</ele><time>2026-04-04T14:23:15.198Z</time></trkpt><trkpt lat="42.982299" lon="13.0761157"><ele>674.0</ele><time>2026-04-04T14:23:16.199Z</time></trkpt><trkpt lat="42.9820734" lon="13.0761705"><ele>673.0</ele><time>2026-04-04T14:23:17.198Z</time></trkpt><trkpt lat="42.981846" lon="13.0762197"><ele>673.6666666666667</ele><time>2026-04-04T14:23:18.199Z</time></trkpt><trkpt lat="42.981623" lon="13.0762686"><ele>674.3333333333334</ele><time>2026-04-04T14:23:19.199Z</time></trkpt><trkpt lat="42.9814036" lon="13.0763178"><ele>675.0</ele><time>2026-04-04T14:23:20.198Z</time></trkpt><trkpt lat="42.9811927" lon="13.0763675"><ele>675.0</ele><time>2026-04-04T14:23:21.198Z</time></trkpt><trkpt lat="42.9809931" lon="13.0764118"><ele>675.0</ele><time>2026-04-04T14:23:22.198Z</time></trkpt><trkpt lat="42.9807777" lon="13.0764506"><ele>675.0</ele><time>2026-04-04T14:23:23.198Z</time></trkpt><trkpt lat="42.9805598" lon="13.0764553"><ele>676.3333333333334</ele><time>2026-04-04T14:23:24.198Z</time></trkpt><trkpt lat="42.9803421" lon="13.0764491"><ele>677.6666666666667</ele><time>2026-04-04T14:23:25.198Z</time></trkpt><trkpt lat="42.98014" lon="13.0763709"><ele>679.0</ele><time>2026-04-04T14:23:26.198Z</time></trkpt><trkpt lat="42.9799331" lon="13.076302"><ele>679.0</ele><time>2026-04-04T14:23:27.198Z</time></trkpt><trkpt lat="42.9797219" lon="13.0762189"><ele>679.0</ele><time>2026-04-04T14:23:28.199Z</time></trkpt><trkpt lat="42.9795166" lon="13.0761364"><ele>679.0</ele><time>2026-04-04T14:23:29.198Z</time></trkpt><trkpt lat="42.9793148" lon="13.0760498"><ele>685.0</ele><time>2026-04-04T14:23:30.198Z</time></trkpt><trkpt lat="42.9791037" lon="13.0759789"><ele>691.0</ele><time>2026-04-04T14:23:31.198Z</time></trkpt><trkpt lat="42.9788907" lon="13.0759276"><ele>697.0</ele><time>2026-04-04T14:23:32.198Z</time></trkpt><trkpt lat="42.9786702" lon="13.0758837"><ele>697.0</ele><time>2026-04-04T14:23:33.198Z</time></trkpt><trkpt lat="42.9784538" lon="13.075878"><ele>697.0</ele><time>2026-04-04T14:23:34.199Z</time></trkpt><trkpt lat="42.9782377" lon="13.0759059"><ele>697.0</ele><time>2026-04-04T14:23:35.198Z</time></trkpt><trkpt lat="42.9780245" lon="13.075966"><ele>701.5</ele><time>2026-04-04T14:23:36.198Z</time></trkpt><trkpt lat="42.977809" lon="13.0760511"><ele>706.0</ele><time>2026-04-04T14:23:37.198Z</time></trkpt><trkpt lat="42.9775962" lon="13.0761534"><ele>701.5</ele><time>2026-04-04T14:23:38.198Z</time></trkpt><trkpt lat="42.977387" lon="13.0762744"><ele>697.0</ele><time>2026-04-04T14:23:39.198Z</time></trkpt><trkpt lat="42.9771767" lon="13.076395"><ele>697.0</ele><time>2026-04-04T14:23:40.198Z</time></trkpt><trkpt lat="42.9769631" lon="13.0765115"><ele>697.0</ele><time>2026-04-04T14:23:41.198Z</time></trkpt><trkpt lat="42.9767497" lon="13.0766305"><ele>703.0</ele><time>2026-04-04T14:23:42.198Z</time></trkpt><trkpt lat="42.9765354" lon="13.0767514"><ele>709.0</ele><time>2026-04-04T14:23:43.198Z</time></trkpt><trkpt lat="42.9763247" lon="13.0768763"><ele>709.0</ele><time>2026-04-04T14:23:44.198Z</time></trkpt><trkpt lat="42.9761223" lon="13.0769887"><ele>709.0</ele><time>2026-04-04T14:23:45.198Z</time></trkpt><trkpt lat="42.9759123" lon="13.0771032"><ele>709.0</ele><time>2026-04-04T14:23:46.199Z</time></trkpt><trkpt lat="42.9757037" lon="13.0772164"><ele>713.0</ele><time>2026-04-04T14:23:47.198Z</time></trkpt><trkpt lat="42.9754933" lon="13.0773309"><ele>717.0</ele><time>2026-04-04T14:23:48.198Z</time></trkpt><trkpt lat="42.975306" lon="13.0774296"><ele>721.0</ele><time>2026-04-04T14:23:49.198Z</time></trkpt><trkpt lat="42.9751137" lon="13.0775142"><ele>723.6666666666667</ele><time>2026-04-04T14:23:50.198Z</time></trkpt><trkpt lat="42.9749173" lon="13.0775804"><ele>726.3333333333334</ele><time>2026-04-04T14:23:51.198Z</time></trkpt><trkpt lat="42.9747178" lon="13.0776316"><ele>729.0</ele><time>2026-04-04T14:23:52.198Z</time></trkpt><trkpt lat="42.9745206" lon="13.0776606"><ele>729.0</ele><time>2026-04-04T14:23:53.198Z</time></trkpt><trkpt lat="42.9743327" lon="13.0776309"><ele>729.0</ele><time>2026-04-04T14:23:54.198Z</time></trkpt><trkpt lat="42.9741332" lon="13.0775693"><ele>729.0</ele><time>2026-04-04T14:23:55.198Z</time></trkpt><trkpt lat="42.9739329" lon="13.0775257"><ele>725.3333333333334</ele><time>2026-04-04T14:23:56.198Z</time></trkpt><trkpt lat="42.9737636" lon="13.0774076"><ele>721.6666666666667</ele><time>2026-04-04T14:23:57.199Z</time></trkpt><trkpt lat="42.9735713" lon="13.0773086"><ele>718.0</ele><time>2026-04-04T14:23:58.198Z</time></trkpt><trkpt lat="42.973371" lon="13.0771795"><ele>721.6666666666667</ele><time>2026-04-04T14:23:59.199Z</time></trkpt><trkpt lat="42.9731832" lon="13.0770477"><ele>725.3333333333334</ele><time>2026-04-04T14:24:00.198Z</time></trkpt><trkpt lat="42.9729943" lon="13.0769092"><ele>729.0</ele><time>2026-04-04T14:24:01.199Z</time></trkpt><trkpt lat="42.9728221" lon="13.0767959"><ele>729.0</ele><time>2026-04-04T14:24:02.198Z</time></trkpt><trkpt lat="42.9726227" lon="13.0766777"><ele>729.0</ele><time>2026-04-04T14:24:03.198Z</time></trkpt><trkpt lat="42.9724341" lon="13.0765768"><ele>729.0</ele><time>2026-04-04T14:24:04.198Z</time></trkpt><trkpt lat="42.9722319" lon="13.0765036"><ele>735.3333333333334</ele><time>2026-04-04T14:24:05.199Z</time></trkpt><trkpt lat="42.9720264" lon="13.0764597"><ele>741.6666666666667</ele><time>2026-04-04T14:24:06.198Z</time></trkpt><trkpt lat="42.9718209" lon="13.076431"><ele>748.0</ele><time>2026-04-04T14:24:07.198Z</time></trkpt><trkpt lat="42.9716155" lon="13.0764265"><ele>751.3333333333334</ele><time>2026-04-04T14:24:08.198Z</time></trkpt><trkpt lat="42.9714126" lon="13.0764501"><ele>754.6666666666666</ele><time>2026-04-04T14:24:09.198Z</time></trkpt><trkpt lat="42.9712156" lon="13.0765098"><ele>758.0</ele><time>2026-04-04T14:24:10.198Z</time></trkpt><trkpt lat="42.9710167" lon="13.0765918"><ele>757.6666666666666</ele><time>2026-04-04T14:24:11.198Z</time></trkpt><trkpt lat="42.9708198" lon="13.0766927"><ele>757.3333333333334</ele><time>2026-04-04T14:24:12.198Z</time></trkpt><trkpt lat="42.9706199" lon="13.076805"><ele>757.0</ele><time>2026-04-04T14:24:13.198Z</time></trkpt><trkpt lat="42.9704143" lon="13.0769226"><ele>757.0</ele><time>2026-04-04T14:24:14.198Z</time></trkpt><trkpt lat="42.9702121" lon="13.0770425"><ele>757.0</ele><time>2026-04-04T14:24:15.198Z</time></trkpt><trkpt lat="42.9700081" lon="13.0771614"><ele>757.0</ele><time>2026-04-04T14:24:16.198Z</time></trkpt><trkpt lat="42.9698053" lon="13.0772851"><ele>758.0</ele><time>2026-04-04T14:24:17.198Z</time></trkpt><trkpt lat="42.9696115" lon="13.0773985"><ele>759.0</ele><time>2026-04-04T14:24:18.198Z</time></trkpt><trkpt lat="42.9694082" lon="13.0775191"><ele>760.0</ele><time>2026-04-04T14:24:19.199Z</time></trkpt><trkpt lat="42.9692024" lon="13.077641"><ele>763.5</ele><time>2026-04-04T14:24:20.198Z</time></trkpt><trkpt lat="42.9689962" lon="13.0777587"><ele>767.0</ele><time>2026-04-04T14:24:21.198Z</time></trkpt><trkpt lat="42.9687879" lon="13.0778885"><ele>767.0</ele><time>2026-04-04T14:24:22.198Z</time></trkpt><trkpt lat="42.9685881" lon="13.0780121"><ele>767.0</ele><time>2026-04-04T14:24:23.199Z</time></trkpt><trkpt lat="42.9683871" lon="13.0781336"><ele>767.0</ele><time>2026-04-04T14:24:24.198Z</time></trkpt><trkpt lat="42.9681904" lon="13.0782514"><ele>769.3333333333333</ele><time>2026-04-04T14:24:25.198Z</time></trkpt><trkpt lat="42.9679926" lon="13.0783698"><ele>771.6666666666666</ele><time>2026-04-04T14:24:26.198Z</time></trkpt><trkpt lat="42.9677952" lon="13.0784816"><ele>774.0</ele><time>2026-04-04T14:24:27.199Z</time></trkpt><trkpt lat="42.9675986" lon="13.0785981"><ele>776.6666666666667</ele><time>2026-04-04T14:24:28.199Z</time></trkpt><trkpt lat="42.9674026" lon="13.078717"><ele>779.3333333333334</ele><time>2026-04-04T14:24:29.198Z</time></trkpt><trkpt lat="42.9672215" lon="13.0788258"><ele>782.0</ele><time>2026-04-04T14:24:30.198Z</time></trkpt><trkpt lat="42.9670236" lon="13.0789114"><ele>782.0</ele><time>2026-04-04T14:24:31.199Z</time></trkpt><trkpt lat="42.9668193" lon="13.0790039"><ele>782.0</ele><time>2026-04-04T14:24:32.198Z</time></trkpt><trkpt lat="42.966618" lon="13.0791165"><ele>782.0</ele><time>2026-04-04T14:24:33.198Z</time></trkpt><trkpt lat="42.9664164" lon="13.0792294"><ele>789.0</ele><time>2026-04-04T14:24:34.199Z</time></trkpt><trkpt lat="42.9614571" lon="13.0810433"><ele>789.0</ele><time>2026-04-04T14:24:56.199Z</time></trkpt><trkpt lat="42.9612544" lon="13.0810754"><ele>789.0</ele><time>2026-04-04T14:24:57.198Z</time></trkpt><trkpt lat="42.9610479" lon="13.0811286"><ele>789.0</ele><time>2026-04-04T14:24:58.198Z</time></trkpt><trkpt lat="42.9608555" lon="13.0812078"><ele>789.3333333333333</ele><time>2026-04-04T14:24:59.198Z</time></trkpt><trkpt lat="42.9606541" lon="13.0813203"><ele>789.6666666666666</ele><time>2026-04-04T14:25:00.198Z</time></trkpt><trkpt lat="42.9604473" lon="13.0814517"><ele>790.0</ele><time>2026-04-04T14:25:01.198Z</time></trkpt><trkpt lat="42.9602524" lon="13.0816077"><ele>776.5</ele><time>2026-04-04T14:25:02.198Z</time></trkpt><trkpt lat="42.9600531" lon="13.0817634"><ele>763.0</ele><time>2026-04-04T14:25:03.198Z</time></trkpt><trkpt lat="42.9598599" lon="13.0819267"><ele>757.5</ele><time>2026-04-04T14:25:04.199Z</time></trkpt><trkpt lat="42.9596582" lon="13.0820849"><ele>752.0</ele><time>2026-04-04T14:25:05.198Z</time></trkpt><trkpt lat="42.9594567" lon="13.0822332"><ele>752.0</ele><time>2026-04-04T14:25:06.198Z</time></trkpt><trkpt lat="42.9592632" lon="13.0823784"><ele>752.0</ele><time>2026-04-04T14:25:07.198Z</time></trkpt><trkpt lat="42.9590764" lon="13.082518"><ele>752.0</ele><time>2026-04-04T14:25:08.199Z</time></trkpt><trkpt lat="42.9588897" lon="13.082658"><ele>750.3333333333333</ele><time>2026-04-04T14:25:09.198Z</time></trkpt><trkpt lat="42.958712" lon="13.0828041"><ele>748.6666666666666</ele><time>2026-04-04T14:25:10.198Z</time></trkpt><trkpt lat="42.9585542" lon="13.0829617"><ele>747.0</ele><time>2026-04-04T14:25:11.199Z</time></trkpt><trkpt lat="42.9584099" lon="13.0831294"><ele>747.6666666666666</ele><time>2026-04-04T14:25:12.198Z</time></trkpt><trkpt lat="42.9582846" lon="13.0833049"><ele>748.3333333333333</ele><time>2026-04-04T14:25:13.199Z</time></trkpt><trkpt lat="42.9581673" lon="13.083473"><ele>749.0</ele><time>2026-04-04T14:25:14.199Z</time></trkpt><trkpt lat="42.9580476" lon="13.083612"><ele>749.0</ele><time>2026-04-04T14:25:15.198Z</time></trkpt><trkpt lat="42.9579164" lon="13.0837189"><ele>749.0</ele><time>2026-04-04T14:25:16.198Z</time></trkpt><trkpt lat="42.9577789" lon="13.083791"><ele>749.0</ele><time>2026-04-04T14:25:17.199Z</time></trkpt><trkpt lat="42.9576433" lon="13.0838306"><ele>749.0</ele><time>2026-04-04T14:25:18.198Z</time></trkpt><trkpt lat="42.9575196" lon="13.0838028"><ele>746.75</ele><time>2026-04-04T14:25:19.199Z</time></trkpt><trkpt lat="42.9573978" lon="13.0837366"><ele>744.5</ele><time>2026-04-04T14:25:20.199Z</time></trkpt><trkpt lat="42.9572808" lon="13.0836587"><ele>742.25</ele><time>2026-04-04T14:25:21.198Z</time></trkpt><trkpt lat="42.9571663" lon="13.0834739"><ele>740.0</ele><time>2026-04-04T14:25:22.198Z</time></trkpt><trkpt lat="42.957063" lon="13.0833086"><ele>736.25</ele><time>2026-04-04T14:25:23.198Z</time></trkpt><trkpt lat="42.9569596" lon="13.0831505"><ele>732.5</ele><time>2026-04-04T14:25:24.199Z</time></trkpt><trkpt lat="42.9568615" lon="13.0830075"><ele>728.75</ele><time>2026-04-04T14:25:25.199Z</time></trkpt><trkpt lat="42.9567676" lon="13.0828941"><ele>725.0</ele><time>2026-04-04T14:25:26.198Z</time></trkpt><trkpt lat="42.9566563" lon="13.0828302"><ele>723.0</ele><time>2026-04-04T14:25:27.198Z</time></trkpt><trkpt lat="42.9565425" lon="13.082761"><ele>721.0</ele><time>2026-04-04T14:25:28.198Z</time></trkpt><trkpt lat="42.9563969" lon="13.0828597"><ele>719.0</ele><time>2026-04-04T14:25:29.198Z</time></trkpt><trkpt lat="42.9562784" lon="13.0829284"><ele>717.0</ele><time>2026-04-04T14:25:30.198Z</time></trkpt><trkpt lat="42.9561637" lon="13.0830334"><ele>717.0</ele><time>2026-04-04T14:25:31.198Z</time></trkpt><trkpt lat="42.9560538" lon="13.0831483"><ele>717.0</ele><time>2026-04-04T14:25:32.198Z</time></trkpt><trkpt lat="42.9559812" lon="13.0833381"><ele>717.0</ele><time>2026-04-04T14:25:33.199Z</time></trkpt><trkpt lat="42.9559316" lon="13.0835149"><ele>717.0</ele><time>2026-04-04T14:25:34.198Z</time></trkpt><trkpt lat="42.9558925" lon="13.0836876"><ele>723.25</ele><time>2026-04-04T14:25:35.199Z</time></trkpt><trkpt lat="42.9558787" lon="13.08385"><ele>729.5</ele><time>2026-04-04T14:25:36.198Z</time></trkpt><trkpt lat="42.9558941" lon="13.0840033"><ele>735.75</ele><time>2026-04-04T14:25:37.199Z</time></trkpt><trkpt lat="42.9559613" lon="13.0841706"><ele>742.0</ele><time>2026-04-04T14:25:38.198Z</time></trkpt><trkpt lat="42.9560505" lon="13.0843074"><ele>743.8</ele><time>2026-04-04T14:25:39.198Z</time></trkpt><trkpt lat="42.9561343" lon="13.0844309"><ele>745.6</ele><time>2026-04-04T14:25:40.198Z</time></trkpt><trkpt lat="42.9562199" lon="13.0845405"><ele>747.4</ele><time>2026-04-04T14:25:41.198Z</time></trkpt><trkpt lat="42.9562736" lon="13.084635"><ele>749.1999999999999</ele><time>2026-04-04T14:25:42.198Z</time></trkpt><trkpt lat="42.9563262" lon="13.0847321"><ele>751.0</ele><time>2026-04-04T14:25:43.198Z</time></trkpt><trkpt lat="42.9563573" lon="13.0848259"><ele>751.0</ele><time>2026-04-04T14:25:44.199Z</time></trkpt><trkpt lat="42.9562706" lon="13.0848982"><ele>751.0</ele><time>2026-04-04T14:25:45.198Z</time></trkpt><trkpt lat="42.9562302" lon="13.0849678"><ele>751.0</ele><time>2026-04-04T14:25:46.199Z</time></trkpt><trkpt lat="42.9560116" lon="13.0849984"><ele>751.0</ele><time>2026-04-04T14:25:47.198Z</time></trkpt><trkpt lat="42.9558876" lon="13.085021"><ele>744.5</ele><time>2026-04-04T14:25:48.198Z</time></trkpt><trkpt lat="42.9557643" lon="13.0850547"><ele>738.0</ele><time>2026-04-04T14:25:49.198Z</time></trkpt><trkpt lat="42.9556516" lon="13.0850908"><ele>731.5</ele><time>2026-04-04T14:25:50.199Z</time></trkpt><trkpt lat="42.9555423" lon="13.0850764"><ele>725.0</ele><time>2026-04-04T14:25:51.198Z</time></trkpt><trkpt lat="42.9554277" lon="13.0850687"><ele>723.6666666666666</ele><time>2026-04-04T14:25:52.198Z</time></trkpt><trkpt lat="42.9553006" lon="13.084892"><ele>722.3333333333334</ele><time>2026-04-04T14:25:53.199Z</time></trkpt><trkpt lat="42.9552203" lon="13.0847295"><ele>721.0</ele><time>2026-04-04T14:25:54.198Z</time></trkpt><trkpt lat="42.9551177" lon="13.0845773"><ele>718.0</ele><time>2026-04-04T14:25:55.198Z</time></trkpt><trkpt lat="42.9549989" lon="13.084415"><ele>715.0</ele><time>2026-04-04T14:25:56.198Z</time></trkpt><trkpt lat="42.9548981" lon="13.0842477"><ele>712.0</ele><time>2026-04-04T14:25:57.199Z</time></trkpt><trkpt lat="42.9548205" lon="13.0840663"><ele>708.75</ele><time>2026-04-04T14:25:58.199Z</time></trkpt><trkpt lat="42.9547998" lon="13.083872"><ele>705.5</ele><time>2026-04-04T14:25:59.198Z</time></trkpt><trkpt lat="42.9547473" lon="13.0836972"><ele>702.25</ele><time>2026-04-04T14:26:00.198Z</time></trkpt><trkpt lat="42.9546699" lon="13.0835411"><ele>699.0</ele><time>2026-04-04T14:26:01.199Z</time></trkpt><trkpt lat="42.9545749" lon="13.0834131"><ele>699.0</ele><time>2026-04-04T14:26:02.199Z</time></trkpt><trkpt lat="42.954454" lon="13.0833255"><ele>699.0</ele><time>2026-04-04T14:26:03.199Z</time></trkpt><trkpt lat="42.9543189" lon="13.0832881"><ele>699.0</ele><time>2026-04-04T14:26:04.198Z</time></trkpt><trkpt lat="42.9541575" lon="13.0833092"><ele>699.0</ele><time>2026-04-04T14:26:05.198Z</time></trkpt><trkpt lat="42.9539998" lon="13.0833353"><ele>699.0</ele><time>2026-04-04T14:26:06.199Z</time></trkpt><trkpt lat="42.9538305" lon="13.0833581"><ele>699.0</ele><time>2026-04-04T14:26:07.199Z</time></trkpt><trkpt lat="42.9536656" lon="13.083355"><ele>699.0</ele><time>2026-04-04T14:26:08.198Z</time></trkpt><trkpt lat="42.9534946" lon="13.0833506"><ele>695.0</ele><time>2026-04-04T14:26:09.198Z</time></trkpt><trkpt lat="42.9533317" lon="13.0831946"><ele>691.0</ele><time>2026-04-04T14:26:10.198Z</time></trkpt><trkpt lat="42.9531763" lon="13.083119"><ele>687.0</ele><time>2026-04-04T14:26:11.198Z</time></trkpt><trkpt lat="42.9530129" lon="13.0830548"><ele>687.0</ele><time>2026-04-04T14:26:12.198Z</time></trkpt><trkpt lat="42.952851" lon="13.0830203"><ele>687.0</ele><time>2026-04-04T14:26:13.198Z</time></trkpt><trkpt lat="42.9526795" lon="13.0830333"><ele>687.0</ele><time>2026-04-04T14:26:14.198Z</time></trkpt><trkpt lat="42.9525088" lon="13.0830753"><ele>684.6666666666666</ele><time>2026-04-04T14:26:15.198Z</time></trkpt><trkpt lat="42.952337" lon="13.083114"><ele>682.3333333333333</ele><time>2026-04-04T14:26:16.198Z</time></trkpt><trkpt lat="42.9521518" lon="13.083166"><ele>680.0</ele><time>2026-04-04T14:26:17.199Z</time></trkpt><trkpt lat="42.9519644" lon="13.0832075"><ele>680.0</ele><time>2026-04-04T14:26:18.198Z</time></trkpt><trkpt lat="42.9517809" lon="13.0832468"><ele>680.0</ele><time>2026-04-04T14:26:19.199Z</time></trkpt><trkpt lat="42.9515984" lon="13.083275"><ele>680.0</ele><time>2026-04-04T14:26:20.198Z</time></trkpt><trkpt lat="42.9514153" lon="13.0833006"><ele>678.6666666666666</ele><time>2026-04-04T14:26:21.198Z</time></trkpt><trkpt lat="42.9512339" lon="13.0832734"><ele>677.3333333333334</ele><time>2026-04-04T14:26:22.198Z</time></trkpt><trkpt lat="42.9510599" lon="13.0832242"><ele>676.0</ele><time>2026-04-04T14:26:23.198Z</time></trkpt><trkpt lat="42.9508884" lon="13.0832065"><ele>676.0</ele><time>2026-04-04T14:26:24.198Z</time></trkpt><trkpt lat="42.9507019" lon="13.0832381"><ele>676.0</ele><time>2026-04-04T14:26:25.198Z</time></trkpt><trkpt lat="42.9505211" lon="13.0832811"><ele>676.0</ele><time>2026-04-04T14:26:26.198Z</time></trkpt><trkpt lat="42.9503426" lon="13.0833278"><ele>677.6666666666667</ele><time>2026-04-04T14:26:27.198Z</time></trkpt><trkpt lat="42.950164" lon="13.0833573"><ele>679.3333333333334</ele><time>2026-04-04T14:26:28.198Z</time></trkpt><trkpt lat="42.9499873" lon="13.083364"><ele>681.0</ele><time>2026-04-04T14:26:29.198Z</time></trkpt><trkpt lat="42.9498105" lon="13.0833953"><ele>677.6666666666666</ele><time>2026-04-04T14:26:30.198Z</time></trkpt><trkpt lat="42.9496378" lon="13.0834624"><ele>674.3333333333333</ele><time>2026-04-04T14:26:31.198Z</time></trkpt><trkpt lat="42.9494686" lon="13.0835663"><ele>671.0</ele><time>2026-04-04T14:26:32.198Z</time></trkpt><trkpt lat="42.9493141" lon="13.083695"><ele>668.6666666666666</ele><time>2026-04-04T14:26:33.199Z</time></trkpt><trkpt lat="42.9491579" lon="13.0838094"><ele>666.3333333333334</ele><time>2026-04-04T14:26:34.198Z</time></trkpt><trkpt lat="42.9489908" lon="13.0838979"><ele>664.0</ele><time>2026-04-04T14:26:35.198Z</time></trkpt><trkpt lat="42.9488091" lon="13.0839576"><ele>664.0</ele><time>2026-04-04T14:26:36.198Z</time></trkpt><trkpt lat="42.9486194" lon="13.0839982"><ele>664.0</ele><time>2026-04-04T14:26:37.198Z</time></trkpt><trkpt lat="42.94843" lon="13.084028"><ele>664.0</ele><time>2026-04-04T14:26:38.198Z</time></trkpt><trkpt lat="42.9482446" lon="13.0840471"><ele>661.0</ele><time>2026-04-04T14:26:39.198Z</time></trkpt><trkpt lat="42.948068" lon="13.084014"><ele>658.0</ele><time>2026-04-04T14:26:40.198Z</time></trkpt><trkpt lat="42.9478965" lon="13.0839881"><ele>655.0</ele><time>2026-04-04T14:26:41.198Z</time></trkpt><trkpt lat="42.9477205" lon="13.0838801"><ele>655.0</ele><time>2026-04-04T14:26:42.199Z</time></trkpt><trkpt lat="42.9475585" lon="13.0837923"><ele>655.0</ele><time>2026-04-04T14:26:43.198Z</time></trkpt><trkpt lat="42.947404" lon="13.083712"><ele>655.0</ele><time>2026-04-04T14:26:44.198Z</time></trkpt><trkpt lat="42.9472521" lon="13.0836193"><ele>654.5</ele><time>2026-04-04T14:26:45.198Z</time></trkpt><trkpt lat="42.9471101" lon="13.0835384"><ele>654.0</ele><time>2026-04-04T14:26:46.198Z</time></trkpt><trkpt lat="42.9469798" lon="13.083466"><ele>653.5</ele><time>2026-04-04T14:26:47.198Z</time></trkpt><trkpt lat="42.9468668" lon="13.0834037"><ele>653.0</ele><time>2026-04-04T14:26:48.198Z</time></trkpt><trkpt lat="42.9467676" lon="13.0833581"><ele>652.4</ele><time>2026-04-04T14:26:49.198Z</time></trkpt><trkpt lat="42.9466649" lon="13.0833123"><ele>651.8</ele><time>2026-04-04T14:26:50.199Z</time></trkpt><trkpt lat="42.946564" lon="13.0832683"><ele>651.2</ele><time>2026-04-04T14:26:51.198Z</time></trkpt><trkpt lat="42.9464583" lon="13.0832421"><ele>650.6</ele><time>2026-04-04T14:26:52.199Z</time></trkpt><trkpt lat="42.9463443" lon="13.0832287"><ele>650.0</ele><time>2026-04-04T14:26:53.198Z</time></trkpt><trkpt lat="42.9462304" lon="13.0832243"><ele>649.3333333333333</ele><time>2026-04-04T14:26:54.199Z</time></trkpt><trkpt lat="42.9461175" lon="13.0832237"><ele>648.6666666666666</ele><time>2026-04-04T14:26:55.198Z</time></trkpt><trkpt lat="42.9460038" lon="13.0832317"><ele>648.0</ele><time>2026-04-04T14:26:56.198Z</time></trkpt><trkpt lat="42.9456634" lon="13.083263"><ele>647.75</ele><time>2026-04-04T14:26:59.198Z</time></trkpt><trkpt lat="42.9455481" lon="13.0832721"><ele>647.5</ele><time>2026-04-04T14:27:00.198Z</time></trkpt><trkpt lat="42.9454284" lon="13.0832784"><ele>647.25</ele><time>2026-04-04T14:27:01.198Z</time></trkpt><trkpt lat="42.9453062" lon="13.0832857"><ele>647.0</ele><time>2026-04-04T14:27:02.198Z</time></trkpt><trkpt lat="42.9451826" lon="13.0833031"><ele>647.0</ele><time>2026-04-04T14:27:03.198Z</time></trkpt><trkpt lat="42.9450604" lon="13.0832992"><ele>647.0</ele><time>2026-04-04T14:27:04.199Z</time></trkpt><trkpt lat="42.944945" lon="13.0833078"><ele>647.0</ele><time>2026-04-04T14:27:05.198Z</time></trkpt><trkpt lat="42.9448276" lon="13.0833243"><ele>647.0</ele><time>2026-04-04T14:27:06.199Z</time></trkpt><trkpt lat="42.9447112" lon="13.0833344"><ele>646.4000000000001</ele><time>2026-04-04T14:27:07.198Z</time></trkpt><trkpt lat="42.9445976" lon="13.0833463"><ele>645.8000000000001</ele><time>2026-04-04T14:27:08.198Z</time></trkpt><trkpt lat="42.944485" lon="13.0833551"><ele>645.2</ele><time>2026-04-04T14:27:09.199Z</time></trkpt><trkpt lat="42.9443745" lon="13.0833748"><ele>644.6</ele><time>2026-04-04T14:27:10.198Z</time></trkpt><trkpt lat="42.9442694" lon="13.083383"><ele>644.0</ele><time>2026-04-04T14:27:11.198Z</time></trkpt><trkpt lat="42.94416" lon="13.0833948"><ele>643.2</ele><time>2026-04-04T14:27:12.198Z</time></trkpt><trkpt lat="42.9440573" lon="13.0834024"><ele>642.4000000000001</ele><time>2026-04-04T14:27:13.199Z</time></trkpt><trkpt lat="42.9439494" lon="13.0834071"><ele>641.6</ele><time>2026-04-04T14:27:14.198Z</time></trkpt><trkpt lat="42.9438452" lon="13.0834193"><ele>640.8</ele><time>2026-04-04T14:27:15.198Z</time></trkpt><trkpt lat="42.9437377" lon="13.083424"><ele>640.0</ele><time>2026-04-04T14:27:16.198Z</time></trkpt><trkpt lat="42.9436308" lon="13.0834248"><ele>640.0</ele><time>2026-04-04T14:27:17.198Z</time></trkpt><trkpt lat="42.9435318" lon="13.0834311"><ele>640.0</ele><time>2026-04-04T14:27:18.198Z</time></trkpt><trkpt lat="42.9434189" lon="13.0834701"><ele>640.0</ele><time>2026-04-04T14:27:19.198Z</time></trkpt><trkpt lat="42.9432984" lon="13.0834632"><ele>640.0</ele><time>2026-04-04T14:27:20.198Z</time></trkpt><trkpt lat="42.9431926" lon="13.0834465"><ele>640.0</ele><time>2026-04-04T14:27:21.198Z</time></trkpt><trkpt lat="42.9430775" lon="13.0834472"><ele>639.25</ele><time>2026-04-04T14:27:22.199Z</time></trkpt><trkpt lat="42.942964" lon="13.083452"><ele>638.5</ele><time>2026-04-04T14:27:23.198Z</time></trkpt><trkpt lat="42.942846" lon="13.083457"><ele>637.75</ele><time>2026-04-04T14:27:24.198Z</time></trkpt><trkpt lat="42.9427342" lon="13.0834537"><ele>637.0</ele><time>2026-04-04T14:27:25.199Z</time></trkpt><trkpt lat="42.9426115" lon="13.0834396"><ele>637.0</ele><time>2026-04-04T14:27:26.198Z</time></trkpt><trkpt lat="42.9424894" lon="13.0834299"><ele>637.0</ele><time>2026-04-04T14:27:27.199Z</time></trkpt><trkpt lat="42.9423614" lon="13.0834204"><ele>637.0</ele><time>2026-04-04T14:27:28.198Z</time></trkpt><trkpt lat="42.9422348" lon="13.0834065"><ele>637.0</ele><time>2026-04-04T14:27:29.198Z</time></trkpt><trkpt lat="42.9421057" lon="13.0833902"><ele>637.0</ele><time>2026-04-04T14:27:30.198Z</time></trkpt><trkpt lat="42.9419715" lon="13.0833704"><ele>637.0</ele><time>2026-04-04T14:27:31.198Z</time></trkpt><trkpt lat="42.9418401" lon="13.0833519"><ele>637.0</ele><time>2026-04-04T14:27:32.198Z</time></trkpt><trkpt lat="42.9417055" lon="13.0833327"><ele>637.0</ele><time>2026-04-04T14:27:33.198Z</time></trkpt><trkpt lat="42.9415804" lon="13.0833106"><ele>636.75</ele><time>2026-04-04T14:27:34.198Z</time></trkpt><trkpt lat="42.9414407" lon="13.0832767"><ele>636.5</ele><time>2026-04-04T14:27:35.198Z</time></trkpt><trkpt lat="42.9413049" lon="13.0832512"><ele>636.25</ele><time>2026-04-04T14:27:36.198Z</time></trkpt><trkpt lat="42.9411548" lon="13.0832063"><ele>636.0</ele><time>2026-04-04T14:27:37.198Z</time></trkpt><trkpt lat="42.9410051" lon="13.0831618"><ele>635.6666666666666</ele><time>2026-04-04T14:27:38.199Z</time></trkpt><trkpt lat="42.940859" lon="13.0831154"><ele>635.3333333333333</ele><time>2026-04-04T14:27:39.198Z</time></trkpt><trkpt lat="42.9407046" lon="13.0830646"><ele>635.0</ele><time>2026-04-04T14:27:40.198Z</time></trkpt><trkpt lat="42.9405512" lon="13.0830245"><ele>635.0</ele><time>2026-04-04T14:27:41.198Z</time></trkpt><trkpt lat="42.9404002" lon="13.0829833"><ele>635.0</ele><time>2026-04-04T14:27:42.198Z</time></trkpt><trkpt lat="42.940241" lon="13.0829249"><ele>635.0</ele><time>2026-04-04T14:27:43.198Z</time></trkpt><trkpt lat="42.940089" lon="13.0828597"><ele>634.3333333333333</ele><time>2026-04-04T14:27:44.198Z</time></trkpt><trkpt lat="42.9399368" lon="13.0827936"><ele>633.6666666666666</ele><time>2026-04-04T14:27:45.198Z</time></trkpt><trkpt lat="42.9397886" lon="13.0827232"><ele>633.0</ele><time>2026-04-04T14:27:46.198Z</time></trkpt><trkpt lat="42.9396393" lon="13.0826479"><ele>633.0</ele><time>2026-04-04T14:27:47.198Z</time></trkpt><trkpt lat="42.9394971" lon="13.0825879"><ele>633.0</ele><time>2026-04-04T14:27:48.198Z</time></trkpt><trkpt lat="42.9393531" lon="13.0825279"><ele>633.0</ele><time>2026-04-04T14:27:49.198Z</time></trkpt><trkpt lat="42.9392133" lon="13.0824729"><ele>633.0</ele><time>2026-04-04T14:27:50.199Z</time></trkpt><trkpt lat="42.9390759" lon="13.0824317"><ele>635.75</ele><time>2026-04-04T14:27:51.198Z</time></trkpt><trkpt lat="42.9389387" lon="13.0823891"><ele>638.5</ele><time>2026-04-04T14:27:52.198Z</time></trkpt><trkpt lat="42.9388083" lon="13.0823533"><ele>641.25</ele><time>2026-04-04T14:27:53.198Z</time></trkpt><trkpt lat="42.9386852" lon="13.0823207"><ele>644.0</ele><time>2026-04-04T14:27:54.199Z</time></trkpt><trkpt lat="42.9385671" lon="13.0822923"><ele>644.0</ele><time>2026-04-04T14:27:55.198Z</time></trkpt><trkpt lat="42.9384493" lon="13.0822691"><ele>644.0</ele><time>2026-04-04T14:27:56.198Z</time></trkpt><trkpt lat="42.9383272" lon="13.0822385"><ele>644.0</ele><time>2026-04-04T14:27:57.199Z</time></trkpt><trkpt lat="42.9382062" lon="13.0822173"><ele>644.0</ele><time>2026-04-04T14:27:58.198Z</time></trkpt><trkpt lat="42.9380885" lon="13.0821949"><ele>641.75</ele><time>2026-04-04T14:27:59.198Z</time></trkpt><trkpt lat="42.9379703" lon="13.0821661"><ele>639.5</ele><time>2026-04-04T14:28:00.198Z</time></trkpt><trkpt lat="42.9378534" lon="13.0821403"><ele>637.25</ele><time>2026-04-04T14:28:01.198Z</time></trkpt><trkpt lat="42.9377373" lon="13.0821113"><ele>635.0</ele><time>2026-04-04T14:28:02.198Z</time></trkpt><trkpt lat="42.937616" lon="13.0820867"><ele>632.75</ele><time>2026-04-04T14:28:03.199Z</time></trkpt><trkpt lat="42.9374986" lon="13.082062"><ele>630.5</ele><time>2026-04-04T14:28:04.198Z</time></trkpt><trkpt lat="42.937384" lon="13.0820402"><ele>628.25</ele><time>2026-04-04T14:28:05.199Z</time></trkpt><trkpt lat="42.9372628" lon="13.0820277"><ele>626.0</ele><time>2026-04-04T14:28:06.198Z</time></trkpt><trkpt lat="42.937149" lon="13.0820218"><ele>626.0</ele><time>2026-04-04T14:28:07.198Z</time></trkpt><trkpt lat="42.9370294" lon="13.0820163"><ele>626.0</ele><time>2026-04-04T14:28:08.198Z</time></trkpt><trkpt lat="42.9369108" lon="13.0820123"><ele>626.0</ele><time>2026-04-04T14:28:09.199Z</time></trkpt><trkpt lat="42.9367985" lon="13.0820158"><ele>626.0</ele><time>2026-04-04T14:28:10.198Z</time></trkpt><trkpt lat="42.9366913" lon="13.0820115"><ele>624.2</ele><time>2026-04-04T14:28:11.198Z</time></trkpt><trkpt lat="42.9365862" lon="13.0820106"><ele>622.4000000000001</ele><time>2026-04-04T14:28:12.198Z</time></trkpt><trkpt lat="42.9364855" lon="13.0820059"><ele>620.6</ele><time>2026-04-04T14:28:13.198Z</time></trkpt><trkpt lat="42.936396" lon="13.0820051"><ele>618.8000000000001</ele><time>2026-04-04T14:28:14.199Z</time></trkpt><trkpt lat="42.9363128" lon="13.0820058"><ele>617.0</ele><time>2026-04-04T14:28:15.198Z</time></trkpt><trkpt lat="42.9362376" lon="13.0820031"><ele>617.0</ele><time>2026-04-04T14:28:16.199Z</time></trkpt><trkpt lat="42.9361746" lon="13.0820014"><ele>617.0</ele><time>2026-04-04T14:28:17.198Z</time></trkpt><trkpt lat="42.9360691" lon="13.0819988"><ele>617.0</ele><time>2026-04-04T14:28:19.198Z</time></trkpt><trkpt lat="42.9360023" lon="13.0820467"><ele>617.0</ele><time>2026-04-04T14:28:21.198Z</time></trkpt><trkpt lat="42.9360257" lon="13.0819651"><ele>617.0</ele><time>2026-04-04T14:29:26.198Z</time></trkpt><trkpt lat="42.9360747" lon="13.0818983"><ele>617.0</ele><time>2026-04-04T14:29:30.198Z</time></trkpt><trkpt lat="42.9361341" lon="13.0818627"><ele>617.0</ele><time>2026-04-04T14:29:35.199Z</time></trkpt><trkpt lat="42.9361807" lon="13.0818033"><ele>617.0</ele><time>2026-04-04T14:29:42.199Z</time></trkpt><trkpt lat="42.9361153" lon="13.0817899"><ele>617.0</ele><time>2026-04-04T14:32:05.198Z</time></trkpt><trkpt lat="42.9361064" lon="13.0819387"><ele>617.0</ele><time>2026-04-04T14:33:32.198Z</time></trkpt><trkpt lat="42.9360607" lon="13.0820102"><ele>617.0</ele><time>2026-04-04T14:34:12.199Z</time></trkpt><trkpt lat="42.9360171" lon="13.0820834"><ele>617.0</ele><time>2026-04-04T14:34:17.198Z</time></trkpt><trkpt lat="42.9359609" lon="13.0821298"><ele>617.0</ele><time>2026-04-04T14:34:22.198Z</time></trkpt><trkpt lat="42.9357731" lon="13.0820025"><ele>616.25</ele><time>2026-04-04T14:39:26.324Z</time></trkpt><trkpt lat="42.9355673" lon="13.0819975"><ele>615.5</ele><time>2026-04-04T14:39:28.2Z</time></trkpt><trkpt lat="42.93546" lon="13.082001"><ele>614.75</ele><time>2026-04-04T14:39:29.201Z</time></trkpt><trkpt lat="42.9353459" lon="13.0820044"><ele>614.0</ele><time>2026-04-04T14:39:30.201Z</time></trkpt><trkpt lat="42.9352651" lon="13.0820262"><ele>614.0</ele><time>2026-04-04T14:39:31.2Z</time></trkpt><trkpt lat="42.9351431" lon="13.0820275"><ele>614.0</ele><time>2026-04-04T14:39:32.2Z</time></trkpt><trkpt lat="42.9350164" lon="13.0820292"><ele>614.0</ele><time>2026-04-04T14:39:33.2Z</time></trkpt><trkpt lat="42.9348813" lon="13.0820272"><ele>614.0</ele><time>2026-04-04T14:39:34.2Z</time></trkpt><trkpt lat="42.934719" lon="13.0820126"><ele>613.25</ele><time>2026-04-04T14:39:35.2Z</time></trkpt><trkpt lat="42.9345649" lon="13.0819995"><ele>612.5</ele><time>2026-04-04T14:39:36.201Z</time></trkpt><trkpt lat="42.9344168" lon="13.0819866"><ele>611.75</ele><time>2026-04-04T14:39:37.2Z</time></trkpt><trkpt lat="42.9342802" lon="13.0819705"><ele>611.0</ele><time>2026-04-04T14:39:38.201Z</time></trkpt><trkpt lat="42.934152" lon="13.0819772"><ele>611.0</ele><time>2026-04-04T14:39:39.201Z</time></trkpt><trkpt lat="42.9340275" lon="13.0819978"><ele>611.0</ele><time>2026-04-04T14:39:40.2Z</time></trkpt><trkpt lat="42.9338983" lon="13.0820582"><ele>611.0</ele><time>2026-04-04T14:39:41.201Z</time></trkpt><trkpt lat="42.9337866" lon="13.0821262"><ele>611.0</ele><time>2026-04-04T14:39:42.2Z</time></trkpt><trkpt lat="42.9336854" lon="13.0822171"><ele>611.0</ele><time>2026-04-04T14:39:43.201Z</time></trkpt><trkpt lat="42.9335932" lon="13.0823223"><ele>611.0</ele><time>2026-04-04T14:39:44.201Z</time></trkpt><trkpt lat="42.9335089" lon="13.0824398"><ele>611.0</ele><time>2026-04-04T14:39:45.201Z</time></trkpt><trkpt lat="42.9334352" lon="13.0825647"><ele>611.0</ele><time>2026-04-04T14:39:46.201Z</time></trkpt><trkpt lat="42.9333608" lon="13.082689"><ele>610.75</ele><time>2026-04-04T14:39:47.2Z</time></trkpt><trkpt lat="42.9332892" lon="13.0828187"><ele>610.5</ele><time>2026-04-04T14:39:48.201Z</time></trkpt><trkpt lat="42.9332147" lon="13.0829485"><ele>610.25</ele><time>2026-04-04T14:39:49.2Z</time></trkpt><trkpt lat="42.9331379" lon="13.0830817"><ele>610.0</ele><time>2026-04-04T14:39:50.2Z</time></trkpt><trkpt lat="42.9330604" lon="13.0832172"><ele>611.0</ele><time>2026-04-04T14:39:51.2Z</time></trkpt><trkpt lat="42.9329828" lon="13.0833588"><ele>612.0</ele><time>2026-04-04T14:39:52.2Z</time></trkpt><trkpt lat="42.9329016" lon="13.0835015"><ele>613.0</ele><time>2026-04-04T14:39:53.201Z</time></trkpt><trkpt lat="42.9328189" lon="13.083645"><ele>614.0</ele><time>2026-04-04T14:39:54.201Z</time></trkpt><trkpt lat="42.9327361" lon="13.0837894"><ele>614.0</ele><time>2026-04-04T14:39:55.2Z</time></trkpt><trkpt lat="42.9326555" lon="13.0839337"><ele>614.0</ele><time>2026-04-04T14:39:56.201Z</time></trkpt><trkpt lat="42.9325838" lon="13.0840652"><ele>614.0</ele><time>2026-04-04T14:39:57.2Z</time></trkpt><trkpt lat="42.9325137" lon="13.0841904"><ele>614.0</ele><time>2026-04-04T14:39:58.2Z</time></trkpt><trkpt lat="42.9324479" lon="13.0843051"><ele>613.0</ele><time>2026-04-04T14:39:59.2Z</time></trkpt><trkpt lat="42.9323932" lon="13.084409"><ele>612.0</ele><time>2026-04-04T14:40:00.201Z</time></trkpt><trkpt lat="42.9323423" lon="13.0844956"><ele>611.0</ele><time>2026-04-04T14:40:01.2Z</time></trkpt><trkpt lat="42.9322536" lon="13.084584"><ele>610.0</ele><time>2026-04-04T14:40:03.2Z</time></trkpt><trkpt lat="42.932191" lon="13.0845436"><ele>609.0</ele><time>2026-04-04T14:40:04.2Z</time></trkpt><trkpt lat="42.9321267" lon="13.084494"><ele>608.0</ele><time>2026-04-04T14:40:05.201Z</time></trkpt><trkpt lat="42.932067" lon="13.0844376"><ele>608.0</ele><time>2026-04-04T14:40:06.2Z</time></trkpt><trkpt lat="42.9320036" lon="13.0843792"><ele>608.0</ele><time>2026-04-04T14:40:07.201Z</time></trkpt><trkpt lat="42.9319381" lon="13.084322"><ele>608.0</ele><time>2026-04-04T14:40:08.201Z</time></trkpt><trkpt lat="42.9318762" lon="13.0842737"><ele>608.0</ele><time>2026-04-04T14:40:09.2Z</time></trkpt><trkpt lat="42.9318222" lon="13.0842247"><ele>608.0</ele><time>2026-04-04T14:40:10.2Z</time></trkpt><trkpt lat="42.9317695" lon="13.0841616"><ele>608.0</ele><time>2026-04-04T14:40:11.2Z</time></trkpt><trkpt lat="42.931716" lon="13.0840121"><ele>608.3333333333333</ele><time>2026-04-04T14:40:13.2Z</time></trkpt><trkpt lat="42.9317042" lon="13.0839225"><ele>608.6666666666666</ele><time>2026-04-04T14:40:14.201Z</time></trkpt><trkpt lat="42.9317019" lon="13.0838175"><ele>609.0</ele><time>2026-04-04T14:40:15.2Z</time></trkpt><trkpt lat="42.93171" lon="13.0837135"><ele>609.3333333333334</ele><time>2026-04-04T14:40:16.2Z</time></trkpt><trkpt lat="42.9317453" lon="13.0835877"><ele>609.6666666666667</ele><time>2026-04-04T14:40:17.2Z</time></trkpt><trkpt lat="42.9317866" lon="13.0834438"><ele>610.0</ele><time>2026-04-04T14:40:18.201Z</time></trkpt><trkpt lat="42.9318143" lon="13.0832945"><ele>610.0</ele><time>2026-04-04T14:40:19.2Z</time></trkpt><trkpt lat="42.9318495" lon="13.0831286"><ele>610.0</ele><time>2026-04-04T14:40:20.2Z</time></trkpt><trkpt lat="42.9318806" lon="13.082958"><ele>610.0</ele><time>2026-04-04T14:40:21.2Z</time></trkpt><trkpt lat="42.9319242" lon="13.0827893"><ele>610.0</ele><time>2026-04-04T14:40:22.201Z</time></trkpt><trkpt lat="42.9319672" lon="13.0826127"><ele>609.25</ele><time>2026-04-04T14:40:23.2Z</time></trkpt><trkpt lat="42.9320141" lon="13.0824251"><ele>608.5</ele><time>2026-04-04T14:40:24.2Z</time></trkpt><trkpt lat="42.9320597" lon="13.0822373"><ele>607.75</ele><time>2026-04-04T14:40:25.201Z</time></trkpt><trkpt lat="42.9321062" lon="13.0820479"><ele>607.0</ele><time>2026-04-04T14:40:26.2Z</time></trkpt><trkpt lat="42.9321445" lon="13.081862"><ele>607.0</ele><time>2026-04-04T14:40:27.2Z</time></trkpt><trkpt lat="42.9321846" lon="13.0816716"><ele>607.0</ele><time>2026-04-04T14:40:28.201Z</time></trkpt><trkpt lat="42.9322241" lon="13.0814785"><ele>607.0</ele><time>2026-04-04T14:40:29.2Z</time></trkpt><trkpt lat="42.9322723" lon="13.0812856"><ele>607.0</ele><time>2026-04-04T14:40:30.2Z</time></trkpt><trkpt lat="42.9323119" lon="13.0811007"><ele>606.5</ele><time>2026-04-04T14:40:31.2Z</time></trkpt><trkpt lat="42.9323586" lon="13.0809152"><ele>606.0</ele><time>2026-04-04T14:40:32.2Z</time></trkpt><trkpt lat="42.9324036" lon="13.0807233"><ele>605.5</ele><time>2026-04-04T14:40:33.2Z</time></trkpt><trkpt lat="42.9324513" lon="13.080534"><ele>605.0</ele><time>2026-04-04T14:40:34.2Z</time></trkpt><trkpt lat="42.9324915" lon="13.0803499"><ele>605.0</ele><time>2026-04-04T14:40:35.2Z</time></trkpt><trkpt lat="42.9325327" lon="13.0801627"><ele>605.0</ele><time>2026-04-04T14:40:36.201Z</time></trkpt><trkpt lat="42.9325756" lon="13.0799816"><ele>605.0</ele><time>2026-04-04T14:40:37.2Z</time></trkpt><trkpt lat="42.9326185" lon="13.0798039"><ele>605.0</ele><time>2026-04-04T14:40:38.2Z</time></trkpt><trkpt lat="42.9326592" lon="13.0796289"><ele>604.75</ele><time>2026-04-04T14:40:39.201Z</time></trkpt><trkpt lat="42.9326962" lon="13.0794523"><ele>604.5</ele><time>2026-04-04T14:40:40.201Z</time></trkpt><trkpt lat="42.9327387" lon="13.0792789"><ele>604.25</ele><time>2026-04-04T14:40:41.201Z</time></trkpt><trkpt lat="42.9327823" lon="13.0791022"><ele>604.0</ele><time>2026-04-04T14:40:42.2Z</time></trkpt><trkpt lat="42.9328209" lon="13.0789268"><ele>604.5</ele><time>2026-04-04T14:40:43.2Z</time></trkpt><trkpt lat="42.9328631" lon="13.0787494"><ele>605.0</ele><time>2026-04-04T14:40:44.2Z</time></trkpt><trkpt lat="42.9329043" lon="13.0785836"><ele>605.5</ele><time>2026-04-04T14:40:45.2Z</time></trkpt><trkpt lat="42.9329434" lon="13.0784226"><ele>606.0</ele><time>2026-04-04T14:40:46.2Z</time></trkpt><trkpt lat="42.9329775" lon="13.0782562"><ele>606.75</ele><time>2026-04-04T14:40:47.2Z</time></trkpt><trkpt lat="42.9330154" lon="13.0780945"><ele>607.5</ele><time>2026-04-04T14:40:48.2Z</time></trkpt><trkpt lat="42.9330503" lon="13.0779452"><ele>608.25</ele><time>2026-04-04T14:40:49.2Z</time></trkpt><trkpt lat="42.9330862" lon="13.077796"><ele>609.0</ele><time>2026-04-04T14:40:50.2Z</time></trkpt><trkpt lat="42.9331136" lon="13.0776348"><ele>609.0</ele><time>2026-04-04T14:40:51.2Z</time></trkpt><trkpt lat="42.933148" lon="13.0774811"><ele>609.0</ele><time>2026-04-04T14:40:52.201Z</time></trkpt><trkpt lat="42.9331788" lon="13.0773377"><ele>609.0</ele><time>2026-04-04T14:40:53.2Z</time></trkpt><trkpt lat="42.9332101" lon="13.0771803"><ele>609.0</ele><time>2026-04-04T14:40:54.201Z</time></trkpt><trkpt lat="42.9332408" lon="13.0770436"><ele>611.0</ele><time>2026-04-04T14:40:55.2Z</time></trkpt><trkpt lat="42.9332719" lon="13.0769026"><ele>613.0</ele><time>2026-04-04T14:40:56.201Z</time></trkpt><trkpt lat="42.9332822" lon="13.0767535"><ele>615.0</ele><time>2026-04-04T14:40:57.201Z</time></trkpt><trkpt lat="42.9332858" lon="13.0765841"><ele>617.0</ele><time>2026-04-04T14:40:58.2Z</time></trkpt><trkpt lat="42.9332885" lon="13.0764008"><ele>619.3333333333333</ele><time>2026-04-04T14:40:59.2Z</time></trkpt><trkpt lat="42.9332754" lon="13.0761967"><ele>621.6666666666666</ele><time>2026-04-04T14:41:00.201Z</time></trkpt><trkpt lat="42.9332617" lon="13.0759884"><ele>624.0</ele><time>2026-04-04T14:41:01.2Z</time></trkpt><trkpt lat="42.9332464" lon="13.0757797"><ele>626.0</ele><time>2026-04-04T14:41:02.2Z</time></trkpt><trkpt lat="42.9332233" lon="13.0755597"><ele>628.0</ele><time>2026-04-04T14:41:03.201Z</time></trkpt><trkpt lat="42.9331983" lon="13.0753447"><ele>630.0</ele><time>2026-04-04T14:41:04.201Z</time></trkpt><trkpt lat="42.9331791" lon="13.0751204"><ele>638.6666666666666</ele><time>2026-04-04T14:41:05.201Z</time></trkpt><trkpt lat="42.9331501" lon="13.07489"><ele>647.3333333333333</ele><time>2026-04-04T14:41:06.201Z</time></trkpt><trkpt lat="42.9331167" lon="13.0746566"><ele>656.0</ele><time>2026-04-04T14:41:07.2Z</time></trkpt><trkpt lat="42.9330874" lon="13.0744245"><ele>656.0</ele><time>2026-04-04T14:41:08.2Z</time></trkpt><trkpt lat="42.9330584" lon="13.0741978"><ele>656.0</ele><time>2026-04-04T14:41:09.201Z</time></trkpt><trkpt lat="42.9330345" lon="13.0739848"><ele>656.0</ele><time>2026-04-04T14:41:10.2Z</time></trkpt><trkpt lat="42.9330033" lon="13.073786"><ele>656.75</ele><time>2026-04-04T14:41:11.2Z</time></trkpt><trkpt lat="42.9329643" lon="13.073602"><ele>657.5</ele><time>2026-04-04T14:41:12.201Z</time></trkpt><trkpt lat="42.9329088" lon="13.0734323"><ele>658.25</ele><time>2026-04-04T14:41:13.2Z</time></trkpt><trkpt lat="42.9328243" lon="13.0732686"><ele>659.0</ele><time>2026-04-04T14:41:14.201Z</time></trkpt><trkpt lat="42.932707" lon="13.0731365"><ele>661.3333333333333</ele><time>2026-04-04T14:41:15.2Z</time></trkpt><trkpt lat="42.9325714" lon="13.073025"><ele>663.6666666666666</ele><time>2026-04-04T14:41:16.2Z</time></trkpt><trkpt lat="42.9324259" lon="13.0729085"><ele>666.0</ele><time>2026-04-04T14:41:17.201Z</time></trkpt><trkpt lat="42.9322713" lon="13.0728001"><ele>661.3333333333334</ele><time>2026-04-04T14:41:18.2Z</time></trkpt><trkpt lat="42.9321117" lon="13.0726785"><ele>656.6666666666667</ele><time>2026-04-04T14:41:19.2Z</time></trkpt><trkpt lat="42.9319634" lon="13.0725334"><ele>652.0</ele><time>2026-04-04T14:41:20.2Z</time></trkpt><trkpt lat="42.9318076" lon="13.0723536"><ele>639.6666666666667</ele><time>2026-04-04T14:41:21.201Z</time></trkpt><trkpt lat="42.9316638" lon="13.0721692"><ele>627.3333333333334</ele><time>2026-04-04T14:41:22.201Z</time></trkpt><trkpt lat="42.9315184" lon="13.0719733"><ele>615.0</ele><time>2026-04-04T14:41:23.2Z</time></trkpt><trkpt lat="42.9313803" lon="13.0717768"><ele>621.0</ele><time>2026-04-04T14:41:24.2Z</time></trkpt><trkpt lat="42.9312516" lon="13.0715985"><ele>627.0</ele><time>2026-04-04T14:41:25.2Z</time></trkpt><trkpt lat="42.931129" lon="13.071418"><ele>633.0</ele><time>2026-04-04T14:41:26.2Z</time></trkpt><trkpt lat="42.9310099" lon="13.071245"><ele>633.0</ele><time>2026-04-04T14:41:27.2Z</time></trkpt><trkpt lat="42.930903" lon="13.0710492"><ele>633.0</ele><time>2026-04-04T14:41:28.2Z</time></trkpt><trkpt lat="42.9308359" lon="13.0708325"><ele>633.0</ele><time>2026-04-04T14:41:29.201Z</time></trkpt><trkpt lat="42.9307858" lon="13.0706119"><ele>630.6666666666666</ele><time>2026-04-04T14:41:30.201Z</time></trkpt><trkpt lat="42.9307239" lon="13.0703957"><ele>628.3333333333333</ele><time>2026-04-04T14:41:31.2Z</time></trkpt><trkpt lat="42.9306516" lon="13.0701952"><ele>626.0</ele><time>2026-04-04T14:41:32.2Z</time></trkpt><trkpt lat="42.9305641" lon="13.0700042"><ele>649.0</ele><time>2026-04-04T14:41:33.201Z</time></trkpt><trkpt lat="42.9304267" lon="13.0698698"><ele>672.0</ele><time>2026-04-04T14:41:34.201Z</time></trkpt><trkpt lat="42.9302726" lon="13.0697609"><ele>695.0</ele><time>2026-04-04T14:41:35.2Z</time></trkpt><trkpt lat="42.9301186" lon="13.0696523"><ele>670.3333333333333</ele><time>2026-04-04T14:41:36.2Z</time></trkpt><trkpt lat="42.9299617" lon="13.0695363"><ele>645.6666666666666</ele><time>2026-04-04T14:41:37.2Z</time></trkpt><trkpt lat="42.9298305" lon="13.0694108"><ele>621.0</ele><time>2026-04-04T14:41:38.2Z</time></trkpt><trkpt lat="42.9297063" lon="13.069243"><ele>634.3333333333334</ele><time>2026-04-04T14:41:39.2Z</time></trkpt><trkpt lat="42.9295807" lon="13.0690373"><ele>647.6666666666667</ele><time>2026-04-04T14:41:40.2Z</time></trkpt><trkpt lat="42.9294592" lon="13.0688458"><ele>661.0</ele><time>2026-04-04T14:41:41.201Z</time></trkpt><trkpt lat="42.9293193" lon="13.068639"><ele>652.3333333333334</ele><time>2026-04-04T14:41:42.2Z</time></trkpt><trkpt lat="42.9291834" lon="13.0684216"><ele>643.6666666666666</ele><time>2026-04-04T14:41:43.2Z</time></trkpt><trkpt lat="42.9290537" lon="13.0681965"><ele>635.0</ele><time>2026-04-04T14:41:44.201Z</time></trkpt><trkpt lat="42.9289195" lon="13.0679769"><ele>635.0</ele><time>2026-04-04T14:41:45.201Z</time></trkpt><trkpt lat="42.9287926" lon="13.0677804"><ele>635.0</ele><time>2026-04-04T14:41:46.201Z</time></trkpt><trkpt lat="42.9286739" lon="13.0675762"><ele>635.0</ele><time>2026-04-04T14:41:47.2Z</time></trkpt><trkpt lat="42.9285635" lon="13.0673623"><ele>643.3333333333333</ele><time>2026-04-04T14:41:48.2Z</time></trkpt><trkpt lat="42.9284591" lon="13.0671529"><ele>651.6666666666666</ele><time>2026-04-04T14:41:49.2Z</time></trkpt><trkpt lat="42.9283488" lon="13.0669633"><ele>660.0</ele><time>2026-04-04T14:41:50.201Z</time></trkpt><trkpt lat="42.9282334" lon="13.0667917"><ele>642.3333333333334</ele><time>2026-04-04T14:41:51.201Z</time></trkpt><trkpt lat="42.9281027" lon="13.0666473"><ele>624.6666666666667</ele><time>2026-04-04T14:41:52.2Z</time></trkpt><trkpt lat="42.9279765" lon="13.0665109"><ele>607.0</ele><time>2026-04-04T14:41:53.201Z</time></trkpt><trkpt lat="42.927862" lon="13.0663675"><ele>607.0</ele><time>2026-04-04T14:41:54.201Z</time></trkpt><trkpt lat="42.9277657" lon="13.066212"><ele>607.0</ele><time>2026-04-04T14:41:55.2Z</time></trkpt><trkpt lat="42.9276732" lon="13.0660398"><ele>607.0</ele><time>2026-04-04T14:41:56.201Z</time></trkpt><trkpt lat="42.9276323" lon="13.0658231"><ele>607.0</ele><time>2026-04-04T14:41:57.2Z</time></trkpt><trkpt lat="42.9276071" lon="13.0655956"><ele>607.0</ele><time>2026-04-04T14:41:58.2Z</time></trkpt><trkpt lat="42.9275981" lon="13.0653637"><ele>607.0</ele><time>2026-04-04T14:41:59.2Z</time></trkpt><trkpt lat="42.9275912" lon="13.0651281"><ele>607.0</ele><time>2026-04-04T14:42:00.201Z</time></trkpt><trkpt lat="42.9275843" lon="13.0648875"><ele>607.0</ele><time>2026-04-04T14:42:01.201Z</time></trkpt><trkpt lat="42.9275583" lon="13.0646474"><ele>607.0</ele><time>2026-04-04T14:42:02.201Z</time></trkpt><trkpt lat="42.9275101" lon="13.0644062"><ele>607.0</ele><time>2026-04-04T14:42:03.201Z</time></trkpt><trkpt lat="42.927446" lon="13.0641567"><ele>607.0</ele><time>2026-04-04T14:42:04.201Z</time></trkpt><trkpt lat="42.9273786" lon="13.0639114"><ele>607.0</ele><time>2026-04-04T14:42:05.2Z</time></trkpt><trkpt lat="42.9273101" lon="13.0636667"><ele>600.0</ele><time>2026-04-04T14:42:06.2Z</time></trkpt><trkpt lat="42.9259477" lon="13.0606567"><ele>589.3333333333334</ele><time>2026-04-04T14:42:20.2Z</time></trkpt><trkpt lat="42.9258063" lon="13.0605154"><ele>578.6666666666667</ele><time>2026-04-04T14:42:21.2Z</time></trkpt><trkpt lat="42.9256549" lon="13.0603642"><ele>568.0</ele><time>2026-04-04T14:42:22.2Z</time></trkpt><trkpt lat="42.9255036" lon="13.0602222"><ele>568.0</ele><time>2026-04-04T14:42:23.2Z</time></trkpt><trkpt lat="42.9253448" lon="13.060081"><ele>568.0</ele><time>2026-04-04T14:42:24.201Z</time></trkpt><trkpt lat="42.9251746" lon="13.0599593"><ele>568.0</ele><time>2026-04-04T14:42:25.2Z</time></trkpt><trkpt lat="42.9250043" lon="13.0598582"><ele>570.6666666666667</ele><time>2026-04-04T14:42:26.2Z</time></trkpt><trkpt lat="42.9248291" lon="13.0597692"><ele>573.3333333333334</ele><time>2026-04-04T14:42:27.2Z</time></trkpt><trkpt lat="42.9246543" lon="13.0596957"><ele>576.0</ele><time>2026-04-04T14:42:28.2Z</time></trkpt><trkpt lat="42.924483" lon="13.0596195"><ele>576.0</ele><time>2026-04-04T14:42:29.2Z</time></trkpt><trkpt lat="42.9243218" lon="13.059534"><ele>576.0</ele><time>2026-04-04T14:42:30.2Z</time></trkpt><trkpt lat="42.9241634" lon="13.0594234"><ele>576.0</ele><time>2026-04-04T14:42:31.201Z</time></trkpt><trkpt lat="42.9240121" lon="13.0592809"><ele>576.6666666666666</ele><time>2026-04-04T14:42:32.201Z</time></trkpt><trkpt lat="42.9238513" lon="13.0591448"><ele>577.3333333333333</ele><time>2026-04-04T14:42:33.201Z</time></trkpt><trkpt lat="42.9236936" lon="13.0590126"><ele>578.0</ele><time>2026-04-04T14:42:34.2Z</time></trkpt><trkpt lat="42.923533" lon="13.0588798"><ele>568.0</ele><time>2026-04-04T14:42:35.201Z</time></trkpt><trkpt lat="42.9233724" lon="13.0587559"><ele>558.0</ele><time>2026-04-04T14:42:36.201Z</time></trkpt><trkpt lat="42.9232231" lon="13.0586294"><ele>548.0</ele><time>2026-04-04T14:42:37.2Z</time></trkpt><trkpt lat="42.9230827" lon="13.0585032"><ele>548.0</ele><time>2026-04-04T14:42:38.2Z</time></trkpt><trkpt lat="42.9229553" lon="13.0583485"><ele>548.0</ele><time>2026-04-04T14:42:39.2Z</time></trkpt><trkpt lat="42.9228868" lon="13.0581349"><ele>548.0</ele><time>2026-04-04T14:42:40.201Z</time></trkpt><trkpt lat="42.9228038" lon="13.057918"><ele>545.6666666666666</ele><time>2026-04-04T14:42:41.201Z</time></trkpt><trkpt lat="42.9227226" lon="13.0577028"><ele>543.3333333333334</ele><time>2026-04-04T14:42:42.2Z</time></trkpt><trkpt lat="42.9226236" lon="13.0575013"><ele>541.0</ele><time>2026-04-04T14:42:43.2Z</time></trkpt><trkpt lat="42.9225114" lon="13.0573061"><ele>541.0</ele><time>2026-04-04T14:42:44.2Z</time></trkpt><trkpt lat="42.9223956" lon="13.0571256"><ele>541.0</ele><time>2026-04-04T14:42:45.201Z</time></trkpt><trkpt lat="42.9222714" lon="13.0569647"><ele>541.0</ele><time>2026-04-04T14:42:46.2Z</time></trkpt><trkpt lat="42.9221493" lon="13.0568185"><ele>541.0</ele><time>2026-04-04T14:42:47.2Z</time></trkpt><trkpt lat="42.9220251" lon="13.0566692"><ele>541.0</ele><time>2026-04-04T14:42:48.2Z</time></trkpt><trkpt lat="42.9218984" lon="13.0565495"><ele>541.0</ele><time>2026-04-04T14:42:49.2Z</time></trkpt><trkpt lat="42.9213427" lon="13.0563609"><ele>542.0</ele><time>2026-04-04T14:42:52.2Z</time></trkpt><trkpt lat="42.9211618" lon="13.0562935"><ele>543.0</ele><time>2026-04-04T14:42:53.201Z</time></trkpt><trkpt lat="42.9209781" lon="13.0562167"><ele>544.0</ele><time>2026-04-04T14:42:54.2Z</time></trkpt><trkpt lat="42.9208027" lon="13.0561291"><ele>544.0</ele><time>2026-04-04T14:42:55.2Z</time></trkpt><trkpt lat="42.9206419" lon="13.0560165"><ele>544.0</ele><time>2026-04-04T14:42:56.201Z</time></trkpt><trkpt lat="42.9205136" lon="13.0558705"><ele>544.0</ele><time>2026-04-04T14:42:57.2Z</time></trkpt><trkpt lat="42.9203965" lon="13.0556898"><ele>545.3333333333334</ele><time>2026-04-04T14:42:58.2Z</time></trkpt><trkpt lat="42.9202698" lon="13.0554893"><ele>546.6666666666666</ele><time>2026-04-04T14:42:59.2Z</time></trkpt><trkpt lat="42.920151" lon="13.055281"><ele>548.0</ele><time>2026-04-04T14:43:00.2Z</time></trkpt><trkpt lat="42.9200257" lon="13.0550721"><ele>555.6666666666666</ele><time>2026-04-04T14:43:01.201Z</time></trkpt><trkpt lat="42.9199067" lon="13.0548723"><ele>563.3333333333334</ele><time>2026-04-04T14:43:02.2Z</time></trkpt><trkpt lat="42.9197957" lon="13.0546783"><ele>571.0</ele><time>2026-04-04T14:43:03.2Z</time></trkpt><trkpt lat="42.9197002" lon="13.0544851"><ele>571.0</ele><time>2026-04-04T14:43:04.2Z</time></trkpt><trkpt lat="42.9196174" lon="13.0542834"><ele>571.0</ele><time>2026-04-04T14:43:05.2Z</time></trkpt><trkpt lat="42.9195479" lon="13.0540697"><ele>571.0</ele><time>2026-04-04T14:43:06.2Z</time></trkpt><trkpt lat="42.9194885" lon="13.0538559"><ele>576.3333333333334</ele><time>2026-04-04T14:43:07.2Z</time></trkpt><trkpt lat="42.9194431" lon="13.05364"><ele>581.6666666666666</ele><time>2026-04-04T14:43:08.2Z</time></trkpt><trkpt lat="42.9194104" lon="13.0534191"><ele>587.0</ele><time>2026-04-04T14:43:09.2Z</time></trkpt><trkpt lat="42.9193846" lon="13.0532035"><ele>594.5</ele><time>2026-04-04T14:43:10.2Z</time></trkpt><trkpt lat="42.9193638" lon="13.0529943"><ele>602.0</ele><time>2026-04-04T14:43:11.2Z</time></trkpt><trkpt lat="42.919354" lon="13.0527968"><ele>609.5</ele><time>2026-04-04T14:43:12.2Z</time></trkpt><trkpt lat="42.9193346" lon="13.0526251"><ele>617.0</ele><time>2026-04-04T14:43:13.201Z</time></trkpt><trkpt lat="42.9192983" lon="13.0524775"><ele>615.75</ele><time>2026-04-04T14:43:14.201Z</time></trkpt><trkpt lat="42.9192429" lon="13.05234"><ele>614.5</ele><time>2026-04-04T14:43:15.2Z</time></trkpt><trkpt lat="42.9191414" lon="13.0522313"><ele>613.25</ele><time>2026-04-04T14:43:16.201Z</time></trkpt><trkpt lat="42.9190323" lon="13.0521133"><ele>612.0</ele><time>2026-04-04T14:43:17.2Z</time></trkpt><trkpt lat="42.9189257" lon="13.0519818"><ele>601.6666666666666</ele><time>2026-04-04T14:43:18.2Z</time></trkpt><trkpt lat="42.9188177" lon="13.0518515"><ele>591.3333333333333</ele><time>2026-04-04T14:43:19.2Z</time></trkpt><trkpt lat="42.9186962" lon="13.051725"><ele>581.0</ele><time>2026-04-04T14:43:20.201Z</time></trkpt><trkpt lat="42.918552" lon="13.0516087"><ele>581.0</ele><time>2026-04-04T14:43:21.2Z</time></trkpt><trkpt lat="42.9184046" lon="13.0514944"><ele>581.0</ele><time>2026-04-04T14:43:22.2Z</time></trkpt><trkpt lat="42.9182592" lon="13.0513728"><ele>581.0</ele><time>2026-04-04T14:43:23.2Z</time></trkpt><trkpt lat="42.9181219" lon="13.0512493"><ele>568.6666666666666</ele><time>2026-04-04T14:43:24.2Z</time></trkpt><trkpt lat="42.9180051" lon="13.0511053"><ele>556.3333333333334</ele><time>2026-04-04T14:43:25.2Z</time></trkpt><trkpt lat="42.9178938" lon="13.0509462"><ele>544.0</ele><time>2026-04-04T14:43:26.201Z</time></trkpt><trkpt lat="42.9177997" lon="13.0507645"><ele>544.0</ele><time>2026-04-04T14:43:27.2Z</time></trkpt><trkpt lat="42.9178198" lon="13.0505389"><ele>544.0</ele><time>2026-04-04T14:43:28.2Z</time></trkpt><trkpt lat="42.9178039" lon="13.050337"><ele>544.0</ele><time>2026-04-04T14:43:29.2Z</time></trkpt><trkpt lat="42.917803" lon="13.0501373"><ele>541.75</ele><time>2026-04-04T14:43:30.201Z</time></trkpt><trkpt lat="42.9177721" lon="13.0499555"><ele>539.5</ele><time>2026-04-04T14:43:31.2Z</time></trkpt><trkpt lat="42.9177175" lon="13.0497875"><ele>537.25</ele><time>2026-04-04T14:43:32.2Z</time></trkpt><trkpt lat="42.9176312" lon="13.0496297"><ele>535.0</ele><time>2026-04-04T14:43:33.2Z</time></trkpt><trkpt lat="42.9175332" lon="13.0494752"><ele>535.0</ele><time>2026-04-04T14:43:34.2Z</time></trkpt><trkpt lat="42.9174361" lon="13.0493084"><ele>535.0</ele><time>2026-04-04T14:43:35.2Z</time></trkpt><trkpt lat="42.9173359" lon="13.0491338"><ele>535.0</ele><time>2026-04-04T14:43:36.2Z</time></trkpt><trkpt lat="42.9172472" lon="13.0489512"><ele>534.3333333333334</ele><time>2026-04-04T14:43:37.2Z</time></trkpt><trkpt lat="42.917166" lon="13.0487605"><ele>533.6666666666666</ele><time>2026-04-04T14:43:38.2Z</time></trkpt><trkpt lat="42.9170884" lon="13.0485694"><ele>533.0</ele><time>2026-04-04T14:43:39.2Z</time></trkpt><trkpt lat="42.9170131" lon="13.0483796"><ele>531.6666666666666</ele><time>2026-04-04T14:43:40.2Z</time></trkpt><trkpt lat="42.9169337" lon="13.0482022"><ele>530.3333333333334</ele><time>2026-04-04T14:43:41.2Z</time></trkpt><trkpt lat="42.9168432" lon="13.0480385"><ele>529.0</ele><time>2026-04-04T14:43:42.201Z</time></trkpt><trkpt lat="42.916735" lon="13.0478968"><ele>529.0</ele><time>2026-04-04T14:43:43.201Z</time></trkpt><trkpt lat="42.916614" lon="13.0477665"><ele>529.0</ele><time>2026-04-04T14:43:44.201Z</time></trkpt><trkpt lat="42.9164893" lon="13.0476427"><ele>529.0</ele><time>2026-04-04T14:43:45.2Z</time></trkpt><trkpt lat="42.9163713" lon="13.047522"><ele>531.75</ele><time>2026-04-04T14:43:46.2Z</time></trkpt><trkpt lat="42.9162638" lon="13.0473838"><ele>534.5</ele><time>2026-04-04T14:43:47.2Z</time></trkpt><trkpt lat="42.9161759" lon="13.0472258"><ele>537.25</ele><time>2026-04-04T14:43:48.2Z</time></trkpt><trkpt lat="42.9161126" lon="13.047038"><ele>540.0</ele><time>2026-04-04T14:43:49.2Z</time></trkpt><trkpt lat="42.9160635" lon="13.0468355"><ele>549.0</ele><time>2026-04-04T14:43:50.2Z</time></trkpt><trkpt lat="42.9160206" lon="13.0466247"><ele>558.0</ele><time>2026-04-04T14:43:51.2Z</time></trkpt><trkpt lat="42.9159794" lon="13.046408"><ele>567.0</ele><time>2026-04-04T14:43:52.201Z</time></trkpt><trkpt lat="42.9159376" lon="13.0461948"><ele>554.6666666666666</ele><time>2026-04-04T14:43:53.2Z</time></trkpt><trkpt lat="42.9158894" lon="13.0459875"><ele>542.3333333333333</ele><time>2026-04-04T14:43:54.2Z</time></trkpt><trkpt lat="42.9158475" lon="13.0457759"><ele>530.0</ele><time>2026-04-04T14:43:55.201Z</time></trkpt><trkpt lat="42.9158065" lon="13.045577"><ele>530.0</ele><time>2026-04-04T14:43:56.2Z</time></trkpt><trkpt lat="42.9157478" lon="13.0453952"><ele>530.0</ele><time>2026-04-04T14:43:57.2Z</time></trkpt><trkpt lat="42.9156755" lon="13.0452087"><ele>530.0</ele><time>2026-04-04T14:43:58.2Z</time></trkpt><trkpt lat="42.9155751" lon="13.0450321"><ele>535.3333333333333</ele><time>2026-04-04T14:43:59.2Z</time></trkpt><trkpt lat="42.9154703" lon="13.0448533"><ele>540.6666666666666</ele><time>2026-04-04T14:44:00.2Z</time></trkpt><trkpt lat="42.9153586" lon="13.0446684"><ele>546.0</ele><time>2026-04-04T14:44:01.201Z</time></trkpt><trkpt lat="42.9152485" lon="13.0444889"><ele>546.0</ele><time>2026-04-04T14:44:02.2Z</time></trkpt><trkpt lat="42.9151258" lon="13.0443033"><ele>546.0</ele><time>2026-04-04T14:44:03.2Z</time></trkpt><trkpt lat="42.9150062" lon="13.0441121"><ele>546.0</ele><time>2026-04-04T14:44:04.2Z</time></trkpt><trkpt lat="42.9148836" lon="13.0439237"><ele>539.0</ele><time>2026-04-04T14:44:05.2Z</time></trkpt><trkpt lat="42.9147604" lon="13.0437345"><ele>532.0</ele><time>2026-04-04T14:44:06.2Z</time></trkpt><trkpt lat="42.914639" lon="13.0435433"><ele>525.0</ele><time>2026-04-04T14:44:07.2Z</time></trkpt><trkpt lat="42.9145195" lon="13.0433536"><ele>523.0</ele><time>2026-04-04T14:44:08.201Z</time></trkpt><trkpt lat="42.914395" lon="13.0431603"><ele>521.0</ele><time>2026-04-04T14:44:09.2Z</time></trkpt><trkpt lat="42.9142741" lon="13.0429799"><ele>519.0</ele><time>2026-04-04T14:44:10.201Z</time></trkpt><trkpt lat="42.9141614" lon="13.0428055"><ele>519.0</ele><time>2026-04-04T14:44:11.201Z</time></trkpt><trkpt lat="42.9140539" lon="13.0426414"><ele>519.0</ele><time>2026-04-04T14:44:12.2Z</time></trkpt><trkpt lat="42.9139475" lon="13.0424869"><ele>519.0</ele><time>2026-04-04T14:44:13.2Z</time></trkpt><trkpt lat="42.9138398" lon="13.0423425"><ele>519.25</ele><time>2026-04-04T14:44:14.2Z</time></trkpt><trkpt lat="42.9137166" lon="13.0422188"><ele>519.5</ele><time>2026-04-04T14:44:15.2Z</time></trkpt><trkpt lat="42.9135835" lon="13.042128"><ele>519.75</ele><time>2026-04-04T14:44:16.2Z</time></trkpt><trkpt lat="42.9134394" lon="13.042085"><ele>520.0</ele><time>2026-04-04T14:44:17.2Z</time></trkpt><trkpt lat="42.9132887" lon="13.0420739"><ele>520.0</ele><time>2026-04-04T14:44:18.201Z</time></trkpt><trkpt lat="42.9131311" lon="13.0420772"><ele>520.0</ele><time>2026-04-04T14:44:19.2Z</time></trkpt><trkpt lat="42.9129733" lon="13.0420814"><ele>520.0</ele><time>2026-04-04T14:44:20.2Z</time></trkpt><trkpt lat="42.9128096" lon="13.042084"><ele>520.0</ele><time>2026-04-04T14:44:21.2Z</time></trkpt><trkpt lat="42.9126454" lon="13.042071"><ele>520.0</ele><time>2026-04-04T14:44:22.201Z</time></trkpt><trkpt lat="42.9124747" lon="13.042031"><ele>520.0</ele><time>2026-04-04T14:44:23.2Z</time></trkpt><trkpt lat="42.9123184" lon="13.0419844"><ele>518.0</ele><time>2026-04-04T14:44:24.2Z</time></trkpt><trkpt lat="42.9121686" lon="13.0419224"><ele>516.0</ele><time>2026-04-04T14:44:25.2Z</time></trkpt><trkpt lat="42.912021" lon="13.0418508"><ele>514.0</ele><time>2026-04-04T14:44:26.2Z</time></trkpt><trkpt lat="42.9118953" lon="13.0417759"><ele>514.0</ele><time>2026-04-04T14:44:27.2Z</time></trkpt><trkpt lat="42.911798" lon="13.0417223"><ele>514.0</ele><time>2026-04-04T14:44:28.2Z</time></trkpt><trkpt lat="42.9117005" lon="13.0416908"><ele>514.0</ele><time>2026-04-04T14:44:29.2Z</time></trkpt><trkpt lat="42.9115882" lon="13.0416736"><ele>514.0</ele><time>2026-04-04T14:44:30.2Z</time></trkpt><trkpt lat="42.9114736" lon="13.041657"><ele>514.0</ele><time>2026-04-04T14:44:31.201Z</time></trkpt><trkpt lat="42.9113521" lon="13.041617"><ele>517.6666666666667</ele><time>2026-04-04T14:44:32.201Z</time></trkpt><trkpt lat="42.9112091" lon="13.0415626"><ele>521.3333333333334</ele><time>2026-04-04T14:44:33.2Z</time></trkpt><trkpt lat="42.9110641" lon="13.0414887"><ele>525.0</ele><time>2026-04-04T14:44:34.201Z</time></trkpt><trkpt lat="42.9109128" lon="13.0414145"><ele>520.6666666666666</ele><time>2026-04-04T14:44:35.201Z</time></trkpt><trkpt lat="42.9107513" lon="13.0413341"><ele>516.3333333333333</ele><time>2026-04-04T14:44:36.2Z</time></trkpt><trkpt lat="42.9105874" lon="13.0412775"><ele>512.0</ele><time>2026-04-04T14:44:37.2Z</time></trkpt><trkpt lat="42.910431" lon="13.0412054"><ele>512.0</ele><time>2026-04-04T14:44:38.2Z</time></trkpt><trkpt lat="42.9102746" lon="13.0411488"><ele>512.0</ele><time>2026-04-04T14:44:39.2Z</time></trkpt><trkpt lat="42.9101277" lon="13.0410863"><ele>512.0</ele><time>2026-04-04T14:44:40.201Z</time></trkpt><trkpt lat="42.9099943" lon="13.0410055"><ele>511.25</ele><time>2026-04-04T14:44:41.2Z</time></trkpt><trkpt lat="42.9098664" lon="13.0409122"><ele>510.5</ele><time>2026-04-04T14:44:42.2Z</time></trkpt><trkpt lat="42.9097419" lon="13.0408014"><ele>509.75</ele><time>2026-04-04T14:44:43.2Z</time></trkpt><trkpt lat="42.909636" lon="13.0406946"><ele>509.0</ele><time>2026-04-04T14:44:44.201Z</time></trkpt><trkpt lat="42.9095442" lon="13.040618"><ele>509.0</ele><time>2026-04-04T14:44:45.2Z</time></trkpt><trkpt lat="42.9094614" lon="13.0405675"><ele>509.0</ele><time>2026-04-04T14:44:46.2Z</time></trkpt><trkpt lat="42.9093631" lon="13.0405923"><ele>509.0</ele><time>2026-04-04T14:44:47.2Z</time></trkpt><trkpt lat="42.9092592" lon="13.0406378"><ele>509.0</ele><time>2026-04-04T14:44:48.201Z</time></trkpt><trkpt lat="42.9091457" lon="13.040676"><ele>509.0</ele><time>2026-04-04T14:44:49.2Z</time></trkpt><trkpt lat="42.9090233" lon="13.0406874"><ele>510.25</ele><time>2026-04-04T14:44:50.201Z</time></trkpt><trkpt lat="42.9088986" lon="13.0406871"><ele>511.5</ele><time>2026-04-04T14:44:51.2Z</time></trkpt><trkpt lat="42.9087708" lon="13.0406676"><ele>512.75</ele><time>2026-04-04T14:44:52.2Z</time></trkpt><trkpt lat="42.9086506" lon="13.0406143"><ele>514.0</ele><time>2026-04-04T14:44:53.2Z</time></trkpt><trkpt lat="42.9085362" lon="13.0405439"><ele>514.0</ele><time>2026-04-04T14:44:54.2Z</time></trkpt><trkpt lat="42.9084167" lon="13.0404791"><ele>514.0</ele><time>2026-04-04T14:44:55.2Z</time></trkpt><trkpt lat="42.9083143" lon="13.040401"><ele>514.0</ele><time>2026-04-04T14:44:56.2Z</time></trkpt><trkpt lat="42.9082236" lon="13.040297"><ele>514.0</ele><time>2026-04-04T14:44:57.2Z</time></trkpt><trkpt lat="42.9081545" lon="13.040166"><ele>514.8</ele><time>2026-04-04T14:44:58.2Z</time></trkpt><trkpt lat="42.9081082" lon="13.0400295"><ele>515.5999999999999</ele><time>2026-04-04T14:44:59.201Z</time></trkpt><trkpt lat="42.9080748" lon="13.0398956"><ele>516.4</ele><time>2026-04-04T14:45:00.2Z</time></trkpt><trkpt lat="42.9080657" lon="13.0397538"><ele>517.1999999999999</ele><time>2026-04-04T14:45:01.201Z</time></trkpt><trkpt lat="42.9080455" lon="13.0396141"><ele>518.0</ele><time>2026-04-04T14:45:02.2Z</time></trkpt><trkpt lat="42.9080098" lon="13.039469"><ele>518.0</ele><time>2026-04-04T14:45:03.201Z</time></trkpt><trkpt lat="42.9079582" lon="13.0393378"><ele>518.0</ele><time>2026-04-04T14:45:04.201Z</time></trkpt><trkpt lat="42.9078952" lon="13.039221"><ele>518.0</ele><time>2026-04-04T14:45:05.201Z</time></trkpt><trkpt lat="42.9078022" lon="13.0391252"><ele>518.0</ele><time>2026-04-04T14:45:06.2Z</time></trkpt><trkpt lat="42.9076945" lon="13.0390315"><ele>515.0</ele><time>2026-04-04T14:45:07.2Z</time></trkpt><trkpt lat="42.9075821" lon="13.0389249"><ele>512.0</ele><time>2026-04-04T14:45:08.201Z</time></trkpt><trkpt lat="42.9074795" lon="13.0388085"><ele>509.0</ele><time>2026-04-04T14:45:09.2Z</time></trkpt><trkpt lat="42.9073704" lon="13.0386852"><ele>506.0</ele><time>2026-04-04T14:45:10.2Z</time></trkpt><trkpt lat="42.9072642" lon="13.0385708"><ele>508.75</ele><time>2026-04-04T14:45:11.2Z</time></trkpt><trkpt lat="42.9071637" lon="13.0384452"><ele>511.5</ele><time>2026-04-04T14:45:12.201Z</time></trkpt><trkpt lat="42.9070572" lon="13.038352"><ele>514.25</ele><time>2026-04-04T14:45:13.2Z</time></trkpt><trkpt lat="42.9069595" lon="13.0382747"><ele>517.0</ele><time>2026-04-04T14:45:14.2Z</time></trkpt><trkpt lat="42.9068623" lon="13.0381945"><ele>517.0</ele><time>2026-04-04T14:45:15.2Z</time></trkpt><trkpt lat="42.9067717" lon="13.0380933"><ele>517.0</ele><time>2026-04-04T14:45:16.2Z</time></trkpt><trkpt lat="42.9067044" lon="13.0379555"><ele>517.0</ele><time>2026-04-04T14:45:17.2Z</time></trkpt><trkpt lat="42.9066437" lon="13.0378007"><ele>517.0</ele><time>2026-04-04T14:45:18.2Z</time></trkpt><trkpt lat="42.9065829" lon="13.0376434"><ele>529.25</ele><time>2026-04-04T14:45:19.2Z</time></trkpt><trkpt lat="42.9065282" lon="13.0374847"><ele>541.5</ele><time>2026-04-04T14:45:20.201Z</time></trkpt><trkpt lat="42.9064835" lon="13.0373281"><ele>553.75</ele><time>2026-04-04T14:45:21.2Z</time></trkpt><trkpt lat="42.9064568" lon="13.0371681"><ele>566.0</ele><time>2026-04-04T14:45:22.2Z</time></trkpt><trkpt lat="42.906438" lon="13.0370018"><ele>566.0</ele><time>2026-04-04T14:45:23.2Z</time></trkpt><trkpt lat="42.906436" lon="13.0368444"><ele>566.0</ele><time>2026-04-04T14:45:24.201Z</time></trkpt><trkpt lat="42.9064708" lon="13.0366837"><ele>566.0</ele><time>2026-04-04T14:45:25.2Z</time></trkpt><trkpt lat="42.906497" lon="13.0365363"><ele>566.0</ele><time>2026-04-04T14:45:26.2Z</time></trkpt><trkpt lat="42.9065232" lon="13.036406"><ele>566.0</ele><time>2026-04-04T14:45:27.2Z</time></trkpt><trkpt lat="42.9065245" lon="13.0362751"><ele>564.8</ele><time>2026-04-04T14:45:28.2Z</time></trkpt><trkpt lat="42.9064976" lon="13.0361483"><ele>563.6</ele><time>2026-04-04T14:45:29.2Z</time></trkpt><trkpt lat="42.9064496" lon="13.0360204"><ele>562.4</ele><time>2026-04-04T14:45:30.2Z</time></trkpt><trkpt lat="42.9063987" lon="13.0358769"><ele>561.2</ele><time>2026-04-04T14:45:31.2Z</time></trkpt><trkpt lat="42.9063443" lon="13.0357404"><ele>560.0</ele><time>2026-04-04T14:45:32.201Z</time></trkpt><trkpt lat="42.9062916" lon="13.035598"><ele>555.75</ele><time>2026-04-04T14:45:33.2Z</time></trkpt><trkpt lat="42.9062377" lon="13.035453"><ele>551.5</ele><time>2026-04-04T14:45:34.2Z</time></trkpt><trkpt lat="42.9061824" lon="13.0353189"><ele>547.25</ele><time>2026-04-04T14:45:35.2Z</time></trkpt><trkpt lat="42.9061203" lon="13.0351927"><ele>543.0</ele><time>2026-04-04T14:45:36.201Z</time></trkpt><trkpt lat="42.9060509" lon="13.0350638"><ele>549.0</ele><time>2026-04-04T14:45:37.2Z</time></trkpt><trkpt lat="42.9059726" lon="13.0349581"><ele>555.0</ele><time>2026-04-04T14:45:38.2Z</time></trkpt><trkpt lat="42.9058778" lon="13.0348617"><ele>561.0</ele><time>2026-04-04T14:45:39.2Z</time></trkpt><trkpt lat="42.9057824" lon="13.03477"><ele>567.0</ele><time>2026-04-04T14:45:40.201Z</time></trkpt><trkpt lat="42.9056706" lon="13.0346857"><ele>567.0</ele><time>2026-04-04T14:45:41.2Z</time></trkpt><trkpt lat="42.9055567" lon="13.0346059"><ele>567.0</ele><time>2026-04-04T14:45:42.2Z</time></trkpt><trkpt lat="42.9054359" lon="13.034525"><ele>567.0</ele><time>2026-04-04T14:45:43.201Z</time></trkpt><trkpt lat="42.9053041" lon="13.0344248"><ele>567.0</ele><time>2026-04-04T14:45:44.2Z</time></trkpt><trkpt lat="42.9051762" lon="13.0343249"><ele>568.5</ele><time>2026-04-04T14:45:45.201Z</time></trkpt><trkpt lat="42.9050482" lon="13.034227"><ele>570.0</ele><time>2026-04-04T14:45:46.2Z</time></trkpt><trkpt lat="42.9049298" lon="13.034151"><ele>571.5</ele><time>2026-04-04T14:45:47.2Z</time></trkpt><trkpt lat="42.9048315" lon="13.0340951"><ele>573.0</ele><time>2026-04-04T14:45:48.2Z</time></trkpt><trkpt lat="42.9047334" lon="13.0340396"><ele>573.0</ele><time>2026-04-04T14:45:49.201Z</time></trkpt><trkpt lat="42.9046463" lon="13.0340062"><ele>573.0</ele><time>2026-04-04T14:45:50.2Z</time></trkpt><trkpt lat="42.9045848" lon="13.03406"><ele>573.0</ele><time>2026-04-04T14:45:52.2Z</time></trkpt><trkpt lat="42.9045896" lon="13.0341883"><ele>573.0</ele><time>2026-04-04T14:45:54.2Z</time></trkpt><trkpt lat="42.9046679" lon="13.0342438"><ele>573.0</ele><time>2026-04-04T14:45:55.2Z</time></trkpt><trkpt lat="42.9047491" lon="13.0343052"><ele>573.0</ele><time>2026-04-04T14:45:56.201Z</time></trkpt><trkpt lat="42.9048355" lon="13.034362"><ele>571.5</ele><time>2026-04-04T14:45:57.201Z</time></trkpt><trkpt lat="42.9049256" lon="13.0344597"><ele>570.0</ele><time>2026-04-04T14:45:58.201Z</time></trkpt><trkpt lat="42.9050238" lon="13.034577"><ele>568.5</ele><time>2026-04-04T14:45:59.201Z</time></trkpt><trkpt lat="42.9051239" lon="13.0347155"><ele>567.0</ele><time>2026-04-04T14:46:00.2Z</time></trkpt><trkpt lat="42.9052262" lon="13.034869"><ele>574.75</ele><time>2026-04-04T14:46:01.2Z</time></trkpt><trkpt lat="42.905323" lon="13.0350318"><ele>582.5</ele><time>2026-04-04T14:46:02.201Z</time></trkpt><trkpt lat="42.9054191" lon="13.035171"><ele>590.25</ele><time>2026-04-04T14:46:03.2Z</time></trkpt><trkpt lat="42.9055032" lon="13.0352954"><ele>598.0</ele><time>2026-04-04T14:46:04.2Z</time></trkpt><trkpt lat="42.9055737" lon="13.0354167"><ele>598.0</ele><time>2026-04-04T14:46:05.201Z</time></trkpt><trkpt lat="42.9056289" lon="13.0355308"><ele>598.0</ele><time>2026-04-04T14:46:06.2Z</time></trkpt><trkpt lat="42.9056753" lon="13.0356227"><ele>598.0</ele><time>2026-04-04T14:46:07.201Z</time></trkpt><trkpt lat="42.9057195" lon="13.0357169"><ele>598.0</ele><time>2026-04-04T14:46:08.2Z</time></trkpt><trkpt lat="42.9056756" lon="13.0357854"><ele>598.0</ele><time>2026-04-04T14:46:10.2Z</time></trkpt><trkpt lat="42.9055748" lon="13.035636"><ele>598.0</ele><time>2026-04-04T14:46:12.2Z</time></trkpt><trkpt lat="42.905506" lon="13.0355351"><ele>598.0</ele><time>2026-04-04T14:46:13.2Z</time></trkpt><trkpt lat="42.905409" lon="13.035421"><ele>598.0</ele><time>2026-04-04T14:46:14.201Z</time></trkpt><trkpt lat="42.9052988" lon="13.0353109"><ele>598.0</ele><time>2026-04-04T14:46:15.2Z</time></trkpt><trkpt lat="42.9051859" lon="13.0352029"><ele>600.0</ele><time>2026-04-04T14:46:16.2Z</time></trkpt><trkpt lat="42.905066" lon="13.0350914"><ele>602.0</ele><time>2026-04-04T14:46:17.2Z</time></trkpt><trkpt lat="42.904937" lon="13.0349851"><ele>604.0</ele><time>2026-04-04T14:46:18.2Z</time></trkpt><trkpt lat="42.9048093" lon="13.0348877"><ele>606.0</ele><time>2026-04-04T14:46:19.201Z</time></trkpt><trkpt lat="42.9046646" lon="13.034803"><ele>606.0</ele><time>2026-04-04T14:46:20.2Z</time></trkpt><trkpt lat="42.9045254" lon="13.0347136"><ele>606.0</ele><time>2026-04-04T14:46:21.201Z</time></trkpt><trkpt lat="42.9043819" lon="13.0346429"><ele>606.0</ele><time>2026-04-04T14:46:22.2Z</time></trkpt><trkpt lat="42.9042416" lon="13.0345821"><ele>610.25</ele><time>2026-04-04T14:46:23.201Z</time></trkpt><trkpt lat="42.9041107" lon="13.0345204"><ele>614.5</ele><time>2026-04-04T14:46:24.2Z</time></trkpt><trkpt lat="42.9039715" lon="13.0344813"><ele>618.75</ele><time>2026-04-04T14:46:25.2Z</time></trkpt><trkpt lat="42.9038505" lon="13.0344335"><ele>623.0</ele><time>2026-04-04T14:46:26.201Z</time></trkpt><trkpt lat="42.9037371" lon="13.0343927"><ele>623.0</ele><time>2026-04-04T14:46:27.2Z</time></trkpt><trkpt lat="42.9036438" lon="13.0343621"><ele>623.0</ele><time>2026-04-04T14:46:28.2Z</time></trkpt><trkpt lat="42.9035512" lon="13.0343523"><ele>623.0</ele><time>2026-04-04T14:46:29.201Z</time></trkpt><trkpt lat="42.9034571" lon="13.0343767"><ele>623.0</ele><time>2026-04-04T14:46:30.2Z</time></trkpt><trkpt lat="42.9033602" lon="13.0344302"><ele>623.0</ele><time>2026-04-04T14:46:31.2Z</time></trkpt><trkpt lat="42.9032641" lon="13.0344872"><ele>626.1999999999999</ele><time>2026-04-04T14:46:32.201Z</time></trkpt><trkpt lat="42.9031597" lon="13.0345192"><ele>629.4</ele><time>2026-04-04T14:46:33.2Z</time></trkpt><trkpt lat="42.9030492" lon="13.0345443"><ele>632.5999999999999</ele><time>2026-04-04T14:46:34.2Z</time></trkpt><trkpt lat="42.9029493" lon="13.0345565"><ele>635.8</ele><time>2026-04-04T14:46:35.2Z</time></trkpt><trkpt lat="42.902856" lon="13.0345474"><ele>639.0</ele><time>2026-04-04T14:46:36.2Z</time></trkpt><trkpt lat="42.9027743" lon="13.0345066"><ele>639.0</ele><time>2026-04-04T14:46:37.2Z</time></trkpt><trkpt lat="42.9027092" lon="13.0344286"><ele>639.0</ele><time>2026-04-04T14:46:38.2Z</time></trkpt><trkpt lat="42.90265" lon="13.0343021"><ele>639.0</ele><time>2026-04-04T14:46:39.2Z</time></trkpt><trkpt lat="42.9025994" lon="13.0341772"><ele>639.0</ele><time>2026-04-04T14:46:40.201Z</time></trkpt><trkpt lat="42.9025405" lon="13.0340251"><ele>639.0</ele><time>2026-04-04T14:46:41.201Z</time></trkpt><trkpt lat="42.90248" lon="13.0338866"><ele>641.0</ele><time>2026-04-04T14:46:42.201Z</time></trkpt><trkpt lat="42.9024101" lon="13.0337533"><ele>643.0</ele><time>2026-04-04T14:46:43.201Z</time></trkpt><trkpt lat="42.902342" lon="13.0336329"><ele>645.0</ele><time>2026-04-04T14:46:44.2Z</time></trkpt><trkpt lat="42.9022515" lon="13.033522"><ele>647.0</ele><time>2026-04-04T14:46:45.201Z</time></trkpt><trkpt lat="42.9021507" lon="13.0334026"><ele>649.5</ele><time>2026-04-04T14:46:46.201Z</time></trkpt><trkpt lat="42.9020373" lon="13.0332998"><ele>652.0</ele><time>2026-04-04T14:46:47.2Z</time></trkpt><trkpt lat="42.9019214" lon="13.0332066"><ele>654.5</ele><time>2026-04-04T14:46:48.2Z</time></trkpt><trkpt lat="42.9018027" lon="13.0330916"><ele>657.0</ele><time>2026-04-04T14:46:49.201Z</time></trkpt><trkpt lat="42.9016763" lon="13.0329772"><ele>657.0</ele><time>2026-04-04T14:46:50.2Z</time></trkpt><trkpt lat="42.901539" lon="13.0328644"><ele>657.0</ele><time>2026-04-04T14:46:51.201Z</time></trkpt><trkpt lat="42.9014082" lon="13.0327514"><ele>657.0</ele><time>2026-04-04T14:46:52.2Z</time></trkpt><trkpt lat="42.9012776" lon="13.032641"><ele>657.0</ele><time>2026-04-04T14:46:53.2Z</time></trkpt><trkpt lat="42.901151" lon="13.0325407"><ele>657.0</ele><time>2026-04-04T14:46:54.2Z</time></trkpt><trkpt lat="42.9010197" lon="13.0324426"><ele>657.0</ele><time>2026-04-04T14:46:55.2Z</time></trkpt><trkpt lat="42.90089" lon="13.0323602"><ele>657.0</ele><time>2026-04-04T14:46:56.2Z</time></trkpt><trkpt lat="42.9007583" lon="13.0322931"><ele>657.25</ele><time>2026-04-04T14:46:57.2Z</time></trkpt><trkpt lat="42.9006233" lon="13.0322264"><ele>657.5</ele><time>2026-04-04T14:46:58.2Z</time></trkpt><trkpt lat="42.9004956" lon="13.0321676"><ele>657.75</ele><time>2026-04-04T14:46:59.201Z</time></trkpt><trkpt lat="42.9003638" lon="13.032111"><ele>658.0</ele><time>2026-04-04T14:47:00.2Z</time></trkpt><trkpt lat="42.9002362" lon="13.0320482"><ele>658.0</ele><time>2026-04-04T14:47:01.2Z</time></trkpt><trkpt lat="42.9001165" lon="13.031991"><ele>658.0</ele><time>2026-04-04T14:47:02.2Z</time></trkpt><trkpt lat="42.9000059" lon="13.0319415"><ele>658.0</ele><time>2026-04-04T14:47:03.201Z</time></trkpt><trkpt lat="42.8998957" lon="13.0318905"><ele>658.0</ele><time>2026-04-04T14:47:04.2Z</time></trkpt><trkpt lat="42.8997789" lon="13.0318576"><ele>664.75</ele><time>2026-04-04T14:47:05.2Z</time></trkpt><trkpt lat="42.8996606" lon="13.0318277"><ele>671.5</ele><time>2026-04-04T14:47:06.201Z</time></trkpt><trkpt lat="42.899539" lon="13.0318182"><ele>678.25</ele><time>2026-04-04T14:47:07.2Z</time></trkpt><trkpt lat="42.8994164" lon="13.0318237"><ele>685.0</ele><time>2026-04-04T14:47:08.201Z</time></trkpt><trkpt lat="42.8992986" lon="13.0318405"><ele>689.25</ele><time>2026-04-04T14:47:09.2Z</time></trkpt><trkpt lat="42.8991801" lon="13.0318703"><ele>693.5</ele><time>2026-04-04T14:47:10.2Z</time></trkpt><trkpt lat="42.8990615" lon="13.0319141"><ele>697.75</ele><time>2026-04-04T14:47:11.2Z</time></trkpt><trkpt lat="42.8989483" lon="13.0319628"><ele>702.0</ele><time>2026-04-04T14:47:12.2Z</time></trkpt><trkpt lat="42.8988408" lon="13.0320132"><ele>702.0</ele><time>2026-04-04T14:47:13.201Z</time></trkpt><trkpt lat="42.8987346" lon="13.0320752"><ele>702.0</ele><time>2026-04-04T14:47:14.2Z</time></trkpt><trkpt lat="42.8986307" lon="13.032132"><ele>702.0</ele><time>2026-04-04T14:47:15.201Z</time></trkpt><trkpt lat="42.898537" lon="13.0321931"><ele>702.0</ele><time>2026-04-04T14:47:16.2Z</time></trkpt><trkpt lat="42.8984582" lon="13.032252"><ele>702.0</ele><time>2026-04-04T14:47:17.2Z</time></trkpt><trkpt lat="42.8983935" lon="13.0323032"><ele>703.5</ele><time>2026-04-04T14:47:18.2Z</time></trkpt><trkpt lat="42.8983386" lon="13.0323486"><ele>705.0</ele><time>2026-04-04T14:47:19.2Z</time></trkpt><trkpt lat="42.8982522" lon="13.0324245"><ele>706.5</ele><time>2026-04-04T14:47:21.201Z</time></trkpt><trkpt lat="42.8981991" lon="13.0324809"><ele>708.0</ele><time>2026-04-04T14:47:22.2Z</time></trkpt><trkpt lat="42.8981384" lon="13.0325562"><ele>709.5</ele><time>2026-04-04T14:47:23.201Z</time></trkpt><trkpt lat="42.8980771" lon="13.0326307"><ele>711.0</ele><time>2026-04-04T14:47:24.201Z</time></trkpt><trkpt lat="42.8980167" lon="13.0327194"><ele>711.1999999999999</ele><time>2026-04-04T14:47:25.201Z</time></trkpt><trkpt lat="42.8979498" lon="13.0328172"><ele>711.4</ele><time>2026-04-04T14:47:26.2Z</time></trkpt><trkpt lat="42.8978762" lon="13.0329292"><ele>711.6</ele><time>2026-04-04T14:47:27.2Z</time></trkpt><trkpt lat="42.8978042" lon="13.0330434"><ele>711.8</ele><time>2026-04-04T14:47:28.2Z</time></trkpt><trkpt lat="42.8977339" lon="13.0331603"><ele>712.0</ele><time>2026-04-04T14:47:29.2Z</time></trkpt><trkpt lat="42.8976662" lon="13.0332779"><ele>714.2</ele><time>2026-04-04T14:47:30.2Z</time></trkpt><trkpt lat="42.8976069" lon="13.0333997"><ele>716.4000000000001</ele><time>2026-04-04T14:47:31.2Z</time></trkpt><trkpt lat="42.8975449" lon="13.0335176"><ele>718.5999999999999</ele><time>2026-04-04T14:47:32.2Z</time></trkpt><trkpt lat="42.897484" lon="13.0336376"><ele>720.8</ele><time>2026-04-04T14:47:33.201Z</time></trkpt><trkpt lat="42.8974224" lon="13.0337542"><ele>723.0</ele><time>2026-04-04T14:47:34.201Z</time></trkpt><trkpt lat="42.8973579" lon="13.0338656"><ele>719.4</ele><time>2026-04-04T14:47:35.2Z</time></trkpt><trkpt lat="42.8972969" lon="13.0339871"><ele>715.8</ele><time>2026-04-04T14:47:36.2Z</time></trkpt><trkpt lat="42.8972398" lon="13.0341079"><ele>712.2</ele><time>2026-04-04T14:47:37.201Z</time></trkpt><trkpt lat="42.8971866" lon="13.03423"><ele>708.6</ele><time>2026-04-04T14:47:38.2Z</time></trkpt><trkpt lat="42.8971324" lon="13.0343526"><ele>705.0</ele><time>2026-04-04T14:47:39.2Z</time></trkpt><trkpt lat="42.8970799" lon="13.034479"><ele>705.0</ele><time>2026-04-04T14:47:40.201Z</time></trkpt><trkpt lat="42.8970288" lon="13.0346036"><ele>705.0</ele><time>2026-04-04T14:47:41.2Z</time></trkpt><trkpt lat="42.8969889" lon="13.0347306"><ele>705.0</ele><time>2026-04-04T14:47:42.2Z</time></trkpt><trkpt lat="42.8969449" lon="13.0348476"><ele>705.0</ele><time>2026-04-04T14:47:43.201Z</time></trkpt><trkpt lat="42.8968967" lon="13.0349631"><ele>705.0</ele><time>2026-04-04T14:47:44.201Z</time></trkpt><trkpt lat="42.8968468" lon="13.0350588"><ele>704.2</ele><time>2026-04-04T14:47:45.2Z</time></trkpt><trkpt lat="42.8967902" lon="13.0351476"><ele>703.4</ele><time>2026-04-04T14:47:46.2Z</time></trkpt><trkpt lat="42.8967207" lon="13.0352119"><ele>702.5999999999999</ele><time>2026-04-04T14:47:47.2Z</time></trkpt><trkpt lat="42.8966228" lon="13.035249"><ele>701.8</ele><time>2026-04-04T14:47:48.201Z</time></trkpt><trkpt lat="42.8965179" lon="13.0352766"><ele>701.0</ele><time>2026-04-04T14:47:49.2Z</time></trkpt><trkpt lat="42.8964065" lon="13.0352985"><ele>697.25</ele><time>2026-04-04T14:47:50.2Z</time></trkpt><trkpt lat="42.8962908" lon="13.0353215"><ele>693.5</ele><time>2026-04-04T14:47:51.2Z</time></trkpt><trkpt lat="42.8961767" lon="13.0353469"><ele>689.75</ele><time>2026-04-04T14:47:52.2Z</time></trkpt><trkpt lat="42.8960621" lon="13.0353699"><ele>686.0</ele><time>2026-04-04T14:47:53.2Z</time></trkpt><trkpt lat="42.8959538" lon="13.0353891"><ele>684.1999999999999</ele><time>2026-04-04T14:47:54.201Z</time></trkpt><trkpt lat="42.8958394" lon="13.035405"><ele>682.4</ele><time>2026-04-04T14:47:55.2Z</time></trkpt><trkpt lat="42.8957273" lon="13.0354246"><ele>680.6</ele><time>2026-04-04T14:47:56.201Z</time></trkpt><trkpt lat="42.8956234" lon="13.0354508"><ele>678.8</ele><time>2026-04-04T14:47:57.201Z</time></trkpt><trkpt lat="42.8955277" lon="13.0354698"><ele>677.0</ele><time>2026-04-04T14:47:58.201Z</time></trkpt><trkpt lat="42.8954235" lon="13.0354858"><ele>677.0</ele><time>2026-04-04T14:47:59.2Z</time></trkpt><trkpt lat="42.8953146" lon="13.0355093"><ele>677.0</ele><time>2026-04-04T14:48:00.2Z</time></trkpt><trkpt lat="42.8952063" lon="13.0355356"><ele>677.0</ele><time>2026-04-04T14:48:01.201Z</time></trkpt><trkpt lat="42.8950957" lon="13.0355682"><ele>677.0</ele><time>2026-04-04T14:48:02.2Z</time></trkpt><trkpt lat="42.8949838" lon="13.0356018"><ele>677.0</ele><time>2026-04-04T14:48:03.2Z</time></trkpt><trkpt lat="42.8948844" lon="13.0356696"><ele>676.25</ele><time>2026-04-04T14:48:04.2Z</time></trkpt><trkpt lat="42.8947752" lon="13.0357096"><ele>675.5</ele><time>2026-04-04T14:48:05.2Z</time></trkpt><trkpt lat="42.8946636" lon="13.0357579"><ele>674.75</ele><time>2026-04-04T14:48:06.2Z</time></trkpt><trkpt lat="42.8945479" lon="13.0358056"><ele>674.0</ele><time>2026-04-04T14:48:07.2Z</time></trkpt><trkpt lat="42.8944334" lon="13.0358507"><ele>674.0</ele><time>2026-04-04T14:48:08.201Z</time></trkpt><trkpt lat="42.8943207" lon="13.0359014"><ele>674.0</ele><time>2026-04-04T14:48:09.201Z</time></trkpt><trkpt lat="42.8942084" lon="13.0359326"><ele>674.0</ele><time>2026-04-04T14:48:10.2Z</time></trkpt><trkpt lat="42.8940958" lon="13.0359709"><ele>674.0</ele><time>2026-04-04T14:48:11.2Z</time></trkpt><trkpt lat="42.893986" lon="13.0360039"><ele>672.6</ele><time>2026-04-04T14:48:12.2Z</time></trkpt><trkpt lat="42.8938765" lon="13.0360349"><ele>671.2</ele><time>2026-04-04T14:48:13.2Z</time></trkpt><trkpt lat="42.8937679" lon="13.0360547"><ele>669.8000000000001</ele><time>2026-04-04T14:48:14.201Z</time></trkpt><trkpt lat="42.8936644" lon="13.036072"><ele>668.4000000000001</ele><time>2026-04-04T14:48:15.2Z</time></trkpt><trkpt lat="42.893568" lon="13.036085"><ele>667.0</ele><time>2026-04-04T14:48:16.2Z</time></trkpt><trkpt lat="42.8934795" lon="13.0360934"><ele>666.3333333333334</ele><time>2026-04-04T14:48:17.2Z</time></trkpt><trkpt lat="42.8933953" lon="13.0360878"><ele>665.6666666666667</ele><time>2026-04-04T14:48:18.2Z</time></trkpt><trkpt lat="42.89332" lon="13.0360217"><ele>665.0</ele><time>2026-04-04T14:48:19.2Z</time></trkpt><trkpt lat="42.8932624" lon="13.0359464"><ele>664.3333333333334</ele><time>2026-04-04T14:48:20.2Z</time></trkpt><trkpt lat="42.8932132" lon="13.035854"><ele>663.6666666666666</ele><time>2026-04-04T14:48:21.201Z</time></trkpt><trkpt lat="42.8931667" lon="13.0357366"><ele>663.0</ele><time>2026-04-04T14:48:22.201Z</time></trkpt><trkpt lat="42.8931158" lon="13.0356566"><ele>663.0</ele><time>2026-04-04T14:48:23.2Z</time></trkpt><trkpt lat="42.8930524" lon="13.0355907"><ele>663.0</ele><time>2026-04-04T14:48:24.2Z</time></trkpt><trkpt lat="42.892969" lon="13.0355513"><ele>663.0</ele><time>2026-04-04T14:48:25.2Z</time></trkpt><trkpt lat="42.8928795" lon="13.0355385"><ele>663.0</ele><time>2026-04-04T14:48:26.2Z</time></trkpt><trkpt lat="42.8927836" lon="13.0355416"><ele>663.0</ele><time>2026-04-04T14:48:27.2Z</time></trkpt><trkpt lat="42.8926819" lon="13.0355429"><ele>664.5999999999999</ele><time>2026-04-04T14:48:28.2Z</time></trkpt><trkpt lat="42.892576" lon="13.0355518"><ele>666.1999999999999</ele><time>2026-04-04T14:48:29.2Z</time></trkpt><trkpt lat="42.8924827" lon="13.0355717"><ele>667.8</ele><time>2026-04-04T14:48:30.201Z</time></trkpt><trkpt lat="42.8923831" lon="13.0356062"><ele>669.4</ele><time>2026-04-04T14:48:31.201Z</time></trkpt><trkpt lat="42.892292" lon="13.035642"><ele>671.0</ele><time>2026-04-04T14:48:32.2Z</time></trkpt><trkpt lat="42.8921948" lon="13.0356862"><ele>671.0</ele><time>2026-04-04T14:48:33.201Z</time></trkpt><trkpt lat="42.8920989" lon="13.0357297"><ele>671.0</ele><time>2026-04-04T14:48:34.2Z</time></trkpt><trkpt lat="42.8920026" lon="13.0357764"><ele>671.0</ele><time>2026-04-04T14:48:35.201Z</time></trkpt><trkpt lat="42.8919069" lon="13.035829"><ele>671.0</ele><time>2026-04-04T14:48:36.2Z</time></trkpt><trkpt lat="42.8918167" lon="13.0358818"><ele>671.0</ele><time>2026-04-04T14:48:37.2Z</time></trkpt><trkpt lat="42.891726" lon="13.0359304"><ele>668.8</ele><time>2026-04-04T14:48:38.2Z</time></trkpt><trkpt lat="42.8916404" lon="13.0359762"><ele>666.5999999999999</ele><time>2026-04-04T14:48:39.201Z</time></trkpt><trkpt lat="42.8915475" lon="13.0360031"><ele>664.4</ele><time>2026-04-04T14:48:40.2Z</time></trkpt><trkpt lat="42.8914562" lon="13.0360268"><ele>662.2</ele><time>2026-04-04T14:48:41.201Z</time></trkpt><trkpt lat="42.8913603" lon="13.0360486"><ele>660.0</ele><time>2026-04-04T14:48:42.2Z</time></trkpt><trkpt lat="42.891268" lon="13.0360703"><ele>660.0</ele><time>2026-04-04T14:48:43.2Z</time></trkpt><trkpt lat="42.8911762" lon="13.0360665"><ele>660.0</ele><time>2026-04-04T14:48:44.201Z</time></trkpt><trkpt lat="42.891082" lon="13.0360646"><ele>660.0</ele><time>2026-04-04T14:48:45.2Z</time></trkpt><trkpt lat="42.8909826" lon="13.0360455"><ele>660.0</ele><time>2026-04-04T14:48:46.2Z</time></trkpt><trkpt lat="42.890895" lon="13.0360268"><ele>660.0</ele><time>2026-04-04T14:48:47.2Z</time></trkpt><trkpt lat="42.8908061" lon="13.0359913"><ele>659.3333333333334</ele><time>2026-04-04T14:48:48.2Z</time></trkpt><trkpt lat="42.8907244" lon="13.0359478"><ele>658.6666666666666</ele><time>2026-04-04T14:48:49.2Z</time></trkpt><trkpt lat="42.8906458" lon="13.0358981"><ele>658.0</ele><time>2026-04-04T14:48:50.2Z</time></trkpt><trkpt lat="42.8905684" lon="13.0358469"><ele>657.3333333333333</ele><time>2026-04-04T14:48:51.2Z</time></trkpt><trkpt lat="42.8904898" lon="13.0358004"><ele>656.6666666666666</ele><time>2026-04-04T14:48:52.201Z</time></trkpt><trkpt lat="42.8904045" lon="13.0357844"><ele>656.0</ele><time>2026-04-04T14:48:53.2Z</time></trkpt><trkpt lat="42.8903186" lon="13.0358053"><ele>656.0</ele><time>2026-04-04T14:48:54.2Z</time></trkpt><trkpt lat="42.8902304" lon="13.0358366"><ele>656.0</ele><time>2026-04-04T14:48:55.201Z</time></trkpt><trkpt lat="42.8943207" lon="13.0359014"><ele>658.75</ele><time>2026-04-04T14:48:09.201Z</time></trkpt><trkpt lat="42.8942084" lon="13.0359326"><ele>661.5</ele><time>2026-04-04T14:48:10.2Z</time></trkpt><trkpt lat="42.8940958" lon="13.0359709"><ele>664.25</ele><time>2026-04-04T14:48:11.2Z</time></trkpt><trkpt lat="42.893986" lon="13.0360039"><ele>667.0</ele><time>2026-04-04T14:48:12.2Z</time></trkpt><trkpt lat="42.8938765" lon="13.0360349"><ele>667.0</ele><time>2026-04-04T14:48:13.2Z</time></trkpt><trkpt lat="42.8937679" lon="13.0360547"><ele>667.0</ele><time>2026-04-04T14:48:14.201Z</time></trkpt><trkpt lat="42.8936644" lon="13.036072"><ele>667.0</ele><time>2026-04-04T14:48:15.2Z</time></trkpt><trkpt lat="42.893568" lon="13.036085"><ele>667.0</ele><time>2026-04-04T14:48:16.2Z</time></trkpt><trkpt lat="42.8934795" lon="13.0360934"><ele>667.0</ele><time>2026-04-04T14:48:17.2Z</time></trkpt><trkpt lat="42.8933953" lon="13.0360878"><ele>666.3333333333334</ele><time>2026-04-04T14:48:18.2Z</time></trkpt><trkpt lat="42.89332" lon="13.0360217"><ele>665.6666666666667</ele><time>2026-04-04T14:48:19.2Z</time></trkpt><trkpt lat="42.8932624" lon="13.0359464"><ele>665.0</ele><time>2026-04-04T14:48:20.2Z</time></trkpt><trkpt lat="42.8932132" lon="13.035854"><ele>664.3333333333334</ele><time>2026-04-04T14:48:21.201Z</time></trkpt><trkpt lat="42.8931667" lon="13.0357366"><ele>663.6666666666666</ele><time>2026-04-04T14:48:22.201Z</time></trkpt><trkpt lat="42.8931158" lon="13.0356566"><ele>663.0</ele><time>2026-04-04T14:48:23.2Z</time></trkpt><trkpt lat="42.8930524" lon="13.0355907"><ele>663.0</ele><time>2026-04-04T14:48:24.2Z</time></trkpt><trkpt lat="42.892969" lon="13.0355513"><ele>663.0</ele><time>2026-04-04T14:48:25.2Z</time></trkpt><trkpt lat="42.8928795" lon="13.0355385"><ele>663.0</ele><time>2026-04-04T14:48:26.2Z</time></trkpt><trkpt lat="42.8927836" lon="13.0355416"><ele>663.0</ele><time>2026-04-04T14:48:27.2Z</time></trkpt><trkpt lat="42.8926819" lon="13.0355429"><ele>663.0</ele><time>2026-04-04T14:48:28.2Z</time></trkpt><trkpt lat="42.892576" lon="13.0355518"><ele>664.5999999999999</ele><time>2026-04-04T14:48:29.2Z</time></trkpt><trkpt lat="42.8924827" lon="13.0355717"><ele>666.1999999999999</ele><time>2026-04-04T14:48:30.201Z</time></trkpt><trkpt lat="42.8923831" lon="13.0356062"><ele>667.8</ele><time>2026-04-04T14:48:31.201Z</time></trkpt><trkpt lat="42.892292" lon="13.035642"><ele>669.4</ele><time>2026-04-04T14:48:32.2Z</time></trkpt><trkpt lat="42.8921948" lon="13.0356862"><ele>671.0</ele><time>2026-04-04T14:48:33.201Z</time></trkpt><trkpt lat="42.8920989" lon="13.0357297"><ele>671.0</ele><time>2026-04-04T14:48:34.2Z</time></trkpt><trkpt lat="42.8920026" lon="13.0357764"><ele>671.0</ele><time>2026-04-04T14:48:35.201Z</time></trkpt><trkpt lat="42.8919069" lon="13.035829"><ele>671.0</ele><time>2026-04-04T14:48:36.2Z</time></trkpt><trkpt lat="42.8918167" lon="13.0358818"><ele>671.0</ele><time>2026-04-04T14:48:37.2Z</time></trkpt><trkpt lat="42.891726" lon="13.0359304"><ele>671.0</ele><time>2026-04-04T14:48:38.2Z</time></trkpt><trkpt lat="42.8916404" lon="13.0359762"><ele>668.8</ele><time>2026-04-04T14:48:39.201Z</time></trkpt><trkpt lat="42.8915475" lon="13.0360031"><ele>666.5999999999999</ele><time>2026-04-04T14:48:40.2Z</time></trkpt><trkpt lat="42.8914562" lon="13.0360268"><ele>664.4</ele><time>2026-04-04T14:48:41.201Z</time></trkpt><trkpt lat="42.8913603" lon="13.0360486"><ele>662.2</ele><time>2026-04-04T14:48:42.2Z</time></trkpt><trkpt lat="42.891268" lon="13.0360703"><ele>660.0</ele><time>2026-04-04T14:48:43.2Z</time></trkpt><trkpt lat="42.8911762" lon="13.0360665"><ele>660.0</ele><time>2026-04-04T14:48:44.201Z</time></trkpt><trkpt lat="42.891082" lon="13.0360646"><ele>660.0</ele><time>2026-04-04T14:48:45.2Z</time></trkpt><trkpt lat="42.8909826" lon="13.0360455"><ele>660.0</ele><time>2026-04-04T14:48:46.2Z</time></trkpt><trkpt lat="42.890895" lon="13.0360268"><ele>660.0</ele><time>2026-04-04T14:48:47.2Z</time></trkpt><trkpt lat="42.8908061" lon="13.0359913"><ele>660.0</ele><time>2026-04-04T14:48:48.2Z</time></trkpt><trkpt lat="42.8907244" lon="13.0359478"><ele>659.3333333333334</ele><time>2026-04-04T14:48:49.2Z</time></trkpt><trkpt lat="42.8906458" lon="13.0358981"><ele>658.6666666666666</ele><time>2026-04-04T14:48:50.2Z</time></trkpt><trkpt lat="42.8905684" lon="13.0358469"><ele>658.0</ele><time>2026-04-04T14:48:51.2Z</time></trkpt><trkpt lat="42.8904898" lon="13.0358004"><ele>657.3333333333333</ele><time>2026-04-04T14:48:52.201Z</time></trkpt><trkpt lat="42.8904045" lon="13.0357844"><ele>656.6666666666666</ele><time>2026-04-04T14:48:53.2Z</time></trkpt><trkpt lat="42.8903186" lon="13.0358053"><ele>656.0</ele><time>2026-04-04T14:48:54.2Z</time></trkpt><trkpt lat="42.8902304" lon="13.0358366"><ele>656.0</ele><time>2026-04-04T14:48:55.201Z</time></trkpt><trkpt lat="42.8901586" lon="13.03591"><ele>656.0</ele><time>2026-04-04T14:48:56.2Z</time></trkpt><trkpt lat="42.8900836" lon="13.0359589"><ele>656.0</ele><time>2026-04-04T14:48:57.2Z</time></trkpt><trkpt lat="42.8900002" lon="13.0360032"><ele>656.0</ele><time>2026-04-04T14:48:58.2Z</time></trkpt><trkpt lat="42.8899126" lon="13.0360458"><ele>656.0</ele><time>2026-04-04T14:48:59.2Z</time></trkpt><trkpt lat="42.8898291" lon="13.0361003"><ele>656.0</ele><time>2026-04-04T14:49:00.2Z</time></trkpt><trkpt lat="42.8897403" lon="13.0361609"><ele>654.4</ele><time>2026-04-04T14:49:01.2Z</time></trkpt><trkpt lat="42.8896566" lon="13.0362063"><ele>652.8</ele><time>2026-04-04T14:49:02.2Z</time></trkpt><trkpt lat="42.8895655" lon="13.0362663"><ele>651.1999999999999</ele><time>2026-04-04T14:49:03.2Z</time></trkpt><trkpt lat="42.889474" lon="13.036301"><ele>649.5999999999999</ele><time>2026-04-04T14:49:04.201Z</time></trkpt><trkpt lat="42.8893926" lon="13.0363349"><ele>648.0</ele><time>2026-04-04T14:49:05.2Z</time></trkpt><trkpt lat="42.8893112" lon="13.0363561"><ele>646.1428571428571</ele><time>2026-04-04T14:49:06.2Z</time></trkpt><trkpt lat="42.8892305" lon="13.0363535"><ele>644.2857142857142</ele><time>2026-04-04T14:49:07.2Z</time></trkpt><trkpt lat="42.8891544" lon="13.0363338"><ele>642.4285714285713</ele><time>2026-04-04T14:49:08.2Z</time></trkpt><trkpt lat="42.8890902" lon="13.0362879"><ele>640.5714285714286</ele><time>2026-04-04T14:49:09.2Z</time></trkpt><trkpt lat="42.8890403" lon="13.0362223"><ele>638.7142857142857</ele><time>2026-04-04T14:49:10.201Z</time></trkpt><trkpt lat="42.8890036" lon="13.0361432"><ele>636.8571428571428</ele><time>2026-04-04T14:49:11.2Z</time></trkpt><trkpt lat="42.8889696" lon="13.0360702"><ele>635.0</ele><time>2026-04-04T14:49:12.2Z</time></trkpt><trkpt lat="42.8888849" lon="13.0360006"><ele>635.0</ele><time>2026-04-04T14:49:14.201Z</time></trkpt><trkpt lat="42.8888254" lon="13.0360608"><ele>635.0</ele><time>2026-04-04T14:49:16.2Z</time></trkpt><trkpt lat="42.8888611" lon="13.0361992"><ele>635.0</ele><time>2026-04-04T14:49:18.201Z</time></trkpt><trkpt lat="42.8888989" lon="13.0362767"><ele>635.0</ele><time>2026-04-04T14:49:19.2Z</time></trkpt><trkpt lat="42.8889362" lon="13.0363586"><ele>635.0</ele><time>2026-04-04T14:49:20.2Z</time></trkpt><trkpt lat="42.8889615" lon="13.0364393"><ele>635.0</ele><time>2026-04-04T14:49:21.201Z</time></trkpt><trkpt lat="42.8890033" lon="13.0365144"><ele>635.0</ele><time>2026-04-04T14:49:22.201Z</time></trkpt><trkpt lat="42.8890562" lon="13.0365799"><ele>635.0</ele><time>2026-04-04T14:49:23.2Z</time></trkpt><trkpt lat="42.8891259" lon="13.0366268"><ele>635.0</ele><time>2026-04-04T14:49:24.2Z</time></trkpt><trkpt lat="42.8892036" lon="13.0366567"><ele>635.0</ele><time>2026-04-04T14:49:25.2Z</time></trkpt><trkpt lat="42.8892786" lon="13.0366796"><ele>635.0</ele><time>2026-04-04T14:49:26.201Z</time></trkpt><trkpt lat="42.8893658" lon="13.0366783"><ele>635.0</ele><time>2026-04-04T14:49:27.2Z</time></trkpt><trkpt lat="42.8894528" lon="13.0366602"><ele>637.6</ele><time>2026-04-04T14:49:28.201Z</time></trkpt><trkpt lat="42.8895485" lon="13.036644"><ele>640.2</ele><time>2026-04-04T14:49:29.2Z</time></trkpt><trkpt lat="42.8896467" lon="13.0366296"><ele>642.8</ele><time>2026-04-04T14:49:30.2Z</time></trkpt><trkpt lat="42.8897417" lon="13.0366158"><ele>645.4</ele><time>2026-04-04T14:49:31.2Z</time></trkpt><trkpt lat="42.8898396" lon="13.0366116"><ele>648.0</ele><time>2026-04-04T14:49:32.201Z</time></trkpt><trkpt lat="42.8899313" lon="13.0366131"><ele>648.0</ele><time>2026-04-04T14:49:33.2Z</time></trkpt><trkpt lat="42.890023" lon="13.0366087"><ele>648.0</ele><time>2026-04-04T14:49:34.201Z</time></trkpt><trkpt lat="42.8901047" lon="13.0366201"><ele>648.0</ele><time>2026-04-04T14:49:35.201Z</time></trkpt><trkpt lat="42.8901833" lon="13.0366346"><ele>648.0</ele><time>2026-04-04T14:49:36.201Z</time></trkpt><trkpt lat="42.8902474" lon="13.0366605"><ele>648.0</ele><time>2026-04-04T14:49:37.2Z</time></trkpt><trkpt lat="42.8903168" lon="13.0367759"><ele>648.0</ele><time>2026-04-04T14:49:39.201Z</time></trkpt><trkpt lat="42.8902778" lon="13.0369201"><ele>645.6</ele><time>2026-04-04T14:49:41.2Z</time></trkpt><trkpt lat="42.89021" lon="13.0369662"><ele>643.1999999999999</ele><time>2026-04-04T14:49:42.2Z</time></trkpt><trkpt lat="42.8901257" lon="13.037011"><ele>640.8</ele><time>2026-04-04T14:49:43.2Z</time></trkpt><trkpt lat="42.8900395" lon="13.0370575"><ele>638.4</ele><time>2026-04-04T14:49:44.2Z</time></trkpt><trkpt lat="42.8899518" lon="13.0371132"><ele>636.0</ele><time>2026-04-04T14:49:45.2Z</time></trkpt><trkpt lat="42.8898632" lon="13.0371818"><ele>632.6</ele><time>2026-04-04T14:49:46.2Z</time></trkpt><trkpt lat="42.8897853" lon="13.0372498"><ele>629.2</ele><time>2026-04-04T14:49:47.2Z</time></trkpt><trkpt lat="42.8897183" lon="13.0373479"><ele>625.8</ele><time>2026-04-04T14:49:48.2Z</time></trkpt><trkpt lat="42.8896502" lon="13.0374561"><ele>622.4</ele><time>2026-04-04T14:49:49.2Z</time></trkpt><trkpt lat="42.8895723" lon="13.0375738"><ele>619.0</ele><time>2026-04-04T14:49:50.2Z</time></trkpt><trkpt lat="42.8895008" lon="13.0376609"><ele>618.8333333333334</ele><time>2026-04-04T14:49:51.201Z</time></trkpt><trkpt lat="42.8894205" lon="13.0377386"><ele>618.6666666666667</ele><time>2026-04-04T14:49:52.2Z</time></trkpt><trkpt lat="42.8893337" lon="13.0377805"><ele>618.5</ele><time>2026-04-04T14:49:53.2Z</time></trkpt><trkpt lat="42.8892577" lon="13.037809"><ele>618.3333333333334</ele><time>2026-04-04T14:49:54.2Z</time></trkpt><trkpt lat="42.8891769" lon="13.0378508"><ele>618.1666666666666</ele><time>2026-04-04T14:49:55.2Z</time></trkpt><trkpt lat="42.889114" lon="13.0379124"><ele>618.0</ele><time>2026-04-04T14:49:56.2Z</time></trkpt><trkpt lat="42.8890608" lon="13.0379923"><ele>614.1666666666666</ele><time>2026-04-04T14:49:57.2Z</time></trkpt><trkpt lat="42.8890127" lon="13.0380721"><ele>610.3333333333334</ele><time>2026-04-04T14:49:58.2Z</time></trkpt><trkpt lat="42.8889588" lon="13.0381411"><ele>606.5</ele><time>2026-04-04T14:49:59.2Z</time></trkpt><trkpt lat="42.8888871" lon="13.0381726"><ele>602.6666666666667</ele><time>2026-04-04T14:50:00.2Z</time></trkpt><trkpt lat="42.8888066" lon="13.0381726"><ele>598.8333333333334</ele><time>2026-04-04T14:50:01.2Z</time></trkpt><trkpt lat="42.888723" lon="13.0381273"><ele>595.0</ele><time>2026-04-04T14:50:02.2Z</time></trkpt><trkpt lat="42.8886468" lon="13.0380844"><ele>595.0</ele><time>2026-04-04T14:50:03.2Z</time></trkpt><trkpt lat="42.8885571" lon="13.038031"><ele>595.0</ele><time>2026-04-04T14:50:04.201Z</time></trkpt><trkpt lat="42.8884661" lon="13.0379605"><ele>595.0</ele><time>2026-04-04T14:50:05.2Z</time></trkpt><trkpt lat="42.8883684" lon="13.0378761"><ele>595.0</ele><time>2026-04-04T14:50:06.201Z</time></trkpt><trkpt lat="42.8882772" lon="13.0377582"><ele>595.0</ele><time>2026-04-04T14:50:07.2Z</time></trkpt><trkpt lat="42.8881977" lon="13.0376494"><ele>592.4</ele><time>2026-04-04T14:50:08.2Z</time></trkpt><trkpt lat="42.8881282" lon="13.0375452"><ele>589.8</ele><time>2026-04-04T14:50:09.2Z</time></trkpt><trkpt lat="42.8880549" lon="13.037458"><ele>587.2</ele><time>2026-04-04T14:50:10.2Z</time></trkpt><trkpt lat="42.8879736" lon="13.0374124"><ele>584.6</ele><time>2026-04-04T14:50:11.201Z</time></trkpt><trkpt lat="42.8878773" lon="13.0373882"><ele>582.0</ele><time>2026-04-04T14:50:12.2Z</time></trkpt><trkpt lat="42.8877786" lon="13.0373847"><ele>582.0</ele><time>2026-04-04T14:50:13.2Z</time></trkpt><trkpt lat="42.8876848" lon="13.0374088"><ele>582.0</ele><time>2026-04-04T14:50:14.2Z</time></trkpt><trkpt lat="42.8875832" lon="13.0374431"><ele>582.0</ele><time>2026-04-04T14:50:15.2Z</time></trkpt><trkpt lat="42.8874835" lon="13.037499"><ele>582.0</ele><time>2026-04-04T14:50:16.2Z</time></trkpt><trkpt lat="42.887401" lon="13.0375614"><ele>582.0</ele><time>2026-04-04T14:50:17.2Z</time></trkpt><trkpt lat="42.8873045" lon="13.0375964"><ele>581.4</ele><time>2026-04-04T14:50:18.201Z</time></trkpt><trkpt lat="42.8872059" lon="13.0376328"><ele>580.8000000000001</ele><time>2026-04-04T14:50:19.2Z</time></trkpt><trkpt lat="42.8871065" lon="13.0376401"><ele>580.2</ele><time>2026-04-04T14:50:20.2Z</time></trkpt><trkpt lat="42.8870038" lon="13.0376569"><ele>579.6</ele><time>2026-04-04T14:50:21.2Z</time></trkpt><trkpt lat="42.8868999" lon="13.0376779"><ele>579.0</ele><time>2026-04-04T14:50:22.2Z</time></trkpt><trkpt lat="42.8867882" lon="13.0377036"><ele>575.25</ele><time>2026-04-04T14:50:23.2Z</time></trkpt><trkpt lat="42.8866833" lon="13.0377581"><ele>571.5</ele><time>2026-04-04T14:50:24.2Z</time></trkpt><trkpt lat="42.8865856" lon="13.0378386"><ele>567.75</ele><time>2026-04-04T14:50:25.2Z</time></trkpt><trkpt lat="42.8864956" lon="13.0379295"><ele>564.0</ele><time>2026-04-04T14:50:26.201Z</time></trkpt><trkpt lat="42.886393" lon="13.0379907"><ele>564.0</ele><time>2026-04-04T14:50:27.2Z</time></trkpt><trkpt lat="42.8863018" lon="13.0380729"><ele>564.0</ele><time>2026-04-04T14:50:28.2Z</time></trkpt><trkpt lat="42.8862101" lon="13.0381383"><ele>564.0</ele><time>2026-04-04T14:50:29.2Z</time></trkpt><trkpt lat="42.8861162" lon="13.0381971"><ele>564.0</ele><time>2026-04-04T14:50:30.2Z</time></trkpt><trkpt lat="42.8860237" lon="13.0382363"><ele>564.0</ele><time>2026-04-04T14:50:31.201Z</time></trkpt><trkpt lat="42.885931" lon="13.03828"><ele>560.6</ele><time>2026-04-04T14:50:32.2Z</time></trkpt><trkpt lat="42.885837" lon="13.0382921"><ele>557.2</ele><time>2026-04-04T14:50:33.2Z</time></trkpt><trkpt lat="42.8857387" lon="13.0382648"><ele>553.8000000000001</ele><time>2026-04-04T14:50:34.201Z</time></trkpt><trkpt lat="42.8856421" lon="13.0382074"><ele>550.4</ele><time>2026-04-04T14:50:35.2Z</time></trkpt><trkpt lat="42.8855364" lon="13.0381334"><ele>547.0</ele><time>2026-04-04T14:50:36.2Z</time></trkpt><trkpt lat="42.8854433" lon="13.0380503"><ele>547.0</ele><time>2026-04-04T14:50:37.2Z</time></trkpt><trkpt lat="42.8853492" lon="13.0379652"><ele>547.0</ele><time>2026-04-04T14:50:38.2Z</time></trkpt><trkpt lat="42.8852499" lon="13.0378838"><ele>547.0</ele><time>2026-04-04T14:50:39.2Z</time></trkpt><trkpt lat="42.8851488" lon="13.0378075"><ele>547.0</ele><time>2026-04-04T14:50:40.2Z</time></trkpt><trkpt lat="42.8850318" lon="13.0377179"><ele>547.0</ele><time>2026-04-04T14:50:41.2Z</time></trkpt><trkpt lat="42.8849196" lon="13.0376657"><ele>547.0</ele><time>2026-04-04T14:50:42.2Z</time></trkpt><trkpt lat="42.8848083" lon="13.037618"><ele>547.0</ele><time>2026-04-04T14:50:43.201Z</time></trkpt><trkpt lat="42.8846894" lon="13.0375823"><ele>547.0</ele><time>2026-04-04T14:50:44.201Z</time></trkpt><trkpt lat="42.8845768" lon="13.0375399"><ele>547.0</ele><time>2026-04-04T14:50:45.2Z</time></trkpt><trkpt lat="42.8844666" lon="13.0374839"><ele>547.0</ele><time>2026-04-04T14:50:46.201Z</time></trkpt><trkpt lat="42.8843615" lon="13.0374152"><ele>547.0</ele><time>2026-04-04T14:50:47.2Z</time></trkpt><trkpt lat="42.884262" lon="13.0373414"><ele>547.0</ele><time>2026-04-04T14:50:48.2Z</time></trkpt><trkpt lat="42.8841618" lon="13.0372619"><ele>544.2</ele><time>2026-04-04T14:50:49.2Z</time></trkpt><trkpt lat="42.8840647" lon="13.0371877"><ele>541.4000000000001</ele><time>2026-04-04T14:50:50.2Z</time></trkpt><trkpt lat="42.8839677" lon="13.0371199"><ele>538.5999999999999</ele><time>2026-04-04T14:50:51.2Z</time></trkpt><trkpt lat="42.8838634" lon="13.0370624"><ele>535.8</ele><time>2026-04-04T14:50:52.201Z</time></trkpt><trkpt lat="42.8837793" lon="13.0370161"><ele>533.0</ele><time>2026-04-04T14:50:53.2Z</time></trkpt><trkpt lat="42.8836724" lon="13.036976"><ele>533.0</ele><time>2026-04-04T14:50:54.201Z</time></trkpt><trkpt lat="42.8835667" lon="13.0369413"><ele>533.0</ele><time>2026-04-04T14:50:55.2Z</time></trkpt><trkpt lat="42.8834656" lon="13.0369038"><ele>533.0</ele><time>2026-04-04T14:50:56.2Z</time></trkpt><trkpt lat="42.8833766" lon="13.0368854"><ele>533.0</ele><time>2026-04-04T14:50:57.2Z</time></trkpt><trkpt lat="42.8832834" lon="13.036847"><ele>533.0</ele><time>2026-04-04T14:50:58.2Z</time></trkpt><trkpt lat="42.8831933" lon="13.036806"><ele>533.3333333333333</ele><time>2026-04-04T14:50:59.2Z</time></trkpt><trkpt lat="42.8830967" lon="13.0367724"><ele>533.6666666666666</ele><time>2026-04-04T14:51:00.201Z</time></trkpt><trkpt lat="42.8830136" lon="13.0367709"><ele>534.0</ele><time>2026-04-04T14:51:01.2Z</time></trkpt><trkpt lat="42.8829413" lon="13.0367813"><ele>534.3333333333334</ele><time>2026-04-04T14:51:02.201Z</time></trkpt><trkpt lat="42.8828617" lon="13.0368237"><ele>534.6666666666667</ele><time>2026-04-04T14:51:03.201Z</time></trkpt><trkpt lat="42.8827833" lon="13.0368977"><ele>535.0</ele><time>2026-04-04T14:51:04.2Z</time></trkpt><trkpt lat="42.882718" lon="13.0369777"><ele>535.0</ele><time>2026-04-04T14:51:05.2Z</time></trkpt><trkpt lat="42.8826603" lon="13.037072"><ele>535.0</ele><time>2026-04-04T14:51:06.201Z</time></trkpt><trkpt lat="42.8826083" lon="13.0371748"><ele>535.0</ele><time>2026-04-04T14:51:07.2Z</time></trkpt><trkpt lat="42.8825737" lon="13.0372961"><ele>535.0</ele><time>2026-04-04T14:51:08.201Z</time></trkpt><trkpt lat="42.8825352" lon="13.0374056"><ele>535.0</ele><time>2026-04-04T14:51:09.2Z</time></trkpt><trkpt lat="42.88249" lon="13.0375051"><ele>534.1666666666667</ele><time>2026-04-04T14:51:10.2Z</time></trkpt><trkpt lat="42.8824303" lon="13.0375853"><ele>533.3333333333334</ele><time>2026-04-04T14:51:11.2Z</time></trkpt><trkpt lat="42.882361" lon="13.0376588"><ele>532.5</ele><time>2026-04-04T14:51:12.2Z</time></trkpt><trkpt lat="42.8822911" lon="13.0377317"><ele>531.6666666666666</ele><time>2026-04-04T14:51:13.201Z</time></trkpt><trkpt lat="42.8822263" lon="13.0378157"><ele>530.8333333333333</ele><time>2026-04-04T14:51:14.2Z</time></trkpt><trkpt lat="42.8821585" lon="13.0378914"><ele>530.0</ele><time>2026-04-04T14:51:15.2Z</time></trkpt><trkpt lat="42.8820897" lon="13.0379693"><ele>530.0</ele><time>2026-04-04T14:51:16.2Z</time></trkpt><trkpt lat="42.8820261" lon="13.0380544"><ele>530.0</ele><time>2026-04-04T14:51:17.201Z</time></trkpt><trkpt lat="42.8819676" lon="13.0381362"><ele>530.0</ele><time>2026-04-04T14:51:18.2Z</time></trkpt><trkpt lat="42.8819186" lon="13.0382043"><ele>530.0</ele><time>2026-04-04T14:51:19.2Z</time></trkpt><trkpt lat="42.8818469" lon="13.0382847"><ele>530.0</ele><time>2026-04-04T14:51:21.2Z</time></trkpt><trkpt lat="42.8817726" lon="13.0383258"><ele>530.0</ele><time>2026-04-04T14:51:23.2Z</time></trkpt><trkpt lat="42.8817081" lon="13.0383697"><ele>529.6</ele><time>2026-04-04T14:51:24.2Z</time></trkpt><trkpt lat="42.8816473" lon="13.038449"><ele>529.2</ele><time>2026-04-04T14:51:25.2Z</time></trkpt><trkpt lat="42.8815681" lon="13.0385386"><ele>528.8</ele><time>2026-04-04T14:51:26.2Z</time></trkpt><trkpt lat="42.881488" lon="13.0386292"><ele>528.4</ele><time>2026-04-04T14:51:27.2Z</time></trkpt><trkpt lat="42.8814054" lon="13.03872"><ele>528.0</ele><time>2026-04-04T14:51:28.2Z</time></trkpt><trkpt lat="42.8813379" lon="13.0388059"><ele>528.0</ele><time>2026-04-04T14:51:29.2Z</time></trkpt><trkpt lat="42.8812681" lon="13.038891"><ele>528.0</ele><time>2026-04-04T14:51:30.2Z</time></trkpt><trkpt lat="42.8812088" lon="13.0389599"><ele>528.0</ele><time>2026-04-04T14:51:31.201Z</time></trkpt><trkpt lat="42.8811551" lon="13.0390285"><ele>528.0</ele><time>2026-04-04T14:51:32.2Z</time></trkpt><trkpt lat="42.8811034" lon="13.0390991"><ele>528.0</ele><time>2026-04-04T14:51:33.2Z</time></trkpt><trkpt lat="42.8810465" lon="13.0391719"><ele>528.0</ele><time>2026-04-04T14:51:34.2Z</time></trkpt><trkpt lat="42.8809897" lon="13.0392682"><ele>528.1999999999999</ele><time>2026-04-04T14:51:35.2Z</time></trkpt><trkpt lat="42.8809337" lon="13.0393781"><ele>528.4</ele><time>2026-04-04T14:51:36.2Z</time></trkpt><trkpt lat="42.8808774" lon="13.0394858"><ele>528.5999999999999</ele><time>2026-04-04T14:51:37.2Z</time></trkpt><trkpt lat="42.8808277" lon="13.0395913"><ele>528.8</ele><time>2026-04-04T14:51:38.2Z</time></trkpt><trkpt lat="42.8807749" lon="13.039695"><ele>529.0</ele><time>2026-04-04T14:51:39.201Z</time></trkpt><trkpt lat="42.8807236" lon="13.0397818"><ele>529.0</ele><time>2026-04-04T14:51:40.2Z</time></trkpt><trkpt lat="42.8806795" lon="13.0398501"><ele>529.0</ele><time>2026-04-04T14:51:41.201Z</time></trkpt><trkpt lat="42.88063" lon="13.0399379"><ele>529.0</ele><time>2026-04-04T14:51:42.201Z</time></trkpt><trkpt lat="42.8805839" lon="13.0400232"><ele>529.0</ele><time>2026-04-04T14:51:43.201Z</time></trkpt><trkpt lat="42.8805505" lon="13.0401136"><ele>529.0</ele><time>2026-04-04T14:51:44.2Z</time></trkpt><trkpt lat="42.8805264" lon="13.0401996"><ele>529.0</ele><time>2026-04-04T14:51:45.2Z</time></trkpt><trkpt lat="42.8804977" lon="13.0402873"><ele>529.0</ele><time>2026-04-04T14:51:46.2Z</time></trkpt><trkpt lat="42.8804852" lon="13.0403829"><ele>530.0</ele><time>2026-04-04T14:51:47.2Z</time></trkpt><trkpt lat="42.8804657" lon="13.0404784"><ele>531.0</ele><time>2026-04-04T14:51:48.2Z</time></trkpt><trkpt lat="42.8804474" lon="13.0405741"><ele>532.0</ele><time>2026-04-04T14:51:49.201Z</time></trkpt><trkpt lat="42.8804242" lon="13.0406817"><ele>533.0</ele><time>2026-04-04T14:51:50.201Z</time></trkpt><trkpt lat="42.8803877" lon="13.0407706"><ele>534.0</ele><time>2026-04-04T14:51:51.2Z</time></trkpt><trkpt lat="42.8803367" lon="13.0408514"><ele>535.0</ele><time>2026-04-04T14:51:52.2Z</time></trkpt><trkpt lat="42.8802755" lon="13.0409247"><ele>535.4</ele><time>2026-04-04T14:51:53.2Z</time></trkpt><trkpt lat="42.8802006" lon="13.0410034"><ele>535.8</ele><time>2026-04-04T14:51:54.2Z</time></trkpt><trkpt lat="42.880119" lon="13.0410914"><ele>536.2</ele><time>2026-04-04T14:51:55.2Z</time></trkpt><trkpt lat="42.8800262" lon="13.0411744"><ele>536.6</ele><time>2026-04-04T14:51:56.2Z</time></trkpt><trkpt lat="42.879929" lon="13.0412444"><ele>537.0</ele><time>2026-04-04T14:51:57.2Z</time></trkpt><trkpt lat="42.8798279" lon="13.0413185"><ele>536.25</ele><time>2026-04-04T14:51:58.201Z</time></trkpt><trkpt lat="42.8797263" lon="13.0413994"><ele>535.5</ele><time>2026-04-04T14:51:59.2Z</time></trkpt><trkpt lat="42.8796172" lon="13.0414755"><ele>534.75</ele><time>2026-04-04T14:52:00.2Z</time></trkpt><trkpt lat="42.8795086" lon="13.0415545"><ele>534.0</ele><time>2026-04-04T14:52:01.2Z</time></trkpt><trkpt lat="42.8794027" lon="13.0416329"><ele>534.0</ele><time>2026-04-04T14:52:02.2Z</time></trkpt><trkpt lat="42.879306" lon="13.041713"><ele>534.0</ele><time>2026-04-04T14:52:03.2Z</time></trkpt><trkpt lat="42.8792157" lon="13.0417896"><ele>534.0</ele><time>2026-04-04T14:52:04.2Z</time></trkpt><trkpt lat="42.8791204" lon="13.0418624"><ele>534.0</ele><time>2026-04-04T14:52:05.2Z</time></trkpt><trkpt lat="42.8790231" lon="13.0419285"><ele>534.0</ele><time>2026-04-04T14:52:06.2Z</time></trkpt><trkpt lat="42.8789192" lon="13.0419767"><ele>534.25</ele><time>2026-04-04T14:52:07.201Z</time></trkpt><trkpt lat="42.8788161" lon="13.0420787"><ele>534.5</ele><time>2026-04-04T14:52:08.2Z</time></trkpt><trkpt lat="42.8787153" lon="13.042162"><ele>534.75</ele><time>2026-04-04T14:52:09.2Z</time></trkpt><trkpt lat="42.8786139" lon="13.0422519"><ele>535.0</ele><time>2026-04-04T14:52:10.2Z</time></trkpt><trkpt lat="42.8785121" lon="13.0423505"><ele>534.75</ele><time>2026-04-04T14:52:11.2Z</time></trkpt><trkpt lat="42.8784091" lon="13.0424552"><ele>534.5</ele><time>2026-04-04T14:52:12.2Z</time></trkpt><trkpt lat="42.8783044" lon="13.0425688"><ele>534.25</ele><time>2026-04-04T14:52:13.2Z</time></trkpt><trkpt lat="42.8782073" lon="13.0426987"><ele>534.0</ele><time>2026-04-04T14:52:14.2Z</time></trkpt><trkpt lat="42.8781136" lon="13.0428516"><ele>534.5</ele><time>2026-04-04T14:52:15.2Z</time></trkpt><trkpt lat="42.8780294" lon="13.0430137"><ele>535.0</ele><time>2026-04-04T14:52:16.2Z</time></trkpt><trkpt lat="42.8779432" lon="13.0431861"><ele>535.5</ele><time>2026-04-04T14:52:17.2Z</time></trkpt><trkpt lat="42.8778541" lon="13.0433453"><ele>536.0</ele><time>2026-04-04T14:52:18.2Z</time></trkpt><trkpt lat="42.8777592" lon="13.0435098"><ele>536.25</ele><time>2026-04-04T14:52:19.2Z</time></trkpt><trkpt lat="42.8776518" lon="13.0436479"><ele>536.5</ele><time>2026-04-04T14:52:20.2Z</time></trkpt><trkpt lat="42.8775338" lon="13.0437685"><ele>536.75</ele><time>2026-04-04T14:52:21.201Z</time></trkpt><trkpt lat="42.877407" lon="13.0438732"><ele>537.0</ele><time>2026-04-04T14:52:22.2Z</time></trkpt><trkpt lat="42.8772688" lon="13.0439588"><ele>537.0</ele><time>2026-04-04T14:52:23.201Z</time></trkpt><trkpt lat="42.8771247" lon="13.0440361"><ele>537.0</ele><time>2026-04-04T14:52:24.2Z</time></trkpt><trkpt lat="42.8769692" lon="13.0440985"><ele>537.0</ele><time>2026-04-04T14:52:25.201Z</time></trkpt><trkpt lat="42.8768162" lon="13.0441642"><ele>540.3333333333334</ele><time>2026-04-04T14:52:26.201Z</time></trkpt><trkpt lat="42.8766707" lon="13.0442404"><ele>543.6666666666667</ele><time>2026-04-04T14:52:27.2Z</time></trkpt><trkpt lat="42.876538" lon="13.0443392"><ele>547.0</ele><time>2026-04-04T14:52:28.2Z</time></trkpt><trkpt lat="42.8764109" lon="13.0444654"><ele>547.0</ele><time>2026-04-04T14:52:29.201Z</time></trkpt><trkpt lat="42.8762902" lon="13.0446186"><ele>547.0</ele><time>2026-04-04T14:52:30.2Z</time></trkpt><trkpt lat="42.8761723" lon="13.0447895"><ele>547.0</ele><time>2026-04-04T14:52:31.2Z</time></trkpt><trkpt lat="42.876053" lon="13.0449629"><ele>546.3333333333334</ele><time>2026-04-04T14:52:32.2Z</time></trkpt><trkpt lat="42.8759282" lon="13.0451399"><ele>545.6666666666666</ele><time>2026-04-04T14:52:33.2Z</time></trkpt><trkpt lat="42.8758045" lon="13.0453202"><ele>545.0</ele><time>2026-04-04T14:52:34.2Z</time></trkpt><trkpt lat="42.8756829" lon="13.045494"><ele>545.0</ele><time>2026-04-04T14:52:35.201Z</time></trkpt><trkpt lat="42.8755593" lon="13.0456646"><ele>545.0</ele><time>2026-04-04T14:52:36.2Z</time></trkpt><trkpt lat="42.8754339" lon="13.0458111"><ele>545.0</ele><time>2026-04-04T14:52:37.201Z</time></trkpt><trkpt lat="42.8752976" lon="13.0459272"><ele>545.0</ele><time>2026-04-04T14:52:38.201Z</time></trkpt><trkpt lat="42.8751548" lon="13.04604"><ele>545.0</ele><time>2026-04-04T14:52:39.201Z</time></trkpt><trkpt lat="42.8750116" lon="13.046139"><ele>545.0</ele><time>2026-04-04T14:52:40.201Z</time></trkpt><trkpt lat="42.8748647" lon="13.0462259"><ele>545.0</ele><time>2026-04-04T14:52:41.2Z</time></trkpt><trkpt lat="42.8747255" lon="13.0463162"><ele>545.0</ele><time>2026-04-04T14:52:42.2Z</time></trkpt><trkpt lat="42.8745855" lon="13.0464183"><ele>545.0</ele><time>2026-04-04T14:52:43.201Z</time></trkpt><trkpt lat="42.8744564" lon="13.0465528"><ele>546.6666666666666</ele><time>2026-04-04T14:52:44.2Z</time></trkpt><trkpt lat="42.8743259" lon="13.0467071"><ele>548.3333333333334</ele><time>2026-04-04T14:52:45.2Z</time></trkpt><trkpt lat="42.8741884" lon="13.0468804"><ele>550.0</ele><time>2026-04-04T14:52:46.2Z</time></trkpt><trkpt lat="42.8740359" lon="13.0470567"><ele>550.0</ele><time>2026-04-04T14:52:47.2Z</time></trkpt><trkpt lat="42.8738894" lon="13.0472194"><ele>550.0</ele><time>2026-04-04T14:52:48.2Z</time></trkpt><trkpt lat="42.8737452" lon="13.0473716"><ele>550.0</ele><time>2026-04-04T14:52:49.2Z</time></trkpt><trkpt lat="42.873604" lon="13.047514"><ele>550.3333333333334</ele><time>2026-04-04T14:52:50.2Z</time></trkpt><trkpt lat="42.8734631" lon="13.0476455"><ele>550.6666666666666</ele><time>2026-04-04T14:52:51.2Z</time></trkpt><trkpt lat="42.8733266" lon="13.0477764"><ele>551.0</ele><time>2026-04-04T14:52:52.2Z</time></trkpt><trkpt lat="42.873194" lon="13.0479146"><ele>551.0</ele><time>2026-04-04T14:52:53.2Z</time></trkpt><trkpt lat="42.8730656" lon="13.0480676"><ele>551.0</ele><time>2026-04-04T14:52:54.201Z</time></trkpt><trkpt lat="42.8729496" lon="13.0482316"><ele>551.0</ele><time>2026-04-04T14:52:55.2Z</time></trkpt><trkpt lat="42.8728387" lon="13.0484197"><ele>552.3333333333333</ele><time>2026-04-04T14:52:56.201Z</time></trkpt><trkpt lat="42.8727367" lon="13.0486158"><ele>553.6666666666666</ele><time>2026-04-04T14:52:57.201Z</time></trkpt><trkpt lat="42.872639" lon="13.0487941"><ele>555.0</ele><time>2026-04-04T14:52:58.201Z</time></trkpt><trkpt lat="42.8725188" lon="13.0489672"><ele>560.3333333333334</ele><time>2026-04-04T14:52:59.2Z</time></trkpt><trkpt lat="42.8723798" lon="13.0491304"><ele>565.6666666666667</ele><time>2026-04-04T14:53:00.2Z</time></trkpt><trkpt lat="42.8722263" lon="13.0492955"><ele>571.0</ele><time>2026-04-04T14:53:01.2Z</time></trkpt><trkpt lat="42.8720653" lon="13.0494597"><ele>571.0</ele><time>2026-04-04T14:53:02.201Z</time></trkpt><trkpt lat="42.8719061" lon="13.049631"><ele>571.0</ele><time>2026-04-04T14:53:03.2Z</time></trkpt><trkpt lat="42.8717461" lon="13.0497896"><ele>571.0</ele><time>2026-04-04T14:53:04.2Z</time></trkpt><trkpt lat="42.8715805" lon="13.0499455"><ele>570.6666666666667</ele><time>2026-04-04T14:53:05.201Z</time></trkpt><trkpt lat="42.8714162" lon="13.0501011"><ele>570.3333333333334</ele><time>2026-04-04T14:53:06.2Z</time></trkpt><trkpt lat="42.8712541" lon="13.0502464"><ele>570.0</ele><time>2026-04-04T14:53:07.201Z</time></trkpt><trkpt lat="42.8710905" lon="13.0503791"><ele>567.3333333333334</ele><time>2026-04-04T14:53:08.201Z</time></trkpt><trkpt lat="42.8709179" lon="13.0504917"><ele>564.6666666666667</ele><time>2026-04-04T14:53:09.2Z</time></trkpt><trkpt lat="42.8707517" lon="13.0505851"><ele>562.0</ele><time>2026-04-04T14:53:10.2Z</time></trkpt><trkpt lat="42.8705919" lon="13.0506853"><ele>568.0</ele><time>2026-04-04T14:53:11.2Z</time></trkpt><trkpt lat="42.8704391" lon="13.0508165"><ele>574.0</ele><time>2026-04-04T14:53:12.2Z</time></trkpt><trkpt lat="42.8702865" lon="13.0509394"><ele>580.0</ele><time>2026-04-04T14:53:13.2Z</time></trkpt><trkpt lat="42.8701393" lon="13.0510488"><ele>576.5</ele><time>2026-04-04T14:53:14.2Z</time></trkpt><trkpt lat="42.8699905" lon="13.0511447"><ele>573.0</ele><time>2026-04-04T14:53:15.201Z</time></trkpt><trkpt lat="42.8698505" lon="13.0512149"><ele>569.5</ele><time>2026-04-04T14:53:16.2Z</time></trkpt><trkpt lat="42.8697277" lon="13.0512925"><ele>566.0</ele><time>2026-04-04T14:53:17.201Z</time></trkpt><trkpt lat="42.8696292" lon="13.0513838"><ele>566.0</ele><time>2026-04-04T14:53:18.2Z</time></trkpt><trkpt lat="42.8695538" lon="13.0515345"><ele>566.0</ele><time>2026-04-04T14:53:19.201Z</time></trkpt><trkpt lat="42.869487" lon="13.0517119"><ele>566.0</ele><time>2026-04-04T14:53:20.2Z</time></trkpt><trkpt lat="42.8694086" lon="13.0518976"><ele>566.0</ele><time>2026-04-04T14:53:21.201Z</time></trkpt><trkpt lat="42.8693072" lon="13.0520888"><ele>568.3333333333333</ele><time>2026-04-04T14:53:22.2Z</time></trkpt><trkpt lat="42.8692009" lon="13.052275"><ele>570.6666666666666</ele><time>2026-04-04T14:53:23.2Z</time></trkpt><trkpt lat="42.8690913" lon="13.0524476"><ele>573.0</ele><time>2026-04-04T14:53:24.2Z</time></trkpt><trkpt lat="42.8689835" lon="13.0526112"><ele>576.5</ele><time>2026-04-04T14:53:25.2Z</time></trkpt><trkpt lat="42.8688869" lon="13.0527589"><ele>580.0</ele><time>2026-04-04T14:53:26.201Z</time></trkpt><trkpt lat="42.8687994" lon="13.0529008"><ele>583.5</ele><time>2026-04-04T14:53:27.2Z</time></trkpt><trkpt lat="42.8687358" lon="13.0530578"><ele>587.0</ele><time>2026-04-04T14:53:28.2Z</time></trkpt><trkpt lat="42.8686929" lon="13.0532356"><ele>595.3333333333333</ele><time>2026-04-04T14:53:29.201Z</time></trkpt><trkpt lat="42.8686585" lon="13.0534342"><ele>603.6666666666666</ele><time>2026-04-04T14:53:30.201Z</time></trkpt><trkpt lat="42.868617" lon="13.0536406"><ele>612.0</ele><time>2026-04-04T14:53:31.2Z</time></trkpt><trkpt lat="42.8685646" lon="13.0538496"><ele>612.0</ele><time>2026-04-04T14:53:32.2Z</time></trkpt><trkpt lat="42.868507" lon="13.0540448"><ele>612.0</ele><time>2026-04-04T14:53:33.201Z</time></trkpt><trkpt lat="42.8684321" lon="13.0542354"><ele>612.0</ele><time>2026-04-04T14:53:34.2Z</time></trkpt><trkpt lat="42.8683484" lon="13.0544045"><ele>608.5</ele><time>2026-04-04T14:53:35.2Z</time></trkpt><trkpt lat="42.8682608" lon="13.0545538"><ele>605.0</ele><time>2026-04-04T14:53:36.201Z</time></trkpt><trkpt lat="42.8681823" lon="13.0546981"><ele>601.5</ele><time>2026-04-04T14:53:37.2Z</time></trkpt><trkpt lat="42.8681198" lon="13.0548387"><ele>598.0</ele><time>2026-04-04T14:53:38.2Z</time></trkpt><trkpt lat="42.8680911" lon="13.0549611"><ele>598.0</ele><time>2026-04-04T14:53:39.2Z</time></trkpt><trkpt lat="42.8680992" lon="13.0550972"><ele>598.0</ele><time>2026-04-04T14:53:40.201Z</time></trkpt><trkpt lat="42.8681313" lon="13.0552523"><ele>598.0</ele><time>2026-04-04T14:53:41.201Z</time></trkpt><trkpt lat="42.8681817" lon="13.0554072"><ele>598.0</ele><time>2026-04-04T14:53:42.2Z</time></trkpt><trkpt lat="42.8682262" lon="13.0555675"><ele>598.0</ele><time>2026-04-04T14:53:43.2Z</time></trkpt><trkpt lat="42.8682566" lon="13.0557589"><ele>598.0</ele><time>2026-04-04T14:53:44.2Z</time></trkpt><trkpt lat="42.8682694" lon="13.0559483"><ele>598.0</ele><time>2026-04-04T14:53:45.2Z</time></trkpt><trkpt lat="42.8682884" lon="13.0561336"><ele>598.0</ele><time>2026-04-04T14:53:46.2Z</time></trkpt><trkpt lat="42.8682732" lon="13.0563157"><ele>598.0</ele><time>2026-04-04T14:53:47.2Z</time></trkpt><trkpt lat="42.868241" lon="13.0565102"><ele>598.0</ele><time>2026-04-04T14:53:48.201Z</time></trkpt><trkpt lat="42.8681873" lon="13.0566931"><ele>598.0</ele><time>2026-04-04T14:53:49.2Z</time></trkpt><trkpt lat="42.8681039" lon="13.056874"><ele>598.0</ele><time>2026-04-04T14:53:50.2Z</time></trkpt><trkpt lat="42.8680054" lon="13.0570436"><ele>599.3333333333334</ele><time>2026-04-04T14:53:51.201Z</time></trkpt><trkpt lat="42.8678961" lon="13.0572086"><ele>600.6666666666666</ele><time>2026-04-04T14:53:52.201Z</time></trkpt><trkpt lat="42.867774" lon="13.0573509"><ele>602.0</ele><time>2026-04-04T14:53:53.2Z</time></trkpt><trkpt lat="42.8676365" lon="13.0574766"><ele>601.5</ele><time>2026-04-04T14:53:54.2Z</time></trkpt><trkpt lat="42.8675083" lon="13.0575902"><ele>601.0</ele><time>2026-04-04T14:53:55.2Z</time></trkpt><trkpt lat="42.8673896" lon="13.0576895"><ele>600.5</ele><time>2026-04-04T14:53:56.2Z</time></trkpt><trkpt lat="42.8672809" lon="13.0577811"><ele>600.0</ele><time>2026-04-04T14:53:57.2Z</time></trkpt><trkpt lat="42.8671848" lon="13.0578559"><ele>600.0</ele><time>2026-04-04T14:53:58.2Z</time></trkpt><trkpt lat="42.8671043" lon="13.057922"><ele>600.0</ele><time>2026-04-04T14:53:59.2Z</time></trkpt><trkpt lat="42.8670314" lon="13.0579837"><ele>600.0</ele><time>2026-04-04T14:54:00.2Z</time></trkpt><trkpt lat="42.8669693" lon="13.0580595"><ele>600.0</ele><time>2026-04-04T14:54:01.201Z</time></trkpt><trkpt lat="42.8669198" lon="13.0581622"><ele>600.0</ele><time>2026-04-04T14:54:02.201Z</time></trkpt><trkpt lat="42.8668935" lon="13.058295"><ele>604.6</ele><time>2026-04-04T14:54:03.2Z</time></trkpt><trkpt lat="42.8668786" lon="13.0584275"><ele>609.2</ele><time>2026-04-04T14:54:04.2Z</time></trkpt><trkpt lat="42.8668724" lon="13.0585919"><ele>613.8</ele><time>2026-04-04T14:54:05.2Z</time></trkpt><trkpt lat="42.8668628" lon="13.0587447"><ele>618.4</ele><time>2026-04-04T14:54:06.201Z</time></trkpt><trkpt lat="42.8668532" lon="13.0588927"><ele>623.0</ele><time>2026-04-04T14:54:07.2Z</time></trkpt><trkpt lat="42.8668517" lon="13.0590428"><ele>623.6</ele><time>2026-04-04T14:54:08.201Z</time></trkpt><trkpt lat="42.8668445" lon="13.0591748"><ele>624.1999999999999</ele><time>2026-04-04T14:54:09.2Z</time></trkpt><trkpt lat="42.8668391" lon="13.0593139"><ele>624.8</ele><time>2026-04-04T14:54:10.2Z</time></trkpt><trkpt lat="42.8668313" lon="13.0594504"><ele>625.4</ele><time>2026-04-04T14:54:11.201Z</time></trkpt><trkpt lat="42.8668144" lon="13.0595913"><ele>626.0</ele><time>2026-04-04T14:54:12.2Z</time></trkpt><trkpt lat="42.8668013" lon="13.0597219"><ele>626.0</ele><time>2026-04-04T14:54:13.2Z</time></trkpt><trkpt lat="42.8667899" lon="13.0598526"><ele>626.0</ele><time>2026-04-04T14:54:14.2Z</time></trkpt><trkpt lat="42.8667884" lon="13.0599727"><ele>626.0</ele><time>2026-04-04T14:54:15.2Z</time></trkpt><trkpt lat="42.8667915" lon="13.060089"><ele>626.0</ele><time>2026-04-04T14:54:16.201Z</time></trkpt><trkpt lat="42.8667809" lon="13.0602029"><ele>626.0</ele><time>2026-04-04T14:54:17.2Z</time></trkpt><trkpt lat="42.8667657" lon="13.060305"><ele>626.0</ele><time>2026-04-04T14:54:18.2Z</time></trkpt><trkpt lat="42.8667553" lon="13.060414"><ele>624.5</ele><time>2026-04-04T14:54:19.2Z</time></trkpt><trkpt lat="42.8667399" lon="13.0605181"><ele>623.0</ele><time>2026-04-04T14:54:20.2Z</time></trkpt><trkpt lat="42.8667231" lon="13.0606296"><ele>621.5</ele><time>2026-04-04T14:54:21.2Z</time></trkpt><trkpt lat="42.8667011" lon="13.0607473"><ele>620.0</ele><time>2026-04-04T14:54:22.2Z</time></trkpt><trkpt lat="42.8666716" lon="13.0608657"><ele>618.5</ele><time>2026-04-04T14:54:23.2Z</time></trkpt><trkpt lat="42.8666389" lon="13.0609704"><ele>617.0</ele><time>2026-04-04T14:54:24.201Z</time></trkpt><trkpt lat="42.8665876" lon="13.0610699"><ele>617.0</ele><time>2026-04-04T14:54:25.2Z</time></trkpt><trkpt lat="42.866535" lon="13.0611577"><ele>617.0</ele><time>2026-04-04T14:54:26.201Z</time></trkpt><trkpt lat="42.8664825" lon="13.0612263"><ele>617.0</ele><time>2026-04-04T14:54:27.201Z</time></trkpt><trkpt lat="42.8664299" lon="13.0613044"><ele>617.0</ele><time>2026-04-04T14:54:28.2Z</time></trkpt><trkpt lat="42.8663874" lon="13.0613941"><ele>617.0</ele><time>2026-04-04T14:54:29.201Z</time></trkpt><trkpt lat="42.8663478" lon="13.0614824"><ele>617.0</ele><time>2026-04-04T14:54:30.2Z</time></trkpt><trkpt lat="42.866331" lon="13.0615958"><ele>619.5</ele><time>2026-04-04T14:54:31.2Z</time></trkpt><trkpt lat="42.8663131" lon="13.0617079"><ele>622.0</ele><time>2026-04-04T14:54:32.2Z</time></trkpt><trkpt lat="42.8663023" lon="13.0618223"><ele>624.5</ele><time>2026-04-04T14:54:33.201Z</time></trkpt><trkpt lat="42.8662819" lon="13.0619361"><ele>627.0</ele><time>2026-04-04T14:54:34.2Z</time></trkpt><trkpt lat="42.8662574" lon="13.0620534"><ele>629.5</ele><time>2026-04-04T14:54:35.2Z</time></trkpt><trkpt lat="42.8662323" lon="13.0621625"><ele>632.0</ele><time>2026-04-04T14:54:36.201Z</time></trkpt><trkpt lat="42.8661868" lon="13.0622585"><ele>632.0</ele><time>2026-04-04T14:54:37.2Z</time></trkpt><trkpt lat="42.8661294" lon="13.0623509"><ele>632.0</ele><time>2026-04-04T14:54:38.2Z</time></trkpt><trkpt lat="42.8660682" lon="13.0624362"><ele>632.0</ele><time>2026-04-04T14:54:39.2Z</time></trkpt><trkpt lat="42.866006" lon="13.0625293"><ele>632.0</ele><time>2026-04-04T14:54:40.2Z</time></trkpt><trkpt lat="42.8659319" lon="13.0626111"><ele>632.0</ele><time>2026-04-04T14:54:41.2Z</time></trkpt><trkpt lat="42.8658537" lon="13.0626765"><ele>629.8000000000001</ele><time>2026-04-04T14:54:42.2Z</time></trkpt><trkpt lat="42.8657563" lon="13.0627192"><ele>627.6</ele><time>2026-04-04T14:54:43.201Z</time></trkpt><trkpt lat="42.8656555" lon="13.062753"><ele>625.4000000000001</ele><time>2026-04-04T14:54:44.201Z</time></trkpt><trkpt lat="42.8655553" lon="13.062787"><ele>623.2</ele><time>2026-04-04T14:54:45.2Z</time></trkpt><trkpt lat="42.8654578" lon="13.0628139"><ele>621.0</ele><time>2026-04-04T14:54:46.2Z</time></trkpt><trkpt lat="42.8653639" lon="13.0628526"><ele>621.0</ele><time>2026-04-04T14:54:47.201Z</time></trkpt><trkpt lat="42.8652692" lon="13.0629136"><ele>621.0</ele><time>2026-04-04T14:54:48.2Z</time></trkpt><trkpt lat="42.8651756" lon="13.0629971"><ele>621.0</ele><time>2026-04-04T14:54:49.2Z</time></trkpt><trkpt lat="42.8650645" lon="13.0630862"><ele>621.0</ele><time>2026-04-04T14:54:50.2Z</time></trkpt><trkpt lat="42.8649573" lon="13.0631728"><ele>617.25</ele><time>2026-04-04T14:54:51.2Z</time></trkpt><trkpt lat="42.8648507" lon="13.0632671"><ele>613.5</ele><time>2026-04-04T14:54:52.2Z</time></trkpt><trkpt lat="42.86474" lon="13.0633717"><ele>609.75</ele><time>2026-04-04T14:54:53.2Z</time></trkpt><trkpt lat="42.8646314" lon="13.0634714"><ele>606.0</ele><time>2026-04-04T14:54:54.2Z</time></trkpt><trkpt lat="42.8645304" lon="13.0635817"><ele>607.25</ele><time>2026-04-04T14:54:55.201Z</time></trkpt><trkpt lat="42.8644326" lon="13.0637066"><ele>608.5</ele><time>2026-04-04T14:54:56.2Z</time></trkpt><trkpt lat="42.8643368" lon="13.0638403"><ele>609.75</ele><time>2026-04-04T14:54:57.201Z</time></trkpt><trkpt lat="42.8642394" lon="13.0639764"><ele>611.0</ele><time>2026-04-04T14:54:58.2Z</time></trkpt><trkpt lat="42.8641425" lon="13.0641187"><ele>616.0</ele><time>2026-04-04T14:54:59.201Z</time></trkpt><trkpt lat="42.8640497" lon="13.0642663"><ele>621.0</ele><time>2026-04-04T14:55:00.2Z</time></trkpt><trkpt lat="42.863961" lon="13.0644257"><ele>626.0</ele><time>2026-04-04T14:55:01.2Z</time></trkpt><trkpt lat="42.8638765" lon="13.0645842"><ele>631.0</ele><time>2026-04-04T14:55:02.201Z</time></trkpt><trkpt lat="42.8637929" lon="13.0647458"><ele>631.0</ele><time>2026-04-04T14:55:03.2Z</time></trkpt><trkpt lat="42.8637177" lon="13.0649095"><ele>631.0</ele><time>2026-04-04T14:55:04.2Z</time></trkpt><trkpt lat="42.8636534" lon="13.0650846"><ele>631.0</ele><time>2026-04-04T14:55:05.2Z</time></trkpt><trkpt lat="42.863602" lon="13.0652717"><ele>631.0</ele><time>2026-04-04T14:55:06.201Z</time></trkpt><trkpt lat="42.863572" lon="13.065502"><ele>639.0</ele><time>2026-04-04T14:55:07.2Z</time></trkpt><trkpt lat="42.8635409" lon="13.0657146"><ele>647.0</ele><time>2026-04-04T14:55:08.2Z</time></trkpt><trkpt lat="42.8635226" lon="13.0659291"><ele>655.0</ele><time>2026-04-04T14:55:09.2Z</time></trkpt><trkpt lat="42.8635111" lon="13.0661503"><ele>660.3333333333334</ele><time>2026-04-04T14:55:10.2Z</time></trkpt><trkpt lat="42.8635017" lon="13.0663655"><ele>665.6666666666666</ele><time>2026-04-04T14:55:11.2Z</time></trkpt><trkpt lat="42.8634836" lon="13.0665881"><ele>671.0</ele><time>2026-04-04T14:55:12.2Z</time></trkpt><trkpt lat="42.8634558" lon="13.0668094"><ele>661.3333333333333</ele><time>2026-04-04T14:55:13.2Z</time></trkpt><trkpt lat="42.8634146" lon="13.0670316"><ele>651.6666666666666</ele><time>2026-04-04T14:55:14.2Z</time></trkpt><trkpt lat="42.8633763" lon="13.0672476"><ele>642.0</ele><time>2026-04-04T14:55:15.201Z</time></trkpt><trkpt lat="42.8633334" lon="13.0674596"><ele>642.0</ele><time>2026-04-04T14:55:16.2Z</time></trkpt><trkpt lat="42.8632972" lon="13.0676533"><ele>642.0</ele><time>2026-04-04T14:55:17.201Z</time></trkpt><trkpt lat="42.8632546" lon="13.0678237"><ele>642.0</ele><time>2026-04-04T14:55:18.201Z</time></trkpt><trkpt lat="42.8632068" lon="13.0679784"><ele>642.0</ele><time>2026-04-04T14:55:19.201Z</time></trkpt><trkpt lat="42.863146" lon="13.0681087"><ele>642.0</ele><time>2026-04-04T14:55:20.201Z</time></trkpt><trkpt lat="42.8630674" lon="13.0682092"><ele>642.0</ele><time>2026-04-04T14:55:21.201Z</time></trkpt><trkpt lat="42.8629739" lon="13.0682719"><ele>642.0</ele><time>2026-04-04T14:55:22.201Z</time></trkpt><trkpt lat="42.8628662" lon="13.0682934"><ele>642.0</ele><time>2026-04-04T14:55:23.2Z</time></trkpt><trkpt lat="42.8627487" lon="13.068297"><ele>642.0</ele><time>2026-04-04T14:55:24.2Z</time></trkpt><trkpt lat="42.8626268" lon="13.0682943"><ele>639.5</ele><time>2026-04-04T14:55:25.2Z</time></trkpt><trkpt lat="42.8625015" lon="13.0683763"><ele>637.0</ele><time>2026-04-04T14:55:26.2Z</time></trkpt><trkpt lat="42.8623761" lon="13.0684672"><ele>634.5</ele><time>2026-04-04T14:55:27.2Z</time></trkpt><trkpt lat="42.8622483" lon="13.0685898"><ele>632.0</ele><time>2026-04-04T14:55:28.2Z</time></trkpt><trkpt lat="42.8621002" lon="13.0687181"><ele>632.0</ele><time>2026-04-04T14:55:29.2Z</time></trkpt><trkpt lat="42.8619681" lon="13.068863"><ele>632.0</ele><time>2026-04-04T14:55:30.2Z</time></trkpt><trkpt lat="42.8618281" lon="13.0690131"><ele>632.0</ele><time>2026-04-04T14:55:31.2Z</time></trkpt><trkpt lat="42.8616831" lon="13.0691699"><ele>632.0</ele><time>2026-04-04T14:55:32.201Z</time></trkpt><trkpt lat="42.8615189" lon="13.0693019"><ele>632.0</ele><time>2026-04-04T14:55:33.2Z</time></trkpt><trkpt lat="42.8613527" lon="13.0694251"><ele>632.0</ele><time>2026-04-04T14:55:34.201Z</time></trkpt><trkpt lat="42.8611828" lon="13.0695238"><ele>632.0</ele><time>2026-04-04T14:55:35.2Z</time></trkpt><trkpt lat="42.8610231" lon="13.0696086"><ele>632.0</ele><time>2026-04-04T14:55:36.201Z</time></trkpt><trkpt lat="42.8608754" lon="13.0696875"><ele>632.0</ele><time>2026-04-04T14:55:37.2Z</time></trkpt><trkpt lat="42.8607465" lon="13.0697694"><ele>631.5</ele><time>2026-04-04T14:55:38.2Z</time></trkpt><trkpt lat="42.8606253" lon="13.0698713"><ele>631.0</ele><time>2026-04-04T14:55:39.2Z</time></trkpt><trkpt lat="42.8605197" lon="13.0700044"><ele>630.5</ele><time>2026-04-04T14:55:40.2Z</time></trkpt><trkpt lat="42.8604192" lon="13.0701288"><ele>630.0</ele><time>2026-04-04T14:55:41.2Z</time></trkpt><trkpt lat="42.8603203" lon="13.0702417"><ele>632.0</ele><time>2026-04-04T14:55:42.201Z</time></trkpt><trkpt lat="42.8602109" lon="13.0703139"><ele>634.0</ele><time>2026-04-04T14:55:43.2Z</time></trkpt><trkpt lat="42.8600835" lon="13.0703494"><ele>636.0</ele><time>2026-04-04T14:55:44.2Z</time></trkpt><trkpt lat="42.8599577" lon="13.0703524"><ele>638.0</ele><time>2026-04-04T14:55:45.2Z</time></trkpt><trkpt lat="42.8598373" lon="13.0703474"><ele>638.0</ele><time>2026-04-04T14:55:46.201Z</time></trkpt><trkpt lat="42.8597229" lon="13.0703337"><ele>638.0</ele><time>2026-04-04T14:55:47.2Z</time></trkpt><trkpt lat="42.8596428" lon="13.0703584"><ele>638.0</ele><time>2026-04-04T14:55:48.2Z</time></trkpt><trkpt lat="42.8595786" lon="13.070415"><ele>638.0</ele><time>2026-04-04T14:55:49.2Z</time></trkpt><trkpt lat="42.8595379" lon="13.0705029"><ele>638.0</ele><time>2026-04-04T14:55:50.2Z</time></trkpt><trkpt lat="42.8595248" lon="13.0706254"><ele>638.0</ele><time>2026-04-04T14:55:51.201Z</time></trkpt><trkpt lat="42.8595246" lon="13.0707714"><ele>642.2</ele><time>2026-04-04T14:55:52.2Z</time></trkpt><trkpt lat="42.8595208" lon="13.070931"><ele>646.4</ele><time>2026-04-04T14:55:53.201Z</time></trkpt><trkpt lat="42.8595102" lon="13.0710813"><ele>650.6</ele><time>2026-04-04T14:55:54.2Z</time></trkpt><trkpt lat="42.8595002" lon="13.0712207"><ele>654.8000000000001</ele><time>2026-04-04T14:55:55.2Z</time></trkpt><trkpt lat="42.8594743" lon="13.0713407"><ele>659.0</ele><time>2026-04-04T14:55:56.201Z</time></trkpt><trkpt lat="42.8594111" lon="13.0714374"><ele>659.0</ele><time>2026-04-04T14:55:57.2Z</time></trkpt><trkpt lat="42.8593162" lon="13.071525"><ele>659.0</ele><time>2026-04-04T14:55:58.2Z</time></trkpt><trkpt lat="42.8591907" lon="13.0715976"><ele>659.0</ele><time>2026-04-04T14:55:59.201Z</time></trkpt><trkpt lat="42.8590635" lon="13.0716656"><ele>659.0</ele><time>2026-04-04T14:56:00.2Z</time></trkpt><trkpt lat="42.8589283" lon="13.0717298"><ele>659.25</ele><time>2026-04-04T14:56:01.2Z</time></trkpt><trkpt lat="42.8587892" lon="13.0718039"><ele>659.5</ele><time>2026-04-04T14:56:02.2Z</time></trkpt><trkpt lat="42.8586523" lon="13.0718848"><ele>659.75</ele><time>2026-04-04T14:56:03.2Z</time></trkpt><trkpt lat="42.8585179" lon="13.0719767"><ele>660.0</ele><time>2026-04-04T14:56:04.201Z</time></trkpt><trkpt lat="42.8583852" lon="13.0720696"><ele>661.75</ele><time>2026-04-04T14:56:05.201Z</time></trkpt><trkpt lat="42.8582642" lon="13.072171"><ele>663.5</ele><time>2026-04-04T14:56:06.2Z</time></trkpt><trkpt lat="42.858155" lon="13.0723015"><ele>665.25</ele><time>2026-04-04T14:56:07.201Z</time></trkpt><trkpt lat="42.8580607" lon="13.0724516"><ele>667.0</ele><time>2026-04-04T14:56:08.201Z</time></trkpt><trkpt lat="42.857966" lon="13.0725994"><ele>667.0</ele><time>2026-04-04T14:56:09.2Z</time></trkpt><trkpt lat="42.8578821" lon="13.0727562"><ele>667.0</ele><time>2026-04-04T14:56:10.2Z</time></trkpt><trkpt lat="42.8578148" lon="13.0729256"><ele>667.0</ele><time>2026-04-04T14:56:11.201Z</time></trkpt><trkpt lat="42.8577707" lon="13.0730975"><ele>667.0</ele><time>2026-04-04T14:56:12.201Z</time></trkpt><trkpt lat="42.857722" lon="13.0732701"><ele>664.0</ele><time>2026-04-04T14:56:13.2Z</time></trkpt><trkpt lat="42.8576459" lon="13.0734039"><ele>661.0</ele><time>2026-04-04T14:56:14.2Z</time></trkpt><trkpt lat="42.8575361" lon="13.0735333"><ele>658.0</ele><time>2026-04-04T14:56:15.201Z</time></trkpt><trkpt lat="42.8573946" lon="13.0736629"><ele>655.0</ele><time>2026-04-04T14:56:16.2Z</time></trkpt><trkpt lat="42.857251" lon="13.0737991"><ele>655.0</ele><time>2026-04-04T14:56:17.201Z</time></trkpt><trkpt lat="42.8571131" lon="13.0739571"><ele>655.0</ele><time>2026-04-04T14:56:18.2Z</time></trkpt><trkpt lat="42.8569599" lon="13.0741035"><ele>655.0</ele><time>2026-04-04T14:56:19.201Z</time></trkpt><trkpt lat="42.8568039" lon="13.0742462"><ele>656.3333333333334</ele><time>2026-04-04T14:56:20.2Z</time></trkpt><trkpt lat="42.8566359" lon="13.0743881"><ele>657.6666666666666</ele><time>2026-04-04T14:56:21.2Z</time></trkpt><trkpt lat="42.8564572" lon="13.0745384"><ele>659.0</ele><time>2026-04-04T14:56:22.2Z</time></trkpt><trkpt lat="42.8562807" lon="13.0746915"><ele>659.0</ele><time>2026-04-04T14:56:23.2Z</time></trkpt><trkpt lat="42.8561137" lon="13.0748482"><ele>659.0</ele><time>2026-04-04T14:56:24.201Z</time></trkpt><trkpt lat="42.85595" lon="13.0750071"><ele>659.0</ele><time>2026-04-04T14:56:25.201Z</time></trkpt><trkpt lat="42.8557948" lon="13.0751791"><ele>659.6666666666666</ele><time>2026-04-04T14:56:26.201Z</time></trkpt><trkpt lat="42.8556368" lon="13.075338"><ele>660.3333333333334</ele><time>2026-04-04T14:56:27.2Z</time></trkpt><trkpt lat="42.8554797" lon="13.075499"><ele>661.0</ele><time>2026-04-04T14:56:28.2Z</time></trkpt><trkpt lat="42.8553163" lon="13.075633"><ele>661.0</ele><time>2026-04-04T14:56:29.2Z</time></trkpt><trkpt lat="42.8551499" lon="13.0757612"><ele>661.0</ele><time>2026-04-04T14:56:30.2Z</time></trkpt><trkpt lat="42.854993" lon="13.0758728"><ele>661.0</ele><time>2026-04-04T14:56:31.2Z</time></trkpt><trkpt lat="42.8548433" lon="13.0759689"><ele>662.0</ele><time>2026-04-04T14:56:32.201Z</time></trkpt><trkpt lat="42.8547017" lon="13.0760527"><ele>663.0</ele><time>2026-04-04T14:56:33.2Z</time></trkpt><trkpt lat="42.8545502" lon="13.0761227"><ele>664.0</ele><time>2026-04-04T14:56:34.2Z</time></trkpt><trkpt lat="42.8543971" lon="13.0761386"><ele>663.0</ele><time>2026-04-04T14:56:35.2Z</time></trkpt><trkpt lat="42.8542562" lon="13.0761285"><ele>662.0</ele><time>2026-04-04T14:56:36.2Z</time></trkpt><trkpt lat="42.8541214" lon="13.076142"><ele>661.0</ele><time>2026-04-04T14:56:37.2Z</time></trkpt><trkpt lat="42.8539974" lon="13.0761925"><ele>660.0</ele><time>2026-04-04T14:56:38.201Z</time></trkpt><trkpt lat="42.8538824" lon="13.0762686"><ele>660.0</ele><time>2026-04-04T14:56:39.201Z</time></trkpt><trkpt lat="42.8537845" lon="13.0763723"><ele>660.0</ele><time>2026-04-04T14:56:40.2Z</time></trkpt><trkpt lat="42.8537015" lon="13.0764966"><ele>660.0</ele><time>2026-04-04T14:56:41.2Z</time></trkpt><trkpt lat="42.8536327" lon="13.0766393"><ele>660.0</ele><time>2026-04-04T14:56:42.2Z</time></trkpt><trkpt lat="42.8535814" lon="13.0767931"><ele>662.75</ele><time>2026-04-04T14:56:43.2Z</time></trkpt><trkpt lat="42.8535513" lon="13.076953"><ele>665.5</ele><time>2026-04-04T14:56:44.2Z</time></trkpt><trkpt lat="42.8535337" lon="13.0771311"><ele>668.25</ele><time>2026-04-04T14:56:45.2Z</time></trkpt><trkpt lat="42.8535241" lon="13.0773049"><ele>671.0</ele><time>2026-04-04T14:56:46.2Z</time></trkpt><trkpt lat="42.85351" lon="13.0775031"><ele>673.3333333333333</ele><time>2026-04-04T14:56:47.201Z</time></trkpt><trkpt lat="42.8534792" lon="13.0777107"><ele>675.6666666666666</ele><time>2026-04-04T14:56:48.2Z</time></trkpt><trkpt lat="42.8534126" lon="13.0779303"><ele>678.0</ele><time>2026-04-04T14:56:49.2Z</time></trkpt><trkpt lat="42.8533128" lon="13.0781575"><ele>676.3333333333334</ele><time>2026-04-04T14:56:50.2Z</time></trkpt><trkpt lat="42.8532009" lon="13.0783661"><ele>674.6666666666667</ele><time>2026-04-04T14:56:51.2Z</time></trkpt><trkpt lat="42.8530868" lon="13.0785461"><ele>673.0</ele><time>2026-04-04T14:56:52.2Z</time></trkpt><trkpt lat="42.852975" lon="13.0787002"><ele>673.0</ele><time>2026-04-04T14:56:53.2Z</time></trkpt><trkpt lat="42.8528704" lon="13.0788412"><ele>673.0</ele><time>2026-04-04T14:56:54.2Z</time></trkpt><trkpt lat="42.8527992" lon="13.0789925"><ele>673.0</ele><time>2026-04-04T14:56:55.201Z</time></trkpt><trkpt lat="42.8527476" lon="13.0791775"><ele>673.0</ele><time>2026-04-04T14:56:56.2Z</time></trkpt><trkpt lat="42.8527154" lon="13.0793883"><ele>675.3333333333334</ele><time>2026-04-04T14:56:57.201Z</time></trkpt><trkpt lat="42.8526887" lon="13.0796061"><ele>677.6666666666666</ele><time>2026-04-04T14:56:58.2Z</time></trkpt><trkpt lat="42.8526595" lon="13.079837"><ele>680.0</ele><time>2026-04-04T14:56:59.2Z</time></trkpt><trkpt lat="42.852634" lon="13.0800674"><ele>675.3333333333333</ele><time>2026-04-04T14:57:00.201Z</time></trkpt><trkpt lat="42.8526105" lon="13.0802824"><ele>670.6666666666666</ele><time>2026-04-04T14:57:01.2Z</time></trkpt><trkpt lat="42.8525892" lon="13.0805038"><ele>666.0</ele><time>2026-04-04T14:57:02.201Z</time></trkpt><trkpt lat="42.8525773" lon="13.0807319"><ele>666.6666666666666</ele><time>2026-04-04T14:57:03.2Z</time></trkpt><trkpt lat="42.8525736" lon="13.0809481"><ele>667.3333333333333</ele><time>2026-04-04T14:57:04.2Z</time></trkpt><trkpt lat="42.8525729" lon="13.0811555"><ele>668.0</ele><time>2026-04-04T14:57:05.2Z</time></trkpt><trkpt lat="42.8525904" lon="13.0813546"><ele>668.0</ele><time>2026-04-04T14:57:06.2Z</time></trkpt><trkpt lat="42.852618" lon="13.0815533"><ele>668.0</ele><time>2026-04-04T14:57:07.2Z</time></trkpt><trkpt lat="42.8526597" lon="13.08175"><ele>668.0</ele><time>2026-04-04T14:57:08.2Z</time></trkpt><trkpt lat="42.8527171" lon="13.0819438"><ele>672.3333333333333</ele><time>2026-04-04T14:57:09.201Z</time></trkpt><trkpt lat="42.8527931" lon="13.0821398"><ele>676.6666666666666</ele><time>2026-04-04T14:57:10.2Z</time></trkpt><trkpt lat="42.8528906" lon="13.0823226"><ele>681.0</ele><time>2026-04-04T14:57:11.2Z</time></trkpt><trkpt lat="42.8529847" lon="13.0825045"><ele>682.6666666666666</ele><time>2026-04-04T14:57:12.2Z</time></trkpt><trkpt lat="42.8530756" lon="13.0826877"><ele>684.3333333333333</ele><time>2026-04-04T14:57:13.2Z</time></trkpt><trkpt lat="42.8531581" lon="13.0828658"><ele>686.0</ele><time>2026-04-04T14:57:14.201Z</time></trkpt><trkpt lat="42.8532313" lon="13.083052"><ele>686.0</ele><time>2026-04-04T14:57:15.201Z</time></trkpt><trkpt lat="42.8532807" lon="13.0832528"><ele>686.0</ele><time>2026-04-04T14:57:16.2Z</time></trkpt><trkpt lat="42.8533075" lon="13.0834575"><ele>686.0</ele><time>2026-04-04T14:57:17.201Z</time></trkpt><trkpt lat="42.8533279" lon="13.0836456"><ele>686.0</ele><time>2026-04-04T14:57:18.2Z</time></trkpt><trkpt lat="42.8533329" lon="13.0838176"><ele>686.75</ele><time>2026-04-04T14:57:19.2Z</time></trkpt><trkpt lat="42.8533231" lon="13.0839724"><ele>687.5</ele><time>2026-04-04T14:57:20.2Z</time></trkpt><trkpt lat="42.8532742" lon="13.0841205"><ele>688.25</ele><time>2026-04-04T14:57:21.2Z</time></trkpt><trkpt lat="42.8531758" lon="13.0842556"><ele>689.0</ele><time>2026-04-04T14:57:22.2Z</time></trkpt><trkpt lat="42.8530672" lon="13.084349"><ele>689.0</ele><time>2026-04-04T14:57:23.201Z</time></trkpt><trkpt lat="42.8529408" lon="13.0844253"><ele>689.0</ele><time>2026-04-04T14:57:24.2Z</time></trkpt><trkpt lat="42.8528099" lon="13.084496"><ele>689.0</ele><time>2026-04-04T14:57:25.2Z</time></trkpt><trkpt lat="42.8526812" lon="13.0845674"><ele>689.0</ele><time>2026-04-04T14:57:26.2Z</time></trkpt><trkpt lat="42.8525711" lon="13.0846465"><ele>689.0</ele><time>2026-04-04T14:57:27.2Z</time></trkpt><trkpt lat="42.8524726" lon="13.084758"><ele>689.0</ele><time>2026-04-04T14:57:28.201Z</time></trkpt><trkpt lat="42.8524134" lon="13.0849159"><ele>689.0</ele><time>2026-04-04T14:57:29.201Z</time></trkpt><trkpt lat="42.8523859" lon="13.085102"><ele>689.0</ele><time>2026-04-04T14:57:30.2Z</time></trkpt><trkpt lat="42.8523778" lon="13.0853144"><ele>689.6666666666666</ele><time>2026-04-04T14:57:31.2Z</time></trkpt><trkpt lat="42.8523755" lon="13.085548"><ele>690.3333333333334</ele><time>2026-04-04T14:57:32.2Z</time></trkpt><trkpt lat="42.8523717" lon="13.0857742"><ele>691.0</ele><time>2026-04-04T14:57:33.2Z</time></trkpt><trkpt lat="42.8523691" lon="13.0860072"><ele>692.0</ele><time>2026-04-04T14:57:34.2Z</time></trkpt><trkpt lat="42.8523647" lon="13.0862505"><ele>693.0</ele><time>2026-04-04T14:57:35.2Z</time></trkpt><trkpt lat="42.852361" lon="13.0865013"><ele>694.0</ele><time>2026-04-04T14:57:36.2Z</time></trkpt><trkpt lat="42.8523497" lon="13.0867494"><ele>695.3333333333334</ele><time>2026-04-04T14:57:37.2Z</time></trkpt><trkpt lat="42.8523377" lon="13.0869863"><ele>696.6666666666666</ele><time>2026-04-04T14:57:38.2Z</time></trkpt><trkpt lat="42.8523299" lon="13.0872312"><ele>698.0</ele><time>2026-04-04T14:57:39.2Z</time></trkpt><trkpt lat="42.8523222" lon="13.0874775"><ele>699.0</ele><time>2026-04-04T14:57:40.2Z</time></trkpt><trkpt lat="42.8523137" lon="13.0877214"><ele>700.0</ele><time>2026-04-04T14:57:41.2Z</time></trkpt><trkpt lat="42.8523123" lon="13.0879661"><ele>701.0</ele><time>2026-04-04T14:57:42.2Z</time></trkpt><trkpt lat="42.8523091" lon="13.0882088"><ele>702.6666666666666</ele><time>2026-04-04T14:57:43.2Z</time></trkpt><trkpt lat="42.8523051" lon="13.0884571"><ele>704.3333333333334</ele><time>2026-04-04T14:57:44.2Z</time></trkpt><trkpt lat="42.8523422" lon="13.0886933"><ele>706.0</ele><time>2026-04-04T14:57:45.2Z</time></trkpt><trkpt lat="42.8523652" lon="13.0889204"><ele>707.6666666666667</ele><time>2026-04-04T14:57:46.2Z</time></trkpt><trkpt lat="42.8523952" lon="13.0891367"><ele>709.3333333333334</ele><time>2026-04-04T14:57:47.2Z</time></trkpt><trkpt lat="42.8524208" lon="13.0893435"><ele>711.0</ele><time>2026-04-04T14:57:48.2Z</time></trkpt><trkpt lat="42.8524397" lon="13.0895333"><ele>711.0</ele><time>2026-04-04T14:57:49.201Z</time></trkpt><trkpt lat="42.8524598" lon="13.0897034"><ele>711.0</ele><time>2026-04-04T14:57:50.2Z</time></trkpt><trkpt lat="42.8524835" lon="13.0898641"><ele>711.0</ele><time>2026-04-04T14:57:51.2Z</time></trkpt><trkpt lat="42.8525045" lon="13.0900142"><ele>711.0</ele><time>2026-04-04T14:57:52.2Z</time></trkpt><trkpt lat="42.8525238" lon="13.0901516"><ele>711.1666666666666</ele><time>2026-04-04T14:57:53.201Z</time></trkpt><trkpt lat="42.8525386" lon="13.0902773"><ele>711.3333333333334</ele><time>2026-04-04T14:57:54.2Z</time></trkpt><trkpt lat="42.8525405" lon="13.0903963"><ele>711.5</ele><time>2026-04-04T14:57:55.2Z</time></trkpt><trkpt lat="42.8525341" lon="13.0905093"><ele>711.6666666666667</ele><time>2026-04-04T14:57:56.2Z</time></trkpt><trkpt lat="42.8525149" lon="13.0906202"><ele>711.8333333333334</ele><time>2026-04-04T14:57:57.2Z</time></trkpt><trkpt lat="42.8524844" lon="13.0907397"><ele>712.0</ele><time>2026-04-04T14:57:58.201Z</time></trkpt><trkpt lat="42.8524531" lon="13.0908557"><ele>712.2</ele><time>2026-04-04T14:57:59.201Z</time></trkpt><trkpt lat="42.8524139" lon="13.090987"><ele>712.4000000000001</ele><time>2026-04-04T14:58:00.2Z</time></trkpt><trkpt lat="42.8523829" lon="13.091117"><ele>712.5999999999999</ele><time>2026-04-04T14:58:01.2Z</time></trkpt><trkpt lat="42.8523487" lon="13.0912389"><ele>712.8</ele><time>2026-04-04T14:58:02.2Z</time></trkpt><trkpt lat="42.8523192" lon="13.0913736"><ele>713.0</ele><time>2026-04-04T14:58:03.2Z</time></trkpt><trkpt lat="42.8523155" lon="13.0915021"><ele>713.0</ele><time>2026-04-04T14:58:04.201Z</time></trkpt><trkpt lat="42.8523217" lon="13.0916451"><ele>713.0</ele><time>2026-04-04T14:58:05.2Z</time></trkpt><trkpt lat="42.8523434" lon="13.0918059"><ele>713.0</ele><time>2026-04-04T14:58:06.2Z</time></trkpt><trkpt lat="42.8523762" lon="13.0919695"><ele>713.0</ele><time>2026-04-04T14:58:07.2Z</time></trkpt><trkpt lat="42.8524177" lon="13.0921476"><ele>713.0</ele><time>2026-04-04T14:58:08.2Z</time></trkpt><trkpt lat="42.8524592" lon="13.0923316"><ele>713.0</ele><time>2026-04-04T14:58:09.2Z</time></trkpt><trkpt lat="42.8525041" lon="13.0925213"><ele>713.0</ele><time>2026-04-04T14:58:10.2Z</time></trkpt><trkpt lat="42.8525493" lon="13.0927102"><ele>713.0</ele><time>2026-04-04T14:58:11.2Z</time></trkpt><trkpt lat="42.8525867" lon="13.0928927"><ele>714.5</ele><time>2026-04-04T14:58:12.201Z</time></trkpt><trkpt lat="42.8526246" lon="13.0930667"><ele>716.0</ele><time>2026-04-04T14:58:13.2Z</time></trkpt><trkpt lat="42.8526629" lon="13.0932306"><ele>717.5</ele><time>2026-04-04T14:58:14.201Z</time></trkpt><trkpt lat="42.8526975" lon="13.0933803"><ele>719.0</ele><time>2026-04-04T14:58:15.201Z</time></trkpt><trkpt lat="42.8527271" lon="13.0935199"><ele>719.2</ele><time>2026-04-04T14:58:16.2Z</time></trkpt><trkpt lat="42.8527645" lon="13.0936537"><ele>719.4000000000001</ele><time>2026-04-04T14:58:17.201Z</time></trkpt><trkpt lat="42.8527527" lon="13.0938002"><ele>719.6</ele><time>2026-04-04T14:58:18.2Z</time></trkpt><trkpt lat="42.8527073" lon="13.0939397"><ele>719.8</ele><time>2026-04-04T14:58:19.2Z</time></trkpt><trkpt lat="42.8526451" lon="13.0940797"><ele>720.0</ele><time>2026-04-04T14:58:20.2Z</time></trkpt><trkpt lat="42.852569" lon="13.094214"><ele>718.0</ele><time>2026-04-04T14:58:21.2Z</time></trkpt><trkpt lat="42.8525069" lon="13.094338"><ele>716.0</ele><time>2026-04-04T14:58:22.2Z</time></trkpt><trkpt lat="42.85244" lon="13.094446"><ele>714.0</ele><time>2026-04-04T14:58:23.2Z</time></trkpt><trkpt lat="42.8523632" lon="13.0945431"><ele>712.0</ele><time>2026-04-04T14:58:24.201Z</time></trkpt><trkpt lat="42.8522695" lon="13.0946068"><ele>710.0</ele><time>2026-04-04T14:58:25.2Z</time></trkpt><trkpt lat="42.8521613" lon="13.0946126"><ele>710.0</ele><time>2026-04-04T14:58:26.2Z</time></trkpt><trkpt lat="42.8520397" lon="13.0945597"><ele>710.0</ele><time>2026-04-04T14:58:27.2Z</time></trkpt><trkpt lat="42.8519215" lon="13.0944672"><ele>710.0</ele><time>2026-04-04T14:58:28.2Z</time></trkpt><trkpt lat="42.8518054" lon="13.0943597"><ele>710.0</ele><time>2026-04-04T14:58:29.201Z</time></trkpt><trkpt lat="42.8516927" lon="13.094239"><ele>708.5</ele><time>2026-04-04T14:58:30.201Z</time></trkpt><trkpt lat="42.8515851" lon="13.0941101"><ele>707.0</ele><time>2026-04-04T14:58:31.2Z</time></trkpt><trkpt lat="42.8514965" lon="13.0939839"><ele>705.5</ele><time>2026-04-04T14:58:32.201Z</time></trkpt><trkpt lat="42.8513991" lon="13.0938217"><ele>704.0</ele><time>2026-04-04T14:58:33.201Z</time></trkpt><trkpt lat="42.8513099" lon="13.0936879"><ele>704.0</ele><time>2026-04-04T14:58:34.201Z</time></trkpt><trkpt lat="42.8512359" lon="13.0935711"><ele>704.0</ele><time>2026-04-04T14:58:35.2Z</time></trkpt><trkpt lat="42.8511645" lon="13.0934602"><ele>704.0</ele><time>2026-04-04T14:58:36.201Z</time></trkpt><trkpt lat="42.8510975" lon="13.0933669"><ele>704.0</ele><time>2026-04-04T14:58:37.2Z</time></trkpt><trkpt lat="42.8510283" lon="13.09329"><ele>704.0</ele><time>2026-04-04T14:58:38.2Z</time></trkpt><trkpt lat="42.8509511" lon="13.0932405"><ele>705.1666666666666</ele><time>2026-04-04T14:58:39.2Z</time></trkpt><trkpt lat="42.8508762" lon="13.093228"><ele>706.3333333333333</ele><time>2026-04-04T14:58:40.2Z</time></trkpt><trkpt lat="42.8508028" lon="13.0932447"><ele>707.5</ele><time>2026-04-04T14:58:41.2Z</time></trkpt><trkpt lat="42.8507383" lon="13.093285"><ele>708.6666666666666</ele><time>2026-04-04T14:58:42.2Z</time></trkpt><trkpt lat="42.8506677" lon="13.0933332"><ele>709.8333333333334</ele><time>2026-04-04T14:58:43.2Z</time></trkpt><trkpt lat="42.8505777" lon="13.0934119"><ele>711.0</ele><time>2026-04-04T14:58:44.2Z</time></trkpt><trkpt lat="42.8504863" lon="13.0934926"><ele>712.25</ele><time>2026-04-04T14:58:45.2Z</time></trkpt><trkpt lat="42.8503908" lon="13.0935886"><ele>713.5</ele><time>2026-04-04T14:58:46.2Z</time></trkpt><trkpt lat="42.8502972" lon="13.0937069"><ele>714.75</ele><time>2026-04-04T14:58:47.201Z</time></trkpt><trkpt lat="42.8501877" lon="13.0938265"><ele>716.0</ele><time>2026-04-04T14:58:48.201Z</time></trkpt><trkpt lat="42.8500718" lon="13.0939527"><ele>716.25</ele><time>2026-04-04T14:58:49.2Z</time></trkpt><trkpt lat="42.8499565" lon="13.0940777"><ele>716.5</ele><time>2026-04-04T14:58:50.201Z</time></trkpt><trkpt lat="42.8498394" lon="13.0941992"><ele>716.75</ele><time>2026-04-04T14:58:51.2Z</time></trkpt><trkpt lat="42.8497263" lon="13.0943375"><ele>717.0</ele><time>2026-04-04T14:58:52.2Z</time></trkpt><trkpt lat="42.8496068" lon="13.0944694"><ele>717.6666666666666</ele><time>2026-04-04T14:58:53.2Z</time></trkpt><trkpt lat="42.8494913" lon="13.0946123"><ele>718.3333333333333</ele><time>2026-04-04T14:58:54.2Z</time></trkpt><trkpt lat="42.8493722" lon="13.0947598"><ele>719.0</ele><time>2026-04-04T14:58:55.201Z</time></trkpt><trkpt lat="42.8492515" lon="13.0948864"><ele>718.3333333333333</ele><time>2026-04-04T14:58:56.2Z</time></trkpt><trkpt lat="42.8491264" lon="13.0950067"><ele>717.6666666666666</ele><time>2026-04-04T14:58:57.2Z</time></trkpt><trkpt lat="42.8489896" lon="13.0951143"><ele>717.0</ele><time>2026-04-04T14:58:58.201Z</time></trkpt><trkpt lat="42.8488514" lon="13.0952064"><ele>717.0</ele><time>2026-04-04T14:58:59.2Z</time></trkpt><trkpt lat="42.848707" lon="13.0952686"><ele>717.0</ele><time>2026-04-04T14:59:00.201Z</time></trkpt><trkpt lat="42.8485599" lon="13.0953235"><ele>717.0</ele><time>2026-04-04T14:59:01.201Z</time></trkpt><trkpt lat="42.8484173" lon="13.0953794"><ele>717.25</ele><time>2026-04-04T14:59:02.2Z</time></trkpt><trkpt lat="42.8482757" lon="13.0954411"><ele>717.5</ele><time>2026-04-04T14:59:03.2Z</time></trkpt><trkpt lat="42.8481379" lon="13.0955025"><ele>717.75</ele><time>2026-04-04T14:59:04.201Z</time></trkpt><trkpt lat="42.8480013" lon="13.0956001"><ele>718.0</ele><time>2026-04-04T14:59:05.2Z</time></trkpt><trkpt lat="42.8478816" lon="13.0957138"><ele>718.5</ele><time>2026-04-04T14:59:06.2Z</time></trkpt><trkpt lat="42.8477674" lon="13.0958451"><ele>719.0</ele><time>2026-04-04T14:59:07.2Z</time></trkpt><trkpt lat="42.847658" lon="13.0959832"><ele>719.5</ele><time>2026-04-04T14:59:08.201Z</time></trkpt><trkpt lat="42.847547" lon="13.0961185"><ele>720.0</ele><time>2026-04-04T14:59:09.201Z</time></trkpt><trkpt lat="42.8474395" lon="13.0962588"><ele>721.25</ele><time>2026-04-04T14:59:10.2Z</time></trkpt><trkpt lat="42.8473415" lon="13.0963982"><ele>722.5</ele><time>2026-04-04T14:59:11.2Z</time></trkpt><trkpt lat="42.8472533" lon="13.0965469"><ele>723.75</ele><time>2026-04-04T14:59:12.2Z</time></trkpt><trkpt lat="42.847178" lon="13.096705"><ele>725.0</ele><time>2026-04-04T14:59:13.2Z</time></trkpt><trkpt lat="42.847116" lon="13.0968687"><ele>725.25</ele><time>2026-04-04T14:59:14.2Z</time></trkpt><trkpt lat="42.8470653" lon="13.0970381"><ele>725.5</ele><time>2026-04-04T14:59:15.2Z</time></trkpt><trkpt lat="42.8470323" lon="13.0972248"><ele>725.75</ele><time>2026-04-04T14:59:16.2Z</time></trkpt><trkpt lat="42.8469903" lon="13.0974159"><ele>726.0</ele><time>2026-04-04T14:59:17.2Z</time></trkpt><trkpt lat="42.8469466" lon="13.0976053"><ele>727.0</ele><time>2026-04-04T14:59:18.2Z</time></trkpt><trkpt lat="42.8469006" lon="13.0977986"><ele>728.0</ele><time>2026-04-04T14:59:19.2Z</time></trkpt><trkpt lat="42.8468513" lon="13.0979926"><ele>729.0</ele><time>2026-04-04T14:59:20.2Z</time></trkpt><trkpt lat="42.8468108" lon="13.0981886"><ele>730.0</ele><time>2026-04-04T14:59:21.201Z</time></trkpt><trkpt lat="42.8467595" lon="13.0983653"><ele>731.25</ele><time>2026-04-04T14:59:22.2Z</time></trkpt><trkpt lat="42.8466958" lon="13.0985293"><ele>732.5</ele><time>2026-04-04T14:59:23.201Z</time></trkpt><trkpt lat="42.8466209" lon="13.0986987"><ele>733.75</ele><time>2026-04-04T14:59:24.2Z</time></trkpt><trkpt lat="42.8465216" lon="13.098855"><ele>735.0</ele><time>2026-04-04T14:59:25.2Z</time></trkpt><trkpt lat="42.8464071" lon="13.099005"><ele>737.0</ele><time>2026-04-04T14:59:26.2Z</time></trkpt><trkpt lat="42.8462891" lon="13.0991594"><ele>739.0</ele><time>2026-04-04T14:59:27.201Z</time></trkpt><trkpt lat="42.8461655" lon="13.0993217"><ele>741.0</ele><time>2026-04-04T14:59:28.2Z</time></trkpt><trkpt lat="42.8460503" lon="13.0995014"><ele>739.6666666666666</ele><time>2026-04-04T14:59:29.2Z</time></trkpt><trkpt lat="42.8459492" lon="13.0996879"><ele>738.3333333333333</ele><time>2026-04-04T14:59:30.2Z</time></trkpt><trkpt lat="42.845863" lon="13.0998683"><ele>737.0</ele><time>2026-04-04T14:59:31.2Z</time></trkpt><trkpt lat="42.8457775" lon="13.1000474"><ele>739.0</ele><time>2026-04-04T14:59:32.2Z</time></trkpt><trkpt lat="42.8456995" lon="13.1002195"><ele>741.0</ele><time>2026-04-04T14:59:33.2Z</time></trkpt><trkpt lat="42.8456106" lon="13.1003758"><ele>743.0</ele><time>2026-04-04T14:59:34.201Z</time></trkpt><trkpt lat="42.84552" lon="13.1005157"><ele>745.0</ele><time>2026-04-04T14:59:35.2Z</time></trkpt><trkpt lat="42.8454287" lon="13.1006268"><ele>745.0</ele><time>2026-04-04T14:59:36.201Z</time></trkpt><trkpt lat="42.845341" lon="13.1007248"><ele>745.0</ele><time>2026-04-04T14:59:37.2Z</time></trkpt><trkpt lat="42.8452524" lon="13.1008109"><ele>745.0</ele><time>2026-04-04T14:59:38.2Z</time></trkpt><trkpt lat="42.8451695" lon="13.1008968"><ele>745.0</ele><time>2026-04-04T14:59:39.201Z</time></trkpt><trkpt lat="42.84509" lon="13.1009761"><ele>745.0</ele><time>2026-04-04T14:59:40.2Z</time></trkpt><trkpt lat="42.8450108" lon="13.1010534"><ele>747.0</ele><time>2026-04-04T14:59:41.2Z</time></trkpt><trkpt lat="42.8449291" lon="13.1011396"><ele>749.0</ele><time>2026-04-04T14:59:42.201Z</time></trkpt><trkpt lat="42.8448519" lon="13.101216"><ele>751.0</ele><time>2026-04-04T14:59:43.2Z</time></trkpt><trkpt lat="42.8447729" lon="13.1012879"><ele>753.0</ele><time>2026-04-04T14:59:44.2Z</time></trkpt><trkpt lat="42.8446884" lon="13.1013522"><ele>755.0</ele><time>2026-04-04T14:59:45.2Z</time></trkpt><trkpt lat="42.8446116" lon="13.1013965"><ele>755.0</ele><time>2026-04-04T14:59:46.2Z</time></trkpt><trkpt lat="42.8445445" lon="13.1014206"><ele>755.0</ele><time>2026-04-04T14:59:47.2Z</time></trkpt><trkpt lat="42.8444815" lon="13.1014319"><ele>755.0</ele><time>2026-04-04T14:59:48.2Z</time></trkpt><trkpt lat="42.8444167" lon="13.1014324"><ele>755.0</ele><time>2026-04-04T14:59:49.201Z</time></trkpt><trkpt lat="42.8443508" lon="13.101435"><ele>755.0</ele><time>2026-04-04T14:59:50.2Z</time></trkpt><trkpt lat="42.844279" lon="13.1014344"><ele>755.0</ele><time>2026-04-04T14:59:51.2Z</time></trkpt><trkpt lat="42.8441963" lon="13.1014266"><ele>755.0</ele><time>2026-04-04T14:59:52.201Z</time></trkpt><trkpt lat="42.8441041" lon="13.1014389"><ele>755.2</ele><time>2026-04-04T14:59:53.2Z</time></trkpt><trkpt lat="42.8440078" lon="13.1014552"><ele>755.4</ele><time>2026-04-04T14:59:54.2Z</time></trkpt><trkpt lat="42.8439098" lon="13.1014786"><ele>755.5999999999999</ele><time>2026-04-04T14:59:55.2Z</time></trkpt><trkpt lat="42.8438139" lon="13.1015115"><ele>755.8</ele><time>2026-04-04T14:59:56.201Z</time></trkpt><trkpt lat="42.843709" lon="13.1015568"><ele>756.0</ele><time>2026-04-04T14:59:57.201Z</time></trkpt><trkpt lat="42.8435968" lon="13.1015997"><ele>756.5</ele><time>2026-04-04T14:59:58.2Z</time></trkpt><trkpt lat="42.8434792" lon="13.1016569"><ele>757.0</ele><time>2026-04-04T14:59:59.2Z</time></trkpt><trkpt lat="42.8433611" lon="13.1017237"><ele>757.5</ele><time>2026-04-04T15:00:00.2Z</time></trkpt><trkpt lat="42.8432365" lon="13.1018"><ele>758.0</ele><time>2026-04-04T15:00:01.2Z</time></trkpt><trkpt lat="42.8431088" lon="13.1018829"><ele>758.0</ele><time>2026-04-04T15:00:02.2Z</time></trkpt><trkpt lat="42.8429785" lon="13.1019619"><ele>758.0</ele><time>2026-04-04T15:00:03.2Z</time></trkpt><trkpt lat="42.8428395" lon="13.1020477"><ele>758.0</ele><time>2026-04-04T15:00:04.2Z</time></trkpt><trkpt lat="42.8427038" lon="13.1021177"><ele>758.0</ele><time>2026-04-04T15:00:05.2Z</time></trkpt><trkpt lat="42.842564" lon="13.1021932"><ele>757.75</ele><time>2026-04-04T15:00:06.2Z</time></trkpt><trkpt lat="42.8424264" lon="13.102266"><ele>757.5</ele><time>2026-04-04T15:00:07.201Z</time></trkpt><trkpt lat="42.8422866" lon="13.102337"><ele>757.25</ele><time>2026-04-04T15:00:08.2Z</time></trkpt><trkpt lat="42.8421545" lon="13.1023971"><ele>757.0</ele><time>2026-04-04T15:00:09.2Z</time></trkpt><trkpt lat="42.8420266" lon="13.1024524"><ele>757.0</ele><time>2026-04-04T15:00:10.2Z</time></trkpt><trkpt lat="42.8419026" lon="13.1025136"><ele>757.0</ele><time>2026-04-04T15:00:11.2Z</time></trkpt><trkpt lat="42.8417849" lon="13.1025698"><ele>757.0</ele><time>2026-04-04T15:00:12.201Z</time></trkpt><trkpt lat="42.8416659" lon="13.1026322"><ele>757.0</ele><time>2026-04-04T15:00:13.201Z</time></trkpt><trkpt lat="42.8415512" lon="13.1026937"><ele>756.25</ele><time>2026-04-04T15:00:14.2Z</time></trkpt><trkpt lat="42.8414292" lon="13.1027582"><ele>755.5</ele><time>2026-04-04T15:00:15.201Z</time></trkpt><trkpt lat="42.8412995" lon="13.1028213"><ele>754.75</ele><time>2026-04-04T15:00:16.2Z</time></trkpt><trkpt lat="42.8411688" lon="13.1028914"><ele>754.0</ele><time>2026-04-04T15:00:17.2Z</time></trkpt><trkpt lat="42.8410272" lon="13.1029448"><ele>753.0</ele><time>2026-04-04T15:00:18.2Z</time></trkpt><trkpt lat="42.8408871" lon="13.1030179"><ele>752.0</ele><time>2026-04-04T15:00:19.2Z</time></trkpt><trkpt lat="42.8407528" lon="13.1030886"><ele>751.0</ele><time>2026-04-04T15:00:20.201Z</time></trkpt><trkpt lat="42.8406282" lon="13.1031649"><ele>750.0</ele><time>2026-04-04T15:00:21.2Z</time></trkpt><trkpt lat="42.8405081" lon="13.1032337"><ele>751.0</ele><time>2026-04-04T15:00:22.2Z</time></trkpt><trkpt lat="42.8404001" lon="13.1032925"><ele>752.0</ele><time>2026-04-04T15:00:23.2Z</time></trkpt><trkpt lat="42.8403022" lon="13.1033459"><ele>753.0</ele><time>2026-04-04T15:00:24.201Z</time></trkpt><trkpt lat="42.8402065" lon="13.1034005"><ele>754.0</ele><time>2026-04-04T15:00:25.2Z</time></trkpt><trkpt lat="42.8401068" lon="13.1034185"><ele>755.0</ele><time>2026-04-04T15:00:26.201Z</time></trkpt><trkpt lat="42.8400066" lon="13.1034157"><ele>755.25</ele><time>2026-04-04T15:00:27.2Z</time></trkpt><trkpt lat="42.8399066" lon="13.1033824"><ele>755.5</ele><time>2026-04-04T15:00:28.2Z</time></trkpt><trkpt lat="42.8398106" lon="13.1033153"><ele>755.75</ele><time>2026-04-04T15:00:29.2Z</time></trkpt><trkpt lat="42.8397155" lon="13.1032264"><ele>756.0</ele><time>2026-04-04T15:00:30.2Z</time></trkpt><trkpt lat="42.8396182" lon="13.1031025"><ele>756.0</ele><time>2026-04-04T15:00:31.2Z</time></trkpt><trkpt lat="42.8395254" lon="13.1029977"><ele>756.0</ele><time>2026-04-04T15:00:32.2Z</time></trkpt><trkpt lat="42.8394306" lon="13.102889"><ele>756.0</ele><time>2026-04-04T15:00:33.201Z</time></trkpt><trkpt lat="42.8393426" lon="13.1027902"><ele>756.0</ele><time>2026-04-04T15:00:34.2Z</time></trkpt><trkpt lat="42.8392593" lon="13.1026993"><ele>757.0</ele><time>2026-04-04T15:00:35.2Z</time></trkpt><trkpt lat="42.8391835" lon="13.1026198"><ele>758.0</ele><time>2026-04-04T15:00:36.2Z</time></trkpt><trkpt lat="42.8391136" lon="13.1025487"><ele>759.0</ele><time>2026-04-04T15:00:37.2Z</time></trkpt><trkpt lat="42.8390423" lon="13.1024933"><ele>760.0</ele><time>2026-04-04T15:00:38.201Z</time></trkpt><trkpt lat="42.8389637" lon="13.1024677"><ele>761.0</ele><time>2026-04-04T15:00:39.2Z</time></trkpt><trkpt lat="42.83887" lon="13.1024521"><ele>762.0</ele><time>2026-04-04T15:00:40.2Z</time></trkpt><trkpt lat="42.8387676" lon="13.1024487"><ele>762.0</ele><time>2026-04-04T15:00:41.201Z</time></trkpt><trkpt lat="42.8386665" lon="13.102442"><ele>762.0</ele><time>2026-04-04T15:00:42.2Z</time></trkpt><trkpt lat="42.8385634" lon="13.1024547"><ele>762.0</ele><time>2026-04-04T15:00:43.201Z</time></trkpt><trkpt lat="42.838453" lon="13.102475"><ele>762.0</ele><time>2026-04-04T15:00:44.2Z</time></trkpt><trkpt lat="42.8383387" lon="13.1024897"><ele>762.0</ele><time>2026-04-04T15:00:45.2Z</time></trkpt><trkpt lat="42.8382152" lon="13.1025013"><ele>762.5</ele><time>2026-04-04T15:00:46.2Z</time></trkpt><trkpt lat="42.838094" lon="13.1025177"><ele>763.0</ele><time>2026-04-04T15:00:47.2Z</time></trkpt><trkpt lat="42.8379676" lon="13.1025288"><ele>763.5</ele><time>2026-04-04T15:00:48.2Z</time></trkpt><trkpt lat="42.8378442" lon="13.1025447"><ele>764.0</ele><time>2026-04-04T15:00:49.201Z</time></trkpt><trkpt lat="42.8377265" lon="13.1025568"><ele>764.6</ele><time>2026-04-04T15:00:50.2Z</time></trkpt><trkpt lat="42.8376321" lon="13.1025883"><ele>765.2</ele><time>2026-04-04T15:00:51.201Z</time></trkpt><trkpt lat="42.8375415" lon="13.1026513"><ele>765.8000000000001</ele><time>2026-04-04T15:00:52.2Z</time></trkpt><trkpt lat="42.8374469" lon="13.1027415"><ele>766.4000000000001</ele><time>2026-04-04T15:00:53.2Z</time></trkpt><trkpt lat="42.8373545" lon="13.1028507"><ele>767.0</ele><time>2026-04-04T15:00:54.201Z</time></trkpt><trkpt lat="42.8372615" lon="13.1029666"><ele>767.0</ele><time>2026-04-04T15:00:55.2Z</time></trkpt><trkpt lat="42.8371726" lon="13.103095"><ele>767.0</ele><time>2026-04-04T15:00:56.2Z</time></trkpt><trkpt lat="42.837092" lon="13.103212"><ele>767.0</ele><time>2026-04-04T15:00:57.2Z</time></trkpt><trkpt lat="42.8370079" lon="13.1033327"><ele>767.0</ele><time>2026-04-04T15:00:58.201Z</time></trkpt><trkpt lat="42.8369277" lon="13.1034437"><ele>767.6</ele><time>2026-04-04T15:00:59.2Z</time></trkpt><trkpt lat="42.8368452" lon="13.1035408"><ele>768.2</ele><time>2026-04-04T15:01:00.201Z</time></trkpt><trkpt lat="42.8367661" lon="13.1036144"><ele>768.8</ele><time>2026-04-04T15:01:01.2Z</time></trkpt><trkpt lat="42.8366857" lon="13.1036563"><ele>769.4</ele><time>2026-04-04T15:01:02.2Z</time></trkpt><trkpt lat="42.8365991" lon="13.1036703"><ele>770.0</ele><time>2026-04-04T15:01:03.2Z</time></trkpt><trkpt lat="42.8365028" lon="13.103674"><ele>771.25</ele><time>2026-04-04T15:01:04.201Z</time></trkpt><trkpt lat="42.836396" lon="13.10367"><ele>772.5</ele><time>2026-04-04T15:01:05.201Z</time></trkpt><trkpt lat="42.8362806" lon="13.1036581"><ele>773.75</ele><time>2026-04-04T15:01:06.2Z</time></trkpt><trkpt lat="42.836166" lon="13.1036472"><ele>775.0</ele><time>2026-04-04T15:01:07.2Z</time></trkpt><trkpt lat="42.8360475" lon="13.1036452"><ele>777.25</ele><time>2026-04-04T15:01:08.2Z</time></trkpt><trkpt lat="42.8359343" lon="13.1036649"><ele>779.5</ele><time>2026-04-04T15:01:09.2Z</time></trkpt><trkpt lat="42.8358181" lon="13.1037275"><ele>781.75</ele><time>2026-04-04T15:01:10.2Z</time></trkpt><trkpt lat="42.8357038" lon="13.1038126"><ele>784.0</ele><time>2026-04-04T15:01:11.2Z</time></trkpt><trkpt lat="42.8355845" lon="13.1039014"><ele>784.0</ele><time>2026-04-04T15:01:12.2Z</time></trkpt><trkpt lat="42.8354628" lon="13.1039936"><ele>784.0</ele><time>2026-04-04T15:01:13.2Z</time></trkpt><trkpt lat="42.8353362" lon="13.1040877"><ele>784.0</ele><time>2026-04-04T15:01:14.2Z</time></trkpt><trkpt lat="42.8352064" lon="13.1042006"><ele>784.0</ele><time>2026-04-04T15:01:15.2Z</time></trkpt><trkpt lat="42.8350754" lon="13.1042854"><ele>786.0</ele><time>2026-04-04T15:01:16.2Z</time></trkpt><trkpt lat="42.8349475" lon="13.1043449"><ele>788.0</ele><time>2026-04-04T15:01:17.201Z</time></trkpt><trkpt lat="42.8348161" lon="13.1043985"><ele>790.0</ele><time>2026-04-04T15:01:18.2Z</time></trkpt><trkpt lat="42.8346845" lon="13.1044693"><ele>792.0</ele><time>2026-04-04T15:01:19.2Z</time></trkpt><trkpt lat="42.8345484" lon="13.104571"><ele>792.0</ele><time>2026-04-04T15:01:20.201Z</time></trkpt><trkpt lat="42.8343988" lon="13.1047025"><ele>792.0</ele><time>2026-04-04T15:01:21.2Z</time></trkpt><trkpt lat="42.8342513" lon="13.1048374"><ele>792.0</ele><time>2026-04-04T15:01:22.201Z</time></trkpt><trkpt lat="42.8341091" lon="13.1049678"><ele>794.6666666666667</ele><time>2026-04-04T15:01:23.201Z</time></trkpt><trkpt lat="42.8339575" lon="13.1051063"><ele>797.3333333333334</ele><time>2026-04-04T15:01:24.2Z</time></trkpt><trkpt lat="42.8338043" lon="13.1052536"><ele>800.0</ele><time>2026-04-04T15:01:25.201Z</time></trkpt><trkpt lat="42.8336498" lon="13.1053847"><ele>800.0</ele><time>2026-04-04T15:01:26.2Z</time></trkpt><trkpt lat="42.8335104" lon="13.1055078"><ele>800.0</ele><time>2026-04-04T15:01:27.201Z</time></trkpt><trkpt lat="42.833384" lon="13.1056219"><ele>800.0</ele><time>2026-04-04T15:01:28.2Z</time></trkpt><trkpt lat="42.8332698" lon="13.1057197"><ele>801.5</ele><time>2026-04-04T15:01:29.2Z</time></trkpt><trkpt lat="42.8331665" lon="13.1057763"><ele>803.0</ele><time>2026-04-04T15:01:30.2Z</time></trkpt><trkpt lat="42.8330546" lon="13.1058133"><ele>804.5</ele><time>2026-04-04T15:01:31.201Z</time></trkpt><trkpt lat="42.8329374" lon="13.1058309"><ele>806.0</ele><time>2026-04-04T15:01:32.201Z</time></trkpt><trkpt lat="42.8327997" lon="13.1057905"><ele>805.75</ele><time>2026-04-04T15:01:33.201Z</time></trkpt><trkpt lat="42.832667" lon="13.1057327"><ele>805.5</ele><time>2026-04-04T15:01:34.2Z</time></trkpt><trkpt lat="42.8325311" lon="13.10566"><ele>805.25</ele><time>2026-04-04T15:01:35.2Z</time></trkpt><trkpt lat="42.8324043" lon="13.1055975"><ele>805.0</ele><time>2026-04-04T15:01:36.2Z</time></trkpt><trkpt lat="42.8322777" lon="13.1055663"><ele>808.75</ele><time>2026-04-04T15:01:37.201Z</time></trkpt><trkpt lat="42.8321463" lon="13.1055645"><ele>812.5</ele><time>2026-04-04T15:01:38.201Z</time></trkpt><trkpt lat="42.8320097" lon="13.1055916"><ele>816.25</ele><time>2026-04-04T15:01:39.2Z</time></trkpt><trkpt lat="42.831853" lon="13.1056535"><ele>820.0</ele><time>2026-04-04T15:01:40.201Z</time></trkpt><trkpt lat="42.8316867" lon="13.1057248"><ele>821.6666666666666</ele><time>2026-04-04T15:01:41.2Z</time></trkpt><trkpt lat="42.831513" lon="13.1058001"><ele>823.3333333333333</ele><time>2026-04-04T15:01:42.2Z</time></trkpt><trkpt lat="42.8313511" lon="13.10588"><ele>825.0</ele><time>2026-04-04T15:01:43.2Z</time></trkpt><trkpt lat="42.8311973" lon="13.1059698"><ele>825.0</ele><time>2026-04-04T15:01:44.2Z</time></trkpt><trkpt lat="42.8310382" lon="13.1060477"><ele>825.0</ele><time>2026-04-04T15:01:45.201Z</time></trkpt><trkpt lat="42.8308788" lon="13.1061302"><ele>825.0</ele><time>2026-04-04T15:01:46.2Z</time></trkpt><trkpt lat="42.8307244" lon="13.1062091"><ele>830.6666666666667</ele><time>2026-04-04T15:01:47.2Z</time></trkpt><trkpt lat="42.8305727" lon="13.1063036"><ele>836.3333333333334</ele><time>2026-04-04T15:01:48.2Z</time></trkpt><trkpt lat="42.8304239" lon="13.1064073"><ele>842.0</ele><time>2026-04-04T15:01:49.201Z</time></trkpt><trkpt lat="42.8302724" lon="13.1064971"><ele>840.6666666666667</ele><time>2026-04-04T15:01:50.2Z</time></trkpt><trkpt lat="42.8301242" lon="13.1065884"><ele>839.3333333333333</ele><time>2026-04-04T15:01:51.201Z</time></trkpt><trkpt lat="42.8299781" lon="13.1066512"><ele>838.0</ele><time>2026-04-04T15:01:52.201Z</time></trkpt><trkpt lat="42.8298291" lon="13.1067018"><ele>838.0</ele><time>2026-04-04T15:01:53.201Z</time></trkpt><trkpt lat="42.8296762" lon="13.1067542"><ele>838.0</ele><time>2026-04-04T15:01:54.2Z</time></trkpt><trkpt lat="42.8295242" lon="13.1068114"><ele>838.0</ele><time>2026-04-04T15:01:55.201Z</time></trkpt><trkpt lat="42.8293823" lon="13.1068774"><ele>843.0</ele><time>2026-04-04T15:01:56.2Z</time></trkpt><trkpt lat="42.8292546" lon="13.1069724"><ele>848.0</ele><time>2026-04-04T15:01:57.2Z</time></trkpt><trkpt lat="42.8291524" lon="13.107074"><ele>853.0</ele><time>2026-04-04T15:01:58.2Z</time></trkpt><trkpt lat="42.829071" lon="13.1071849"><ele>858.0</ele><time>2026-04-04T15:01:59.201Z</time></trkpt><trkpt lat="42.8290136" lon="13.1072891"><ele>858.0</ele><time>2026-04-04T15:02:00.201Z</time></trkpt><trkpt lat="42.8290271" lon="13.1074026"><ele>858.0</ele><time>2026-04-04T15:02:01.2Z</time></trkpt><trkpt lat="42.8290717" lon="13.1075319"><ele>858.0</ele><time>2026-04-04T15:02:02.2Z</time></trkpt><trkpt lat="42.8291383" lon="13.1076807"><ele>858.0</ele><time>2026-04-04T15:02:03.2Z</time></trkpt><trkpt lat="42.8292258" lon="13.1078267"><ele>855.75</ele><time>2026-04-04T15:02:04.2Z</time></trkpt><trkpt lat="42.8293358" lon="13.1079696"><ele>853.5</ele><time>2026-04-04T15:02:05.2Z</time></trkpt><trkpt lat="42.8294456" lon="13.1081083"><ele>851.25</ele><time>2026-04-04T15:02:06.2Z</time></trkpt><trkpt lat="42.829559" lon="13.1082305"><ele>849.0</ele><time>2026-04-04T15:02:07.2Z</time></trkpt><trkpt lat="42.8296539" lon="13.1083452"><ele>849.0</ele><time>2026-04-04T15:02:08.201Z</time></trkpt><trkpt lat="42.8297353" lon="13.1084578"><ele>849.0</ele><time>2026-04-04T15:02:09.201Z</time></trkpt><trkpt lat="42.829791" lon="13.1085711"><ele>849.0</ele><time>2026-04-04T15:02:10.2Z</time></trkpt><trkpt lat="42.8298163" lon="13.1087172"><ele>849.0</ele><time>2026-04-04T15:02:11.2Z</time></trkpt><trkpt lat="42.8298183" lon="13.1088752"><ele>849.0</ele><time>2026-04-04T15:02:12.201Z</time></trkpt><trkpt lat="42.8297958" lon="13.1090381"><ele>850.25</ele><time>2026-04-04T15:02:13.201Z</time></trkpt><trkpt lat="42.8297538" lon="13.1091847"><ele>851.5</ele><time>2026-04-04T15:02:14.201Z</time></trkpt><trkpt lat="42.8296847" lon="13.10932"><ele>852.75</ele><time>2026-04-04T15:02:15.2Z</time></trkpt><trkpt lat="42.8295951" lon="13.1094366"><ele>854.0</ele><time>2026-04-04T15:02:16.2Z</time></trkpt><trkpt lat="42.8294835" lon="13.1095241"><ele>854.0</ele><time>2026-04-04T15:02:17.2Z</time></trkpt><trkpt lat="42.8293594" lon="13.1095843"><ele>854.0</ele><time>2026-04-04T15:02:18.2Z</time></trkpt><trkpt lat="42.8292334" lon="13.1096072"><ele>854.0</ele><time>2026-04-04T15:02:19.2Z</time></trkpt><trkpt lat="42.8291101" lon="13.109581"><ele>854.0</ele><time>2026-04-04T15:02:20.2Z</time></trkpt><trkpt lat="42.8289783" lon="13.1095015"><ele>859.0</ele><time>2026-04-04T15:02:21.201Z</time></trkpt><trkpt lat="42.8288742" lon="13.1094119"><ele>864.0</ele><time>2026-04-04T15:02:22.201Z</time></trkpt><trkpt lat="42.8287567" lon="13.109307"><ele>869.0</ele><time>2026-04-04T15:02:23.201Z</time></trkpt><trkpt lat="42.8286375" lon="13.1092047"><ele>874.0</ele><time>2026-04-04T15:02:24.201Z</time></trkpt><trkpt lat="42.8285069" lon="13.1091266"><ele>875.25</ele><time>2026-04-04T15:02:25.2Z</time></trkpt><trkpt lat="42.828383" lon="13.1090809"><ele>876.5</ele><time>2026-04-04T15:02:26.201Z</time></trkpt><trkpt lat="42.8282449" lon="13.1090632"><ele>877.75</ele><time>2026-04-04T15:02:27.2Z</time></trkpt><trkpt lat="42.8281062" lon="13.1090755"><ele>879.0</ele><time>2026-04-04T15:02:28.2Z</time></trkpt><trkpt lat="42.8279635" lon="13.1091008"><ele>879.0</ele><time>2026-04-04T15:02:29.2Z</time></trkpt><trkpt lat="42.8278178" lon="13.1091428"><ele>879.0</ele><time>2026-04-04T15:02:30.201Z</time></trkpt><trkpt lat="42.8276734" lon="13.1092216"><ele>879.0</ele><time>2026-04-04T15:02:31.2Z</time></trkpt><trkpt lat="42.8275343" lon="13.1093208"><ele>885.0</ele><time>2026-04-04T15:02:32.201Z</time></trkpt><trkpt lat="42.8273923" lon="13.1094343"><ele>891.0</ele><time>2026-04-04T15:02:33.2Z</time></trkpt><trkpt lat="42.8272646" lon="13.1095644"><ele>897.0</ele><time>2026-04-04T15:02:34.2Z</time></trkpt><trkpt lat="42.8271421" lon="13.1096955"><ele>897.0</ele><time>2026-04-04T15:02:35.2Z</time></trkpt><trkpt lat="42.8270291" lon="13.1098243"><ele>897.0</ele><time>2026-04-04T15:02:36.2Z</time></trkpt><trkpt lat="42.8269276" lon="13.1099451"><ele>897.0</ele><time>2026-04-04T15:02:37.2Z</time></trkpt><trkpt lat="42.8268281" lon="13.1100633"><ele>897.0</ele><time>2026-04-04T15:02:38.2Z</time></trkpt><trkpt lat="42.8267414" lon="13.1101795"><ele>897.25</ele><time>2026-04-04T15:02:39.2Z</time></trkpt><trkpt lat="42.8266915" lon="13.1103352"><ele>897.5</ele><time>2026-04-04T15:02:40.201Z</time></trkpt><trkpt lat="42.8266605" lon="13.1105101"><ele>897.75</ele><time>2026-04-04T15:02:41.2Z</time></trkpt><trkpt lat="42.8266336" lon="13.1106879"><ele>898.0</ele><time>2026-04-04T15:02:42.2Z</time></trkpt><trkpt lat="42.8265917" lon="13.1108559"><ele>898.0</ele><time>2026-04-04T15:02:43.2Z</time></trkpt><trkpt lat="42.826537" lon="13.1110014"><ele>898.0</ele><time>2026-04-04T15:02:44.201Z</time></trkpt><trkpt lat="42.8264697" lon="13.1111279"><ele>898.0</ele><time>2026-04-04T15:02:45.2Z</time></trkpt><trkpt lat="42.8263803" lon="13.1112445"><ele>898.0</ele><time>2026-04-04T15:02:46.201Z</time></trkpt><trkpt lat="42.826278" lon="13.1113539"><ele>898.0</ele><time>2026-04-04T15:02:47.2Z</time></trkpt><trkpt lat="42.8261773" lon="13.1114581"><ele>898.0</ele><time>2026-04-04T15:02:48.2Z</time></trkpt><trkpt lat="42.826079" lon="13.1115442"><ele>898.0</ele><time>2026-04-04T15:02:49.201Z</time></trkpt><trkpt lat="42.8260014" lon="13.1116291"><ele>898.0</ele><time>2026-04-04T15:02:50.2Z</time></trkpt><trkpt lat="42.8259494" lon="13.11172"><ele>898.0</ele><time>2026-04-04T15:02:51.201Z</time></trkpt><trkpt lat="42.8259186" lon="13.1118256"><ele>898.9999999999999</ele><time>2026-04-04T15:02:52.201Z</time></trkpt><trkpt lat="42.8259213" lon="13.1119389"><ele>900.0</ele><time>2026-04-04T15:02:53.2Z</time></trkpt><trkpt lat="42.8259524" lon="13.1120284"><ele>901.0</ele><time>2026-04-04T15:02:54.2Z</time></trkpt><trkpt lat="42.8260074" lon="13.1121119"><ele>902.0</ele><time>2026-04-04T15:02:55.2Z</time></trkpt><trkpt lat="42.826089" lon="13.1121703"><ele>902.9999999999999</ele><time>2026-04-04T15:02:56.2Z</time></trkpt><trkpt lat="42.8262033" lon="13.1121746"><ele>904.0</ele><time>2026-04-04T15:02:57.201Z</time></trkpt><trkpt lat="42.826355" lon="13.1121536"><ele>904.0</ele><time>2026-04-04T15:02:58.2Z</time></trkpt><trkpt lat="42.8265334" lon="13.1121175"><ele>904.0</ele><time>2026-04-04T15:02:59.2Z</time></trkpt><trkpt lat="42.8267163" lon="13.112078"><ele>904.0</ele><time>2026-04-04T15:03:00.201Z</time></trkpt><trkpt lat="42.826884" lon="13.1120335"><ele>908.3333333333333</ele><time>2026-04-04T15:03:01.201Z</time></trkpt><trkpt lat="42.8270392" lon="13.1119611"><ele>912.6666666666667</ele><time>2026-04-04T15:03:02.2Z</time></trkpt><trkpt lat="42.827178" lon="13.1118556"><ele>917.0</ele><time>2026-04-04T15:03:03.2Z</time></trkpt><trkpt lat="42.8273016" lon="13.1117322"><ele>917.0</ele><time>2026-04-04T15:03:04.2Z</time></trkpt><trkpt lat="42.8274062" lon="13.1116228"><ele>917.0</ele><time>2026-04-04T15:03:05.2Z</time></trkpt><trkpt lat="42.827502" lon="13.1115266"><ele>917.0</ele><time>2026-04-04T15:03:06.2Z</time></trkpt><trkpt lat="42.8276011" lon="13.1114722"><ele>917.0</ele><time>2026-04-04T15:03:07.2Z</time></trkpt><trkpt lat="42.8276907" lon="13.1114656"><ele>917.0</ele><time>2026-04-04T15:03:08.2Z</time></trkpt><trkpt lat="42.8277813" lon="13.1115016"><ele>915.0</ele><time>2026-04-04T15:03:09.2Z</time></trkpt><trkpt lat="42.827865" lon="13.111596"><ele>913.0</ele><time>2026-04-04T15:03:10.201Z</time></trkpt><trkpt lat="42.8279267" lon="13.1117171"><ele>911.0</ele><time>2026-04-04T15:03:11.2Z</time></trkpt><trkpt lat="42.8279584" lon="13.1118562"><ele>909.0</ele><time>2026-04-04T15:03:12.2Z</time></trkpt><trkpt lat="42.8279701" lon="13.1120041"><ele>907.0</ele><time>2026-04-04T15:03:13.2Z</time></trkpt><trkpt lat="42.8279739" lon="13.1121626"><ele>907.0</ele><time>2026-04-04T15:03:14.2Z</time></trkpt><trkpt lat="42.8279166" lon="13.1123143"><ele>907.0</ele><time>2026-04-04T15:03:15.2Z</time></trkpt><trkpt lat="42.8278599" lon="13.112471"><ele>907.0</ele><time>2026-04-04T15:03:16.201Z</time></trkpt><trkpt lat="42.8277806" lon="13.1126062"><ele>907.0</ele><time>2026-04-04T15:03:17.201Z</time></trkpt><trkpt lat="42.8276851" lon="13.1127489"><ele>914.0</ele><time>2026-04-04T15:03:18.2Z</time></trkpt><trkpt lat="42.8275899" lon="13.1128796"><ele>921.0</ele><time>2026-04-04T15:03:19.201Z</time></trkpt><trkpt lat="42.8275039" lon="13.1130279"><ele>928.0</ele><time>2026-04-04T15:03:20.2Z</time></trkpt><trkpt lat="42.8274353" lon="13.1132041"><ele>935.0</ele><time>2026-04-04T15:03:21.2Z</time></trkpt><trkpt lat="42.8273773" lon="13.1134055"><ele>935.3333333333334</ele><time>2026-04-04T15:03:22.2Z</time></trkpt><trkpt lat="42.8273292" lon="13.1136155"><ele>935.6666666666667</ele><time>2026-04-04T15:03:23.2Z</time></trkpt><trkpt lat="42.8272958" lon="13.1138105"><ele>936.0</ele><time>2026-04-04T15:03:24.201Z</time></trkpt><trkpt lat="42.8272855" lon="13.114032"><ele>936.25</ele><time>2026-04-04T15:03:25.2Z</time></trkpt><trkpt lat="42.8273039" lon="13.1142287"><ele>936.5</ele><time>2026-04-04T15:03:26.2Z</time></trkpt><trkpt lat="42.8273342" lon="13.1144166"><ele>936.75</ele><time>2026-04-04T15:03:27.2Z</time></trkpt><trkpt lat="42.8273637" lon="13.1145569"><ele>937.0</ele><time>2026-04-04T15:03:28.2Z</time></trkpt><trkpt lat="42.8273782" lon="13.114675"><ele>937.0</ele><time>2026-04-04T15:03:29.2Z</time></trkpt><trkpt lat="42.8273744" lon="13.1147765"><ele>937.0</ele><time>2026-04-04T15:03:30.201Z</time></trkpt><trkpt lat="42.8273353" lon="13.1148495"><ele>937.0</ele><time>2026-04-04T15:03:31.2Z</time></trkpt><trkpt lat="42.8272037" lon="13.1148204"><ele>937.0</ele><time>2026-04-04T15:03:33.201Z</time></trkpt><trkpt lat="42.827149" lon="13.1147205"><ele>937.0</ele><time>2026-04-04T15:03:34.2Z</time></trkpt><trkpt lat="42.8271089" lon="13.1145804"><ele>937.0</ele><time>2026-04-04T15:03:35.2Z</time></trkpt><trkpt lat="42.8270883" lon="13.1144011"><ele>937.0</ele><time>2026-04-04T15:03:36.201Z</time></trkpt><trkpt lat="42.8270799" lon="13.1141914"><ele>937.0</ele><time>2026-04-04T15:03:37.201Z</time></trkpt><trkpt lat="42.8270696" lon="13.1139701"><ele>936.6666666666666</ele><time>2026-04-04T15:03:38.2Z</time></trkpt><trkpt lat="42.8270589" lon="13.1137265"><ele>936.3333333333333</ele><time>2026-04-04T15:03:39.2Z</time></trkpt><trkpt lat="42.8270478" lon="13.1134977"><ele>936.0</ele><time>2026-04-04T15:03:40.2Z</time></trkpt><trkpt lat="42.8270361" lon="13.1133001"><ele>935.8</ele><time>2026-04-04T15:03:41.2Z</time></trkpt><trkpt lat="42.8270216" lon="13.1131449"><ele>935.5999999999999</ele><time>2026-04-04T15:03:42.2Z</time></trkpt><trkpt lat="42.8269848" lon="13.1130214"><ele>935.4</ele><time>2026-04-04T15:03:43.201Z</time></trkpt><trkpt lat="42.8268981" lon="13.1129337"><ele>935.2</ele><time>2026-04-04T15:03:44.2Z</time></trkpt><trkpt lat="42.8268094" lon="13.1129"><ele>935.0</ele><time>2026-04-04T15:03:45.2Z</time></trkpt><trkpt lat="42.8266986" lon="13.1129192"><ele>933.6666666666667</ele><time>2026-04-04T15:03:46.2Z</time></trkpt><trkpt lat="42.826567" lon="13.1129822"><ele>932.3333333333333</ele><time>2026-04-04T15:03:47.2Z</time></trkpt><trkpt lat="42.826417" lon="13.1130894"><ele>931.0</ele><time>2026-04-04T15:03:48.201Z</time></trkpt><trkpt lat="42.8262302" lon="13.113198"><ele>939.3333333333333</ele><time>2026-04-04T15:03:49.201Z</time></trkpt><trkpt lat="42.8260287" lon="13.1132921"><ele>947.6666666666667</ele><time>2026-04-04T15:03:50.201Z</time></trkpt><trkpt lat="42.8258109" lon="13.1133769"><ele>956.0</ele><time>2026-04-04T15:03:51.2Z</time></trkpt><trkpt lat="42.8255898" lon="13.1134551"><ele>956.3333333333334</ele><time>2026-04-04T15:03:52.2Z</time></trkpt><trkpt lat="42.8253749" lon="13.1135153"><ele>956.6666666666667</ele><time>2026-04-04T15:03:53.2Z</time></trkpt><trkpt lat="42.8251614" lon="13.1135453"><ele>957.0</ele><time>2026-04-04T15:03:54.201Z</time></trkpt><trkpt lat="42.8249555" lon="13.1135708"><ele>957.6666666666667</ele><time>2026-04-04T15:03:55.2Z</time></trkpt><trkpt lat="42.8247477" lon="13.113601"><ele>958.3333333333334</ele><time>2026-04-04T15:03:56.2Z</time></trkpt><trkpt lat="42.8245401" lon="13.1136593"><ele>959.0</ele><time>2026-04-04T15:03:57.2Z</time></trkpt><trkpt lat="42.8243429" lon="13.1137358"><ele>958.3333333333334</ele><time>2026-04-04T15:03:58.2Z</time></trkpt><trkpt lat="42.8241504" lon="13.1138246"><ele>957.6666666666667</ele><time>2026-04-04T15:03:59.2Z</time></trkpt><trkpt lat="42.8239691" lon="13.1139032"><ele>957.0</ele><time>2026-04-04T15:04:00.2Z</time></trkpt><trkpt lat="42.8238047" lon="13.1139863"><ele>957.0</ele><time>2026-04-04T15:04:01.2Z</time></trkpt><trkpt lat="42.8236633" lon="13.1140694"><ele>957.0</ele><time>2026-04-04T15:04:02.201Z</time></trkpt><trkpt lat="42.8235314" lon="13.1141823"><ele>957.0</ele><time>2026-04-04T15:04:03.201Z</time></trkpt><trkpt lat="42.8233954" lon="13.114331"><ele>963.3333333333333</ele><time>2026-04-04T15:04:04.2Z</time></trkpt><trkpt lat="42.823253" lon="13.1144916"><ele>969.6666666666666</ele><time>2026-04-04T15:04:05.2Z</time></trkpt><trkpt lat="42.8230956" lon="13.1146459"><ele>976.0</ele><time>2026-04-04T15:04:06.201Z</time></trkpt><trkpt lat="42.8229227" lon="13.1147818"><ele>982.3333333333333</ele><time>2026-04-04T15:04:07.2Z</time></trkpt><trkpt lat="42.8227299" lon="13.1149045"><ele>988.6666666666667</ele><time>2026-04-04T15:04:08.2Z</time></trkpt><trkpt lat="42.8225212" lon="13.1150337"><ele>995.0</ele><time>2026-04-04T15:04:09.2Z</time></trkpt><trkpt lat="42.822312" lon="13.115177"><ele>995.0</ele><time>2026-04-04T15:04:10.2Z</time></trkpt><trkpt lat="42.822108" lon="13.1152991"><ele>995.0</ele><time>2026-04-04T15:04:11.2Z</time></trkpt><trkpt lat="42.8219098" lon="13.1154308"><ele>995.0</ele><time>2026-04-04T15:04:12.2Z</time></trkpt><trkpt lat="42.821724" lon="13.1155437"><ele>996.0</ele><time>2026-04-04T15:04:13.201Z</time></trkpt><trkpt lat="42.8215628" lon="13.115649"><ele>997.0</ele><time>2026-04-04T15:04:14.2Z</time></trkpt><trkpt lat="42.82141" lon="13.1157662"><ele>998.0</ele><time>2026-04-04T15:04:15.2Z</time></trkpt><trkpt lat="42.8212703" lon="13.115881"><ele>1000.0</ele><time>2026-04-04T15:04:16.201Z</time></trkpt><trkpt lat="42.8211315" lon="13.1159952"><ele>1002.0</ele><time>2026-04-04T15:04:17.2Z</time></trkpt><trkpt lat="42.8209923" lon="13.1161112"><ele>1004.0</ele><time>2026-04-04T15:04:18.201Z</time></trkpt><trkpt lat="42.8208466" lon="13.1162342"><ele>1004.0</ele><time>2026-04-04T15:04:19.2Z</time></trkpt><trkpt lat="42.8206989" lon="13.1163581"><ele>1004.0</ele><time>2026-04-04T15:04:20.2Z</time></trkpt><trkpt lat="42.8205586" lon="13.1164725"><ele>1004.0</ele><time>2026-04-04T15:04:21.2Z</time></trkpt><trkpt lat="42.8204243" lon="13.1165865"><ele>1004.25</ele><time>2026-04-04T15:04:22.2Z</time></trkpt><trkpt lat="42.8202979" lon="13.1166922"><ele>1004.5</ele><time>2026-04-04T15:04:23.2Z</time></trkpt><trkpt lat="42.8201777" lon="13.1167905"><ele>1004.75</ele><time>2026-04-04T15:04:24.2Z</time></trkpt><trkpt lat="42.8200642" lon="13.1168913"><ele>1005.0</ele><time>2026-04-04T15:04:25.201Z</time></trkpt><trkpt lat="42.8199569" lon="13.1169832"><ele>1005.0</ele><time>2026-04-04T15:04:26.2Z</time></trkpt><trkpt lat="42.8198517" lon="13.1170654"><ele>1005.0</ele><time>2026-04-04T15:04:27.2Z</time></trkpt><trkpt lat="42.8197478" lon="13.1171393"><ele>1005.0</ele><time>2026-04-04T15:04:28.201Z</time></trkpt><trkpt lat="42.819656" lon="13.1171861"><ele>1005.0</ele><time>2026-04-04T15:04:29.201Z</time></trkpt><trkpt lat="42.8195577" lon="13.1172021"><ele>1005.0</ele><time>2026-04-04T15:04:30.201Z</time></trkpt><trkpt lat="42.8194443" lon="13.1171951"><ele>1005.0</ele><time>2026-04-04T15:04:31.2Z</time></trkpt><trkpt lat="42.8193197" lon="13.1171592"><ele>1005.0</ele><time>2026-04-04T15:04:32.2Z</time></trkpt><trkpt lat="42.8191988" lon="13.1171018"><ele>1005.0</ele><time>2026-04-04T15:04:33.2Z</time></trkpt><trkpt lat="42.8190785" lon="13.1170219"><ele>1005.0</ele><time>2026-04-04T15:04:34.2Z</time></trkpt><trkpt lat="42.8189413" lon="13.1169207"><ele>1005.3333333333333</ele><time>2026-04-04T15:04:35.2Z</time></trkpt><trkpt lat="42.8187866" lon="13.1168089"><ele>1005.6666666666666</ele><time>2026-04-04T15:04:36.2Z</time></trkpt><trkpt lat="42.818641" lon="13.1166998"><ele>1006.0</ele><time>2026-04-04T15:04:37.2Z</time></trkpt><trkpt lat="42.8185049" lon="13.1165995"><ele>1007.0</ele><time>2026-04-04T15:04:38.2Z</time></trkpt><trkpt lat="42.8183664" lon="13.1164907"><ele>1008.0</ele><time>2026-04-04T15:04:39.2Z</time></trkpt><trkpt lat="42.8182367" lon="13.1163768"><ele>1009.0</ele><time>2026-04-04T15:04:40.201Z</time></trkpt><trkpt lat="42.8181064" lon="13.1162704"><ele>1009.0</ele><time>2026-04-04T15:04:41.201Z</time></trkpt><trkpt lat="42.8179785" lon="13.1161694"><ele>1009.0</ele><time>2026-04-04T15:04:42.2Z</time></trkpt><trkpt lat="42.8178581" lon="13.1160663"><ele>1009.0</ele><time>2026-04-04T15:04:43.201Z</time></trkpt><trkpt lat="42.8177382" lon="13.1159493"><ele>1009.0</ele><time>2026-04-04T15:04:44.2Z</time></trkpt><trkpt lat="42.8176235" lon="13.1158249"><ele>1005.6666666666666</ele><time>2026-04-04T15:04:45.2Z</time></trkpt><trkpt lat="42.8175036" lon="13.1156952"><ele>1002.3333333333333</ele><time>2026-04-04T15:04:46.2Z</time></trkpt><trkpt lat="42.8173855" lon="13.1155661"><ele>999.0</ele><time>2026-04-04T15:04:47.201Z</time></trkpt><trkpt lat="42.817274" lon="13.1154354"><ele>999.0</ele><time>2026-04-04T15:04:48.2Z</time></trkpt><trkpt lat="42.8171645" lon="13.1153047"><ele>999.0</ele><time>2026-04-04T15:04:49.201Z</time></trkpt><trkpt lat="42.8170442" lon="13.1151675"><ele>999.0</ele><time>2026-04-04T15:04:50.2Z</time></trkpt><trkpt lat="42.8169273" lon="13.1150382"><ele>995.75</ele><time>2026-04-04T15:04:51.2Z</time></trkpt><trkpt lat="42.8168141" lon="13.1149097"><ele>992.5</ele><time>2026-04-04T15:04:52.201Z</time></trkpt><trkpt lat="42.8166971" lon="13.1147913"><ele>989.25</ele><time>2026-04-04T15:04:53.2Z</time></trkpt><trkpt lat="42.8165892" lon="13.114661"><ele>986.0</ele><time>2026-04-04T15:04:54.2Z</time></trkpt><trkpt lat="42.8164898" lon="13.1145304"><ele>986.0</ele><time>2026-04-04T15:04:55.2Z</time></trkpt><trkpt lat="42.8163911" lon="13.1143988"><ele>986.0</ele><time>2026-04-04T15:04:56.201Z</time></trkpt><trkpt lat="42.8162953" lon="13.1142615"><ele>986.0</ele><time>2026-04-04T15:04:57.2Z</time></trkpt><trkpt lat="42.8161892" lon="13.1141284"><ele>986.0</ele><time>2026-04-04T15:04:58.2Z</time></trkpt><trkpt lat="42.8160951" lon="13.1139634"><ele>992.6666666666667</ele><time>2026-04-04T15:04:59.201Z</time></trkpt><trkpt lat="42.8160066" lon="13.1137916"><ele>999.3333333333333</ele><time>2026-04-04T15:05:00.2Z</time></trkpt><trkpt lat="42.8159221" lon="13.1136187"><ele>1006.0</ele><time>2026-04-04T15:05:01.2Z</time></trkpt><trkpt lat="42.8158301" lon="13.1134459"><ele>996.6666666666666</ele><time>2026-04-04T15:05:02.201Z</time></trkpt><trkpt lat="42.8157403" lon="13.1132653"><ele>987.3333333333333</ele><time>2026-04-04T15:05:03.2Z</time></trkpt><trkpt lat="42.8156529" lon="13.113076"><ele>978.0</ele><time>2026-04-04T15:05:04.2Z</time></trkpt><trkpt lat="42.815568" lon="13.1128831"><ele>978.0</ele><time>2026-04-04T15:05:05.201Z</time></trkpt><trkpt lat="42.815483" lon="13.1126885"><ele>978.0</ele><time>2026-04-04T15:05:06.2Z</time></trkpt><trkpt lat="42.8153974" lon="13.1124849"><ele>978.0</ele><time>2026-04-04T15:05:07.201Z</time></trkpt><trkpt lat="42.8153059" lon="13.1122868"><ele>981.3333333333333</ele><time>2026-04-04T15:05:08.2Z</time></trkpt><trkpt lat="42.8152106" lon="13.1120821"><ele>984.6666666666666</ele><time>2026-04-04T15:05:09.2Z</time></trkpt><trkpt lat="42.8151135" lon="13.1118813"><ele>988.0</ele><time>2026-04-04T15:05:10.2Z</time></trkpt><trkpt lat="42.8150177" lon="13.1116798"><ele>978.6666666666666</ele><time>2026-04-04T15:05:11.2Z</time></trkpt><trkpt lat="42.8149009" lon="13.1114856"><ele>969.3333333333333</ele><time>2026-04-04T15:05:12.201Z</time></trkpt><trkpt lat="42.8148125" lon="13.1112981"><ele>960.0</ele><time>2026-04-04T15:05:13.2Z</time></trkpt><trkpt lat="42.8147101" lon="13.111112"><ele>960.0</ele><time>2026-04-04T15:05:14.2Z</time></trkpt><trkpt lat="42.814619" lon="13.110926"><ele>960.0</ele><time>2026-04-04T15:05:15.2Z</time></trkpt><trkpt lat="42.8145263" lon="13.1107383"><ele>960.0</ele><time>2026-04-04T15:05:16.201Z</time></trkpt><trkpt lat="42.8144341" lon="13.1105576"><ele>965.3333333333333</ele><time>2026-04-04T15:05:17.2Z</time></trkpt><trkpt lat="42.8143401" lon="13.110383"><ele>970.6666666666666</ele><time>2026-04-04T15:05:18.2Z</time></trkpt><trkpt lat="42.814237" lon="13.1102152"><ele>976.0</ele><time>2026-04-04T15:05:19.201Z</time></trkpt><trkpt lat="42.8141295" lon="13.1100523"><ele>971.6666666666666</ele><time>2026-04-04T15:05:20.2Z</time></trkpt><trkpt lat="42.8140054" lon="13.1099043"><ele>967.3333333333333</ele><time>2026-04-04T15:05:21.201Z</time></trkpt><trkpt lat="42.8138656" lon="13.1097683"><ele>963.0</ele><time>2026-04-04T15:05:22.2Z</time></trkpt><trkpt lat="42.8137211" lon="13.1096334"><ele>963.0</ele><time>2026-04-04T15:05:23.201Z</time></trkpt><trkpt lat="42.8135656" lon="13.10949"><ele>963.0</ele><time>2026-04-04T15:05:24.2Z</time></trkpt><trkpt lat="42.8134212" lon="13.1093533"><ele>963.0</ele><time>2026-04-04T15:05:25.2Z</time></trkpt><trkpt lat="42.8132768" lon="13.1092214"><ele>958.0</ele><time>2026-04-04T15:05:26.2Z</time></trkpt><trkpt lat="42.8131394" lon="13.1090811"><ele>953.0</ele><time>2026-04-04T15:05:27.201Z</time></trkpt><trkpt lat="42.8130076" lon="13.1089367"><ele>948.0</ele><time>2026-04-04T15:05:28.2Z</time></trkpt><trkpt lat="42.812896" lon="13.1087773"><ele>948.0</ele><time>2026-04-04T15:05:29.2Z</time></trkpt><trkpt lat="42.8127772" lon="13.1086154"><ele>948.0</ele><time>2026-04-04T15:05:30.2Z</time></trkpt><trkpt lat="42.8126668" lon="13.1084554"><ele>948.0</ele><time>2026-04-04T15:05:31.2Z</time></trkpt><trkpt lat="42.8125593" lon="13.1083069"><ele>940.0</ele><time>2026-04-04T15:05:32.2Z</time></trkpt><trkpt lat="42.8124739" lon="13.10815"><ele>932.0</ele><time>2026-04-04T15:05:33.2Z</time></trkpt><trkpt lat="42.8124004" lon="13.1079957"><ele>924.0</ele><time>2026-04-04T15:05:34.201Z</time></trkpt><trkpt lat="42.8123384" lon="13.1078412"><ele>916.0</ele><time>2026-04-04T15:05:35.2Z</time></trkpt><trkpt lat="42.8122765" lon="13.107685"><ele>916.0</ele><time>2026-04-04T15:05:36.2Z</time></trkpt><trkpt lat="42.8122542" lon="13.1075217"><ele>916.0</ele><time>2026-04-04T15:05:37.201Z</time></trkpt><trkpt lat="42.8122506" lon="13.1073646"><ele>916.0</ele><time>2026-04-04T15:05:38.2Z</time></trkpt><trkpt lat="42.8122789" lon="13.1072124"><ele>916.0</ele><time>2026-04-04T15:05:39.2Z</time></trkpt><trkpt lat="42.8123355" lon="13.1070499"><ele>911.3333333333333</ele><time>2026-04-04T15:05:40.2Z</time></trkpt><trkpt lat="42.8124134" lon="13.1068816"><ele>906.6666666666667</ele><time>2026-04-04T15:05:41.2Z</time></trkpt><trkpt lat="42.812502" lon="13.1067123"><ele>902.0</ele><time>2026-04-04T15:05:42.2Z</time></trkpt><trkpt lat="42.8125916" lon="13.1065374"><ele>911.0</ele><time>2026-04-04T15:05:43.201Z</time></trkpt><trkpt lat="42.8126657" lon="13.1063803"><ele>920.0</ele><time>2026-04-04T15:05:44.201Z</time></trkpt><trkpt lat="42.8127306" lon="13.1062362"><ele>929.0</ele><time>2026-04-04T15:05:45.2Z</time></trkpt><trkpt lat="42.8127681" lon="13.106106"><ele>938.0</ele><time>2026-04-04T15:05:46.201Z</time></trkpt><trkpt lat="42.8127794" lon="13.1059849"><ele>938.0</ele><time>2026-04-04T15:05:47.201Z</time></trkpt><trkpt lat="42.812747" lon="13.1058616"><ele>938.0</ele><time>2026-04-04T15:05:48.201Z</time></trkpt><trkpt lat="42.8126789" lon="13.1057484"><ele>938.0</ele><time>2026-04-04T15:05:49.2Z</time></trkpt><trkpt lat="42.8125858" lon="13.1056335"><ele>938.0</ele><time>2026-04-04T15:05:50.201Z</time></trkpt><trkpt lat="42.8124858" lon="13.1055082"><ele>932.5</ele><time>2026-04-04T15:05:51.2Z</time></trkpt><trkpt lat="42.8123778" lon="13.1053746"><ele>927.0</ele><time>2026-04-04T15:05:52.201Z</time></trkpt><trkpt lat="42.8122653" lon="13.1052377"><ele>921.5</ele><time>2026-04-04T15:05:53.201Z</time></trkpt><trkpt lat="42.8121504" lon="13.1051108"><ele>916.0</ele><time>2026-04-04T15:05:54.2Z</time></trkpt><trkpt lat="42.8120369" lon="13.1050027"><ele>916.0</ele><time>2026-04-04T15:05:55.2Z</time></trkpt><trkpt lat="42.811917" lon="13.1049203"><ele>916.0</ele><time>2026-04-04T15:05:56.2Z</time></trkpt><trkpt lat="42.8117757" lon="13.1048483"><ele>916.0</ele><time>2026-04-04T15:05:57.2Z</time></trkpt><trkpt lat="42.8116542" lon="13.1047829"><ele>916.0</ele><time>2026-04-04T15:05:58.2Z</time></trkpt><trkpt lat="42.8115384" lon="13.1046989"><ele>912.5</ele><time>2026-04-04T15:05:59.201Z</time></trkpt><trkpt lat="42.811424" lon="13.1045918"><ele>909.0</ele><time>2026-04-04T15:06:00.2Z</time></trkpt><trkpt lat="42.811315" lon="13.1044522"><ele>905.5</ele><time>2026-04-04T15:06:01.201Z</time></trkpt><trkpt lat="42.8112102" lon="13.1043234"><ele>902.0</ele><time>2026-04-04T15:06:02.201Z</time></trkpt><trkpt lat="42.8111094" lon="13.1041974"><ele>904.5</ele><time>2026-04-04T15:06:03.2Z</time></trkpt><trkpt lat="42.8110273" lon="13.1040666"><ele>907.0</ele><time>2026-04-04T15:06:04.2Z</time></trkpt><trkpt lat="42.810968" lon="13.1039184"><ele>909.5</ele><time>2026-04-04T15:06:05.2Z</time></trkpt><trkpt lat="42.8109215" lon="13.1037693"><ele>912.0</ele><time>2026-04-04T15:06:06.2Z</time></trkpt><trkpt lat="42.8109072" lon="13.1035957"><ele>904.5</ele><time>2026-04-04T15:06:07.2Z</time></trkpt><trkpt lat="42.8108912" lon="13.1034302"><ele>897.0</ele><time>2026-04-04T15:06:08.201Z</time></trkpt><trkpt lat="42.8108758" lon="13.1032585"><ele>889.5</ele><time>2026-04-04T15:06:09.2Z</time></trkpt><trkpt lat="42.8108413" lon="13.1030792"><ele>882.0</ele><time>2026-04-04T15:06:10.2Z</time></trkpt><trkpt lat="42.8107923" lon="13.102896"><ele>882.0</ele><time>2026-04-04T15:06:11.201Z</time></trkpt><trkpt lat="42.8107295" lon="13.1027094"><ele>882.0</ele><time>2026-04-04T15:06:12.2Z</time></trkpt><trkpt lat="42.8106612" lon="13.1025195"><ele>882.0</ele><time>2026-04-04T15:06:13.2Z</time></trkpt><trkpt lat="42.8105984" lon="13.1023141"><ele>885.6666666666667</ele><time>2026-04-04T15:06:14.2Z</time></trkpt><trkpt lat="42.8105332" lon="13.1021166"><ele>889.3333333333334</ele><time>2026-04-04T15:06:15.2Z</time></trkpt><trkpt lat="42.8104658" lon="13.1019269"><ele>893.0</ele><time>2026-04-04T15:06:16.2Z</time></trkpt><trkpt lat="42.8103986" lon="13.1017431"><ele>895.3333333333334</ele><time>2026-04-04T15:06:17.201Z</time></trkpt><trkpt lat="42.8103342" lon="13.10156"><ele>897.6666666666667</ele><time>2026-04-04T15:06:18.2Z</time></trkpt><trkpt lat="42.8102371" lon="13.1013858"><ele>900.0</ele><time>2026-04-04T15:06:19.2Z</time></trkpt><trkpt lat="42.8101643" lon="13.1012139"><ele>892.75</ele><time>2026-04-04T15:06:20.2Z</time></trkpt><trkpt lat="42.8100925" lon="13.101043"><ele>885.5</ele><time>2026-04-04T15:06:21.2Z</time></trkpt><trkpt lat="42.8100159" lon="13.1008686"><ele>878.25</ele><time>2026-04-04T15:06:22.2Z</time></trkpt><trkpt lat="42.8099514" lon="13.1006878"><ele>871.0</ele><time>2026-04-04T15:06:23.2Z</time></trkpt><trkpt lat="42.8098913" lon="13.1005051"><ele>871.0</ele><time>2026-04-04T15:06:24.2Z</time></trkpt><trkpt lat="42.8098269" lon="13.1003334"><ele>871.0</ele><time>2026-04-04T15:06:25.201Z</time></trkpt><trkpt lat="42.8097625" lon="13.1001673"><ele>871.0</ele><time>2026-04-04T15:06:26.2Z</time></trkpt><trkpt lat="42.8097042" lon="13.099999"><ele>871.0</ele><time>2026-04-04T15:06:27.2Z</time></trkpt><trkpt lat="42.8096502" lon="13.0998339"><ele>872.25</ele><time>2026-04-04T15:06:28.2Z</time></trkpt><trkpt lat="42.8095906" lon="13.0996757"><ele>873.5</ele><time>2026-04-04T15:06:29.2Z</time></trkpt><trkpt lat="42.8095281" lon="13.0995139"><ele>874.75</ele><time>2026-04-04T15:06:30.2Z</time></trkpt><trkpt lat="42.8094591" lon="13.099354"><ele>876.0</ele><time>2026-04-04T15:06:31.2Z</time></trkpt><trkpt lat="42.8093955" lon="13.0991904"><ele>876.25</ele><time>2026-04-04T15:06:32.2Z</time></trkpt><trkpt lat="42.8093483" lon="13.0990148"><ele>876.5</ele><time>2026-04-04T15:06:33.2Z</time></trkpt><trkpt lat="42.8092972" lon="13.0988601"><ele>876.75</ele><time>2026-04-04T15:06:34.2Z</time></trkpt><trkpt lat="42.8092469" lon="13.0987064"><ele>877.0</ele><time>2026-04-04T15:06:35.2Z</time></trkpt><trkpt lat="42.8092141" lon="13.0985514"><ele>869.6</ele><time>2026-04-04T15:06:36.2Z</time></trkpt><trkpt lat="42.8091993" lon="13.0984017"><ele>862.2</ele><time>2026-04-04T15:06:37.2Z</time></trkpt><trkpt lat="42.809214" lon="13.09826"><ele>854.8</ele><time>2026-04-04T15:06:38.201Z</time></trkpt><trkpt lat="42.8092327" lon="13.0981518"><ele>847.4</ele><time>2026-04-04T15:06:39.201Z</time></trkpt><trkpt lat="42.8092442" lon="13.0980631"><ele>840.0</ele><time>2026-04-04T15:06:40.2Z</time></trkpt><trkpt lat="42.8091862" lon="13.0979388"><ele>840.0</ele><time>2026-04-04T15:06:42.2Z</time></trkpt><trkpt lat="42.8090823" lon="13.0979726"><ele>840.0</ele><time>2026-04-04T15:06:44.201Z</time></trkpt><trkpt lat="42.8090309" lon="13.098119"><ele>840.0</ele><time>2026-04-04T15:06:46.2Z</time></trkpt><trkpt lat="42.8090275" lon="13.0982693"><ele>840.0</ele><time>2026-04-04T15:06:48.2Z</time></trkpt><trkpt lat="42.8090347" lon="13.0984386"><ele>840.0</ele><time>2026-04-04T15:06:50.201Z</time></trkpt><trkpt lat="42.8090382" lon="13.0985333"><ele>840.0</ele><time>2026-04-04T15:06:51.2Z</time></trkpt><trkpt lat="42.8090502" lon="13.098642"><ele>840.0</ele><time>2026-04-04T15:06:52.2Z</time></trkpt><trkpt lat="42.8090619" lon="13.0987628"><ele>840.0</ele><time>2026-04-04T15:06:53.2Z</time></trkpt><trkpt lat="42.8090824" lon="13.09889"><ele>840.0</ele><time>2026-04-04T15:06:54.2Z</time></trkpt><trkpt lat="42.8091064" lon="13.0990261"><ele>840.0</ele><time>2026-04-04T15:06:55.2Z</time></trkpt><trkpt lat="42.8091191" lon="13.0991704"><ele>839.75</ele><time>2026-04-04T15:06:56.201Z</time></trkpt><trkpt lat="42.8091239" lon="13.0993236"><ele>839.5</ele><time>2026-04-04T15:06:57.2Z</time></trkpt><trkpt lat="42.8091233" lon="13.0994828"><ele>839.25</ele><time>2026-04-04T15:06:58.2Z</time></trkpt><trkpt lat="42.8091181" lon="13.099641"><ele>839.0</ele><time>2026-04-04T15:06:59.201Z</time></trkpt><trkpt lat="42.8091108" lon="13.0998136"><ele>836.5</ele><time>2026-04-04T15:07:00.201Z</time></trkpt><trkpt lat="42.8091057" lon="13.099988"><ele>834.0</ele><time>2026-04-04T15:07:01.2Z</time></trkpt><trkpt lat="42.8091023" lon="13.1001702"><ele>831.5</ele><time>2026-04-04T15:07:02.2Z</time></trkpt><trkpt lat="42.8090878" lon="13.100357"><ele>829.0</ele><time>2026-04-04T15:07:03.2Z</time></trkpt><trkpt lat="42.8090813" lon="13.1005415"><ele>829.0</ele><time>2026-04-04T15:07:04.2Z</time></trkpt><trkpt lat="42.8090705" lon="13.1007267"><ele>829.0</ele><time>2026-04-04T15:07:05.201Z</time></trkpt><trkpt lat="42.8090555" lon="13.1009116"><ele>829.0</ele><time>2026-04-04T15:07:06.201Z</time></trkpt><trkpt lat="42.8090346" lon="13.1010899"><ele>829.0</ele><time>2026-04-04T15:07:07.201Z</time></trkpt><trkpt lat="42.8090126" lon="13.1012581"><ele>827.75</ele><time>2026-04-04T15:07:08.2Z</time></trkpt><trkpt lat="42.8089998" lon="13.1014338"><ele>826.5</ele><time>2026-04-04T15:07:09.2Z</time></trkpt><trkpt lat="42.8090285" lon="13.1016433"><ele>825.25</ele><time>2026-04-04T15:07:10.201Z</time></trkpt><trkpt lat="42.8090367" lon="13.1018159"><ele>824.0</ele><time>2026-04-04T15:07:11.2Z</time></trkpt><trkpt lat="42.8090525" lon="13.1019956"><ele>823.25</ele><time>2026-04-04T15:07:12.2Z</time></trkpt><trkpt lat="42.8090731" lon="13.1021761"><ele>822.5</ele><time>2026-04-04T15:07:13.2Z</time></trkpt><trkpt lat="42.8090977" lon="13.10236"><ele>821.75</ele><time>2026-04-04T15:07:14.2Z</time></trkpt><trkpt lat="42.80912" lon="13.1025471"><ele>821.0</ele><time>2026-04-04T15:07:15.201Z</time></trkpt><trkpt lat="42.8091358" lon="13.1027334"><ele>819.75</ele><time>2026-04-04T15:07:16.201Z</time></trkpt><trkpt lat="42.809164" lon="13.1029246"><ele>818.5</ele><time>2026-04-04T15:07:17.2Z</time></trkpt><trkpt lat="42.8091888" lon="13.1031152"><ele>817.25</ele><time>2026-04-04T15:07:18.2Z</time></trkpt><trkpt lat="42.8092131" lon="13.1033065"><ele>816.0</ele><time>2026-04-04T15:07:19.201Z</time></trkpt><trkpt lat="42.8092344" lon="13.1034997"><ele>814.75</ele><time>2026-04-04T15:07:20.2Z</time></trkpt><trkpt lat="42.8092534" lon="13.1036963"><ele>813.5</ele><time>2026-04-04T15:07:21.201Z</time></trkpt><trkpt lat="42.8092717" lon="13.1038904"><ele>812.25</ele><time>2026-04-04T15:07:22.2Z</time></trkpt><trkpt lat="42.809287" lon="13.1040846"><ele>811.0</ele><time>2026-04-04T15:07:23.2Z</time></trkpt><trkpt lat="42.8093088" lon="13.1042705"><ele>813.75</ele><time>2026-04-04T15:07:24.2Z</time></trkpt><trkpt lat="42.809329" lon="13.1044465"><ele>816.5</ele><time>2026-04-04T15:07:25.2Z</time></trkpt><trkpt lat="42.8093382" lon="13.1046253"><ele>819.25</ele><time>2026-04-04T15:07:26.201Z</time></trkpt><trkpt lat="42.8093611" lon="13.104784"><ele>822.0</ele><time>2026-04-04T15:07:27.2Z</time></trkpt><trkpt lat="42.8094015" lon="13.1049361"><ele>822.0</ele><time>2026-04-04T15:07:28.201Z</time></trkpt><trkpt lat="42.8094488" lon="13.1050722"><ele>822.0</ele><time>2026-04-04T15:07:29.2Z</time></trkpt><trkpt lat="42.8095246" lon="13.1051912"><ele>822.0</ele><time>2026-04-04T15:07:30.2Z</time></trkpt><trkpt lat="42.8096102" lon="13.1053058"><ele>822.0</ele><time>2026-04-04T15:07:31.2Z</time></trkpt><trkpt lat="42.8097013" lon="13.1054106"><ele>822.0</ele><time>2026-04-04T15:07:32.2Z</time></trkpt><trkpt lat="42.8097962" lon="13.1055065"><ele>822.0</ele><time>2026-04-04T15:07:33.201Z</time></trkpt><trkpt lat="42.8098739" lon="13.1055998"><ele>822.0</ele><time>2026-04-04T15:07:34.2Z</time></trkpt><trkpt lat="42.8099373" lon="13.1057115"><ele>822.0</ele><time>2026-04-04T15:07:35.2Z</time></trkpt><trkpt lat="42.8099768" lon="13.1058253"><ele>822.0</ele><time>2026-04-04T15:07:36.2Z</time></trkpt><trkpt lat="42.810012" lon="13.1059613"><ele>818.8</ele><time>2026-04-04T15:07:37.2Z</time></trkpt><trkpt lat="42.8099948" lon="13.1060911"><ele>815.6</ele><time>2026-04-04T15:07:38.2Z</time></trkpt><trkpt lat="42.8099358" lon="13.1062121"><ele>812.4</ele><time>2026-04-04T15:07:39.2Z</time></trkpt><trkpt lat="42.8098592" lon="13.1063263"><ele>809.1999999999999</ele><time>2026-04-04T15:07:40.2Z</time></trkpt><trkpt lat="42.8097813" lon="13.1064512"><ele>806.0</ele><time>2026-04-04T15:07:41.2Z</time></trkpt><trkpt lat="42.8096966" lon="13.1065661"><ele>805.5</ele><time>2026-04-04T15:07:42.2Z</time></trkpt><trkpt lat="42.8096288" lon="13.1067038"><ele>805.0</ele><time>2026-04-04T15:07:43.2Z</time></trkpt><trkpt lat="42.8095824" lon="13.1068596"><ele>804.5</ele><time>2026-04-04T15:07:44.201Z</time></trkpt><trkpt lat="42.8095528" lon="13.1070288"><ele>804.0</ele><time>2026-04-04T15:07:45.2Z</time></trkpt><trkpt lat="42.809557" lon="13.1072157"><ele>804.0</ele><time>2026-04-04T15:07:46.2Z</time></trkpt><trkpt lat="42.8095593" lon="13.1074102"><ele>804.0</ele><time>2026-04-04T15:07:47.201Z</time></trkpt><trkpt lat="42.8095757" lon="13.1076073"><ele>804.0</ele><time>2026-04-04T15:07:48.2Z</time></trkpt><trkpt lat="42.8095989" lon="13.1078055"><ele>804.0</ele><time>2026-04-04T15:07:49.2Z</time></trkpt><trkpt lat="42.8096349" lon="13.1079971"><ele>804.75</ele><time>2026-04-04T15:07:50.201Z</time></trkpt><trkpt lat="42.8096887" lon="13.1081934"><ele>805.5</ele><time>2026-04-04T15:07:51.201Z</time></trkpt><trkpt lat="42.8097544" lon="13.108372"><ele>806.25</ele><time>2026-04-04T15:07:52.2Z</time></trkpt><trkpt lat="42.8098264" lon="13.1085463"><ele>807.0</ele><time>2026-04-04T15:07:53.2Z</time></trkpt><trkpt lat="42.8098968" lon="13.1087115"><ele>804.25</ele><time>2026-04-04T15:07:54.2Z</time></trkpt><trkpt lat="42.8099641" lon="13.108879"><ele>801.5</ele><time>2026-04-04T15:07:55.201Z</time></trkpt><trkpt lat="42.8100305" lon="13.1090501"><ele>798.75</ele><time>2026-04-04T15:07:56.2Z</time></trkpt><trkpt lat="42.8100919" lon="13.1092166"><ele>796.0</ele><time>2026-04-04T15:07:57.201Z</time></trkpt><trkpt lat="42.8101512" lon="13.109377"><ele>796.0</ele><time>2026-04-04T15:07:58.201Z</time></trkpt><trkpt lat="42.8102037" lon="13.1095438"><ele>796.0</ele><time>2026-04-04T15:07:59.2Z</time></trkpt><trkpt lat="42.8102481" lon="13.1097107"><ele>796.0</ele><time>2026-04-04T15:08:00.2Z</time></trkpt><trkpt lat="42.8102827" lon="13.1098783"><ele>796.0</ele><time>2026-04-04T15:08:01.201Z</time></trkpt><trkpt lat="42.8103106" lon="13.1100511"><ele>796.0</ele><time>2026-04-04T15:08:02.2Z</time></trkpt><trkpt lat="42.8103291" lon="13.1102373"><ele>796.0</ele><time>2026-04-04T15:08:03.2Z</time></trkpt><trkpt lat="42.8103352" lon="13.1104162"><ele>796.0</ele><time>2026-04-04T15:08:04.2Z</time></trkpt><trkpt lat="42.8103364" lon="13.1105878"><ele>796.0</ele><time>2026-04-04T15:08:05.2Z</time></trkpt><trkpt lat="42.8103153" lon="13.1107651"><ele>794.25</ele><time>2026-04-04T15:08:06.2Z</time></trkpt><trkpt lat="42.8102875" lon="13.1109432"><ele>792.5</ele><time>2026-04-04T15:08:07.2Z</time></trkpt><trkpt lat="42.8102549" lon="13.1111207"><ele>790.75</ele><time>2026-04-04T15:08:08.201Z</time></trkpt><trkpt lat="42.8102131" lon="13.1112966"><ele>789.0</ele><time>2026-04-04T15:08:09.2Z</time></trkpt><trkpt lat="42.8101564" lon="13.1114631"><ele>784.25</ele><time>2026-04-04T15:08:10.2Z</time></trkpt><trkpt lat="42.8100898" lon="13.1116257"><ele>779.5</ele><time>2026-04-04T15:08:11.201Z</time></trkpt><trkpt lat="42.8100157" lon="13.1117789"><ele>774.75</ele><time>2026-04-04T15:08:12.2Z</time></trkpt><trkpt lat="42.8099274" lon="13.1119329"><ele>770.0</ele><time>2026-04-04T15:08:13.2Z</time></trkpt><trkpt lat="42.809826" lon="13.1120778"><ele>770.0</ele><time>2026-04-04T15:08:14.201Z</time></trkpt><trkpt lat="42.8097323" lon="13.1122166"><ele>770.0</ele><time>2026-04-04T15:08:15.2Z</time></trkpt><trkpt lat="42.809618" lon="13.1123435"><ele>770.0</ele><time>2026-04-04T15:08:16.2Z</time></trkpt><trkpt lat="42.8094939" lon="13.1124482"><ele>770.0</ele><time>2026-04-04T15:08:17.2Z</time></trkpt><trkpt lat="42.8093516" lon="13.1125249"><ele>767.75</ele><time>2026-04-04T15:08:18.2Z</time></trkpt><trkpt lat="42.8092103" lon="13.1125832"><ele>765.5</ele><time>2026-04-04T15:08:19.2Z</time></trkpt><trkpt lat="42.809072" lon="13.1126144"><ele>763.25</ele><time>2026-04-04T15:08:20.2Z</time></trkpt><trkpt lat="42.8089273" lon="13.1126179"><ele>761.0</ele><time>2026-04-04T15:08:21.2Z</time></trkpt><trkpt lat="42.8087858" lon="13.1125916"><ele>761.0</ele><time>2026-04-04T15:08:22.2Z</time></trkpt><trkpt lat="42.8086448" lon="13.1125238"><ele>761.0</ele><time>2026-04-04T15:08:23.2Z</time></trkpt><trkpt lat="42.8085072" lon="13.1124398"><ele>761.0</ele><time>2026-04-04T15:08:24.2Z</time></trkpt><trkpt lat="42.8083676" lon="13.1123521"><ele>759.0</ele><time>2026-04-04T15:08:25.201Z</time></trkpt><trkpt lat="42.8082264" lon="13.1122665"><ele>757.0</ele><time>2026-04-04T15:08:26.201Z</time></trkpt><trkpt lat="42.8080779" lon="13.112185"><ele>755.0</ele><time>2026-04-04T15:08:27.201Z</time></trkpt><trkpt lat="42.8079287" lon="13.1121081"><ele>755.0</ele><time>2026-04-04T15:08:28.2Z</time></trkpt><trkpt lat="42.8077735" lon="13.11202"><ele>755.0</ele><time>2026-04-04T15:08:29.201Z</time></trkpt><trkpt lat="42.807616" lon="13.1119336"><ele>755.0</ele><time>2026-04-04T15:08:30.201Z</time></trkpt><trkpt lat="42.8074543" lon="13.1118481"><ele>753.6666666666666</ele><time>2026-04-04T15:08:31.2Z</time></trkpt><trkpt lat="42.8072888" lon="13.1117668"><ele>752.3333333333334</ele><time>2026-04-04T15:08:32.2Z</time></trkpt><trkpt lat="42.8071249" lon="13.1116804"><ele>751.0</ele><time>2026-04-04T15:08:33.2Z</time></trkpt><trkpt lat="42.8069615" lon="13.1115966"><ele>748.6666666666667</ele><time>2026-04-04T15:08:34.2Z</time></trkpt><trkpt lat="42.8067935" lon="13.1115151"><ele>746.3333333333334</ele><time>2026-04-04T15:08:35.2Z</time></trkpt><trkpt lat="42.8066264" lon="13.1114394"><ele>744.0</ele><time>2026-04-04T15:08:36.201Z</time></trkpt><trkpt lat="42.8064589" lon="13.1113627"><ele>744.0</ele><time>2026-04-04T15:08:37.2Z</time></trkpt><trkpt lat="42.8062906" lon="13.111282"><ele>744.0</ele><time>2026-04-04T15:08:38.2Z</time></trkpt><trkpt lat="42.8061308" lon="13.1111977"><ele>744.0</ele><time>2026-04-04T15:08:39.2Z</time></trkpt><trkpt lat="42.805973" lon="13.1111163"><ele>743.3333333333334</ele><time>2026-04-04T15:08:40.201Z</time></trkpt><trkpt lat="42.8058236" lon="13.111031"><ele>742.6666666666667</ele><time>2026-04-04T15:08:41.201Z</time></trkpt><trkpt lat="42.8056868" lon="13.1109425"><ele>742.0</ele><time>2026-04-04T15:08:42.2Z</time></trkpt><trkpt lat="42.8055524" lon="13.110857"><ele>742.0</ele><time>2026-04-04T15:08:43.2Z</time></trkpt><trkpt lat="42.8054196" lon="13.1107791"><ele>742.0</ele><time>2026-04-04T15:08:44.201Z</time></trkpt><trkpt lat="42.8052892" lon="13.1107022"><ele>742.0</ele><time>2026-04-04T15:08:45.201Z</time></trkpt><trkpt lat="42.8051661" lon="13.1106389"><ele>742.0</ele><time>2026-04-04T15:08:46.2Z</time></trkpt><trkpt lat="42.80504" lon="13.1105836"><ele>740.75</ele><time>2026-04-04T15:08:47.2Z</time></trkpt><trkpt lat="42.8049185" lon="13.1105406"><ele>739.5</ele><time>2026-04-04T15:08:48.201Z</time></trkpt><trkpt lat="42.8048037" lon="13.1104961"><ele>738.25</ele><time>2026-04-04T15:08:49.2Z</time></trkpt><trkpt lat="42.8046975" lon="13.1104347"><ele>737.0</ele><time>2026-04-04T15:08:50.201Z</time></trkpt><trkpt lat="42.8045966" lon="13.1103082"><ele>737.0</ele><time>2026-04-04T15:08:51.2Z</time></trkpt><trkpt lat="42.8045116" lon="13.11017"><ele>737.0</ele><time>2026-04-04T15:08:52.2Z</time></trkpt><trkpt lat="42.8044326" lon="13.1100131"><ele>737.0</ele><time>2026-04-04T15:08:53.201Z</time></trkpt><trkpt lat="42.8043462" lon="13.1098405"><ele>737.0</ele><time>2026-04-04T15:08:54.201Z</time></trkpt><trkpt lat="42.8042608" lon="13.1097008"><ele>736.0</ele><time>2026-04-04T15:08:55.2Z</time></trkpt><trkpt lat="42.8041699" lon="13.1095745"><ele>735.0</ele><time>2026-04-04T15:08:56.2Z</time></trkpt><trkpt lat="42.8040622" lon="13.1094585"><ele>734.0</ele><time>2026-04-04T15:08:57.201Z</time></trkpt><trkpt lat="42.803945" lon="13.1093522"><ele>733.0</ele><time>2026-04-04T15:08:58.201Z</time></trkpt><trkpt lat="42.8038155" lon="13.1092534"><ele>733.0</ele><time>2026-04-04T15:08:59.2Z</time></trkpt><trkpt lat="42.8036855" lon="13.1091584"><ele>733.0</ele><time>2026-04-04T15:09:00.2Z</time></trkpt><trkpt lat="42.8035483" lon="13.1090809"><ele>733.0</ele><time>2026-04-04T15:09:01.201Z</time></trkpt><trkpt lat="42.8034071" lon="13.1090213"><ele>733.0</ele><time>2026-04-04T15:09:02.201Z</time></trkpt><trkpt lat="42.803269" lon="13.1089552"><ele>731.5</ele><time>2026-04-04T15:09:03.2Z</time></trkpt><trkpt lat="42.8031383" lon="13.1088812"><ele>730.0</ele><time>2026-04-04T15:09:04.2Z</time></trkpt><trkpt lat="42.8030086" lon="13.1088021"><ele>728.5</ele><time>2026-04-04T15:09:05.201Z</time></trkpt><trkpt lat="42.8028839" lon="13.108678"><ele>727.0</ele><time>2026-04-04T15:09:06.2Z</time></trkpt><trkpt lat="42.8027725" lon="13.1085466"><ele>727.0</ele><time>2026-04-04T15:09:07.201Z</time></trkpt><trkpt lat="42.8026675" lon="13.1083902"><ele>727.0</ele><time>2026-04-04T15:09:08.2Z</time></trkpt><trkpt lat="42.8025689" lon="13.1082258"><ele>727.0</ele><time>2026-04-04T15:09:09.2Z</time></trkpt><trkpt lat="42.8024666" lon="13.1080642"><ele>723.3333333333334</ele><time>2026-04-04T15:09:10.2Z</time></trkpt><trkpt lat="42.8023628" lon="13.1078995"><ele>719.6666666666666</ele><time>2026-04-04T15:09:11.201Z</time></trkpt><trkpt lat="42.8022555" lon="13.1077338"><ele>716.0</ele><time>2026-04-04T15:09:12.201Z</time></trkpt><trkpt lat="42.8021507" lon="13.107567"><ele>714.3333333333333</ele><time>2026-04-04T15:09:13.2Z</time></trkpt><trkpt lat="42.8020524" lon="13.1074061"><ele>712.6666666666666</ele><time>2026-04-04T15:09:14.2Z</time></trkpt><trkpt lat="42.8019519" lon="13.1072477"><ele>711.0</ele><time>2026-04-04T15:09:15.2Z</time></trkpt><trkpt lat="42.8018557" lon="13.107098"><ele>710.75</ele><time>2026-04-04T15:09:16.2Z</time></trkpt><trkpt lat="42.801761" lon="13.1069619"><ele>710.5</ele><time>2026-04-04T15:09:17.2Z</time></trkpt><trkpt lat="42.8016679" lon="13.1068238"><ele>710.25</ele><time>2026-04-04T15:09:18.2Z</time></trkpt><trkpt lat="42.8015871" lon="13.1066956"><ele>710.0</ele><time>2026-04-04T15:09:19.2Z</time></trkpt><trkpt lat="42.80151" lon="13.1065728"><ele>709.25</ele><time>2026-04-04T15:09:20.2Z</time></trkpt><trkpt lat="42.8014409" lon="13.1064493"><ele>708.5</ele><time>2026-04-04T15:09:21.2Z</time></trkpt><trkpt lat="42.8013669" lon="13.1063199"><ele>707.75</ele><time>2026-04-04T15:09:22.2Z</time></trkpt><trkpt lat="42.8012946" lon="13.1061846"><ele>707.0</ele><time>2026-04-04T15:09:23.201Z</time></trkpt><trkpt lat="42.8012185" lon="13.1060651"><ele>707.0</ele><time>2026-04-04T15:09:24.2Z</time></trkpt><trkpt lat="42.8011505" lon="13.1059392"><ele>707.0</ele><time>2026-04-04T15:09:25.2Z</time></trkpt><trkpt lat="42.8010842" lon="13.1058213"><ele>707.0</ele><time>2026-04-04T15:09:26.2Z</time></trkpt><trkpt lat="42.8010261" lon="13.1057021"><ele>707.0</ele><time>2026-04-04T15:09:27.201Z</time></trkpt><trkpt lat="42.8009643" lon="13.1055747"><ele>707.0</ele><time>2026-04-04T15:09:28.2Z</time></trkpt><trkpt lat="42.8009058" lon="13.1054363"><ele>705.25</ele><time>2026-04-04T15:09:29.201Z</time></trkpt><trkpt lat="42.8008528" lon="13.1052925"><ele>703.5</ele><time>2026-04-04T15:09:30.2Z</time></trkpt><trkpt lat="42.8008038" lon="13.1051413"><ele>701.75</ele><time>2026-04-04T15:09:31.2Z</time></trkpt><trkpt lat="42.8007504" lon="13.1049955"><ele>700.0</ele><time>2026-04-04T15:09:32.2Z</time></trkpt><trkpt lat="42.8006956" lon="13.1048489"><ele>699.0</ele><time>2026-04-04T15:09:33.2Z</time></trkpt><trkpt lat="42.8006454" lon="13.1047073"><ele>698.0</ele><time>2026-04-04T15:09:34.201Z</time></trkpt><trkpt lat="42.8005951" lon="13.1045817"><ele>697.0</ele><time>2026-04-04T15:09:35.2Z</time></trkpt><trkpt lat="42.800543" lon="13.1044623"><ele>696.0</ele><time>2026-04-04T15:09:36.2Z</time></trkpt><trkpt lat="42.8004736" lon="13.1043478"><ele>695.0</ele><time>2026-04-04T15:09:37.201Z</time></trkpt><trkpt lat="42.8003818" lon="13.104245"><ele>695.0</ele><time>2026-04-04T15:09:38.2Z</time></trkpt><trkpt lat="42.8002832" lon="13.104153"><ele>695.0</ele><time>2026-04-04T15:09:39.2Z</time></trkpt><trkpt lat="42.8001821" lon="13.1040506"><ele>695.0</ele><time>2026-04-04T15:09:40.201Z</time></trkpt><trkpt lat="42.8000958" lon="13.1039578"><ele>695.0</ele><time>2026-04-04T15:09:41.2Z</time></trkpt><trkpt lat="42.8000017" lon="13.1038383"><ele>693.25</ele><time>2026-04-04T15:09:42.2Z</time></trkpt><trkpt lat="42.7999118" lon="13.1037097"><ele>691.5</ele><time>2026-04-04T15:09:43.201Z</time></trkpt><trkpt lat="42.7998238" lon="13.1035843"><ele>689.75</ele><time>2026-04-04T15:09:44.2Z</time></trkpt><trkpt lat="42.7997438" lon="13.1034513"><ele>688.0</ele><time>2026-04-04T15:09:45.201Z</time></trkpt><trkpt lat="42.7996648" lon="13.1033106"><ele>687.0</ele><time>2026-04-04T15:09:46.201Z</time></trkpt><trkpt lat="42.7995862" lon="13.1031637"><ele>686.0</ele><time>2026-04-04T15:09:47.2Z</time></trkpt><trkpt lat="42.7995153" lon="13.103019"><ele>685.0</ele><time>2026-04-04T15:09:48.2Z</time></trkpt><trkpt lat="42.7994483" lon="13.1028783"><ele>684.0</ele><time>2026-04-04T15:09:49.2Z</time></trkpt><trkpt lat="42.7993856" lon="13.1027367"><ele>682.75</ele><time>2026-04-04T15:09:50.2Z</time></trkpt><trkpt lat="42.7993098" lon="13.1026112"><ele>681.5</ele><time>2026-04-04T15:09:51.2Z</time></trkpt><trkpt lat="42.7992324" lon="13.1024753"><ele>680.25</ele><time>2026-04-04T15:09:52.2Z</time></trkpt><trkpt lat="42.7991478" lon="13.1023476"><ele>679.0</ele><time>2026-04-04T15:09:53.2Z</time></trkpt><trkpt lat="42.7990618" lon="13.1022181"><ele>677.25</ele><time>2026-04-04T15:09:54.2Z</time></trkpt><trkpt lat="42.7989791" lon="13.1020894"><ele>675.5</ele><time>2026-04-04T15:09:55.2Z</time></trkpt><trkpt lat="42.7989157" lon="13.1019565"><ele>673.75</ele><time>2026-04-04T15:09:56.2Z</time></trkpt><trkpt lat="42.7988539" lon="13.1018192"><ele>672.0</ele><time>2026-04-04T15:09:57.2Z</time></trkpt><trkpt lat="42.7987901" lon="13.1016816"><ele>671.5</ele><time>2026-04-04T15:09:58.2Z</time></trkpt><trkpt lat="42.7987282" lon="13.1015429"><ele>671.0</ele><time>2026-04-04T15:09:59.2Z</time></trkpt><trkpt lat="42.79867" lon="13.101413"><ele>670.5</ele><time>2026-04-04T15:10:00.2Z</time></trkpt><trkpt lat="42.7986058" lon="13.1012788"><ele>670.0</ele><time>2026-04-04T15:10:01.201Z</time></trkpt><trkpt lat="42.7985403" lon="13.1011498"><ele>669.25</ele><time>2026-04-04T15:10:02.2Z</time></trkpt><trkpt lat="42.7984592" lon="13.1010301"><ele>668.5</ele><time>2026-04-04T15:10:03.2Z</time></trkpt><trkpt lat="42.7983789" lon="13.1009038"><ele>667.75</ele><time>2026-04-04T15:10:04.201Z</time></trkpt><trkpt lat="42.7982939" lon="13.1007885"><ele>667.0</ele><time>2026-04-04T15:10:05.2Z</time></trkpt><trkpt lat="42.7982118" lon="13.100672"><ele>665.5</ele><time>2026-04-04T15:10:06.2Z</time></trkpt><trkpt lat="42.7981162" lon="13.1005489"><ele>664.0</ele><time>2026-04-04T15:10:07.2Z</time></trkpt><trkpt lat="42.7980349" lon="13.100428"><ele>662.5</ele><time>2026-04-04T15:10:08.201Z</time></trkpt><trkpt lat="42.7979445" lon="13.1003246"><ele>661.0</ele><time>2026-04-04T15:10:09.201Z</time></trkpt><trkpt lat="42.7978697" lon="13.100218"><ele>661.0</ele><time>2026-04-04T15:10:10.2Z</time></trkpt><trkpt lat="42.7978033" lon="13.1001141"><ele>661.0</ele><time>2026-04-04T15:10:11.2Z</time></trkpt><trkpt lat="42.7977401" lon="13.1000264"><ele>661.0</ele><time>2026-04-04T15:10:12.2Z</time></trkpt><trkpt lat="42.7976855" lon="13.0999451"><ele>661.0</ele><time>2026-04-04T15:10:13.2Z</time></trkpt><trkpt lat="42.7976428" lon="13.0998626"><ele>661.0</ele><time>2026-04-04T15:10:14.2Z</time></trkpt><trkpt lat="42.7976174" lon="13.0997651"><ele>661.0</ele><time>2026-04-04T15:10:15.2Z</time></trkpt><trkpt lat="42.7976234" lon="13.0996728"><ele>659.8</ele><time>2026-04-04T15:10:16.2Z</time></trkpt><trkpt lat="42.7976786" lon="13.0995888"><ele>658.5999999999999</ele><time>2026-04-04T15:10:17.2Z</time></trkpt><trkpt lat="42.7977452" lon="13.0995311"><ele>657.4</ele><time>2026-04-04T15:10:18.2Z</time></trkpt><trkpt lat="42.7978368" lon="13.0995545"><ele>656.2</ele><time>2026-04-04T15:10:19.2Z</time></trkpt><trkpt lat="42.7979422" lon="13.0995933"><ele>655.0</ele><time>2026-04-04T15:10:20.2Z</time></trkpt><trkpt lat="42.798041" lon="13.099678"><ele>655.0</ele><time>2026-04-04T15:10:21.2Z</time></trkpt><trkpt lat="42.7981342" lon="13.0997615"><ele>655.0</ele><time>2026-04-04T15:10:22.201Z</time></trkpt><trkpt lat="42.7982233" lon="13.0998558"><ele>655.0</ele><time>2026-04-04T15:10:23.2Z</time></trkpt><trkpt lat="42.7982932" lon="13.0999686"><ele>655.0</ele><time>2026-04-04T15:10:24.201Z</time></trkpt><trkpt lat="42.798365" lon="13.1000571"><ele>655.0</ele><time>2026-04-04T15:10:25.201Z</time></trkpt><trkpt lat="42.7984156" lon="13.10015"><ele>656.0</ele><time>2026-04-04T15:10:26.2Z</time></trkpt><trkpt lat="42.798474" lon="13.1002261"><ele>657.0</ele><time>2026-04-04T15:10:27.2Z</time></trkpt><trkpt lat="42.7985202" lon="13.1002881"><ele>658.0</ele><time>2026-04-04T15:10:28.2Z</time></trkpt><trkpt lat="42.7985863" lon="13.1002895"><ele>659.0</ele><time>2026-04-04T15:10:29.2Z</time></trkpt><trkpt lat="42.7986505" lon="13.1001789"><ele>660.0</ele><time>2026-04-04T15:10:31.2Z</time></trkpt><trkpt lat="42.7986439" lon="13.1000933"><ele>661.0</ele><time>2026-04-04T15:10:32.201Z</time></trkpt><trkpt lat="42.798597" lon="13.1000064"><ele>659.8</ele><time>2026-04-04T15:10:33.2Z</time></trkpt><trkpt lat="42.7985408" lon="13.099897"><ele>658.5999999999999</ele><time>2026-04-04T15:10:34.2Z</time></trkpt><trkpt lat="42.7984749" lon="13.0997951"><ele>657.4</ele><time>2026-04-04T15:10:35.2Z</time></trkpt><trkpt lat="42.7984109" lon="13.0996918"><ele>656.2</ele><time>2026-04-04T15:10:36.2Z</time></trkpt><trkpt lat="42.7983378" lon="13.0995657"><ele>655.0</ele><time>2026-04-04T15:10:37.201Z</time></trkpt><trkpt lat="42.7982553" lon="13.0994558"><ele>655.0</ele><time>2026-04-04T15:10:38.201Z</time></trkpt><trkpt lat="42.7981606" lon="13.0993494"><ele>655.0</ele><time>2026-04-04T15:10:39.2Z</time></trkpt><trkpt lat="42.7980622" lon="13.0992562"><ele>655.0</ele><time>2026-04-04T15:10:40.2Z</time></trkpt><trkpt lat="42.7979586" lon="13.0991603"><ele>655.0</ele><time>2026-04-04T15:10:41.2Z</time></trkpt><trkpt lat="42.79785" lon="13.099073"><ele>653.25</ele><time>2026-04-04T15:10:42.2Z</time></trkpt><trkpt lat="42.7977423" lon="13.0990211"><ele>651.5</ele><time>2026-04-04T15:10:43.2Z</time></trkpt><trkpt lat="42.797624" lon="13.0989933"><ele>649.75</ele><time>2026-04-04T15:10:44.2Z</time></trkpt><trkpt lat="42.7975043" lon="13.098996"><ele>648.0</ele><time>2026-04-04T15:10:45.201Z</time></trkpt><trkpt lat="42.7973904" lon="13.0990292"><ele>648.2</ele><time>2026-04-04T15:10:46.201Z</time></trkpt><trkpt lat="42.7972771" lon="13.0990713"><ele>648.4</ele><time>2026-04-04T15:10:47.2Z</time></trkpt><trkpt lat="42.7971665" lon="13.099118"><ele>648.6</ele><time>2026-04-04T15:10:48.2Z</time></trkpt><trkpt lat="42.7970686" lon="13.0991491"><ele>648.8000000000001</ele><time>2026-04-04T15:10:49.2Z</time></trkpt><trkpt lat="42.7969745" lon="13.0991435"><ele>649.0</ele><time>2026-04-04T15:10:50.2Z</time></trkpt><trkpt lat="42.7968841" lon="13.0991104"><ele>646.8000000000001</ele><time>2026-04-04T15:10:51.2Z</time></trkpt><trkpt lat="42.7968131" lon="13.0990244"><ele>644.6</ele><time>2026-04-04T15:10:52.201Z</time></trkpt><trkpt lat="42.7967612" lon="13.0989123"><ele>642.4</ele><time>2026-04-04T15:10:53.2Z</time></trkpt><trkpt lat="42.796737" lon="13.0987821"><ele>640.2</ele><time>2026-04-04T15:10:54.2Z</time></trkpt><trkpt lat="42.7967017" lon="13.0986613"><ele>638.0</ele><time>2026-04-04T15:10:55.2Z</time></trkpt><trkpt lat="42.7966491" lon="13.0985564"><ele>638.0</ele><time>2026-04-04T15:10:56.2Z</time></trkpt><trkpt lat="42.7965854" lon="13.0984501"><ele>638.0</ele><time>2026-04-04T15:10:57.2Z</time></trkpt><trkpt lat="42.7965153" lon="13.098344"><ele>638.0</ele><time>2026-04-04T15:10:58.2Z</time></trkpt><trkpt lat="42.7964506" lon="13.0982339"><ele>638.0</ele><time>2026-04-04T15:10:59.2Z</time></trkpt><trkpt lat="42.7963756" lon="13.0981324"><ele>638.0</ele><time>2026-04-04T15:11:00.2Z</time></trkpt><trkpt lat="42.7963011" lon="13.0980294"><ele>638.0</ele><time>2026-04-04T15:11:01.201Z</time></trkpt><trkpt lat="42.7962232" lon="13.0979198"><ele>638.0</ele><time>2026-04-04T15:11:02.201Z</time></trkpt><trkpt lat="42.7961523" lon="13.0978178"><ele>638.0</ele><time>2026-04-04T15:11:03.201Z</time></trkpt><trkpt lat="42.7960755" lon="13.0977149"><ele>638.0</ele><time>2026-04-04T15:11:04.2Z</time></trkpt><trkpt lat="42.7959976" lon="13.097611"><ele>638.0</ele><time>2026-04-04T15:11:05.2Z</time></trkpt><trkpt lat="42.7959162" lon="13.0974993"><ele>637.1999999999999</ele><time>2026-04-04T15:11:06.2Z</time></trkpt><trkpt lat="42.795834" lon="13.0974068"><ele>636.4</ele><time>2026-04-04T15:11:07.2Z</time></trkpt><trkpt lat="42.7957508" lon="13.097327"><ele>635.5999999999999</ele><time>2026-04-04T15:11:08.2Z</time></trkpt><trkpt lat="42.7956707" lon="13.0972539"><ele>634.8</ele><time>2026-04-04T15:11:09.2Z</time></trkpt><trkpt lat="42.7955969" lon="13.09719"><ele>634.0</ele><time>2026-04-04T15:11:10.2Z</time></trkpt><trkpt lat="42.7955389" lon="13.0971457"><ele>634.0</ele><time>2026-04-04T15:11:11.201Z</time></trkpt><trkpt lat="42.7954771" lon="13.0970846"><ele>634.0</ele><time>2026-04-04T15:11:13.2Z</time></trkpt><trkpt lat="42.7954063" lon="13.0970676"><ele>634.0</ele><time>2026-04-04T15:11:17.2Z</time></trkpt><trkpt lat="42.7953476" lon="13.0971082"><ele>634.0</ele><time>2026-04-04T15:11:18.201Z</time></trkpt><trkpt lat="42.7952883" lon="13.0971882"><ele>634.0</ele><time>2026-04-04T15:11:19.201Z</time></trkpt><trkpt lat="42.795232" lon="13.0972766"><ele>634.0</ele><time>2026-04-04T15:11:20.2Z</time></trkpt><trkpt lat="42.7951721" lon="13.0973704"><ele>634.2</ele><time>2026-04-04T15:11:21.2Z</time></trkpt><trkpt lat="42.7951057" lon="13.097464"><ele>634.4</ele><time>2026-04-04T15:11:22.201Z</time></trkpt><trkpt lat="42.7950286" lon="13.0975518"><ele>634.6</ele><time>2026-04-04T15:11:23.2Z</time></trkpt><trkpt lat="42.794946" lon="13.0976307"><ele>634.8</ele><time>2026-04-04T15:11:24.2Z</time></trkpt><trkpt lat="42.7948571" lon="13.097696"><ele>635.0</ele><time>2026-04-04T15:11:25.2Z</time></trkpt><trkpt lat="42.79477" lon="13.0977527"><ele>635.0</ele><time>2026-04-04T15:11:26.2Z</time></trkpt><trkpt lat="42.794684" lon="13.0978083"><ele>635.0</ele><time>2026-04-04T15:11:27.201Z</time></trkpt><trkpt lat="42.7946061" lon="13.0978513"><ele>635.0</ele><time>2026-04-04T15:11:28.2Z</time></trkpt><trkpt lat="42.7945268" lon="13.0978678"><ele>635.0</ele><time>2026-04-04T15:11:29.201Z</time></trkpt><trkpt lat="42.7944178" lon="13.0978709"><ele>635.0</ele><time>2026-04-04T15:11:30.2Z</time></trkpt><trkpt lat="42.7943046" lon="13.0978698"><ele>634.6666666666666</ele><time>2026-04-04T15:11:31.2Z</time></trkpt><trkpt lat="42.7942033" lon="13.0978791"><ele>634.3333333333333</ele><time>2026-04-04T15:11:32.201Z</time></trkpt><trkpt lat="42.7941067" lon="13.0979112"><ele>634.0</ele><time>2026-04-04T15:11:33.2Z</time></trkpt><trkpt lat="42.7940271" lon="13.09795"><ele>633.6666666666666</ele><time>2026-04-04T15:11:34.201Z</time></trkpt><trkpt lat="42.7939485" lon="13.0979803"><ele>633.3333333333334</ele><time>2026-04-04T15:11:35.2Z</time></trkpt><trkpt lat="42.7938741" lon="13.0980034"><ele>633.0</ele><time>2026-04-04T15:11:36.2Z</time></trkpt><trkpt lat="42.7937948" lon="13.0980364"><ele>633.0</ele><time>2026-04-04T15:11:37.2Z</time></trkpt><trkpt lat="42.7937308" lon="13.098039"><ele>633.0</ele><time>2026-04-04T15:11:38.2Z</time></trkpt><trkpt lat="42.7936676" lon="13.0980021"><ele>633.0</ele><time>2026-04-04T15:11:39.2Z</time></trkpt><trkpt lat="42.7935997" lon="13.0979452"><ele>633.0</ele><time>2026-04-04T15:11:40.2Z</time></trkpt><trkpt lat="42.7935349" lon="13.0978788"><ele>633.0</ele><time>2026-04-04T15:11:41.2Z</time></trkpt><trkpt lat="42.793467" lon="13.0977898"><ele>633.0</ele><time>2026-04-04T15:11:42.2Z</time></trkpt><trkpt lat="42.7934087" lon="13.0976917"><ele>631.4</ele><time>2026-04-04T15:11:43.2Z</time></trkpt><trkpt lat="42.7933443" lon="13.0975807"><ele>629.8</ele><time>2026-04-04T15:11:44.2Z</time></trkpt><trkpt lat="42.7932741" lon="13.0974805"><ele>628.2</ele><time>2026-04-04T15:11:45.2Z</time></trkpt><trkpt lat="42.7932055" lon="13.0973775"><ele>626.6</ele><time>2026-04-04T15:11:46.2Z</time></trkpt><trkpt lat="42.7931382" lon="13.097269"><ele>625.0</ele><time>2026-04-04T15:11:47.2Z</time></trkpt><trkpt lat="42.793071" lon="13.0971614"><ele>624.6</ele><time>2026-04-04T15:11:48.201Z</time></trkpt><trkpt lat="42.7930067" lon="13.0970495"><ele>624.2</ele><time>2026-04-04T15:11:49.2Z</time></trkpt><trkpt lat="42.7929552" lon="13.0969255"><ele>623.8</ele><time>2026-04-04T15:11:50.2Z</time></trkpt><trkpt lat="42.7929025" lon="13.0968005"><ele>623.4</ele><time>2026-04-04T15:11:51.2Z</time></trkpt><trkpt lat="42.7928677" lon="13.0966691"><ele>623.0</ele><time>2026-04-04T15:11:52.2Z</time></trkpt><trkpt lat="42.7928207" lon="13.0965429"><ele>622.1999999999999</ele><time>2026-04-04T15:11:53.2Z</time></trkpt><trkpt lat="42.7927773" lon="13.0964197"><ele>621.4</ele><time>2026-04-04T15:11:54.201Z</time></trkpt><trkpt lat="42.7927287" lon="13.096296"><ele>620.5999999999999</ele><time>2026-04-04T15:11:55.2Z</time></trkpt><trkpt lat="42.7926744" lon="13.0961742"><ele>619.8</ele><time>2026-04-04T15:11:56.201Z</time></trkpt><trkpt lat="42.7926206" lon="13.0960541"><ele>619.0</ele><time>2026-04-04T15:11:57.2Z</time></trkpt><trkpt lat="42.7925766" lon="13.0959318"><ele>617.6666666666667</ele><time>2026-04-04T15:11:58.201Z</time></trkpt><trkpt lat="42.7925228" lon="13.0958144"><ele>616.3333333333334</ele><time>2026-04-04T15:11:59.201Z</time></trkpt><trkpt lat="42.7924797" lon="13.0957044"><ele>615.0</ele><time>2026-04-04T15:12:00.201Z</time></trkpt><trkpt lat="42.7924368" lon="13.0956058"><ele>613.6666666666666</ele><time>2026-04-04T15:12:01.2Z</time></trkpt><trkpt lat="42.792393" lon="13.0955022"><ele>612.3333333333333</ele><time>2026-04-04T15:12:02.2Z</time></trkpt><trkpt lat="42.7923591" lon="13.0954105"><ele>611.0</ele><time>2026-04-04T15:12:03.2Z</time></trkpt><trkpt lat="42.7923156" lon="13.0953212"><ele>611.0000000000001</ele><time>2026-04-04T15:12:04.201Z</time></trkpt><trkpt lat="42.7922823" lon="13.095233"><ele>611.0</ele><time>2026-04-04T15:12:05.201Z</time></trkpt><trkpt lat="42.7922451" lon="13.0951503"><ele>611.0</ele><time>2026-04-04T15:12:06.2Z</time></trkpt><trkpt lat="42.7922044" lon="13.0950644"><ele>611.0</ele><time>2026-04-04T15:12:07.2Z</time></trkpt><trkpt lat="42.7921561" lon="13.0949864"><ele>611.0</ele><time>2026-04-04T15:12:08.2Z</time></trkpt><trkpt lat="42.7921145" lon="13.0949067"><ele>611.0000000000001</ele><time>2026-04-04T15:12:09.201Z</time></trkpt><trkpt lat="42.792066" lon="13.0948327"><ele>611.0</ele><time>2026-04-04T15:12:10.2Z</time></trkpt><trkpt lat="42.7920153" lon="13.0947634"><ele>611.0000000000001</ele><time>2026-04-04T15:12:11.2Z</time></trkpt><trkpt lat="42.7919596" lon="13.0946924"><ele>611.0</ele><time>2026-04-04T15:12:12.2Z</time></trkpt><trkpt lat="42.7919109" lon="13.0946257"><ele>611.0</ele><time>2026-04-04T15:12:13.2Z</time></trkpt><trkpt lat="42.7918562" lon="13.0945667"><ele>611.0</ele><time>2026-04-04T15:12:14.201Z</time></trkpt><trkpt lat="42.7918041" lon="13.0944972"><ele>611.0</ele><time>2026-04-04T15:12:15.2Z</time></trkpt><trkpt lat="42.7917535" lon="13.0944317"><ele>611.0000000000001</ele><time>2026-04-04T15:12:16.201Z</time></trkpt><trkpt lat="42.791705" lon="13.0943666"><ele>611.0</ele><time>2026-04-04T15:12:17.2Z</time></trkpt><trkpt lat="42.7916502" lon="13.0943019"><ele>610.3333333333333</ele><time>2026-04-04T15:12:18.2Z</time></trkpt><trkpt lat="42.7915881" lon="13.0942527"><ele>609.6666666666666</ele><time>2026-04-04T15:12:19.201Z</time></trkpt><trkpt lat="42.7915264" lon="13.0942063"><ele>609.0</ele><time>2026-04-04T15:12:20.2Z</time></trkpt><trkpt lat="42.7914638" lon="13.0941589"><ele>608.3333333333334</ele><time>2026-04-04T15:12:21.201Z</time></trkpt><trkpt lat="42.7913958" lon="13.0941125"><ele>607.6666666666667</ele><time>2026-04-04T15:12:22.201Z</time></trkpt><trkpt lat="42.7913086" lon="13.0940683"><ele>607.0</ele><time>2026-04-04T15:12:23.2Z</time></trkpt><trkpt lat="42.7912277" lon="13.0940181"><ele>607.0</ele><time>2026-04-04T15:12:24.2Z</time></trkpt><trkpt lat="42.7911433" lon="13.0939669"><ele>607.0</ele><time>2026-04-04T15:12:25.2Z</time></trkpt><trkpt lat="42.7910555" lon="13.093927"><ele>607.0</ele><time>2026-04-04T15:12:26.201Z</time></trkpt><trkpt lat="42.7909731" lon="13.0938703"><ele>607.0</ele><time>2026-04-04T15:12:27.2Z</time></trkpt><trkpt lat="42.7908965" lon="13.0938218"><ele>607.0</ele><time>2026-04-04T15:12:28.2Z</time></trkpt><trkpt lat="42.7908106" lon="13.0937798"><ele>606.2</ele><time>2026-04-04T15:12:29.2Z</time></trkpt><trkpt lat="42.7907252" lon="13.0937227"><ele>605.4000000000001</ele><time>2026-04-04T15:12:30.2Z</time></trkpt><trkpt lat="42.7906314" lon="13.0936634"><ele>604.5999999999999</ele><time>2026-04-04T15:12:31.2Z</time></trkpt><trkpt lat="42.7905439" lon="13.0936043"><ele>603.8</ele><time>2026-04-04T15:12:32.201Z</time></trkpt><trkpt lat="42.7904539" lon="13.0935392"><ele>603.0</ele><time>2026-04-04T15:12:33.2Z</time></trkpt><trkpt lat="42.7903767" lon="13.093513"><ele>603.0</ele><time>2026-04-04T15:12:34.2Z</time></trkpt><trkpt lat="42.7903167" lon="13.0934672"><ele>603.0</ele><time>2026-04-04T15:12:35.2Z</time></trkpt><trkpt lat="42.7902054" lon="13.0934643"><ele>603.0</ele><time>2026-04-04T15:12:37.201Z</time></trkpt><trkpt lat="42.7901219" lon="13.0934645"><ele>603.0</ele><time>2026-04-04T15:12:40.2Z</time></trkpt><trkpt lat="42.790062" lon="13.0935183"><ele>603.0</ele><time>2026-04-04T15:12:43.2Z</time></trkpt><trkpt lat="42.7900118" lon="13.0936618"><ele>601.3333333333334</ele><time>2026-04-04T15:12:45.201Z</time></trkpt><trkpt lat="42.7900083" lon="13.0937497"><ele>599.6666666666666</ele><time>2026-04-04T15:12:46.2Z</time></trkpt><trkpt lat="42.7899959" lon="13.0938358"><ele>598.0</ele><time>2026-04-04T15:12:47.201Z</time></trkpt><trkpt lat="42.7899752" lon="13.0939194"><ele>596.3333333333333</ele><time>2026-04-04T15:12:48.2Z</time></trkpt><trkpt lat="42.7899495" lon="13.0940473"><ele>594.6666666666666</ele><time>2026-04-04T15:12:50.2Z</time></trkpt><trkpt lat="42.7899352" lon="13.0941799"><ele>593.0</ele><time>2026-04-04T15:12:52.201Z</time></trkpt><trkpt lat="42.7899148" lon="13.0942619"><ele>593.0</ele><time>2026-04-04T15:12:54.2Z</time></trkpt><trkpt lat="42.78989" lon="13.0943481"><ele>593.0</ele><time>2026-04-04T15:12:57.2Z</time></trkpt><trkpt lat="42.7898643" lon="13.0942508"><ele>593.0</ele><time>2026-04-04T15:13:03.201Z</time></trkpt><trkpt lat="42.7898829" lon="13.0941533"><ele>593.0</ele><time>2026-04-04T15:13:09.2Z</time></trkpt><trkpt lat="42.7898967" lon="13.0940475"><ele>592.0</ele><time>2026-04-04T15:13:12.201Z</time></trkpt></trkseg><trkseg><trkpt lat="42.7900231" lon="13.0939494"><ele>592.0</ele><time>2026-04-05T10:48:06.983Z</time></trkpt><trkpt lat="42.7900495" lon="13.0938499"><ele>592.0</ele><time>2026-04-05T10:48:07.982Z</time></trkpt><trkpt lat="42.7900615" lon="13.0937473"><ele>592.0</ele><time>2026-04-05T10:48:08.983Z</time></trkpt><trkpt lat="42.7900683" lon="13.0936408"><ele>592.0</ele><time>2026-04-05T10:48:09.983Z</time></trkpt><trkpt lat="42.7900704" lon="13.0935294"><ele>592.0</ele><time>2026-04-05T10:48:10.982Z</time></trkpt><trkpt lat="42.790071" lon="13.0934103"><ele>592.0</ele><time>2026-04-05T10:48:11.983Z</time></trkpt><trkpt lat="42.7900763" lon="13.0932891"><ele>593.0</ele><time>2026-04-05T10:48:12.982Z</time></trkpt><trkpt lat="42.7901041" lon="13.0931713"><ele>594.0</ele><time>2026-04-05T10:48:13.983Z</time></trkpt><trkpt lat="42.790151" lon="13.0930687"><ele>595.0</ele><time>2026-04-05T10:48:14.983Z</time></trkpt><trkpt lat="42.7902207" lon="13.0929719"><ele>596.0</ele><time>2026-04-05T10:48:15.983Z</time></trkpt><trkpt lat="42.7903018" lon="13.0928807"><ele>597.0</ele><time>2026-04-05T10:48:16.983Z</time></trkpt><trkpt lat="42.7903865" lon="13.0927943"><ele>597.0</ele><time>2026-04-05T10:48:17.982Z</time></trkpt><trkpt lat="42.7904723" lon="13.0927074"><ele>597.0</ele><time>2026-04-05T10:48:18.983Z</time></trkpt><trkpt lat="42.7905565" lon="13.0926244"><ele>597.0</ele><time>2026-04-05T10:48:19.983Z</time></trkpt><trkpt lat="42.7906424" lon="13.0925329"><ele>597.0</ele><time>2026-04-05T10:48:20.982Z</time></trkpt><trkpt lat="42.7907317" lon="13.0924339"><ele>597.0</ele><time>2026-04-05T10:48:21.983Z</time></trkpt><trkpt lat="42.7908229" lon="13.0923356"><ele>597.25</ele><time>2026-04-05T10:48:22.983Z</time></trkpt><trkpt lat="42.7909159" lon="13.092233"><ele>597.5</ele><time>2026-04-05T10:48:23.983Z</time></trkpt><trkpt lat="42.791004" lon="13.0921147"><ele>597.75</ele><time>2026-04-05T10:48:24.983Z</time></trkpt><trkpt lat="42.7910937" lon="13.0919973"><ele>598.0</ele><time>2026-04-05T10:48:25.983Z</time></trkpt><trkpt lat="42.7911822" lon="13.0918745"><ele>598.0</ele><time>2026-04-05T10:48:26.983Z</time></trkpt><trkpt lat="42.7912684" lon="13.0917329"><ele>598.0</ele><time>2026-04-05T10:48:27.982Z</time></trkpt><trkpt lat="42.7913591" lon="13.0915924"><ele>598.0</ele><time>2026-04-05T10:48:28.983Z</time></trkpt><trkpt lat="42.7914497" lon="13.0914413"><ele>598.0</ele><time>2026-04-05T10:48:29.983Z</time></trkpt><trkpt lat="42.7915506" lon="13.0912903"><ele>598.3333333333334</ele><time>2026-04-05T10:48:30.983Z</time></trkpt><trkpt lat="42.7916582" lon="13.0911479"><ele>598.6666666666666</ele><time>2026-04-05T10:48:31.983Z</time></trkpt><trkpt lat="42.7917701" lon="13.0910149"><ele>599.0</ele><time>2026-04-05T10:48:32.983Z</time></trkpt><trkpt lat="42.7918916" lon="13.0908905"><ele>594.3333333333333</ele><time>2026-04-05T10:48:33.982Z</time></trkpt><trkpt lat="42.7920297" lon="13.0907552"><ele>589.6666666666666</ele><time>2026-04-05T10:48:34.982Z</time></trkpt><trkpt lat="42.7921588" lon="13.0906188"><ele>585.0</ele><time>2026-04-05T10:48:35.983Z</time></trkpt><trkpt lat="42.7922797" lon="13.0904792"><ele>585.0</ele><time>2026-04-05T10:48:36.983Z</time></trkpt><trkpt lat="42.7924003" lon="13.0903533"><ele>585.0</ele><time>2026-04-05T10:48:37.982Z</time></trkpt><trkpt lat="42.7925261" lon="13.0902232"><ele>585.0</ele><time>2026-04-05T10:48:38.983Z</time></trkpt><trkpt lat="42.7926483" lon="13.0900897"><ele>584.6666666666666</ele><time>2026-04-05T10:48:39.983Z</time></trkpt><trkpt lat="42.7927759" lon="13.089955"><ele>584.3333333333333</ele><time>2026-04-05T10:48:40.983Z</time></trkpt><trkpt lat="42.7928923" lon="13.0898312"><ele>584.0</ele><time>2026-04-05T10:48:41.982Z</time></trkpt><trkpt lat="42.7930104" lon="13.0896964"><ele>584.0</ele><time>2026-04-05T10:48:42.982Z</time></trkpt><trkpt lat="42.7931162" lon="13.0895732"><ele>584.0</ele><time>2026-04-05T10:48:43.982Z</time></trkpt><trkpt lat="42.7932189" lon="13.0894702"><ele>584.0</ele><time>2026-04-05T10:48:44.983Z</time></trkpt><trkpt lat="42.793324" lon="13.0893648"><ele>584.0</ele><time>2026-04-05T10:48:45.983Z</time></trkpt><trkpt lat="42.7934266" lon="13.089283"><ele>584.25</ele><time>2026-04-05T10:48:46.983Z</time></trkpt><trkpt lat="42.7935356" lon="13.0892272"><ele>584.5</ele><time>2026-04-05T10:48:47.983Z</time></trkpt><trkpt lat="42.7936499" lon="13.0892079"><ele>584.75</ele><time>2026-04-05T10:48:48.982Z</time></trkpt><trkpt lat="42.7937693" lon="13.0892185"><ele>585.0</ele><time>2026-04-05T10:48:49.983Z</time></trkpt><trkpt lat="42.7938801" lon="13.0892609"><ele>585.0</ele><time>2026-04-05T10:48:50.983Z</time></trkpt><trkpt lat="42.7939878" lon="13.0893312"><ele>585.0</ele><time>2026-04-05T10:48:51.983Z</time></trkpt><trkpt lat="42.7940959" lon="13.0894187"><ele>585.0</ele><time>2026-04-05T10:48:52.982Z</time></trkpt><trkpt lat="42.7942045" lon="13.089511"><ele>585.0</ele><time>2026-04-05T10:48:53.983Z</time></trkpt><trkpt lat="42.7942975" lon="13.0896156"><ele>585.25</ele><time>2026-04-05T10:48:54.982Z</time></trkpt><trkpt lat="42.7943884" lon="13.0897119"><ele>585.5</ele><time>2026-04-05T10:48:55.982Z</time></trkpt><trkpt lat="42.7944669" lon="13.0898215"><ele>585.75</ele><time>2026-04-05T10:48:56.982Z</time></trkpt><trkpt lat="42.7945467" lon="13.0899314"><ele>586.0</ele><time>2026-04-05T10:48:57.982Z</time></trkpt><trkpt lat="42.7946318" lon="13.0900464"><ele>587.0</ele><time>2026-04-05T10:48:58.983Z</time></trkpt><trkpt lat="42.7947282" lon="13.0901737"><ele>588.0</ele><time>2026-04-05T10:48:59.983Z</time></trkpt><trkpt lat="42.7948155" lon="13.0902859"><ele>589.0</ele><time>2026-04-05T10:49:00.983Z</time></trkpt><trkpt lat="42.794905" lon="13.0903874"><ele>590.0</ele><time>2026-04-05T10:49:01.983Z</time></trkpt><trkpt lat="42.7949913" lon="13.0904734"><ele>590.0</ele><time>2026-04-05T10:49:02.982Z</time></trkpt><trkpt lat="42.7950726" lon="13.0905452"><ele>590.0</ele><time>2026-04-05T10:49:03.983Z</time></trkpt><trkpt lat="42.7951585" lon="13.0905812"><ele>590.0</ele><time>2026-04-05T10:49:04.982Z</time></trkpt><trkpt lat="42.79525" lon="13.0905897"><ele>590.0</ele><time>2026-04-05T10:49:05.983Z</time></trkpt><trkpt lat="42.7953268" lon="13.0905657"><ele>590.0</ele><time>2026-04-05T10:49:06.983Z</time></trkpt><trkpt lat="42.7953965" lon="13.0905288"><ele>590.0</ele><time>2026-04-05T10:49:07.983Z</time></trkpt><trkpt lat="42.7954592" lon="13.0904867"><ele>590.0</ele><time>2026-04-05T10:49:08.982Z</time></trkpt><trkpt lat="42.7955456" lon="13.09043"><ele>590.0</ele><time>2026-04-05T10:49:10.983Z</time></trkpt><trkpt lat="42.7955699" lon="13.0903412"><ele>590.0</ele><time>2026-04-05T10:49:12.982Z</time></trkpt><trkpt lat="42.7955495" lon="13.0901544"><ele>590.0</ele><time>2026-04-05T10:49:14.983Z</time></trkpt><trkpt lat="42.7955193" lon="13.0900357"><ele>590.0</ele><time>2026-04-05T10:49:15.982Z</time></trkpt><trkpt lat="42.7954827" lon="13.0899069"><ele>590.0</ele><time>2026-04-05T10:49:16.983Z</time></trkpt><trkpt lat="42.7954398" lon="13.089768"><ele>590.0</ele><time>2026-04-05T10:49:17.983Z</time></trkpt><trkpt lat="42.7953937" lon="13.0896176"><ele>590.0</ele><time>2026-04-05T10:49:18.982Z</time></trkpt><trkpt lat="42.7953519" lon="13.0894605"><ele>590.0</ele><time>2026-04-05T10:49:19.983Z</time></trkpt><trkpt lat="42.7953148" lon="13.0892841"><ele>590.0</ele><time>2026-04-05T10:49:20.983Z</time></trkpt><trkpt lat="42.7952677" lon="13.0891117"><ele>590.0</ele><time>2026-04-05T10:49:21.982Z</time></trkpt><trkpt lat="42.7952149" lon="13.0889432"><ele>590.0</ele><time>2026-04-05T10:49:22.983Z</time></trkpt><trkpt lat="42.795143" lon="13.0887786"><ele>590.0</ele><time>2026-04-05T10:49:23.983Z</time></trkpt><trkpt lat="42.7950911" lon="13.0886025"><ele>589.0</ele><time>2026-04-05T10:49:24.982Z</time></trkpt><trkpt lat="42.7950415" lon="13.0884275"><ele>588.0</ele><time>2026-04-05T10:49:25.983Z</time></trkpt><trkpt lat="42.794995" lon="13.0882537"><ele>587.0</ele><time>2026-04-05T10:49:26.983Z</time></trkpt><trkpt lat="42.7949409" lon="13.0880765"><ele>586.0</ele><time>2026-04-05T10:49:27.982Z</time></trkpt><trkpt lat="42.794888" lon="13.0878974"><ele>585.5</ele><time>2026-04-05T10:49:28.982Z</time></trkpt><trkpt lat="42.7948407" lon="13.0877161"><ele>585.0</ele><time>2026-04-05T10:49:29.983Z</time></trkpt><trkpt lat="42.7947837" lon="13.0875322"><ele>584.5</ele><time>2026-04-05T10:49:30.983Z</time></trkpt><trkpt lat="42.794732" lon="13.087344"><ele>584.0</ele><time>2026-04-05T10:49:31.983Z</time></trkpt><trkpt lat="42.7946908" lon="13.0871449"><ele>582.6666666666666</ele><time>2026-04-05T10:49:32.983Z</time></trkpt><trkpt lat="42.7946556" lon="13.0869369"><ele>581.3333333333334</ele><time>2026-04-05T10:49:33.982Z</time></trkpt><trkpt lat="42.7946135" lon="13.0867171"><ele>580.0</ele><time>2026-04-05T10:49:34.983Z</time></trkpt><trkpt lat="42.7946038" lon="13.0864903"><ele>577.0</ele><time>2026-04-05T10:49:35.983Z</time></trkpt><trkpt lat="42.7946066" lon="13.0862623"><ele>574.0</ele><time>2026-04-05T10:49:36.983Z</time></trkpt><trkpt lat="42.7946253" lon="13.0860311"><ele>571.0</ele><time>2026-04-05T10:49:37.983Z</time></trkpt><trkpt lat="42.7946563" lon="13.0858024"><ele>569.6666666666667</ele><time>2026-04-05T10:49:38.983Z</time></trkpt><trkpt lat="42.794703" lon="13.0855721"><ele>568.3333333333334</ele><time>2026-04-05T10:49:39.983Z</time></trkpt><trkpt lat="42.79476" lon="13.0853435"><ele>567.0</ele><time>2026-04-05T10:49:40.983Z</time></trkpt><trkpt lat="42.794823" lon="13.0851049"><ele>566.6666666666666</ele><time>2026-04-05T10:49:41.982Z</time></trkpt><trkpt lat="42.7948844" lon="13.0848671"><ele>566.3333333333333</ele><time>2026-04-05T10:49:42.983Z</time></trkpt><trkpt lat="42.7949463" lon="13.0846233"><ele>566.0</ele><time>2026-04-05T10:49:43.983Z</time></trkpt><trkpt lat="42.7950097" lon="13.0843746"><ele>566.0</ele><time>2026-04-05T10:49:44.982Z</time></trkpt><trkpt lat="42.7950707" lon="13.0841251"><ele>566.0</ele><time>2026-04-05T10:49:45.983Z</time></trkpt><trkpt lat="42.795135" lon="13.0838762"><ele>566.0</ele><time>2026-04-05T10:49:46.983Z</time></trkpt><trkpt lat="42.7951967" lon="13.0836281"><ele>565.6666666666666</ele><time>2026-04-05T10:49:47.983Z</time></trkpt><trkpt lat="42.7952585" lon="13.0833768"><ele>565.3333333333334</ele><time>2026-04-05T10:49:48.983Z</time></trkpt><trkpt lat="42.795323" lon="13.0831212"><ele>565.0</ele><time>2026-04-05T10:49:49.982Z</time></trkpt><trkpt lat="42.7953824" lon="13.082867"><ele>563.6666666666667</ele><time>2026-04-05T10:49:50.983Z</time></trkpt><trkpt lat="42.7954371" lon="13.0826119"><ele>562.3333333333334</ele><time>2026-04-05T10:49:51.983Z</time></trkpt><trkpt lat="42.7954822" lon="13.0823613"><ele>561.0</ele><time>2026-04-05T10:49:52.983Z</time></trkpt><trkpt lat="42.7955233" lon="13.0821065"><ele>561.0</ele><time>2026-04-05T10:49:53.982Z</time></trkpt><trkpt lat="42.795559" lon="13.0818498"><ele>561.0</ele><time>2026-04-05T10:49:54.983Z</time></trkpt><trkpt lat="42.7955884" lon="13.081592"><ele>561.0</ele><time>2026-04-05T10:49:55.983Z</time></trkpt><trkpt lat="42.7956159" lon="13.0813306"><ele>561.3333333333334</ele><time>2026-04-05T10:49:56.983Z</time></trkpt><trkpt lat="42.7956483" lon="13.0810674"><ele>561.6666666666667</ele><time>2026-04-05T10:49:57.983Z</time></trkpt><trkpt lat="42.7956808" lon="13.0808116"><ele>562.0</ele><time>2026-04-05T10:49:58.982Z</time></trkpt><trkpt lat="42.7957094" lon="13.0805481"><ele>561.6666666666667</ele><time>2026-04-05T10:49:59.983Z</time></trkpt><trkpt lat="42.7957371" lon="13.0802846"><ele>561.3333333333334</ele><time>2026-04-05T10:50:00.983Z</time></trkpt><trkpt lat="42.7957693" lon="13.0800237"><ele>561.0</ele><time>2026-04-05T10:50:01.982Z</time></trkpt><trkpt lat="42.7958018" lon="13.0797583"><ele>561.0</ele><time>2026-04-05T10:50:02.983Z</time></trkpt><trkpt lat="42.7958311" lon="13.079492"><ele>561.0</ele><time>2026-04-05T10:50:03.983Z</time></trkpt><trkpt lat="42.7958637" lon="13.0792234"><ele>561.0</ele><time>2026-04-05T10:50:04.983Z</time></trkpt><trkpt lat="42.7958928" lon="13.0789527"><ele>559.6666666666666</ele><time>2026-04-05T10:50:05.983Z</time></trkpt><trkpt lat="42.7959184" lon="13.0786821"><ele>558.3333333333333</ele><time>2026-04-05T10:50:06.983Z</time></trkpt><trkpt lat="42.795946" lon="13.0784078"><ele>557.0</ele><time>2026-04-05T10:50:07.983Z</time></trkpt><trkpt lat="42.7959743" lon="13.0781357"><ele>561.0</ele><time>2026-04-05T10:50:08.983Z</time></trkpt><trkpt lat="42.7960035" lon="13.0778588"><ele>565.0</ele><time>2026-04-05T10:50:09.983Z</time></trkpt><trkpt lat="42.7960334" lon="13.0775811"><ele>569.0</ele><time>2026-04-05T10:50:10.982Z</time></trkpt><trkpt lat="42.7960604" lon="13.0773042"><ele>569.0</ele><time>2026-04-05T10:50:11.983Z</time></trkpt><trkpt lat="42.7960837" lon="13.0770227"><ele>569.0</ele><time>2026-04-05T10:50:12.983Z</time></trkpt><trkpt lat="42.7960805" lon="13.0767329"><ele>569.0</ele><time>2026-04-05T10:50:13.983Z</time></trkpt><trkpt lat="42.796069" lon="13.0764376"><ele>567.6666666666666</ele><time>2026-04-05T10:50:14.983Z</time></trkpt><trkpt lat="42.7960524" lon="13.0761338"><ele>566.3333333333334</ele><time>2026-04-05T10:50:15.983Z</time></trkpt><trkpt lat="42.7960243" lon="13.0758437"><ele>565.0</ele><time>2026-04-05T10:50:16.983Z</time></trkpt><trkpt lat="42.7959927" lon="13.0755543"><ele>562.3333333333334</ele><time>2026-04-05T10:50:17.983Z</time></trkpt><trkpt lat="42.7959598" lon="13.0752648"><ele>559.6666666666666</ele><time>2026-04-05T10:50:18.982Z</time></trkpt><trkpt lat="42.795924" lon="13.0749746"><ele>557.0</ele><time>2026-04-05T10:50:19.982Z</time></trkpt><trkpt lat="42.7958944" lon="13.0746814"><ele>557.0</ele><time>2026-04-05T10:50:20.982Z</time></trkpt><trkpt lat="42.7958614" lon="13.0743985"><ele>557.0</ele><time>2026-04-05T10:50:21.983Z</time></trkpt><trkpt lat="42.7958203" lon="13.0741084"><ele>557.0</ele><time>2026-04-05T10:50:22.982Z</time></trkpt><trkpt lat="42.7957893" lon="13.0738255"><ele>557.3333333333333</ele><time>2026-04-05T10:50:23.982Z</time></trkpt><trkpt lat="42.7957551" lon="13.0735446"><ele>557.6666666666666</ele><time>2026-04-05T10:50:24.983Z</time></trkpt><trkpt lat="42.7957244" lon="13.073265"><ele>558.0</ele><time>2026-04-05T10:50:25.983Z</time></trkpt><trkpt lat="42.7956912" lon="13.072994"><ele>559.0</ele><time>2026-04-05T10:50:26.983Z</time></trkpt><trkpt lat="42.7956622" lon="13.0727245"><ele>560.0</ele><time>2026-04-05T10:50:27.983Z</time></trkpt><trkpt lat="42.7956326" lon="13.0724621"><ele>561.0</ele><time>2026-04-05T10:50:28.983Z</time></trkpt><trkpt lat="42.7956037" lon="13.0722034"><ele>561.0</ele><time>2026-04-05T10:50:29.983Z</time></trkpt><trkpt lat="42.7955754" lon="13.0719453"><ele>561.0</ele><time>2026-04-05T10:50:30.983Z</time></trkpt><trkpt lat="42.7955476" lon="13.071694"><ele>561.0</ele><time>2026-04-05T10:50:31.983Z</time></trkpt><trkpt lat="42.7955234" lon="13.0714368"><ele>560.3333333333334</ele><time>2026-04-05T10:50:32.983Z</time></trkpt><trkpt lat="42.7954982" lon="13.0711795"><ele>559.6666666666667</ele><time>2026-04-05T10:50:33.983Z</time></trkpt><trkpt lat="42.7954652" lon="13.0709266"><ele>559.0</ele><time>2026-04-05T10:50:34.982Z</time></trkpt><trkpt lat="42.7954324" lon="13.0706818"><ele>558.6666666666667</ele><time>2026-04-05T10:50:35.983Z</time></trkpt><trkpt lat="42.7953995" lon="13.0704263"><ele>558.3333333333334</ele><time>2026-04-05T10:50:36.982Z</time></trkpt><trkpt lat="42.7953763" lon="13.0701606"><ele>558.0</ele><time>2026-04-05T10:50:37.982Z</time></trkpt><trkpt lat="42.7953361" lon="13.0699148"><ele>558.6666666666666</ele><time>2026-04-05T10:50:38.983Z</time></trkpt><trkpt lat="42.7952936" lon="13.0696624"><ele>559.3333333333333</ele><time>2026-04-05T10:50:39.983Z</time></trkpt><trkpt lat="42.7952398" lon="13.0694253"><ele>560.0</ele><time>2026-04-05T10:50:40.983Z</time></trkpt><trkpt lat="42.7951742" lon="13.0691844"><ele>559.6666666666666</ele><time>2026-04-05T10:50:41.983Z</time></trkpt><trkpt lat="42.7950871" lon="13.0689464"><ele>559.3333333333334</ele><time>2026-04-05T10:50:42.983Z</time></trkpt><trkpt lat="42.7949927" lon="13.0687169"><ele>559.0</ele><time>2026-04-05T10:50:43.983Z</time></trkpt><trkpt lat="42.7948928" lon="13.0684881"><ele>559.6666666666667</ele><time>2026-04-05T10:50:44.983Z</time></trkpt><trkpt lat="42.794782" lon="13.0682563"><ele>560.3333333333334</ele><time>2026-04-05T10:50:45.982Z</time></trkpt><trkpt lat="42.7946757" lon="13.0680367"><ele>561.0</ele><time>2026-04-05T10:50:46.983Z</time></trkpt><trkpt lat="42.794561" lon="13.0678241"><ele>561.0</ele><time>2026-04-05T10:50:47.983Z</time></trkpt><trkpt lat="42.7944508" lon="13.0676113"><ele>561.0</ele><time>2026-04-05T10:50:48.982Z</time></trkpt><trkpt lat="42.7943407" lon="13.0673931"><ele>561.0</ele><time>2026-04-05T10:50:49.983Z</time></trkpt><trkpt lat="42.7942264" lon="13.0671753"><ele>561.6666666666666</ele><time>2026-04-05T10:50:50.982Z</time></trkpt><trkpt lat="42.7941156" lon="13.0669564"><ele>562.3333333333333</ele><time>2026-04-05T10:50:51.982Z</time></trkpt><trkpt lat="42.7940004" lon="13.0667416"><ele>563.0</ele><time>2026-04-05T10:50:52.983Z</time></trkpt><trkpt lat="42.7938883" lon="13.0665237"><ele>567.3333333333333</ele><time>2026-04-05T10:50:53.983Z</time></trkpt><trkpt lat="42.7937838" lon="13.0663058"><ele>571.6666666666666</ele><time>2026-04-05T10:50:54.983Z</time></trkpt><trkpt lat="42.79367" lon="13.0660938"><ele>576.0</ele><time>2026-04-05T10:50:55.983Z</time></trkpt><trkpt lat="42.7935579" lon="13.06588"><ele>573.3333333333334</ele><time>2026-04-05T10:50:56.983Z</time></trkpt><trkpt lat="42.7934442" lon="13.0656669"><ele>570.6666666666667</ele><time>2026-04-05T10:50:57.983Z</time></trkpt><trkpt lat="42.7933279" lon="13.0654589"><ele>568.0</ele><time>2026-04-05T10:50:58.983Z</time></trkpt><trkpt lat="42.7932141" lon="13.0652486"><ele>568.0</ele><time>2026-04-05T10:50:59.982Z</time></trkpt><trkpt lat="42.7930991" lon="13.0650384"><ele>568.0</ele><time>2026-04-05T10:51:00.983Z</time></trkpt><trkpt lat="42.7929826" lon="13.0648274"><ele>568.0</ele><time>2026-04-05T10:51:01.983Z</time></trkpt><trkpt lat="42.7928691" lon="13.0646222"><ele>570.0</ele><time>2026-04-05T10:51:02.982Z</time></trkpt><trkpt lat="42.7927527" lon="13.0644066"><ele>572.0</ele><time>2026-04-05T10:51:03.983Z</time></trkpt><trkpt lat="42.7926385" lon="13.0642001"><ele>574.0</ele><time>2026-04-05T10:51:04.983Z</time></trkpt><trkpt lat="42.7925227" lon="13.0639899"><ele>570.0</ele><time>2026-04-05T10:51:05.983Z</time></trkpt><trkpt lat="42.7924061" lon="13.0637767"><ele>566.0</ele><time>2026-04-05T10:51:06.983Z</time></trkpt><trkpt lat="42.7922898" lon="13.0635757"><ele>562.0</ele><time>2026-04-05T10:51:07.983Z</time></trkpt><trkpt lat="42.7921785" lon="13.0633843"><ele>564.0</ele><time>2026-04-05T10:51:08.983Z</time></trkpt><trkpt lat="42.7920831" lon="13.0631825"><ele>566.0</ele><time>2026-04-05T10:51:09.983Z</time></trkpt><trkpt lat="42.7920029" lon="13.0629766"><ele>568.0</ele><time>2026-04-05T10:51:10.983Z</time></trkpt><trkpt lat="42.791917" lon="13.0627723"><ele>568.0</ele><time>2026-04-05T10:51:11.982Z</time></trkpt><trkpt lat="42.7918485" lon="13.0625559"><ele>568.0</ele><time>2026-04-05T10:51:12.983Z</time></trkpt><trkpt lat="42.7917774" lon="13.0623334"><ele>568.0</ele><time>2026-04-05T10:51:13.983Z</time></trkpt><trkpt lat="42.7916995" lon="13.062115"><ele>564.0</ele><time>2026-04-05T10:51:14.983Z</time></trkpt><trkpt lat="42.7916101" lon="13.061902"><ele>560.0</ele><time>2026-04-05T10:51:15.982Z</time></trkpt><trkpt lat="42.7915264" lon="13.0616861"><ele>556.0</ele><time>2026-04-05T10:51:16.983Z</time></trkpt><trkpt lat="42.7914381" lon="13.0614593"><ele>556.0</ele><time>2026-04-05T10:51:17.983Z</time></trkpt><trkpt lat="42.7913422" lon="13.0612344"><ele>556.0</ele><time>2026-04-05T10:51:18.982Z</time></trkpt><trkpt lat="42.7912574" lon="13.0610062"><ele>556.0</ele><time>2026-04-05T10:51:19.983Z</time></trkpt><trkpt lat="42.7911752" lon="13.0607808"><ele>553.6666666666667</ele><time>2026-04-05T10:51:20.982Z</time></trkpt><trkpt lat="42.7910911" lon="13.0605531"><ele>551.3333333333334</ele><time>2026-04-05T10:51:21.983Z</time></trkpt><trkpt lat="42.7910001" lon="13.0603245"><ele>549.0</ele><time>2026-04-05T10:51:22.982Z</time></trkpt><trkpt lat="42.7909155" lon="13.0600971"><ele>552.3333333333334</ele><time>2026-04-05T10:51:23.983Z</time></trkpt><trkpt lat="42.7908365" lon="13.0598792"><ele>555.6666666666667</ele><time>2026-04-05T10:51:24.983Z</time></trkpt><trkpt lat="42.7907576" lon="13.0596655"><ele>559.0</ele><time>2026-04-05T10:51:25.983Z</time></trkpt><trkpt lat="42.7906775" lon="13.0594525"><ele>559.0</ele><time>2026-04-05T10:51:26.983Z</time></trkpt><trkpt lat="42.7905922" lon="13.0592443"><ele>559.0</ele><time>2026-04-05T10:51:27.983Z</time></trkpt><trkpt lat="42.7905141" lon="13.0590389"><ele>559.0</ele><time>2026-04-05T10:51:28.983Z</time></trkpt><trkpt lat="42.7904379" lon="13.0588302"><ele>563.0</ele><time>2026-04-05T10:51:29.982Z</time></trkpt><trkpt lat="42.7903652" lon="13.0586339"><ele>567.0</ele><time>2026-04-05T10:51:30.983Z</time></trkpt><trkpt lat="42.7902962" lon="13.0584413"><ele>571.0</ele><time>2026-04-05T10:51:31.982Z</time></trkpt><trkpt lat="42.7902264" lon="13.0582606"><ele>564.75</ele><time>2026-04-05T10:51:32.983Z</time></trkpt><trkpt lat="42.7901538" lon="13.0580823"><ele>558.5</ele><time>2026-04-05T10:51:33.983Z</time></trkpt><trkpt lat="42.7900916" lon="13.0578985"><ele>552.25</ele><time>2026-04-05T10:51:34.982Z</time></trkpt><trkpt lat="42.7900302" lon="13.0577222"><ele>546.0</ele><time>2026-04-05T10:51:35.983Z</time></trkpt><trkpt lat="42.7899838" lon="13.0575342"><ele>545.3333333333334</ele><time>2026-04-05T10:51:36.983Z</time></trkpt><trkpt lat="42.7899465" lon="13.0573374"><ele>544.6666666666667</ele><time>2026-04-05T10:51:37.983Z</time></trkpt><trkpt lat="42.7899147" lon="13.0571358"><ele>544.0</ele><time>2026-04-05T10:51:38.983Z</time></trkpt><trkpt lat="42.7898946" lon="13.0569198"><ele>544.0</ele><time>2026-04-05T10:51:39.983Z</time></trkpt><trkpt lat="42.7898839" lon="13.0566808"><ele>544.0</ele><time>2026-04-05T10:51:40.983Z</time></trkpt><trkpt lat="42.7898796" lon="13.0564243"><ele>544.0</ele><time>2026-04-05T10:51:41.983Z</time></trkpt><trkpt lat="42.7898841" lon="13.0561396"><ele>542.3333333333334</ele><time>2026-04-05T10:51:42.982Z</time></trkpt><trkpt lat="42.7898961" lon="13.055845"><ele>540.6666666666666</ele><time>2026-04-05T10:51:43.983Z</time></trkpt><trkpt lat="42.7899065" lon="13.055552"><ele>539.0</ele><time>2026-04-05T10:51:44.983Z</time></trkpt><trkpt lat="42.7899196" lon="13.0552525"><ele>537.0</ele><time>2026-04-05T10:51:45.982Z</time></trkpt><trkpt lat="42.7899282" lon="13.0549476"><ele>535.0</ele><time>2026-04-05T10:51:46.983Z</time></trkpt><trkpt lat="42.7899387" lon="13.0546385"><ele>535.0</ele><time>2026-04-05T10:51:47.983Z</time></trkpt><trkpt lat="42.7899436" lon="13.0543276"><ele>535.0</ele><time>2026-04-05T10:51:48.983Z</time></trkpt><trkpt lat="42.7899498" lon="13.0540212"><ele>535.6666666666667</ele><time>2026-04-05T10:51:49.983Z</time></trkpt><trkpt lat="42.7899535" lon="13.0537174"><ele>536.3333333333334</ele><time>2026-04-05T10:51:50.983Z</time></trkpt><trkpt lat="42.7899593" lon="13.0534157"><ele>537.0</ele><time>2026-04-05T10:51:51.983Z</time></trkpt><trkpt lat="42.7899649" lon="13.0531198"><ele>538.0</ele><time>2026-04-05T10:51:52.982Z</time></trkpt><trkpt lat="42.7899663" lon="13.0528289"><ele>539.0</ele><time>2026-04-05T10:51:53.982Z</time></trkpt><trkpt lat="42.7899759" lon="13.0525422"><ele>540.0</ele><time>2026-04-05T10:51:54.983Z</time></trkpt><trkpt lat="42.7899818" lon="13.0522549"><ele>539.6666666666666</ele><time>2026-04-05T10:51:55.982Z</time></trkpt><trkpt lat="42.7899902" lon="13.0519702"><ele>539.3333333333333</ele><time>2026-04-05T10:51:56.983Z</time></trkpt><trkpt lat="42.7900049" lon="13.0516891"><ele>539.0</ele><time>2026-04-05T10:51:57.983Z</time></trkpt><trkpt lat="42.7900136" lon="13.0514101"><ele>539.0</ele><time>2026-04-05T10:51:58.982Z</time></trkpt><trkpt lat="42.790024" lon="13.0511331"><ele>539.0</ele><time>2026-04-05T10:51:59.983Z</time></trkpt><trkpt lat="42.7900319" lon="13.0508606"><ele>539.0</ele><time>2026-04-05T10:52:00.983Z</time></trkpt><trkpt lat="42.7900397" lon="13.0505923"><ele>540.0</ele><time>2026-04-05T10:52:01.983Z</time></trkpt><trkpt lat="42.7900482" lon="13.0503255"><ele>541.0</ele><time>2026-04-05T10:52:02.983Z</time></trkpt><trkpt lat="42.7900574" lon="13.0500659"><ele>542.0</ele><time>2026-04-05T10:52:03.983Z</time></trkpt><trkpt lat="42.7900622" lon="13.0498021"><ele>542.0</ele><time>2026-04-05T10:52:04.983Z</time></trkpt><trkpt lat="42.7900572" lon="13.0495439"><ele>542.0</ele><time>2026-04-05T10:52:05.983Z</time></trkpt><trkpt lat="42.790046" lon="13.0492816"><ele>542.0</ele><time>2026-04-05T10:52:06.983Z</time></trkpt><trkpt lat="42.7900171" lon="13.0490211"><ele>542.3333333333333</ele><time>2026-04-05T10:52:07.983Z</time></trkpt><trkpt lat="42.7899673" lon="13.0487646"><ele>542.6666666666666</ele><time>2026-04-05T10:52:08.983Z</time></trkpt><trkpt lat="42.7899138" lon="13.0485213"><ele>543.0</ele><time>2026-04-05T10:52:09.982Z</time></trkpt><trkpt lat="42.7898381" lon="13.0482756"><ele>550.6666666666666</ele><time>2026-04-05T10:52:10.982Z</time></trkpt><trkpt lat="42.7897555" lon="13.0480282"><ele>558.3333333333333</ele><time>2026-04-05T10:52:11.983Z</time></trkpt><trkpt lat="42.7896565" lon="13.0477838"><ele>566.0</ele><time>2026-04-05T10:52:12.983Z</time></trkpt><trkpt lat="42.7895637" lon="13.0475461"><ele>574.3333333333333</ele><time>2026-04-05T10:52:13.983Z</time></trkpt><trkpt lat="42.7894774" lon="13.0473065"><ele>582.6666666666666</ele><time>2026-04-05T10:52:14.982Z</time></trkpt><trkpt lat="42.7893873" lon="13.0470655"><ele>591.0</ele><time>2026-04-05T10:52:15.983Z</time></trkpt><trkpt lat="42.7892987" lon="13.0468177"><ele>575.3333333333334</ele><time>2026-04-05T10:52:16.983Z</time></trkpt><trkpt lat="42.789227" lon="13.0465789"><ele>559.6666666666667</ele><time>2026-04-05T10:52:17.983Z</time></trkpt><trkpt lat="42.7891657" lon="13.0463244"><ele>544.0</ele><time>2026-04-05T10:52:18.982Z</time></trkpt><trkpt lat="42.7891086" lon="13.0460726"><ele>544.0</ele><time>2026-04-05T10:52:19.983Z</time></trkpt><trkpt lat="42.7890752" lon="13.0458083"><ele>544.0</ele><time>2026-04-05T10:52:20.983Z</time></trkpt><trkpt lat="42.7890538" lon="13.0455485"><ele>544.0</ele><time>2026-04-05T10:52:21.983Z</time></trkpt><trkpt lat="42.7890463" lon="13.0452954"><ele>544.0</ele><time>2026-04-05T10:52:22.983Z</time></trkpt><trkpt lat="42.7890458" lon="13.0450336"><ele>544.0</ele><time>2026-04-05T10:52:23.983Z</time></trkpt><trkpt lat="42.7890513" lon="13.0447665"><ele>544.0</ele><time>2026-04-05T10:52:24.983Z</time></trkpt><trkpt lat="42.7890825" lon="13.044508"><ele>544.0</ele><time>2026-04-05T10:52:25.983Z</time></trkpt><trkpt lat="42.7891253" lon="13.0442515"><ele>544.0</ele><time>2026-04-05T10:52:26.982Z</time></trkpt><trkpt lat="42.7891806" lon="13.0439898"><ele>544.0</ele><time>2026-04-05T10:52:27.983Z</time></trkpt><trkpt lat="42.7892412" lon="13.0437489"><ele>540.3333333333334</ele><time>2026-04-05T10:52:28.982Z</time></trkpt><trkpt lat="42.7893096" lon="13.0435036"><ele>536.6666666666666</ele><time>2026-04-05T10:52:29.983Z</time></trkpt><trkpt lat="42.7893815" lon="13.0432515"><ele>533.0</ele><time>2026-04-05T10:52:30.982Z</time></trkpt><trkpt lat="42.7894406" lon="13.0430119"><ele>542.0</ele><time>2026-04-05T10:52:31.983Z</time></trkpt><trkpt lat="42.789506" lon="13.0427584"><ele>551.0</ele><time>2026-04-05T10:52:32.983Z</time></trkpt><trkpt lat="42.7895613" lon="13.0424929"><ele>560.0</ele><time>2026-04-05T10:52:33.983Z</time></trkpt><trkpt lat="42.7895942" lon="13.0422314"><ele>560.0</ele><time>2026-04-05T10:52:34.983Z</time></trkpt><trkpt lat="42.7896131" lon="13.041964"><ele>560.0</ele><time>2026-04-05T10:52:35.982Z</time></trkpt><trkpt lat="42.7896218" lon="13.041682"><ele>560.0</ele><time>2026-04-05T10:52:36.983Z</time></trkpt><trkpt lat="42.7896073" lon="13.0414046"><ele>562.6666666666666</ele><time>2026-04-05T10:52:37.983Z</time></trkpt><trkpt lat="42.7895748" lon="13.0411262"><ele>565.3333333333334</ele><time>2026-04-05T10:52:38.983Z</time></trkpt><trkpt lat="42.789523" lon="13.0408502"><ele>568.0</ele><time>2026-04-05T10:52:39.982Z</time></trkpt><trkpt lat="42.7894648" lon="13.0405789"><ele>570.0</ele><time>2026-04-05T10:52:40.983Z</time></trkpt><trkpt lat="42.7893941" lon="13.0403096"><ele>572.0</ele><time>2026-04-05T10:52:41.983Z</time></trkpt><trkpt lat="42.7893109" lon="13.0400436"><ele>574.0</ele><time>2026-04-05T10:52:42.983Z</time></trkpt><trkpt lat="42.7892279" lon="13.0397779"><ele>561.3333333333334</ele><time>2026-04-05T10:52:43.983Z</time></trkpt><trkpt lat="42.7891427" lon="13.0395166"><ele>548.6666666666666</ele><time>2026-04-05T10:52:44.982Z</time></trkpt><trkpt lat="42.7890625" lon="13.0392494"><ele>536.0</ele><time>2026-04-05T10:52:45.982Z</time></trkpt><trkpt lat="42.7889831" lon="13.038988"><ele>535.6666666666666</ele><time>2026-04-05T10:52:46.983Z</time></trkpt><trkpt lat="42.7889017" lon="13.0387262"><ele>535.3333333333334</ele><time>2026-04-05T10:52:47.983Z</time></trkpt><trkpt lat="42.7888292" lon="13.0384739"><ele>535.0</ele><time>2026-04-05T10:52:48.983Z</time></trkpt><trkpt lat="42.7887496" lon="13.0382141"><ele>535.0</ele><time>2026-04-05T10:52:49.983Z</time></trkpt><trkpt lat="42.7886648" lon="13.0379596"><ele>535.0</ele><time>2026-04-05T10:52:50.982Z</time></trkpt><trkpt lat="42.788584" lon="13.037698"><ele>535.0</ele><time>2026-04-05T10:52:51.983Z</time></trkpt><trkpt lat="42.7885055" lon="13.0374341"><ele>532.0</ele><time>2026-04-05T10:52:52.982Z</time></trkpt><trkpt lat="42.788428" lon="13.0371791"><ele>529.0</ele><time>2026-04-05T10:52:53.982Z</time></trkpt><trkpt lat="42.788352" lon="13.0369273"><ele>526.0</ele><time>2026-04-05T10:52:54.983Z</time></trkpt><trkpt lat="42.7882767" lon="13.0366818"><ele>531.3333333333334</ele><time>2026-04-05T10:52:55.983Z</time></trkpt><trkpt lat="42.7882001" lon="13.0364232"><ele>536.6666666666666</ele><time>2026-04-05T10:52:56.983Z</time></trkpt><trkpt lat="42.7881209" lon="13.0361722"><ele>542.0</ele><time>2026-04-05T10:52:57.982Z</time></trkpt><trkpt lat="42.7880391" lon="13.0359276"><ele>547.6666666666666</ele><time>2026-04-05T10:52:58.983Z</time></trkpt><trkpt lat="42.7879583" lon="13.0356822"><ele>553.3333333333334</ele><time>2026-04-05T10:52:59.982Z</time></trkpt><trkpt lat="42.7878777" lon="13.0354343"><ele>559.0</ele><time>2026-04-05T10:53:00.983Z</time></trkpt><trkpt lat="42.7878063" lon="13.0351899"><ele>563.0</ele><time>2026-04-05T10:53:01.982Z</time></trkpt><trkpt lat="42.7877417" lon="13.0349453"><ele>567.0</ele><time>2026-04-05T10:53:02.983Z</time></trkpt><trkpt lat="42.7876882" lon="13.0346981"><ele>571.0</ele><time>2026-04-05T10:53:03.983Z</time></trkpt><trkpt lat="42.7876465" lon="13.0344466"><ele>556.3333333333334</ele><time>2026-04-05T10:53:04.983Z</time></trkpt><trkpt lat="42.7876397" lon="13.0341777"><ele>541.6666666666666</ele><time>2026-04-05T10:53:05.983Z</time></trkpt><trkpt lat="42.787647" lon="13.0339242"><ele>527.0</ele><time>2026-04-05T10:53:06.983Z</time></trkpt><trkpt lat="42.7876539" lon="13.033668"><ele>527.0</ele><time>2026-04-05T10:53:07.983Z</time></trkpt><trkpt lat="42.7876547" lon="13.0333991"><ele>527.0</ele><time>2026-04-05T10:53:08.983Z</time></trkpt><trkpt lat="42.787644" lon="13.0331409"><ele>527.0</ele><time>2026-04-05T10:53:09.983Z</time></trkpt><trkpt lat="42.7876193" lon="13.0328779"><ele>528.0</ele><time>2026-04-05T10:53:10.982Z</time></trkpt><trkpt lat="42.7875912" lon="13.0326184"><ele>529.0</ele><time>2026-04-05T10:53:11.982Z</time></trkpt><trkpt lat="42.7875546" lon="13.0323548"><ele>530.0</ele><time>2026-04-05T10:53:12.983Z</time></trkpt><trkpt lat="42.7875075" lon="13.0320917"><ele>530.6666666666666</ele><time>2026-04-05T10:53:13.983Z</time></trkpt><trkpt lat="42.7874697" lon="13.0318307"><ele>531.3333333333334</ele><time>2026-04-05T10:53:14.983Z</time></trkpt><trkpt lat="42.7874292" lon="13.0315679"><ele>532.0</ele><time>2026-04-05T10:53:15.983Z</time></trkpt><trkpt lat="42.7873927" lon="13.0313026"><ele>533.0</ele><time>2026-04-05T10:53:16.983Z</time></trkpt><trkpt lat="42.7873527" lon="13.0310417"><ele>534.0</ele><time>2026-04-05T10:53:17.983Z</time></trkpt><trkpt lat="42.7873013" lon="13.0307848"><ele>535.0</ele><time>2026-04-05T10:53:18.982Z</time></trkpt><trkpt lat="42.7872545" lon="13.0305266"><ele>539.3333333333334</ele><time>2026-04-05T10:53:19.983Z</time></trkpt><trkpt lat="42.7872115" lon="13.0302691"><ele>543.6666666666666</ele><time>2026-04-05T10:53:20.983Z</time></trkpt><trkpt lat="42.7871653" lon="13.0300142"><ele>548.0</ele><time>2026-04-05T10:53:21.983Z</time></trkpt><trkpt lat="42.7871177" lon="13.0297604"><ele>549.6666666666666</ele><time>2026-04-05T10:53:22.983Z</time></trkpt><trkpt lat="42.7870677" lon="13.0295095"><ele>551.3333333333334</ele><time>2026-04-05T10:53:23.983Z</time></trkpt><trkpt lat="42.7870143" lon="13.0292572"><ele>553.0</ele><time>2026-04-05T10:53:24.983Z</time></trkpt><trkpt lat="42.7869564" lon="13.0290049"><ele>551.3333333333334</ele><time>2026-04-05T10:53:25.983Z</time></trkpt><trkpt lat="42.7868946" lon="13.0287546"><ele>549.6666666666666</ele><time>2026-04-05T10:53:26.983Z</time></trkpt><trkpt lat="42.7868282" lon="13.0285013"><ele>548.0</ele><time>2026-04-05T10:53:27.983Z</time></trkpt><trkpt lat="42.7867661" lon="13.0282547"><ele>548.0</ele><time>2026-04-05T10:53:28.983Z</time></trkpt><trkpt lat="42.7866968" lon="13.0280053"><ele>548.0</ele><time>2026-04-05T10:53:29.982Z</time></trkpt><trkpt lat="42.7866309" lon="13.0277557"><ele>548.0</ele><time>2026-04-05T10:53:30.983Z</time></trkpt><trkpt lat="42.786564" lon="13.0275066"><ele>514.0</ele><time>2026-04-05T10:53:31.983Z</time></trkpt><trkpt lat="42.7859999" lon="13.0255049"><ele>514.0</ele><time>2026-04-05T10:53:39.983Z</time></trkpt><trkpt lat="42.7859437" lon="13.0252855"><ele>514.0</ele><time>2026-04-05T10:53:40.983Z</time></trkpt><trkpt lat="42.7858856" lon="13.025056"><ele>514.0</ele><time>2026-04-05T10:53:41.983Z</time></trkpt><trkpt lat="42.7858343" lon="13.0248421"><ele>516.3333333333334</ele><time>2026-04-05T10:53:42.983Z</time></trkpt><trkpt lat="42.7858046" lon="13.0246294"><ele>518.6666666666666</ele><time>2026-04-05T10:53:43.982Z</time></trkpt><trkpt lat="42.7857848" lon="13.0244152"><ele>521.0</ele><time>2026-04-05T10:53:44.982Z</time></trkpt><trkpt lat="42.7857768" lon="13.0242132"><ele>521.25</ele><time>2026-04-05T10:53:45.983Z</time></trkpt><trkpt lat="42.7857781" lon="13.0240209"><ele>521.5</ele><time>2026-04-05T10:53:46.982Z</time></trkpt><trkpt lat="42.7857766" lon="13.0238287"><ele>521.75</ele><time>2026-04-05T10:53:47.983Z</time></trkpt><trkpt lat="42.7857735" lon="13.0236487"><ele>522.0</ele><time>2026-04-05T10:53:48.982Z</time></trkpt><trkpt lat="42.7857876" lon="13.0234787"><ele>522.0</ele><time>2026-04-05T10:53:49.983Z</time></trkpt><trkpt lat="42.7857911" lon="13.0233286"><ele>522.0</ele><time>2026-04-05T10:53:50.983Z</time></trkpt><trkpt lat="42.7857956" lon="13.0231855"><ele>522.0</ele><time>2026-04-05T10:53:51.982Z</time></trkpt><trkpt lat="42.7857986" lon="13.0230581"><ele>522.0</ele><time>2026-04-05T10:53:52.983Z</time></trkpt><trkpt lat="42.7858109" lon="13.0229449"><ele>522.0</ele><time>2026-04-05T10:53:53.982Z</time></trkpt><trkpt lat="42.7858115" lon="13.0228485"><ele>521.4</ele><time>2026-04-05T10:53:54.983Z</time></trkpt><trkpt lat="42.7858162" lon="13.0227505"><ele>520.8000000000001</ele><time>2026-04-05T10:53:55.983Z</time></trkpt><trkpt lat="42.7857955" lon="13.0226386"><ele>520.2</ele><time>2026-04-05T10:53:56.982Z</time></trkpt><trkpt lat="42.7857861" lon="13.0225037"><ele>519.6</ele><time>2026-04-05T10:53:57.983Z</time></trkpt><trkpt lat="42.7857815" lon="13.0223667"><ele>519.0</ele><time>2026-04-05T10:53:58.983Z</time></trkpt><trkpt lat="42.785758" lon="13.0222302"><ele>519.0</ele><time>2026-04-05T10:53:59.983Z</time></trkpt><trkpt lat="42.7857387" lon="13.0220876"><ele>519.0</ele><time>2026-04-05T10:54:00.982Z</time></trkpt><trkpt lat="42.7857312" lon="13.0219328"><ele>519.0</ele><time>2026-04-05T10:54:01.983Z</time></trkpt><trkpt lat="42.7857244" lon="13.021777"><ele>519.0</ele><time>2026-04-05T10:54:02.983Z</time></trkpt><trkpt lat="42.7857208" lon="13.0216262"><ele>519.0</ele><time>2026-04-05T10:54:03.983Z</time></trkpt><trkpt lat="42.7857038" lon="13.0214742"><ele>517.0</ele><time>2026-04-05T10:54:04.983Z</time></trkpt><trkpt lat="42.7856977" lon="13.0213448"><ele>515.0</ele><time>2026-04-05T10:54:05.983Z</time></trkpt><trkpt lat="42.7857221" lon="13.0211985"><ele>513.0</ele><time>2026-04-05T10:54:06.983Z</time></trkpt><trkpt lat="42.7857816" lon="13.0210655"><ele>511.0</ele><time>2026-04-05T10:54:07.982Z</time></trkpt><trkpt lat="42.7858577" lon="13.0209296"><ele>509.0</ele><time>2026-04-05T10:54:08.983Z</time></trkpt><trkpt lat="42.785949" lon="13.0208062"><ele>507.5</ele><time>2026-04-05T10:54:09.983Z</time></trkpt><trkpt lat="42.7860277" lon="13.0206893"><ele>506.0</ele><time>2026-04-05T10:54:10.983Z</time></trkpt><trkpt lat="42.7861187" lon="13.020595"><ele>504.5</ele><time>2026-04-05T10:54:11.983Z</time></trkpt><trkpt lat="42.7862195" lon="13.0205289"><ele>503.0</ele><time>2026-04-05T10:54:12.983Z</time></trkpt><trkpt lat="42.7863397" lon="13.0204958"><ele>503.0</ele><time>2026-04-05T10:54:13.982Z</time></trkpt><trkpt lat="42.7864597" lon="13.0205007"><ele>503.0</ele><time>2026-04-05T10:54:14.983Z</time></trkpt><trkpt lat="42.7865848" lon="13.0205221"><ele>503.0</ele><time>2026-04-05T10:54:15.983Z</time></trkpt><trkpt lat="42.7867293" lon="13.0205554"><ele>503.0</ele><time>2026-04-05T10:54:16.983Z</time></trkpt><trkpt lat="42.7868758" lon="13.0205746"><ele>502.3333333333333</ele><time>2026-04-05T10:54:17.983Z</time></trkpt><trkpt lat="42.7870337" lon="13.0205771"><ele>501.66666666666663</ele><time>2026-04-05T10:54:18.983Z</time></trkpt><trkpt lat="42.7871904" lon="13.0205742"><ele>501.0</ele><time>2026-04-05T10:54:19.983Z</time></trkpt><trkpt lat="42.7873567" lon="13.0205571"><ele>501.0</ele><time>2026-04-05T10:54:20.982Z</time></trkpt><trkpt lat="42.7875198" lon="13.0205356"><ele>501.0</ele><time>2026-04-05T10:54:21.982Z</time></trkpt><trkpt lat="42.787673" lon="13.0204952"><ele>501.0</ele><time>2026-04-05T10:54:22.983Z</time></trkpt><trkpt lat="42.7878365" lon="13.0204529"><ele>500.66666666666663</ele><time>2026-04-05T10:54:23.983Z</time></trkpt><trkpt lat="42.7880004" lon="13.0203998"><ele>500.3333333333333</ele><time>2026-04-05T10:54:24.982Z</time></trkpt><trkpt lat="42.7881637" lon="13.0203642"><ele>500.0</ele><time>2026-04-05T10:54:25.983Z</time></trkpt><trkpt lat="42.788312" lon="13.0203476"><ele>500.0</ele><time>2026-04-05T10:54:26.982Z</time></trkpt><trkpt lat="42.7884553" lon="13.0203174"><ele>500.0</ele><time>2026-04-05T10:54:27.983Z</time></trkpt><trkpt lat="42.7885906" lon="13.0202685"><ele>500.0</ele><time>2026-04-05T10:54:28.983Z</time></trkpt><trkpt lat="42.7887248" lon="13.0201985"><ele>500.0</ele><time>2026-04-05T10:54:29.983Z</time></trkpt><trkpt lat="42.7888421" lon="13.0200901"><ele>503.75</ele><time>2026-04-05T10:54:30.983Z</time></trkpt><trkpt lat="42.7889532" lon="13.0199696"><ele>507.5</ele><time>2026-04-05T10:54:31.982Z</time></trkpt><trkpt lat="42.7890537" lon="13.0198182"><ele>511.25</ele><time>2026-04-05T10:54:32.983Z</time></trkpt><trkpt lat="42.7891361" lon="13.0196484"><ele>515.0</ele><time>2026-04-05T10:54:33.983Z</time></trkpt><trkpt lat="42.7892096" lon="13.0194633"><ele>515.0</ele><time>2026-04-05T10:54:34.982Z</time></trkpt><trkpt lat="42.7892368" lon="13.0192414"><ele>515.0</ele><time>2026-04-05T10:54:35.983Z</time></trkpt><trkpt lat="42.7892381" lon="13.0190145"><ele>515.0</ele><time>2026-04-05T10:54:36.983Z</time></trkpt><trkpt lat="42.7892122" lon="13.0187888"><ele>514.6666666666666</ele><time>2026-04-05T10:54:37.983Z</time></trkpt><trkpt lat="42.7891818" lon="13.0185548"><ele>514.3333333333334</ele><time>2026-04-05T10:54:38.982Z</time></trkpt><trkpt lat="42.7891413" lon="13.018329"><ele>514.0</ele><time>2026-04-05T10:54:39.982Z</time></trkpt><trkpt lat="42.7891102" lon="13.0180982"><ele>512.0</ele><time>2026-04-05T10:54:40.982Z</time></trkpt><trkpt lat="42.7890678" lon="13.0178806"><ele>510.0</ele><time>2026-04-05T10:54:41.983Z</time></trkpt><trkpt lat="42.7890177" lon="13.0176787"><ele>508.0</ele><time>2026-04-05T10:54:42.983Z</time></trkpt><trkpt lat="42.788967" lon="13.0174735"><ele>506.0</ele><time>2026-04-05T10:54:43.983Z</time></trkpt><trkpt lat="42.7889318" lon="13.017277"><ele>504.0</ele><time>2026-04-05T10:54:44.983Z</time></trkpt><trkpt lat="42.7889115" lon="13.0170706"><ele>502.0</ele><time>2026-04-05T10:54:45.983Z</time></trkpt><trkpt lat="42.7889053" lon="13.0168572"><ele>501.0</ele><time>2026-04-05T10:54:46.983Z</time></trkpt><trkpt lat="42.7889128" lon="13.0166469"><ele>500.0</ele><time>2026-04-05T10:54:47.983Z</time></trkpt><trkpt lat="42.7889424" lon="13.016431"><ele>499.0</ele><time>2026-04-05T10:54:48.983Z</time></trkpt><trkpt lat="42.7889804" lon="13.0162164"><ele>499.0</ele><time>2026-04-05T10:54:49.983Z</time></trkpt><trkpt lat="42.7890351" lon="13.0160057"><ele>499.0</ele><time>2026-04-05T10:54:50.983Z</time></trkpt><trkpt lat="42.7891022" lon="13.0158016"><ele>499.0</ele><time>2026-04-05T10:54:51.983Z</time></trkpt><trkpt lat="42.7891858" lon="13.0156181"><ele>498.33333333333337</ele><time>2026-04-05T10:54:52.983Z</time></trkpt><trkpt lat="42.7892965" lon="13.0154347"><ele>497.66666666666663</ele><time>2026-04-05T10:54:53.982Z</time></trkpt><trkpt lat="42.7894182" lon="13.0152966"><ele>497.0</ele><time>2026-04-05T10:54:54.983Z</time></trkpt><trkpt lat="42.7895641" lon="13.0151645"><ele>497.0</ele><time>2026-04-05T10:54:55.983Z</time></trkpt><trkpt lat="42.7897183" lon="13.0150374"><ele>497.0</ele><time>2026-04-05T10:54:56.983Z</time></trkpt><trkpt lat="42.7898704" lon="13.0149001"><ele>497.0</ele><time>2026-04-05T10:54:57.983Z</time></trkpt><trkpt lat="42.7900057" lon="13.0147367"><ele>497.3333333333333</ele><time>2026-04-05T10:54:58.983Z</time></trkpt><trkpt lat="42.790132" lon="13.0145503"><ele>497.66666666666663</ele><time>2026-04-05T10:54:59.983Z</time></trkpt><trkpt lat="42.7902385" lon="13.0143562"><ele>498.0</ele><time>2026-04-05T10:55:00.983Z</time></trkpt><trkpt lat="42.7903303" lon="13.0141359"><ele>500.33333333333337</ele><time>2026-04-05T10:55:01.983Z</time></trkpt><trkpt lat="42.7903985" lon="13.0139098"><ele>502.6666666666667</ele><time>2026-04-05T10:55:02.983Z</time></trkpt><trkpt lat="42.7904528" lon="13.0136652"><ele>505.0</ele><time>2026-04-05T10:55:03.983Z</time></trkpt><trkpt lat="42.7904975" lon="13.0134188"><ele>509.0</ele><time>2026-04-05T10:55:04.983Z</time></trkpt><trkpt lat="42.7905319" lon="13.0131671"><ele>513.0</ele><time>2026-04-05T10:55:05.983Z</time></trkpt><trkpt lat="42.7905671" lon="13.0129127"><ele>517.0</ele><time>2026-04-05T10:55:06.983Z</time></trkpt><trkpt lat="42.7906008" lon="13.0126603"><ele>514.3333333333334</ele><time>2026-04-05T10:55:07.983Z</time></trkpt><trkpt lat="42.7906377" lon="13.0124081"><ele>511.66666666666663</ele><time>2026-04-05T10:55:08.983Z</time></trkpt><trkpt lat="42.7906826" lon="13.0121601"><ele>509.0</ele><time>2026-04-05T10:55:09.983Z</time></trkpt><trkpt lat="42.7907221" lon="13.0119165"><ele>509.0</ele><time>2026-04-05T10:55:10.983Z</time></trkpt><trkpt lat="42.7907718" lon="13.0116792"><ele>509.0</ele><time>2026-04-05T10:55:11.982Z</time></trkpt><trkpt lat="42.7908205" lon="13.0114493"><ele>509.0</ele><time>2026-04-05T10:55:12.982Z</time></trkpt><trkpt lat="42.7908795" lon="13.0112243"><ele>511.66666666666663</ele><time>2026-04-05T10:55:13.983Z</time></trkpt><trkpt lat="42.7909427" lon="13.0109998"><ele>514.3333333333334</ele><time>2026-04-05T10:55:14.983Z</time></trkpt><trkpt lat="42.7910161" lon="13.0107895"><ele>517.0</ele><time>2026-04-05T10:55:15.983Z</time></trkpt><trkpt lat="42.7910928" lon="13.0105853"><ele>517.0</ele><time>2026-04-05T10:55:16.983Z</time></trkpt><trkpt lat="42.7911793" lon="13.0103784"><ele>517.0</ele><time>2026-04-05T10:55:17.983Z</time></trkpt><trkpt lat="42.7912661" lon="13.0101787"><ele>517.0</ele><time>2026-04-05T10:55:18.983Z</time></trkpt><trkpt lat="42.7913493" lon="13.0099821"><ele>513.3333333333334</ele><time>2026-04-05T10:55:19.983Z</time></trkpt><trkpt lat="42.7914394" lon="13.0097702"><ele>509.66666666666663</ele><time>2026-04-05T10:55:20.983Z</time></trkpt><trkpt lat="42.7915227" lon="13.0095725"><ele>506.0</ele><time>2026-04-05T10:55:21.983Z</time></trkpt><trkpt lat="42.7915983" lon="13.0093593"><ele>507.3333333333333</ele><time>2026-04-05T10:55:22.983Z</time></trkpt><trkpt lat="42.7916607" lon="13.0091483"><ele>508.66666666666663</ele><time>2026-04-05T10:55:23.983Z</time></trkpt><trkpt lat="42.7917157" lon="13.0089296"><ele>510.0</ele><time>2026-04-05T10:55:24.982Z</time></trkpt><trkpt lat="42.791757" lon="13.0086926"><ele>510.0</ele><time>2026-04-05T10:55:25.983Z</time></trkpt><trkpt lat="42.7917904" lon="13.0084543"><ele>510.0</ele><time>2026-04-05T10:55:26.983Z</time></trkpt><trkpt lat="42.791817" lon="13.008216"><ele>510.0</ele><time>2026-04-05T10:55:27.983Z</time></trkpt><trkpt lat="42.7918383" lon="13.0079777"><ele>531.0</ele><time>2026-04-05T10:55:28.983Z</time></trkpt><trkpt lat="42.7918605" lon="13.0077408"><ele>552.0</ele><time>2026-04-05T10:55:29.983Z</time></trkpt><trkpt lat="42.7918836" lon="13.0074998"><ele>573.0</ele><time>2026-04-05T10:55:30.982Z</time></trkpt><trkpt lat="42.7919073" lon="13.0072576"><ele>576.0</ele><time>2026-04-05T10:55:31.983Z</time></trkpt><trkpt lat="42.7919297" lon="13.007018"><ele>579.0</ele><time>2026-04-05T10:55:32.983Z</time></trkpt><trkpt lat="42.7919499" lon="13.0067912"><ele>582.0</ele><time>2026-04-05T10:55:33.983Z</time></trkpt><trkpt lat="42.7919702" lon="13.0065584"><ele>582.0</ele><time>2026-04-05T10:55:34.982Z</time></trkpt><trkpt lat="42.7919893" lon="13.0063259"><ele>582.0</ele><time>2026-04-05T10:55:35.983Z</time></trkpt><trkpt lat="42.7922242" lon="13.003621"><ele>565.6666666666666</ele><time>2026-04-05T10:55:45.982Z</time></trkpt><trkpt lat="42.7922209" lon="13.0033925"><ele>549.3333333333333</ele><time>2026-04-05T10:55:46.983Z</time></trkpt><trkpt lat="42.7922032" lon="13.0031523"><ele>533.0</ele><time>2026-04-05T10:55:47.982Z</time></trkpt><trkpt lat="42.7921768" lon="13.0028943"><ele>533.0</ele><time>2026-04-05T10:55:48.983Z</time></trkpt><trkpt lat="42.7921543" lon="13.002639"><ele>533.0</ele><time>2026-04-05T10:55:49.982Z</time></trkpt><trkpt lat="42.7921251" lon="13.0023945"><ele>533.0</ele><time>2026-04-05T10:55:50.983Z</time></trkpt><trkpt lat="42.7920951" lon="13.0021504"><ele>544.0</ele><time>2026-04-05T10:55:51.983Z</time></trkpt><trkpt lat="42.792065" lon="13.0019078"><ele>555.0</ele><time>2026-04-05T10:55:52.983Z</time></trkpt><trkpt lat="42.7920362" lon="13.0016604"><ele>566.0</ele><time>2026-04-05T10:55:53.983Z</time></trkpt><trkpt lat="42.7920043" lon="13.0014098"><ele>593.5</ele><time>2026-04-05T10:55:54.983Z</time></trkpt><trkpt lat="42.7919732" lon="13.0011603"><ele>621.0</ele><time>2026-04-05T10:55:55.983Z</time></trkpt><trkpt lat="42.7910363" lon="12.9932526"><ele>577.0</ele><time>2026-04-05T10:56:26.983Z</time></trkpt><trkpt lat="42.7910093" lon="12.9929797"><ele>533.0</ele><time>2026-04-05T10:56:27.982Z</time></trkpt><trkpt lat="42.7909321" lon="12.9926979"><ele>489.0</ele><time>2026-04-05T10:56:28.983Z</time></trkpt><trkpt lat="42.7908988" lon="12.9924152"><ele>485.66666666666663</ele><time>2026-04-05T10:56:29.983Z</time></trkpt><trkpt lat="42.7908683" lon="12.9921368"><ele>482.3333333333333</ele><time>2026-04-05T10:56:30.982Z</time></trkpt><trkpt lat="42.790835" lon="12.9918527"><ele>479.0</ele><time>2026-04-05T10:56:31.983Z</time></trkpt><trkpt lat="42.7908009" lon="12.9915658"><ele>479.0</ele><time>2026-04-05T10:56:32.983Z</time></trkpt><trkpt lat="42.7907656" lon="12.9912827"><ele>479.0</ele><time>2026-04-05T10:56:33.983Z</time></trkpt><trkpt lat="42.7907331" lon="12.9909982"><ele>479.0</ele><time>2026-04-05T10:56:34.983Z</time></trkpt><trkpt lat="42.7906951" lon="12.9907176"><ele>482.3333333333333</ele><time>2026-04-05T10:56:35.982Z</time></trkpt><trkpt lat="42.7906611" lon="12.9904378"><ele>485.66666666666663</ele><time>2026-04-05T10:56:36.982Z</time></trkpt><trkpt lat="42.7906282" lon="12.9901627"><ele>489.0</ele><time>2026-04-05T10:56:37.982Z</time></trkpt><trkpt lat="42.7905914" lon="12.9898899"><ele>489.33333333333337</ele><time>2026-04-05T10:56:38.982Z</time></trkpt><trkpt lat="42.7905758" lon="12.9896157"><ele>489.6666666666667</ele><time>2026-04-05T10:56:39.982Z</time></trkpt><trkpt lat="42.7905422" lon="12.9893449"><ele>490.0</ele><time>2026-04-05T10:56:40.983Z</time></trkpt><trkpt lat="42.7905106" lon="12.9890728"><ele>490.0</ele><time>2026-04-05T10:56:41.983Z</time></trkpt><trkpt lat="42.7904801" lon="12.9888013"><ele>490.0</ele><time>2026-04-05T10:56:42.983Z</time></trkpt><trkpt lat="42.7904515" lon="12.9885301"><ele>490.0</ele><time>2026-04-05T10:56:43.983Z</time></trkpt><trkpt lat="42.790418" lon="12.9882585"><ele>488.0</ele><time>2026-04-05T10:56:44.983Z</time></trkpt><trkpt lat="42.7903811" lon="12.9879915"><ele>486.0</ele><time>2026-04-05T10:56:45.983Z</time></trkpt><trkpt lat="42.7903425" lon="12.9877347"><ele>484.0</ele><time>2026-04-05T10:56:46.983Z</time></trkpt><trkpt lat="42.7903237" lon="12.9874968"><ele>489.6666666666667</ele><time>2026-04-05T10:56:47.983Z</time></trkpt><trkpt lat="42.7903052" lon="12.9872682"><ele>495.33333333333337</ele><time>2026-04-05T10:56:48.982Z</time></trkpt><trkpt lat="42.7903132" lon="12.9870495"><ele>501.0</ele><time>2026-04-05T10:56:49.983Z</time></trkpt><trkpt lat="42.7903478" lon="12.9868413"><ele>501.66666666666663</ele><time>2026-04-05T10:56:50.982Z</time></trkpt><trkpt lat="42.7904035" lon="12.9866507"><ele>502.3333333333333</ele><time>2026-04-05T10:56:51.982Z</time></trkpt><trkpt lat="42.7904979" lon="12.986492"><ele>503.0</ele><time>2026-04-05T10:56:52.982Z</time></trkpt><trkpt lat="42.7906" lon="12.9863338"><ele>503.0</ele><time>2026-04-05T10:56:53.983Z</time></trkpt><trkpt lat="42.7907257" lon="12.9861432"><ele>503.0</ele><time>2026-04-05T10:56:54.982Z</time></trkpt><trkpt lat="42.7908454" lon="12.9859554"><ele>503.0</ele><time>2026-04-05T10:56:55.982Z</time></trkpt><trkpt lat="42.7909563" lon="12.9857625"><ele>512.6666666666666</ele><time>2026-04-05T10:56:56.983Z</time></trkpt><trkpt lat="42.7910603" lon="12.9855635"><ele>522.3333333333334</ele><time>2026-04-05T10:56:57.983Z</time></trkpt><trkpt lat="42.7911424" lon="12.9853492"><ele>532.0</ele><time>2026-04-05T10:56:58.983Z</time></trkpt><trkpt lat="42.7912015" lon="12.9851214"><ele>527.3333333333334</ele><time>2026-04-05T10:56:59.982Z</time></trkpt><trkpt lat="42.7912307" lon="12.9848764"><ele>522.6666666666666</ele><time>2026-04-05T10:57:00.983Z</time></trkpt><trkpt lat="42.7912273" lon="12.9846335"><ele>518.0</ele><time>2026-04-05T10:57:01.983Z</time></trkpt><trkpt lat="42.791199" lon="12.9843955"><ele>518.0</ele><time>2026-04-05T10:57:02.983Z</time></trkpt><trkpt lat="42.7911403" lon="12.9841733"><ele>518.0</ele><time>2026-04-05T10:57:03.983Z</time></trkpt><trkpt lat="42.7910558" lon="12.9839757"><ele>518.0</ele><time>2026-04-05T10:57:04.982Z</time></trkpt><trkpt lat="42.7909496" lon="12.9838097"><ele>505.3333333333333</ele><time>2026-04-05T10:57:05.982Z</time></trkpt><trkpt lat="42.7908195" lon="12.9836847"><ele>492.66666666666663</ele><time>2026-04-05T10:57:06.983Z</time></trkpt><trkpt lat="42.7906851" lon="12.9835961"><ele>480.0</ele><time>2026-04-05T10:57:07.983Z</time></trkpt><trkpt lat="42.7905498" lon="12.9835245"><ele>480.0</ele><time>2026-04-05T10:57:08.983Z</time></trkpt><trkpt lat="42.7904333" lon="12.9834313"><ele>480.0</ele><time>2026-04-05T10:57:09.982Z</time></trkpt><trkpt lat="42.7903425" lon="12.9833168"><ele>480.0</ele><time>2026-04-05T10:57:10.982Z</time></trkpt><trkpt lat="42.7902642" lon="12.9831614"><ele>480.0</ele><time>2026-04-05T10:57:11.983Z</time></trkpt><trkpt lat="42.7902157" lon="12.9829898"><ele>479.33333333333337</ele><time>2026-04-05T10:57:12.982Z</time></trkpt><trkpt lat="42.7901879" lon="12.9827786"><ele>478.6666666666667</ele><time>2026-04-05T10:57:13.982Z</time></trkpt><trkpt lat="42.7901666" lon="12.9825792"><ele>478.0</ele><time>2026-04-05T10:57:14.983Z</time></trkpt><trkpt lat="42.7901435" lon="12.98237"><ele>478.0</ele><time>2026-04-05T10:57:15.983Z</time></trkpt><trkpt lat="42.7901199" lon="12.9821559"><ele>478.0</ele><time>2026-04-05T10:57:16.983Z</time></trkpt><trkpt lat="42.7900947" lon="12.9819346"><ele>478.0</ele><time>2026-04-05T10:57:17.982Z</time></trkpt><trkpt lat="42.7900683" lon="12.9817076"><ele>478.0</ele><time>2026-04-05T10:57:18.982Z</time></trkpt><trkpt lat="42.7900399" lon="12.9814808"><ele>478.0</ele><time>2026-04-05T10:57:19.983Z</time></trkpt><trkpt lat="42.7899919" lon="12.9812524"><ele>478.0</ele><time>2026-04-05T10:57:20.983Z</time></trkpt><trkpt lat="42.7899293" lon="12.9810337"><ele>482.0</ele><time>2026-04-05T10:57:21.982Z</time></trkpt><trkpt lat="42.7898431" lon="12.9808302"><ele>486.0</ele><time>2026-04-05T10:57:22.983Z</time></trkpt><trkpt lat="42.789756" lon="12.9806352"><ele>490.0</ele><time>2026-04-05T10:57:23.983Z</time></trkpt><trkpt lat="42.789673" lon="12.9804357"><ele>490.0</ele><time>2026-04-05T10:57:24.983Z</time></trkpt><trkpt lat="42.7896132" lon="12.9802207"><ele>490.0</ele><time>2026-04-05T10:57:25.983Z</time></trkpt><trkpt lat="42.789565" lon="12.9799997"><ele>490.0</ele><time>2026-04-05T10:57:26.983Z</time></trkpt><trkpt lat="42.7895443" lon="12.9797687"><ele>497.33333333333337</ele><time>2026-04-05T10:57:27.982Z</time></trkpt><trkpt lat="42.7895239" lon="12.9795468"><ele>504.66666666666663</ele><time>2026-04-05T10:57:28.982Z</time></trkpt><trkpt lat="42.7895061" lon="12.979316"><ele>512.0</ele><time>2026-04-05T10:57:29.983Z</time></trkpt><trkpt lat="42.789489" lon="12.9790871"><ele>514.3333333333333</ele><time>2026-04-05T10:57:30.983Z</time></trkpt><trkpt lat="42.7894731" lon="12.9788512"><ele>516.6666666666666</ele><time>2026-04-05T10:57:31.983Z</time></trkpt><trkpt lat="42.7894495" lon="12.9786087"><ele>519.0</ele><time>2026-04-05T10:57:32.983Z</time></trkpt><trkpt lat="42.7894048" lon="12.978374"><ele>518.6666666666666</ele><time>2026-04-05T10:57:33.982Z</time></trkpt><trkpt lat="42.7893464" lon="12.9781515"><ele>518.3333333333333</ele><time>2026-04-05T10:57:34.983Z</time></trkpt><trkpt lat="42.7892788" lon="12.9779374"><ele>518.0</ele><time>2026-04-05T10:57:35.982Z</time></trkpt><trkpt lat="42.7892245" lon="12.9777244"><ele>506.66666666666663</ele><time>2026-04-05T10:57:36.982Z</time></trkpt><trkpt lat="42.7891513" lon="12.9775228"><ele>495.33333333333337</ele><time>2026-04-05T10:57:37.983Z</time></trkpt><trkpt lat="42.7891169" lon="12.9773158"><ele>484.0</ele><time>2026-04-05T10:57:38.983Z</time></trkpt><trkpt lat="42.7891133" lon="12.9771007"><ele>484.0</ele><time>2026-04-05T10:57:39.983Z</time></trkpt><trkpt lat="42.7891355" lon="12.9768814"><ele>484.0</ele><time>2026-04-05T10:57:40.983Z</time></trkpt><trkpt lat="42.78917" lon="12.9766625"><ele>484.0</ele><time>2026-04-05T10:57:41.983Z</time></trkpt><trkpt lat="42.7892143" lon="12.97644"><ele>481.0</ele><time>2026-04-05T10:57:42.983Z</time></trkpt><trkpt lat="42.7892618" lon="12.9762275"><ele>478.0</ele><time>2026-04-05T10:57:43.983Z</time></trkpt><trkpt lat="42.789308" lon="12.9760169"><ele>475.0</ele><time>2026-04-05T10:57:44.982Z</time></trkpt><trkpt lat="42.7893543" lon="12.9758031"><ele>491.5</ele><time>2026-04-05T10:57:45.983Z</time></trkpt><trkpt lat="42.7894018" lon="12.97559"><ele>508.0</ele><time>2026-04-05T10:57:46.983Z</time></trkpt><trkpt lat="42.7898285" lon="12.9717975"><ele>495.33333333333337</ele><time>2026-04-05T10:58:03.982Z</time></trkpt><trkpt lat="42.7899203" lon="12.9716063"><ele>482.66666666666663</ele><time>2026-04-05T10:58:04.983Z</time></trkpt><trkpt lat="42.7900434" lon="12.971404"><ele>470.0</ele><time>2026-04-05T10:58:05.983Z</time></trkpt><trkpt lat="42.7901591" lon="12.9712313"><ele>473.66666666666663</ele><time>2026-04-05T10:58:06.983Z</time></trkpt><trkpt lat="42.7902934" lon="12.9710583"><ele>477.33333333333337</ele><time>2026-04-05T10:58:07.983Z</time></trkpt><trkpt lat="42.7904252" lon="12.9709025"><ele>481.0</ele><time>2026-04-05T10:58:08.983Z</time></trkpt><trkpt lat="42.7905638" lon="12.970778"><ele>481.0</ele><time>2026-04-05T10:58:09.983Z</time></trkpt><trkpt lat="42.7907009" lon="12.9706501"><ele>481.0</ele><time>2026-04-05T10:58:10.983Z</time></trkpt><trkpt lat="42.7908372" lon="12.9704973"><ele>481.0</ele><time>2026-04-05T10:58:11.982Z</time></trkpt><trkpt lat="42.790954" lon="12.9703316"><ele>486.0</ele><time>2026-04-05T10:58:12.983Z</time></trkpt><trkpt lat="42.7910617" lon="12.9701406"><ele>491.0</ele><time>2026-04-05T10:58:13.983Z</time></trkpt><trkpt lat="42.7911585" lon="12.9699407"><ele>496.0</ele><time>2026-04-05T10:58:14.983Z</time></trkpt><trkpt lat="42.7912492" lon="12.9697322"><ele>496.0</ele><time>2026-04-05T10:58:15.983Z</time></trkpt><trkpt lat="42.7913354" lon="12.9695156"><ele>496.0</ele><time>2026-04-05T10:58:16.983Z</time></trkpt><trkpt lat="42.7914064" lon="12.9692953"><ele>496.0</ele><time>2026-04-05T10:58:17.983Z</time></trkpt><trkpt lat="42.791461" lon="12.9690731"><ele>509.0</ele><time>2026-04-05T10:58:18.982Z</time></trkpt><trkpt lat="42.7910322" lon="12.9597759"><ele>500.25</ele><time>2026-04-05T10:58:58.983Z</time></trkpt><trkpt lat="42.7909922" lon="12.9596006"><ele>491.5</ele><time>2026-04-05T10:58:59.982Z</time></trkpt><trkpt lat="42.7909923" lon="12.9594112"><ele>482.75</ele><time>2026-04-05T10:59:00.983Z</time></trkpt><trkpt lat="42.7909885" lon="12.9592351"><ele>474.0</ele><time>2026-04-05T10:59:01.982Z</time></trkpt><trkpt lat="42.7911127" lon="12.9591403"><ele>474.0</ele><time>2026-04-05T10:59:02.983Z</time></trkpt><trkpt lat="42.7912135" lon="12.95902"><ele>474.0</ele><time>2026-04-05T10:59:03.983Z</time></trkpt><trkpt lat="42.7913291" lon="12.9588747"><ele>474.0</ele><time>2026-04-05T10:59:04.983Z</time></trkpt><trkpt lat="42.791449" lon="12.9587379"><ele>474.0</ele><time>2026-04-05T10:59:05.982Z</time></trkpt><trkpt lat="42.7915815" lon="12.9586013"><ele>474.0</ele><time>2026-04-05T10:59:06.983Z</time></trkpt><trkpt lat="42.7917224" lon="12.9584721"><ele>474.0</ele><time>2026-04-05T10:59:07.982Z</time></trkpt><trkpt lat="42.7918708" lon="12.9583477"><ele>474.0</ele><time>2026-04-05T10:59:08.982Z</time></trkpt><trkpt lat="42.7920255" lon="12.9582464"><ele>470.0</ele><time>2026-04-05T10:59:09.983Z</time></trkpt><trkpt lat="42.7921923" lon="12.9581621"><ele>466.0</ele><time>2026-04-05T10:59:10.982Z</time></trkpt><trkpt lat="42.7923749" lon="12.95808"><ele>462.0</ele><time>2026-04-05T10:59:11.983Z</time></trkpt><trkpt lat="42.7925468" lon="12.9579902"><ele>476.0</ele><time>2026-04-05T10:59:12.983Z</time></trkpt><trkpt lat="42.7927197" lon="12.9578835"><ele>490.0</ele><time>2026-04-05T10:59:13.983Z</time></trkpt><trkpt lat="42.7928861" lon="12.9577544"><ele>504.0</ele><time>2026-04-05T10:59:14.983Z</time></trkpt><trkpt lat="42.7930497" lon="12.9576011"><ele>499.66666666666663</ele><time>2026-04-05T10:59:15.983Z</time></trkpt><trkpt lat="42.7932097" lon="12.9574309"><ele>495.3333333333333</ele><time>2026-04-05T10:59:16.982Z</time></trkpt><trkpt lat="42.7933668" lon="12.957252"><ele>491.0</ele><time>2026-04-05T10:59:17.983Z</time></trkpt><trkpt lat="42.7935181" lon="12.9570698"><ele>491.0</ele><time>2026-04-05T10:59:18.982Z</time></trkpt><trkpt lat="42.7936707" lon="12.9568948"><ele>491.0</ele><time>2026-04-05T10:59:19.983Z</time></trkpt><trkpt lat="42.7938233" lon="12.9567136"><ele>491.0</ele><time>2026-04-05T10:59:20.983Z</time></trkpt><trkpt lat="42.7939737" lon="12.9565385"><ele>489.66666666666663</ele><time>2026-04-05T10:59:21.983Z</time></trkpt><trkpt lat="42.7941231" lon="12.9563588"><ele>488.33333333333337</ele><time>2026-04-05T10:59:22.983Z</time></trkpt><trkpt lat="42.7942727" lon="12.9561898"><ele>487.0</ele><time>2026-04-05T10:59:23.983Z</time></trkpt><trkpt lat="42.7944254" lon="12.9560201"><ele>475.33333333333337</ele><time>2026-04-05T10:59:24.982Z</time></trkpt><trkpt lat="42.7945752" lon="12.9558653"><ele>463.66666666666663</ele><time>2026-04-05T10:59:25.983Z</time></trkpt><trkpt lat="42.7947349" lon="12.9557287"><ele>452.0</ele><time>2026-04-05T10:59:26.982Z</time></trkpt><trkpt lat="42.7949025" lon="12.9556094"><ele>452.0</ele><time>2026-04-05T10:59:27.982Z</time></trkpt><trkpt lat="42.7950754" lon="12.955493"><ele>452.0</ele><time>2026-04-05T10:59:28.983Z</time></trkpt><trkpt lat="42.7952502" lon="12.9553789"><ele>452.0</ele><time>2026-04-05T10:59:29.982Z</time></trkpt><trkpt lat="42.7954274" lon="12.9552616"><ele>449.3333333333333</ele><time>2026-04-05T10:59:30.983Z</time></trkpt><trkpt lat="42.7956073" lon="12.9551458"><ele>446.66666666666663</ele><time>2026-04-05T10:59:31.983Z</time></trkpt><trkpt lat="42.7957887" lon="12.9550293"><ele>444.0</ele><time>2026-04-05T10:59:32.983Z</time></trkpt><trkpt lat="42.7959658" lon="12.9549161"><ele>449.66666666666663</ele><time>2026-04-05T10:59:33.982Z</time></trkpt><trkpt lat="42.7961417" lon="12.9548001"><ele>455.3333333333333</ele><time>2026-04-05T10:59:34.983Z</time></trkpt><trkpt lat="42.7963237" lon="12.9546839"><ele>461.0</ele><time>2026-04-05T10:59:35.983Z</time></trkpt><trkpt lat="42.7965013" lon="12.9545719"><ele>461.0</ele><time>2026-04-05T10:59:36.983Z</time></trkpt><trkpt lat="42.7966706" lon="12.9544465"><ele>461.0</ele><time>2026-04-05T10:59:37.983Z</time></trkpt><trkpt lat="42.7968317" lon="12.9543142"><ele>461.0</ele><time>2026-04-05T10:59:38.983Z</time></trkpt><trkpt lat="42.796986" lon="12.9541911"><ele>461.3333333333333</ele><time>2026-04-05T10:59:39.983Z</time></trkpt><trkpt lat="42.7971336" lon="12.9540773"><ele>461.66666666666663</ele><time>2026-04-05T10:59:40.983Z</time></trkpt><trkpt lat="42.7972783" lon="12.9539856"><ele>462.0</ele><time>2026-04-05T10:59:41.983Z</time></trkpt><trkpt lat="42.7974603" lon="12.9539285"><ele>462.0</ele><time>2026-04-05T10:59:42.983Z</time></trkpt><trkpt lat="42.7976289" lon="12.9538702"><ele>462.0</ele><time>2026-04-05T10:59:43.983Z</time></trkpt><trkpt lat="42.7977987" lon="12.9538397"><ele>462.0</ele><time>2026-04-05T10:59:44.983Z</time></trkpt><trkpt lat="42.7979867" lon="12.9538459"><ele>468.33333333333337</ele><time>2026-04-05T10:59:45.982Z</time></trkpt><trkpt lat="42.7981796" lon="12.9538118"><ele>474.6666666666667</ele><time>2026-04-05T10:59:46.983Z</time></trkpt><trkpt lat="42.7983676" lon="12.9537711"><ele>481.0</ele><time>2026-04-05T10:59:47.983Z</time></trkpt><trkpt lat="42.7985541" lon="12.9537195"><ele>485.6666666666667</ele><time>2026-04-05T10:59:48.983Z</time></trkpt><trkpt lat="42.7987416" lon="12.9536569"><ele>490.33333333333337</ele><time>2026-04-05T10:59:49.983Z</time></trkpt><trkpt lat="42.7989273" lon="12.9535936"><ele>495.0</ele><time>2026-04-05T10:59:50.982Z</time></trkpt><trkpt lat="42.7991092" lon="12.9535314"><ele>495.0</ele><time>2026-04-05T10:59:51.982Z</time></trkpt><trkpt lat="42.7992832" lon="12.9534697"><ele>495.0</ele><time>2026-04-05T10:59:52.983Z</time></trkpt><trkpt lat="42.7994564" lon="12.9534069"><ele>495.0</ele><time>2026-04-05T10:59:53.982Z</time></trkpt><trkpt lat="42.7996311" lon="12.9533629"><ele>481.33333333333337</ele><time>2026-04-05T10:59:54.982Z</time></trkpt><trkpt lat="42.799785" lon="12.9533232"><ele>467.6666666666667</ele><time>2026-04-05T10:59:55.983Z</time></trkpt><trkpt lat="42.7999409" lon="12.9533076"><ele>454.0</ele><time>2026-04-05T10:59:56.983Z</time></trkpt><trkpt lat="42.8001044" lon="12.9533229"><ele>455.6666666666667</ele><time>2026-04-05T10:59:57.982Z</time></trkpt><trkpt lat="42.8002615" lon="12.9533274"><ele>457.33333333333337</ele><time>2026-04-05T10:59:58.982Z</time></trkpt><trkpt lat="42.8004286" lon="12.9533187"><ele>459.0</ele><time>2026-04-05T10:59:59.983Z</time></trkpt><trkpt lat="42.8005911" lon="12.9532236"><ele>459.0</ele><time>2026-04-05T11:00:00.983Z</time></trkpt><trkpt lat="42.8007568" lon="12.9531245"><ele>459.0</ele><time>2026-04-05T11:00:01.983Z</time></trkpt><trkpt lat="42.800917" lon="12.9530182"><ele>459.0</ele><time>2026-04-05T11:00:02.983Z</time></trkpt><trkpt lat="42.8010884" lon="12.9529127"><ele>457.0</ele><time>2026-04-05T11:00:03.982Z</time></trkpt><trkpt lat="42.801246" lon="12.9528007"><ele>455.0</ele><time>2026-04-05T11:00:04.983Z</time></trkpt><trkpt lat="42.8014015" lon="12.9526752"><ele>453.0</ele><time>2026-04-05T11:00:05.983Z</time></trkpt><trkpt lat="42.8015498" lon="12.9525344"><ele>453.0</ele><time>2026-04-05T11:00:06.983Z</time></trkpt><trkpt lat="42.8016958" lon="12.9523954"><ele>453.0</ele><time>2026-04-05T11:00:07.983Z</time></trkpt><trkpt lat="42.8018374" lon="12.9522498"><ele>453.0</ele><time>2026-04-05T11:00:08.983Z</time></trkpt><trkpt lat="42.8030966" lon="12.9505754"><ele>454.0</ele><time>2026-04-05T11:00:18.982Z</time></trkpt><trkpt lat="42.803249" lon="12.9504302"><ele>455.0</ele><time>2026-04-05T11:00:19.983Z</time></trkpt><trkpt lat="42.803394" lon="12.9503088"><ele>456.0</ele><time>2026-04-05T11:00:20.983Z</time></trkpt><trkpt lat="42.8035397" lon="12.9501885"><ele>452.0</ele><time>2026-04-05T11:00:21.983Z</time></trkpt><trkpt lat="42.8036923" lon="12.9500807"><ele>448.0</ele><time>2026-04-05T11:00:22.983Z</time></trkpt><trkpt lat="42.8038523" lon="12.9499996"><ele>444.0</ele><time>2026-04-05T11:00:23.983Z</time></trkpt><trkpt lat="42.8040205" lon="12.9499364"><ele>444.0</ele><time>2026-04-05T11:00:24.983Z</time></trkpt><trkpt lat="42.8042009" lon="12.9499252"><ele>444.0</ele><time>2026-04-05T11:00:25.983Z</time></trkpt><trkpt lat="42.8043758" lon="12.9499142"><ele>444.0</ele><time>2026-04-05T11:00:26.983Z</time></trkpt><trkpt lat="42.8045512" lon="12.9499236"><ele>445.66666666666663</ele><time>2026-04-05T11:00:27.982Z</time></trkpt><trkpt lat="42.8047255" lon="12.9499357"><ele>447.3333333333333</ele><time>2026-04-05T11:00:28.983Z</time></trkpt><trkpt lat="42.8048963" lon="12.9498997"><ele>449.0</ele><time>2026-04-05T11:00:29.983Z</time></trkpt><trkpt lat="42.8050695" lon="12.9498299"><ele>457.66666666666663</ele><time>2026-04-05T11:00:30.983Z</time></trkpt><trkpt lat="42.8052445" lon="12.9497405"><ele>466.33333333333337</ele><time>2026-04-05T11:00:31.983Z</time></trkpt><trkpt lat="42.8054209" lon="12.9496185"><ele>475.0</ele><time>2026-04-05T11:00:32.983Z</time></trkpt><trkpt lat="42.8056011" lon="12.949498"><ele>475.0</ele><time>2026-04-05T11:00:33.983Z</time></trkpt><trkpt lat="42.8057796" lon="12.949379"><ele>475.0</ele><time>2026-04-05T11:00:34.982Z</time></trkpt><trkpt lat="42.8059646" lon="12.9492942"><ele>475.0</ele><time>2026-04-05T11:00:35.983Z</time></trkpt><trkpt lat="42.8061491" lon="12.9492009"><ele>468.33333333333337</ele><time>2026-04-05T11:00:36.982Z</time></trkpt><trkpt lat="42.8063326" lon="12.9491037"><ele>461.66666666666663</ele><time>2026-04-05T11:00:37.983Z</time></trkpt><trkpt lat="42.8065223" lon="12.9490105"><ele>455.0</ele><time>2026-04-05T11:00:38.983Z</time></trkpt><trkpt lat="42.8067076" lon="12.9489162"><ele>464.66666666666663</ele><time>2026-04-05T11:00:39.983Z</time></trkpt><trkpt lat="42.8068973" lon="12.9488196"><ele>474.33333333333337</ele><time>2026-04-05T11:00:40.983Z</time></trkpt><trkpt lat="42.8070878" lon="12.9487233"><ele>484.0</ele><time>2026-04-05T11:00:41.983Z</time></trkpt><trkpt lat="42.8072792" lon="12.9486268"><ele>484.0</ele><time>2026-04-05T11:00:42.983Z</time></trkpt><trkpt lat="42.8074652" lon="12.9485227"><ele>484.0</ele><time>2026-04-05T11:00:43.983Z</time></trkpt><trkpt lat="42.8076559" lon="12.9484203"><ele>484.0</ele><time>2026-04-05T11:00:44.983Z</time></trkpt><trkpt lat="42.8078517" lon="12.9483198"><ele>475.33333333333337</ele><time>2026-04-05T11:00:45.983Z</time></trkpt><trkpt lat="42.8080463" lon="12.9482202"><ele>466.66666666666663</ele><time>2026-04-05T11:00:46.982Z</time></trkpt><trkpt lat="42.8082372" lon="12.9481148"><ele>458.0</ele><time>2026-04-05T11:00:47.983Z</time></trkpt><trkpt lat="42.8084296" lon="12.9480082"><ele>472.3333333333333</ele><time>2026-04-05T11:00:48.982Z</time></trkpt><trkpt lat="42.8086213" lon="12.9479104"><ele>486.66666666666663</ele><time>2026-04-05T11:00:49.983Z</time></trkpt><trkpt lat="42.8087976" lon="12.9478113"><ele>501.0</ele><time>2026-04-05T11:00:50.983Z</time></trkpt><trkpt lat="42.8089743" lon="12.9477066"><ele>501.0</ele><time>2026-04-05T11:00:51.983Z</time></trkpt><trkpt lat="42.8091431" lon="12.9475793"><ele>501.0</ele><time>2026-04-05T11:00:52.983Z</time></trkpt><trkpt lat="42.8093124" lon="12.9474345"><ele>501.0</ele><time>2026-04-05T11:00:53.983Z</time></trkpt><trkpt lat="42.8094777" lon="12.9472632"><ele>492.33333333333337</ele><time>2026-04-05T11:00:54.982Z</time></trkpt><trkpt lat="42.8096368" lon="12.947099"><ele>483.6666666666667</ele><time>2026-04-05T11:00:55.983Z</time></trkpt><trkpt lat="42.8097883" lon="12.9469301"><ele>475.0</ele><time>2026-04-05T11:00:56.983Z</time></trkpt><trkpt lat="42.8099392" lon="12.9467608"><ele>454.0</ele><time>2026-04-05T11:00:57.983Z</time></trkpt><trkpt lat="42.8104463" lon="12.9461439"><ele>454.0</ele><time>2026-04-05T11:01:00.983Z</time></trkpt><trkpt lat="42.8106221" lon="12.9459275"><ele>454.0</ele><time>2026-04-05T11:01:01.983Z</time></trkpt><trkpt lat="42.8107913" lon="12.9457405"><ele>446.33333333333337</ele><time>2026-04-05T11:01:02.983Z</time></trkpt><trkpt lat="42.8109638" lon="12.9455544"><ele>438.66666666666663</ele><time>2026-04-05T11:01:03.982Z</time></trkpt><trkpt lat="42.81113" lon="12.9453605"><ele>431.0</ele><time>2026-04-05T11:01:04.983Z</time></trkpt><trkpt lat="42.811298" lon="12.9451673"><ele>433.66666666666663</ele><time>2026-04-05T11:01:05.982Z</time></trkpt><trkpt lat="42.8114657" lon="12.9449797"><ele>436.33333333333337</ele><time>2026-04-05T11:01:06.983Z</time></trkpt><trkpt lat="42.811624" lon="12.9448003"><ele>439.0</ele><time>2026-04-05T11:01:07.982Z</time></trkpt><trkpt lat="42.8117844" lon="12.9446142"><ele>457.0</ele><time>2026-04-05T11:01:08.983Z</time></trkpt><trkpt lat="42.8119453" lon="12.944429"><ele>475.0</ele><time>2026-04-05T11:01:09.982Z</time></trkpt><trkpt lat="42.8205025" lon="12.9346451"><ele>447.0</ele><time>2026-04-05T11:02:03.983Z</time></trkpt><trkpt lat="42.8206331" lon="12.9344111"><ele>419.0</ele><time>2026-04-05T11:02:04.983Z</time></trkpt><trkpt lat="42.8207521" lon="12.9341814"><ele>391.0</ele><time>2026-04-05T11:02:05.983Z</time></trkpt><trkpt lat="42.8208651" lon="12.9339444"><ele>384.6666666666667</ele><time>2026-04-05T11:02:06.982Z</time></trkpt><trkpt lat="42.8209742" lon="12.9337027"><ele>378.33333333333337</ele><time>2026-04-05T11:02:07.982Z</time></trkpt><trkpt lat="42.8210732" lon="12.9334488"><ele>372.0</ele><time>2026-04-05T11:02:08.983Z</time></trkpt><trkpt lat="42.8211548" lon="12.9331875"><ele>372.6666666666667</ele><time>2026-04-05T11:02:09.982Z</time></trkpt><trkpt lat="42.8212311" lon="12.9329251"><ele>373.33333333333337</ele><time>2026-04-05T11:02:10.982Z</time></trkpt><trkpt lat="42.8212913" lon="12.9326597"><ele>374.0</ele><time>2026-04-05T11:02:11.982Z</time></trkpt><trkpt lat="42.821337" lon="12.9324008"><ele>374.0</ele><time>2026-04-05T11:02:12.983Z</time></trkpt><trkpt lat="42.8213714" lon="12.9321551"><ele>374.0</ele><time>2026-04-05T11:02:13.983Z</time></trkpt><trkpt lat="42.8213925" lon="12.9319166"><ele>374.0</ele><time>2026-04-05T11:02:14.983Z</time></trkpt><trkpt lat="42.8214105" lon="12.9316937"><ele>377.5</ele><time>2026-04-05T11:02:15.982Z</time></trkpt><trkpt lat="42.8214315" lon="12.9314858"><ele>381.0</ele><time>2026-04-05T11:02:16.982Z</time></trkpt><trkpt lat="42.8214531" lon="12.9312939"><ele>384.5</ele><time>2026-04-05T11:02:17.983Z</time></trkpt><trkpt lat="42.8214874" lon="12.9311218"><ele>388.0</ele><time>2026-04-05T11:02:18.982Z</time></trkpt><trkpt lat="42.8215323" lon="12.9309766"><ele>389.59999999999997</ele><time>2026-04-05T11:02:19.983Z</time></trkpt><trkpt lat="42.8215855" lon="12.9308471"><ele>391.2</ele><time>2026-04-05T11:02:20.983Z</time></trkpt><trkpt lat="42.8216352" lon="12.9307402"><ele>392.8</ele><time>2026-04-05T11:02:21.982Z</time></trkpt><trkpt lat="42.8216562" lon="12.9306419"><ele>394.4</ele><time>2026-04-05T11:02:22.983Z</time></trkpt><trkpt lat="42.8216473" lon="12.9305187"><ele>396.0</ele><time>2026-04-05T11:02:23.983Z</time></trkpt><trkpt lat="42.8216037" lon="12.9303916"><ele>396.0</ele><time>2026-04-05T11:02:24.982Z</time></trkpt><trkpt lat="42.821539" lon="12.9302646"><ele>396.0</ele><time>2026-04-05T11:02:25.983Z</time></trkpt><trkpt lat="42.8214744" lon="12.9301306"><ele>396.0</ele><time>2026-04-05T11:02:26.983Z</time></trkpt><trkpt lat="42.8214119" lon="12.9299541"><ele>396.0</ele><time>2026-04-05T11:02:27.983Z</time></trkpt><trkpt lat="42.8213711" lon="12.9297715"><ele>397.0</ele><time>2026-04-05T11:02:28.982Z</time></trkpt><trkpt lat="42.8213421" lon="12.9295634"><ele>398.0</ele><time>2026-04-05T11:02:29.982Z</time></trkpt><trkpt lat="42.8213232" lon="12.9293371"><ele>399.0</ele><time>2026-04-05T11:02:30.982Z</time></trkpt><trkpt lat="42.821308" lon="12.929103"><ele>399.0</ele><time>2026-04-05T11:02:31.983Z</time></trkpt><trkpt lat="42.8212948" lon="12.9288672"><ele>399.0</ele><time>2026-04-05T11:02:32.983Z</time></trkpt><trkpt lat="42.8212781" lon="12.9286308"><ele>399.0</ele><time>2026-04-05T11:02:33.982Z</time></trkpt><trkpt lat="42.8212573" lon="12.9283974"><ele>399.0</ele><time>2026-04-05T11:02:34.982Z</time></trkpt><trkpt lat="42.8212252" lon="12.9281729"><ele>399.0</ele><time>2026-04-05T11:02:35.983Z</time></trkpt><trkpt lat="42.8211712" lon="12.9279514"><ele>399.0</ele><time>2026-04-05T11:02:36.983Z</time></trkpt><trkpt lat="42.8210929" lon="12.9277461"><ele>400.66666666666663</ele><time>2026-04-05T11:02:37.983Z</time></trkpt><trkpt lat="42.8209969" lon="12.9275462"><ele>402.3333333333333</ele><time>2026-04-05T11:02:38.983Z</time></trkpt><trkpt lat="42.8208917" lon="12.9273524"><ele>404.0</ele><time>2026-04-05T11:02:39.983Z</time></trkpt><trkpt lat="42.8208039" lon="12.9271577"><ele>402.3333333333333</ele><time>2026-04-05T11:02:40.983Z</time></trkpt><trkpt lat="42.8207391" lon="12.9269529"><ele>400.66666666666663</ele><time>2026-04-05T11:02:41.982Z</time></trkpt><trkpt lat="42.8207063" lon="12.9267373"><ele>399.0</ele><time>2026-04-05T11:02:42.983Z</time></trkpt><trkpt lat="42.820685" lon="12.9265176"><ele>399.0</ele><time>2026-04-05T11:02:43.983Z</time></trkpt><trkpt lat="42.8206726" lon="12.9262911"><ele>399.0</ele><time>2026-04-05T11:02:44.983Z</time></trkpt><trkpt lat="42.8206455" lon="12.9260613"><ele>399.0</ele><time>2026-04-05T11:02:45.983Z</time></trkpt><trkpt lat="42.820591" lon="12.9258295"><ele>402.66666666666663</ele><time>2026-04-05T11:02:46.983Z</time></trkpt><trkpt lat="42.8205218" lon="12.9256026"><ele>406.3333333333333</ele><time>2026-04-05T11:02:47.982Z</time></trkpt><trkpt lat="42.8204422" lon="12.925372"><ele>410.0</ele><time>2026-04-05T11:02:48.982Z</time></trkpt><trkpt lat="42.8203646" lon="12.9251457"><ele>416.3333333333333</ele><time>2026-04-05T11:02:49.983Z</time></trkpt><trkpt lat="42.8202838" lon="12.9249185"><ele>422.66666666666663</ele><time>2026-04-05T11:02:50.983Z</time></trkpt><trkpt lat="42.8202017" lon="12.9246962"><ele>429.0</ele><time>2026-04-05T11:02:51.982Z</time></trkpt><trkpt lat="42.8201193" lon="12.9244705"><ele>414.33333333333337</ele><time>2026-04-05T11:02:52.983Z</time></trkpt><trkpt lat="42.8200388" lon="12.9242445"><ele>399.6666666666667</ele><time>2026-04-05T11:02:53.982Z</time></trkpt><trkpt lat="42.8199604" lon="12.9240214"><ele>385.0</ele><time>2026-04-05T11:02:54.982Z</time></trkpt><trkpt lat="42.8198672" lon="12.9238091"><ele>385.0</ele><time>2026-04-05T11:02:55.982Z</time></trkpt><trkpt lat="42.8197584" lon="12.9236143"><ele>385.0</ele><time>2026-04-05T11:02:56.983Z</time></trkpt><trkpt lat="42.8196395" lon="12.9234334"><ele>385.0</ele><time>2026-04-05T11:02:57.982Z</time></trkpt><trkpt lat="42.8195113" lon="12.9233058"><ele>380.75</ele><time>2026-04-05T11:02:58.983Z</time></trkpt><trkpt lat="42.8193941" lon="12.9231692"><ele>376.5</ele><time>2026-04-05T11:02:59.982Z</time></trkpt><trkpt lat="42.8192757" lon="12.9230549"><ele>372.25</ele><time>2026-04-05T11:03:00.983Z</time></trkpt><trkpt lat="42.8191719" lon="12.9229322"><ele>368.0</ele><time>2026-04-05T11:03:01.983Z</time></trkpt><trkpt lat="42.8191206" lon="12.9227778"><ele>368.0</ele><time>2026-04-05T11:03:02.982Z</time></trkpt><trkpt lat="42.8190923" lon="12.9226134"><ele>368.0</ele><time>2026-04-05T11:03:03.983Z</time></trkpt><trkpt lat="42.8190879" lon="12.9224641"><ele>368.0</ele><time>2026-04-05T11:03:04.983Z</time></trkpt><trkpt lat="42.8192241" lon="12.9222805"><ele>368.0</ele><time>2026-04-05T11:03:05.983Z</time></trkpt><trkpt lat="42.8192966" lon="12.9221176"><ele>382.33333333333337</ele><time>2026-04-05T11:03:06.983Z</time></trkpt><trkpt lat="42.8193813" lon="12.9219469"><ele>396.6666666666667</ele><time>2026-04-05T11:03:07.983Z</time></trkpt><trkpt lat="42.8194651" lon="12.9217603"><ele>411.0</ele><time>2026-04-05T11:03:08.982Z</time></trkpt><trkpt lat="42.8195436" lon="12.9215641"><ele>411.0</ele><time>2026-04-05T11:03:09.983Z</time></trkpt><trkpt lat="42.8196072" lon="12.9213641"><ele>411.0</ele><time>2026-04-05T11:03:10.982Z</time></trkpt><trkpt lat="42.8196529" lon="12.9211641"><ele>411.0</ele><time>2026-04-05T11:03:11.983Z</time></trkpt><trkpt lat="42.819671" lon="12.9209495"><ele>407.33333333333337</ele><time>2026-04-05T11:03:12.983Z</time></trkpt><trkpt lat="42.8196595" lon="12.9207327"><ele>403.6666666666667</ele><time>2026-04-05T11:03:13.982Z</time></trkpt><trkpt lat="42.8196303" lon="12.9205157"><ele>400.0</ele><time>2026-04-05T11:03:14.983Z</time></trkpt><trkpt lat="42.8196011" lon="12.9203254"><ele>400.0</ele><time>2026-04-05T11:03:15.982Z</time></trkpt><trkpt lat="42.8195558" lon="12.9201426"><ele>400.0</ele><time>2026-04-05T11:03:16.983Z</time></trkpt><trkpt lat="42.8194948" lon="12.919981"><ele>400.0</ele><time>2026-04-05T11:03:17.983Z</time></trkpt><trkpt lat="42.8194018" lon="12.9198456"><ele>400.0</ele><time>2026-04-05T11:03:18.983Z</time></trkpt><trkpt lat="42.8192835" lon="12.9197452"><ele>391.33333333333337</ele><time>2026-04-05T11:03:19.983Z</time></trkpt><trkpt lat="42.8191392" lon="12.9196746"><ele>382.6666666666667</ele><time>2026-04-05T11:03:20.983Z</time></trkpt><trkpt lat="42.8189854" lon="12.9196272"><ele>374.0</ele><time>2026-04-05T11:03:21.983Z</time></trkpt><trkpt lat="42.8188104" lon="12.9195821"><ele>374.0</ele><time>2026-04-05T11:03:22.982Z</time></trkpt><trkpt lat="42.8186392" lon="12.9195441"><ele>374.0</ele><time>2026-04-05T11:03:23.982Z</time></trkpt><trkpt lat="42.818467" lon="12.9195305"><ele>374.0</ele><time>2026-04-05T11:03:24.982Z</time></trkpt><trkpt lat="42.8182885" lon="12.919546"><ele>368.6666666666667</ele><time>2026-04-05T11:03:25.983Z</time></trkpt><trkpt lat="42.8181072" lon="12.919586"><ele>363.3333333333333</ele><time>2026-04-05T11:03:26.982Z</time></trkpt><trkpt lat="42.8179428" lon="12.9196301"><ele>358.0</ele><time>2026-04-05T11:03:27.983Z</time></trkpt><trkpt lat="42.8177879" lon="12.9196774"><ele>358.25</ele><time>2026-04-05T11:03:28.983Z</time></trkpt><trkpt lat="42.8176475" lon="12.9197178"><ele>358.5</ele><time>2026-04-05T11:03:29.983Z</time></trkpt><trkpt lat="42.8175125" lon="12.9197173"><ele>358.75</ele><time>2026-04-05T11:03:30.983Z</time></trkpt><trkpt lat="42.8174018" lon="12.9196832"><ele>359.0</ele><time>2026-04-05T11:03:31.983Z</time></trkpt><trkpt lat="42.8172839" lon="12.9196115"><ele>359.0</ele><time>2026-04-05T11:03:32.982Z</time></trkpt><trkpt lat="42.817187" lon="12.9194926"><ele>359.0</ele><time>2026-04-05T11:03:33.983Z</time></trkpt><trkpt lat="42.8171202" lon="12.9193427"><ele>359.0</ele><time>2026-04-05T11:03:34.983Z</time></trkpt><trkpt lat="42.8171532" lon="12.919092"><ele>359.0</ele><time>2026-04-05T11:03:35.983Z</time></trkpt><trkpt lat="42.8171432" lon="12.9189037"><ele>365.0</ele><time>2026-04-05T11:03:36.983Z</time></trkpt><trkpt lat="42.8171503" lon="12.9187004"><ele>371.0</ele><time>2026-04-05T11:03:37.983Z</time></trkpt><trkpt lat="42.8171425" lon="12.9184872"><ele>377.0</ele><time>2026-04-05T11:03:38.983Z</time></trkpt><trkpt lat="42.8171163" lon="12.918275"><ele>381.33333333333337</ele><time>2026-04-05T11:03:39.983Z</time></trkpt><trkpt lat="42.8170765" lon="12.918061"><ele>385.6666666666667</ele><time>2026-04-05T11:03:40.982Z</time></trkpt><trkpt lat="42.8170299" lon="12.9178403"><ele>390.0</ele><time>2026-04-05T11:03:41.983Z</time></trkpt><trkpt lat="42.8169793" lon="12.9176182"><ele>392.33333333333337</ele><time>2026-04-05T11:03:42.983Z</time></trkpt><trkpt lat="42.8169237" lon="12.9174005"><ele>394.6666666666667</ele><time>2026-04-05T11:03:43.983Z</time></trkpt><trkpt lat="42.8169123" lon="12.9171782"><ele>397.0</ele><time>2026-04-05T11:03:44.982Z</time></trkpt><trkpt lat="42.8168464" lon="12.9169667"><ele>386.33333333333337</ele><time>2026-04-05T11:03:45.982Z</time></trkpt><trkpt lat="42.8167744" lon="12.9167582"><ele>375.6666666666667</ele><time>2026-04-05T11:03:46.983Z</time></trkpt><trkpt lat="42.8166959" lon="12.9165638"><ele>365.0</ele><time>2026-04-05T11:03:47.983Z</time></trkpt><trkpt lat="42.8165876" lon="12.9163911"><ele>365.0</ele><time>2026-04-05T11:03:48.983Z</time></trkpt><trkpt lat="42.8164679" lon="12.9162374"><ele>365.0</ele><time>2026-04-05T11:03:49.983Z</time></trkpt><trkpt lat="42.8163424" lon="12.9161127"><ele>365.0</ele><time>2026-04-05T11:03:50.982Z</time></trkpt><trkpt lat="42.8162066" lon="12.9160075"><ele>365.0</ele><time>2026-04-05T11:03:51.982Z</time></trkpt><trkpt lat="42.8160578" lon="12.9159101"><ele>365.0</ele><time>2026-04-05T11:03:52.983Z</time></trkpt><trkpt lat="42.8159071" lon="12.9158337"><ele>365.0</ele><time>2026-04-05T11:03:53.983Z</time></trkpt><trkpt lat="42.8157699" lon="12.9157789"><ele>364.75</ele><time>2026-04-05T11:03:54.982Z</time></trkpt><trkpt lat="42.8156322" lon="12.9157293"><ele>364.5</ele><time>2026-04-05T11:03:55.983Z</time></trkpt><trkpt lat="42.815514" lon="12.9156807"><ele>364.25</ele><time>2026-04-05T11:03:56.982Z</time></trkpt><trkpt lat="42.8153991" lon="12.9156313"><ele>364.0</ele><time>2026-04-05T11:03:57.982Z</time></trkpt><trkpt lat="42.8152964" lon="12.9155649"><ele>364.0</ele><time>2026-04-05T11:03:58.982Z</time></trkpt><trkpt lat="42.8151993" lon="12.9154995"><ele>364.0</ele><time>2026-04-05T11:03:59.983Z</time></trkpt><trkpt lat="42.8151067" lon="12.9154177"><ele>364.0</ele><time>2026-04-05T11:04:00.982Z</time></trkpt><trkpt lat="42.8150117" lon="12.9153184"><ele>364.0</ele><time>2026-04-05T11:04:01.983Z</time></trkpt><trkpt lat="42.8149283" lon="12.9152183"><ele>364.0</ele><time>2026-04-05T11:04:02.983Z</time></trkpt><trkpt lat="42.8148461" lon="12.9151038"><ele>363.0</ele><time>2026-04-05T11:04:03.982Z</time></trkpt><trkpt lat="42.8147601" lon="12.9149994"><ele>362.0</ele><time>2026-04-05T11:04:04.982Z</time></trkpt><trkpt lat="42.8146723" lon="12.9148957"><ele>361.0</ele><time>2026-04-05T11:04:05.983Z</time></trkpt><trkpt lat="42.8145764" lon="12.9147981"><ele>360.0</ele><time>2026-04-05T11:04:06.983Z</time></trkpt><trkpt lat="42.8144749" lon="12.9147077"><ele>360.0</ele><time>2026-04-05T11:04:07.983Z</time></trkpt><trkpt lat="42.8143699" lon="12.9146195"><ele>360.0</ele><time>2026-04-05T11:04:08.983Z</time></trkpt><trkpt lat="42.8142717" lon="12.9145272"><ele>360.0</ele><time>2026-04-05T11:04:09.983Z</time></trkpt><trkpt lat="42.8141625" lon="12.9144401"><ele>360.0</ele><time>2026-04-05T11:04:10.982Z</time></trkpt><trkpt lat="42.8140493" lon="12.9143542"><ele>359.25</ele><time>2026-04-05T11:04:11.983Z</time></trkpt><trkpt lat="42.8139417" lon="12.9142789"><ele>358.5</ele><time>2026-04-05T11:04:12.983Z</time></trkpt><trkpt lat="42.8138362" lon="12.9142048"><ele>357.75</ele><time>2026-04-05T11:04:13.983Z</time></trkpt><trkpt lat="42.8137232" lon="12.9141452"><ele>357.0</ele><time>2026-04-05T11:04:14.983Z</time></trkpt><trkpt lat="42.8136195" lon="12.9140971"><ele>359.5</ele><time>2026-04-05T11:04:15.982Z</time></trkpt><trkpt lat="42.8134978" lon="12.9140411"><ele>362.0</ele><time>2026-04-05T11:04:16.983Z</time></trkpt><trkpt lat="42.8133809" lon="12.9139963"><ele>364.5</ele><time>2026-04-05T11:04:17.982Z</time></trkpt><trkpt lat="42.813267" lon="12.9139505"><ele>367.0</ele><time>2026-04-05T11:04:18.982Z</time></trkpt><trkpt lat="42.8131508" lon="12.9138968"><ele>367.0</ele><time>2026-04-05T11:04:19.983Z</time></trkpt><trkpt lat="42.8130342" lon="12.9138502"><ele>367.0</ele><time>2026-04-05T11:04:20.983Z</time></trkpt><trkpt lat="42.8129082" lon="12.9138117"><ele>367.0</ele><time>2026-04-05T11:04:21.983Z</time></trkpt><trkpt lat="42.8127917" lon="12.9137607"><ele>367.0</ele><time>2026-04-05T11:04:22.983Z</time></trkpt><trkpt lat="42.8126745" lon="12.9137096"><ele>364.75</ele><time>2026-04-05T11:04:23.983Z</time></trkpt><trkpt lat="42.8125503" lon="12.9136669"><ele>362.5</ele><time>2026-04-05T11:04:24.983Z</time></trkpt><trkpt lat="42.8124229" lon="12.9136299"><ele>360.25</ele><time>2026-04-05T11:04:25.983Z</time></trkpt><trkpt lat="42.8122982" lon="12.9135827"><ele>358.0</ele><time>2026-04-05T11:04:26.982Z</time></trkpt><trkpt lat="42.8121714" lon="12.9135303"><ele>358.0</ele><time>2026-04-05T11:04:27.983Z</time></trkpt><trkpt lat="42.8120444" lon="12.9134749"><ele>358.0</ele><time>2026-04-05T11:04:28.983Z</time></trkpt><trkpt lat="42.8119284" lon="12.9134165"><ele>358.0</ele><time>2026-04-05T11:04:29.982Z</time></trkpt><trkpt lat="42.8118065" lon="12.9133199"><ele>358.0</ele><time>2026-04-05T11:04:30.983Z</time></trkpt><trkpt lat="42.8116913" lon="12.9132033"><ele>360.66666666666663</ele><time>2026-04-05T11:04:31.983Z</time></trkpt><trkpt lat="42.8115739" lon="12.9130534"><ele>363.3333333333333</ele><time>2026-04-05T11:04:32.983Z</time></trkpt><trkpt lat="42.8114476" lon="12.9129003"><ele>366.0</ele><time>2026-04-05T11:04:33.982Z</time></trkpt><trkpt lat="42.8113197" lon="12.9127554"><ele>366.0</ele><time>2026-04-05T11:04:34.983Z</time></trkpt><trkpt lat="42.8111896" lon="12.9126313"><ele>366.0</ele><time>2026-04-05T11:04:35.982Z</time></trkpt><trkpt lat="42.8110569" lon="12.9125233"><ele>366.0</ele><time>2026-04-05T11:04:36.982Z</time></trkpt><trkpt lat="42.8109227" lon="12.9124309"><ele>365.75</ele><time>2026-04-05T11:04:37.983Z</time></trkpt><trkpt lat="42.8108048" lon="12.9123373"><ele>365.5</ele><time>2026-04-05T11:04:38.983Z</time></trkpt><trkpt lat="42.8106917" lon="12.9122564"><ele>365.25</ele><time>2026-04-05T11:04:39.983Z</time></trkpt><trkpt lat="42.8105877" lon="12.9121746"><ele>365.0</ele><time>2026-04-05T11:04:40.983Z</time></trkpt><trkpt lat="42.8105099" lon="12.9120436"><ele>365.0</ele><time>2026-04-05T11:04:41.983Z</time></trkpt><trkpt lat="42.8104511" lon="12.9118868"><ele>365.0</ele><time>2026-04-05T11:04:42.983Z</time></trkpt><trkpt lat="42.8104134" lon="12.9117027"><ele>365.0</ele><time>2026-04-05T11:04:43.982Z</time></trkpt><trkpt lat="42.8104046" lon="12.9114993"><ele>365.0</ele><time>2026-04-05T11:04:44.982Z</time></trkpt><trkpt lat="42.8104097" lon="12.9112828"><ele>369.0</ele><time>2026-04-05T11:04:45.983Z</time></trkpt><trkpt lat="42.8104191" lon="12.9110618"><ele>373.0</ele><time>2026-04-05T11:04:46.983Z</time></trkpt><trkpt lat="42.8104416" lon="12.9108431"><ele>377.0</ele><time>2026-04-05T11:04:47.983Z</time></trkpt><trkpt lat="42.8105007" lon="12.9106285"><ele>378.0</ele><time>2026-04-05T11:04:48.982Z</time></trkpt><trkpt lat="42.810566" lon="12.9104238"><ele>379.0</ele><time>2026-04-05T11:04:49.983Z</time></trkpt><trkpt lat="42.8105882" lon="12.9102223"><ele>380.0</ele><time>2026-04-05T11:04:50.983Z</time></trkpt><trkpt lat="42.8105855" lon="12.9100199"><ele>383.33333333333337</ele><time>2026-04-05T11:04:51.983Z</time></trkpt><trkpt lat="42.8105316" lon="12.9098222"><ele>386.6666666666667</ele><time>2026-04-05T11:04:52.982Z</time></trkpt><trkpt lat="42.8104632" lon="12.9096451"><ele>390.0</ele><time>2026-04-05T11:04:53.983Z</time></trkpt><trkpt lat="42.8103652" lon="12.9094826"><ele>390.0</ele><time>2026-04-05T11:04:54.982Z</time></trkpt><trkpt lat="42.8102547" lon="12.9093344"><ele>390.0</ele><time>2026-04-05T11:04:55.983Z</time></trkpt><trkpt lat="42.8101447" lon="12.9091876"><ele>390.0</ele><time>2026-04-05T11:04:56.982Z</time></trkpt><trkpt lat="42.8100478" lon="12.909035"><ele>381.3333333333333</ele><time>2026-04-05T11:04:57.983Z</time></trkpt><trkpt lat="42.8099705" lon="12.9088566"><ele>372.66666666666663</ele><time>2026-04-05T11:04:58.983Z</time></trkpt><trkpt lat="42.8099051" lon="12.9086645"><ele>364.0</ele><time>2026-04-05T11:04:59.983Z</time></trkpt><trkpt lat="42.8098556" lon="12.9084539"><ele>366.66666666666663</ele><time>2026-04-05T11:05:00.983Z</time></trkpt><trkpt lat="42.8098234" lon="12.9082327"><ele>369.3333333333333</ele><time>2026-04-05T11:05:01.982Z</time></trkpt><trkpt lat="42.809789" lon="12.9079983"><ele>372.0</ele><time>2026-04-05T11:05:02.983Z</time></trkpt><trkpt lat="42.8097554" lon="12.9077605"><ele>374.3333333333333</ele><time>2026-04-05T11:05:03.982Z</time></trkpt><trkpt lat="42.8097232" lon="12.9075237"><ele>376.66666666666663</ele><time>2026-04-05T11:05:04.982Z</time></trkpt><trkpt lat="42.8096937" lon="12.9072829"><ele>379.0</ele><time>2026-04-05T11:05:05.982Z</time></trkpt><trkpt lat="42.8096484" lon="12.9070433"><ele>379.0</ele><time>2026-04-05T11:05:06.983Z</time></trkpt><trkpt lat="42.8095891" lon="12.9068019"><ele>379.0</ele><time>2026-04-05T11:05:07.982Z</time></trkpt><trkpt lat="42.8095172" lon="12.9065852"><ele>379.0</ele><time>2026-04-05T11:05:08.982Z</time></trkpt><trkpt lat="42.8094228" lon="12.9063827"><ele>375.0</ele><time>2026-04-05T11:05:09.983Z</time></trkpt><trkpt lat="42.8093212" lon="12.9061858"><ele>371.0</ele><time>2026-04-05T11:05:10.983Z</time></trkpt><trkpt lat="42.8092193" lon="12.9059868"><ele>367.0</ele><time>2026-04-05T11:05:11.983Z</time></trkpt><trkpt lat="42.8091151" lon="12.9058027"><ele>367.0</ele><time>2026-04-05T11:05:12.982Z</time></trkpt><trkpt lat="42.8090342" lon="12.9056243"><ele>367.0</ele><time>2026-04-05T11:05:13.983Z</time></trkpt><trkpt lat="42.8089713" lon="12.9054471"><ele>367.0</ele><time>2026-04-05T11:05:14.983Z</time></trkpt><trkpt lat="42.8089362" lon="12.9052527"><ele>367.0</ele><time>2026-04-05T11:05:15.983Z</time></trkpt><trkpt lat="42.8089212" lon="12.9050483"><ele>369.0</ele><time>2026-04-05T11:05:16.982Z</time></trkpt><trkpt lat="42.8089235" lon="12.9048367"><ele>371.0</ele><time>2026-04-05T11:05:17.982Z</time></trkpt><trkpt lat="42.8089392" lon="12.9046185"><ele>373.0</ele><time>2026-04-05T11:05:18.982Z</time></trkpt><trkpt lat="42.8089697" lon="12.9043977"><ele>372.66666666666663</ele><time>2026-04-05T11:05:19.982Z</time></trkpt><trkpt lat="42.808998" lon="12.9041753"><ele>372.3333333333333</ele><time>2026-04-05T11:05:20.983Z</time></trkpt><trkpt lat="42.8090093" lon="12.9039409"><ele>372.0</ele><time>2026-04-05T11:05:21.983Z</time></trkpt><trkpt lat="42.8090271" lon="12.9036987"><ele>372.0</ele><time>2026-04-05T11:05:22.983Z</time></trkpt><trkpt lat="42.8090293" lon="12.9034518"><ele>372.0</ele><time>2026-04-05T11:05:23.983Z</time></trkpt><trkpt lat="42.8090086" lon="12.9032073"><ele>372.0</ele><time>2026-04-05T11:05:24.983Z</time></trkpt><trkpt lat="42.808979" lon="12.9029653"><ele>372.3333333333333</ele><time>2026-04-05T11:05:25.983Z</time></trkpt><trkpt lat="42.8089493" lon="12.9027237"><ele>372.66666666666663</ele><time>2026-04-05T11:05:26.983Z</time></trkpt><trkpt lat="42.8089267" lon="12.9024812"><ele>373.0</ele><time>2026-04-05T11:05:27.982Z</time></trkpt><trkpt lat="42.8088979" lon="12.90225"><ele>374.66666666666663</ele><time>2026-04-05T11:05:28.982Z</time></trkpt><trkpt lat="42.8088762" lon="12.9020175"><ele>376.3333333333333</ele><time>2026-04-05T11:05:29.983Z</time></trkpt><trkpt lat="42.8088751" lon="12.9018022"><ele>378.0</ele><time>2026-04-05T11:05:30.982Z</time></trkpt><trkpt lat="42.8088883" lon="12.901583"><ele>378.0</ele><time>2026-04-05T11:05:31.983Z</time></trkpt><trkpt lat="42.8089195" lon="12.9013815"><ele>378.0</ele><time>2026-04-05T11:05:32.983Z</time></trkpt><trkpt lat="42.8089816" lon="12.9011887"><ele>378.0</ele><time>2026-04-05T11:05:33.983Z</time></trkpt><trkpt lat="42.8090676" lon="12.9009663"><ele>374.6666666666667</ele><time>2026-04-05T11:05:34.983Z</time></trkpt><trkpt lat="42.8091285" lon="12.9007685"><ele>371.33333333333337</ele><time>2026-04-05T11:05:35.982Z</time></trkpt><trkpt lat="42.8091844" lon="12.9005622"><ele>368.0</ele><time>2026-04-05T11:05:36.983Z</time></trkpt><trkpt lat="42.8092267" lon="12.9003427"><ele>368.0</ele><time>2026-04-05T11:05:37.983Z</time></trkpt><trkpt lat="42.8092416" lon="12.900123"><ele>368.0</ele><time>2026-04-05T11:05:38.983Z</time></trkpt><trkpt lat="42.8092499" lon="12.8999043"><ele>368.0</ele><time>2026-04-05T11:05:39.982Z</time></trkpt><trkpt lat="42.8092288" lon="12.8996912"><ele>370.6666666666667</ele><time>2026-04-05T11:05:40.983Z</time></trkpt><trkpt lat="42.8091731" lon="12.899481"><ele>373.3333333333333</ele><time>2026-04-05T11:05:41.982Z</time></trkpt><trkpt lat="42.8090946" lon="12.8992789"><ele>376.0</ele><time>2026-04-05T11:05:42.983Z</time></trkpt><trkpt lat="42.8090044" lon="12.8990809"><ele>376.0</ele><time>2026-04-05T11:05:43.982Z</time></trkpt><trkpt lat="42.8088931" lon="12.8989114"><ele>376.0</ele><time>2026-04-05T11:05:44.983Z</time></trkpt><trkpt lat="42.8087699" lon="12.8987588"><ele>376.0</ele><time>2026-04-05T11:05:45.983Z</time></trkpt><trkpt lat="42.8086367" lon="12.8986198"><ele>379.3333333333333</ele><time>2026-04-05T11:05:46.982Z</time></trkpt><trkpt lat="42.8084878" lon="12.8985002"><ele>382.66666666666663</ele><time>2026-04-05T11:05:47.983Z</time></trkpt><trkpt lat="42.8083088" lon="12.8983971"><ele>386.0</ele><time>2026-04-05T11:05:48.983Z</time></trkpt><trkpt lat="42.8081357" lon="12.8983492"><ele>386.0</ele><time>2026-04-05T11:05:49.983Z</time></trkpt><trkpt lat="42.8079671" lon="12.8983009"><ele>386.0</ele><time>2026-04-05T11:05:50.983Z</time></trkpt><trkpt lat="42.8077881" lon="12.8982449"><ele>386.0</ele><time>2026-04-05T11:05:51.982Z</time></trkpt><trkpt lat="42.8076197" lon="12.8981995"><ele>375.3333333333333</ele><time>2026-04-05T11:05:52.983Z</time></trkpt><trkpt lat="42.8074535" lon="12.8981646"><ele>364.66666666666663</ele><time>2026-04-05T11:05:53.983Z</time></trkpt><trkpt lat="42.8072848" lon="12.8981333"><ele>354.0</ele><time>2026-04-05T11:05:54.983Z</time></trkpt><trkpt lat="42.8071133" lon="12.8980848"><ele>354.0</ele><time>2026-04-05T11:05:55.983Z</time></trkpt><trkpt lat="42.8069452" lon="12.8980437"><ele>354.0</ele><time>2026-04-05T11:05:56.983Z</time></trkpt><trkpt lat="42.8067701" lon="12.8979945"><ele>354.0</ele><time>2026-04-05T11:05:57.983Z</time></trkpt><trkpt lat="42.8065948" lon="12.8979449"><ele>353.0</ele><time>2026-04-05T11:05:58.983Z</time></trkpt><trkpt lat="42.8064123" lon="12.8979026"><ele>352.0</ele><time>2026-04-05T11:05:59.982Z</time></trkpt><trkpt lat="42.8062316" lon="12.8978633"><ele>351.0</ele><time>2026-04-05T11:06:00.983Z</time></trkpt><trkpt lat="42.8060524" lon="12.8978423"><ele>350.0</ele><time>2026-04-05T11:06:01.983Z</time></trkpt><trkpt lat="42.8058641" lon="12.8978351"><ele>349.0</ele><time>2026-04-05T11:06:02.983Z</time></trkpt><trkpt lat="42.8056824" lon="12.8978399"><ele>348.0</ele><time>2026-04-05T11:06:03.983Z</time></trkpt><trkpt lat="42.8054977" lon="12.8978578"><ele>348.0</ele><time>2026-04-05T11:06:04.982Z</time></trkpt><trkpt lat="42.8053249" lon="12.897855"><ele>348.0</ele><time>2026-04-05T11:06:05.983Z</time></trkpt><trkpt lat="42.8051418" lon="12.8978419"><ele>348.0</ele><time>2026-04-05T11:06:06.983Z</time></trkpt><trkpt lat="42.8049667" lon="12.8978345"><ele>349.3333333333333</ele><time>2026-04-05T11:06:07.982Z</time></trkpt><trkpt lat="42.8048041" lon="12.8978384"><ele>350.66666666666663</ele><time>2026-04-05T11:06:08.983Z</time></trkpt><trkpt lat="42.8046501" lon="12.8978446"><ele>352.0</ele><time>2026-04-05T11:06:09.983Z</time></trkpt><trkpt lat="42.8045017" lon="12.897862"><ele>352.0</ele><time>2026-04-05T11:06:10.983Z</time></trkpt><trkpt lat="42.8043553" lon="12.8978673"><ele>352.0</ele><time>2026-04-05T11:06:11.982Z</time></trkpt><trkpt lat="42.804226" lon="12.897914"><ele>352.0</ele><time>2026-04-05T11:06:12.983Z</time></trkpt><trkpt lat="42.8040936" lon="12.8979124"><ele>352.0</ele><time>2026-04-05T11:06:13.982Z</time></trkpt><trkpt lat="42.8039582" lon="12.8978934"><ele>352.0</ele><time>2026-04-05T11:06:14.983Z</time></trkpt><trkpt lat="42.803827" lon="12.8978517"><ele>352.0</ele><time>2026-04-05T11:06:15.983Z</time></trkpt><trkpt lat="42.8037072" lon="12.8977725"><ele>352.0</ele><time>2026-04-05T11:06:16.983Z</time></trkpt><trkpt lat="42.8035883" lon="12.8976445"><ele>352.0</ele><time>2026-04-05T11:06:17.983Z</time></trkpt><trkpt lat="42.8034772" lon="12.897478"><ele>352.0</ele><time>2026-04-05T11:06:18.983Z</time></trkpt><trkpt lat="42.8033847" lon="12.8973054"><ele>352.0</ele><time>2026-04-05T11:06:19.983Z</time></trkpt><trkpt lat="42.8032712" lon="12.8971181"><ele>352.0</ele><time>2026-04-05T11:06:20.983Z</time></trkpt><trkpt lat="42.8031628" lon="12.8969232"><ele>361.3333333333333</ele><time>2026-04-05T11:06:21.983Z</time></trkpt><trkpt lat="42.8030565" lon="12.8967326"><ele>370.6666666666667</ele><time>2026-04-05T11:06:22.983Z</time></trkpt><trkpt lat="42.8029499" lon="12.8965583"><ele>380.0</ele><time>2026-04-05T11:06:23.983Z</time></trkpt><trkpt lat="42.8028428" lon="12.8964061"><ele>380.0</ele><time>2026-04-05T11:06:24.983Z</time></trkpt><trkpt lat="42.8027132" lon="12.8962757"><ele>380.0</ele><time>2026-04-05T11:06:25.983Z</time></trkpt><trkpt lat="42.802569" lon="12.8961717"><ele>380.0</ele><time>2026-04-05T11:06:26.983Z</time></trkpt><trkpt lat="42.8024193" lon="12.8960887"><ele>370.6666666666667</ele><time>2026-04-05T11:06:27.983Z</time></trkpt><trkpt lat="42.8022496" lon="12.896085"><ele>361.3333333333333</ele><time>2026-04-05T11:06:28.982Z</time></trkpt><trkpt lat="42.8020728" lon="12.8961055"><ele>352.0</ele><time>2026-04-05T11:06:29.983Z</time></trkpt><trkpt lat="42.8018964" lon="12.8961514"><ele>350.0</ele><time>2026-04-05T11:06:30.982Z</time></trkpt><trkpt lat="42.8017174" lon="12.8961961"><ele>348.0</ele><time>2026-04-05T11:06:31.983Z</time></trkpt><trkpt lat="42.8015345" lon="12.8962304"><ele>346.0</ele><time>2026-04-05T11:06:32.983Z</time></trkpt><trkpt lat="42.8013425" lon="12.8962534"><ele>346.0</ele><time>2026-04-05T11:06:33.983Z</time></trkpt><trkpt lat="42.8011537" lon="12.8962616"><ele>346.0</ele><time>2026-04-05T11:06:34.983Z</time></trkpt><trkpt lat="42.8009718" lon="12.8962487"><ele>346.0</ele><time>2026-04-05T11:06:35.983Z</time></trkpt><trkpt lat="42.8007855" lon="12.8962396"><ele>345.66666666666663</ele><time>2026-04-05T11:06:36.982Z</time></trkpt><trkpt lat="42.8006092" lon="12.8962268"><ele>345.3333333333333</ele><time>2026-04-05T11:06:37.982Z</time></trkpt><trkpt lat="42.8004385" lon="12.8961934"><ele>345.0</ele><time>2026-04-05T11:06:38.982Z</time></trkpt><trkpt lat="42.8002799" lon="12.8961648"><ele>346.0</ele><time>2026-04-05T11:06:39.983Z</time></trkpt><trkpt lat="42.800127" lon="12.896108"><ele>347.0</ele><time>2026-04-05T11:06:40.983Z</time></trkpt><trkpt lat="42.7999834" lon="12.8960403"><ele>348.0</ele><time>2026-04-05T11:06:41.983Z</time></trkpt><trkpt lat="42.7998348" lon="12.8959505"><ele>350.6666666666667</ele><time>2026-04-05T11:06:42.982Z</time></trkpt><trkpt lat="42.7996905" lon="12.8958381"><ele>353.33333333333337</ele><time>2026-04-05T11:06:43.982Z</time></trkpt><trkpt lat="42.7995581" lon="12.8957007"><ele>356.0</ele><time>2026-04-05T11:06:44.983Z</time></trkpt><trkpt lat="42.7994386" lon="12.8955509"><ele>357.0</ele><time>2026-04-05T11:06:45.982Z</time></trkpt><trkpt lat="42.799326" lon="12.8953664"><ele>358.0</ele><time>2026-04-05T11:06:46.982Z</time></trkpt><trkpt lat="42.7992142" lon="12.8951868"><ele>359.0</ele><time>2026-04-05T11:06:47.983Z</time></trkpt><trkpt lat="42.7991112" lon="12.8950145"><ele>359.0</ele><time>2026-04-05T11:06:48.983Z</time></trkpt><trkpt lat="42.799023" lon="12.8948426"><ele>359.0</ele><time>2026-04-05T11:06:49.983Z</time></trkpt><trkpt lat="42.7989463" lon="12.8946584"><ele>359.0</ele><time>2026-04-05T11:06:50.983Z</time></trkpt><trkpt lat="42.7988992" lon="12.89446"><ele>365.33333333333337</ele><time>2026-04-05T11:06:51.983Z</time></trkpt><trkpt lat="42.7988704" lon="12.894241"><ele>371.6666666666667</ele><time>2026-04-05T11:06:52.982Z</time></trkpt><trkpt lat="42.7988489" lon="12.8939897"><ele>378.0</ele><time>2026-04-05T11:06:53.983Z</time></trkpt><trkpt lat="42.7988435" lon="12.8937222"><ele>378.0</ele><time>2026-04-05T11:06:54.983Z</time></trkpt><trkpt lat="42.7988316" lon="12.8934389"><ele>378.0</ele><time>2026-04-05T11:06:55.983Z</time></trkpt><trkpt lat="42.7988172" lon="12.8931708"><ele>378.0</ele><time>2026-04-05T11:06:56.983Z</time></trkpt><trkpt lat="42.798803" lon="12.8928884"><ele>380.33333333333337</ele><time>2026-04-05T11:06:57.982Z</time></trkpt><trkpt lat="42.7987897" lon="12.8926134"><ele>382.6666666666667</ele><time>2026-04-05T11:06:58.983Z</time></trkpt><trkpt lat="42.7987718" lon="12.8923405"><ele>385.0</ele><time>2026-04-05T11:06:59.982Z</time></trkpt><trkpt lat="42.7987397" lon="12.8920671"><ele>386.33333333333337</ele><time>2026-04-05T11:07:00.982Z</time></trkpt><trkpt lat="42.7986965" lon="12.8918019"><ele>387.66666666666663</ele><time>2026-04-05T11:07:01.983Z</time></trkpt><trkpt lat="42.7986449" lon="12.8915436"><ele>389.0</ele><time>2026-04-05T11:07:02.983Z</time></trkpt><trkpt lat="42.7985845" lon="12.8912837"><ele>390.66666666666663</ele><time>2026-04-05T11:07:03.983Z</time></trkpt><trkpt lat="42.798521" lon="12.891031"><ele>392.33333333333337</ele><time>2026-04-05T11:07:04.982Z</time></trkpt><trkpt lat="42.7984598" lon="12.8908138"><ele>394.0</ele><time>2026-04-05T11:07:05.983Z</time></trkpt><trkpt lat="42.7983812" lon="12.8905917"><ele>384.0</ele><time>2026-04-05T11:07:06.983Z</time></trkpt><trkpt lat="42.7982918" lon="12.8903928"><ele>374.0</ele><time>2026-04-05T11:07:07.983Z</time></trkpt><trkpt lat="42.798178" lon="12.8902058"><ele>364.0</ele><time>2026-04-05T11:07:08.983Z</time></trkpt><trkpt lat="42.7980513" lon="12.8900215"><ele>362.66666666666663</ele><time>2026-04-05T11:07:09.983Z</time></trkpt><trkpt lat="42.7979018" lon="12.8898508"><ele>361.3333333333333</ele><time>2026-04-05T11:07:10.983Z</time></trkpt><trkpt lat="42.7977359" lon="12.8896892"><ele>360.0</ele><time>2026-04-05T11:07:11.983Z</time></trkpt><trkpt lat="42.7975695" lon="12.8895333"><ele>361.6666666666667</ele><time>2026-04-05T11:07:12.983Z</time></trkpt><trkpt lat="42.7973911" lon="12.8893814"><ele>363.33333333333337</ele><time>2026-04-05T11:07:13.983Z</time></trkpt><trkpt lat="42.7972091" lon="12.889236"><ele>365.0</ele><time>2026-04-05T11:07:14.982Z</time></trkpt><trkpt lat="42.7970437" lon="12.8890931"><ele>365.0</ele><time>2026-04-05T11:07:15.983Z</time></trkpt><trkpt lat="42.796883" lon="12.8889525"><ele>365.0</ele><time>2026-04-05T11:07:16.983Z</time></trkpt><trkpt lat="42.7967192" lon="12.8888114"><ele>365.0</ele><time>2026-04-05T11:07:17.983Z</time></trkpt><trkpt lat="42.7965548" lon="12.8886722"><ele>368.6666666666667</ele><time>2026-04-05T11:07:18.983Z</time></trkpt><trkpt lat="42.7963862" lon="12.888533"><ele>372.3333333333333</ele><time>2026-04-05T11:07:19.983Z</time></trkpt><trkpt lat="42.7962167" lon="12.8884372"><ele>376.0</ele><time>2026-04-05T11:07:20.983Z</time></trkpt><trkpt lat="42.7960294" lon="12.8883669"><ele>368.0</ele><time>2026-04-05T11:07:21.983Z</time></trkpt><trkpt lat="42.7958298" lon="12.8883048"><ele>360.0</ele><time>2026-04-05T11:07:22.983Z</time></trkpt><trkpt lat="42.7956352" lon="12.8882681"><ele>352.0</ele><time>2026-04-05T11:07:23.983Z</time></trkpt><trkpt lat="42.7954525" lon="12.8882267"><ele>352.0</ele><time>2026-04-05T11:07:24.982Z</time></trkpt><trkpt lat="42.7952562" lon="12.8881857"><ele>352.0</ele><time>2026-04-05T11:07:25.983Z</time></trkpt><trkpt lat="42.7950682" lon="12.8881254"><ele>352.0</ele><time>2026-04-05T11:07:26.983Z</time></trkpt><trkpt lat="42.7948685" lon="12.8880486"><ele>349.0</ele><time>2026-04-05T11:07:27.983Z</time></trkpt><trkpt lat="42.7946775" lon="12.8879867"><ele>346.0</ele><time>2026-04-05T11:07:28.983Z</time></trkpt><trkpt lat="42.7944907" lon="12.8879149"><ele>343.0</ele><time>2026-04-05T11:07:29.983Z</time></trkpt><trkpt lat="42.7942985" lon="12.887842"><ele>341.66666666666663</ele><time>2026-04-05T11:07:30.983Z</time></trkpt><trkpt lat="42.7940986" lon="12.8877664"><ele>340.3333333333333</ele><time>2026-04-05T11:07:31.983Z</time></trkpt><trkpt lat="42.793901" lon="12.8877001"><ele>339.0</ele><time>2026-04-05T11:07:32.983Z</time></trkpt><trkpt lat="42.7937049" lon="12.887632"><ele>343.0</ele><time>2026-04-05T11:07:33.983Z</time></trkpt><trkpt lat="42.793501" lon="12.8875546"><ele>347.0</ele><time>2026-04-05T11:07:34.983Z</time></trkpt><trkpt lat="42.7933161" lon="12.8874972"><ele>351.0</ele><time>2026-04-05T11:07:35.982Z</time></trkpt><trkpt lat="42.7931396" lon="12.8874296"><ele>351.0</ele><time>2026-04-05T11:07:36.983Z</time></trkpt><trkpt lat="42.7929733" lon="12.887371"><ele>351.0</ele><time>2026-04-05T11:07:37.983Z</time></trkpt><trkpt lat="42.7928166" lon="12.8872982"><ele>351.0</ele><time>2026-04-05T11:07:38.983Z</time></trkpt><trkpt lat="42.7926561" lon="12.8871966"><ele>347.6666666666667</ele><time>2026-04-05T11:07:39.983Z</time></trkpt><trkpt lat="42.7925011" lon="12.8870821"><ele>344.33333333333337</ele><time>2026-04-05T11:07:40.982Z</time></trkpt><trkpt lat="42.7923433" lon="12.8869549"><ele>341.0</ele><time>2026-04-05T11:07:41.983Z</time></trkpt><trkpt lat="42.7921992" lon="12.8868063"><ele>341.6666666666667</ele><time>2026-04-05T11:07:42.983Z</time></trkpt><trkpt lat="42.7920476" lon="12.886652"><ele>342.3333333333333</ele><time>2026-04-05T11:07:43.983Z</time></trkpt><trkpt lat="42.7919005" lon="12.8865014"><ele>343.0</ele><time>2026-04-05T11:07:44.982Z</time></trkpt><trkpt lat="42.7917706" lon="12.886368"><ele>343.0</ele><time>2026-04-05T11:07:45.983Z</time></trkpt><trkpt lat="42.791645" lon="12.8862338"><ele>343.0</ele><time>2026-04-05T11:07:46.983Z</time></trkpt><trkpt lat="42.7915296" lon="12.8861046"><ele>343.0</ele><time>2026-04-05T11:07:47.983Z</time></trkpt><trkpt lat="42.7914242" lon="12.8859827"><ele>343.0</ele><time>2026-04-05T11:07:48.983Z</time></trkpt><trkpt lat="42.7913195" lon="12.8858636"><ele>347.0</ele><time>2026-04-05T11:07:49.982Z</time></trkpt><trkpt lat="42.7912114" lon="12.8857386"><ele>351.0</ele><time>2026-04-05T11:07:50.982Z</time></trkpt><trkpt lat="42.7911337" lon="12.8856059"><ele>355.0</ele><time>2026-04-05T11:07:51.983Z</time></trkpt><trkpt lat="42.7910857" lon="12.8854266"><ele>359.0</ele><time>2026-04-05T11:07:52.982Z</time></trkpt><trkpt lat="42.7911049" lon="12.8851989"><ele>365.33333333333337</ele><time>2026-04-05T11:07:53.983Z</time></trkpt><trkpt lat="42.7911102" lon="12.8849755"><ele>371.6666666666667</ele><time>2026-04-05T11:07:54.983Z</time></trkpt><trkpt lat="42.7911164" lon="12.8847604"><ele>378.0</ele><time>2026-04-05T11:07:55.983Z</time></trkpt><trkpt lat="42.7911052" lon="12.884532"><ele>378.0</ele><time>2026-04-05T11:07:56.982Z</time></trkpt><trkpt lat="42.7911117" lon="12.8843065"><ele>378.0</ele><time>2026-04-05T11:07:57.983Z</time></trkpt><trkpt lat="42.7911098" lon="12.8840734"><ele>378.0</ele><time>2026-04-05T11:07:58.983Z</time></trkpt><trkpt lat="42.7911065" lon="12.8838448"><ele>377.6666666666667</ele><time>2026-04-05T11:07:59.983Z</time></trkpt><trkpt lat="42.7910979" lon="12.8836219"><ele>377.33333333333337</ele><time>2026-04-05T11:08:00.983Z</time></trkpt><trkpt lat="42.7910686" lon="12.8833931"><ele>377.0</ele><time>2026-04-05T11:08:01.982Z</time></trkpt><trkpt lat="42.7910057" lon="12.8831742"><ele>369.6666666666667</ele><time>2026-04-05T11:08:02.983Z</time></trkpt><trkpt lat="42.7909334" lon="12.882961"><ele>362.3333333333333</ele><time>2026-04-05T11:08:03.982Z</time></trkpt><trkpt lat="42.7908321" lon="12.882751"><ele>355.0</ele><time>2026-04-05T11:08:04.982Z</time></trkpt><trkpt lat="42.7907166" lon="12.8825571"><ele>355.0</ele><time>2026-04-05T11:08:05.983Z</time></trkpt><trkpt lat="42.7906048" lon="12.8823688"><ele>355.0</ele><time>2026-04-05T11:08:06.983Z</time></trkpt><trkpt lat="42.7904878" lon="12.8821894"><ele>355.0</ele><time>2026-04-05T11:08:07.983Z</time></trkpt><trkpt lat="42.79036" lon="12.8820018"><ele>355.0</ele><time>2026-04-05T11:08:08.983Z</time></trkpt><trkpt lat="42.790223" lon="12.8818289"><ele>355.0</ele><time>2026-04-05T11:08:09.983Z</time></trkpt><trkpt lat="42.7900831" lon="12.8816586"><ele>355.0</ele><time>2026-04-05T11:08:10.983Z</time></trkpt><trkpt lat="42.7899429" lon="12.8814866"><ele>352.0</ele><time>2026-04-05T11:08:11.983Z</time></trkpt><trkpt lat="42.7898005" lon="12.8813136"><ele>349.0</ele><time>2026-04-05T11:08:12.983Z</time></trkpt><trkpt lat="42.7896629" lon="12.8811374"><ele>346.0</ele><time>2026-04-05T11:08:13.983Z</time></trkpt><trkpt lat="42.7895247" lon="12.8809732"><ele>343.0</ele><time>2026-04-05T11:08:14.983Z</time></trkpt><trkpt lat="42.7893828" lon="12.8808311"><ele>340.0</ele><time>2026-04-05T11:08:15.982Z</time></trkpt><trkpt lat="42.7892279" lon="12.8806986"><ele>337.0</ele><time>2026-04-05T11:08:16.982Z</time></trkpt><trkpt lat="42.789071" lon="12.8806016"><ele>337.0</ele><time>2026-04-05T11:08:17.982Z</time></trkpt><trkpt lat="42.788914" lon="12.8805235"><ele>337.0</ele><time>2026-04-05T11:08:18.983Z</time></trkpt><trkpt lat="42.7887689" lon="12.8804572"><ele>337.0</ele><time>2026-04-05T11:08:19.983Z</time></trkpt><trkpt lat="42.7886342" lon="12.8803938"><ele>336.5</ele><time>2026-04-05T11:08:20.983Z</time></trkpt><trkpt lat="42.7885044" lon="12.8803241"><ele>336.0</ele><time>2026-04-05T11:08:21.982Z</time></trkpt><trkpt lat="42.7883932" lon="12.880217"><ele>335.5</ele><time>2026-04-05T11:08:22.983Z</time></trkpt><trkpt lat="42.7882955" lon="12.8800853"><ele>335.0</ele><time>2026-04-05T11:08:23.983Z</time></trkpt><trkpt lat="42.7882102" lon="12.8799174"><ele>339.6666666666667</ele><time>2026-04-05T11:08:24.982Z</time></trkpt><trkpt lat="42.78814" lon="12.8797309"><ele>344.3333333333333</ele><time>2026-04-05T11:08:25.983Z</time></trkpt><trkpt lat="42.788078" lon="12.8795231"><ele>349.0</ele><time>2026-04-05T11:08:26.983Z</time></trkpt><trkpt lat="42.7880129" lon="12.8793032"><ele>356.66666666666663</ele><time>2026-04-05T11:08:27.983Z</time></trkpt><trkpt lat="42.7879486" lon="12.8790863"><ele>364.3333333333333</ele><time>2026-04-05T11:08:28.983Z</time></trkpt><trkpt lat="42.7878793" lon="12.8788776"><ele>372.0</ele><time>2026-04-05T11:08:29.983Z</time></trkpt><trkpt lat="42.7878103" lon="12.8786673"><ele>372.0</ele><time>2026-04-05T11:08:30.983Z</time></trkpt><trkpt lat="42.787741" lon="12.8784591"><ele>372.0</ele><time>2026-04-05T11:08:31.983Z</time></trkpt><trkpt lat="42.787668" lon="12.8782483"><ele>372.0</ele><time>2026-04-05T11:08:32.983Z</time></trkpt><trkpt lat="42.7876" lon="12.8780314"><ele>363.3333333333333</ele><time>2026-04-05T11:08:33.983Z</time></trkpt><trkpt lat="42.7875336" lon="12.8778076"><ele>354.66666666666663</ele><time>2026-04-05T11:08:34.983Z</time></trkpt><trkpt lat="42.7874592" lon="12.877579"><ele>346.0</ele><time>2026-04-05T11:08:35.983Z</time></trkpt><trkpt lat="42.7873848" lon="12.8773535"><ele>346.0</ele><time>2026-04-05T11:08:36.982Z</time></trkpt><trkpt lat="42.7873137" lon="12.8771276"><ele>346.0</ele><time>2026-04-05T11:08:37.983Z</time></trkpt><trkpt lat="42.7872466" lon="12.8769034"><ele>346.0</ele><time>2026-04-05T11:08:38.982Z</time></trkpt><trkpt lat="42.7871881" lon="12.8766684"><ele>355.0</ele><time>2026-04-05T11:08:39.983Z</time></trkpt><trkpt lat="42.7871325" lon="12.8764268"><ele>364.0</ele><time>2026-04-05T11:08:40.982Z</time></trkpt><trkpt lat="42.7870745" lon="12.8761779"><ele>373.0</ele><time>2026-04-05T11:08:41.983Z</time></trkpt><trkpt lat="42.7870109" lon="12.8759363"><ele>376.66666666666663</ele><time>2026-04-05T11:08:42.983Z</time></trkpt><trkpt lat="42.7869552" lon="12.8756801"><ele>380.3333333333333</ele><time>2026-04-05T11:08:43.982Z</time></trkpt><trkpt lat="42.7869018" lon="12.8754319"><ele>384.0</ele><time>2026-04-05T11:08:44.983Z</time></trkpt><trkpt lat="42.7868446" lon="12.8751985"><ele>369.0</ele><time>2026-04-05T11:08:45.983Z</time></trkpt><trkpt lat="42.7867713" lon="12.874973"><ele>354.0</ele><time>2026-04-05T11:08:46.983Z</time></trkpt><trkpt lat="42.7866838" lon="12.8747603"><ele>339.0</ele><time>2026-04-05T11:08:47.983Z</time></trkpt><trkpt lat="42.7865722" lon="12.8745647"><ele>339.0</ele><time>2026-04-05T11:08:48.983Z</time></trkpt><trkpt lat="42.7864293" lon="12.8744031"><ele>339.0</ele><time>2026-04-05T11:08:49.982Z</time></trkpt><trkpt lat="42.7862711" lon="12.8742579"><ele>339.0</ele><time>2026-04-05T11:08:50.982Z</time></trkpt><trkpt lat="42.7861008" lon="12.8741418"><ele>337.6666666666667</ele><time>2026-04-05T11:08:51.983Z</time></trkpt><trkpt lat="42.7859222" lon="12.8740462"><ele>336.33333333333337</ele><time>2026-04-05T11:08:52.983Z</time></trkpt><trkpt lat="42.7857442" lon="12.8739607"><ele>335.0</ele><time>2026-04-05T11:08:53.983Z</time></trkpt><trkpt lat="42.7855584" lon="12.8738977"><ele>335.0</ele><time>2026-04-05T11:08:54.983Z</time></trkpt><trkpt lat="42.7853708" lon="12.8738401"><ele>335.0</ele><time>2026-04-05T11:08:55.983Z</time></trkpt><trkpt lat="42.7851726" lon="12.8738253"><ele>335.0</ele><time>2026-04-05T11:08:56.982Z</time></trkpt><trkpt lat="42.7849705" lon="12.8738141"><ele>333.33333333333337</ele><time>2026-04-05T11:08:57.983Z</time></trkpt><trkpt lat="42.7847955" lon="12.8738295"><ele>331.6666666666667</ele><time>2026-04-05T11:08:58.983Z</time></trkpt><trkpt lat="42.7846198" lon="12.87382"><ele>330.0</ele><time>2026-04-05T11:08:59.983Z</time></trkpt><trkpt lat="42.7844543" lon="12.8738059"><ele>328.75</ele><time>2026-04-05T11:09:00.983Z</time></trkpt><trkpt lat="42.7843235" lon="12.8737924"><ele>327.5</ele><time>2026-04-05T11:09:01.983Z</time></trkpt><trkpt lat="42.7841925" lon="12.873738"><ele>326.25</ele><time>2026-04-05T11:09:02.983Z</time></trkpt><trkpt lat="42.784051" lon="12.8736381"><ele>325.0</ele><time>2026-04-05T11:09:03.982Z</time></trkpt><trkpt lat="42.783917" lon="12.8735133"><ele>332.0</ele><time>2026-04-05T11:09:04.983Z</time></trkpt><trkpt lat="42.7837891" lon="12.8733935"><ele>339.0</ele><time>2026-04-05T11:09:05.983Z</time></trkpt><trkpt lat="42.7836835" lon="12.873264"><ele>346.0</ele><time>2026-04-05T11:09:06.983Z</time></trkpt><trkpt lat="42.7835983" lon="12.8731269"><ele>353.0</ele><time>2026-04-05T11:09:07.983Z</time></trkpt><trkpt lat="42.7835454" lon="12.8729642"><ele>353.0</ele><time>2026-04-05T11:09:08.983Z</time></trkpt><trkpt lat="42.7835282" lon="12.872789"><ele>353.0</ele><time>2026-04-05T11:09:09.982Z</time></trkpt><trkpt lat="42.7835159" lon="12.8725838"><ele>353.0</ele><time>2026-04-05T11:09:10.982Z</time></trkpt><trkpt lat="42.7835303" lon="12.8723708"><ele>353.0</ele><time>2026-04-05T11:09:11.983Z</time></trkpt><trkpt lat="42.7835311" lon="12.8721581"><ele>346.0</ele><time>2026-04-05T11:09:12.983Z</time></trkpt><trkpt lat="42.7835307" lon="12.8719438"><ele>339.0</ele><time>2026-04-05T11:09:13.982Z</time></trkpt><trkpt lat="42.7835274" lon="12.8717"><ele>332.0</ele><time>2026-04-05T11:09:14.982Z</time></trkpt><trkpt lat="42.783491" lon="12.87144"><ele>373.0</ele><time>2026-04-05T11:09:15.983Z</time></trkpt><trkpt lat="42.7870745" lon="12.8761779"><ele>376.66666666666663</ele><time>2026-04-05T11:08:41.983Z</time></trkpt><trkpt lat="42.7870109" lon="12.8759363"><ele>380.3333333333333</ele><time>2026-04-05T11:08:42.983Z</time></trkpt><trkpt lat="42.7869552" lon="12.8756801"><ele>384.0</ele><time>2026-04-05T11:08:43.982Z</time></trkpt><trkpt lat="42.7869018" lon="12.8754319"><ele>384.0</ele><time>2026-04-05T11:08:44.983Z</time></trkpt><trkpt lat="42.7868446" lon="12.8751985"><ele>384.0</ele><time>2026-04-05T11:08:45.983Z</time></trkpt><trkpt lat="42.7867713" lon="12.874973"><ele>384.0</ele><time>2026-04-05T11:08:46.983Z</time></trkpt><trkpt lat="42.7866838" lon="12.8747603"><ele>378.3333333333333</ele><time>2026-04-05T11:08:47.983Z</time></trkpt><trkpt lat="42.7865722" lon="12.8745647"><ele>372.66666666666663</ele><time>2026-04-05T11:08:48.983Z</time></trkpt><trkpt lat="42.7864293" lon="12.8744031"><ele>367.0</ele><time>2026-04-05T11:08:49.982Z</time></trkpt><trkpt lat="42.7862711" lon="12.8742579"><ele>367.0</ele><time>2026-04-05T11:08:50.982Z</time></trkpt><trkpt lat="42.7861008" lon="12.8741418"><ele>367.0</ele><time>2026-04-05T11:08:51.983Z</time></trkpt><trkpt lat="42.7859222" lon="12.8740462"><ele>367.0</ele><time>2026-04-05T11:08:52.983Z</time></trkpt><trkpt lat="42.7857442" lon="12.8739607"><ele>356.3333333333333</ele><time>2026-04-05T11:08:53.983Z</time></trkpt><trkpt lat="42.7855584" lon="12.8738977"><ele>345.6666666666667</ele><time>2026-04-05T11:08:54.983Z</time></trkpt><trkpt lat="42.7853708" lon="12.8738401"><ele>335.0</ele><time>2026-04-05T11:08:55.983Z</time></trkpt><trkpt lat="42.7851726" lon="12.8738253"><ele>333.33333333333337</ele><time>2026-04-05T11:08:56.982Z</time></trkpt><trkpt lat="42.7849705" lon="12.8738141"><ele>331.6666666666667</ele><time>2026-04-05T11:08:57.983Z</time></trkpt><trkpt lat="42.7847955" lon="12.8738295"><ele>330.0</ele><time>2026-04-05T11:08:58.983Z</time></trkpt><trkpt lat="42.7846198" lon="12.87382"><ele>330.0</ele><time>2026-04-05T11:08:59.983Z</time></trkpt><trkpt lat="42.7844543" lon="12.8738059"><ele>330.0</ele><time>2026-04-05T11:09:00.983Z</time></trkpt><trkpt lat="42.7843235" lon="12.8737924"><ele>330.0</ele><time>2026-04-05T11:09:01.983Z</time></trkpt><trkpt lat="42.7841925" lon="12.873738"><ele>330.0</ele><time>2026-04-05T11:09:02.983Z</time></trkpt><trkpt lat="42.784051" lon="12.8736381"><ele>328.3333333333333</ele><time>2026-04-05T11:09:03.982Z</time></trkpt><trkpt lat="42.783917" lon="12.8735133"><ele>326.66666666666663</ele><time>2026-04-05T11:09:04.983Z</time></trkpt><trkpt lat="42.7837891" lon="12.8733935"><ele>325.0</ele><time>2026-04-05T11:09:05.983Z</time></trkpt><trkpt lat="42.7836835" lon="12.873264"><ele>332.0</ele><time>2026-04-05T11:09:06.983Z</time></trkpt><trkpt lat="42.7835983" lon="12.8731269"><ele>339.0</ele><time>2026-04-05T11:09:07.983Z</time></trkpt><trkpt lat="42.7835454" lon="12.8729642"><ele>346.0</ele><time>2026-04-05T11:09:08.983Z</time></trkpt><trkpt lat="42.7835282" lon="12.872789"><ele>353.0</ele><time>2026-04-05T11:09:09.982Z</time></trkpt><trkpt lat="42.7835159" lon="12.8725838"><ele>361.33333333333337</ele><time>2026-04-05T11:09:10.982Z</time></trkpt><trkpt lat="42.7835303" lon="12.8723708"><ele>369.6666666666667</ele><time>2026-04-05T11:09:11.983Z</time></trkpt><trkpt lat="42.7835311" lon="12.8721581"><ele>378.0</ele><time>2026-04-05T11:09:12.983Z</time></trkpt><trkpt lat="42.7835307" lon="12.8719438"><ele>383.0</ele><time>2026-04-05T11:09:13.982Z</time></trkpt><trkpt lat="42.7835274" lon="12.8717"><ele>388.0</ele><time>2026-04-05T11:09:14.982Z</time></trkpt><trkpt lat="42.783491" lon="12.87144"><ele>393.0</ele><time>2026-04-05T11:09:15.983Z</time></trkpt><trkpt lat="42.7834344" lon="12.8711952"><ele>373.3333333333333</ele><time>2026-04-05T11:09:16.983Z</time></trkpt><trkpt lat="42.7833654" lon="12.8709555"><ele>353.66666666666663</ele><time>2026-04-05T11:09:17.983Z</time></trkpt><trkpt lat="42.7832879" lon="12.8707226"><ele>334.0</ele><time>2026-04-05T11:09:18.983Z</time></trkpt><trkpt lat="42.7832112" lon="12.8704873"><ele>334.0</ele><time>2026-04-05T11:09:19.983Z</time></trkpt><trkpt lat="42.7831407" lon="12.8702657"><ele>334.0</ele><time>2026-04-05T11:09:20.982Z</time></trkpt><trkpt lat="42.7830575" lon="12.8700602"><ele>334.0</ele><time>2026-04-05T11:09:21.983Z</time></trkpt><trkpt lat="42.7829483" lon="12.8698828"><ele>332.66666666666663</ele><time>2026-04-05T11:09:22.982Z</time></trkpt><trkpt lat="42.7828107" lon="12.8697259"><ele>331.3333333333333</ele><time>2026-04-05T11:09:23.982Z</time></trkpt><trkpt lat="42.7826676" lon="12.8695914"><ele>330.0</ele><time>2026-04-05T11:09:24.983Z</time></trkpt><trkpt lat="42.7825281" lon="12.8694696"><ele>328.0</ele><time>2026-04-05T11:09:25.982Z</time></trkpt><trkpt lat="42.7823785" lon="12.8693396"><ele>326.0</ele><time>2026-04-05T11:09:26.983Z</time></trkpt><trkpt lat="42.7822345" lon="12.869202"><ele>324.0</ele><time>2026-04-05T11:09:27.983Z</time></trkpt><trkpt lat="42.7820997" lon="12.8690473"><ele>324.3333333333333</ele><time>2026-04-05T11:09:28.983Z</time></trkpt><trkpt lat="42.7819596" lon="12.8688972"><ele>324.66666666666663</ele><time>2026-04-05T11:09:29.982Z</time></trkpt><trkpt lat="42.7817957" lon="12.8688202"><ele>325.0</ele><time>2026-04-05T11:09:30.983Z</time></trkpt><trkpt lat="42.7816165" lon="12.8687744"><ele>325.0</ele><time>2026-04-05T11:09:31.982Z</time></trkpt><trkpt lat="42.7814145" lon="12.8687514"><ele>325.0</ele><time>2026-04-05T11:09:32.982Z</time></trkpt><trkpt lat="42.7812261" lon="12.8687272"><ele>325.0</ele><time>2026-04-05T11:09:33.983Z</time></trkpt><trkpt lat="42.7810214" lon="12.8686764"><ele>324.0</ele><time>2026-04-05T11:09:34.983Z</time></trkpt><trkpt lat="42.7808237" lon="12.8685908"><ele>323.0</ele><time>2026-04-05T11:09:35.982Z</time></trkpt><trkpt lat="42.7806303" lon="12.8685429"><ele>322.0</ele><time>2026-04-05T11:09:36.983Z</time></trkpt><trkpt lat="42.7804463" lon="12.8684862"><ele>325.3333333333333</ele><time>2026-04-05T11:09:37.983Z</time></trkpt><trkpt lat="42.7802586" lon="12.8684387"><ele>328.6666666666667</ele><time>2026-04-05T11:09:38.983Z</time></trkpt><trkpt lat="42.7800722" lon="12.8683728"><ele>332.0</ele><time>2026-04-05T11:09:39.983Z</time></trkpt><trkpt lat="42.7798867" lon="12.8683219"><ele>332.0</ele><time>2026-04-05T11:09:40.983Z</time></trkpt><trkpt lat="42.7796998" lon="12.8682639"><ele>332.0</ele><time>2026-04-05T11:09:41.983Z</time></trkpt><trkpt lat="42.7795125" lon="12.8682044"><ele>332.0</ele><time>2026-04-05T11:09:42.983Z</time></trkpt><trkpt lat="42.7793322" lon="12.8681369"><ele>331.0</ele><time>2026-04-05T11:09:43.983Z</time></trkpt><trkpt lat="42.7791558" lon="12.8680686"><ele>330.0</ele><time>2026-04-05T11:09:44.982Z</time></trkpt><trkpt lat="42.7789698" lon="12.868007"><ele>329.0</ele><time>2026-04-05T11:09:45.983Z</time></trkpt><trkpt lat="42.7787951" lon="12.8679439"><ele>329.0</ele><time>2026-04-05T11:09:46.983Z</time></trkpt><trkpt lat="42.77862" lon="12.8678966"><ele>329.0</ele><time>2026-04-05T11:09:47.983Z</time></trkpt><trkpt lat="42.7784431" lon="12.8678787"><ele>329.0</ele><time>2026-04-05T11:09:48.982Z</time></trkpt><trkpt lat="42.7782702" lon="12.8678726"><ele>327.33333333333337</ele><time>2026-04-05T11:09:49.983Z</time></trkpt><trkpt lat="42.7780995" lon="12.8678802"><ele>325.6666666666667</ele><time>2026-04-05T11:09:50.983Z</time></trkpt><trkpt lat="42.7779346" lon="12.867899"><ele>324.0</ele><time>2026-04-05T11:09:51.983Z</time></trkpt><trkpt lat="42.7777678" lon="12.8679116"><ele>324.0</ele><time>2026-04-05T11:09:52.982Z</time></trkpt><trkpt lat="42.7776069" lon="12.8679159"><ele>324.0</ele><time>2026-04-05T11:09:53.982Z</time></trkpt><trkpt lat="42.7774422" lon="12.867899"><ele>324.0</ele><time>2026-04-05T11:09:54.983Z</time></trkpt><trkpt lat="42.7772783" lon="12.8678452"><ele>324.0</ele><time>2026-04-05T11:09:55.983Z</time></trkpt><trkpt lat="42.7771202" lon="12.8677619"><ele>324.0</ele><time>2026-04-05T11:09:56.983Z</time></trkpt><trkpt lat="42.7769612" lon="12.8676521"><ele>324.0</ele><time>2026-04-05T11:09:57.983Z</time></trkpt><trkpt lat="42.7767974" lon="12.8675192"><ele>326.3333333333333</ele><time>2026-04-05T11:09:58.983Z</time></trkpt><trkpt lat="42.7766359" lon="12.8673891"><ele>328.66666666666663</ele><time>2026-04-05T11:09:59.983Z</time></trkpt><trkpt lat="42.7764759" lon="12.8672604"><ele>331.0</ele><time>2026-04-05T11:10:00.983Z</time></trkpt><trkpt lat="42.7763103" lon="12.8671481"><ele>331.0</ele><time>2026-04-05T11:10:01.983Z</time></trkpt><trkpt lat="42.7761466" lon="12.8670394"><ele>331.0</ele><time>2026-04-05T11:10:02.983Z</time></trkpt><trkpt lat="42.7759684" lon="12.8669504"><ele>331.0</ele><time>2026-04-05T11:10:03.983Z</time></trkpt><trkpt lat="42.7757752" lon="12.8668571"><ele>327.0</ele><time>2026-04-05T11:10:04.983Z</time></trkpt><trkpt lat="42.7755892" lon="12.8667906"><ele>323.0</ele><time>2026-04-05T11:10:05.983Z</time></trkpt><trkpt lat="42.7753996" lon="12.8667111"><ele>319.0</ele><time>2026-04-05T11:10:06.983Z</time></trkpt><trkpt lat="42.7752132" lon="12.8666427"><ele>323.3333333333333</ele><time>2026-04-05T11:10:07.983Z</time></trkpt><trkpt lat="42.77502" lon="12.8665685"><ele>327.6666666666667</ele><time>2026-04-05T11:10:08.983Z</time></trkpt><trkpt lat="42.7748301" lon="12.8664973"><ele>332.0</ele><time>2026-04-05T11:10:09.983Z</time></trkpt><trkpt lat="42.7746371" lon="12.8664627"><ele>332.0</ele><time>2026-04-05T11:10:10.983Z</time></trkpt><trkpt lat="42.7744293" lon="12.8664265"><ele>332.0</ele><time>2026-04-05T11:10:11.983Z</time></trkpt><trkpt lat="42.7742424" lon="12.8664055"><ele>332.0</ele><time>2026-04-05T11:10:12.983Z</time></trkpt><trkpt lat="42.7740537" lon="12.8663736"><ele>329.0</ele><time>2026-04-05T11:10:13.983Z</time></trkpt><trkpt lat="42.773854" lon="12.8663398"><ele>326.0</ele><time>2026-04-05T11:10:14.983Z</time></trkpt><trkpt lat="42.7736665" lon="12.8663025"><ele>323.0</ele><time>2026-04-05T11:10:15.983Z</time></trkpt><trkpt lat="42.7734856" lon="12.8662528"><ele>321.6666666666667</ele><time>2026-04-05T11:10:16.982Z</time></trkpt><trkpt lat="42.7733063" lon="12.8661881"><ele>320.3333333333333</ele><time>2026-04-05T11:10:17.983Z</time></trkpt><trkpt lat="42.7731217" lon="12.8661078"><ele>319.0</ele><time>2026-04-05T11:10:18.983Z</time></trkpt><trkpt lat="42.772946" lon="12.8660159"><ele>320.0</ele><time>2026-04-05T11:10:19.983Z</time></trkpt><trkpt lat="42.7727674" lon="12.8659224"><ele>321.0</ele><time>2026-04-05T11:10:20.983Z</time></trkpt><trkpt lat="42.7725857" lon="12.8658247"><ele>322.0</ele><time>2026-04-05T11:10:21.983Z</time></trkpt><trkpt lat="42.7723991" lon="12.8657174"><ele>322.0</ele><time>2026-04-05T11:10:22.983Z</time></trkpt><trkpt lat="42.7722216" lon="12.865619"><ele>322.0</ele><time>2026-04-05T11:10:23.983Z</time></trkpt><trkpt lat="42.7720368" lon="12.8655152"><ele>322.0</ele><time>2026-04-05T11:10:24.982Z</time></trkpt><trkpt lat="42.7718502" lon="12.865417"><ele>320.66666666666663</ele><time>2026-04-05T11:10:25.983Z</time></trkpt><trkpt lat="42.7716594" lon="12.8653157"><ele>319.3333333333333</ele><time>2026-04-05T11:10:26.983Z</time></trkpt><trkpt lat="42.7714732" lon="12.8652146"><ele>318.0</ele><time>2026-04-05T11:10:27.982Z</time></trkpt><trkpt lat="42.7712977" lon="12.8651101"><ele>320.3333333333333</ele><time>2026-04-05T11:10:28.983Z</time></trkpt><trkpt lat="42.7711251" lon="12.8650048"><ele>322.66666666666663</ele><time>2026-04-05T11:10:29.983Z</time></trkpt><trkpt lat="42.7709642" lon="12.8649111"><ele>325.0</ele><time>2026-04-05T11:10:30.983Z</time></trkpt><trkpt lat="42.7708057" lon="12.8648258"><ele>325.0</ele><time>2026-04-05T11:10:31.983Z</time></trkpt><trkpt lat="42.7706708" lon="12.8647387"><ele>325.0</ele><time>2026-04-05T11:10:32.982Z</time></trkpt><trkpt lat="42.7705111" lon="12.8646514"><ele>325.0</ele><time>2026-04-05T11:10:33.983Z</time></trkpt><trkpt lat="42.7703567" lon="12.8645631"><ele>325.0</ele><time>2026-04-05T11:10:34.983Z</time></trkpt><trkpt lat="42.7701982" lon="12.8644742"><ele>325.0</ele><time>2026-04-05T11:10:35.983Z</time></trkpt><trkpt lat="42.7700414" lon="12.8643851"><ele>325.0</ele><time>2026-04-05T11:10:36.983Z</time></trkpt><trkpt lat="42.7698887" lon="12.8642973"><ele>326.0</ele><time>2026-04-05T11:10:37.983Z</time></trkpt><trkpt lat="42.7697423" lon="12.8641961"><ele>327.0</ele><time>2026-04-05T11:10:38.982Z</time></trkpt><trkpt lat="42.7695911" lon="12.8641068"><ele>328.0</ele><time>2026-04-05T11:10:39.983Z</time></trkpt><trkpt lat="42.7694559" lon="12.8640162"><ele>324.75</ele><time>2026-04-05T11:10:40.982Z</time></trkpt><trkpt lat="42.7693255" lon="12.8639329"><ele>321.5</ele><time>2026-04-05T11:10:41.983Z</time></trkpt><trkpt lat="42.7692041" lon="12.8638538"><ele>318.25</ele><time>2026-04-05T11:10:42.983Z</time></trkpt><trkpt lat="42.7690764" lon="12.8637731"><ele>315.0</ele><time>2026-04-05T11:10:43.983Z</time></trkpt><trkpt lat="42.7689646" lon="12.8636901"><ele>315.0</ele><time>2026-04-05T11:10:44.983Z</time></trkpt><trkpt lat="42.768836" lon="12.8636003"><ele>315.0</ele><time>2026-04-05T11:10:45.983Z</time></trkpt><trkpt lat="42.7687106" lon="12.8635195"><ele>315.0</ele><time>2026-04-05T11:10:46.983Z</time></trkpt><trkpt lat="42.7685805" lon="12.8634438"><ele>315.0</ele><time>2026-04-05T11:10:47.983Z</time></trkpt><trkpt lat="42.7684522" lon="12.8633526"><ele>314.75</ele><time>2026-04-05T11:10:48.983Z</time></trkpt><trkpt lat="42.7683206" lon="12.8632784"><ele>314.5</ele><time>2026-04-05T11:10:49.983Z</time></trkpt><trkpt lat="42.7681901" lon="12.8631871"><ele>314.25</ele><time>2026-04-05T11:10:50.982Z</time></trkpt><trkpt lat="42.7680599" lon="12.8630985"><ele>314.0</ele><time>2026-04-05T11:10:51.983Z</time></trkpt><trkpt lat="42.7679304" lon="12.8630092"><ele>314.0</ele><time>2026-04-05T11:10:52.982Z</time></trkpt><trkpt lat="42.7677993" lon="12.8629129"><ele>314.0</ele><time>2026-04-05T11:10:53.982Z</time></trkpt><trkpt lat="42.7676679" lon="12.8628176"><ele>314.0</ele><time>2026-04-05T11:10:54.983Z</time></trkpt><trkpt lat="42.7675251" lon="12.8627295"><ele>314.0</ele><time>2026-04-05T11:10:55.983Z</time></trkpt><trkpt lat="42.7673891" lon="12.8626426"><ele>314.0</ele><time>2026-04-05T11:10:56.983Z</time></trkpt><trkpt lat="42.7672505" lon="12.8625535"><ele>314.0</ele><time>2026-04-05T11:10:57.983Z</time></trkpt><trkpt lat="42.7671063" lon="12.8624651"><ele>314.0</ele><time>2026-04-05T11:10:58.983Z</time></trkpt><trkpt lat="42.7669613" lon="12.8623688"><ele>314.0</ele><time>2026-04-05T11:10:59.983Z</time></trkpt><trkpt lat="42.7668136" lon="12.8622821"><ele>314.0</ele><time>2026-04-05T11:11:00.982Z</time></trkpt><trkpt lat="42.7666642" lon="12.8621789"><ele>313.33333333333337</ele><time>2026-04-05T11:11:01.982Z</time></trkpt><trkpt lat="42.7665115" lon="12.8620755"><ele>312.6666666666667</ele><time>2026-04-05T11:11:02.983Z</time></trkpt><trkpt lat="42.7663566" lon="12.8619708"><ele>312.0</ele><time>2026-04-05T11:11:03.983Z</time></trkpt><trkpt lat="42.7662034" lon="12.8618663"><ele>313.0</ele><time>2026-04-05T11:11:04.983Z</time></trkpt><trkpt lat="42.766041" lon="12.8617619"><ele>314.0</ele><time>2026-04-05T11:11:05.982Z</time></trkpt><trkpt lat="42.7658861" lon="12.8616619"><ele>315.0</ele><time>2026-04-05T11:11:06.983Z</time></trkpt><trkpt lat="42.7657289" lon="12.8615711"><ele>315.0</ele><time>2026-04-05T11:11:07.982Z</time></trkpt><trkpt lat="42.765573" lon="12.8615052"><ele>315.0</ele><time>2026-04-05T11:11:08.983Z</time></trkpt><trkpt lat="42.7654131" lon="12.8614538"><ele>315.0</ele><time>2026-04-05T11:11:09.983Z</time></trkpt><trkpt lat="42.7652479" lon="12.8614271"><ele>315.6666666666667</ele><time>2026-04-05T11:11:10.983Z</time></trkpt><trkpt lat="42.7650673" lon="12.8614115"><ele>316.33333333333337</ele><time>2026-04-05T11:11:11.983Z</time></trkpt><trkpt lat="42.764897" lon="12.8613915"><ele>317.0</ele><time>2026-04-05T11:11:12.983Z</time></trkpt><trkpt lat="42.7647257" lon="12.8613551"><ele>317.0</ele><time>2026-04-05T11:11:13.982Z</time></trkpt><trkpt lat="42.7645553" lon="12.8613048"><ele>317.0</ele><time>2026-04-05T11:11:14.982Z</time></trkpt><trkpt lat="42.7643874" lon="12.8612315"><ele>317.0</ele><time>2026-04-05T11:11:15.983Z</time></trkpt><trkpt lat="42.7642405" lon="12.8611481"><ele>315.0</ele><time>2026-04-05T11:11:16.983Z</time></trkpt><trkpt lat="42.7640661" lon="12.8610439"><ele>313.0</ele><time>2026-04-05T11:11:17.982Z</time></trkpt><trkpt lat="42.7638926" lon="12.8609417"><ele>311.0</ele><time>2026-04-05T11:11:18.982Z</time></trkpt><trkpt lat="42.7637114" lon="12.8608363"><ele>314.0</ele><time>2026-04-05T11:11:19.983Z</time></trkpt><trkpt lat="42.7635344" lon="12.860732"><ele>317.0</ele><time>2026-04-05T11:11:20.983Z</time></trkpt><trkpt lat="42.7633556" lon="12.8606223"><ele>320.0</ele><time>2026-04-05T11:11:21.983Z</time></trkpt><trkpt lat="42.7631737" lon="12.8605064"><ele>320.0</ele><time>2026-04-05T11:11:22.983Z</time></trkpt><trkpt lat="42.7629851" lon="12.8603969"><ele>320.0</ele><time>2026-04-05T11:11:23.983Z</time></trkpt><trkpt lat="42.762812" lon="12.8602805"><ele>320.0</ele><time>2026-04-05T11:11:24.983Z</time></trkpt><trkpt lat="42.7626328" lon="12.8601482"><ele>321.6666666666667</ele><time>2026-04-05T11:11:25.983Z</time></trkpt><trkpt lat="42.762457" lon="12.8600271"><ele>323.3333333333333</ele><time>2026-04-05T11:11:26.982Z</time></trkpt><trkpt lat="42.762287" lon="12.8599076"><ele>325.0</ele><time>2026-04-05T11:11:27.982Z</time></trkpt><trkpt lat="42.7621175" lon="12.8597893"><ele>325.0</ele><time>2026-04-05T11:11:28.983Z</time></trkpt><trkpt lat="42.7619382" lon="12.8596718"><ele>325.0</ele><time>2026-04-05T11:11:29.983Z</time></trkpt><trkpt lat="42.761767" lon="12.8595538"><ele>325.0</ele><time>2026-04-05T11:11:30.983Z</time></trkpt><trkpt lat="42.7615902" lon="12.8594335"><ele>320.66666666666663</ele><time>2026-04-05T11:11:31.983Z</time></trkpt><trkpt lat="42.7614228" lon="12.8593228"><ele>316.3333333333333</ele><time>2026-04-05T11:11:32.983Z</time></trkpt><trkpt lat="42.761247" lon="12.859216"><ele>312.0</ele><time>2026-04-05T11:11:33.983Z</time></trkpt><trkpt lat="42.7610676" lon="12.8591074"><ele>316.0</ele><time>2026-04-05T11:11:34.983Z</time></trkpt><trkpt lat="42.7608953" lon="12.8590129"><ele>320.0</ele><time>2026-04-05T11:11:35.983Z</time></trkpt><trkpt lat="42.7607214" lon="12.8589263"><ele>324.0</ele><time>2026-04-05T11:11:36.982Z</time></trkpt><trkpt lat="42.7605354" lon="12.8588259"><ele>324.0</ele><time>2026-04-05T11:11:37.983Z</time></trkpt><trkpt lat="42.7603596" lon="12.8587405"><ele>324.0</ele><time>2026-04-05T11:11:38.983Z</time></trkpt><trkpt lat="42.7601773" lon="12.8586659"><ele>324.0</ele><time>2026-04-05T11:11:39.983Z</time></trkpt><trkpt lat="42.7599878" lon="12.8585715"><ele>328.0</ele><time>2026-04-05T11:11:40.983Z</time></trkpt><trkpt lat="42.759814" lon="12.8585068"><ele>332.0</ele><time>2026-04-05T11:11:41.982Z</time></trkpt><trkpt lat="42.7596511" lon="12.8584311"><ele>336.0</ele><time>2026-04-05T11:11:42.983Z</time></trkpt><trkpt lat="42.7595041" lon="12.8583594"><ele>329.6666666666667</ele><time>2026-04-05T11:11:43.983Z</time></trkpt><trkpt lat="42.7593488" lon="12.8582954"><ele>323.33333333333337</ele><time>2026-04-05T11:11:44.982Z</time></trkpt><trkpt lat="42.7591883" lon="12.8582251"><ele>317.0</ele><time>2026-04-05T11:11:45.983Z</time></trkpt><trkpt lat="42.759022" lon="12.8581591"><ele>317.0</ele><time>2026-04-05T11:11:46.983Z</time></trkpt><trkpt lat="42.7588606" lon="12.8580917"><ele>317.0</ele><time>2026-04-05T11:11:47.983Z</time></trkpt><trkpt lat="42.7587042" lon="12.8580145"><ele>317.0</ele><time>2026-04-05T11:11:48.982Z</time></trkpt><trkpt lat="42.7585463" lon="12.8579473"><ele>314.0</ele><time>2026-04-05T11:11:49.983Z</time></trkpt><trkpt lat="42.7583869" lon="12.8578829"><ele>311.0</ele><time>2026-04-05T11:11:50.982Z</time></trkpt><trkpt lat="42.7582305" lon="12.8578061"><ele>308.0</ele><time>2026-04-05T11:11:51.983Z</time></trkpt><trkpt lat="42.7580722" lon="12.857728"><ele>308.0</ele><time>2026-04-05T11:11:52.983Z</time></trkpt><trkpt lat="42.757911" lon="12.857657"><ele>308.0</ele><time>2026-04-05T11:11:53.983Z</time></trkpt><trkpt lat="42.7577394" lon="12.857607"><ele>308.0</ele><time>2026-04-05T11:11:54.982Z</time></trkpt><trkpt lat="42.7575613" lon="12.8575743"><ele>314.6666666666667</ele><time>2026-04-05T11:11:55.983Z</time></trkpt><trkpt lat="42.7573954" lon="12.8575453"><ele>321.3333333333333</ele><time>2026-04-05T11:11:56.982Z</time></trkpt><trkpt lat="42.7572363" lon="12.8575218"><ele>328.0</ele><time>2026-04-05T11:11:57.983Z</time></trkpt><trkpt lat="42.7570889" lon="12.8575026"><ele>328.0</ele><time>2026-04-05T11:11:58.983Z</time></trkpt><trkpt lat="42.7569541" lon="12.8574694"><ele>328.0</ele><time>2026-04-05T11:11:59.983Z</time></trkpt><trkpt lat="42.7568237" lon="12.8574445"><ele>328.0</ele><time>2026-04-05T11:12:00.982Z</time></trkpt><trkpt lat="42.7566961" lon="12.8574092"><ele>328.0</ele><time>2026-04-05T11:12:01.983Z</time></trkpt><trkpt lat="42.7565841" lon="12.8573345"><ele>325.25</ele><time>2026-04-05T11:12:02.983Z</time></trkpt><trkpt lat="42.7564734" lon="12.8572549"><ele>322.5</ele><time>2026-04-05T11:12:03.983Z</time></trkpt><trkpt lat="42.7563956" lon="12.8571094"><ele>319.75</ele><time>2026-04-05T11:12:04.982Z</time></trkpt><trkpt lat="42.756326" lon="12.8569421"><ele>317.0</ele><time>2026-04-05T11:12:05.983Z</time></trkpt><trkpt lat="42.7562543" lon="12.856748"><ele>315.0</ele><time>2026-04-05T11:12:06.983Z</time></trkpt><trkpt lat="42.7561734" lon="12.8565497"><ele>313.0</ele><time>2026-04-05T11:12:07.983Z</time></trkpt><trkpt lat="42.7560916" lon="12.8563508"><ele>311.0</ele><time>2026-04-05T11:12:08.983Z</time></trkpt><trkpt lat="42.7559984" lon="12.8561684"><ele>311.0</ele><time>2026-04-05T11:12:09.983Z</time></trkpt><trkpt lat="42.7558734" lon="12.8560171"><ele>311.0</ele><time>2026-04-05T11:12:10.983Z</time></trkpt><trkpt lat="42.7557401" lon="12.8558761"><ele>311.0</ele><time>2026-04-05T11:12:11.983Z</time></trkpt><trkpt lat="42.7555985" lon="12.8557624"><ele>310.33333333333337</ele><time>2026-04-05T11:12:12.983Z</time></trkpt><trkpt lat="42.755443" lon="12.8556761"><ele>309.6666666666667</ele><time>2026-04-05T11:12:13.983Z</time></trkpt><trkpt lat="42.755294" lon="12.8555984"><ele>309.0</ele><time>2026-04-05T11:12:14.983Z</time></trkpt><trkpt lat="42.7551519" lon="12.855507"><ele>309.0</ele><time>2026-04-05T11:12:15.982Z</time></trkpt><trkpt lat="42.7550337" lon="12.855384"><ele>309.0</ele><time>2026-04-05T11:12:16.983Z</time></trkpt><trkpt lat="42.7549196" lon="12.855251"><ele>309.0</ele><time>2026-04-05T11:12:17.983Z</time></trkpt><trkpt lat="42.7548244" lon="12.8550733"><ele>315.6666666666667</ele><time>2026-04-05T11:12:18.983Z</time></trkpt><trkpt lat="42.7547259" lon="12.8548825"><ele>322.33333333333337</ele><time>2026-04-05T11:12:19.983Z</time></trkpt><trkpt lat="42.7546394" lon="12.8546865"><ele>329.0</ele><time>2026-04-05T11:12:20.983Z</time></trkpt><trkpt lat="42.7545516" lon="12.8545032"><ele>329.0</ele><time>2026-04-05T11:12:21.983Z</time></trkpt><trkpt lat="42.754466" lon="12.8543243"><ele>329.0</ele><time>2026-04-05T11:12:22.983Z</time></trkpt><trkpt lat="42.7543875" lon="12.8541525"><ele>329.0</ele><time>2026-04-05T11:12:23.983Z</time></trkpt><trkpt lat="42.7543258" lon="12.8539543"><ele>327.0</ele><time>2026-04-05T11:12:24.983Z</time></trkpt><trkpt lat="42.7542694" lon="12.8537269"><ele>325.0</ele><time>2026-04-05T11:12:25.982Z</time></trkpt><trkpt lat="42.7542171" lon="12.8534858"><ele>323.0</ele><time>2026-04-05T11:12:26.982Z</time></trkpt><trkpt lat="42.7541702" lon="12.8532589"><ele>323.0</ele><time>2026-04-05T11:12:27.982Z</time></trkpt><trkpt lat="42.7541163" lon="12.8530195"><ele>323.0</ele><time>2026-04-05T11:12:28.983Z</time></trkpt><trkpt lat="42.7540646" lon="12.8527779"><ele>323.0</ele><time>2026-04-05T11:12:29.982Z</time></trkpt><trkpt lat="42.7540267" lon="12.8525348"><ele>324.33333333333337</ele><time>2026-04-05T11:12:30.983Z</time></trkpt><trkpt lat="42.7539838" lon="12.8522875"><ele>325.6666666666667</ele><time>2026-04-05T11:12:31.983Z</time></trkpt><trkpt lat="42.7539405" lon="12.8520472"><ele>327.0</ele><time>2026-04-05T11:12:32.983Z</time></trkpt><trkpt lat="42.7538991" lon="12.8518089"><ele>330.3333333333333</ele><time>2026-04-05T11:12:33.983Z</time></trkpt><trkpt lat="42.75384" lon="12.8515715"><ele>333.66666666666663</ele><time>2026-04-05T11:12:34.983Z</time></trkpt><trkpt lat="42.7537607" lon="12.8513422"><ele>337.0</ele><time>2026-04-05T11:12:35.983Z</time></trkpt><trkpt lat="42.7536557" lon="12.8511228"><ele>327.66666666666663</ele><time>2026-04-05T11:12:36.983Z</time></trkpt><trkpt lat="42.7535296" lon="12.8509155"><ele>318.3333333333333</ele><time>2026-04-05T11:12:37.983Z</time></trkpt><trkpt lat="42.7533849" lon="12.8507329"><ele>309.0</ele><time>2026-04-05T11:12:38.983Z</time></trkpt><trkpt lat="42.7532389" lon="12.8505492"><ele>309.0</ele><time>2026-04-05T11:12:39.983Z</time></trkpt><trkpt lat="42.7530821" lon="12.8503788"><ele>309.0</ele><time>2026-04-05T11:12:40.983Z</time></trkpt><trkpt lat="42.7529247" lon="12.8502002"><ele>309.0</ele><time>2026-04-05T11:12:41.983Z</time></trkpt><trkpt lat="42.7527782" lon="12.8500226"><ele>307.0</ele><time>2026-04-05T11:12:42.983Z</time></trkpt><trkpt lat="42.7526388" lon="12.8498424"><ele>305.0</ele><time>2026-04-05T11:12:43.983Z</time></trkpt><trkpt lat="42.7524936" lon="12.8496484"><ele>303.0</ele><time>2026-04-05T11:12:44.983Z</time></trkpt><trkpt lat="42.7523503" lon="12.8494483"><ele>307.6666666666667</ele><time>2026-04-05T11:12:45.983Z</time></trkpt><trkpt lat="42.7522077" lon="12.8492428"><ele>312.33333333333337</ele><time>2026-04-05T11:12:46.982Z</time></trkpt><trkpt lat="42.7520701" lon="12.8490305"><ele>317.0</ele><time>2026-04-05T11:12:47.982Z</time></trkpt><trkpt lat="42.7519291" lon="12.8488112"><ele>313.0</ele><time>2026-04-05T11:12:48.982Z</time></trkpt><trkpt lat="42.7517873" lon="12.8485916"><ele>309.0</ele><time>2026-04-05T11:12:49.983Z</time></trkpt><trkpt lat="42.7516438" lon="12.8483725"><ele>305.0</ele><time>2026-04-05T11:12:50.983Z</time></trkpt><trkpt lat="42.7515031" lon="12.8481552"><ele>305.0</ele><time>2026-04-05T11:12:51.982Z</time></trkpt><trkpt lat="42.7513629" lon="12.8479532"><ele>305.0</ele><time>2026-04-05T11:12:52.983Z</time></trkpt><trkpt lat="42.7512376" lon="12.8477617"><ele>305.0</ele><time>2026-04-05T11:12:53.982Z</time></trkpt><trkpt lat="42.7511019" lon="12.8475808"><ele>305.33333333333337</ele><time>2026-04-05T11:12:54.983Z</time></trkpt><trkpt lat="42.7509478" lon="12.8474518"><ele>305.6666666666667</ele><time>2026-04-05T11:12:55.983Z</time></trkpt><trkpt lat="42.7507833" lon="12.8473624"><ele>306.0</ele><time>2026-04-05T11:12:56.983Z</time></trkpt><trkpt lat="42.7505963" lon="12.847329"><ele>306.0</ele><time>2026-04-05T11:12:57.983Z</time></trkpt><trkpt lat="42.7503948" lon="12.8473322"><ele>306.0</ele><time>2026-04-05T11:12:58.982Z</time></trkpt><trkpt lat="42.7501864" lon="12.8473586"><ele>306.0</ele><time>2026-04-05T11:12:59.983Z</time></trkpt><trkpt lat="42.7499811" lon="12.8473841"><ele>305.6666666666667</ele><time>2026-04-05T11:13:00.983Z</time></trkpt><trkpt lat="42.7497737" lon="12.8474115"><ele>305.33333333333337</ele><time>2026-04-05T11:13:01.983Z</time></trkpt><trkpt lat="42.749567" lon="12.847443"><ele>305.0</ele><time>2026-04-05T11:13:02.983Z</time></trkpt><trkpt lat="42.7493688" lon="12.8474698"><ele>307.0</ele><time>2026-04-05T11:13:03.983Z</time></trkpt><trkpt lat="42.7491743" lon="12.8474845"><ele>309.0</ele><time>2026-04-05T11:13:04.983Z</time></trkpt><trkpt lat="42.7489888" lon="12.8475051"><ele>311.0</ele><time>2026-04-05T11:13:05.983Z</time></trkpt><trkpt lat="42.7488151" lon="12.8474997"><ele>311.0</ele><time>2026-04-05T11:13:06.983Z</time></trkpt><trkpt lat="42.74865" lon="12.8474856"><ele>311.0</ele><time>2026-04-05T11:13:07.983Z</time></trkpt><trkpt lat="42.7484951" lon="12.847436"><ele>311.0</ele><time>2026-04-05T11:13:08.983Z</time></trkpt><trkpt lat="42.7483383" lon="12.8473762"><ele>309.6666666666667</ele><time>2026-04-05T11:13:09.982Z</time></trkpt><trkpt lat="42.7481784" lon="12.8472824"><ele>308.3333333333333</ele><time>2026-04-05T11:13:10.982Z</time></trkpt><trkpt lat="42.7480472" lon="12.8471778"><ele>307.0</ele><time>2026-04-05T11:13:11.983Z</time></trkpt><trkpt lat="42.747922" lon="12.8470765"><ele>307.0</ele><time>2026-04-05T11:13:12.983Z</time></trkpt><trkpt lat="42.7478072" lon="12.846949"><ele>307.0</ele><time>2026-04-05T11:13:13.982Z</time></trkpt><trkpt lat="42.7477625" lon="12.8467673"><ele>307.0</ele><time>2026-04-05T11:13:14.983Z</time></trkpt><trkpt lat="42.7477224" lon="12.8465935"><ele>307.0</ele><time>2026-04-05T11:13:15.982Z</time></trkpt><trkpt lat="42.7477416" lon="12.8463852"><ele>311.66666666666663</ele><time>2026-04-05T11:13:16.983Z</time></trkpt><trkpt lat="42.7477707" lon="12.8461855"><ele>316.3333333333333</ele><time>2026-04-05T11:13:17.983Z</time></trkpt><trkpt lat="42.7478445" lon="12.8460159"><ele>321.0</ele><time>2026-04-05T11:13:18.983Z</time></trkpt><trkpt lat="42.7479287" lon="12.8458165"><ele>321.0</ele><time>2026-04-05T11:13:19.982Z</time></trkpt><trkpt lat="42.747983" lon="12.8456059"><ele>321.0</ele><time>2026-04-05T11:13:20.983Z</time></trkpt><trkpt lat="42.7480276" lon="12.8453971"><ele>321.0</ele><time>2026-04-05T11:13:21.983Z</time></trkpt><trkpt lat="42.7480409" lon="12.8451533"><ele>317.6666666666667</ele><time>2026-04-05T11:13:22.983Z</time></trkpt><trkpt lat="42.7480246" lon="12.8449014"><ele>314.33333333333337</ele><time>2026-04-05T11:13:23.982Z</time></trkpt><trkpt lat="42.7480019" lon="12.8446402"><ele>311.0</ele><time>2026-04-05T11:13:24.982Z</time></trkpt><trkpt lat="42.7479754" lon="12.8443803"><ele>316.33333333333337</ele><time>2026-04-05T11:13:25.983Z</time></trkpt><trkpt lat="42.7479453" lon="12.8441222"><ele>321.6666666666667</ele><time>2026-04-05T11:13:26.983Z</time></trkpt><trkpt lat="42.7479128" lon="12.8438564"><ele>327.0</ele><time>2026-04-05T11:13:27.983Z</time></trkpt><trkpt lat="42.7478773" lon="12.8435973"><ele>331.0</ele><time>2026-04-05T11:13:28.983Z</time></trkpt><trkpt lat="42.7478502" lon="12.8433297"><ele>335.0</ele><time>2026-04-05T11:13:29.982Z</time></trkpt><trkpt lat="42.747805" lon="12.8430752"><ele>339.0</ele><time>2026-04-05T11:13:30.982Z</time></trkpt><trkpt lat="42.7477793" lon="12.8428392"><ele>340.3333333333333</ele><time>2026-04-05T11:13:31.982Z</time></trkpt><trkpt lat="42.7477472" lon="12.8426146"><ele>341.66666666666663</ele><time>2026-04-05T11:13:32.983Z</time></trkpt><trkpt lat="42.7477051" lon="12.8423929"><ele>343.0</ele><time>2026-04-05T11:13:33.983Z</time></trkpt><trkpt lat="42.7476388" lon="12.8421817"><ele>334.0</ele><time>2026-04-05T11:13:34.983Z</time></trkpt><trkpt lat="42.7475399" lon="12.8419764"><ele>325.0</ele><time>2026-04-05T11:13:35.982Z</time></trkpt><trkpt lat="42.7474188" lon="12.8417877"><ele>316.0</ele><time>2026-04-05T11:13:36.982Z</time></trkpt><trkpt lat="42.7473011" lon="12.8416079"><ele>316.0</ele><time>2026-04-05T11:13:37.983Z</time></trkpt><trkpt lat="42.7471558" lon="12.8414369"><ele>316.0</ele><time>2026-04-05T11:13:38.983Z</time></trkpt><trkpt lat="42.7470144" lon="12.8412711"><ele>316.0</ele><time>2026-04-05T11:13:39.983Z</time></trkpt><trkpt lat="42.7468698" lon="12.8411053"><ele>315.3333333333333</ele><time>2026-04-05T11:13:40.983Z</time></trkpt><trkpt lat="42.7467259" lon="12.8409356"><ele>314.6666666666667</ele><time>2026-04-05T11:13:41.982Z</time></trkpt><trkpt lat="42.7465779" lon="12.8407582"><ele>314.0</ele><time>2026-04-05T11:13:42.983Z</time></trkpt><trkpt lat="42.7464288" lon="12.8406028"><ele>314.0</ele><time>2026-04-05T11:13:43.982Z</time></trkpt><trkpt lat="42.7462757" lon="12.8404612"><ele>314.0</ele><time>2026-04-05T11:13:44.983Z</time></trkpt><trkpt lat="42.746126" lon="12.8403437"><ele>314.0</ele><time>2026-04-05T11:13:45.983Z</time></trkpt><trkpt lat="42.745967" lon="12.8402623"><ele>310.0</ele><time>2026-04-05T11:13:46.983Z</time></trkpt><trkpt lat="42.7457807" lon="12.8402619"><ele>306.0</ele><time>2026-04-05T11:13:47.983Z</time></trkpt><trkpt lat="42.7455972" lon="12.8402669"><ele>302.0</ele><time>2026-04-05T11:13:48.983Z</time></trkpt><trkpt lat="42.7454094" lon="12.8402963"><ele>302.0</ele><time>2026-04-05T11:13:49.983Z</time></trkpt><trkpt lat="42.7452238" lon="12.8403372"><ele>302.0</ele><time>2026-04-05T11:13:50.983Z</time></trkpt><trkpt lat="42.7450344" lon="12.8403729"><ele>302.0</ele><time>2026-04-05T11:13:51.982Z</time></trkpt><trkpt lat="42.7448546" lon="12.8404008"><ele>302.33333333333337</ele><time>2026-04-05T11:13:52.983Z</time></trkpt><trkpt lat="42.7446807" lon="12.8404312"><ele>302.6666666666667</ele><time>2026-04-05T11:13:53.982Z</time></trkpt><trkpt lat="42.7445173" lon="12.8404662"><ele>303.0</ele><time>2026-04-05T11:13:54.982Z</time></trkpt><trkpt lat="42.7443505" lon="12.8405032"><ele>306.6666666666667</ele><time>2026-04-05T11:13:55.983Z</time></trkpt><trkpt lat="42.7441918" lon="12.8405283"><ele>310.33333333333337</ele><time>2026-04-05T11:13:56.983Z</time></trkpt><trkpt lat="42.7440363" lon="12.8405163"><ele>314.0</ele><time>2026-04-05T11:13:57.983Z</time></trkpt><trkpt lat="42.743875" lon="12.8404835"><ele>314.0</ele><time>2026-04-05T11:13:58.983Z</time></trkpt><trkpt lat="42.7437395" lon="12.8404401"><ele>314.0</ele><time>2026-04-05T11:13:59.983Z</time></trkpt><trkpt lat="42.7436062" lon="12.8403733"><ele>314.0</ele><time>2026-04-05T11:14:00.983Z</time></trkpt><trkpt lat="42.7434764" lon="12.84029"><ele>314.0</ele><time>2026-04-05T11:14:01.982Z</time></trkpt><trkpt lat="42.7433454" lon="12.8401939"><ele>313.33333333333337</ele><time>2026-04-05T11:14:02.982Z</time></trkpt><trkpt lat="42.7432338" lon="12.8400849"><ele>312.6666666666667</ele><time>2026-04-05T11:14:03.983Z</time></trkpt><trkpt lat="42.7431136" lon="12.8399513"><ele>312.0</ele><time>2026-04-05T11:14:04.983Z</time></trkpt><trkpt lat="42.7429821" lon="12.8398154"><ele>312.0</ele><time>2026-04-05T11:14:05.982Z</time></trkpt><trkpt lat="42.7428673" lon="12.8396632"><ele>312.0</ele><time>2026-04-05T11:14:06.983Z</time></trkpt><trkpt lat="42.7427452" lon="12.8395117"><ele>312.0</ele><time>2026-04-05T11:14:07.983Z</time></trkpt><trkpt lat="42.7426196" lon="12.8393625"><ele>309.0</ele><time>2026-04-05T11:14:08.983Z</time></trkpt><trkpt lat="42.7424952" lon="12.8392132"><ele>306.0</ele><time>2026-04-05T11:14:09.982Z</time></trkpt><trkpt lat="42.7423676" lon="12.8390642"><ele>303.0</ele><time>2026-04-05T11:14:10.983Z</time></trkpt><trkpt lat="42.7422345" lon="12.8389248"><ele>303.0</ele><time>2026-04-05T11:14:11.983Z</time></trkpt><trkpt lat="42.7421017" lon="12.8387844"><ele>303.0</ele><time>2026-04-05T11:14:12.983Z</time></trkpt><trkpt lat="42.7419938" lon="12.8386541"><ele>303.0</ele><time>2026-04-05T11:14:13.983Z</time></trkpt><trkpt lat="42.7418852" lon="12.8385353"><ele>302.0</ele><time>2026-04-05T11:14:14.982Z</time></trkpt><trkpt lat="42.7417842" lon="12.838417"><ele>301.0</ele><time>2026-04-05T11:14:15.983Z</time></trkpt><trkpt lat="42.7416821" lon="12.8383046"><ele>300.0</ele><time>2026-04-05T11:14:16.983Z</time></trkpt><trkpt lat="42.7415814" lon="12.8381999"><ele>299.0</ele><time>2026-04-05T11:14:17.983Z</time></trkpt><trkpt lat="42.7414821" lon="12.8381022"><ele>299.0</ele><time>2026-04-05T11:14:18.983Z</time></trkpt><trkpt lat="42.7413787" lon="12.8380117"><ele>299.0</ele><time>2026-04-05T11:14:19.983Z</time></trkpt><trkpt lat="42.7412687" lon="12.8379193"><ele>299.0</ele><time>2026-04-05T11:14:20.983Z</time></trkpt><trkpt lat="42.7411565" lon="12.8378202"><ele>299.0</ele><time>2026-04-05T11:14:21.983Z</time></trkpt><trkpt lat="42.741046" lon="12.8377326"><ele>298.6666666666667</ele><time>2026-04-05T11:14:22.983Z</time></trkpt><trkpt lat="42.7409142" lon="12.8376359"><ele>298.3333333333333</ele><time>2026-04-05T11:14:23.983Z</time></trkpt><trkpt lat="42.7407762" lon="12.8375381"><ele>298.0</ele><time>2026-04-05T11:14:24.983Z</time></trkpt><trkpt lat="42.7406158" lon="12.8374383"><ele>296.66666666666663</ele><time>2026-04-05T11:14:25.983Z</time></trkpt><trkpt lat="42.7404527" lon="12.8373456"><ele>295.3333333333333</ele><time>2026-04-05T11:14:26.983Z</time></trkpt><trkpt lat="42.7402903" lon="12.837258"><ele>294.0</ele><time>2026-04-05T11:14:27.983Z</time></trkpt><trkpt lat="42.7401152" lon="12.8371704"><ele>294.0</ele><time>2026-04-05T11:14:28.983Z</time></trkpt><trkpt lat="42.7399359" lon="12.8370958"><ele>294.0</ele><time>2026-04-05T11:14:29.982Z</time></trkpt><trkpt lat="42.7397471" lon="12.8370284"><ele>294.0</ele><time>2026-04-05T11:14:30.983Z</time></trkpt><trkpt lat="42.7395559" lon="12.8369639"><ele>292.6666666666667</ele><time>2026-04-05T11:14:31.983Z</time></trkpt><trkpt lat="42.7393637" lon="12.8368929"><ele>291.33333333333337</ele><time>2026-04-05T11:14:32.982Z</time></trkpt><trkpt lat="42.739168" lon="12.8368212"><ele>290.0</ele><time>2026-04-05T11:14:33.983Z</time></trkpt><trkpt lat="42.7389741" lon="12.8367534"><ele>292.6666666666667</ele><time>2026-04-05T11:14:34.983Z</time></trkpt><trkpt lat="42.7387795" lon="12.8366938"><ele>295.3333333333333</ele><time>2026-04-05T11:14:35.983Z</time></trkpt><trkpt lat="42.7385897" lon="12.8366314"><ele>298.0</ele><time>2026-04-05T11:14:36.983Z</time></trkpt><trkpt lat="42.7383949" lon="12.8365612"><ele>298.0</ele><time>2026-04-05T11:14:37.983Z</time></trkpt><trkpt lat="42.7382092" lon="12.8364906"><ele>298.0</ele><time>2026-04-05T11:14:38.983Z</time></trkpt><trkpt lat="42.7380178" lon="12.8364273"><ele>298.0</ele><time>2026-04-05T11:14:39.983Z</time></trkpt><trkpt lat="42.7378369" lon="12.8363644"><ele>296.66666666666663</ele><time>2026-04-05T11:14:40.983Z</time></trkpt><trkpt lat="42.7376597" lon="12.8363072"><ele>295.3333333333333</ele><time>2026-04-05T11:14:41.983Z</time></trkpt><trkpt lat="42.7374839" lon="12.836231"><ele>294.0</ele><time>2026-04-05T11:14:42.982Z</time></trkpt><trkpt lat="42.7373008" lon="12.8361612"><ele>294.0</ele><time>2026-04-05T11:14:43.983Z</time></trkpt><trkpt lat="42.7371224" lon="12.8360882"><ele>294.0</ele><time>2026-04-05T11:14:44.982Z</time></trkpt><trkpt lat="42.7369574" lon="12.8360246"><ele>294.0</ele><time>2026-04-05T11:14:45.983Z</time></trkpt><trkpt lat="42.7368" lon="12.8359613"><ele>297.3333333333333</ele><time>2026-04-05T11:14:46.983Z</time></trkpt><trkpt lat="42.7366493" lon="12.8358917"><ele>300.66666666666663</ele><time>2026-04-05T11:14:47.983Z</time></trkpt><trkpt lat="42.7364934" lon="12.8358258"><ele>304.0</ele><time>2026-04-05T11:14:48.983Z</time></trkpt><trkpt lat="42.7363611" lon="12.8357701"><ele>304.0</ele><time>2026-04-05T11:14:49.982Z</time></trkpt><trkpt lat="42.7362379" lon="12.8356859"><ele>304.0</ele><time>2026-04-05T11:14:50.983Z</time></trkpt><trkpt lat="42.7361313" lon="12.8355445"><ele>304.0</ele><time>2026-04-05T11:14:51.982Z</time></trkpt><trkpt lat="42.7360428" lon="12.835401"><ele>304.0</ele><time>2026-04-05T11:14:52.983Z</time></trkpt><trkpt lat="42.735973" lon="12.8352375"><ele>301.5</ele><time>2026-04-05T11:14:53.983Z</time></trkpt><trkpt lat="42.7359355" lon="12.8350704"><ele>299.0</ele><time>2026-04-05T11:14:54.983Z</time></trkpt><trkpt lat="42.7359252" lon="12.8349076"><ele>296.5</ele><time>2026-04-05T11:14:55.982Z</time></trkpt><trkpt lat="42.7359323" lon="12.8347347"><ele>294.0</ele><time>2026-04-05T11:14:56.983Z</time></trkpt><trkpt lat="42.7359491" lon="12.834548"><ele>294.0</ele><time>2026-04-05T11:14:57.982Z</time></trkpt><trkpt lat="42.7359824" lon="12.8343639"><ele>294.0</ele><time>2026-04-05T11:14:58.983Z</time></trkpt><trkpt lat="42.7360003" lon="12.8341519"><ele>294.0</ele><time>2026-04-05T11:14:59.983Z</time></trkpt><trkpt lat="42.7360203" lon="12.8339457"><ele>294.0</ele><time>2026-04-05T11:15:00.983Z</time></trkpt><trkpt lat="42.7360385" lon="12.8337336"><ele>294.3333333333333</ele><time>2026-04-05T11:15:01.983Z</time></trkpt><trkpt lat="42.7360525" lon="12.833507"><ele>294.66666666666663</ele><time>2026-04-05T11:15:02.983Z</time></trkpt><trkpt lat="42.7360734" lon="12.833289"><ele>295.0</ele><time>2026-04-05T11:15:03.982Z</time></trkpt><trkpt lat="42.7361011" lon="12.8330653"><ele>295.0</ele><time>2026-04-05T11:15:04.982Z</time></trkpt><trkpt lat="42.7361003" lon="12.8328398"><ele>295.0</ele><time>2026-04-05T11:15:05.983Z</time></trkpt><trkpt lat="42.7361063" lon="12.832609"><ele>295.0</ele><time>2026-04-05T11:15:06.982Z</time></trkpt><trkpt lat="42.7361045" lon="12.8323739"><ele>294.0</ele><time>2026-04-05T11:15:07.983Z</time></trkpt><trkpt lat="42.7360985" lon="12.832132"><ele>293.0</ele><time>2026-04-05T11:15:08.982Z</time></trkpt><trkpt lat="42.7360896" lon="12.8318927"><ele>292.0</ele><time>2026-04-05T11:15:09.982Z</time></trkpt><trkpt lat="42.7360715" lon="12.8316497"><ele>292.0</ele><time>2026-04-05T11:15:10.983Z</time></trkpt><trkpt lat="42.7360561" lon="12.8314192"><ele>292.0</ele><time>2026-04-05T11:15:11.982Z</time></trkpt><trkpt lat="42.7360398" lon="12.8312042"><ele>292.0</ele><time>2026-04-05T11:15:12.983Z</time></trkpt><trkpt lat="42.736024" lon="12.8310124"><ele>291.75</ele><time>2026-04-05T11:15:13.982Z</time></trkpt><trkpt lat="42.7359986" lon="12.8308162"><ele>291.5</ele><time>2026-04-05T11:15:14.983Z</time></trkpt><trkpt lat="42.7359775" lon="12.8306275"><ele>291.25</ele><time>2026-04-05T11:15:15.983Z</time></trkpt><trkpt lat="42.7359734" lon="12.8304426"><ele>291.0</ele><time>2026-04-05T11:15:16.983Z</time></trkpt><trkpt lat="42.7359855" lon="12.8302516"><ele>291.25</ele><time>2026-04-05T11:15:17.982Z</time></trkpt><trkpt lat="42.7360183" lon="12.8300605"><ele>291.5</ele><time>2026-04-05T11:15:18.983Z</time></trkpt><trkpt lat="42.7360728" lon="12.8298809"><ele>291.75</ele><time>2026-04-05T11:15:19.982Z</time></trkpt><trkpt lat="42.7361519" lon="12.8297107"><ele>292.0</ele><time>2026-04-05T11:15:20.983Z</time></trkpt><trkpt lat="42.7362663" lon="12.8295599"><ele>293.0</ele><time>2026-04-05T11:15:21.982Z</time></trkpt><trkpt lat="42.736388" lon="12.8294328"><ele>294.0</ele><time>2026-04-05T11:15:22.983Z</time></trkpt><trkpt lat="42.7365244" lon="12.8293229"><ele>295.0</ele><time>2026-04-05T11:15:23.983Z</time></trkpt><trkpt lat="42.7366808" lon="12.8292157"><ele>296.66666666666663</ele><time>2026-04-05T11:15:24.983Z</time></trkpt><trkpt lat="42.7368682" lon="12.8291384"><ele>298.3333333333333</ele><time>2026-04-05T11:15:25.983Z</time></trkpt><trkpt lat="42.7370277" lon="12.829049"><ele>300.0</ele><time>2026-04-05T11:15:26.983Z</time></trkpt><trkpt lat="42.7371886" lon="12.8289554"><ele>300.6666666666667</ele><time>2026-04-05T11:15:27.983Z</time></trkpt><trkpt lat="42.7373498" lon="12.8288551"><ele>301.33333333333337</ele><time>2026-04-05T11:15:28.983Z</time></trkpt><trkpt lat="42.7375092" lon="12.8287549"><ele>302.0</ele><time>2026-04-05T11:15:29.983Z</time></trkpt><trkpt lat="42.7376784" lon="12.8286416"><ele>302.0</ele><time>2026-04-05T11:15:30.983Z</time></trkpt><trkpt lat="42.7378532" lon="12.8285313"><ele>302.0</ele><time>2026-04-05T11:15:31.983Z</time></trkpt><trkpt lat="42.7380352" lon="12.8284189"><ele>302.0</ele><time>2026-04-05T11:15:32.982Z</time></trkpt><trkpt lat="42.7382117" lon="12.8283024"><ele>303.0</ele><time>2026-04-05T11:15:33.983Z</time></trkpt><trkpt lat="42.7383844" lon="12.8281903"><ele>304.0</ele><time>2026-04-05T11:15:34.983Z</time></trkpt><trkpt lat="42.7385667" lon="12.8280807"><ele>305.0</ele><time>2026-04-05T11:15:35.983Z</time></trkpt><trkpt lat="42.738754" lon="12.8279851"><ele>306.0</ele><time>2026-04-05T11:15:36.982Z</time></trkpt><trkpt lat="42.7389418" lon="12.8278836"><ele>307.0</ele><time>2026-04-05T11:15:37.983Z</time></trkpt><trkpt lat="42.7391246" lon="12.8277741"><ele>308.0</ele><time>2026-04-05T11:15:38.982Z</time></trkpt><trkpt lat="42.7393126" lon="12.8276706"><ele>310.0</ele><time>2026-04-05T11:15:39.983Z</time></trkpt><trkpt lat="42.739496" lon="12.827569"><ele>312.0</ele><time>2026-04-05T11:15:40.983Z</time></trkpt><trkpt lat="42.7396763" lon="12.8274684"><ele>314.0</ele><time>2026-04-05T11:15:41.983Z</time></trkpt><trkpt lat="42.7398511" lon="12.8273684"><ele>314.0</ele><time>2026-04-05T11:15:42.982Z</time></trkpt><trkpt lat="42.7400198" lon="12.8272724"><ele>314.0</ele><time>2026-04-05T11:15:43.983Z</time></trkpt><trkpt lat="42.7401908" lon="12.8271698"><ele>314.0</ele><time>2026-04-05T11:15:44.983Z</time></trkpt><trkpt lat="42.7403591" lon="12.8270699"><ele>316.33333333333337</ele><time>2026-04-05T11:15:45.983Z</time></trkpt><trkpt lat="42.7405333" lon="12.8269523"><ele>318.6666666666667</ele><time>2026-04-05T11:15:46.983Z</time></trkpt><trkpt lat="42.7407006" lon="12.8268334"><ele>321.0</ele><time>2026-04-05T11:15:47.983Z</time></trkpt><trkpt lat="42.7408624" lon="12.8267119"><ele>321.0</ele><time>2026-04-05T11:15:48.983Z</time></trkpt><trkpt lat="42.7410232" lon="12.8265859"><ele>321.0</ele><time>2026-04-05T11:15:49.983Z</time></trkpt><trkpt lat="42.7411918" lon="12.8264506"><ele>321.0</ele><time>2026-04-05T11:15:50.983Z</time></trkpt><trkpt lat="42.7413574" lon="12.82631"><ele>321.6666666666667</ele><time>2026-04-05T11:15:51.983Z</time></trkpt><trkpt lat="42.7415091" lon="12.8261426"><ele>322.33333333333337</ele><time>2026-04-05T11:15:52.983Z</time></trkpt><trkpt lat="42.741669" lon="12.825983"><ele>323.0</ele><time>2026-04-05T11:15:53.983Z</time></trkpt><trkpt lat="42.7418218" lon="12.8258134"><ele>325.0</ele><time>2026-04-05T11:15:54.983Z</time></trkpt><trkpt lat="42.7419659" lon="12.825624"><ele>327.0</ele><time>2026-04-05T11:15:55.983Z</time></trkpt><trkpt lat="42.7421142" lon="12.8254327"><ele>329.0</ele><time>2026-04-05T11:15:56.983Z</time></trkpt><trkpt lat="42.74225" lon="12.8252288"><ele>333.0</ele><time>2026-04-05T11:15:57.983Z</time></trkpt><trkpt lat="42.7423832" lon="12.8250187"><ele>337.0</ele><time>2026-04-05T11:15:58.983Z</time></trkpt><trkpt lat="42.7425117" lon="12.8247932"><ele>341.0</ele><time>2026-04-05T11:15:59.982Z</time></trkpt><trkpt lat="42.7426393" lon="12.8245683"><ele>343.0</ele><time>2026-04-05T11:16:00.983Z</time></trkpt><trkpt lat="42.7427599" lon="12.8243372"><ele>345.0</ele><time>2026-04-05T11:16:01.982Z</time></trkpt><trkpt lat="42.7543673" lon="12.7775832"><ele>350.5</ele><time>2026-04-05T11:18:46.983Z</time></trkpt><trkpt lat="42.7545179" lon="12.7773713"><ele>356.0</ele><time>2026-04-05T11:18:47.983Z</time></trkpt><trkpt lat="42.7546983" lon="12.777152"><ele>356.0</ele><time>2026-04-05T11:18:48.983Z</time></trkpt><trkpt lat="42.7548771" lon="12.7769523"><ele>356.0</ele><time>2026-04-05T11:18:49.983Z</time></trkpt><trkpt lat="42.7550576" lon="12.7767613"><ele>349.5</ele><time>2026-04-05T11:18:50.983Z</time></trkpt><trkpt lat="42.755252" lon="12.7765715"><ele>343.0</ele><time>2026-04-05T11:18:51.983Z</time></trkpt><trkpt lat="42.7554511" lon="12.7763844"><ele>343.0</ele><time>2026-04-05T11:18:52.982Z</time></trkpt><trkpt lat="42.7556527" lon="12.7762041"><ele>343.0</ele><time>2026-04-05T11:18:53.982Z</time></trkpt><trkpt lat="42.7558605" lon="12.7760292"><ele>339.0</ele><time>2026-04-05T11:18:54.983Z</time></trkpt><trkpt lat="42.7560663" lon="12.7758523"><ele>335.0</ele><time>2026-04-05T11:18:55.982Z</time></trkpt><trkpt lat="42.7562758" lon="12.7756818"><ele>335.0</ele><time>2026-04-05T11:18:56.982Z</time></trkpt><trkpt lat="42.7564866" lon="12.7755111"><ele>335.0</ele><time>2026-04-05T11:18:57.982Z</time></trkpt><trkpt lat="42.7566975" lon="12.7753392"><ele>332.5</ele><time>2026-04-05T11:18:58.983Z</time></trkpt><trkpt lat="42.756908" lon="12.7751643"><ele>330.0</ele><time>2026-04-05T11:18:59.983Z</time></trkpt><trkpt lat="42.7571203" lon="12.774992"><ele>330.0</ele><time>2026-04-05T11:19:00.983Z</time></trkpt><trkpt lat="42.7573337" lon="12.7748191"><ele>330.0</ele><time>2026-04-05T11:19:01.983Z</time></trkpt><trkpt lat="42.7575462" lon="12.7746399"><ele>327.0</ele><time>2026-04-05T11:19:02.983Z</time></trkpt><trkpt lat="42.7577566" lon="12.7744677"><ele>324.0</ele><time>2026-04-05T11:19:03.983Z</time></trkpt><trkpt lat="42.7579674" lon="12.7742952"><ele>322.0</ele><time>2026-04-05T11:19:04.983Z</time></trkpt><trkpt lat="42.7581766" lon="12.7741219"><ele>320.0</ele><time>2026-04-05T11:19:05.983Z</time></trkpt><trkpt lat="42.7583877" lon="12.7739514"><ele>320.0</ele><time>2026-04-05T11:19:06.983Z</time></trkpt><trkpt lat="42.7585998" lon="12.7737781"><ele>320.0</ele><time>2026-04-05T11:19:07.982Z</time></trkpt><trkpt lat="42.7588145" lon="12.7736139"><ele>319.0</ele><time>2026-04-05T11:19:08.983Z</time></trkpt><trkpt lat="42.759027" lon="12.7734432"><ele>318.0</ele><time>2026-04-05T11:19:09.983Z</time></trkpt><trkpt lat="42.7592413" lon="12.7732733"><ele>316.0</ele><time>2026-04-05T11:19:10.983Z</time></trkpt><trkpt lat="42.7594599" lon="12.7731069"><ele>314.0</ele><time>2026-04-05T11:19:11.983Z</time></trkpt><trkpt lat="42.759676" lon="12.7729527"><ele>314.0</ele><time>2026-04-05T11:19:12.982Z</time></trkpt><trkpt lat="42.7598922" lon="12.772804"><ele>314.0</ele><time>2026-04-05T11:19:13.983Z</time></trkpt><trkpt lat="42.7601121" lon="12.7726582"><ele>311.5</ele><time>2026-04-05T11:19:14.983Z</time></trkpt><trkpt lat="42.7603355" lon="12.7725172"><ele>309.0</ele><time>2026-04-05T11:19:15.983Z</time></trkpt><trkpt lat="42.760562" lon="12.7723812"><ele>309.0</ele><time>2026-04-05T11:19:16.983Z</time></trkpt><trkpt lat="42.7607887" lon="12.7722591"><ele>309.0</ele><time>2026-04-05T11:19:17.982Z</time></trkpt><trkpt lat="42.7610196" lon="12.7721395"><ele>306.5</ele><time>2026-04-05T11:19:18.982Z</time></trkpt><trkpt lat="42.7612491" lon="12.7720254"><ele>304.0</ele><time>2026-04-05T11:19:19.983Z</time></trkpt><trkpt lat="42.7614796" lon="12.7719139"><ele>303.0</ele><time>2026-04-05T11:19:20.983Z</time></trkpt><trkpt lat="42.7617072" lon="12.7718046"><ele>302.0</ele><time>2026-04-05T11:19:21.983Z</time></trkpt><trkpt lat="42.7619352" lon="12.7717002"><ele>300.5</ele><time>2026-04-05T11:19:22.983Z</time></trkpt><trkpt lat="42.7621651" lon="12.7715994"><ele>299.0</ele><time>2026-04-05T11:19:23.983Z</time></trkpt><trkpt lat="42.7623942" lon="12.7715012"><ele>299.0</ele><time>2026-04-05T11:19:24.983Z</time></trkpt><trkpt lat="42.7626183" lon="12.7714036"><ele>299.0</ele><time>2026-04-05T11:19:25.983Z</time></trkpt><trkpt lat="42.7628393" lon="12.7713019"><ele>296.5</ele><time>2026-04-05T11:19:26.982Z</time></trkpt><trkpt lat="42.7630521" lon="12.7711911"><ele>294.0</ele><time>2026-04-05T11:19:27.983Z</time></trkpt><trkpt lat="42.7632558" lon="12.771062"><ele>294.3333333333333</ele><time>2026-04-05T11:19:28.982Z</time></trkpt><trkpt lat="42.7634534" lon="12.770923"><ele>294.66666666666663</ele><time>2026-04-05T11:19:29.982Z</time></trkpt><trkpt lat="42.7636433" lon="12.7707855"><ele>295.0</ele><time>2026-04-05T11:19:30.983Z</time></trkpt><trkpt lat="42.7638233" lon="12.7706557"><ele>293.66666666666663</ele><time>2026-04-05T11:19:31.983Z</time></trkpt><trkpt lat="42.7639958" lon="12.7705243"><ele>292.3333333333333</ele><time>2026-04-05T11:19:32.982Z</time></trkpt><trkpt lat="42.7641516" lon="12.7703996"><ele>291.0</ele><time>2026-04-05T11:19:33.982Z</time></trkpt><trkpt lat="42.7642962" lon="12.7702829"><ele>289.0</ele><time>2026-04-05T11:19:34.982Z</time></trkpt><trkpt lat="42.764443" lon="12.7701611"><ele>287.0</ele><time>2026-04-05T11:19:35.983Z</time></trkpt><trkpt lat="42.7645725" lon="12.7700427"><ele>285.0</ele><time>2026-04-05T11:19:36.983Z</time></trkpt><trkpt lat="42.7647018" lon="12.7699264"><ele>285.0</ele><time>2026-04-05T11:19:37.983Z</time></trkpt><trkpt lat="42.7648267" lon="12.7698234"><ele>285.0</ele><time>2026-04-05T11:19:38.983Z</time></trkpt><trkpt lat="42.7649633" lon="12.7697374"><ele>285.0</ele><time>2026-04-05T11:19:39.983Z</time></trkpt><trkpt lat="42.7651105" lon="12.7696858"><ele>285.0</ele><time>2026-04-05T11:19:40.983Z</time></trkpt><trkpt lat="42.7652622" lon="12.7696715"><ele>284.3333333333333</ele><time>2026-04-05T11:19:41.983Z</time></trkpt><trkpt lat="42.7654127" lon="12.7696901"><ele>283.66666666666663</ele><time>2026-04-05T11:19:42.983Z</time></trkpt><trkpt lat="42.7655581" lon="12.7697409"><ele>283.0</ele><time>2026-04-05T11:19:43.983Z</time></trkpt><trkpt lat="42.7657012" lon="12.769818"><ele>283.0</ele><time>2026-04-05T11:19:44.983Z</time></trkpt><trkpt lat="42.7658419" lon="12.7698975"><ele>283.0</ele><time>2026-04-05T11:19:45.982Z</time></trkpt><trkpt lat="42.7659765" lon="12.7699559"><ele>283.0</ele><time>2026-04-05T11:19:46.983Z</time></trkpt><trkpt lat="42.7661119" lon="12.7699709"><ele>283.0</ele><time>2026-04-05T11:19:47.983Z</time></trkpt><trkpt lat="42.7662465" lon="12.7699446"><ele>283.0</ele><time>2026-04-05T11:19:48.982Z</time></trkpt><trkpt lat="42.7663701" lon="12.7698802"><ele>283.0</ele><time>2026-04-05T11:19:49.982Z</time></trkpt><trkpt lat="42.7664834" lon="12.7697797"><ele>283.0</ele><time>2026-04-05T11:19:50.982Z</time></trkpt><trkpt lat="42.766593" lon="12.7696345"><ele>283.0</ele><time>2026-04-05T11:19:51.983Z</time></trkpt><trkpt lat="42.7667142" lon="12.7695082"><ele>283.0</ele><time>2026-04-05T11:19:52.983Z</time></trkpt><trkpt lat="42.7668457" lon="12.7694035"><ele>283.0</ele><time>2026-04-05T11:19:53.983Z</time></trkpt><trkpt lat="42.7669954" lon="12.7693302"><ele>283.0</ele><time>2026-04-05T11:19:54.982Z</time></trkpt><trkpt lat="42.7671548" lon="12.7692714"><ele>281.66666666666663</ele><time>2026-04-05T11:19:55.982Z</time></trkpt><trkpt lat="42.7673272" lon="12.7692468"><ele>280.3333333333333</ele><time>2026-04-05T11:19:56.983Z</time></trkpt><trkpt lat="42.7675096" lon="12.7692603"><ele>279.0</ele><time>2026-04-05T11:19:57.983Z</time></trkpt><trkpt lat="42.767697" lon="12.7692999"><ele>279.0</ele><time>2026-04-05T11:19:58.982Z</time></trkpt><trkpt lat="42.7678911" lon="12.769365"><ele>279.0</ele><time>2026-04-05T11:19:59.982Z</time></trkpt><trkpt lat="42.7680914" lon="12.7694428"><ele>279.0</ele><time>2026-04-05T11:20:00.983Z</time></trkpt><trkpt lat="42.7682932" lon="12.7695176"><ele>279.0</ele><time>2026-04-05T11:20:01.983Z</time></trkpt><trkpt lat="42.7685125" lon="12.7695795"><ele>279.0</ele><time>2026-04-05T11:20:02.983Z</time></trkpt><trkpt lat="42.7687357" lon="12.7696643"><ele>278.0</ele><time>2026-04-05T11:20:03.983Z</time></trkpt><trkpt lat="42.7689561" lon="12.7697417"><ele>277.0</ele><time>2026-04-05T11:20:04.982Z</time></trkpt><trkpt lat="42.7691801" lon="12.7698142"><ele>274.5</ele><time>2026-04-05T11:20:05.983Z</time></trkpt><trkpt lat="42.7694149" lon="12.7698815"><ele>272.0</ele><time>2026-04-05T11:20:06.982Z</time></trkpt><trkpt lat="42.7696541" lon="12.7699552"><ele>272.0</ele><time>2026-04-05T11:20:07.982Z</time></trkpt><trkpt lat="42.7698887" lon="12.7700233"><ele>272.0</ele><time>2026-04-05T11:20:08.982Z</time></trkpt><trkpt lat="42.770123" lon="12.7700979"><ele>272.5</ele><time>2026-04-05T11:20:09.983Z</time></trkpt><trkpt lat="42.7703566" lon="12.7701667"><ele>273.0</ele><time>2026-04-05T11:20:10.983Z</time></trkpt><trkpt lat="42.7705939" lon="12.7702346"><ele>273.5</ele><time>2026-04-05T11:20:11.983Z</time></trkpt><trkpt lat="42.7708281" lon="12.7703029"><ele>274.0</ele><time>2026-04-05T11:20:12.983Z</time></trkpt><trkpt lat="42.771058" lon="12.7703703"><ele>274.0</ele><time>2026-04-05T11:20:13.982Z</time></trkpt><trkpt lat="42.7712893" lon="12.770438"><ele>274.0</ele><time>2026-04-05T11:20:14.982Z</time></trkpt><trkpt lat="42.7715222" lon="12.7704998"><ele>274.0</ele><time>2026-04-05T11:20:15.982Z</time></trkpt><trkpt lat="42.7717561" lon="12.7705698"><ele>274.0</ele><time>2026-04-05T11:20:16.983Z</time></trkpt><trkpt lat="42.7719893" lon="12.7706284"><ele>275.0</ele><time>2026-04-05T11:20:17.983Z</time></trkpt><trkpt lat="42.7722195" lon="12.7706895"><ele>276.0</ele><time>2026-04-05T11:20:18.983Z</time></trkpt><trkpt lat="42.7724543" lon="12.7707487"><ele>276.0</ele><time>2026-04-05T11:20:19.982Z</time></trkpt><trkpt lat="42.7726861" lon="12.7707966"><ele>276.0</ele><time>2026-04-05T11:20:20.982Z</time></trkpt><trkpt lat="42.7729151" lon="12.7708485"><ele>277.0</ele><time>2026-04-05T11:20:21.983Z</time></trkpt><trkpt lat="42.773149" lon="12.7708952"><ele>278.0</ele><time>2026-04-05T11:20:22.983Z</time></trkpt><trkpt lat="42.7733782" lon="12.7709414"><ele>278.0</ele><time>2026-04-05T11:20:23.982Z</time></trkpt><trkpt lat="42.7736088" lon="12.7709719"><ele>278.0</ele><time>2026-04-05T11:20:24.983Z</time></trkpt><trkpt lat="42.7738456" lon="12.7709957"><ele>278.0</ele><time>2026-04-05T11:20:25.983Z</time></trkpt><trkpt lat="42.7740822" lon="12.7710118"><ele>278.0</ele><time>2026-04-05T11:20:26.983Z</time></trkpt><trkpt lat="42.774314" lon="12.7710111"><ele>280.0</ele><time>2026-04-05T11:20:27.983Z</time></trkpt><trkpt lat="42.7745567" lon="12.7709944"><ele>282.0</ele><time>2026-04-05T11:20:28.983Z</time></trkpt><trkpt lat="42.7747918" lon="12.7709932"><ele>282.0</ele><time>2026-04-05T11:20:29.982Z</time></trkpt><trkpt lat="42.775026" lon="12.7709701"><ele>282.0</ele><time>2026-04-05T11:20:30.983Z</time></trkpt><trkpt lat="42.7764141" lon="12.7705266"><ele>281.5</ele><time>2026-04-05T11:20:36.982Z</time></trkpt><trkpt lat="42.7766174" lon="12.7704184"><ele>281.0</ele><time>2026-04-05T11:20:37.983Z</time></trkpt><trkpt lat="42.776844" lon="12.7702784"><ele>279.5</ele><time>2026-04-05T11:20:38.982Z</time></trkpt><trkpt lat="42.7770635" lon="12.7701364"><ele>278.0</ele><time>2026-04-05T11:20:39.982Z</time></trkpt><trkpt lat="42.777279" lon="12.7699893"><ele>278.0</ele><time>2026-04-05T11:20:40.983Z</time></trkpt><trkpt lat="42.7774844" lon="12.7698358"><ele>278.0</ele><time>2026-04-05T11:20:41.983Z</time></trkpt><trkpt lat="42.7776863" lon="12.7696742"><ele>278.0</ele><time>2026-04-05T11:20:42.983Z</time></trkpt><trkpt lat="42.7778899" lon="12.7695002"><ele>278.0</ele><time>2026-04-05T11:20:43.982Z</time></trkpt><trkpt lat="42.7780903" lon="12.7693321"><ele>276.5</ele><time>2026-04-05T11:20:44.983Z</time></trkpt><trkpt lat="42.7782773" lon="12.7691489"><ele>275.0</ele><time>2026-04-05T11:20:45.983Z</time></trkpt><trkpt lat="42.7784686" lon="12.7689602"><ele>276.0</ele><time>2026-04-05T11:20:46.982Z</time></trkpt><trkpt lat="42.7786616" lon="12.7687707"><ele>277.0</ele><time>2026-04-05T11:20:47.983Z</time></trkpt><trkpt lat="42.7788645" lon="12.7685885"><ele>276.5</ele><time>2026-04-05T11:20:48.982Z</time></trkpt><trkpt lat="42.7790629" lon="12.7684211"><ele>276.0</ele><time>2026-04-05T11:20:49.983Z</time></trkpt><trkpt lat="42.7792656" lon="12.7682555"><ele>276.0</ele><time>2026-04-05T11:20:50.982Z</time></trkpt><trkpt lat="42.7794718" lon="12.7681014"><ele>276.0</ele><time>2026-04-05T11:20:51.983Z</time></trkpt><trkpt lat="42.7796861" lon="12.7679438"><ele>276.0</ele><time>2026-04-05T11:20:52.983Z</time></trkpt><trkpt lat="42.7799019" lon="12.7678001"><ele>276.0</ele><time>2026-04-05T11:20:53.983Z</time></trkpt><trkpt lat="42.7801153" lon="12.767672"><ele>274.5</ele><time>2026-04-05T11:20:54.983Z</time></trkpt><trkpt lat="42.7803349" lon="12.7675538"><ele>273.0</ele><time>2026-04-05T11:20:55.983Z</time></trkpt><trkpt lat="42.7805583" lon="12.7674509"><ele>273.0</ele><time>2026-04-05T11:20:56.983Z</time></trkpt><trkpt lat="42.7807742" lon="12.7673497"><ele>273.0</ele><time>2026-04-05T11:20:57.983Z</time></trkpt><trkpt lat="42.7810049" lon="12.7672781"><ele>273.5</ele><time>2026-04-05T11:20:58.983Z</time></trkpt><trkpt lat="42.7812362" lon="12.7672068"><ele>274.0</ele><time>2026-04-05T11:20:59.983Z</time></trkpt><trkpt lat="42.7814694" lon="12.7671493"><ele>274.0</ele><time>2026-04-05T11:21:00.982Z</time></trkpt><trkpt lat="42.7817079" lon="12.7670885"><ele>274.0</ele><time>2026-04-05T11:21:01.983Z</time></trkpt><trkpt lat="42.7819445" lon="12.7670523"><ele>275.0</ele><time>2026-04-05T11:21:02.983Z</time></trkpt><trkpt lat="42.7821816" lon="12.7670194"><ele>276.0</ele><time>2026-04-05T11:21:03.983Z</time></trkpt><trkpt lat="42.7824219" lon="12.7670062"><ele>276.0</ele><time>2026-04-05T11:21:04.983Z</time></trkpt><trkpt lat="42.7826623" lon="12.7669906"><ele>276.0</ele><time>2026-04-05T11:21:05.983Z</time></trkpt><trkpt lat="42.7829001" lon="12.7669658"><ele>277.0</ele><time>2026-04-05T11:21:06.983Z</time></trkpt><trkpt lat="42.7831403" lon="12.7669445"><ele>278.0</ele><time>2026-04-05T11:21:07.983Z</time></trkpt><trkpt lat="42.7833849" lon="12.7669223"><ele>278.5</ele><time>2026-04-05T11:21:08.982Z</time></trkpt><trkpt lat="42.7836208" lon="12.7668928"><ele>279.0</ele><time>2026-04-05T11:21:09.982Z</time></trkpt><trkpt lat="42.7838651" lon="12.766873"><ele>277.5</ele><time>2026-04-05T11:21:10.983Z</time></trkpt><trkpt lat="42.7841107" lon="12.7668559"><ele>276.0</ele><time>2026-04-05T11:21:11.983Z</time></trkpt><trkpt lat="42.7843578" lon="12.7668363"><ele>275.5</ele><time>2026-04-05T11:21:12.982Z</time></trkpt><trkpt lat="42.7846054" lon="12.7668118"><ele>275.0</ele><time>2026-04-05T11:21:13.982Z</time></trkpt><trkpt lat="42.7848542" lon="12.766781"><ele>275.0</ele><time>2026-04-05T11:21:14.982Z</time></trkpt><trkpt lat="42.7851021" lon="12.7667596"><ele>275.0</ele><time>2026-04-05T11:21:15.983Z</time></trkpt><trkpt lat="42.7853491" lon="12.7667346"><ele>277.5</ele><time>2026-04-05T11:21:16.982Z</time></trkpt><trkpt lat="42.7855921" lon="12.7667032"><ele>280.0</ele><time>2026-04-05T11:21:17.982Z</time></trkpt><trkpt lat="42.7858359" lon="12.7666669"><ele>280.0</ele><time>2026-04-05T11:21:18.983Z</time></trkpt><trkpt lat="42.7860754" lon="12.7666453"><ele>280.0</ele><time>2026-04-05T11:21:19.982Z</time></trkpt><trkpt lat="42.7863149" lon="12.7666025"><ele>280.0</ele><time>2026-04-05T11:21:20.983Z</time></trkpt><trkpt lat="42.7865528" lon="12.7665602"><ele>280.0</ele><time>2026-04-05T11:21:21.983Z</time></trkpt><trkpt lat="42.7867911" lon="12.7665155"><ele>282.0</ele><time>2026-04-05T11:21:22.982Z</time></trkpt><trkpt lat="42.7870282" lon="12.7664646"><ele>284.0</ele><time>2026-04-05T11:21:23.983Z</time></trkpt><trkpt lat="42.7872604" lon="12.7664034"><ele>284.0</ele><time>2026-04-05T11:21:24.983Z</time></trkpt><trkpt lat="42.7874963" lon="12.7663509"><ele>284.0</ele><time>2026-04-05T11:21:25.983Z</time></trkpt><trkpt lat="42.787731" lon="12.7662888"><ele>284.5</ele><time>2026-04-05T11:21:26.983Z</time></trkpt><trkpt lat="42.7879636" lon="12.7662292"><ele>285.0</ele><time>2026-04-05T11:21:27.983Z</time></trkpt><trkpt lat="42.7881925" lon="12.766161"><ele>285.0</ele><time>2026-04-05T11:21:28.983Z</time></trkpt><trkpt lat="42.7884242" lon="12.7660896"><ele>285.0</ele><time>2026-04-05T11:21:29.983Z</time></trkpt><trkpt lat="42.788658" lon="12.7660229"><ele>285.0</ele><time>2026-04-05T11:21:30.982Z</time></trkpt><trkpt lat="42.7888836" lon="12.7659479"><ele>285.0</ele><time>2026-04-05T11:21:31.983Z</time></trkpt><trkpt lat="42.7891142" lon="12.7658628"><ele>286.5</ele><time>2026-04-05T11:21:32.982Z</time></trkpt><trkpt lat="42.7893482" lon="12.7657848"><ele>288.0</ele><time>2026-04-05T11:21:33.983Z</time></trkpt><trkpt lat="42.7895762" lon="12.7657048"><ele>288.0</ele><time>2026-04-05T11:21:34.983Z</time></trkpt><trkpt lat="42.7898063" lon="12.7656122"><ele>288.0</ele><time>2026-04-05T11:21:35.982Z</time></trkpt><trkpt lat="42.7900359" lon="12.76554"><ele>288.5</ele><time>2026-04-05T11:21:36.982Z</time></trkpt><trkpt lat="42.7902633" lon="12.7654482"><ele>289.0</ele><time>2026-04-05T11:21:37.983Z</time></trkpt><trkpt lat="42.7904957" lon="12.7653607"><ele>289.0</ele><time>2026-04-05T11:21:38.983Z</time></trkpt><trkpt lat="42.7907246" lon="12.7652711"><ele>289.0</ele><time>2026-04-05T11:21:39.982Z</time></trkpt><trkpt lat="42.7909538" lon="12.7651741"><ele>289.5</ele><time>2026-04-05T11:21:40.982Z</time></trkpt><trkpt lat="42.7911919" lon="12.7650756"><ele>290.0</ele><time>2026-04-05T11:21:41.983Z</time></trkpt><trkpt lat="42.7914276" lon="12.7649919"><ele>290.0</ele><time>2026-04-05T11:21:42.982Z</time></trkpt><trkpt lat="42.7916652" lon="12.7648987"><ele>290.0</ele><time>2026-04-05T11:21:43.983Z</time></trkpt><trkpt lat="42.7919055" lon="12.7648175"><ele>289.5</ele><time>2026-04-05T11:21:44.983Z</time></trkpt><trkpt lat="42.7921445" lon="12.764729"><ele>289.0</ele><time>2026-04-05T11:21:45.983Z</time></trkpt><trkpt lat="42.7923831" lon="12.764634"><ele>289.0</ele><time>2026-04-05T11:21:46.982Z</time></trkpt><trkpt lat="42.7926232" lon="12.7645368"><ele>289.0</ele><time>2026-04-05T11:21:47.983Z</time></trkpt><trkpt lat="42.7928547" lon="12.7644495"><ele>286.5</ele><time>2026-04-05T11:21:48.982Z</time></trkpt><trkpt lat="42.7930877" lon="12.7643612"><ele>284.0</ele><time>2026-04-05T11:21:49.983Z</time></trkpt><trkpt lat="42.7933221" lon="12.7642754"><ele>284.0</ele><time>2026-04-05T11:21:50.983Z</time></trkpt><trkpt lat="42.7935594" lon="12.7641755"><ele>284.0</ele><time>2026-04-05T11:21:51.983Z</time></trkpt><trkpt lat="42.793792" lon="12.764082"><ele>284.0</ele><time>2026-04-05T11:21:52.983Z</time></trkpt><trkpt lat="42.7940296" lon="12.7639923"><ele>284.0</ele><time>2026-04-05T11:21:53.983Z</time></trkpt><trkpt lat="42.7942676" lon="12.7638984"><ele>283.5</ele><time>2026-04-05T11:21:54.982Z</time></trkpt><trkpt lat="42.7945013" lon="12.7638043"><ele>283.0</ele><time>2026-04-05T11:21:55.982Z</time></trkpt><trkpt lat="42.7947343" lon="12.7637055"><ele>283.0</ele><time>2026-04-05T11:21:56.983Z</time></trkpt><trkpt lat="42.7949673" lon="12.7636028"><ele>283.0</ele><time>2026-04-05T11:21:57.983Z</time></trkpt><trkpt lat="42.7952066" lon="12.7635108"><ele>281.5</ele><time>2026-04-05T11:21:58.983Z</time></trkpt><trkpt lat="42.7954436" lon="12.7634098"><ele>280.0</ele><time>2026-04-05T11:21:59.983Z</time></trkpt><trkpt lat="42.7956824" lon="12.7633086"><ele>280.0</ele><time>2026-04-05T11:22:00.982Z</time></trkpt><trkpt lat="42.7959288" lon="12.7632144"><ele>280.0</ele><time>2026-04-05T11:22:01.983Z</time></trkpt><trkpt lat="42.7961665" lon="12.7631187"><ele>281.5</ele><time>2026-04-05T11:22:02.982Z</time></trkpt><trkpt lat="42.7964038" lon="12.7630229"><ele>283.0</ele><time>2026-04-05T11:22:03.983Z</time></trkpt><trkpt lat="42.7966403" lon="12.7629221"><ele>283.0</ele><time>2026-04-05T11:22:04.982Z</time></trkpt><trkpt lat="42.7968807" lon="12.7628232"><ele>283.0</ele><time>2026-04-05T11:22:05.982Z</time></trkpt><trkpt lat="42.7971229" lon="12.7627247"><ele>282.0</ele><time>2026-04-05T11:22:06.983Z</time></trkpt><trkpt lat="42.7973631" lon="12.7626268"><ele>281.0</ele><time>2026-04-05T11:22:07.982Z</time></trkpt><trkpt lat="42.7976005" lon="12.7625265"><ele>279.0</ele><time>2026-04-05T11:22:08.982Z</time></trkpt><trkpt lat="42.7978384" lon="12.7624245"><ele>277.0</ele><time>2026-04-05T11:22:09.982Z</time></trkpt><trkpt lat="42.7980727" lon="12.7623218"><ele>277.0</ele><time>2026-04-05T11:22:10.983Z</time></trkpt><trkpt lat="42.7983154" lon="12.7622236"><ele>277.0</ele><time>2026-04-05T11:22:11.982Z</time></trkpt><trkpt lat="42.7985596" lon="12.7621307"><ele>275.0</ele><time>2026-04-05T11:22:12.983Z</time></trkpt><trkpt lat="42.7988099" lon="12.7620461"><ele>273.0</ele><time>2026-04-05T11:22:13.983Z</time></trkpt><trkpt lat="42.7990579" lon="12.7619559"><ele>271.5</ele><time>2026-04-05T11:22:14.983Z</time></trkpt><trkpt lat="42.7993083" lon="12.7618589"><ele>270.0</ele><time>2026-04-05T11:22:15.983Z</time></trkpt><trkpt lat="42.7995569" lon="12.761766"><ele>270.0</ele><time>2026-04-05T11:22:16.983Z</time></trkpt><trkpt lat="42.7998052" lon="12.7616712"><ele>270.0</ele><time>2026-04-05T11:22:17.983Z</time></trkpt><trkpt lat="42.8000585" lon="12.7615851"><ele>271.0</ele><time>2026-04-05T11:22:18.983Z</time></trkpt><trkpt lat="42.8003137" lon="12.7614934"><ele>272.0</ele><time>2026-04-05T11:22:19.983Z</time></trkpt><trkpt lat="42.8005666" lon="12.7614126"><ele>272.0</ele><time>2026-04-05T11:22:20.983Z</time></trkpt><trkpt lat="42.8008206" lon="12.7613389"><ele>272.0</ele><time>2026-04-05T11:22:21.983Z</time></trkpt><trkpt lat="42.8010767" lon="12.7612549"><ele>271.5</ele><time>2026-04-05T11:22:22.982Z</time></trkpt><trkpt lat="42.8013311" lon="12.7611618"><ele>271.0</ele><time>2026-04-05T11:22:23.983Z</time></trkpt><trkpt lat="42.8015918" lon="12.7610612"><ele>269.5</ele><time>2026-04-05T11:22:24.982Z</time></trkpt><trkpt lat="42.80185" lon="12.7609672"><ele>268.0</ele><time>2026-04-05T11:22:25.983Z</time></trkpt><trkpt lat="42.8021051" lon="12.7608829"><ele>268.0</ele><time>2026-04-05T11:22:26.983Z</time></trkpt><trkpt lat="42.8023663" lon="12.7608074"><ele>268.0</ele><time>2026-04-05T11:22:27.983Z</time></trkpt><trkpt lat="42.802624" lon="12.760751"><ele>267.0</ele><time>2026-04-05T11:22:28.983Z</time></trkpt><trkpt lat="42.8028808" lon="12.7606922"><ele>266.0</ele><time>2026-04-05T11:22:29.983Z</time></trkpt><trkpt lat="42.8031378" lon="12.7606476"><ele>266.0</ele><time>2026-04-05T11:22:30.983Z</time></trkpt><trkpt lat="42.8033981" lon="12.7606036"><ele>266.0</ele><time>2026-04-05T11:22:31.982Z</time></trkpt><trkpt lat="42.8036619" lon="12.7605628"><ele>265.0</ele><time>2026-04-05T11:22:32.982Z</time></trkpt><trkpt lat="42.8039218" lon="12.7605229"><ele>264.0</ele><time>2026-04-05T11:22:33.983Z</time></trkpt><trkpt lat="42.8041814" lon="12.7604739"><ele>262.5</ele><time>2026-04-05T11:22:34.983Z</time></trkpt><trkpt lat="42.8044414" lon="12.760436"><ele>261.0</ele><time>2026-04-05T11:22:35.983Z</time></trkpt><trkpt lat="42.8046963" lon="12.7603972"><ele>261.0</ele><time>2026-04-05T11:22:36.983Z</time></trkpt><trkpt lat="42.8049527" lon="12.7603525"><ele>261.0</ele><time>2026-04-05T11:22:37.983Z</time></trkpt><trkpt lat="42.8051997" lon="12.7602955"><ele>259.5</ele><time>2026-04-05T11:22:38.983Z</time></trkpt><trkpt lat="42.8054532" lon="12.7602255"><ele>258.0</ele><time>2026-04-05T11:22:39.983Z</time></trkpt><trkpt lat="42.8057086" lon="12.7601617"><ele>257.5</ele><time>2026-04-05T11:22:40.983Z</time></trkpt><trkpt lat="42.8059607" lon="12.7600812"><ele>257.0</ele><time>2026-04-05T11:22:41.983Z</time></trkpt><trkpt lat="42.8062081" lon="12.7599965"><ele>256.0</ele><time>2026-04-05T11:22:42.983Z</time></trkpt><trkpt lat="42.8064577" lon="12.7599077"><ele>255.0</ele><time>2026-04-05T11:22:43.983Z</time></trkpt><trkpt lat="42.8067045" lon="12.759803"><ele>253.5</ele><time>2026-04-05T11:22:44.983Z</time></trkpt><trkpt lat="42.8069557" lon="12.7597012"><ele>252.0</ele><time>2026-04-05T11:22:45.983Z</time></trkpt><trkpt lat="42.807199" lon="12.759594"><ele>252.0</ele><time>2026-04-05T11:22:46.982Z</time></trkpt><trkpt lat="42.8074493" lon="12.7594821"><ele>252.0</ele><time>2026-04-05T11:22:47.982Z</time></trkpt><trkpt lat="42.8076929" lon="12.7593757"><ele>250.0</ele><time>2026-04-05T11:22:48.983Z</time></trkpt><trkpt lat="42.8079347" lon="12.7592726"><ele>248.0</ele><time>2026-04-05T11:22:49.983Z</time></trkpt><trkpt lat="42.8081807" lon="12.7591628"><ele>248.0</ele><time>2026-04-05T11:22:50.983Z</time></trkpt><trkpt lat="42.8084222" lon="12.7590529"><ele>248.0</ele><time>2026-04-05T11:22:51.983Z</time></trkpt><trkpt lat="42.8086703" lon="12.7589449"><ele>247.5</ele><time>2026-04-05T11:22:52.982Z</time></trkpt><trkpt lat="42.8089165" lon="12.7588362"><ele>247.0</ele><time>2026-04-05T11:22:53.983Z</time></trkpt><trkpt lat="42.8091606" lon="12.7587298"><ele>245.5</ele><time>2026-04-05T11:22:54.983Z</time></trkpt><trkpt lat="42.8094078" lon="12.7586147"><ele>244.0</ele><time>2026-04-05T11:22:55.982Z</time></trkpt><trkpt lat="42.8096489" lon="12.7585195"><ele>243.5</ele><time>2026-04-05T11:22:56.983Z</time></trkpt><trkpt lat="42.8098918" lon="12.7584314"><ele>243.0</ele><time>2026-04-05T11:22:57.983Z</time></trkpt><trkpt lat="42.8101395" lon="12.7583478"><ele>241.5</ele><time>2026-04-05T11:22:58.982Z</time></trkpt><trkpt lat="42.8103834" lon="12.7582657"><ele>240.0</ele><time>2026-04-05T11:22:59.983Z</time></trkpt><trkpt lat="42.8106272" lon="12.7581867"><ele>240.0</ele><time>2026-04-05T11:23:00.982Z</time></trkpt><trkpt lat="42.8108729" lon="12.7581171"><ele>240.0</ele><time>2026-04-05T11:23:01.983Z</time></trkpt><trkpt lat="42.8111319" lon="12.7580539"><ele>238.5</ele><time>2026-04-05T11:23:02.983Z</time></trkpt><trkpt lat="42.8113822" lon="12.7579873"><ele>237.0</ele><time>2026-04-05T11:23:03.983Z</time></trkpt><trkpt lat="42.8116336" lon="12.757926"><ele>236.0</ele><time>2026-04-05T11:23:04.983Z</time></trkpt><trkpt lat="42.8118829" lon="12.7578726"><ele>235.0</ele><time>2026-04-05T11:23:05.982Z</time></trkpt><trkpt lat="42.8121389" lon="12.757826"><ele>235.0</ele><time>2026-04-05T11:23:06.982Z</time></trkpt><trkpt lat="42.8123979" lon="12.7577834"><ele>235.0</ele><time>2026-04-05T11:23:07.983Z</time></trkpt><trkpt lat="42.8126579" lon="12.7577502"><ele>233.0</ele><time>2026-04-05T11:23:08.983Z</time></trkpt><trkpt lat="42.812915" lon="12.757715"><ele>231.0</ele><time>2026-04-05T11:23:09.983Z</time></trkpt><trkpt lat="42.8131753" lon="12.7576848"><ele>231.0</ele><time>2026-04-05T11:23:10.982Z</time></trkpt><trkpt lat="42.813439" lon="12.7576561"><ele>231.0</ele><time>2026-04-05T11:23:11.983Z</time></trkpt><trkpt lat="42.8137048" lon="12.757624"><ele>231.0</ele><time>2026-04-05T11:23:12.982Z</time></trkpt><trkpt lat="42.813981" lon="12.7576062"><ele>231.0</ele><time>2026-04-05T11:23:13.982Z</time></trkpt><trkpt lat="42.8142442" lon="12.757586"><ele>231.0</ele><time>2026-04-05T11:23:14.982Z</time></trkpt><trkpt lat="42.8145115" lon="12.7575818"><ele>231.0</ele><time>2026-04-05T11:23:15.983Z</time></trkpt><trkpt lat="42.8147778" lon="12.7575726"><ele>231.0</ele><time>2026-04-05T11:23:16.983Z</time></trkpt><trkpt lat="42.815051" lon="12.7575636"><ele>231.0</ele><time>2026-04-05T11:23:17.983Z</time></trkpt><trkpt lat="42.8153202" lon="12.7575566"><ele>231.0</ele><time>2026-04-05T11:23:18.983Z</time></trkpt><trkpt lat="42.8155889" lon="12.7575563"><ele>231.0</ele><time>2026-04-05T11:23:19.982Z</time></trkpt><trkpt lat="42.8158479" lon="12.7575516"><ele>230.0</ele><time>2026-04-05T11:23:20.982Z</time></trkpt><trkpt lat="42.816125" lon="12.7575609"><ele>229.0</ele><time>2026-04-05T11:23:21.983Z</time></trkpt><trkpt lat="42.8164018" lon="12.757566"><ele>229.0</ele><time>2026-04-05T11:23:22.982Z</time></trkpt><trkpt lat="42.8166641" lon="12.7575772"><ele>229.0</ele><time>2026-04-05T11:23:23.983Z</time></trkpt><trkpt lat="42.8169256" lon="12.7575919"><ele>228.5</ele><time>2026-04-05T11:23:24.982Z</time></trkpt><trkpt lat="42.8171905" lon="12.7576084"><ele>228.0</ele><time>2026-04-05T11:23:25.983Z</time></trkpt><trkpt lat="42.8174502" lon="12.7576237"><ele>228.0</ele><time>2026-04-05T11:23:26.982Z</time></trkpt><trkpt lat="42.8177058" lon="12.7576441"><ele>228.0</ele><time>2026-04-05T11:23:27.983Z</time></trkpt><trkpt lat="42.8179619" lon="12.7576672"><ele>228.0</ele><time>2026-04-05T11:23:28.983Z</time></trkpt><trkpt lat="42.8182155" lon="12.7576967"><ele>228.0</ele><time>2026-04-05T11:23:29.982Z</time></trkpt><trkpt lat="42.8184698" lon="12.7577251"><ele>227.0</ele><time>2026-04-05T11:23:30.983Z</time></trkpt><trkpt lat="42.818724" lon="12.757758"><ele>226.0</ele><time>2026-04-05T11:23:31.982Z</time></trkpt><trkpt lat="42.8189746" lon="12.7577942"><ele>226.0</ele><time>2026-04-05T11:23:32.983Z</time></trkpt><trkpt lat="42.8192274" lon="12.7578344"><ele>226.0</ele><time>2026-04-05T11:23:33.983Z</time></trkpt><trkpt lat="42.8194862" lon="12.757886"><ele>226.0</ele><time>2026-04-05T11:23:34.983Z</time></trkpt><trkpt lat="42.8197437" lon="12.7579411"><ele>226.0</ele><time>2026-04-05T11:23:35.983Z</time></trkpt><trkpt lat="42.8199957" lon="12.758003"><ele>226.0</ele><time>2026-04-05T11:23:36.983Z</time></trkpt><trkpt lat="42.820241" lon="12.7580725"><ele>226.0</ele><time>2026-04-05T11:23:37.983Z</time></trkpt><trkpt lat="42.8204944" lon="12.7581496"><ele>226.0</ele><time>2026-04-05T11:23:38.983Z</time></trkpt><trkpt lat="42.8207444" lon="12.7582367"><ele>226.0</ele><time>2026-04-05T11:23:39.983Z</time></trkpt><trkpt lat="42.8209934" lon="12.7583487"><ele>225.5</ele><time>2026-04-05T11:23:40.983Z</time></trkpt><trkpt lat="42.8212445" lon="12.7584553"><ele>225.0</ele><time>2026-04-05T11:23:41.983Z</time></trkpt><trkpt lat="42.8214878" lon="12.758565"><ele>225.0</ele><time>2026-04-05T11:23:42.983Z</time></trkpt><trkpt lat="42.8217291" lon="12.7586803"><ele>225.0</ele><time>2026-04-05T11:23:43.982Z</time></trkpt><trkpt lat="42.8219742" lon="12.7588066"><ele>224.5</ele><time>2026-04-05T11:23:44.982Z</time></trkpt><trkpt lat="42.8222151" lon="12.7589381"><ele>224.0</ele><time>2026-04-05T11:23:45.982Z</time></trkpt><trkpt lat="42.8224553" lon="12.7590769"><ele>224.0</ele><time>2026-04-05T11:23:46.982Z</time></trkpt><trkpt lat="42.8227012" lon="12.7591898"><ele>224.0</ele><time>2026-04-05T11:23:47.983Z</time></trkpt><trkpt lat="42.8229369" lon="12.7593119"><ele>223.5</ele><time>2026-04-05T11:23:48.983Z</time></trkpt><trkpt lat="42.8231705" lon="12.7594348"><ele>223.0</ele><time>2026-04-05T11:23:49.983Z</time></trkpt><trkpt lat="42.8234123" lon="12.7595649"><ele>222.0</ele><time>2026-04-05T11:23:50.983Z</time></trkpt><trkpt lat="42.823651" lon="12.7596804"><ele>221.0</ele><time>2026-04-05T11:23:51.983Z</time></trkpt><trkpt lat="42.8238894" lon="12.7597813"><ele>221.0</ele><time>2026-04-05T11:23:52.982Z</time></trkpt><trkpt lat="42.8241339" lon="12.7598829"><ele>221.0</ele><time>2026-04-05T11:23:53.983Z</time></trkpt><trkpt lat="42.8243773" lon="12.759979"><ele>222.0</ele><time>2026-04-05T11:23:54.983Z</time></trkpt><trkpt lat="42.8246257" lon="12.7600666"><ele>223.0</ele><time>2026-04-05T11:23:55.983Z</time></trkpt><trkpt lat="42.824873" lon="12.7601439"><ele>223.0</ele><time>2026-04-05T11:23:56.983Z</time></trkpt><trkpt lat="42.8251272" lon="12.7602211"><ele>223.0</ele><time>2026-04-05T11:23:57.982Z</time></trkpt><trkpt lat="42.8253751" lon="12.7602872"><ele>223.0</ele><time>2026-04-05T11:23:58.982Z</time></trkpt><trkpt lat="42.8256238" lon="12.7603489"><ele>223.0</ele><time>2026-04-05T11:23:59.983Z</time></trkpt><trkpt lat="42.8258725" lon="12.7603894"><ele>224.0</ele><time>2026-04-05T11:24:00.983Z</time></trkpt><trkpt lat="42.8261242" lon="12.7604337"><ele>225.0</ele><time>2026-04-05T11:24:01.982Z</time></trkpt><trkpt lat="42.8263772" lon="12.7604701"><ele>225.0</ele><time>2026-04-05T11:24:02.982Z</time></trkpt><trkpt lat="42.8266253" lon="12.760497"><ele>225.0</ele><time>2026-04-05T11:24:03.982Z</time></trkpt><trkpt lat="42.8268663" lon="12.760519"><ele>224.5</ele><time>2026-04-05T11:24:04.983Z</time></trkpt><trkpt lat="42.8271158" lon="12.7605405"><ele>224.0</ele><time>2026-04-05T11:24:05.983Z</time></trkpt><trkpt lat="42.8273653" lon="12.7605579"><ele>224.0</ele><time>2026-04-05T11:24:06.983Z</time></trkpt><trkpt lat="42.8276038" lon="12.7605644"><ele>224.0</ele><time>2026-04-05T11:24:07.983Z</time></trkpt><trkpt lat="42.8278661" lon="12.760569"><ele>223.0</ele><time>2026-04-05T11:24:08.983Z</time></trkpt><trkpt lat="42.8281132" lon="12.7605705"><ele>222.0</ele><time>2026-04-05T11:24:09.983Z</time></trkpt><trkpt lat="42.8283678" lon="12.7605581"><ele>222.0</ele><time>2026-04-05T11:24:10.983Z</time></trkpt><trkpt lat="42.8286079" lon="12.7605463"><ele>222.0</ele><time>2026-04-05T11:24:11.983Z</time></trkpt><trkpt lat="42.8288537" lon="12.7605182"><ele>222.0</ele><time>2026-04-05T11:24:12.983Z</time></trkpt><trkpt lat="42.8290949" lon="12.7604717"><ele>222.0</ele><time>2026-04-05T11:24:13.982Z</time></trkpt><trkpt lat="42.8293369" lon="12.7604232"><ele>221.5</ele><time>2026-04-05T11:24:14.982Z</time></trkpt><trkpt lat="42.8295819" lon="12.7603739"><ele>221.0</ele><time>2026-04-05T11:24:15.983Z</time></trkpt><trkpt lat="42.8298317" lon="12.7603225"><ele>221.0</ele><time>2026-04-05T11:24:16.983Z</time></trkpt><trkpt lat="42.8300742" lon="12.7602518"><ele>221.0</ele><time>2026-04-05T11:24:17.983Z</time></trkpt><trkpt lat="42.8303174" lon="12.7601683"><ele>221.0</ele><time>2026-04-05T11:24:18.983Z</time></trkpt><trkpt lat="42.8305549" lon="12.7600883"><ele>221.0</ele><time>2026-04-05T11:24:19.982Z</time></trkpt><trkpt lat="42.8307904" lon="12.7599949"><ele>221.0</ele><time>2026-04-05T11:24:20.983Z</time></trkpt><trkpt lat="42.8310215" lon="12.7598885"><ele>221.0</ele><time>2026-04-05T11:24:21.983Z</time></trkpt><trkpt lat="42.8312554" lon="12.759771"><ele>221.0</ele><time>2026-04-05T11:24:22.983Z</time></trkpt><trkpt lat="42.831489" lon="12.7596403"><ele>221.0</ele><time>2026-04-05T11:24:23.982Z</time></trkpt><trkpt lat="42.8317186" lon="12.759504"><ele>220.0</ele><time>2026-04-05T11:24:24.982Z</time></trkpt><trkpt lat="42.8319423" lon="12.7593575"><ele>219.0</ele><time>2026-04-05T11:24:25.983Z</time></trkpt><trkpt lat="42.8321687" lon="12.759211"><ele>219.0</ele><time>2026-04-05T11:24:26.983Z</time></trkpt><trkpt lat="42.8323898" lon="12.7590668"><ele>219.0</ele><time>2026-04-05T11:24:27.983Z</time></trkpt><trkpt lat="42.8326159" lon="12.758913"><ele>220.0</ele><time>2026-04-05T11:24:28.983Z</time></trkpt><trkpt lat="42.8328389" lon="12.758761"><ele>221.0</ele><time>2026-04-05T11:24:29.983Z</time></trkpt><trkpt lat="42.8330617" lon="12.7586082"><ele>221.0</ele><time>2026-04-05T11:24:30.983Z</time></trkpt><trkpt lat="42.8332857" lon="12.7584535"><ele>221.0</ele><time>2026-04-05T11:24:31.983Z</time></trkpt><trkpt lat="42.8335079" lon="12.7582983"><ele>221.0</ele><time>2026-04-05T11:24:32.983Z</time></trkpt><trkpt lat="42.8337243" lon="12.7581385"><ele>221.0</ele><time>2026-04-05T11:24:33.982Z</time></trkpt><trkpt lat="42.8339431" lon="12.7579863"><ele>221.0</ele><time>2026-04-05T11:24:34.983Z</time></trkpt><trkpt lat="42.8341672" lon="12.757831"><ele>221.0</ele><time>2026-04-05T11:24:35.982Z</time></trkpt><trkpt lat="42.834387" lon="12.7576688"><ele>220.5</ele><time>2026-04-05T11:24:36.983Z</time></trkpt><trkpt lat="42.8346082" lon="12.7575146"><ele>220.0</ele><time>2026-04-05T11:24:37.983Z</time></trkpt><trkpt lat="42.8348247" lon="12.7573602"><ele>220.0</ele><time>2026-04-05T11:24:38.983Z</time></trkpt><trkpt lat="42.8350385" lon="12.757195"><ele>220.0</ele><time>2026-04-05T11:24:39.982Z</time></trkpt><trkpt lat="42.8352598" lon="12.7570435"><ele>220.0</ele><time>2026-04-05T11:24:40.983Z</time></trkpt><trkpt lat="42.8354782" lon="12.7568944"><ele>220.0</ele><time>2026-04-05T11:24:41.983Z</time></trkpt><trkpt lat="42.8356975" lon="12.7567473"><ele>219.5</ele><time>2026-04-05T11:24:42.983Z</time></trkpt><trkpt lat="42.8359145" lon="12.7565971"><ele>219.0</ele><time>2026-04-05T11:24:43.982Z</time></trkpt><trkpt lat="42.8361316" lon="12.7564475"><ele>219.0</ele><time>2026-04-05T11:24:44.983Z</time></trkpt><trkpt lat="42.8363494" lon="12.7562963"><ele>219.0</ele><time>2026-04-05T11:24:45.983Z</time></trkpt><trkpt lat="42.8365664" lon="12.7561465"><ele>219.0</ele><time>2026-04-05T11:24:46.983Z</time></trkpt><trkpt lat="42.8367851" lon="12.755996"><ele>219.0</ele><time>2026-04-05T11:24:47.983Z</time></trkpt><trkpt lat="42.8370004" lon="12.7558446"><ele>219.0</ele><time>2026-04-05T11:24:48.982Z</time></trkpt><trkpt lat="42.8372199" lon="12.7557019"><ele>219.0</ele><time>2026-04-05T11:24:49.982Z</time></trkpt><trkpt lat="42.8374454" lon="12.7555549"><ele>218.5</ele><time>2026-04-05T11:24:50.983Z</time></trkpt><trkpt lat="42.8376624" lon="12.75541"><ele>218.0</ele><time>2026-04-05T11:24:51.982Z</time></trkpt><trkpt lat="42.8378866" lon="12.7552716"><ele>217.5</ele><time>2026-04-05T11:24:52.983Z</time></trkpt><trkpt lat="42.8381123" lon="12.7551226"><ele>217.0</ele><time>2026-04-05T11:24:53.983Z</time></trkpt><trkpt lat="42.838342" lon="12.7550015"><ele>218.0</ele><time>2026-04-05T11:24:54.983Z</time></trkpt><trkpt lat="42.8385798" lon="12.7548816"><ele>219.0</ele><time>2026-04-05T11:24:55.982Z</time></trkpt><trkpt lat="42.8388145" lon="12.7547644"><ele>219.0</ele><time>2026-04-05T11:24:56.983Z</time></trkpt><trkpt lat="42.839052" lon="12.7546529"><ele>219.0</ele><time>2026-04-05T11:24:57.982Z</time></trkpt><trkpt lat="42.8392867" lon="12.7545475"><ele>219.0</ele><time>2026-04-05T11:24:58.982Z</time></trkpt><trkpt lat="42.8395202" lon="12.7544395"><ele>219.0</ele><time>2026-04-05T11:24:59.982Z</time></trkpt><trkpt lat="42.8397557" lon="12.7543296"><ele>219.0</ele><time>2026-04-05T11:25:00.983Z</time></trkpt><trkpt lat="42.8399903" lon="12.7542168"><ele>219.0</ele><time>2026-04-05T11:25:01.982Z</time></trkpt><trkpt lat="42.8402303" lon="12.7541101"><ele>218.5</ele><time>2026-04-05T11:25:02.982Z</time></trkpt><trkpt lat="42.8404748" lon="12.7540022"><ele>218.0</ele><time>2026-04-05T11:25:03.983Z</time></trkpt><trkpt lat="42.8407139" lon="12.7539047"><ele>218.0</ele><time>2026-04-05T11:25:04.983Z</time></trkpt><trkpt lat="42.8409504" lon="12.7537857"><ele>218.0</ele><time>2026-04-05T11:25:05.983Z</time></trkpt><trkpt lat="42.84119" lon="12.7536767"><ele>217.5</ele><time>2026-04-05T11:25:06.983Z</time></trkpt><trkpt lat="42.8414254" lon="12.7535702"><ele>217.0</ele><time>2026-04-05T11:25:07.983Z</time></trkpt><trkpt lat="42.8416655" lon="12.753452"><ele>217.0</ele><time>2026-04-05T11:25:08.983Z</time></trkpt><trkpt lat="42.8419016" lon="12.7533206"><ele>217.0</ele><time>2026-04-05T11:25:09.983Z</time></trkpt><trkpt lat="42.8421369" lon="12.7532001"><ele>217.0</ele><time>2026-04-05T11:25:10.983Z</time></trkpt><trkpt lat="42.8423758" lon="12.7530728"><ele>217.0</ele><time>2026-04-05T11:25:11.982Z</time></trkpt><trkpt lat="42.8426052" lon="12.7529419"><ele>217.0</ele><time>2026-04-05T11:25:12.982Z</time></trkpt><trkpt lat="42.8428333" lon="12.7528011"><ele>217.0</ele><time>2026-04-05T11:25:13.983Z</time></trkpt><trkpt lat="42.8430612" lon="12.7526523"><ele>217.0</ele><time>2026-04-05T11:25:14.983Z</time></trkpt><trkpt lat="42.843288" lon="12.7525075"><ele>217.0</ele><time>2026-04-05T11:25:15.982Z</time></trkpt><trkpt lat="42.8435092" lon="12.7523493"><ele>217.0</ele><time>2026-04-05T11:25:16.983Z</time></trkpt><trkpt lat="42.8437265" lon="12.7521839"><ele>217.0</ele><time>2026-04-05T11:25:17.983Z</time></trkpt><trkpt lat="42.8439398" lon="12.752021"><ele>217.0</ele><time>2026-04-05T11:25:18.983Z</time></trkpt><trkpt lat="42.8441519" lon="12.7518407"><ele>217.0</ele><time>2026-04-05T11:25:19.983Z</time></trkpt><trkpt lat="42.84436" lon="12.7516601"><ele>217.0</ele><time>2026-04-05T11:25:20.983Z</time></trkpt><trkpt lat="42.8445668" lon="12.7514808"><ele>217.0</ele><time>2026-04-05T11:25:21.983Z</time></trkpt><trkpt lat="42.8447754" lon="12.7512937"><ele>217.0</ele><time>2026-04-05T11:25:22.983Z</time></trkpt><trkpt lat="42.8449834" lon="12.7510999"><ele>217.0</ele><time>2026-04-05T11:25:23.982Z</time></trkpt><trkpt lat="42.8451941" lon="12.750903"><ele>216.5</ele><time>2026-04-05T11:25:24.983Z</time></trkpt><trkpt lat="42.8454017" lon="12.7507096"><ele>216.0</ele><time>2026-04-05T11:25:25.983Z</time></trkpt><trkpt lat="42.8456117" lon="12.7505157"><ele>216.0</ele><time>2026-04-05T11:25:26.982Z</time></trkpt><trkpt lat="42.8458228" lon="12.7503163"><ele>216.0</ele><time>2026-04-05T11:25:27.983Z</time></trkpt><trkpt lat="42.8460293" lon="12.750112"><ele>215.5</ele><time>2026-04-05T11:25:28.982Z</time></trkpt><trkpt lat="42.8462405" lon="12.749913"><ele>215.0</ele><time>2026-04-05T11:25:29.982Z</time></trkpt><trkpt lat="42.8464526" lon="12.7497154"><ele>215.0</ele><time>2026-04-05T11:25:30.983Z</time></trkpt><trkpt lat="42.8466622" lon="12.7495137"><ele>215.0</ele><time>2026-04-05T11:25:31.983Z</time></trkpt><trkpt lat="42.8468728" lon="12.7493136"><ele>215.5</ele><time>2026-04-05T11:25:32.982Z</time></trkpt><trkpt lat="42.8470825" lon="12.7491233"><ele>216.0</ele><time>2026-04-05T11:25:33.983Z</time></trkpt><trkpt lat="42.8472981" lon="12.7489195"><ele>216.0</ele><time>2026-04-05T11:25:34.983Z</time></trkpt><trkpt lat="42.8475098" lon="12.7487157"><ele>216.0</ele><time>2026-04-05T11:25:35.982Z</time></trkpt><trkpt lat="42.8477187" lon="12.7485162"><ele>216.0</ele><time>2026-04-05T11:25:36.983Z</time></trkpt><trkpt lat="42.8479368" lon="12.7483232"><ele>216.0</ele><time>2026-04-05T11:25:37.983Z</time></trkpt><trkpt lat="42.8481597" lon="12.7481369"><ele>216.0</ele><time>2026-04-05T11:25:38.983Z</time></trkpt><trkpt lat="42.8483811" lon="12.747953"><ele>216.0</ele><time>2026-04-05T11:25:39.983Z</time></trkpt><trkpt lat="42.8486101" lon="12.7477819"><ele>215.5</ele><time>2026-04-05T11:25:40.983Z</time></trkpt><trkpt lat="42.848843" lon="12.7476173"><ele>215.0</ele><time>2026-04-05T11:25:41.983Z</time></trkpt><trkpt lat="42.8490794" lon="12.7474479"><ele>215.5</ele><time>2026-04-05T11:25:42.983Z</time></trkpt><trkpt lat="42.8493136" lon="12.7472916"><ele>216.0</ele><time>2026-04-05T11:25:43.982Z</time></trkpt><trkpt lat="42.8495475" lon="12.7471397"><ele>216.0</ele><time>2026-04-05T11:25:44.983Z</time></trkpt><trkpt lat="42.8497821" lon="12.7469819"><ele>216.0</ele><time>2026-04-05T11:25:45.983Z</time></trkpt><trkpt lat="42.8500205" lon="12.7468164"><ele>216.5</ele><time>2026-04-05T11:25:46.983Z</time></trkpt><trkpt lat="42.8502527" lon="12.7466529"><ele>217.0</ele><time>2026-04-05T11:25:47.983Z</time></trkpt><trkpt lat="42.8504813" lon="12.7464808"><ele>217.0</ele><time>2026-04-05T11:25:48.982Z</time></trkpt><trkpt lat="42.8507036" lon="12.7462936"><ele>217.0</ele><time>2026-04-05T11:25:49.983Z</time></trkpt><trkpt lat="42.8509216" lon="12.7461002"><ele>216.5</ele><time>2026-04-05T11:25:50.983Z</time></trkpt><trkpt lat="42.8511324" lon="12.7459004"><ele>216.0</ele><time>2026-04-05T11:25:51.982Z</time></trkpt><trkpt lat="42.8513373" lon="12.7457062"><ele>216.0</ele><time>2026-04-05T11:25:52.983Z</time></trkpt><trkpt lat="42.8515303" lon="12.745484"><ele>216.0</ele><time>2026-04-05T11:25:53.982Z</time></trkpt><trkpt lat="42.8517268" lon="12.745277"><ele>216.0</ele><time>2026-04-05T11:25:54.982Z</time></trkpt><trkpt lat="42.851917" lon="12.7450676"><ele>216.0</ele><time>2026-04-05T11:25:55.983Z</time></trkpt><trkpt lat="42.8521075" lon="12.744855"><ele>216.0</ele><time>2026-04-05T11:25:56.983Z</time></trkpt><trkpt lat="42.8522992" lon="12.7446448"><ele>216.0</ele><time>2026-04-05T11:25:57.982Z</time></trkpt><trkpt lat="42.852497" lon="12.7444333"><ele>217.0</ele><time>2026-04-05T11:25:58.982Z</time></trkpt><trkpt lat="42.8526828" lon="12.7442294"><ele>218.0</ele><time>2026-04-05T11:25:59.982Z</time></trkpt><trkpt lat="42.8528743" lon="12.7440227"><ele>218.0</ele><time>2026-04-05T11:26:00.983Z</time></trkpt><trkpt lat="42.8530656" lon="12.7438254"><ele>218.0</ele><time>2026-04-05T11:26:01.983Z</time></trkpt><trkpt lat="42.8532482" lon="12.7436067"><ele>217.5</ele><time>2026-04-05T11:26:02.983Z</time></trkpt><trkpt lat="42.8534312" lon="12.743404"><ele>217.0</ele><time>2026-04-05T11:26:03.982Z</time></trkpt><trkpt lat="42.8536119" lon="12.7431926"><ele>217.0</ele><time>2026-04-05T11:26:04.983Z</time></trkpt><trkpt lat="42.853801" lon="12.7429821"><ele>217.0</ele><time>2026-04-05T11:26:05.983Z</time></trkpt><trkpt lat="42.8539952" lon="12.7427863"><ele>217.0</ele><time>2026-04-05T11:26:06.983Z</time></trkpt><trkpt lat="42.854188" lon="12.7425942"><ele>217.0</ele><time>2026-04-05T11:26:07.983Z</time></trkpt><trkpt lat="42.8543858" lon="12.7424053"><ele>217.0</ele><time>2026-04-05T11:26:08.983Z</time></trkpt><trkpt lat="42.8545837" lon="12.7422064"><ele>217.0</ele><time>2026-04-05T11:26:09.983Z</time></trkpt><trkpt lat="42.8547815" lon="12.7420178"><ele>217.5</ele><time>2026-04-05T11:26:10.983Z</time></trkpt><trkpt lat="42.8549841" lon="12.7418254"><ele>218.0</ele><time>2026-04-05T11:26:11.983Z</time></trkpt><trkpt lat="42.8551863" lon="12.7416397"><ele>218.0</ele><time>2026-04-05T11:26:12.983Z</time></trkpt><trkpt lat="42.855389" lon="12.7414541"><ele>218.0</ele><time>2026-04-05T11:26:13.983Z</time></trkpt><trkpt lat="42.8555981" lon="12.7412677"><ele>218.0</ele><time>2026-04-05T11:26:14.982Z</time></trkpt><trkpt lat="42.8558105" lon="12.7410874"><ele>218.0</ele><time>2026-04-05T11:26:15.983Z</time></trkpt><trkpt lat="42.8560234" lon="12.7409079"><ele>216.5</ele><time>2026-04-05T11:26:16.983Z</time></trkpt><trkpt lat="42.8562388" lon="12.7407255"><ele>215.0</ele><time>2026-04-05T11:26:17.983Z</time></trkpt><trkpt lat="42.8564569" lon="12.7405395"><ele>215.0</ele><time>2026-04-05T11:26:18.982Z</time></trkpt><trkpt lat="42.8566733" lon="12.7403672"><ele>215.0</ele><time>2026-04-05T11:26:19.983Z</time></trkpt><trkpt lat="42.8568913" lon="12.7401725"><ele>215.5</ele><time>2026-04-05T11:26:20.983Z</time></trkpt><trkpt lat="42.8571145" lon="12.7400027"><ele>216.0</ele><time>2026-04-05T11:26:21.982Z</time></trkpt><trkpt lat="42.8573356" lon="12.7398526"><ele>216.0</ele><time>2026-04-05T11:26:22.982Z</time></trkpt><trkpt lat="42.8575554" lon="12.7396993"><ele>216.0</ele><time>2026-04-05T11:26:23.982Z</time></trkpt><trkpt lat="42.8577762" lon="12.7395433"><ele>216.0</ele><time>2026-04-05T11:26:24.983Z</time></trkpt><trkpt lat="42.857998" lon="12.7393918"><ele>216.0</ele><time>2026-04-05T11:26:25.982Z</time></trkpt><trkpt lat="42.8582151" lon="12.7392421"><ele>216.0</ele><time>2026-04-05T11:26:26.983Z</time></trkpt><trkpt lat="42.8584363" lon="12.739095"><ele>216.0</ele><time>2026-04-05T11:26:27.983Z</time></trkpt><trkpt lat="42.858658" lon="12.7389583"><ele>216.0</ele><time>2026-04-05T11:26:28.982Z</time></trkpt><trkpt lat="42.858875" lon="12.7388077"><ele>216.0</ele><time>2026-04-05T11:26:29.982Z</time></trkpt><trkpt lat="42.8590952" lon="12.7386777"><ele>215.5</ele><time>2026-04-05T11:26:30.983Z</time></trkpt><trkpt lat="42.8593188" lon="12.738547"><ele>215.0</ele><time>2026-04-05T11:26:31.983Z</time></trkpt><trkpt lat="42.8595397" lon="12.7384105"><ele>215.0</ele><time>2026-04-05T11:26:32.983Z</time></trkpt><trkpt lat="42.8597603" lon="12.7382817"><ele>215.0</ele><time>2026-04-05T11:26:33.983Z</time></trkpt><trkpt lat="42.8599794" lon="12.7381392"><ele>215.5</ele><time>2026-04-05T11:26:34.982Z</time></trkpt><trkpt lat="42.8602004" lon="12.7379907"><ele>216.0</ele><time>2026-04-05T11:26:35.983Z</time></trkpt><trkpt lat="42.8604157" lon="12.7378541"><ele>215.5</ele><time>2026-04-05T11:26:36.983Z</time></trkpt><trkpt lat="42.8606301" lon="12.7377125"><ele>215.0</ele><time>2026-04-05T11:26:37.983Z</time></trkpt><trkpt lat="42.8608446" lon="12.7375779"><ele>215.0</ele><time>2026-04-05T11:26:38.982Z</time></trkpt><trkpt lat="42.8610566" lon="12.7374396"><ele>215.0</ele><time>2026-04-05T11:26:39.983Z</time></trkpt><trkpt lat="42.861275" lon="12.7373007"><ele>215.0</ele><time>2026-04-05T11:26:40.983Z</time></trkpt><trkpt lat="42.8614936" lon="12.7371624"><ele>215.0</ele><time>2026-04-05T11:26:41.983Z</time></trkpt><trkpt lat="42.8617038" lon="12.7370123"><ele>215.5</ele><time>2026-04-05T11:26:42.983Z</time></trkpt><trkpt lat="42.8619159" lon="12.7368596"><ele>216.0</ele><time>2026-04-05T11:26:43.983Z</time></trkpt><trkpt lat="42.862131" lon="12.7367019"><ele>216.0</ele><time>2026-04-05T11:26:44.983Z</time></trkpt><trkpt lat="42.8623289" lon="12.7365427"><ele>216.0</ele><time>2026-04-05T11:26:45.983Z</time></trkpt><trkpt lat="42.8625362" lon="12.7363782"><ele>215.5</ele><time>2026-04-05T11:26:46.983Z</time></trkpt><trkpt lat="42.8627416" lon="12.7362055"><ele>215.0</ele><time>2026-04-05T11:26:47.982Z</time></trkpt><trkpt lat="42.8629436" lon="12.7360245"><ele>213.5</ele><time>2026-04-05T11:26:48.983Z</time></trkpt><trkpt lat="42.8631448" lon="12.7358416"><ele>212.0</ele><time>2026-04-05T11:26:49.983Z</time></trkpt><trkpt lat="42.8633428" lon="12.7356517"><ele>213.5</ele><time>2026-04-05T11:26:50.983Z</time></trkpt><trkpt lat="42.8635358" lon="12.7354434"><ele>215.0</ele><time>2026-04-05T11:26:51.982Z</time></trkpt><trkpt lat="42.8637242" lon="12.7352392"><ele>214.0</ele><time>2026-04-05T11:26:52.982Z</time></trkpt><trkpt lat="42.8639076" lon="12.7350405"><ele>213.0</ele><time>2026-04-05T11:26:53.983Z</time></trkpt><trkpt lat="42.8640856" lon="12.734822"><ele>213.0</ele><time>2026-04-05T11:26:54.983Z</time></trkpt><trkpt lat="42.8642671" lon="12.7346094"><ele>213.0</ele><time>2026-04-05T11:26:55.983Z</time></trkpt><trkpt lat="42.8644441" lon="12.7343919"><ele>213.0</ele><time>2026-04-05T11:26:56.982Z</time></trkpt><trkpt lat="42.8646199" lon="12.7341691"><ele>213.0</ele><time>2026-04-05T11:26:57.983Z</time></trkpt><trkpt lat="42.8647978" lon="12.7339498"><ele>213.0</ele><time>2026-04-05T11:26:58.983Z</time></trkpt><trkpt lat="42.8649714" lon="12.7337313"><ele>213.0</ele><time>2026-04-05T11:26:59.982Z</time></trkpt><trkpt lat="42.8651486" lon="12.7335136"><ele>213.5</ele><time>2026-04-05T11:27:00.983Z</time></trkpt><trkpt lat="42.8653236" lon="12.7332892"><ele>214.0</ele><time>2026-04-05T11:27:01.983Z</time></trkpt><trkpt lat="42.8655056" lon="12.7330729"><ele>214.0</ele><time>2026-04-05T11:27:02.983Z</time></trkpt><trkpt lat="42.865687" lon="12.732868"><ele>214.0</ele><time>2026-04-05T11:27:03.983Z</time></trkpt><trkpt lat="42.8658758" lon="12.7326697"><ele>213.0</ele><time>2026-04-05T11:27:04.983Z</time></trkpt><trkpt lat="42.8660678" lon="12.7324807"><ele>212.0</ele><time>2026-04-05T11:27:05.982Z</time></trkpt><trkpt lat="42.8662672" lon="12.7323048"><ele>212.0</ele><time>2026-04-05T11:27:06.982Z</time></trkpt><trkpt lat="42.8664681" lon="12.7321328"><ele>212.0</ele><time>2026-04-05T11:27:07.983Z</time></trkpt><trkpt lat="42.8666695" lon="12.7319569"><ele>212.0</ele><time>2026-04-05T11:27:08.982Z</time></trkpt><trkpt lat="42.8668767" lon="12.7317835"><ele>212.0</ele><time>2026-04-05T11:27:09.983Z</time></trkpt><trkpt lat="42.8670908" lon="12.731616"><ele>212.0</ele><time>2026-04-05T11:27:10.982Z</time></trkpt><trkpt lat="42.867297" lon="12.7314353"><ele>212.0</ele><time>2026-04-05T11:27:11.983Z</time></trkpt><trkpt lat="42.867507" lon="12.7312619"><ele>212.5</ele><time>2026-04-05T11:27:12.982Z</time></trkpt><trkpt lat="42.8677122" lon="12.7310879"><ele>213.0</ele><time>2026-04-05T11:27:13.983Z</time></trkpt><trkpt lat="42.8679224" lon="12.730927"><ele>213.0</ele><time>2026-04-05T11:27:14.983Z</time></trkpt><trkpt lat="42.8681314" lon="12.7307655"><ele>213.0</ele><time>2026-04-05T11:27:15.983Z</time></trkpt><trkpt lat="42.868338" lon="12.7305977"><ele>211.0</ele><time>2026-04-05T11:27:16.982Z</time></trkpt><trkpt lat="42.8685485" lon="12.7304319"><ele>209.0</ele><time>2026-04-05T11:27:17.983Z</time></trkpt><trkpt lat="42.8687612" lon="12.7302678"><ele>210.5</ele><time>2026-04-05T11:27:18.983Z</time></trkpt><trkpt lat="42.8689834" lon="12.7301228"><ele>212.0</ele><time>2026-04-05T11:27:19.983Z</time></trkpt><trkpt lat="42.8692003" lon="12.729978"><ele>211.0</ele><time>2026-04-05T11:27:20.982Z</time></trkpt><trkpt lat="42.8694196" lon="12.7298405"><ele>210.0</ele><time>2026-04-05T11:27:21.983Z</time></trkpt><trkpt lat="42.8696424" lon="12.7297217"><ele>210.0</ele><time>2026-04-05T11:27:22.983Z</time></trkpt><trkpt lat="42.8698728" lon="12.7296163"><ele>210.0</ele><time>2026-04-05T11:27:23.983Z</time></trkpt><trkpt lat="42.8701004" lon="12.7295189"><ele>210.0</ele><time>2026-04-05T11:27:24.983Z</time></trkpt><trkpt lat="42.8703351" lon="12.7294326"><ele>210.0</ele><time>2026-04-05T11:27:25.983Z</time></trkpt><trkpt lat="42.8705728" lon="12.7293564"><ele>210.5</ele><time>2026-04-05T11:27:26.983Z</time></trkpt><trkpt lat="42.8708085" lon="12.7292969"><ele>211.0</ele><time>2026-04-05T11:27:27.983Z</time></trkpt><trkpt lat="42.8710507" lon="12.7292434"><ele>211.0</ele><time>2026-04-05T11:27:28.982Z</time></trkpt><trkpt lat="42.8712941" lon="12.7292047"><ele>211.0</ele><time>2026-04-05T11:27:29.983Z</time></trkpt><trkpt lat="42.8715353" lon="12.7291778"><ele>211.0</ele><time>2026-04-05T11:27:30.983Z</time></trkpt><trkpt lat="42.8717703" lon="12.729161"><ele>211.0</ele><time>2026-04-05T11:27:31.982Z</time></trkpt><trkpt lat="42.872001" lon="12.7291566"><ele>211.5</ele><time>2026-04-05T11:27:32.983Z</time></trkpt><trkpt lat="42.8722422" lon="12.7291904"><ele>212.0</ele><time>2026-04-05T11:27:33.983Z</time></trkpt><trkpt lat="42.8724809" lon="12.7292212"><ele>212.0</ele><time>2026-04-05T11:27:34.982Z</time></trkpt><trkpt lat="42.8727248" lon="12.7292614"><ele>212.0</ele><time>2026-04-05T11:27:35.983Z</time></trkpt><trkpt lat="42.8729623" lon="12.7293099"><ele>212.0</ele><time>2026-04-05T11:27:36.983Z</time></trkpt><trkpt lat="42.8732014" lon="12.7293871"><ele>212.0</ele><time>2026-04-05T11:27:37.982Z</time></trkpt><trkpt lat="42.8734284" lon="12.7294623"><ele>212.0</ele><time>2026-04-05T11:27:38.982Z</time></trkpt><trkpt lat="42.8736555" lon="12.7295512"><ele>212.0</ele><time>2026-04-05T11:27:39.983Z</time></trkpt><trkpt lat="42.8738731" lon="12.7296437"><ele>212.0</ele><time>2026-04-05T11:27:40.982Z</time></trkpt><trkpt lat="42.8740885" lon="12.7297413"><ele>212.0</ele><time>2026-04-05T11:27:41.983Z</time></trkpt><trkpt lat="42.8743034" lon="12.7298366"><ele>211.0</ele><time>2026-04-05T11:27:42.983Z</time></trkpt><trkpt lat="42.8745187" lon="12.729929"><ele>210.0</ele><time>2026-04-05T11:27:43.983Z</time></trkpt><trkpt lat="42.874734" lon="12.730038"><ele>210.0</ele><time>2026-04-05T11:27:44.982Z</time></trkpt><trkpt lat="42.874948" lon="12.7301435"><ele>210.0</ele><time>2026-04-05T11:27:45.983Z</time></trkpt><trkpt lat="42.8751655" lon="12.7302354"><ele>209.66666666666669</ele><time>2026-04-05T11:27:46.983Z</time></trkpt><trkpt lat="42.8753796" lon="12.7303134"><ele>209.33333333333334</ele><time>2026-04-05T11:27:47.982Z</time></trkpt><trkpt lat="42.8755973" lon="12.7303934"><ele>209.0</ele><time>2026-04-05T11:27:48.983Z</time></trkpt><trkpt lat="42.8758216" lon="12.7304623"><ele>208.5</ele><time>2026-04-05T11:27:49.983Z</time></trkpt><trkpt lat="42.8760541" lon="12.7305161"><ele>208.0</ele><time>2026-04-05T11:27:50.983Z</time></trkpt><trkpt lat="42.8762961" lon="12.7305474"><ele>208.0</ele><time>2026-04-05T11:27:51.983Z</time></trkpt><trkpt lat="42.8765448" lon="12.7305715"><ele>208.0</ele><time>2026-04-05T11:27:52.983Z</time></trkpt><trkpt lat="42.8767958" lon="12.7305614"><ele>208.0</ele><time>2026-04-05T11:27:53.983Z</time></trkpt><trkpt lat="42.8770533" lon="12.7305672"><ele>208.0</ele><time>2026-04-05T11:27:54.983Z</time></trkpt><trkpt lat="42.8773076" lon="12.7305617"><ele>208.0</ele><time>2026-04-05T11:27:55.983Z</time></trkpt><trkpt lat="42.8775601" lon="12.7305537"><ele>208.0</ele><time>2026-04-05T11:27:56.983Z</time></trkpt><trkpt lat="42.8778137" lon="12.7305353"><ele>208.0</ele><time>2026-04-05T11:27:57.982Z</time></trkpt><trkpt lat="42.8780691" lon="12.7305114"><ele>208.0</ele><time>2026-04-05T11:27:58.982Z</time></trkpt><trkpt lat="42.8783125" lon="12.7304563"><ele>208.0</ele><time>2026-04-05T11:27:59.983Z</time></trkpt><trkpt lat="42.8785526" lon="12.7303857"><ele>208.0</ele><time>2026-04-05T11:28:00.983Z</time></trkpt><trkpt lat="42.8787872" lon="12.7303004"><ele>208.0</ele><time>2026-04-05T11:28:01.983Z</time></trkpt><trkpt lat="42.8790185" lon="12.7302033"><ele>208.0</ele><time>2026-04-05T11:28:02.983Z</time></trkpt><trkpt lat="42.8792523" lon="12.7301016"><ele>208.0</ele><time>2026-04-05T11:28:03.983Z</time></trkpt><trkpt lat="42.8794769" lon="12.7299719"><ele>208.0</ele><time>2026-04-05T11:28:04.982Z</time></trkpt><trkpt lat="42.8797049" lon="12.7298572"><ele>208.0</ele><time>2026-04-05T11:28:05.982Z</time></trkpt><trkpt lat="42.8799308" lon="12.7297301"><ele>208.0</ele><time>2026-04-05T11:28:06.983Z</time></trkpt><trkpt lat="42.8801537" lon="12.7296034"><ele>208.5</ele><time>2026-04-05T11:28:07.982Z</time></trkpt><trkpt lat="42.8803743" lon="12.7294746"><ele>209.0</ele><time>2026-04-05T11:28:08.983Z</time></trkpt><trkpt lat="42.8805973" lon="12.7293372"><ele>209.0</ele><time>2026-04-05T11:28:09.983Z</time></trkpt><trkpt lat="42.880817" lon="12.7292036"><ele>209.0</ele><time>2026-04-05T11:28:10.983Z</time></trkpt><trkpt lat="42.8810402" lon="12.729073"><ele>209.0</ele><time>2026-04-05T11:28:11.982Z</time></trkpt><trkpt lat="42.88126" lon="12.7289401"><ele>209.0</ele><time>2026-04-05T11:28:12.983Z</time></trkpt><trkpt lat="42.8814796" lon="12.7288048"><ele>209.0</ele><time>2026-04-05T11:28:13.983Z</time></trkpt><trkpt lat="42.8816986" lon="12.7286737"><ele>209.0</ele><time>2026-04-05T11:28:14.983Z</time></trkpt><trkpt lat="42.8819178" lon="12.7285287"><ele>209.5</ele><time>2026-04-05T11:28:15.982Z</time></trkpt><trkpt lat="42.8821359" lon="12.7284031"><ele>210.0</ele><time>2026-04-05T11:28:16.983Z</time></trkpt><trkpt lat="42.8823537" lon="12.7282703"><ele>210.0</ele><time>2026-04-05T11:28:17.983Z</time></trkpt><trkpt lat="42.8825812" lon="12.7281433"><ele>210.0</ele><time>2026-04-05T11:28:18.983Z</time></trkpt><trkpt lat="42.882805" lon="12.7280132"><ele>209.0</ele><time>2026-04-05T11:28:19.983Z</time></trkpt><trkpt lat="42.8830253" lon="12.7278757"><ele>208.0</ele><time>2026-04-05T11:28:20.983Z</time></trkpt><trkpt lat="42.8832473" lon="12.7277398"><ele>208.5</ele><time>2026-04-05T11:28:21.982Z</time></trkpt><trkpt lat="42.8834746" lon="12.7276026"><ele>209.0</ele><time>2026-04-05T11:28:22.983Z</time></trkpt><trkpt lat="42.8837034" lon="12.727472"><ele>209.0</ele><time>2026-04-05T11:28:23.983Z</time></trkpt><trkpt lat="42.8839285" lon="12.7273339"><ele>209.0</ele><time>2026-04-05T11:28:24.982Z</time></trkpt><trkpt lat="42.8841588" lon="12.727195"><ele>209.5</ele><time>2026-04-05T11:28:25.983Z</time></trkpt><trkpt lat="42.884387" lon="12.7270487"><ele>210.0</ele><time>2026-04-05T11:28:26.982Z</time></trkpt><trkpt lat="42.8846171" lon="12.7269156"><ele>208.5</ele><time>2026-04-05T11:28:27.983Z</time></trkpt><trkpt lat="42.8848529" lon="12.7267781"><ele>207.0</ele><time>2026-04-05T11:28:28.983Z</time></trkpt><trkpt lat="42.8850839" lon="12.7266436"><ele>207.0</ele><time>2026-04-05T11:28:29.983Z</time></trkpt><trkpt lat="42.8853154" lon="12.726496"><ele>207.0</ele><time>2026-04-05T11:28:30.983Z</time></trkpt><trkpt lat="42.8855445" lon="12.7263555"><ele>207.0</ele><time>2026-04-05T11:28:31.983Z</time></trkpt><trkpt lat="42.8857783" lon="12.7262144"><ele>207.0</ele><time>2026-04-05T11:28:32.983Z</time></trkpt><trkpt lat="42.8860093" lon="12.7260801"><ele>207.0</ele><time>2026-04-05T11:28:33.983Z</time></trkpt><trkpt lat="42.8862365" lon="12.7259422"><ele>207.0</ele><time>2026-04-05T11:28:34.983Z</time></trkpt><trkpt lat="42.886464" lon="12.7258068"><ele>207.0</ele><time>2026-04-05T11:28:35.982Z</time></trkpt><trkpt lat="42.8866938" lon="12.7256688"><ele>207.0</ele><time>2026-04-05T11:28:36.983Z</time></trkpt><trkpt lat="42.8869211" lon="12.7255326"><ele>208.0</ele><time>2026-04-05T11:28:37.983Z</time></trkpt><trkpt lat="42.8871463" lon="12.7253948"><ele>209.0</ele><time>2026-04-05T11:28:38.983Z</time></trkpt><trkpt lat="42.887374" lon="12.725266"><ele>208.0</ele><time>2026-04-05T11:28:39.982Z</time></trkpt><trkpt lat="42.8875981" lon="12.7251345"><ele>207.0</ele><time>2026-04-05T11:28:40.982Z</time></trkpt><trkpt lat="42.8878247" lon="12.7249914"><ele>207.0</ele><time>2026-04-05T11:28:41.983Z</time></trkpt><trkpt lat="42.8880511" lon="12.7248602"><ele>207.0</ele><time>2026-04-05T11:28:42.983Z</time></trkpt><trkpt lat="42.8882776" lon="12.7247319"><ele>207.0</ele><time>2026-04-05T11:28:43.982Z</time></trkpt><trkpt lat="42.8885009" lon="12.7245999"><ele>207.0</ele><time>2026-04-05T11:28:44.983Z</time></trkpt><trkpt lat="42.8887229" lon="12.7244615"><ele>206.5</ele><time>2026-04-05T11:28:45.983Z</time></trkpt><trkpt lat="42.8889466" lon="12.7243269"><ele>206.0</ele><time>2026-04-05T11:28:46.983Z</time></trkpt><trkpt lat="42.8891706" lon="12.7241951"><ele>206.5</ele><time>2026-04-05T11:28:47.983Z</time></trkpt><trkpt lat="42.8893976" lon="12.7240593"><ele>207.0</ele><time>2026-04-05T11:28:48.983Z</time></trkpt><trkpt lat="42.889632" lon="12.7239262"><ele>207.0</ele><time>2026-04-05T11:28:49.983Z</time></trkpt><trkpt lat="42.8898573" lon="12.7237984"><ele>207.0</ele><time>2026-04-05T11:28:50.983Z</time></trkpt><trkpt lat="42.8900898" lon="12.7236781"><ele>205.5</ele><time>2026-04-05T11:28:51.982Z</time></trkpt><trkpt lat="42.8903214" lon="12.7235514"><ele>204.0</ele><time>2026-04-05T11:28:52.983Z</time></trkpt><trkpt lat="42.8905532" lon="12.7234281"><ele>204.0</ele><time>2026-04-05T11:28:53.983Z</time></trkpt><trkpt lat="42.8907864" lon="12.7233049"><ele>204.0</ele><time>2026-04-05T11:28:54.982Z</time></trkpt><trkpt lat="42.8910196" lon="12.7231857"><ele>205.0</ele><time>2026-04-05T11:28:55.983Z</time></trkpt><trkpt lat="42.8912582" lon="12.7230707"><ele>206.0</ele><time>2026-04-05T11:28:56.982Z</time></trkpt><trkpt lat="42.8914983" lon="12.7229541"><ele>206.0</ele><time>2026-04-05T11:28:57.982Z</time></trkpt><trkpt lat="42.891738" lon="12.7228409"><ele>206.0</ele><time>2026-04-05T11:28:58.983Z</time></trkpt><trkpt lat="42.8919791" lon="12.7227302"><ele>205.5</ele><time>2026-04-05T11:28:59.983Z</time></trkpt><trkpt lat="42.8922195" lon="12.7226226"><ele>205.0</ele><time>2026-04-05T11:29:00.982Z</time></trkpt><trkpt lat="42.8924638" lon="12.7225193"><ele>207.0</ele><time>2026-04-05T11:29:01.983Z</time></trkpt><trkpt lat="42.892708" lon="12.7224187"><ele>209.0</ele><time>2026-04-05T11:29:02.982Z</time></trkpt><trkpt lat="42.8929514" lon="12.7223216"><ele>209.0</ele><time>2026-04-05T11:29:03.983Z</time></trkpt><trkpt lat="42.893193" lon="12.7222173"><ele>209.0</ele><time>2026-04-05T11:29:04.982Z</time></trkpt><trkpt lat="42.8934339" lon="12.7221282"><ele>208.0</ele><time>2026-04-05T11:29:05.983Z</time></trkpt><trkpt lat="42.8936749" lon="12.7220259"><ele>207.0</ele><time>2026-04-05T11:29:06.983Z</time></trkpt><trkpt lat="42.8939229" lon="12.7219332"><ele>207.0</ele><time>2026-04-05T11:29:07.983Z</time></trkpt><trkpt lat="42.8941654" lon="12.7218579"><ele>207.0</ele><time>2026-04-05T11:29:08.982Z</time></trkpt><trkpt lat="42.8944071" lon="12.7217732"><ele>207.0</ele><time>2026-04-05T11:29:09.983Z</time></trkpt><trkpt lat="42.89465" lon="12.7217004"><ele>207.0</ele><time>2026-04-05T11:29:10.983Z</time></trkpt><trkpt lat="42.8948892" lon="12.7216289"><ele>207.0</ele><time>2026-04-05T11:29:11.983Z</time></trkpt><trkpt lat="42.8951333" lon="12.7215602"><ele>207.0</ele><time>2026-04-05T11:29:12.983Z</time></trkpt><trkpt lat="42.8953667" lon="12.7214857"><ele>207.0</ele><time>2026-04-05T11:29:13.983Z</time></trkpt><trkpt lat="42.8956112" lon="12.7214226"><ele>207.0</ele><time>2026-04-05T11:29:14.983Z</time></trkpt><trkpt lat="42.8958516" lon="12.7213492"><ele>206.5</ele><time>2026-04-05T11:29:15.983Z</time></trkpt><trkpt lat="42.896097" lon="12.7212925"><ele>206.0</ele><time>2026-04-05T11:29:16.983Z</time></trkpt><trkpt lat="42.8963378" lon="12.7212311"><ele>206.0</ele><time>2026-04-05T11:29:17.983Z</time></trkpt><trkpt lat="42.8965812" lon="12.7211813"><ele>206.0</ele><time>2026-04-05T11:29:18.983Z</time></trkpt><trkpt lat="42.8968222" lon="12.7211255"><ele>206.5</ele><time>2026-04-05T11:29:19.983Z</time></trkpt><trkpt lat="42.8970678" lon="12.7210767"><ele>207.0</ele><time>2026-04-05T11:29:20.983Z</time></trkpt><trkpt lat="42.8973124" lon="12.7210364"><ele>207.0</ele><time>2026-04-05T11:29:21.982Z</time></trkpt><trkpt lat="42.8975537" lon="12.7209969"><ele>207.0</ele><time>2026-04-05T11:29:22.982Z</time></trkpt><trkpt lat="42.8977967" lon="12.7209561"><ele>205.0</ele><time>2026-04-05T11:29:23.983Z</time></trkpt><trkpt lat="42.8980429" lon="12.7209241"><ele>203.0</ele><time>2026-04-05T11:29:24.983Z</time></trkpt><trkpt lat="42.8982877" lon="12.7208956"><ele>204.5</ele><time>2026-04-05T11:29:25.983Z</time></trkpt><trkpt lat="42.8985284" lon="12.7208703"><ele>206.0</ele><time>2026-04-05T11:29:26.982Z</time></trkpt><trkpt lat="42.898777" lon="12.7208589"><ele>206.0</ele><time>2026-04-05T11:29:27.983Z</time></trkpt><trkpt lat="42.8990242" lon="12.7208263"><ele>206.0</ele><time>2026-04-05T11:29:28.983Z</time></trkpt><trkpt lat="42.8992634" lon="12.720807"><ele>206.5</ele><time>2026-04-05T11:29:29.982Z</time></trkpt><trkpt lat="42.8995023" lon="12.7207876"><ele>207.0</ele><time>2026-04-05T11:29:30.983Z</time></trkpt><trkpt lat="42.8997508" lon="12.7207859"><ele>207.0</ele><time>2026-04-05T11:29:31.983Z</time></trkpt><trkpt lat="42.8999926" lon="12.7207849"><ele>207.0</ele><time>2026-04-05T11:29:32.983Z</time></trkpt><trkpt lat="42.9002372" lon="12.7207757"><ele>207.0</ele><time>2026-04-05T11:29:33.983Z</time></trkpt><trkpt lat="42.9004788" lon="12.720768"><ele>207.0</ele><time>2026-04-05T11:29:34.983Z</time></trkpt><trkpt lat="42.9007225" lon="12.7207625"><ele>207.5</ele><time>2026-04-05T11:29:35.982Z</time></trkpt><trkpt lat="42.9009717" lon="12.7207578"><ele>208.0</ele><time>2026-04-05T11:29:36.983Z</time></trkpt><trkpt lat="42.9012202" lon="12.720762"><ele>208.0</ele><time>2026-04-05T11:29:37.983Z</time></trkpt><trkpt lat="42.9014673" lon="12.7207663"><ele>208.0</ele><time>2026-04-05T11:29:38.982Z</time></trkpt><trkpt lat="42.901717" lon="12.7207604"><ele>207.5</ele><time>2026-04-05T11:29:39.983Z</time></trkpt><trkpt lat="42.901966" lon="12.7207747"><ele>207.0</ele><time>2026-04-05T11:29:40.983Z</time></trkpt><trkpt lat="42.9022119" lon="12.7207896"><ele>207.0</ele><time>2026-04-05T11:29:41.983Z</time></trkpt><trkpt lat="42.9024576" lon="12.720802"><ele>207.0</ele><time>2026-04-05T11:29:42.983Z</time></trkpt><trkpt lat="42.9027041" lon="12.7208266"><ele>206.5</ele><time>2026-04-05T11:29:43.983Z</time></trkpt><trkpt lat="42.9029498" lon="12.720852"><ele>206.0</ele><time>2026-04-05T11:29:44.982Z</time></trkpt><trkpt lat="42.9031896" lon="12.7208931"><ele>206.5</ele><time>2026-04-05T11:29:45.983Z</time></trkpt><trkpt lat="42.9034372" lon="12.7209372"><ele>207.0</ele><time>2026-04-05T11:29:46.983Z</time></trkpt><trkpt lat="42.9036733" lon="12.7209879"><ele>207.0</ele><time>2026-04-05T11:29:47.983Z</time></trkpt><trkpt lat="42.9039136" lon="12.7210475"><ele>207.0</ele><time>2026-04-05T11:29:48.983Z</time></trkpt><trkpt lat="42.9041569" lon="12.7211317"><ele>207.5</ele><time>2026-04-05T11:29:49.983Z</time></trkpt><trkpt lat="42.9043941" lon="12.7212127"><ele>208.0</ele><time>2026-04-05T11:29:50.983Z</time></trkpt><trkpt lat="42.9046297" lon="12.7213036"><ele>208.0</ele><time>2026-04-05T11:29:51.982Z</time></trkpt><trkpt lat="42.9048655" lon="12.7214006"><ele>208.0</ele><time>2026-04-05T11:29:52.982Z</time></trkpt><trkpt lat="42.9050989" lon="12.7215175"><ele>208.0</ele><time>2026-04-05T11:29:53.983Z</time></trkpt><trkpt lat="42.9053319" lon="12.7216307"><ele>208.0</ele><time>2026-04-05T11:29:54.982Z</time></trkpt><trkpt lat="42.9055599" lon="12.7217527"><ele>208.0</ele><time>2026-04-05T11:29:55.983Z</time></trkpt><trkpt lat="42.9057861" lon="12.721888"><ele>208.0</ele><time>2026-04-05T11:29:56.982Z</time></trkpt><trkpt lat="42.9060104" lon="12.7220434"><ele>207.5</ele><time>2026-04-05T11:29:57.983Z</time></trkpt><trkpt lat="42.9062352" lon="12.7221981"><ele>207.0</ele><time>2026-04-05T11:29:58.983Z</time></trkpt><trkpt lat="42.9064548" lon="12.7223628"><ele>207.0</ele><time>2026-04-05T11:29:59.982Z</time></trkpt><trkpt lat="42.9066695" lon="12.7225302"><ele>207.0</ele><time>2026-04-05T11:30:00.983Z</time></trkpt><trkpt lat="42.9068715" lon="12.7227149"><ele>207.0</ele><time>2026-04-05T11:30:01.983Z</time></trkpt><trkpt lat="42.9070838" lon="12.7228951"><ele>207.0</ele><time>2026-04-05T11:30:02.983Z</time></trkpt><trkpt lat="42.9072885" lon="12.7230854"><ele>207.0</ele><time>2026-04-05T11:30:03.982Z</time></trkpt><trkpt lat="42.9074941" lon="12.7232726"><ele>207.0</ele><time>2026-04-05T11:30:04.983Z</time></trkpt><trkpt lat="42.9076933" lon="12.7234746"><ele>208.5</ele><time>2026-04-05T11:30:05.983Z</time></trkpt><trkpt lat="42.9078924" lon="12.7236641"><ele>210.0</ele><time>2026-04-05T11:30:06.983Z</time></trkpt><trkpt lat="42.9080916" lon="12.7238537"><ele>210.0</ele><time>2026-04-05T11:30:07.982Z</time></trkpt><trkpt lat="42.9082928" lon="12.7240457"><ele>210.0</ele><time>2026-04-05T11:30:08.982Z</time></trkpt><trkpt lat="42.9084902" lon="12.7242366"><ele>211.5</ele><time>2026-04-05T11:30:09.983Z</time></trkpt><trkpt lat="42.9086867" lon="12.724436"><ele>213.0</ele><time>2026-04-05T11:30:10.983Z</time></trkpt><trkpt lat="42.9088774" lon="12.7246285"><ele>213.0</ele><time>2026-04-05T11:30:11.982Z</time></trkpt><trkpt lat="42.9090673" lon="12.7248134"><ele>213.0</ele><time>2026-04-05T11:30:12.982Z</time></trkpt><trkpt lat="42.9092624" lon="12.7249962"><ele>213.0</ele><time>2026-04-05T11:30:13.983Z</time></trkpt><trkpt lat="42.9094579" lon="12.7251904"><ele>213.0</ele><time>2026-04-05T11:30:14.983Z</time></trkpt><trkpt lat="42.9096633" lon="12.7253762"><ele>215.0</ele><time>2026-04-05T11:30:15.983Z</time></trkpt><trkpt lat="42.9098584" lon="12.7255669"><ele>217.0</ele><time>2026-04-05T11:30:16.983Z</time></trkpt><trkpt lat="42.9100577" lon="12.7257486"><ele>216.0</ele><time>2026-04-05T11:30:17.982Z</time></trkpt><trkpt lat="42.910252" lon="12.7259386"><ele>215.0</ele><time>2026-04-05T11:30:18.983Z</time></trkpt><trkpt lat="42.9104522" lon="12.7261293"><ele>215.0</ele><time>2026-04-05T11:30:19.983Z</time></trkpt><trkpt lat="42.9106468" lon="12.7263227"><ele>215.0</ele><time>2026-04-05T11:30:20.982Z</time></trkpt><trkpt lat="42.9108465" lon="12.7265149"><ele>213.5</ele><time>2026-04-05T11:30:21.983Z</time></trkpt><trkpt lat="42.9110415" lon="12.7267085"><ele>212.0</ele><time>2026-04-05T11:30:22.983Z</time></trkpt><trkpt lat="42.911237" lon="12.7268926"><ele>214.0</ele><time>2026-04-05T11:30:23.983Z</time></trkpt><trkpt lat="42.91143" lon="12.7270797"><ele>216.0</ele><time>2026-04-05T11:30:24.983Z</time></trkpt><trkpt lat="42.9116288" lon="12.7272526"><ele>216.5</ele><time>2026-04-05T11:30:25.983Z</time></trkpt><trkpt lat="42.9118276" lon="12.7274291"><ele>217.0</ele><time>2026-04-05T11:30:26.982Z</time></trkpt><trkpt lat="42.9120331" lon="12.7275955"><ele>219.0</ele><time>2026-04-05T11:30:27.983Z</time></trkpt><trkpt lat="42.9122439" lon="12.7277497"><ele>221.0</ele><time>2026-04-05T11:30:28.983Z</time></trkpt><trkpt lat="42.9124554" lon="12.7278913"><ele>222.0</ele><time>2026-04-05T11:30:29.982Z</time></trkpt><trkpt lat="42.912672" lon="12.7280226"><ele>223.0</ele><time>2026-04-05T11:30:30.983Z</time></trkpt><trkpt lat="42.9128939" lon="12.7281425"><ele>223.0</ele><time>2026-04-05T11:30:31.983Z</time></trkpt><trkpt lat="42.9131183" lon="12.7282503"><ele>223.0</ele><time>2026-04-05T11:30:32.983Z</time></trkpt><trkpt lat="42.9133495" lon="12.7283427"><ele>222.0</ele><time>2026-04-05T11:30:33.983Z</time></trkpt><trkpt lat="42.9135779" lon="12.728433"><ele>221.0</ele><time>2026-04-05T11:30:34.983Z</time></trkpt><trkpt lat="42.9138116" lon="12.728506"><ele>222.5</ele><time>2026-04-05T11:30:35.982Z</time></trkpt><trkpt lat="42.9140486" lon="12.7285662"><ele>224.0</ele><time>2026-04-05T11:30:36.983Z</time></trkpt><trkpt lat="42.9142868" lon="12.7286083"><ele>224.0</ele><time>2026-04-05T11:30:37.982Z</time></trkpt><trkpt lat="42.9145225" lon="12.7286397"><ele>224.0</ele><time>2026-04-05T11:30:38.982Z</time></trkpt><trkpt lat="42.9147615" lon="12.7286523"><ele>224.0</ele><time>2026-04-05T11:30:39.983Z</time></trkpt><trkpt lat="42.9150037" lon="12.72865"><ele>224.0</ele><time>2026-04-05T11:30:40.982Z</time></trkpt><trkpt lat="42.9152418" lon="12.7286381"><ele>224.5</ele><time>2026-04-05T11:30:41.982Z</time></trkpt><trkpt lat="42.9154837" lon="12.7286158"><ele>225.0</ele><time>2026-04-05T11:30:42.983Z</time></trkpt><trkpt lat="42.915726" lon="12.7285798"><ele>224.0</ele><time>2026-04-05T11:30:43.983Z</time></trkpt><trkpt lat="42.9159628" lon="12.7285324"><ele>223.0</ele><time>2026-04-05T11:30:44.983Z</time></trkpt><trkpt lat="42.9162017" lon="12.7284861"><ele>223.0</ele><time>2026-04-05T11:30:45.982Z</time></trkpt><trkpt lat="42.9164453" lon="12.7284317"><ele>223.0</ele><time>2026-04-05T11:30:46.983Z</time></trkpt><trkpt lat="42.9166831" lon="12.7283746"><ele>222.5</ele><time>2026-04-05T11:30:47.983Z</time></trkpt><trkpt lat="42.9169238" lon="12.7283247"><ele>222.0</ele><time>2026-04-05T11:30:48.983Z</time></trkpt><trkpt lat="42.917161" lon="12.7282773"><ele>222.0</ele><time>2026-04-05T11:30:49.983Z</time></trkpt><trkpt lat="42.9173987" lon="12.7282266"><ele>222.0</ele><time>2026-04-05T11:30:50.982Z</time></trkpt><trkpt lat="42.9176386" lon="12.7281803"><ele>223.0</ele><time>2026-04-05T11:30:51.982Z</time></trkpt><trkpt lat="42.9178772" lon="12.7281335"><ele>224.0</ele><time>2026-04-05T11:30:52.983Z</time></trkpt><trkpt lat="42.9181181" lon="12.728087"><ele>224.0</ele><time>2026-04-05T11:30:53.983Z</time></trkpt><trkpt lat="42.9183535" lon="12.7280391"><ele>224.0</ele><time>2026-04-05T11:30:54.982Z</time></trkpt><trkpt lat="42.9185941" lon="12.7279806"><ele>223.0</ele><time>2026-04-05T11:30:55.983Z</time></trkpt><trkpt lat="42.9188334" lon="12.7279361"><ele>222.0</ele><time>2026-04-05T11:30:56.983Z</time></trkpt><trkpt lat="42.9190737" lon="12.727884"><ele>223.0</ele><time>2026-04-05T11:30:57.983Z</time></trkpt><trkpt lat="42.9193122" lon="12.7278341"><ele>224.0</ele><time>2026-04-05T11:30:58.983Z</time></trkpt><trkpt lat="42.9195528" lon="12.7277895"><ele>224.0</ele><time>2026-04-05T11:30:59.983Z</time></trkpt><trkpt lat="42.9197953" lon="12.7277393"><ele>224.0</ele><time>2026-04-05T11:31:00.982Z</time></trkpt><trkpt lat="42.9200354" lon="12.7276877"><ele>224.0</ele><time>2026-04-05T11:31:01.983Z</time></trkpt><trkpt lat="42.9202757" lon="12.7276434"><ele>224.0</ele><time>2026-04-05T11:31:02.983Z</time></trkpt><trkpt lat="42.9205191" lon="12.7275987"><ele>224.0</ele><time>2026-04-05T11:31:03.983Z</time></trkpt><trkpt lat="42.9207635" lon="12.7275714"><ele>224.0</ele><time>2026-04-05T11:31:04.983Z</time></trkpt><trkpt lat="42.9210147" lon="12.7275543"><ele>224.0</ele><time>2026-04-05T11:31:05.983Z</time></trkpt><trkpt lat="42.9212563" lon="12.7275452"><ele>224.0</ele><time>2026-04-05T11:31:06.982Z</time></trkpt><trkpt lat="42.9214994" lon="12.7275437"><ele>225.0</ele><time>2026-04-05T11:31:07.982Z</time></trkpt><trkpt lat="42.9217396" lon="12.7275422"><ele>226.0</ele><time>2026-04-05T11:31:08.983Z</time></trkpt><trkpt lat="42.9219817" lon="12.7275549"><ele>226.0</ele><time>2026-04-05T11:31:09.982Z</time></trkpt><trkpt lat="42.9222258" lon="12.7275755"><ele>226.0</ele><time>2026-04-05T11:31:10.983Z</time></trkpt><trkpt lat="42.9224665" lon="12.7276056"><ele>226.5</ele><time>2026-04-05T11:31:11.982Z</time></trkpt><trkpt lat="42.9227047" lon="12.7276412"><ele>227.0</ele><time>2026-04-05T11:31:12.983Z</time></trkpt><trkpt lat="42.9229449" lon="12.7276747"><ele>227.0</ele><time>2026-04-05T11:31:13.983Z</time></trkpt><trkpt lat="42.9231888" lon="12.7277178"><ele>227.0</ele><time>2026-04-05T11:31:14.982Z</time></trkpt><trkpt lat="42.923426" lon="12.7277611"><ele>228.0</ele><time>2026-04-05T11:31:15.983Z</time></trkpt><trkpt lat="42.9236717" lon="12.7278131"><ele>229.0</ele><time>2026-04-05T11:31:16.982Z</time></trkpt><trkpt lat="42.9239097" lon="12.7278577"><ele>229.0</ele><time>2026-04-05T11:31:17.982Z</time></trkpt><trkpt lat="42.9241418" lon="12.727899"><ele>229.0</ele><time>2026-04-05T11:31:18.983Z</time></trkpt><trkpt lat="42.9243793" lon="12.7279369"><ele>229.5</ele><time>2026-04-05T11:31:19.983Z</time></trkpt><trkpt lat="42.924612" lon="12.7279783"><ele>230.0</ele><time>2026-04-05T11:31:20.983Z</time></trkpt><trkpt lat="42.9248461" lon="12.7280212"><ele>230.0</ele><time>2026-04-05T11:31:21.982Z</time></trkpt><trkpt lat="42.9250768" lon="12.7280618"><ele>230.0</ele><time>2026-04-05T11:31:22.983Z</time></trkpt><trkpt lat="42.9253062" lon="12.7281"><ele>230.0</ele><time>2026-04-05T11:31:23.982Z</time></trkpt><trkpt lat="42.9255361" lon="12.7281439"><ele>230.0</ele><time>2026-04-05T11:31:24.983Z</time></trkpt><trkpt lat="42.9257626" lon="12.728189"><ele>231.0</ele><time>2026-04-05T11:31:25.982Z</time></trkpt><trkpt lat="42.9259913" lon="12.7282299"><ele>232.0</ele><time>2026-04-05T11:31:26.982Z</time></trkpt><trkpt lat="42.9262204" lon="12.7282684"><ele>232.0</ele><time>2026-04-05T11:31:27.982Z</time></trkpt><trkpt lat="42.9264546" lon="12.7283042"><ele>232.0</ele><time>2026-04-05T11:31:28.983Z</time></trkpt><trkpt lat="42.926682" lon="12.7283343"><ele>232.0</ele><time>2026-04-05T11:31:29.983Z</time></trkpt><trkpt lat="42.9269065" lon="12.7283683"><ele>232.0</ele><time>2026-04-05T11:31:30.983Z</time></trkpt><trkpt lat="42.9271323" lon="12.728409"><ele>232.0</ele><time>2026-04-05T11:31:31.983Z</time></trkpt><trkpt lat="42.927361" lon="12.7284494"><ele>232.0</ele><time>2026-04-05T11:31:32.982Z</time></trkpt><trkpt lat="42.9275911" lon="12.728473"><ele>232.5</ele><time>2026-04-05T11:31:33.983Z</time></trkpt><trkpt lat="42.9278181" lon="12.7285067"><ele>233.0</ele><time>2026-04-05T11:31:34.982Z</time></trkpt><trkpt lat="42.9280424" lon="12.72854"><ele>236.0</ele><time>2026-04-05T11:31:35.982Z</time></trkpt><trkpt lat="42.9282716" lon="12.7285768"><ele>239.0</ele><time>2026-04-05T11:31:36.983Z</time></trkpt><trkpt lat="42.9284964" lon="12.728608"><ele>239.0</ele><time>2026-04-05T11:31:37.983Z</time></trkpt><trkpt lat="42.9287232" lon="12.7286389"><ele>239.0</ele><time>2026-04-05T11:31:38.983Z</time></trkpt><trkpt lat="42.9289495" lon="12.7286716"><ele>239.0</ele><time>2026-04-05T11:31:39.983Z</time></trkpt><trkpt lat="42.9291849" lon="12.7286677"><ele>239.0</ele><time>2026-04-05T11:31:40.983Z</time></trkpt><trkpt lat="42.9294169" lon="12.7286522"><ele>240.0</ele><time>2026-04-05T11:31:41.982Z</time></trkpt><trkpt lat="42.9296451" lon="12.7286155"><ele>241.0</ele><time>2026-04-05T11:31:42.982Z</time></trkpt><trkpt lat="42.9298753" lon="12.7285713"><ele>240.5</ele><time>2026-04-05T11:31:43.983Z</time></trkpt><trkpt lat="42.9301003" lon="12.7285027"><ele>240.0</ele><time>2026-04-05T11:31:44.983Z</time></trkpt><trkpt lat="42.9303348" lon="12.7284401"><ele>240.0</ele><time>2026-04-05T11:31:45.983Z</time></trkpt><trkpt lat="42.9305607" lon="12.7283511"><ele>240.0</ele><time>2026-04-05T11:31:46.982Z</time></trkpt><trkpt lat="42.9307925" lon="12.7282645"><ele>241.0</ele><time>2026-04-05T11:31:47.983Z</time></trkpt><trkpt lat="42.931025" lon="12.7281628"><ele>242.0</ele><time>2026-04-05T11:31:48.983Z</time></trkpt><trkpt lat="42.931252" lon="12.7280348"><ele>242.0</ele><time>2026-04-05T11:31:49.983Z</time></trkpt><trkpt lat="42.9314809" lon="12.7279159"><ele>242.0</ele><time>2026-04-05T11:31:50.983Z</time></trkpt><trkpt lat="42.9317052" lon="12.7277761"><ele>241.5</ele><time>2026-04-05T11:31:51.983Z</time></trkpt><trkpt lat="42.9319314" lon="12.7276317"><ele>241.0</ele><time>2026-04-05T11:31:52.983Z</time></trkpt><trkpt lat="42.932157" lon="12.7274808"><ele>241.0</ele><time>2026-04-05T11:31:53.983Z</time></trkpt><trkpt lat="42.9323735" lon="12.7273163"><ele>241.0</ele><time>2026-04-05T11:31:54.983Z</time></trkpt><trkpt lat="42.9325882" lon="12.7271429"><ele>240.5</ele><time>2026-04-05T11:31:55.983Z</time></trkpt><trkpt lat="42.9328042" lon="12.726965"><ele>240.0</ele><time>2026-04-05T11:31:56.983Z</time></trkpt><trkpt lat="42.9330166" lon="12.7267801"><ele>240.0</ele><time>2026-04-05T11:31:57.982Z</time></trkpt><trkpt lat="42.9332295" lon="12.7265957"><ele>240.0</ele><time>2026-04-05T11:31:58.983Z</time></trkpt><trkpt lat="42.9334411" lon="12.7264191"><ele>246.5</ele><time>2026-04-05T11:31:59.983Z</time></trkpt><trkpt lat="42.9336563" lon="12.7262487"><ele>253.0</ele><time>2026-04-05T11:32:00.982Z</time></trkpt><trkpt lat="42.9338686" lon="12.7260646"><ele>249.5</ele><time>2026-04-05T11:32:01.982Z</time></trkpt><trkpt lat="42.9340815" lon="12.725888"><ele>246.0</ele><time>2026-04-05T11:32:02.983Z</time></trkpt><trkpt lat="42.9342961" lon="12.7257075"><ele>254.0</ele><time>2026-04-05T11:32:03.982Z</time></trkpt><trkpt lat="42.9345038" lon="12.7255346"><ele>262.0</ele><time>2026-04-05T11:32:04.983Z</time></trkpt><trkpt lat="42.9347167" lon="12.7253566"><ele>260.0</ele><time>2026-04-05T11:32:05.983Z</time></trkpt><trkpt lat="42.9349262" lon="12.7251816"><ele>258.0</ele><time>2026-04-05T11:32:06.983Z</time></trkpt><trkpt lat="42.9351339" lon="12.7250006"><ele>258.0</ele><time>2026-04-05T11:32:07.983Z</time></trkpt><trkpt lat="42.9353436" lon="12.724821"><ele>258.0</ele><time>2026-04-05T11:32:08.983Z</time></trkpt><trkpt lat="42.9355577" lon="12.7246446"><ele>258.0</ele><time>2026-04-05T11:32:09.983Z</time></trkpt><trkpt lat="42.9357738" lon="12.7244776"><ele>258.0</ele><time>2026-04-05T11:32:10.982Z</time></trkpt><trkpt lat="42.935986" lon="12.7242991"><ele>255.5</ele><time>2026-04-05T11:32:11.983Z</time></trkpt><trkpt lat="42.9362059" lon="12.7241272"><ele>253.0</ele><time>2026-04-05T11:32:12.983Z</time></trkpt><trkpt lat="42.9364288" lon="12.723959"><ele>253.0</ele><time>2026-04-05T11:32:13.983Z</time></trkpt><trkpt lat="42.9366489" lon="12.7237845"><ele>253.0</ele><time>2026-04-05T11:32:14.983Z</time></trkpt><trkpt lat="42.9368714" lon="12.7236297"><ele>252.0</ele><time>2026-04-05T11:32:15.983Z</time></trkpt><trkpt lat="42.937101" lon="12.7234802"><ele>251.0</ele><time>2026-04-05T11:32:16.983Z</time></trkpt><trkpt lat="42.9373361" lon="12.7233309"><ele>249.5</ele><time>2026-04-05T11:32:17.983Z</time></trkpt><trkpt lat="42.9375694" lon="12.7231996"><ele>248.0</ele><time>2026-04-05T11:32:18.983Z</time></trkpt><trkpt lat="42.9378072" lon="12.7230788"><ele>248.0</ele><time>2026-04-05T11:32:19.982Z</time></trkpt><trkpt lat="42.9380501" lon="12.7229781"><ele>248.0</ele><time>2026-04-05T11:32:20.983Z</time></trkpt><trkpt lat="42.9382889" lon="12.7228776"><ele>248.0</ele><time>2026-04-05T11:32:21.982Z</time></trkpt><trkpt lat="42.9385422" lon="12.7227961"><ele>248.0</ele><time>2026-04-05T11:32:22.983Z</time></trkpt><trkpt lat="42.9387904" lon="12.7227261"><ele>248.0</ele><time>2026-04-05T11:32:23.983Z</time></trkpt><trkpt lat="42.9390392" lon="12.7226639"><ele>248.0</ele><time>2026-04-05T11:32:24.983Z</time></trkpt><trkpt lat="42.9392949" lon="12.7226216"><ele>249.0</ele><time>2026-04-05T11:32:25.982Z</time></trkpt><trkpt lat="42.9395478" lon="12.7225896"><ele>250.0</ele><time>2026-04-05T11:32:26.983Z</time></trkpt><trkpt lat="42.9398015" lon="12.7225594"><ele>251.0</ele><time>2026-04-05T11:32:27.982Z</time></trkpt><trkpt lat="42.9400534" lon="12.722553"><ele>252.0</ele><time>2026-04-05T11:32:28.982Z</time></trkpt><trkpt lat="42.9403104" lon="12.7225568"><ele>252.0</ele><time>2026-04-05T11:32:29.983Z</time></trkpt><trkpt lat="42.9405601" lon="12.7225612"><ele>252.0</ele><time>2026-04-05T11:32:30.983Z</time></trkpt><trkpt lat="42.9408097" lon="12.7225705"><ele>254.0</ele><time>2026-04-05T11:32:31.983Z</time></trkpt><trkpt lat="42.9410571" lon="12.722576"><ele>256.0</ele><time>2026-04-05T11:32:32.983Z</time></trkpt><trkpt lat="42.9413105" lon="12.722575"><ele>256.0</ele><time>2026-04-05T11:32:33.983Z</time></trkpt><trkpt lat="42.9415576" lon="12.7225797"><ele>256.0</ele><time>2026-04-05T11:32:34.983Z</time></trkpt><trkpt lat="42.9418047" lon="12.7225925"><ele>255.5</ele><time>2026-04-05T11:32:35.983Z</time></trkpt><trkpt lat="42.9420547" lon="12.7225991"><ele>255.0</ele><time>2026-04-05T11:32:36.983Z</time></trkpt><trkpt lat="42.9423013" lon="12.7226068"><ele>256.0</ele><time>2026-04-05T11:32:37.982Z</time></trkpt><trkpt lat="42.9425488" lon="12.7226135"><ele>257.0</ele><time>2026-04-05T11:32:38.983Z</time></trkpt><trkpt lat="42.9427981" lon="12.7226213"><ele>257.0</ele><time>2026-04-05T11:32:39.983Z</time></trkpt><trkpt lat="42.943049" lon="12.7226251"><ele>257.0</ele><time>2026-04-05T11:32:40.983Z</time></trkpt><trkpt lat="42.9433031" lon="12.7226213"><ele>258.0</ele><time>2026-04-05T11:32:41.983Z</time></trkpt><trkpt lat="42.9435557" lon="12.7225949"><ele>259.0</ele><time>2026-04-05T11:32:42.983Z</time></trkpt><trkpt lat="42.9438121" lon="12.7225857"><ele>259.0</ele><time>2026-04-05T11:32:43.983Z</time></trkpt><trkpt lat="42.9440657" lon="12.7225763"><ele>259.0</ele><time>2026-04-05T11:32:44.983Z</time></trkpt><trkpt lat="42.944318" lon="12.7225642"><ele>259.5</ele><time>2026-04-05T11:32:45.983Z</time></trkpt><trkpt lat="42.9445655" lon="12.7225558"><ele>260.0</ele><time>2026-04-05T11:32:46.983Z</time></trkpt><trkpt lat="42.9448116" lon="12.7225367"><ele>259.5</ele><time>2026-04-05T11:32:47.982Z</time></trkpt><trkpt lat="42.9450623" lon="12.7225234"><ele>259.0</ele><time>2026-04-05T11:32:48.983Z</time></trkpt><trkpt lat="42.9453102" lon="12.722507"><ele>259.0</ele><time>2026-04-05T11:32:49.982Z</time></trkpt><trkpt lat="42.9455577" lon="12.7224938"><ele>259.0</ele><time>2026-04-05T11:32:50.982Z</time></trkpt><trkpt lat="42.9458096" lon="12.7224798"><ele>261.5</ele><time>2026-04-05T11:32:51.983Z</time></trkpt><trkpt lat="42.9460572" lon="12.722466"><ele>264.0</ele><time>2026-04-05T11:32:52.982Z</time></trkpt><trkpt lat="42.9463079" lon="12.7224518"><ele>264.0</ele><time>2026-04-05T11:32:53.983Z</time></trkpt><trkpt lat="42.9465547" lon="12.7224265"><ele>264.0</ele><time>2026-04-05T11:32:54.983Z</time></trkpt><trkpt lat="42.9468058" lon="12.7224117"><ele>265.0</ele><time>2026-04-05T11:32:55.983Z</time></trkpt><trkpt lat="42.9470571" lon="12.7223993"><ele>266.0</ele><time>2026-04-05T11:32:56.982Z</time></trkpt><trkpt lat="42.9473052" lon="12.7223847"><ele>266.5</ele><time>2026-04-05T11:32:57.983Z</time></trkpt><trkpt lat="42.9475591" lon="12.7223666"><ele>267.0</ele><time>2026-04-05T11:32:58.982Z</time></trkpt><trkpt lat="42.9478115" lon="12.7223465"><ele>267.0</ele><time>2026-04-05T11:32:59.983Z</time></trkpt><trkpt lat="42.94807" lon="12.7223337"><ele>267.0</ele><time>2026-04-05T11:33:00.983Z</time></trkpt><trkpt lat="42.9483243" lon="12.7223304"><ele>267.5</ele><time>2026-04-05T11:33:01.983Z</time></trkpt><trkpt lat="42.9485804" lon="12.7223215"><ele>268.0</ele><time>2026-04-05T11:33:02.982Z</time></trkpt><trkpt lat="42.9488429" lon="12.7223268"><ele>268.0</ele><time>2026-04-05T11:33:03.983Z</time></trkpt><trkpt lat="42.949094" lon="12.7223273"><ele>268.0</ele><time>2026-04-05T11:33:04.983Z</time></trkpt><trkpt lat="42.9493475" lon="12.7223271"><ele>268.5</ele><time>2026-04-05T11:33:05.983Z</time></trkpt><trkpt lat="42.9496042" lon="12.7223304"><ele>269.0</ele><time>2026-04-05T11:33:06.983Z</time></trkpt><trkpt lat="42.9498617" lon="12.7223268"><ele>269.5</ele><time>2026-04-05T11:33:07.983Z</time></trkpt><trkpt lat="42.9501245" lon="12.7223389"><ele>270.0</ele><time>2026-04-05T11:33:08.982Z</time></trkpt><trkpt lat="42.9503818" lon="12.7223587"><ele>270.0</ele><time>2026-04-05T11:33:09.983Z</time></trkpt><trkpt lat="42.9506423" lon="12.7223679"><ele>270.0</ele><time>2026-04-05T11:33:10.982Z</time></trkpt><trkpt lat="42.950897" lon="12.7223785"><ele>274.0</ele><time>2026-04-05T11:33:11.983Z</time></trkpt><trkpt lat="42.951158" lon="12.7223932"><ele>278.0</ele><time>2026-04-05T11:33:12.983Z</time></trkpt><trkpt lat="42.9514146" lon="12.7224031"><ele>278.0</ele><time>2026-04-05T11:33:13.983Z</time></trkpt><trkpt lat="42.9516695" lon="12.7224168"><ele>278.0</ele><time>2026-04-05T11:33:14.983Z</time></trkpt><trkpt lat="42.9519256" lon="12.7224241"><ele>276.5</ele><time>2026-04-05T11:33:15.982Z</time></trkpt><trkpt lat="42.9521808" lon="12.7224339"><ele>275.0</ele><time>2026-04-05T11:33:16.983Z</time></trkpt><trkpt lat="42.9524312" lon="12.7224442"><ele>274.5</ele><time>2026-04-05T11:33:17.982Z</time></trkpt><trkpt lat="42.9526838" lon="12.7224474"><ele>274.0</ele><time>2026-04-05T11:33:18.982Z</time></trkpt><trkpt lat="42.952935" lon="12.7224545"><ele>274.0</ele><time>2026-04-05T11:33:19.983Z</time></trkpt><trkpt lat="42.9531871" lon="12.722458"><ele>274.0</ele><time>2026-04-05T11:33:20.983Z</time></trkpt><trkpt lat="42.9534423" lon="12.7224546"><ele>274.5</ele><time>2026-04-05T11:33:21.983Z</time></trkpt><trkpt lat="42.9536978" lon="12.7224517"><ele>275.0</ele><time>2026-04-05T11:33:22.982Z</time></trkpt><trkpt lat="42.9539552" lon="12.7224425"><ele>275.0</ele><time>2026-04-05T11:33:23.983Z</time></trkpt><trkpt lat="42.9542117" lon="12.7224265"><ele>275.0</ele><time>2026-04-05T11:33:24.983Z</time></trkpt><trkpt lat="42.9544656" lon="12.7224072"><ele>275.0</ele><time>2026-04-05T11:33:25.983Z</time></trkpt><trkpt lat="42.9547232" lon="12.7223933"><ele>275.0</ele><time>2026-04-05T11:33:26.983Z</time></trkpt><trkpt lat="42.9549808" lon="12.7223687"><ele>274.0</ele><time>2026-04-05T11:33:27.983Z</time></trkpt><trkpt lat="42.9552433" lon="12.7223378"><ele>273.0</ele><time>2026-04-05T11:33:28.983Z</time></trkpt><trkpt lat="42.9555021" lon="12.7223069"><ele>273.0</ele><time>2026-04-05T11:33:29.983Z</time></trkpt><trkpt lat="42.9557625" lon="12.7222639"><ele>273.0</ele><time>2026-04-05T11:33:30.983Z</time></trkpt><trkpt lat="42.9560225" lon="12.7222177"><ele>272.0</ele><time>2026-04-05T11:33:31.983Z</time></trkpt><trkpt lat="42.9562806" lon="12.7221632"><ele>271.0</ele><time>2026-04-05T11:33:32.982Z</time></trkpt><trkpt lat="42.9565371" lon="12.7221149"><ele>270.5</ele><time>2026-04-05T11:33:33.983Z</time></trkpt><trkpt lat="42.9567971" lon="12.722059"><ele>270.0</ele><time>2026-04-05T11:33:34.983Z</time></trkpt><trkpt lat="42.9570606" lon="12.7220148"><ele>270.0</ele><time>2026-04-05T11:33:35.983Z</time></trkpt><trkpt lat="42.9573245" lon="12.7219672"><ele>270.0</ele><time>2026-04-05T11:33:36.982Z</time></trkpt><trkpt lat="42.9575789" lon="12.7219069"><ele>268.5</ele><time>2026-04-05T11:33:37.982Z</time></trkpt><trkpt lat="42.9578379" lon="12.7218578"><ele>267.0</ele><time>2026-04-05T11:33:38.983Z</time></trkpt><trkpt lat="42.9580976" lon="12.7218067"><ele>267.0</ele><time>2026-04-05T11:33:39.983Z</time></trkpt><trkpt lat="42.958364" lon="12.7217621"><ele>267.0</ele><time>2026-04-05T11:33:40.983Z</time></trkpt><trkpt lat="42.9586248" lon="12.72171"><ele>266.0</ele><time>2026-04-05T11:33:41.983Z</time></trkpt><trkpt lat="42.9588891" lon="12.7216564"><ele>265.0</ele><time>2026-04-05T11:33:42.983Z</time></trkpt><trkpt lat="42.9591535" lon="12.7216038"><ele>264.5</ele><time>2026-04-05T11:33:43.982Z</time></trkpt><trkpt lat="42.9594131" lon="12.7215533"><ele>264.0</ele><time>2026-04-05T11:33:44.982Z</time></trkpt><trkpt lat="42.9596715" lon="12.7214974"><ele>264.0</ele><time>2026-04-05T11:33:45.983Z</time></trkpt><trkpt lat="42.9599274" lon="12.7214463"><ele>264.0</ele><time>2026-04-05T11:33:46.983Z</time></trkpt><trkpt lat="42.9601801" lon="12.7213975"><ele>261.5</ele><time>2026-04-05T11:33:47.983Z</time></trkpt><trkpt lat="42.9604383" lon="12.7213541"><ele>259.0</ele><time>2026-04-05T11:33:48.983Z</time></trkpt><trkpt lat="42.9606929" lon="12.7213058"><ele>255.5</ele><time>2026-04-05T11:33:49.983Z</time></trkpt><trkpt lat="42.9609479" lon="12.7212559"><ele>252.0</ele><time>2026-04-05T11:33:50.982Z</time></trkpt><trkpt lat="42.9612121" lon="12.7212052"><ele>252.0</ele><time>2026-04-05T11:33:51.981Z</time></trkpt><trkpt lat="42.9614684" lon="12.7211603"><ele>252.0</ele><time>2026-04-05T11:33:52.983Z</time></trkpt><trkpt lat="42.9617287" lon="12.7210852"><ele>250.0</ele><time>2026-04-05T11:33:53.982Z</time></trkpt><trkpt lat="42.9619847" lon="12.7210159"><ele>248.0</ele><time>2026-04-05T11:33:54.982Z</time></trkpt><trkpt lat="42.9622337" lon="12.7209381"><ele>248.0</ele><time>2026-04-05T11:33:55.983Z</time></trkpt><trkpt lat="42.9624773" lon="12.7208502"><ele>248.0</ele><time>2026-04-05T11:33:56.983Z</time></trkpt><trkpt lat="42.962723" lon="12.7207603"><ele>248.0</ele><time>2026-04-05T11:33:57.983Z</time></trkpt><trkpt lat="42.962977" lon="12.7206795"><ele>248.0</ele><time>2026-04-05T11:33:58.983Z</time></trkpt><trkpt lat="42.9632127" lon="12.7205773"><ele>247.5</ele><time>2026-04-05T11:33:59.983Z</time></trkpt><trkpt lat="42.9634468" lon="12.7204827"><ele>247.0</ele><time>2026-04-05T11:34:00.983Z</time></trkpt><trkpt lat="42.9636775" lon="12.7203697"><ele>247.0</ele><time>2026-04-05T11:34:01.983Z</time></trkpt><trkpt lat="42.9639037" lon="12.7202561"><ele>247.0</ele><time>2026-04-05T11:34:02.983Z</time></trkpt><trkpt lat="42.9641331" lon="12.7201426"><ele>247.0</ele><time>2026-04-05T11:34:03.983Z</time></trkpt><trkpt lat="42.9643746" lon="12.7200364"><ele>247.0</ele><time>2026-04-05T11:34:04.983Z</time></trkpt><trkpt lat="42.9646092" lon="12.7199277"><ele>247.0</ele><time>2026-04-05T11:34:05.982Z</time></trkpt><trkpt lat="42.9648388" lon="12.7198211"><ele>247.0</ele><time>2026-04-05T11:34:06.983Z</time></trkpt><trkpt lat="42.9650702" lon="12.7197145"><ele>246.0</ele><time>2026-04-05T11:34:07.983Z</time></trkpt><trkpt lat="42.9653036" lon="12.7195899"><ele>245.0</ele><time>2026-04-05T11:34:08.983Z</time></trkpt><trkpt lat="42.9655308" lon="12.7194741"><ele>245.0</ele><time>2026-04-05T11:34:09.983Z</time></trkpt><trkpt lat="42.9657559" lon="12.7193626"><ele>245.0</ele><time>2026-04-05T11:34:10.983Z</time></trkpt><trkpt lat="42.9659816" lon="12.7192478"><ele>246.0</ele><time>2026-04-05T11:34:11.982Z</time></trkpt><trkpt lat="42.9662104" lon="12.7191374"><ele>247.0</ele><time>2026-04-05T11:34:12.983Z</time></trkpt><trkpt lat="42.9664419" lon="12.7190289"><ele>247.0</ele><time>2026-04-05T11:34:13.983Z</time></trkpt><trkpt lat="42.966671" lon="12.7189209"><ele>247.0</ele><time>2026-04-05T11:34:14.982Z</time></trkpt><trkpt lat="42.9668995" lon="12.7188159"><ele>246.0</ele><time>2026-04-05T11:34:15.983Z</time></trkpt><trkpt lat="42.9671257" lon="12.7187083"><ele>245.0</ele><time>2026-04-05T11:34:16.983Z</time></trkpt><trkpt lat="42.9673568" lon="12.7186"><ele>244.5</ele><time>2026-04-05T11:34:17.983Z</time></trkpt><trkpt lat="42.9675901" lon="12.7184908"><ele>244.0</ele><time>2026-04-05T11:34:18.982Z</time></trkpt><trkpt lat="42.9678182" lon="12.7183812"><ele>244.0</ele><time>2026-04-05T11:34:19.983Z</time></trkpt><trkpt lat="42.9680465" lon="12.7182733"><ele>244.0</ele><time>2026-04-05T11:34:20.983Z</time></trkpt><trkpt lat="42.9682719" lon="12.7181533"><ele>243.5</ele><time>2026-04-05T11:34:21.983Z</time></trkpt><trkpt lat="42.9684955" lon="12.7180487"><ele>243.0</ele><time>2026-04-05T11:34:22.983Z</time></trkpt><trkpt lat="42.968724" lon="12.7179382"><ele>243.0</ele><time>2026-04-05T11:34:23.983Z</time></trkpt><trkpt lat="42.9689523" lon="12.7178316"><ele>243.0</ele><time>2026-04-05T11:34:24.982Z</time></trkpt><trkpt lat="42.9691785" lon="12.7177276"><ele>244.5</ele><time>2026-04-05T11:34:25.983Z</time></trkpt><trkpt lat="42.9694018" lon="12.7176195"><ele>246.0</ele><time>2026-04-05T11:34:26.983Z</time></trkpt><trkpt lat="42.969632" lon="12.7175135"><ele>246.0</ele><time>2026-04-05T11:34:27.983Z</time></trkpt><trkpt lat="42.9698596" lon="12.717412"><ele>246.0</ele><time>2026-04-05T11:34:28.983Z</time></trkpt><trkpt lat="42.9700868" lon="12.7173035"><ele>245.33333333333331</ele><time>2026-04-05T11:34:29.983Z</time></trkpt><trkpt lat="42.9703018" lon="12.717207"><ele>244.66666666666666</ele><time>2026-04-05T11:34:30.983Z</time></trkpt><trkpt lat="42.9705108" lon="12.7171142"><ele>244.0</ele><time>2026-04-05T11:34:31.983Z</time></trkpt><trkpt lat="42.9707114" lon="12.7170123"><ele>244.0</ele><time>2026-04-05T11:34:32.983Z</time></trkpt><trkpt lat="42.9709164" lon="12.7169161"><ele>244.0</ele><time>2026-04-05T11:34:33.983Z</time></trkpt><trkpt lat="42.9711189" lon="12.716827"><ele>244.0</ele><time>2026-04-05T11:34:34.983Z</time></trkpt><trkpt lat="42.9713104" lon="12.7167424"><ele>244.0</ele><time>2026-04-05T11:34:35.983Z</time></trkpt><trkpt lat="42.9714869" lon="12.7166591"><ele>244.0</ele><time>2026-04-05T11:34:36.983Z</time></trkpt><trkpt lat="42.9716532" lon="12.7165762"><ele>244.0</ele><time>2026-04-05T11:34:37.983Z</time></trkpt><trkpt lat="42.9718161" lon="12.7165112"><ele>244.0</ele><time>2026-04-05T11:34:38.982Z</time></trkpt><trkpt lat="42.9719686" lon="12.7164696"><ele>244.0</ele><time>2026-04-05T11:34:39.983Z</time></trkpt><trkpt lat="42.9721199" lon="12.7164625"><ele>244.0</ele><time>2026-04-05T11:34:40.983Z</time></trkpt><trkpt lat="42.9722589" lon="12.7164989"><ele>244.0</ele><time>2026-04-05T11:34:41.983Z</time></trkpt><trkpt lat="42.972397" lon="12.7165713"><ele>244.33333333333331</ele><time>2026-04-05T11:34:42.982Z</time></trkpt><trkpt lat="42.9725286" lon="12.7166811"><ele>244.66666666666669</ele><time>2026-04-05T11:34:43.983Z</time></trkpt><trkpt lat="42.972655" lon="12.7168171"><ele>245.0</ele><time>2026-04-05T11:34:44.982Z</time></trkpt><trkpt lat="42.9727854" lon="12.7169414"><ele>245.0</ele><time>2026-04-05T11:34:45.983Z</time></trkpt><trkpt lat="42.9729169" lon="12.7170739"><ele>245.0</ele><time>2026-04-05T11:34:46.983Z</time></trkpt><trkpt lat="42.9730369" lon="12.7171832"><ele>245.0</ele><time>2026-04-05T11:34:47.983Z</time></trkpt><trkpt lat="42.9731566" lon="12.717269"><ele>245.0</ele><time>2026-04-05T11:34:48.983Z</time></trkpt><trkpt lat="42.9732866" lon="12.7173124"><ele>245.75</ele><time>2026-04-05T11:34:49.983Z</time></trkpt><trkpt lat="42.973426" lon="12.7173119"><ele>246.5</ele><time>2026-04-05T11:34:50.983Z</time></trkpt><trkpt lat="42.9735615" lon="12.7172679"><ele>247.25</ele><time>2026-04-05T11:34:51.983Z</time></trkpt><trkpt lat="42.9736918" lon="12.7171661"><ele>248.0</ele><time>2026-04-05T11:34:52.983Z</time></trkpt><trkpt lat="42.9738022" lon="12.7170333"><ele>248.0</ele><time>2026-04-05T11:34:53.983Z</time></trkpt><trkpt lat="42.9738862" lon="12.7168675"><ele>248.0</ele><time>2026-04-05T11:34:54.983Z</time></trkpt><trkpt lat="42.9739458" lon="12.7166656"><ele>248.0</ele><time>2026-04-05T11:34:55.983Z</time></trkpt><trkpt lat="42.9739752" lon="12.7164346"><ele>248.0</ele><time>2026-04-05T11:34:56.983Z</time></trkpt><trkpt lat="42.9739781" lon="12.7161817"><ele>248.0</ele><time>2026-04-05T11:34:57.982Z</time></trkpt><trkpt lat="42.9739728" lon="12.7159403"><ele>248.0</ele><time>2026-04-05T11:34:58.983Z</time></trkpt><trkpt lat="42.9739728" lon="12.7156915"><ele>247.66666666666669</ele><time>2026-04-05T11:34:59.982Z</time></trkpt><trkpt lat="42.9739756" lon="12.7154472"><ele>247.33333333333331</ele><time>2026-04-05T11:35:00.983Z</time></trkpt><trkpt lat="42.9739668" lon="12.7151909"><ele>247.0</ele><time>2026-04-05T11:35:01.982Z</time></trkpt><trkpt lat="42.9739545" lon="12.7149314"><ele>246.66666666666666</ele><time>2026-04-05T11:35:02.982Z</time></trkpt><trkpt lat="42.9739259" lon="12.7146732"><ele>246.33333333333331</ele><time>2026-04-05T11:35:03.983Z</time></trkpt><trkpt lat="42.9738916" lon="12.7144296"><ele>246.0</ele><time>2026-04-05T11:35:04.982Z</time></trkpt><trkpt lat="42.9738607" lon="12.7141898"><ele>245.66666666666669</ele><time>2026-04-05T11:35:05.982Z</time></trkpt><trkpt lat="42.9738076" lon="12.7139562"><ele>245.33333333333334</ele><time>2026-04-05T11:35:06.983Z</time></trkpt><trkpt lat="42.9737806" lon="12.7137296"><ele>245.0</ele><time>2026-04-05T11:35:07.983Z</time></trkpt><trkpt lat="42.9737498" lon="12.7134935"><ele>245.66666666666669</ele><time>2026-04-05T11:35:08.982Z</time></trkpt><trkpt lat="42.9737175" lon="12.7132437"><ele>246.33333333333331</ele><time>2026-04-05T11:35:09.983Z</time></trkpt><trkpt lat="42.9736792" lon="12.7129679"><ele>247.0</ele><time>2026-04-05T11:35:10.983Z</time></trkpt><trkpt lat="42.9736392" lon="12.7126894"><ele>247.0</ele><time>2026-04-05T11:35:11.983Z</time></trkpt><trkpt lat="42.9735994" lon="12.7124018"><ele>247.0</ele><time>2026-04-05T11:35:12.982Z</time></trkpt><trkpt lat="42.9735556" lon="12.7121047"><ele>247.0</ele><time>2026-04-05T11:35:13.983Z</time></trkpt><trkpt lat="42.9735182" lon="12.7118189"><ele>247.66666666666666</ele><time>2026-04-05T11:35:14.983Z</time></trkpt><trkpt lat="42.9734653" lon="12.7115403"><ele>248.33333333333331</ele><time>2026-04-05T11:35:15.983Z</time></trkpt><trkpt lat="42.9734205" lon="12.7112617"><ele>249.0</ele><time>2026-04-05T11:35:16.983Z</time></trkpt><trkpt lat="42.9733771" lon="12.7109809"><ele>248.33333333333331</ele><time>2026-04-05T11:35:17.983Z</time></trkpt><trkpt lat="42.9733269" lon="12.7106874"><ele>247.66666666666666</ele><time>2026-04-05T11:35:18.983Z</time></trkpt><trkpt lat="42.973276" lon="12.7103939"><ele>247.0</ele><time>2026-04-05T11:35:19.983Z</time></trkpt><trkpt lat="42.9732266" lon="12.7100937"><ele>247.0</ele><time>2026-04-05T11:35:20.983Z</time></trkpt><trkpt lat="42.9731713" lon="12.7097884"><ele>247.0</ele><time>2026-04-05T11:35:21.983Z</time></trkpt><trkpt lat="42.9731135" lon="12.7094831"><ele>247.0</ele><time>2026-04-05T11:35:22.982Z</time></trkpt><trkpt lat="42.9730477" lon="12.7091786"><ele>247.0</ele><time>2026-04-05T11:35:23.983Z</time></trkpt><trkpt lat="42.9729788" lon="12.7088684"><ele>245.5</ele><time>2026-04-05T11:35:24.982Z</time></trkpt><trkpt lat="42.9729067" lon="12.7085483"><ele>244.0</ele><time>2026-04-05T11:35:25.983Z</time></trkpt><trkpt lat="42.9728278" lon="12.7082278"><ele>244.0</ele><time>2026-04-05T11:35:26.983Z</time></trkpt><trkpt lat="42.9727341" lon="12.7079137"><ele>244.0</ele><time>2026-04-05T11:35:27.983Z</time></trkpt><trkpt lat="42.9726377" lon="12.7075836"><ele>243.5</ele><time>2026-04-05T11:35:28.983Z</time></trkpt><trkpt lat="42.9725341" lon="12.7072584"><ele>243.0</ele><time>2026-04-05T11:35:29.982Z</time></trkpt><trkpt lat="42.9724032" lon="12.7069355"><ele>242.0</ele><time>2026-04-05T11:35:30.983Z</time></trkpt><trkpt lat="42.9722847" lon="12.7066173"><ele>241.0</ele><time>2026-04-05T11:35:31.983Z</time></trkpt><trkpt lat="42.972151" lon="12.7063067"><ele>244.5</ele><time>2026-04-05T11:35:32.983Z</time></trkpt><trkpt lat="42.9720233" lon="12.7059915"><ele>248.0</ele><time>2026-04-05T11:35:33.982Z</time></trkpt><trkpt lat="42.9718851" lon="12.7056682"><ele>248.0</ele><time>2026-04-05T11:35:34.982Z</time></trkpt><trkpt lat="42.9717451" lon="12.7053548"><ele>248.0</ele><time>2026-04-05T11:35:35.983Z</time></trkpt><trkpt lat="42.9716126" lon="12.7050504"><ele>247.0</ele><time>2026-04-05T11:35:36.982Z</time></trkpt><trkpt lat="42.9714744" lon="12.7047327"><ele>246.0</ele><time>2026-04-05T11:35:37.983Z</time></trkpt><trkpt lat="42.971343" lon="12.7044171"><ele>246.5</ele><time>2026-04-05T11:35:38.983Z</time></trkpt><trkpt lat="42.9712093" lon="12.7040945"><ele>247.0</ele><time>2026-04-05T11:35:39.983Z</time></trkpt><trkpt lat="42.9710738" lon="12.7037767"><ele>245.5</ele><time>2026-04-05T11:35:40.982Z</time></trkpt><trkpt lat="42.9709343" lon="12.7034591"><ele>244.0</ele><time>2026-04-05T11:35:41.983Z</time></trkpt><trkpt lat="42.9708015" lon="12.703141"><ele>243.5</ele><time>2026-04-05T11:35:42.983Z</time></trkpt><trkpt lat="42.9706633" lon="12.7028238"><ele>243.0</ele><time>2026-04-05T11:35:43.983Z</time></trkpt><trkpt lat="42.9705413" lon="12.7025058"><ele>241.5</ele><time>2026-04-05T11:35:44.982Z</time></trkpt><trkpt lat="42.9704407" lon="12.7021769"><ele>240.0</ele><time>2026-04-05T11:35:45.983Z</time></trkpt><trkpt lat="42.9703629" lon="12.7018475"><ele>238.5</ele><time>2026-04-05T11:35:46.983Z</time></trkpt><trkpt lat="42.9703054" lon="12.7015162"><ele>237.0</ele><time>2026-04-05T11:35:47.982Z</time></trkpt><trkpt lat="42.970263" lon="12.7011859"><ele>237.0</ele><time>2026-04-05T11:35:48.982Z</time></trkpt><trkpt lat="42.9702421" lon="12.7008524"><ele>237.0</ele><time>2026-04-05T11:35:49.982Z</time></trkpt><trkpt lat="42.9702278" lon="12.7005186"><ele>237.0</ele><time>2026-04-05T11:35:50.982Z</time></trkpt><trkpt lat="42.9702277" lon="12.7001729"><ele>237.0</ele><time>2026-04-05T11:35:51.982Z</time></trkpt><trkpt lat="42.9702639" lon="12.6998334"><ele>237.0</ele><time>2026-04-05T11:35:52.983Z</time></trkpt><trkpt lat="42.9703214" lon="12.6994927"><ele>237.0</ele><time>2026-04-05T11:35:53.983Z</time></trkpt><trkpt lat="42.9704082" lon="12.6991692"><ele>237.5</ele><time>2026-04-05T11:35:54.983Z</time></trkpt><trkpt lat="42.9705131" lon="12.6988418"><ele>238.0</ele><time>2026-04-05T11:35:55.983Z</time></trkpt><trkpt lat="42.9706215" lon="12.6985193"><ele>237.0</ele><time>2026-04-05T11:35:56.983Z</time></trkpt><trkpt lat="42.970729" lon="12.6981978"><ele>236.0</ele><time>2026-04-05T11:35:57.982Z</time></trkpt><trkpt lat="42.9708488" lon="12.6978787"><ele>236.0</ele><time>2026-04-05T11:35:58.983Z</time></trkpt><trkpt lat="42.9709669" lon="12.6975519"><ele>236.0</ele><time>2026-04-05T11:35:59.983Z</time></trkpt><trkpt lat="42.9710868" lon="12.6972405"><ele>236.0</ele><time>2026-04-05T11:36:00.983Z</time></trkpt><trkpt lat="42.9711993" lon="12.696929"><ele>236.0</ele><time>2026-04-05T11:36:01.983Z</time></trkpt><trkpt lat="42.9713295" lon="12.6965975"><ele>236.5</ele><time>2026-04-05T11:36:02.983Z</time></trkpt><trkpt lat="42.9714522" lon="12.6962826"><ele>237.0</ele><time>2026-04-05T11:36:03.983Z</time></trkpt><trkpt lat="42.9715679" lon="12.6959646"><ele>235.0</ele><time>2026-04-05T11:36:04.983Z</time></trkpt><trkpt lat="42.9716828" lon="12.6956456"><ele>233.0</ele><time>2026-04-05T11:36:05.983Z</time></trkpt><trkpt lat="42.9717941" lon="12.6953158"><ele>233.0</ele><time>2026-04-05T11:36:06.983Z</time></trkpt><trkpt lat="42.9719034" lon="12.6949963"><ele>233.0</ele><time>2026-04-05T11:36:07.982Z</time></trkpt><trkpt lat="42.9720115" lon="12.694675"><ele>233.5</ele><time>2026-04-05T11:36:08.983Z</time></trkpt><trkpt lat="42.9721201" lon="12.6943627"><ele>234.0</ele><time>2026-04-05T11:36:09.982Z</time></trkpt><trkpt lat="42.9722319" lon="12.6940492"><ele>234.0</ele><time>2026-04-05T11:36:10.982Z</time></trkpt><trkpt lat="42.9723432" lon="12.6937504"><ele>234.0</ele><time>2026-04-05T11:36:11.982Z</time></trkpt><trkpt lat="42.9724501" lon="12.69344"><ele>234.0</ele><time>2026-04-05T11:36:12.983Z</time></trkpt><trkpt lat="42.9725649" lon="12.6931365"><ele>234.0</ele><time>2026-04-05T11:36:13.983Z</time></trkpt><trkpt lat="42.9726828" lon="12.6928311"><ele>234.0</ele><time>2026-04-05T11:36:14.983Z</time></trkpt><trkpt lat="42.9728025" lon="12.6925235"><ele>234.0</ele><time>2026-04-05T11:36:15.983Z</time></trkpt><trkpt lat="42.9729246" lon="12.6922157"><ele>234.0</ele><time>2026-04-05T11:36:16.982Z</time></trkpt><trkpt lat="42.9730559" lon="12.6919153"><ele>234.0</ele><time>2026-04-05T11:36:17.983Z</time></trkpt><trkpt lat="42.973194" lon="12.6916168"><ele>234.0</ele><time>2026-04-05T11:36:18.982Z</time></trkpt><trkpt lat="42.9733263" lon="12.6913229"><ele>234.0</ele><time>2026-04-05T11:36:19.982Z</time></trkpt><trkpt lat="42.9734613" lon="12.691031"><ele>236.0</ele><time>2026-04-05T11:36:20.983Z</time></trkpt><trkpt lat="42.9736031" lon="12.6907379"><ele>238.0</ele><time>2026-04-05T11:36:21.982Z</time></trkpt><trkpt lat="42.9737447" lon="12.6904399"><ele>236.5</ele><time>2026-04-05T11:36:22.983Z</time></trkpt><trkpt lat="42.9738843" lon="12.6901457"><ele>235.0</ele><time>2026-04-05T11:36:23.983Z</time></trkpt><trkpt lat="42.9740221" lon="12.689855"><ele>235.0</ele><time>2026-04-05T11:36:24.982Z</time></trkpt><trkpt lat="42.9741556" lon="12.6895569"><ele>235.0</ele><time>2026-04-05T11:36:25.982Z</time></trkpt><trkpt lat="42.9742902" lon="12.6892652"><ele>233.5</ele><time>2026-04-05T11:36:26.983Z</time></trkpt><trkpt lat="42.9744317" lon="12.6889658"><ele>232.0</ele><time>2026-04-05T11:36:27.983Z</time></trkpt><trkpt lat="42.9745647" lon="12.688671"><ele>231.0</ele><time>2026-04-05T11:36:28.983Z</time></trkpt><trkpt lat="42.9746985" lon="12.6883774"><ele>230.0</ele><time>2026-04-05T11:36:29.983Z</time></trkpt><trkpt lat="42.974839" lon="12.688086"><ele>230.0</ele><time>2026-04-05T11:36:30.983Z</time></trkpt><trkpt lat="42.9749804" lon="12.6877899"><ele>230.0</ele><time>2026-04-05T11:36:31.982Z</time></trkpt><trkpt lat="42.9751195" lon="12.6874984"><ele>229.0</ele><time>2026-04-05T11:36:32.983Z</time></trkpt><trkpt lat="42.9752523" lon="12.6872054"><ele>228.0</ele><time>2026-04-05T11:36:33.982Z</time></trkpt><trkpt lat="42.9753855" lon="12.6869035"><ele>227.0</ele><time>2026-04-05T11:36:34.983Z</time></trkpt><trkpt lat="42.9755204" lon="12.6866098"><ele>226.0</ele><time>2026-04-05T11:36:35.982Z</time></trkpt><trkpt lat="42.9756626" lon="12.6863116"><ele>226.0</ele><time>2026-04-05T11:36:36.983Z</time></trkpt><trkpt lat="42.9757997" lon="12.6860242"><ele>226.0</ele><time>2026-04-05T11:36:37.983Z</time></trkpt><trkpt lat="42.9759367" lon="12.6857326"><ele>227.0</ele><time>2026-04-05T11:36:38.982Z</time></trkpt><trkpt lat="42.9760714" lon="12.6854424"><ele>228.0</ele><time>2026-04-05T11:36:39.983Z</time></trkpt><trkpt lat="42.976208" lon="12.6851528"><ele>228.0</ele><time>2026-04-05T11:36:40.983Z</time></trkpt><trkpt lat="42.9763427" lon="12.6848596"><ele>228.0</ele><time>2026-04-05T11:36:41.983Z</time></trkpt><trkpt lat="42.9764898" lon="12.6845655"><ele>227.0</ele><time>2026-04-05T11:36:42.983Z</time></trkpt><trkpt lat="42.9766279" lon="12.6842707"><ele>226.0</ele><time>2026-04-05T11:36:43.983Z</time></trkpt><trkpt lat="42.9767651" lon="12.6839763"><ele>226.0</ele><time>2026-04-05T11:36:44.982Z</time></trkpt><trkpt lat="42.9768999" lon="12.6836677"><ele>226.0</ele><time>2026-04-05T11:36:45.983Z</time></trkpt><trkpt lat="42.9770371" lon="12.6833679"><ele>226.5</ele><time>2026-04-05T11:36:46.983Z</time></trkpt><trkpt lat="42.9771741" lon="12.6830645"><ele>227.0</ele><time>2026-04-05T11:36:47.983Z</time></trkpt><trkpt lat="42.9773181" lon="12.6827692"><ele>226.0</ele><time>2026-04-05T11:36:48.983Z</time></trkpt><trkpt lat="42.9774622" lon="12.6824513"><ele>225.0</ele><time>2026-04-05T11:36:49.983Z</time></trkpt><trkpt lat="42.977603" lon="12.6821455"><ele>224.5</ele><time>2026-04-05T11:36:50.982Z</time></trkpt><trkpt lat="42.9777438" lon="12.6818412"><ele>224.0</ele><time>2026-04-05T11:36:51.983Z</time></trkpt><trkpt lat="42.9778862" lon="12.6815382"><ele>224.0</ele><time>2026-04-05T11:36:52.983Z</time></trkpt><trkpt lat="42.9780307" lon="12.6812355"><ele>224.0</ele><time>2026-04-05T11:36:53.983Z</time></trkpt><trkpt lat="42.9781748" lon="12.6809387"><ele>223.5</ele><time>2026-04-05T11:36:54.983Z</time></trkpt><trkpt lat="42.9783182" lon="12.680648"><ele>223.0</ele><time>2026-04-05T11:36:55.983Z</time></trkpt><trkpt lat="42.9784601" lon="12.6803419"><ele>224.0</ele><time>2026-04-05T11:36:56.983Z</time></trkpt><trkpt lat="42.9785968" lon="12.6800449"><ele>225.0</ele><time>2026-04-05T11:36:57.982Z</time></trkpt><trkpt lat="42.9787351" lon="12.6797494"><ele>225.0</ele><time>2026-04-05T11:36:58.983Z</time></trkpt><trkpt lat="42.978866" lon="12.6794545"><ele>225.0</ele><time>2026-04-05T11:36:59.983Z</time></trkpt><trkpt lat="42.978998" lon="12.6791649"><ele>224.0</ele><time>2026-04-05T11:37:00.983Z</time></trkpt><trkpt lat="42.9791302" lon="12.6788727"><ele>223.0</ele><time>2026-04-05T11:37:01.983Z</time></trkpt><trkpt lat="42.9792653" lon="12.6785896"><ele>223.0</ele><time>2026-04-05T11:37:02.983Z</time></trkpt><trkpt lat="42.9794054" lon="12.6783142"><ele>223.0</ele><time>2026-04-05T11:37:03.983Z</time></trkpt><trkpt lat="42.9795424" lon="12.6780337"><ele>222.0</ele><time>2026-04-05T11:37:04.983Z</time></trkpt><trkpt lat="42.9796943" lon="12.6777592"><ele>221.0</ele><time>2026-04-05T11:37:05.983Z</time></trkpt><trkpt lat="42.97985" lon="12.6774887"><ele>221.0</ele><time>2026-04-05T11:37:06.982Z</time></trkpt><trkpt lat="42.9800142" lon="12.6772298"><ele>221.0</ele><time>2026-04-05T11:37:07.983Z</time></trkpt><trkpt lat="42.9801838" lon="12.6769634"><ele>222.0</ele><time>2026-04-05T11:37:08.983Z</time></trkpt><trkpt lat="42.9803544" lon="12.6767149"><ele>223.0</ele><time>2026-04-05T11:37:09.982Z</time></trkpt><trkpt lat="42.9805312" lon="12.6764546"><ele>223.0</ele><time>2026-04-05T11:37:10.983Z</time></trkpt><trkpt lat="42.9807156" lon="12.6762158"><ele>223.0</ele><time>2026-04-05T11:37:11.983Z</time></trkpt><trkpt lat="42.9808927" lon="12.6759705"><ele>222.5</ele><time>2026-04-05T11:37:12.983Z</time></trkpt><trkpt lat="42.98107" lon="12.6757328"><ele>222.0</ele><time>2026-04-05T11:37:13.983Z</time></trkpt><trkpt lat="42.9812477" lon="12.6754885"><ele>221.5</ele><time>2026-04-05T11:37:14.983Z</time></trkpt><trkpt lat="42.9814267" lon="12.6752522"><ele>221.0</ele><time>2026-04-05T11:37:15.983Z</time></trkpt><trkpt lat="42.981611" lon="12.6750261"><ele>222.0</ele><time>2026-04-05T11:37:16.982Z</time></trkpt><trkpt lat="42.9817956" lon="12.6747691"><ele>223.0</ele><time>2026-04-05T11:37:17.983Z</time></trkpt><trkpt lat="42.9819769" lon="12.6745291"><ele>222.0</ele><time>2026-04-05T11:37:18.983Z</time></trkpt><trkpt lat="42.9821567" lon="12.6742889"><ele>221.0</ele><time>2026-04-05T11:37:19.982Z</time></trkpt><trkpt lat="42.9823304" lon="12.6740306"><ele>222.5</ele><time>2026-04-05T11:37:20.982Z</time></trkpt><trkpt lat="42.9825316" lon="12.6737504"><ele>224.0</ele><time>2026-04-05T11:37:21.983Z</time></trkpt><trkpt lat="42.9827186" lon="12.6734944"><ele>224.5</ele><time>2026-04-05T11:37:22.982Z</time></trkpt><trkpt lat="42.9829086" lon="12.6732345"><ele>225.0</ele><time>2026-04-05T11:37:23.983Z</time></trkpt><trkpt lat="42.983102" lon="12.6729866"><ele>224.5</ele><time>2026-04-05T11:37:24.982Z</time></trkpt><trkpt lat="42.9832974" lon="12.6727233"><ele>224.0</ele><time>2026-04-05T11:37:25.983Z</time></trkpt><trkpt lat="42.9834871" lon="12.6724735"><ele>224.0</ele><time>2026-04-05T11:37:26.983Z</time></trkpt><trkpt lat="42.9836781" lon="12.6722278"><ele>224.0</ele><time>2026-04-05T11:37:27.983Z</time></trkpt><trkpt lat="42.9838679" lon="12.6719764"><ele>223.5</ele><time>2026-04-05T11:37:28.983Z</time></trkpt><trkpt lat="42.9840544" lon="12.6717312"><ele>223.0</ele><time>2026-04-05T11:37:29.983Z</time></trkpt><trkpt lat="42.98424" lon="12.6714754"><ele>223.0</ele><time>2026-04-05T11:37:30.983Z</time></trkpt><trkpt lat="42.9844189" lon="12.6712159"><ele>223.0</ele><time>2026-04-05T11:37:31.982Z</time></trkpt><trkpt lat="42.9846013" lon="12.6709686"><ele>222.5</ele><time>2026-04-05T11:37:32.983Z</time></trkpt><trkpt lat="42.9847855" lon="12.6707166"><ele>222.0</ele><time>2026-04-05T11:37:33.983Z</time></trkpt><trkpt lat="42.984964" lon="12.6704666"><ele>223.5</ele><time>2026-04-05T11:37:34.983Z</time></trkpt><trkpt lat="42.9851476" lon="12.6702193"><ele>225.0</ele><time>2026-04-05T11:37:35.983Z</time></trkpt><trkpt lat="42.9853261" lon="12.6699693"><ele>225.0</ele><time>2026-04-05T11:37:36.983Z</time></trkpt><trkpt lat="42.9855119" lon="12.6697237"><ele>225.0</ele><time>2026-04-05T11:37:37.983Z</time></trkpt><trkpt lat="42.9856928" lon="12.6694744"><ele>224.5</ele><time>2026-04-05T11:37:38.982Z</time></trkpt><trkpt lat="42.9858872" lon="12.6692263"><ele>224.0</ele><time>2026-04-05T11:37:39.982Z</time></trkpt><trkpt lat="42.9860792" lon="12.6690015"><ele>224.0</ele><time>2026-04-05T11:37:40.983Z</time></trkpt><trkpt lat="42.9862687" lon="12.6687709"><ele>224.0</ele><time>2026-04-05T11:37:41.983Z</time></trkpt><trkpt lat="42.9864511" lon="12.6685203"><ele>224.5</ele><time>2026-04-05T11:37:42.983Z</time></trkpt><trkpt lat="42.9866365" lon="12.6682737"><ele>225.0</ele><time>2026-04-05T11:37:43.983Z</time></trkpt><trkpt lat="42.9868176" lon="12.6680456"><ele>223.0</ele><time>2026-04-05T11:37:44.983Z</time></trkpt><trkpt lat="42.9869968" lon="12.6678056"><ele>221.0</ele><time>2026-04-05T11:37:45.982Z</time></trkpt><trkpt lat="42.9871897" lon="12.667591"><ele>221.0</ele><time>2026-04-05T11:37:46.983Z</time></trkpt><trkpt lat="42.987385" lon="12.6673785"><ele>221.0</ele><time>2026-04-05T11:37:47.983Z</time></trkpt><trkpt lat="42.9875837" lon="12.6671844"><ele>220.0</ele><time>2026-04-05T11:37:48.983Z</time></trkpt><trkpt lat="42.9877973" lon="12.6670062"><ele>219.0</ele><time>2026-04-05T11:37:49.983Z</time></trkpt><trkpt lat="42.9880233" lon="12.6668346"><ele>218.0</ele><time>2026-04-05T11:37:50.983Z</time></trkpt><trkpt lat="42.9882515" lon="12.666679"><ele>217.0</ele><time>2026-04-05T11:37:51.982Z</time></trkpt><trkpt lat="42.9884851" lon="12.6665374"><ele>216.0</ele><time>2026-04-05T11:37:52.983Z</time></trkpt><trkpt lat="42.9887184" lon="12.6663859"><ele>215.0</ele><time>2026-04-05T11:37:53.983Z</time></trkpt><trkpt lat="42.9889554" lon="12.6662451"><ele>215.0</ele><time>2026-04-05T11:37:54.983Z</time></trkpt><trkpt lat="42.989192" lon="12.666114"><ele>215.0</ele><time>2026-04-05T11:37:55.983Z</time></trkpt><trkpt lat="42.9894345" lon="12.6659742"><ele>215.0</ele><time>2026-04-05T11:37:56.983Z</time></trkpt><trkpt lat="42.9896719" lon="12.6658353"><ele>215.0</ele><time>2026-04-05T11:37:57.983Z</time></trkpt><trkpt lat="42.9899145" lon="12.6657012"><ele>215.0</ele><time>2026-04-05T11:37:58.982Z</time></trkpt><trkpt lat="42.99015" lon="12.6655647"><ele>215.0</ele><time>2026-04-05T11:37:59.983Z</time></trkpt><trkpt lat="42.9903902" lon="12.665427"><ele>215.0</ele><time>2026-04-05T11:38:00.982Z</time></trkpt><trkpt lat="42.9906309" lon="12.665293"><ele>215.0</ele><time>2026-04-05T11:38:01.983Z</time></trkpt><trkpt lat="42.9908676" lon="12.6651598"><ele>214.0</ele><time>2026-04-05T11:38:02.983Z</time></trkpt><trkpt lat="42.9911073" lon="12.6650236"><ele>213.0</ele><time>2026-04-05T11:38:03.982Z</time></trkpt><trkpt lat="42.9913449" lon="12.664886"><ele>213.0</ele><time>2026-04-05T11:38:04.983Z</time></trkpt><trkpt lat="42.9915836" lon="12.6647525"><ele>213.0</ele><time>2026-04-05T11:38:05.983Z</time></trkpt><trkpt lat="42.9918253" lon="12.6646052"><ele>212.0</ele><time>2026-04-05T11:38:06.983Z</time></trkpt><trkpt lat="42.9920633" lon="12.664466"><ele>211.0</ele><time>2026-04-05T11:38:07.983Z</time></trkpt><trkpt lat="42.9923083" lon="12.6643233"><ele>210.5</ele><time>2026-04-05T11:38:08.982Z</time></trkpt><trkpt lat="42.99254" lon="12.6641846"><ele>210.0</ele><time>2026-04-05T11:38:09.982Z</time></trkpt><trkpt lat="42.9927738" lon="12.664041"><ele>210.0</ele><time>2026-04-05T11:38:10.982Z</time></trkpt><trkpt lat="42.9930197" lon="12.6638918"><ele>210.0</ele><time>2026-04-05T11:38:11.983Z</time></trkpt><trkpt lat="42.9932594" lon="12.6637545"><ele>210.0</ele><time>2026-04-05T11:38:12.983Z</time></trkpt><trkpt lat="42.9934968" lon="12.6636255"><ele>210.0</ele><time>2026-04-05T11:38:13.983Z</time></trkpt><trkpt lat="42.9937304" lon="12.6634867"><ele>209.5</ele><time>2026-04-05T11:38:14.983Z</time></trkpt><trkpt lat="42.9939631" lon="12.6633557"><ele>209.0</ele><time>2026-04-05T11:38:15.982Z</time></trkpt><trkpt lat="42.9941956" lon="12.6632251"><ele>209.0</ele><time>2026-04-05T11:38:16.983Z</time></trkpt><trkpt lat="42.9944266" lon="12.663093"><ele>209.0</ele><time>2026-04-05T11:38:17.983Z</time></trkpt><trkpt lat="42.9946575" lon="12.6629609"><ele>209.0</ele><time>2026-04-05T11:38:18.982Z</time></trkpt><trkpt lat="42.9948974" lon="12.6628322"><ele>209.0</ele><time>2026-04-05T11:38:19.983Z</time></trkpt><trkpt lat="42.9951288" lon="12.6627032"><ele>209.0</ele><time>2026-04-05T11:38:20.983Z</time></trkpt><trkpt lat="42.9953677" lon="12.6625684"><ele>209.0</ele><time>2026-04-05T11:38:21.982Z</time></trkpt><trkpt lat="42.9956034" lon="12.6624553"><ele>208.5</ele><time>2026-04-05T11:38:22.983Z</time></trkpt><trkpt lat="42.995846" lon="12.662359"><ele>208.0</ele><time>2026-04-05T11:38:23.983Z</time></trkpt><trkpt lat="42.9960858" lon="12.6622607"><ele>208.0</ele><time>2026-04-05T11:38:24.983Z</time></trkpt><trkpt lat="42.9963248" lon="12.6621808"><ele>208.0</ele><time>2026-04-05T11:38:25.983Z</time></trkpt><trkpt lat="42.9965688" lon="12.6621077"><ele>209.0</ele><time>2026-04-05T11:38:26.983Z</time></trkpt><trkpt lat="42.9968154" lon="12.6620403"><ele>210.0</ele><time>2026-04-05T11:38:27.983Z</time></trkpt><trkpt lat="42.9970657" lon="12.6619798"><ele>210.0</ele><time>2026-04-05T11:38:28.982Z</time></trkpt><trkpt lat="42.9973173" lon="12.6619221"><ele>210.0</ele><time>2026-04-05T11:38:29.982Z</time></trkpt><trkpt lat="42.9975639" lon="12.6618642"><ele>210.0</ele><time>2026-04-05T11:38:30.983Z</time></trkpt><trkpt lat="42.9978112" lon="12.6618117"><ele>210.0</ele><time>2026-04-05T11:38:31.982Z</time></trkpt><trkpt lat="42.9980629" lon="12.6617557"><ele>210.0</ele><time>2026-04-05T11:38:32.983Z</time></trkpt><trkpt lat="42.9983061" lon="12.6616898"><ele>210.0</ele><time>2026-04-05T11:38:33.983Z</time></trkpt><trkpt lat="42.9985569" lon="12.6616334"><ele>209.5</ele><time>2026-04-05T11:38:34.983Z</time></trkpt><trkpt lat="42.9988091" lon="12.661583"><ele>209.0</ele><time>2026-04-05T11:38:35.983Z</time></trkpt><trkpt lat="42.999063" lon="12.6615291"><ele>209.0</ele><time>2026-04-05T11:38:36.983Z</time></trkpt><trkpt lat="42.9993183" lon="12.661477"><ele>209.0</ele><time>2026-04-05T11:38:37.983Z</time></trkpt><trkpt lat="42.9995661" lon="12.6614217"><ele>209.0</ele><time>2026-04-05T11:38:38.983Z</time></trkpt><trkpt lat="42.9998151" lon="12.6613716"><ele>209.0</ele><time>2026-04-05T11:38:39.983Z</time></trkpt><trkpt lat="43.0000603" lon="12.6613133"><ele>209.0</ele><time>2026-04-05T11:38:40.983Z</time></trkpt><trkpt lat="43.0003107" lon="12.6612578"><ele>209.0</ele><time>2026-04-05T11:38:41.983Z</time></trkpt><trkpt lat="43.0005546" lon="12.6611958"><ele>209.0</ele><time>2026-04-05T11:38:42.983Z</time></trkpt><trkpt lat="43.0008054" lon="12.6611329"><ele>209.0</ele><time>2026-04-05T11:38:43.982Z</time></trkpt><trkpt lat="43.0010526" lon="12.6610784"><ele>208.5</ele><time>2026-04-05T11:38:44.982Z</time></trkpt><trkpt lat="43.0012962" lon="12.6610221"><ele>208.0</ele><time>2026-04-05T11:38:45.982Z</time></trkpt><trkpt lat="43.0015442" lon="12.6609709"><ele>206.5</ele><time>2026-04-05T11:38:46.983Z</time></trkpt><trkpt lat="43.0017921" lon="12.6609141"><ele>205.0</ele><time>2026-04-05T11:38:47.983Z</time></trkpt><trkpt lat="43.00204" lon="12.6608545"><ele>205.0</ele><time>2026-04-05T11:38:48.982Z</time></trkpt><trkpt lat="43.0022864" lon="12.6607932"><ele>205.0</ele><time>2026-04-05T11:38:49.983Z</time></trkpt><trkpt lat="43.0025386" lon="12.6607347"><ele>205.0</ele><time>2026-04-05T11:38:50.983Z</time></trkpt><trkpt lat="43.0027889" lon="12.6606728"><ele>205.0</ele><time>2026-04-05T11:38:51.982Z</time></trkpt><trkpt lat="43.0030438" lon="12.660608"><ele>205.0</ele><time>2026-04-05T11:38:52.982Z</time></trkpt><trkpt lat="43.0033018" lon="12.6605291"><ele>205.0</ele><time>2026-04-05T11:38:53.983Z</time></trkpt><trkpt lat="43.0035584" lon="12.6604364"><ele>206.5</ele><time>2026-04-05T11:38:54.983Z</time></trkpt><trkpt lat="43.0038121" lon="12.6603365"><ele>208.0</ele><time>2026-04-05T11:38:55.983Z</time></trkpt><trkpt lat="43.0040608" lon="12.6602231"><ele>206.0</ele><time>2026-04-05T11:38:56.983Z</time></trkpt><trkpt lat="43.0043065" lon="12.6601069"><ele>204.0</ele><time>2026-04-05T11:38:57.983Z</time></trkpt><trkpt lat="43.0045546" lon="12.6599846"><ele>204.0</ele><time>2026-04-05T11:38:58.983Z</time></trkpt><trkpt lat="43.0048116" lon="12.6598423"><ele>204.0</ele><time>2026-04-05T11:38:59.982Z</time></trkpt><trkpt lat="43.0050608" lon="12.6596982"><ele>205.0</ele><time>2026-04-05T11:39:00.982Z</time></trkpt><trkpt lat="43.0053042" lon="12.6595502"><ele>206.0</ele><time>2026-04-05T11:39:01.983Z</time></trkpt><trkpt lat="43.0055402" lon="12.6593836"><ele>206.0</ele><time>2026-04-05T11:39:02.983Z</time></trkpt><trkpt lat="43.0057779" lon="12.6592079"><ele>206.0</ele><time>2026-04-05T11:39:03.983Z</time></trkpt><trkpt lat="43.0060071" lon="12.6590347"><ele>207.0</ele><time>2026-04-05T11:39:04.983Z</time></trkpt><trkpt lat="43.0062469" lon="12.6588446"><ele>208.0</ele><time>2026-04-05T11:39:05.983Z</time></trkpt><trkpt lat="43.0064797" lon="12.6586485"><ele>207.5</ele><time>2026-04-05T11:39:06.983Z</time></trkpt><trkpt lat="43.0067089" lon="12.6584529"><ele>207.0</ele><time>2026-04-05T11:39:07.983Z</time></trkpt><trkpt lat="43.006937" lon="12.6582542"><ele>207.0</ele><time>2026-04-05T11:39:08.983Z</time></trkpt><trkpt lat="43.0071652" lon="12.6580487"><ele>207.0</ele><time>2026-04-05T11:39:09.983Z</time></trkpt><trkpt lat="43.0073871" lon="12.6578457"><ele>205.0</ele><time>2026-04-05T11:39:10.982Z</time></trkpt><trkpt lat="43.007612" lon="12.6576464"><ele>203.0</ele><time>2026-04-05T11:39:11.983Z</time></trkpt><trkpt lat="43.007835" lon="12.657445"><ele>203.0</ele><time>2026-04-05T11:39:12.982Z</time></trkpt><trkpt lat="43.0080498" lon="12.6572468"><ele>203.0</ele><time>2026-04-05T11:39:13.982Z</time></trkpt><trkpt lat="43.0082735" lon="12.6570544"><ele>203.0</ele><time>2026-04-05T11:39:14.983Z</time></trkpt><trkpt lat="43.0084895" lon="12.656867"><ele>203.0</ele><time>2026-04-05T11:39:15.983Z</time></trkpt><trkpt lat="43.0087091" lon="12.6566756"><ele>203.0</ele><time>2026-04-05T11:39:16.983Z</time></trkpt><trkpt lat="43.0089247" lon="12.6564835"><ele>203.0</ele><time>2026-04-05T11:39:17.983Z</time></trkpt><trkpt lat="43.0091417" lon="12.6562902"><ele>202.5</ele><time>2026-04-05T11:39:18.983Z</time></trkpt><trkpt lat="43.0093581" lon="12.656098"><ele>202.0</ele><time>2026-04-05T11:39:19.983Z</time></trkpt><trkpt lat="43.0095745" lon="12.655903"><ele>202.0</ele><time>2026-04-05T11:39:20.982Z</time></trkpt><trkpt lat="43.0097842" lon="12.6557055"><ele>202.0</ele><time>2026-04-05T11:39:21.983Z</time></trkpt><trkpt lat="43.0099975" lon="12.6555193"><ele>202.0</ele><time>2026-04-05T11:39:22.983Z</time></trkpt><trkpt lat="43.0102114" lon="12.6553272"><ele>202.0</ele><time>2026-04-05T11:39:23.983Z</time></trkpt><trkpt lat="43.0104261" lon="12.6551396"><ele>201.5</ele><time>2026-04-05T11:39:24.983Z</time></trkpt><trkpt lat="43.0106369" lon="12.6549469"><ele>201.0</ele><time>2026-04-05T11:39:25.983Z</time></trkpt><trkpt lat="43.0108506" lon="12.6547603"><ele>201.0</ele><time>2026-04-05T11:39:26.982Z</time></trkpt><trkpt lat="43.0110535" lon="12.65456"><ele>201.0</ele><time>2026-04-05T11:39:27.983Z</time></trkpt><trkpt lat="43.0112609" lon="12.6543637"><ele>201.0</ele><time>2026-04-05T11:39:28.983Z</time></trkpt><trkpt lat="43.0114723" lon="12.6541764"><ele>201.0</ele><time>2026-04-05T11:39:29.983Z</time></trkpt><trkpt lat="43.0116889" lon="12.6539907"><ele>201.5</ele><time>2026-04-05T11:39:30.982Z</time></trkpt><trkpt lat="43.0118988" lon="12.653801"><ele>202.0</ele><time>2026-04-05T11:39:31.983Z</time></trkpt><trkpt lat="43.0121139" lon="12.6536124"><ele>202.0</ele><time>2026-04-05T11:39:32.983Z</time></trkpt><trkpt lat="43.0123281" lon="12.6534263"><ele>202.0</ele><time>2026-04-05T11:39:33.983Z</time></trkpt><trkpt lat="43.0125461" lon="12.6532413"><ele>201.5</ele><time>2026-04-05T11:39:34.983Z</time></trkpt><trkpt lat="43.0127553" lon="12.6530484"><ele>201.0</ele><time>2026-04-05T11:39:35.983Z</time></trkpt><trkpt lat="43.012968" lon="12.6528555"><ele>201.0</ele><time>2026-04-05T11:39:36.983Z</time></trkpt><trkpt lat="43.0131735" lon="12.6526505"><ele>201.0</ele><time>2026-04-05T11:39:37.983Z</time></trkpt><trkpt lat="43.0133788" lon="12.6524496"><ele>201.0</ele><time>2026-04-05T11:39:38.983Z</time></trkpt><trkpt lat="43.0135808" lon="12.6522344"><ele>201.0</ele><time>2026-04-05T11:39:39.982Z</time></trkpt><trkpt lat="43.013775" lon="12.6520241"><ele>200.5</ele><time>2026-04-05T11:39:40.982Z</time></trkpt><trkpt lat="43.0139678" lon="12.6518099"><ele>200.0</ele><time>2026-04-05T11:39:41.982Z</time></trkpt><trkpt lat="43.0141567" lon="12.6515847"><ele>201.5</ele><time>2026-04-05T11:39:42.983Z</time></trkpt><trkpt lat="43.0143449" lon="12.6513596"><ele>203.0</ele><time>2026-04-05T11:39:43.983Z</time></trkpt><trkpt lat="43.0145283" lon="12.6511272"><ele>202.5</ele><time>2026-04-05T11:39:44.983Z</time></trkpt><trkpt lat="43.0147113" lon="12.6508823"><ele>202.0</ele><time>2026-04-05T11:39:45.983Z</time></trkpt><trkpt lat="43.0148858" lon="12.6506456"><ele>203.0</ele><time>2026-04-05T11:39:46.983Z</time></trkpt><trkpt lat="43.0150596" lon="12.6504056"><ele>204.0</ele><time>2026-04-05T11:39:47.983Z</time></trkpt><trkpt lat="43.0152346" lon="12.6501719"><ele>204.0</ele><time>2026-04-05T11:39:48.983Z</time></trkpt><trkpt lat="43.0154073" lon="12.6499327"><ele>204.0</ele><time>2026-04-05T11:39:49.983Z</time></trkpt><trkpt lat="43.0155854" lon="12.6496906"><ele>203.5</ele><time>2026-04-05T11:39:50.983Z</time></trkpt><trkpt lat="43.015758" lon="12.6494469"><ele>203.0</ele><time>2026-04-05T11:39:51.983Z</time></trkpt><trkpt lat="43.0159327" lon="12.6492097"><ele>205.0</ele><time>2026-04-05T11:39:52.983Z</time></trkpt><trkpt lat="43.0161052" lon="12.6489688"><ele>207.0</ele><time>2026-04-05T11:39:53.982Z</time></trkpt><trkpt lat="43.016278" lon="12.6487305"><ele>207.0</ele><time>2026-04-05T11:39:54.982Z</time></trkpt><trkpt lat="43.0164504" lon="12.6484919"><ele>207.0</ele><time>2026-04-05T11:39:55.982Z</time></trkpt><trkpt lat="43.0166248" lon="12.6482477"><ele>207.0</ele><time>2026-04-05T11:39:56.982Z</time></trkpt><trkpt lat="43.0167968" lon="12.6480131"><ele>207.0</ele><time>2026-04-05T11:39:57.982Z</time></trkpt><trkpt lat="43.0169684" lon="12.6477777"><ele>207.0</ele><time>2026-04-05T11:39:58.983Z</time></trkpt><trkpt lat="43.0171391" lon="12.6475394"><ele>207.0</ele><time>2026-04-05T11:39:59.983Z</time></trkpt><trkpt lat="43.0173064" lon="12.6472999"><ele>207.0</ele><time>2026-04-05T11:40:00.983Z</time></trkpt><trkpt lat="43.017479" lon="12.6470602"><ele>207.0</ele><time>2026-04-05T11:40:01.983Z</time></trkpt><trkpt lat="43.0176523" lon="12.64682"><ele>208.0</ele><time>2026-04-05T11:40:02.983Z</time></trkpt><trkpt lat="43.0178263" lon="12.6465821"><ele>209.0</ele><time>2026-04-05T11:40:03.983Z</time></trkpt><trkpt lat="43.018" lon="12.6463418"><ele>208.5</ele><time>2026-04-05T11:40:04.982Z</time></trkpt><trkpt lat="43.018174" lon="12.6460976"><ele>208.0</ele><time>2026-04-05T11:40:05.983Z</time></trkpt><trkpt lat="43.0183483" lon="12.6458559"><ele>209.0</ele><time>2026-04-05T11:40:06.982Z</time></trkpt><trkpt lat="43.0185246" lon="12.6456152"><ele>210.0</ele><time>2026-04-05T11:40:07.982Z</time></trkpt><trkpt lat="43.0186985" lon="12.645373"><ele>209.5</ele><time>2026-04-05T11:40:08.983Z</time></trkpt><trkpt lat="43.0188764" lon="12.6451285"><ele>209.0</ele><time>2026-04-05T11:40:09.983Z</time></trkpt><trkpt lat="43.0190661" lon="12.64489"><ele>209.0</ele><time>2026-04-05T11:40:10.983Z</time></trkpt><trkpt lat="43.0192388" lon="12.644651"><ele>209.0</ele><time>2026-04-05T11:40:11.982Z</time></trkpt><trkpt lat="43.0194225" lon="12.6444133"><ele>209.0</ele><time>2026-04-05T11:40:12.983Z</time></trkpt><trkpt lat="43.0195992" lon="12.6441717"><ele>209.0</ele><time>2026-04-05T11:40:13.983Z</time></trkpt><trkpt lat="43.0197793" lon="12.6439258"><ele>209.0</ele><time>2026-04-05T11:40:14.983Z</time></trkpt><trkpt lat="43.0199554" lon="12.6436852"><ele>209.0</ele><time>2026-04-05T11:40:15.983Z</time></trkpt><trkpt lat="43.0201405" lon="12.643439"><ele>210.0</ele><time>2026-04-05T11:40:16.983Z</time></trkpt><trkpt lat="43.0203223" lon="12.6431997"><ele>211.0</ele><time>2026-04-05T11:40:17.983Z</time></trkpt><trkpt lat="43.0204977" lon="12.6429551"><ele>210.5</ele><time>2026-04-05T11:40:18.983Z</time></trkpt><trkpt lat="43.020676" lon="12.6427176"><ele>210.0</ele><time>2026-04-05T11:40:19.983Z</time></trkpt><trkpt lat="43.0208591" lon="12.6424777"><ele>210.0</ele><time>2026-04-05T11:40:20.983Z</time></trkpt><trkpt lat="43.0210417" lon="12.6422376"><ele>210.0</ele><time>2026-04-05T11:40:21.983Z</time></trkpt><trkpt lat="43.0212255" lon="12.6420007"><ele>209.5</ele><time>2026-04-05T11:40:22.983Z</time></trkpt><trkpt lat="43.0214184" lon="12.6417681"><ele>209.0</ele><time>2026-04-05T11:40:23.983Z</time></trkpt><trkpt lat="43.0216164" lon="12.6415429"><ele>208.0</ele><time>2026-04-05T11:40:24.983Z</time></trkpt><trkpt lat="43.0218207" lon="12.6413339"><ele>207.0</ele><time>2026-04-05T11:40:25.983Z</time></trkpt><trkpt lat="43.0220323" lon="12.6411275"><ele>205.5</ele><time>2026-04-05T11:40:26.982Z</time></trkpt><trkpt lat="43.02225" lon="12.6409264"><ele>204.0</ele><time>2026-04-05T11:40:27.983Z</time></trkpt><trkpt lat="43.0224583" lon="12.6407354"><ele>204.5</ele><time>2026-04-05T11:40:28.983Z</time></trkpt><trkpt lat="43.0226746" lon="12.640525"><ele>205.0</ele><time>2026-04-05T11:40:29.982Z</time></trkpt><trkpt lat="43.0228853" lon="12.640327"><ele>204.0</ele><time>2026-04-05T11:40:30.983Z</time></trkpt><trkpt lat="43.0230934" lon="12.6401317"><ele>203.0</ele><time>2026-04-05T11:40:31.982Z</time></trkpt><trkpt lat="43.0233026" lon="12.6399342"><ele>202.5</ele><time>2026-04-05T11:40:32.983Z</time></trkpt><trkpt lat="43.0235136" lon="12.6397365"><ele>202.0</ele><time>2026-04-05T11:40:33.983Z</time></trkpt><trkpt lat="43.0237223" lon="12.6395432"><ele>202.0</ele><time>2026-04-05T11:40:34.983Z</time></trkpt><trkpt lat="43.0239318" lon="12.6393467"><ele>202.0</ele><time>2026-04-05T11:40:35.982Z</time></trkpt><trkpt lat="43.0241486" lon="12.6391409"><ele>202.0</ele><time>2026-04-05T11:40:36.982Z</time></trkpt><trkpt lat="43.0243588" lon="12.6389527"><ele>202.0</ele><time>2026-04-05T11:40:37.983Z</time></trkpt><trkpt lat="43.0245722" lon="12.6387626"><ele>201.0</ele><time>2026-04-05T11:40:38.982Z</time></trkpt><trkpt lat="43.0247858" lon="12.6385648"><ele>200.0</ele><time>2026-04-05T11:40:39.983Z</time></trkpt><trkpt lat="43.024998" lon="12.6383609"><ele>200.0</ele><time>2026-04-05T11:40:40.983Z</time></trkpt><trkpt lat="43.0252135" lon="12.6381619"><ele>200.0</ele><time>2026-04-05T11:40:41.983Z</time></trkpt><trkpt lat="43.0254299" lon="12.6379663"><ele>198.5</ele><time>2026-04-05T11:40:42.982Z</time></trkpt><trkpt lat="43.0256464" lon="12.6377676"><ele>197.0</ele><time>2026-04-05T11:40:43.982Z</time></trkpt><trkpt lat="43.025861" lon="12.6375724"><ele>197.0</ele><time>2026-04-05T11:40:44.982Z</time></trkpt><trkpt lat="43.0260841" lon="12.6373659"><ele>197.0</ele><time>2026-04-05T11:40:45.982Z</time></trkpt><trkpt lat="43.0263073" lon="12.6371486"><ele>196.0</ele><time>2026-04-05T11:40:46.983Z</time></trkpt><trkpt lat="43.0265378" lon="12.6369316"><ele>195.0</ele><time>2026-04-05T11:40:47.982Z</time></trkpt><trkpt lat="43.0267632" lon="12.6367013"><ele>197.5</ele><time>2026-04-05T11:40:48.983Z</time></trkpt><trkpt lat="43.0269951" lon="12.636481"><ele>200.0</ele><time>2026-04-05T11:40:49.983Z</time></trkpt><trkpt lat="43.0272288" lon="12.6362553"><ele>200.0</ele><time>2026-04-05T11:40:50.982Z</time></trkpt><trkpt lat="43.0274638" lon="12.6360391"><ele>200.0</ele><time>2026-04-05T11:40:51.983Z</time></trkpt><trkpt lat="43.0276991" lon="12.6358199"><ele>199.5</ele><time>2026-04-05T11:40:52.983Z</time></trkpt><trkpt lat="43.027929" lon="12.6356005"><ele>199.0</ele><time>2026-04-05T11:40:53.983Z</time></trkpt><trkpt lat="43.0281551" lon="12.6353862"><ele>200.0</ele><time>2026-04-05T11:40:54.983Z</time></trkpt><trkpt lat="43.028394" lon="12.6351747"><ele>201.0</ele><time>2026-04-05T11:40:55.983Z</time></trkpt><trkpt lat="43.0286255" lon="12.63497"><ele>201.0</ele><time>2026-04-05T11:40:56.982Z</time></trkpt><trkpt lat="43.0288576" lon="12.6347489"><ele>201.0</ele><time>2026-04-05T11:40:57.983Z</time></trkpt><trkpt lat="43.0291007" lon="12.6345506"><ele>202.0</ele><time>2026-04-05T11:40:58.983Z</time></trkpt><trkpt lat="43.029342" lon="12.6343394"><ele>203.0</ele><time>2026-04-05T11:40:59.983Z</time></trkpt><trkpt lat="43.0295706" lon="12.6341371"><ele>203.0</ele><time>2026-04-05T11:41:00.983Z</time></trkpt><trkpt lat="43.0297946" lon="12.6339357"><ele>203.0</ele><time>2026-04-05T11:41:01.983Z</time></trkpt><trkpt lat="43.0300217" lon="12.6337357"><ele>203.0</ele><time>2026-04-05T11:41:02.983Z</time></trkpt><trkpt lat="43.0302392" lon="12.6335313"><ele>203.0</ele><time>2026-04-05T11:41:03.983Z</time></trkpt><trkpt lat="43.0304586" lon="12.6333239"><ele>203.0</ele><time>2026-04-05T11:41:04.982Z</time></trkpt><trkpt lat="43.030671" lon="12.6331198"><ele>203.0</ele><time>2026-04-05T11:41:05.983Z</time></trkpt><trkpt lat="43.0308843" lon="12.6329157"><ele>203.5</ele><time>2026-04-05T11:41:06.982Z</time></trkpt><trkpt lat="43.0310954" lon="12.6327191"><ele>204.0</ele><time>2026-04-05T11:41:07.982Z</time></trkpt><trkpt lat="43.0313083" lon="12.6325233"><ele>204.0</ele><time>2026-04-05T11:41:08.983Z</time></trkpt><trkpt lat="43.031523" lon="12.6323423"><ele>204.0</ele><time>2026-04-05T11:41:09.983Z</time></trkpt><trkpt lat="43.0317341" lon="12.6321516"><ele>203.5</ele><time>2026-04-05T11:41:10.982Z</time></trkpt><trkpt lat="43.0319481" lon="12.6319504"><ele>203.0</ele><time>2026-04-05T11:41:11.983Z</time></trkpt><trkpt lat="43.0321594" lon="12.6317585"><ele>203.0</ele><time>2026-04-05T11:41:12.983Z</time></trkpt><trkpt lat="43.0323683" lon="12.6315702"><ele>203.0</ele><time>2026-04-05T11:41:13.983Z</time></trkpt><trkpt lat="43.0325739" lon="12.6313761"><ele>203.5</ele><time>2026-04-05T11:41:14.982Z</time></trkpt><trkpt lat="43.032782" lon="12.6311825"><ele>204.0</ele><time>2026-04-05T11:41:15.983Z</time></trkpt><trkpt lat="43.0329891" lon="12.6309895"><ele>204.0</ele><time>2026-04-05T11:41:16.983Z</time></trkpt><trkpt lat="43.0331989" lon="12.6307988"><ele>204.0</ele><time>2026-04-05T11:41:17.982Z</time></trkpt><trkpt lat="43.0334178" lon="12.6306049"><ele>205.0</ele><time>2026-04-05T11:41:18.982Z</time></trkpt><trkpt lat="43.0336409" lon="12.6303958"><ele>206.0</ele><time>2026-04-05T11:41:19.983Z</time></trkpt><trkpt lat="43.0338624" lon="12.630195"><ele>206.0</ele><time>2026-04-05T11:41:20.983Z</time></trkpt><trkpt lat="43.0340823" lon="12.629999"><ele>206.0</ele><time>2026-04-05T11:41:21.983Z</time></trkpt><trkpt lat="43.0342939" lon="12.6297994"><ele>207.0</ele><time>2026-04-05T11:41:22.983Z</time></trkpt><trkpt lat="43.0344939" lon="12.6295885"><ele>208.0</ele><time>2026-04-05T11:41:23.982Z</time></trkpt><trkpt lat="43.0346919" lon="12.6293743"><ele>208.0</ele><time>2026-04-05T11:41:24.982Z</time></trkpt><trkpt lat="43.0348848" lon="12.6291533"><ele>208.0</ele><time>2026-04-05T11:41:25.982Z</time></trkpt><trkpt lat="43.0350634" lon="12.6289034"><ele>208.0</ele><time>2026-04-05T11:41:26.983Z</time></trkpt><trkpt lat="43.0352354" lon="12.6286556"><ele>208.0</ele><time>2026-04-05T11:41:27.983Z</time></trkpt><trkpt lat="43.0353981" lon="12.6284016"><ele>208.0</ele><time>2026-04-05T11:41:28.982Z</time></trkpt><trkpt lat="43.0355507" lon="12.6281346"><ele>208.0</ele><time>2026-04-05T11:41:29.982Z</time></trkpt><trkpt lat="43.0356974" lon="12.6278558"><ele>209.0</ele><time>2026-04-05T11:41:30.982Z</time></trkpt><trkpt lat="43.0358378" lon="12.6275709"><ele>210.0</ele><time>2026-04-05T11:41:31.983Z</time></trkpt><trkpt lat="43.0359783" lon="12.6272842"><ele>210.0</ele><time>2026-04-05T11:41:32.982Z</time></trkpt><trkpt lat="43.0361149" lon="12.6269944"><ele>210.0</ele><time>2026-04-05T11:41:33.983Z</time></trkpt><trkpt lat="43.0362597" lon="12.6267106"><ele>210.0</ele><time>2026-04-05T11:41:34.982Z</time></trkpt><trkpt lat="43.0363937" lon="12.6264132"><ele>210.0</ele><time>2026-04-05T11:41:35.983Z</time></trkpt><trkpt lat="43.0365282" lon="12.6261289"><ele>211.0</ele><time>2026-04-05T11:41:36.982Z</time></trkpt><trkpt lat="43.0366646" lon="12.6258491"><ele>212.0</ele><time>2026-04-05T11:41:37.982Z</time></trkpt><trkpt lat="43.0367995" lon="12.6255658"><ele>210.0</ele><time>2026-04-05T11:41:38.982Z</time></trkpt><trkpt lat="43.0369349" lon="12.6252833"><ele>208.0</ele><time>2026-04-05T11:41:39.983Z</time></trkpt><trkpt lat="43.0370696" lon="12.6250023"><ele>208.0</ele><time>2026-04-05T11:41:40.983Z</time></trkpt><trkpt lat="43.0372051" lon="12.6247191"><ele>208.0</ele><time>2026-04-05T11:41:41.983Z</time></trkpt><trkpt lat="43.037345" lon="12.6244308"><ele>209.0</ele><time>2026-04-05T11:41:42.983Z</time></trkpt><trkpt lat="43.0374833" lon="12.6241422"><ele>210.0</ele><time>2026-04-05T11:41:43.983Z</time></trkpt><trkpt lat="43.0376254" lon="12.6238459"><ele>209.5</ele><time>2026-04-05T11:41:44.983Z</time></trkpt><trkpt lat="43.0377613" lon="12.6235483"><ele>209.0</ele><time>2026-04-05T11:41:45.983Z</time></trkpt><trkpt lat="43.0379007" lon="12.623261"><ele>209.0</ele><time>2026-04-05T11:41:46.983Z</time></trkpt><trkpt lat="43.0380382" lon="12.6229694"><ele>209.0</ele><time>2026-04-05T11:41:47.983Z</time></trkpt><trkpt lat="43.0381747" lon="12.6226783"><ele>209.5</ele><time>2026-04-05T11:41:48.983Z</time></trkpt><trkpt lat="43.038311" lon="12.62238"><ele>210.0</ele><time>2026-04-05T11:41:49.983Z</time></trkpt><trkpt lat="43.0384567" lon="12.622077"><ele>208.5</ele><time>2026-04-05T11:41:50.982Z</time></trkpt><trkpt lat="43.0385924" lon="12.6217763"><ele>207.0</ele><time>2026-04-05T11:41:51.983Z</time></trkpt><trkpt lat="43.0387333" lon="12.6214844"><ele>207.0</ele><time>2026-04-05T11:41:52.983Z</time></trkpt><trkpt lat="43.0388706" lon="12.62119"><ele>207.0</ele><time>2026-04-05T11:41:53.982Z</time></trkpt><trkpt lat="43.0390075" lon="12.6208909"><ele>207.0</ele><time>2026-04-05T11:41:54.983Z</time></trkpt><trkpt lat="43.0391461" lon="12.6205922"><ele>207.0</ele><time>2026-04-05T11:41:55.982Z</time></trkpt><trkpt lat="43.039286" lon="12.6203069"><ele>207.0</ele><time>2026-04-05T11:41:56.982Z</time></trkpt><trkpt lat="43.0394219" lon="12.6200154"><ele>207.0</ele><time>2026-04-05T11:41:57.982Z</time></trkpt><trkpt lat="43.039559" lon="12.6197242"><ele>205.5</ele><time>2026-04-05T11:41:58.983Z</time></trkpt><trkpt lat="43.0396963" lon="12.6194331"><ele>204.0</ele><time>2026-04-05T11:41:59.983Z</time></trkpt><trkpt lat="43.0398297" lon="12.6191429"><ele>205.5</ele><time>2026-04-05T11:42:00.983Z</time></trkpt><trkpt lat="43.0399702" lon="12.6188641"><ele>207.0</ele><time>2026-04-05T11:42:01.983Z</time></trkpt><trkpt lat="43.0401101" lon="12.6185788"><ele>207.0</ele><time>2026-04-05T11:42:02.983Z</time></trkpt><trkpt lat="43.0402463" lon="12.6182888"><ele>207.0</ele><time>2026-04-05T11:42:03.983Z</time></trkpt><trkpt lat="43.0403856" lon="12.6180019"><ele>206.0</ele><time>2026-04-05T11:42:04.982Z</time></trkpt><trkpt lat="43.0405251" lon="12.6177081"><ele>205.0</ele><time>2026-04-05T11:42:05.983Z</time></trkpt><trkpt lat="43.0406622" lon="12.6174114"><ele>205.0</ele><time>2026-04-05T11:42:06.983Z</time></trkpt><trkpt lat="43.0407961" lon="12.6171238"><ele>205.0</ele><time>2026-04-05T11:42:07.983Z</time></trkpt><trkpt lat="43.0409332" lon="12.6168289"><ele>205.0</ele><time>2026-04-05T11:42:08.982Z</time></trkpt><trkpt lat="43.0410736" lon="12.6165345"><ele>205.0</ele><time>2026-04-05T11:42:09.982Z</time></trkpt><trkpt lat="43.041209" lon="12.6162393"><ele>205.5</ele><time>2026-04-05T11:42:10.982Z</time></trkpt><trkpt lat="43.0413549" lon="12.6159504"><ele>206.0</ele><time>2026-04-05T11:42:11.983Z</time></trkpt><trkpt lat="43.0414955" lon="12.6156624"><ele>206.5</ele><time>2026-04-05T11:42:12.983Z</time></trkpt><trkpt lat="43.0416392" lon="12.6153731"><ele>207.0</ele><time>2026-04-05T11:42:13.983Z</time></trkpt><trkpt lat="43.0417814" lon="12.615075"><ele>206.0</ele><time>2026-04-05T11:42:14.983Z</time></trkpt><trkpt lat="43.0419218" lon="12.6147826"><ele>205.0</ele><time>2026-04-05T11:42:15.983Z</time></trkpt><trkpt lat="43.0420584" lon="12.6144922"><ele>204.5</ele><time>2026-04-05T11:42:16.982Z</time></trkpt><trkpt lat="43.042196" lon="12.6141939"><ele>204.0</ele><time>2026-04-05T11:42:17.983Z</time></trkpt><trkpt lat="43.0423345" lon="12.6138965"><ele>205.5</ele><time>2026-04-05T11:42:18.983Z</time></trkpt><trkpt lat="43.0424719" lon="12.6136002"><ele>207.0</ele><time>2026-04-05T11:42:19.982Z</time></trkpt><trkpt lat="43.0426155" lon="12.6133071"><ele>207.0</ele><time>2026-04-05T11:42:20.983Z</time></trkpt><trkpt lat="43.0427561" lon="12.6130083"><ele>207.0</ele><time>2026-04-05T11:42:21.983Z</time></trkpt><trkpt lat="43.0429005" lon="12.6127153"><ele>206.5</ele><time>2026-04-05T11:42:22.983Z</time></trkpt><trkpt lat="43.043042" lon="12.6124156"><ele>206.0</ele><time>2026-04-05T11:42:23.982Z</time></trkpt><trkpt lat="43.0431785" lon="12.6121166"><ele>208.0</ele><time>2026-04-05T11:42:24.983Z</time></trkpt><trkpt lat="43.0433294" lon="12.6118167"><ele>210.0</ele><time>2026-04-05T11:42:25.982Z</time></trkpt><trkpt lat="43.0434709" lon="12.6115135"><ele>210.0</ele><time>2026-04-05T11:42:26.983Z</time></trkpt><trkpt lat="43.0436176" lon="12.6112092"><ele>210.0</ele><time>2026-04-05T11:42:27.983Z</time></trkpt><trkpt lat="43.0437597" lon="12.6109089"><ele>210.0</ele><time>2026-04-05T11:42:28.983Z</time></trkpt><trkpt lat="43.0439027" lon="12.6106074"><ele>210.0</ele><time>2026-04-05T11:42:29.983Z</time></trkpt><trkpt lat="43.0440428" lon="12.610306"><ele>210.0</ele><time>2026-04-05T11:42:30.982Z</time></trkpt><trkpt lat="43.0441839" lon="12.6100066"><ele>210.0</ele><time>2026-04-05T11:42:31.983Z</time></trkpt><trkpt lat="43.0443206" lon="12.6097094"><ele>210.5</ele><time>2026-04-05T11:42:32.983Z</time></trkpt><trkpt lat="43.0444629" lon="12.6094173"><ele>211.0</ele><time>2026-04-05T11:42:33.983Z</time></trkpt><trkpt lat="43.0446038" lon="12.609119"><ele>211.0</ele><time>2026-04-05T11:42:34.982Z</time></trkpt><trkpt lat="43.0447472" lon="12.6088233"><ele>211.0</ele><time>2026-04-05T11:42:35.982Z</time></trkpt><trkpt lat="43.0448836" lon="12.6085281"><ele>212.0</ele><time>2026-04-05T11:42:36.982Z</time></trkpt><trkpt lat="43.0450207" lon="12.6082343"><ele>213.0</ele><time>2026-04-05T11:42:37.983Z</time></trkpt><trkpt lat="43.0451617" lon="12.6079428"><ele>212.5</ele><time>2026-04-05T11:42:38.983Z</time></trkpt><trkpt lat="43.045294" lon="12.6076354"><ele>212.0</ele><time>2026-04-05T11:42:39.983Z</time></trkpt><trkpt lat="43.04543" lon="12.6073508"><ele>212.0</ele><time>2026-04-05T11:42:40.983Z</time></trkpt><trkpt lat="43.0455702" lon="12.6070655"><ele>212.0</ele><time>2026-04-05T11:42:41.983Z</time></trkpt><trkpt lat="43.04571" lon="12.6067749"><ele>212.0</ele><time>2026-04-05T11:42:42.983Z</time></trkpt><trkpt lat="43.0458478" lon="12.606491"><ele>212.0</ele><time>2026-04-05T11:42:43.983Z</time></trkpt><trkpt lat="43.0459834" lon="12.6062055"><ele>212.5</ele><time>2026-04-05T11:42:44.983Z</time></trkpt><trkpt lat="43.0461185" lon="12.6059236"><ele>213.0</ele><time>2026-04-05T11:42:45.983Z</time></trkpt><trkpt lat="43.0462533" lon="12.6056367"><ele>213.0</ele><time>2026-04-05T11:42:46.982Z</time></trkpt><trkpt lat="43.0463897" lon="12.6053546"><ele>213.0</ele><time>2026-04-05T11:42:47.983Z</time></trkpt><trkpt lat="43.046524" lon="12.6050663"><ele>213.5</ele><time>2026-04-05T11:42:48.983Z</time></trkpt><trkpt lat="43.0466595" lon="12.6047829"><ele>214.0</ele><time>2026-04-05T11:42:49.983Z</time></trkpt><trkpt lat="43.0467909" lon="12.6044868"><ele>214.0</ele><time>2026-04-05T11:42:50.982Z</time></trkpt><trkpt lat="43.0469296" lon="12.6041957"><ele>214.0</ele><time>2026-04-05T11:42:51.983Z</time></trkpt><trkpt lat="43.0470674" lon="12.6039118"><ele>213.0</ele><time>2026-04-05T11:42:52.983Z</time></trkpt><trkpt lat="43.0472051" lon="12.6036197"><ele>212.0</ele><time>2026-04-05T11:42:53.982Z</time></trkpt><trkpt lat="43.0473447" lon="12.6033275"><ele>212.0</ele><time>2026-04-05T11:42:54.983Z</time></trkpt><trkpt lat="43.0474836" lon="12.6030326"><ele>212.0</ele><time>2026-04-05T11:42:55.983Z</time></trkpt><trkpt lat="43.0476227" lon="12.6027425"><ele>211.5</ele><time>2026-04-05T11:42:56.982Z</time></trkpt><trkpt lat="43.0477502" lon="12.6024489"><ele>211.0</ele><time>2026-04-05T11:42:57.983Z</time></trkpt><trkpt lat="43.0478724" lon="12.6021509"><ele>212.0</ele><time>2026-04-05T11:42:58.983Z</time></trkpt><trkpt lat="43.0479883" lon="12.6018487"><ele>213.0</ele><time>2026-04-05T11:42:59.983Z</time></trkpt><trkpt lat="43.0480953" lon="12.6015317"><ele>213.0</ele><time>2026-04-05T11:43:00.983Z</time></trkpt><trkpt lat="43.0481986" lon="12.6012205"><ele>213.0</ele><time>2026-04-05T11:43:01.983Z</time></trkpt><trkpt lat="43.0482914" lon="12.6008943"><ele>215.0</ele><time>2026-04-05T11:43:02.983Z</time></trkpt><trkpt lat="43.0483884" lon="12.6005761"><ele>217.0</ele><time>2026-04-05T11:43:03.982Z</time></trkpt><trkpt lat="43.0484701" lon="12.6002518"><ele>217.0</ele><time>2026-04-05T11:43:04.982Z</time></trkpt><trkpt lat="43.0485526" lon="12.5999299"><ele>217.0</ele><time>2026-04-05T11:43:05.983Z</time></trkpt><trkpt lat="43.048631" lon="12.5996066"><ele>217.0</ele><time>2026-04-05T11:43:06.982Z</time></trkpt><trkpt lat="43.0487066" lon="12.5992838"><ele>217.0</ele><time>2026-04-05T11:43:07.982Z</time></trkpt><trkpt lat="43.0487884" lon="12.5989574"><ele>215.5</ele><time>2026-04-05T11:43:08.983Z</time></trkpt><trkpt lat="43.048863" lon="12.598639"><ele>214.0</ele><time>2026-04-05T11:43:09.982Z</time></trkpt><trkpt lat="43.0489418" lon="12.5983132"><ele>214.0</ele><time>2026-04-05T11:43:10.983Z</time></trkpt><trkpt lat="43.049019" lon="12.5979882"><ele>214.0</ele><time>2026-04-05T11:43:11.983Z</time></trkpt><trkpt lat="43.0490982" lon="12.5976626"><ele>215.5</ele><time>2026-04-05T11:43:12.983Z</time></trkpt><trkpt lat="43.0491834" lon="12.597332"><ele>217.0</ele><time>2026-04-05T11:43:13.982Z</time></trkpt><trkpt lat="43.0492605" lon="12.5970107"><ele>217.5</ele><time>2026-04-05T11:43:14.983Z</time></trkpt><trkpt lat="43.0493413" lon="12.596686"><ele>218.0</ele><time>2026-04-05T11:43:15.983Z</time></trkpt><trkpt lat="43.0494145" lon="12.5963552"><ele>217.0</ele><time>2026-04-05T11:43:16.982Z</time></trkpt><trkpt lat="43.0494846" lon="12.5960126"><ele>216.0</ele><time>2026-04-05T11:43:17.983Z</time></trkpt><trkpt lat="43.0495533" lon="12.5956768"><ele>216.0</ele><time>2026-04-05T11:43:18.983Z</time></trkpt><trkpt lat="43.0496329" lon="12.595342"><ele>216.0</ele><time>2026-04-05T11:43:19.983Z</time></trkpt><trkpt lat="43.0497118" lon="12.5950046"><ele>216.5</ele><time>2026-04-05T11:43:20.983Z</time></trkpt><trkpt lat="43.0497882" lon="12.5946616"><ele>217.0</ele><time>2026-04-05T11:43:21.983Z</time></trkpt><trkpt lat="43.0498742" lon="12.5943207"><ele>217.0</ele><time>2026-04-05T11:43:22.983Z</time></trkpt><trkpt lat="43.0499581" lon="12.5939784"><ele>217.0</ele><time>2026-04-05T11:43:23.983Z</time></trkpt><trkpt lat="43.0500485" lon="12.5936305"><ele>217.0</ele><time>2026-04-05T11:43:24.982Z</time></trkpt><trkpt lat="43.0501317" lon="12.5932824"><ele>217.0</ele><time>2026-04-05T11:43:25.983Z</time></trkpt><trkpt lat="43.0502129" lon="12.5929279"><ele>216.0</ele><time>2026-04-05T11:43:26.982Z</time></trkpt><trkpt lat="43.0502984" lon="12.5925753"><ele>215.0</ele><time>2026-04-05T11:43:27.983Z</time></trkpt><trkpt lat="43.0503822" lon="12.5922345"><ele>214.0</ele><time>2026-04-05T11:43:28.982Z</time></trkpt><trkpt lat="43.0504664" lon="12.5918767"><ele>213.0</ele><time>2026-04-05T11:43:29.982Z</time></trkpt><trkpt lat="43.0505561" lon="12.5915244"><ele>213.0</ele><time>2026-04-05T11:43:30.983Z</time></trkpt><trkpt lat="43.0506442" lon="12.5911753"><ele>213.0</ele><time>2026-04-05T11:43:31.983Z</time></trkpt><trkpt lat="43.050732" lon="12.5908133"><ele>214.0</ele><time>2026-04-05T11:43:32.982Z</time></trkpt><trkpt lat="43.0508212" lon="12.5904584"><ele>215.0</ele><time>2026-04-05T11:43:33.983Z</time></trkpt><trkpt lat="43.0509066" lon="12.5901047"><ele>215.0</ele><time>2026-04-05T11:43:34.983Z</time></trkpt><trkpt lat="43.050992" lon="12.5897567"><ele>215.0</ele><time>2026-04-05T11:43:35.983Z</time></trkpt><trkpt lat="43.0510789" lon="12.5894086"><ele>213.5</ele><time>2026-04-05T11:43:36.983Z</time></trkpt><trkpt lat="43.0511605" lon="12.5890583"><ele>212.0</ele><time>2026-04-05T11:43:37.982Z</time></trkpt><trkpt lat="43.0512408" lon="12.5887075"><ele>211.5</ele><time>2026-04-05T11:43:38.982Z</time></trkpt><trkpt lat="43.0513256" lon="12.5883538"><ele>211.0</ele><time>2026-04-05T11:43:39.982Z</time></trkpt><trkpt lat="43.0514085" lon="12.5880098"><ele>211.0</ele><time>2026-04-05T11:43:40.982Z</time></trkpt><trkpt lat="43.0514963" lon="12.5876637"><ele>211.0</ele><time>2026-04-05T11:43:41.983Z</time></trkpt><trkpt lat="43.0515784" lon="12.5873192"><ele>212.0</ele><time>2026-04-05T11:43:42.983Z</time></trkpt><trkpt lat="43.0516629" lon="12.5869819"><ele>213.0</ele><time>2026-04-05T11:43:43.983Z</time></trkpt><trkpt lat="43.0517443" lon="12.5866382"><ele>213.0</ele><time>2026-04-05T11:43:44.983Z</time></trkpt><trkpt lat="43.0518236" lon="12.5862928"><ele>213.0</ele><time>2026-04-05T11:43:45.982Z</time></trkpt><trkpt lat="43.0519091" lon="12.585959"><ele>213.5</ele><time>2026-04-05T11:43:46.983Z</time></trkpt><trkpt lat="43.0519969" lon="12.5856233"><ele>214.0</ele><time>2026-04-05T11:43:47.982Z</time></trkpt><trkpt lat="43.0520789" lon="12.5852812"><ele>214.0</ele><time>2026-04-05T11:43:48.983Z</time></trkpt><trkpt lat="43.0521577" lon="12.5849429"><ele>214.0</ele><time>2026-04-05T11:43:49.983Z</time></trkpt><trkpt lat="43.0522468" lon="12.5845955"><ele>213.0</ele><time>2026-04-05T11:43:50.983Z</time></trkpt><trkpt lat="43.0523404" lon="12.5842415"><ele>212.0</ele><time>2026-04-05T11:43:51.983Z</time></trkpt><trkpt lat="43.0524166" lon="12.5838896"><ele>212.0</ele><time>2026-04-05T11:43:52.983Z</time></trkpt><trkpt lat="43.0525034" lon="12.5835478"><ele>212.0</ele><time>2026-04-05T11:43:53.983Z</time></trkpt><trkpt lat="43.0525882" lon="12.5832077"><ele>212.0</ele><time>2026-04-05T11:43:54.983Z</time></trkpt><trkpt lat="43.0526697" lon="12.5828632"><ele>212.0</ele><time>2026-04-05T11:43:55.983Z</time></trkpt><trkpt lat="43.0527504" lon="12.5825112"><ele>212.5</ele><time>2026-04-05T11:43:56.982Z</time></trkpt><trkpt lat="43.0528268" lon="12.5821702"><ele>213.0</ele><time>2026-04-05T11:43:57.982Z</time></trkpt><trkpt lat="43.0529002" lon="12.5818222"><ele>213.0</ele><time>2026-04-05T11:43:58.983Z</time></trkpt><trkpt lat="43.0529668" lon="12.5814757"><ele>213.0</ele><time>2026-04-05T11:43:59.982Z</time></trkpt><trkpt lat="43.0530184" lon="12.5811273"><ele>211.5</ele><time>2026-04-05T11:44:00.983Z</time></trkpt><trkpt lat="43.0530568" lon="12.5807833"><ele>210.0</ele><time>2026-04-05T11:44:01.983Z</time></trkpt><trkpt lat="43.0530748" lon="12.580422"><ele>210.0</ele><time>2026-04-05T11:44:02.983Z</time></trkpt><trkpt lat="43.0530869" lon="12.5800634"><ele>210.0</ele><time>2026-04-05T11:44:03.983Z</time></trkpt><trkpt lat="43.0530844" lon="12.5797023"><ele>210.5</ele><time>2026-04-05T11:44:04.983Z</time></trkpt><trkpt lat="43.0530712" lon="12.5793364"><ele>211.0</ele><time>2026-04-05T11:44:05.983Z</time></trkpt><trkpt lat="43.053055" lon="12.5789777"><ele>210.5</ele><time>2026-04-05T11:44:06.983Z</time></trkpt><trkpt lat="43.0530367" lon="12.5786209"><ele>210.0</ele><time>2026-04-05T11:44:07.983Z</time></trkpt><trkpt lat="43.0530139" lon="12.5782618"><ele>210.0</ele><time>2026-04-05T11:44:08.982Z</time></trkpt><trkpt lat="43.0529995" lon="12.5778999"><ele>210.0</ele><time>2026-04-05T11:44:09.982Z</time></trkpt><trkpt lat="43.0529849" lon="12.5775411"><ele>209.5</ele><time>2026-04-05T11:44:10.983Z</time></trkpt><trkpt lat="43.0529665" lon="12.5771799"><ele>209.0</ele><time>2026-04-05T11:44:11.983Z</time></trkpt><trkpt lat="43.0529505" lon="12.5768216"><ele>209.0</ele><time>2026-04-05T11:44:12.982Z</time></trkpt><trkpt lat="43.0529389" lon="12.5764591"><ele>209.0</ele><time>2026-04-05T11:44:13.982Z</time></trkpt><trkpt lat="43.0529235" lon="12.5761016"><ele>209.0</ele><time>2026-04-05T11:44:14.982Z</time></trkpt><trkpt lat="43.0529076" lon="12.5757385"><ele>209.0</ele><time>2026-04-05T11:44:15.983Z</time></trkpt><trkpt lat="43.0528941" lon="12.5753803"><ele>208.5</ele><time>2026-04-05T11:44:16.983Z</time></trkpt><trkpt lat="43.0528777" lon="12.5750248"><ele>208.0</ele><time>2026-04-05T11:44:17.983Z</time></trkpt><trkpt lat="43.0528628" lon="12.5746652"><ele>208.5</ele><time>2026-04-05T11:44:18.983Z</time></trkpt><trkpt lat="43.05285" lon="12.5743109"><ele>209.0</ele><time>2026-04-05T11:44:19.983Z</time></trkpt><trkpt lat="43.0528295" lon="12.5739499"><ele>209.0</ele><time>2026-04-05T11:44:20.983Z</time></trkpt><trkpt lat="43.0528162" lon="12.5735898"><ele>209.0</ele><time>2026-04-05T11:44:21.983Z</time></trkpt><trkpt lat="43.052806" lon="12.5732263"><ele>209.0</ele><time>2026-04-05T11:44:22.983Z</time></trkpt><trkpt lat="43.0527898" lon="12.5728638"><ele>209.0</ele><time>2026-04-05T11:44:23.983Z</time></trkpt><trkpt lat="43.0527683" lon="12.5725029"><ele>208.5</ele><time>2026-04-05T11:44:24.983Z</time></trkpt><trkpt lat="43.0527617" lon="12.5721526"><ele>208.0</ele><time>2026-04-05T11:44:25.983Z</time></trkpt><trkpt lat="43.0527524" lon="12.5718024"><ele>207.0</ele><time>2026-04-05T11:44:26.983Z</time></trkpt><trkpt lat="43.0527508" lon="12.5714503"><ele>206.0</ele><time>2026-04-05T11:44:27.983Z</time></trkpt><trkpt lat="43.0527625" lon="12.5711074"><ele>205.0</ele><time>2026-04-05T11:44:28.983Z</time></trkpt><trkpt lat="43.0527889" lon="12.5707637"><ele>204.0</ele><time>2026-04-05T11:44:29.983Z</time></trkpt><trkpt lat="43.0528351" lon="12.5704222"><ele>204.5</ele><time>2026-04-05T11:44:30.983Z</time></trkpt><trkpt lat="43.0528897" lon="12.5700807"><ele>205.0</ele><time>2026-04-05T11:44:31.983Z</time></trkpt><trkpt lat="43.0529575" lon="12.5697467"><ele>205.0</ele><time>2026-04-05T11:44:32.983Z</time></trkpt><trkpt lat="43.0530396" lon="12.5694169"><ele>205.0</ele><time>2026-04-05T11:44:33.983Z</time></trkpt><trkpt lat="43.0531407" lon="12.5690864"><ele>205.0</ele><time>2026-04-05T11:44:34.982Z</time></trkpt><trkpt lat="43.0532478" lon="12.5687708"><ele>205.0</ele><time>2026-04-05T11:44:35.983Z</time></trkpt><trkpt lat="43.0533634" lon="12.5684572"><ele>205.0</ele><time>2026-04-05T11:44:36.983Z</time></trkpt><trkpt lat="43.0534889" lon="12.5681549"><ele>205.0</ele><time>2026-04-05T11:44:37.982Z</time></trkpt><trkpt lat="43.0536227" lon="12.5678424"><ele>205.0</ele><time>2026-04-05T11:44:38.983Z</time></trkpt><trkpt lat="43.0537568" lon="12.5675409"><ele>205.0</ele><time>2026-04-05T11:44:39.983Z</time></trkpt><trkpt lat="43.0538782" lon="12.567233"><ele>204.5</ele><time>2026-04-05T11:44:40.983Z</time></trkpt><trkpt lat="43.0540019" lon="12.5669298"><ele>204.0</ele><time>2026-04-05T11:44:41.982Z</time></trkpt><trkpt lat="43.0541324" lon="12.566627"><ele>203.5</ele><time>2026-04-05T11:44:42.982Z</time></trkpt><trkpt lat="43.0542623" lon="12.5663208"><ele>203.0</ele><time>2026-04-05T11:44:43.983Z</time></trkpt><trkpt lat="43.0543907" lon="12.5660192"><ele>204.0</ele><time>2026-04-05T11:44:44.982Z</time></trkpt><trkpt lat="43.0545166" lon="12.5657156"><ele>205.0</ele><time>2026-04-05T11:44:45.983Z</time></trkpt><trkpt lat="43.0546462" lon="12.5654152"><ele>205.0</ele><time>2026-04-05T11:44:46.982Z</time></trkpt><trkpt lat="43.0547723" lon="12.5651097"><ele>205.0</ele><time>2026-04-05T11:44:47.983Z</time></trkpt><trkpt lat="43.0549046" lon="12.5647994"><ele>204.5</ele><time>2026-04-05T11:44:48.983Z</time></trkpt><trkpt lat="43.0550341" lon="12.5644951"><ele>204.0</ele><time>2026-04-05T11:44:49.982Z</time></trkpt><trkpt lat="43.05516" lon="12.564191"><ele>204.0</ele><time>2026-04-05T11:44:50.983Z</time></trkpt><trkpt lat="43.0552923" lon="12.5638742"><ele>204.0</ele><time>2026-04-05T11:44:51.983Z</time></trkpt><trkpt lat="43.0554207" lon="12.5635542"><ele>204.0</ele><time>2026-04-05T11:44:52.983Z</time></trkpt><trkpt lat="43.0555472" lon="12.5632376"><ele>204.0</ele><time>2026-04-05T11:44:53.982Z</time></trkpt><trkpt lat="43.0556843" lon="12.5629221"><ele>203.0</ele><time>2026-04-05T11:44:54.983Z</time></trkpt><trkpt lat="43.0558209" lon="12.562613"><ele>202.0</ele><time>2026-04-05T11:44:55.983Z</time></trkpt><trkpt lat="43.0559508" lon="12.5622997"><ele>202.5</ele><time>2026-04-05T11:44:56.983Z</time></trkpt><trkpt lat="43.0560833" lon="12.5619915"><ele>203.0</ele><time>2026-04-05T11:44:57.982Z</time></trkpt><trkpt lat="43.0562092" lon="12.5616808"><ele>203.0</ele><time>2026-04-05T11:44:58.983Z</time></trkpt><trkpt lat="43.0563404" lon="12.5613741"><ele>203.0</ele><time>2026-04-05T11:44:59.982Z</time></trkpt><trkpt lat="43.0564702" lon="12.5610641"><ele>203.0</ele><time>2026-04-05T11:45:00.983Z</time></trkpt><trkpt lat="43.056596" lon="12.5607548"><ele>203.0</ele><time>2026-04-05T11:45:01.982Z</time></trkpt><trkpt lat="43.0567254" lon="12.5604405"><ele>203.5</ele><time>2026-04-05T11:45:02.983Z</time></trkpt><trkpt lat="43.0568574" lon="12.5601291"><ele>204.0</ele><time>2026-04-05T11:45:03.983Z</time></trkpt><trkpt lat="43.0569869" lon="12.5598096"><ele>203.0</ele><time>2026-04-05T11:45:04.983Z</time></trkpt><trkpt lat="43.0571146" lon="12.5594936"><ele>202.0</ele><time>2026-04-05T11:45:05.982Z</time></trkpt><trkpt lat="43.0572393" lon="12.5591765"><ele>202.0</ele><time>2026-04-05T11:45:06.982Z</time></trkpt><trkpt lat="43.0573677" lon="12.55886"><ele>202.0</ele><time>2026-04-05T11:45:07.982Z</time></trkpt><trkpt lat="43.0574959" lon="12.5585386"><ele>202.0</ele><time>2026-04-05T11:45:08.982Z</time></trkpt><trkpt lat="43.0576193" lon="12.5582187"><ele>202.0</ele><time>2026-04-05T11:45:09.983Z</time></trkpt><trkpt lat="43.0577394" lon="12.557901"><ele>202.0</ele><time>2026-04-05T11:45:10.982Z</time></trkpt><trkpt lat="43.0578679" lon="12.5575805"><ele>202.0</ele><time>2026-04-05T11:45:11.983Z</time></trkpt><trkpt lat="43.0579886" lon="12.5572621"><ele>201.5</ele><time>2026-04-05T11:45:12.983Z</time></trkpt><trkpt lat="43.0581068" lon="12.5569395"><ele>201.0</ele><time>2026-04-05T11:45:13.983Z</time></trkpt><trkpt lat="43.0582303" lon="12.5566163"><ele>201.0</ele><time>2026-04-05T11:45:14.982Z</time></trkpt><trkpt lat="43.0583525" lon="12.5562927"><ele>201.0</ele><time>2026-04-05T11:45:15.983Z</time></trkpt><trkpt lat="43.0584699" lon="12.5559682"><ele>201.0</ele><time>2026-04-05T11:45:16.982Z</time></trkpt><trkpt lat="43.0585935" lon="12.555644"><ele>201.0</ele><time>2026-04-05T11:45:17.983Z</time></trkpt><trkpt lat="43.0587167" lon="12.5553149"><ele>200.5</ele><time>2026-04-05T11:45:18.982Z</time></trkpt><trkpt lat="43.0588405" lon="12.5549872"><ele>200.0</ele><time>2026-04-05T11:45:19.983Z</time></trkpt><trkpt lat="43.0589659" lon="12.5546574"><ele>200.0</ele><time>2026-04-05T11:45:20.983Z</time></trkpt><trkpt lat="43.0590941" lon="12.5543298"><ele>200.0</ele><time>2026-04-05T11:45:21.982Z</time></trkpt><trkpt lat="43.0592207" lon="12.5540054"><ele>199.0</ele><time>2026-04-05T11:45:22.983Z</time></trkpt><trkpt lat="43.0593421" lon="12.5536829"><ele>198.0</ele><time>2026-04-05T11:45:23.982Z</time></trkpt><trkpt lat="43.0594621" lon="12.5533547"><ele>198.0</ele><time>2026-04-05T11:45:24.983Z</time></trkpt><trkpt lat="43.0595807" lon="12.5530364"><ele>198.0</ele><time>2026-04-05T11:45:25.983Z</time></trkpt><trkpt lat="43.0597021" lon="12.5527183"><ele>198.0</ele><time>2026-04-05T11:45:26.983Z</time></trkpt><trkpt lat="43.0598235" lon="12.5523968"><ele>198.0</ele><time>2026-04-05T11:45:27.982Z</time></trkpt><trkpt lat="43.0599415" lon="12.5520704"><ele>198.5</ele><time>2026-04-05T11:45:28.983Z</time></trkpt><trkpt lat="43.0600651" lon="12.5517525"><ele>199.0</ele><time>2026-04-05T11:45:29.983Z</time></trkpt><trkpt lat="43.0601891" lon="12.5514332"><ele>198.0</ele><time>2026-04-05T11:45:30.983Z</time></trkpt><trkpt lat="43.0603118" lon="12.5511132"><ele>197.0</ele><time>2026-04-05T11:45:31.982Z</time></trkpt><trkpt lat="43.0604361" lon="12.5507971"><ele>197.0</ele><time>2026-04-05T11:45:32.982Z</time></trkpt><trkpt lat="43.0605587" lon="12.5504771"><ele>197.0</ele><time>2026-04-05T11:45:33.983Z</time></trkpt><trkpt lat="43.0606806" lon="12.5501622"><ele>198.0</ele><time>2026-04-05T11:45:34.983Z</time></trkpt><trkpt lat="43.06081" lon="12.5498401"><ele>199.0</ele><time>2026-04-05T11:45:35.983Z</time></trkpt><trkpt lat="43.0609349" lon="12.5495224"><ele>199.5</ele><time>2026-04-05T11:45:36.982Z</time></trkpt><trkpt lat="43.0610615" lon="12.5492077"><ele>200.0</ele><time>2026-04-05T11:45:37.982Z</time></trkpt><trkpt lat="43.0611881" lon="12.5488951"><ele>198.5</ele><time>2026-04-05T11:45:38.983Z</time></trkpt><trkpt lat="43.0613207" lon="12.5485858"><ele>197.0</ele><time>2026-04-05T11:45:39.983Z</time></trkpt><trkpt lat="43.0614541" lon="12.5482753"><ele>197.0</ele><time>2026-04-05T11:45:40.983Z</time></trkpt><trkpt lat="43.0615941" lon="12.5479758"><ele>197.0</ele><time>2026-04-05T11:45:41.983Z</time></trkpt><trkpt lat="43.0617336" lon="12.5476728"><ele>195.5</ele><time>2026-04-05T11:45:42.982Z</time></trkpt><trkpt lat="43.061872" lon="12.5473763"><ele>194.0</ele><time>2026-04-05T11:45:43.982Z</time></trkpt><trkpt lat="43.0620099" lon="12.5470721"><ele>192.0</ele><time>2026-04-05T11:45:44.983Z</time></trkpt><trkpt lat="43.0621464" lon="12.5467616"><ele>190.0</ele><time>2026-04-05T11:45:45.983Z</time></trkpt><trkpt lat="43.062281" lon="12.5464511"><ele>191.5</ele><time>2026-04-05T11:45:46.983Z</time></trkpt><trkpt lat="43.0624193" lon="12.546143"><ele>193.0</ele><time>2026-04-05T11:45:47.983Z</time></trkpt><trkpt lat="43.0625599" lon="12.5458327"><ele>193.0</ele><time>2026-04-05T11:45:48.983Z</time></trkpt><trkpt lat="43.0627002" lon="12.5455248"><ele>193.0</ele><time>2026-04-05T11:45:49.982Z</time></trkpt><trkpt lat="43.062846" lon="12.5452161"><ele>193.0</ele><time>2026-04-05T11:45:50.983Z</time></trkpt><trkpt lat="43.0629889" lon="12.5449078"><ele>193.0</ele><time>2026-04-05T11:45:51.982Z</time></trkpt><trkpt lat="43.063131" lon="12.5446045"><ele>193.0</ele><time>2026-04-05T11:45:52.983Z</time></trkpt><trkpt lat="43.0632663" lon="12.5442962"><ele>193.0</ele><time>2026-04-05T11:45:53.982Z</time></trkpt><trkpt lat="43.0634123" lon="12.5439833"><ele>191.5</ele><time>2026-04-05T11:45:54.983Z</time></trkpt><trkpt lat="43.0635505" lon="12.5436736"><ele>190.0</ele><time>2026-04-05T11:45:55.983Z</time></trkpt><trkpt lat="43.0636869" lon="12.5433612"><ele>190.0</ele><time>2026-04-05T11:45:56.983Z</time></trkpt><trkpt lat="43.0638233" lon="12.5430491"><ele>190.0</ele><time>2026-04-05T11:45:57.983Z</time></trkpt><trkpt lat="43.0639628" lon="12.5427375"><ele>189.5</ele><time>2026-04-05T11:45:58.983Z</time></trkpt><trkpt lat="43.0641007" lon="12.5424235"><ele>189.0</ele><time>2026-04-05T11:45:59.983Z</time></trkpt><trkpt lat="43.0642389" lon="12.5421059"><ele>191.0</ele><time>2026-04-05T11:46:00.983Z</time></trkpt><trkpt lat="43.0643766" lon="12.5417921"><ele>193.0</ele><time>2026-04-05T11:46:01.982Z</time></trkpt><trkpt lat="43.0645135" lon="12.5414735"><ele>194.0</ele><time>2026-04-05T11:46:02.983Z</time></trkpt><trkpt lat="43.0646504" lon="12.5411549"><ele>195.0</ele><time>2026-04-05T11:46:03.983Z</time></trkpt><trkpt lat="43.0647862" lon="12.5408372"><ele>195.0</ele><time>2026-04-05T11:46:04.983Z</time></trkpt><trkpt lat="43.0649279" lon="12.5405196"><ele>195.0</ele><time>2026-04-05T11:46:05.983Z</time></trkpt><trkpt lat="43.0650739" lon="12.5402122"><ele>195.0</ele><time>2026-04-05T11:46:06.983Z</time></trkpt><trkpt lat="43.0652142" lon="12.5399065"><ele>195.0</ele><time>2026-04-05T11:46:07.983Z</time></trkpt><trkpt lat="43.0653528" lon="12.539603"><ele>194.0</ele><time>2026-04-05T11:46:08.982Z</time></trkpt><trkpt lat="43.0654899" lon="12.5393015"><ele>193.0</ele><time>2026-04-05T11:46:09.983Z</time></trkpt><trkpt lat="43.0656231" lon="12.5389995"><ele>193.5</ele><time>2026-04-05T11:46:10.983Z</time></trkpt><trkpt lat="43.065755" lon="12.5386935"><ele>194.0</ele><time>2026-04-05T11:46:11.983Z</time></trkpt><trkpt lat="43.0658904" lon="12.5383999"><ele>194.5</ele><time>2026-04-05T11:46:12.983Z</time></trkpt><trkpt lat="43.066029" lon="12.5381005"><ele>195.0</ele><time>2026-04-05T11:46:13.983Z</time></trkpt><trkpt lat="43.0661625" lon="12.5378076"><ele>195.0</ele><time>2026-04-05T11:46:14.983Z</time></trkpt><trkpt lat="43.0662962" lon="12.5375138"><ele>195.0</ele><time>2026-04-05T11:46:15.983Z</time></trkpt><trkpt lat="43.0664258" lon="12.537219"><ele>195.5</ele><time>2026-04-05T11:46:16.982Z</time></trkpt><trkpt lat="43.066554" lon="12.5369236"><ele>196.0</ele><time>2026-04-05T11:46:17.983Z</time></trkpt><trkpt lat="43.0666844" lon="12.5366363"><ele>196.0</ele><time>2026-04-05T11:46:18.982Z</time></trkpt><trkpt lat="43.0668133" lon="12.5363519"><ele>196.0</ele><time>2026-04-05T11:46:19.983Z</time></trkpt><trkpt lat="43.0669437" lon="12.5360576"><ele>196.0</ele><time>2026-04-05T11:46:20.983Z</time></trkpt><trkpt lat="43.0670792" lon="12.5357688"><ele>196.0</ele><time>2026-04-05T11:46:21.983Z</time></trkpt><trkpt lat="43.0672162" lon="12.5354824"><ele>196.5</ele><time>2026-04-05T11:46:22.983Z</time></trkpt><trkpt lat="43.0673468" lon="12.5352044"><ele>197.0</ele><time>2026-04-05T11:46:23.983Z</time></trkpt><trkpt lat="43.0674787" lon="12.5349216"><ele>197.5</ele><time>2026-04-05T11:46:24.983Z</time></trkpt><trkpt lat="43.0676104" lon="12.5346414"><ele>198.0</ele><time>2026-04-05T11:46:25.982Z</time></trkpt><trkpt lat="43.0677511" lon="12.5343475"><ele>198.5</ele><time>2026-04-05T11:46:26.982Z</time></trkpt><trkpt lat="43.0678832" lon="12.5340587"><ele>199.0</ele><time>2026-04-05T11:46:27.982Z</time></trkpt><trkpt lat="43.0680141" lon="12.5337736"><ele>199.0</ele><time>2026-04-05T11:46:28.983Z</time></trkpt><trkpt lat="43.0681393" lon="12.5334843"><ele>199.0</ele><time>2026-04-05T11:46:29.983Z</time></trkpt><trkpt lat="43.068268" lon="12.5331954"><ele>197.5</ele><time>2026-04-05T11:46:30.983Z</time></trkpt><trkpt lat="43.0683982" lon="12.5329117"><ele>196.0</ele><time>2026-04-05T11:46:31.983Z</time></trkpt><trkpt lat="43.0685291" lon="12.5326277"><ele>195.5</ele><time>2026-04-05T11:46:32.983Z</time></trkpt><trkpt lat="43.0686582" lon="12.5323486"><ele>195.0</ele><time>2026-04-05T11:46:33.983Z</time></trkpt><trkpt lat="43.068786" lon="12.5320621"><ele>196.0</ele><time>2026-04-05T11:46:34.983Z</time></trkpt><trkpt lat="43.068915" lon="12.5317755"><ele>197.0</ele><time>2026-04-05T11:46:35.982Z</time></trkpt><trkpt lat="43.0690419" lon="12.531484"><ele>197.0</ele><time>2026-04-05T11:46:36.982Z</time></trkpt><trkpt lat="43.0691687" lon="12.5311934"><ele>197.0</ele><time>2026-04-05T11:46:37.982Z</time></trkpt><trkpt lat="43.0692954" lon="12.5309072"><ele>197.0</ele><time>2026-04-05T11:46:38.982Z</time></trkpt><trkpt lat="43.0694244" lon="12.5306207"><ele>197.0</ele><time>2026-04-05T11:46:39.983Z</time></trkpt><trkpt lat="43.06955" lon="12.5303393"><ele>197.0</ele><time>2026-04-05T11:46:40.982Z</time></trkpt><trkpt lat="43.0696845" lon="12.5300496"><ele>197.0</ele><time>2026-04-05T11:46:41.983Z</time></trkpt><trkpt lat="43.0698117" lon="12.5297647"><ele>198.0</ele><time>2026-04-05T11:46:42.983Z</time></trkpt><trkpt lat="43.0699442" lon="12.529477"><ele>199.0</ele><time>2026-04-05T11:46:43.982Z</time></trkpt><trkpt lat="43.070078" lon="12.5291894"><ele>199.0</ele><time>2026-04-05T11:46:44.983Z</time></trkpt><trkpt lat="43.0702069" lon="12.5288994"><ele>199.0</ele><time>2026-04-05T11:46:45.983Z</time></trkpt><trkpt lat="43.0703387" lon="12.5286092"><ele>198.5</ele><time>2026-04-05T11:46:46.983Z</time></trkpt><trkpt lat="43.0704641" lon="12.5283238"><ele>198.0</ele><time>2026-04-05T11:46:47.983Z</time></trkpt><trkpt lat="43.0705942" lon="12.5280394"><ele>197.0</ele><time>2026-04-05T11:46:48.983Z</time></trkpt><trkpt lat="43.0707217" lon="12.5277579"><ele>196.0</ele><time>2026-04-05T11:46:49.983Z</time></trkpt><trkpt lat="43.0708484" lon="12.5274758"><ele>196.0</ele><time>2026-04-05T11:46:50.983Z</time></trkpt><trkpt lat="43.0709696" lon="12.5271907"><ele>196.0</ele><time>2026-04-05T11:46:51.982Z</time></trkpt><trkpt lat="43.0710862" lon="12.5268945"><ele>196.0</ele><time>2026-04-05T11:46:52.983Z</time></trkpt><trkpt lat="43.0711911" lon="12.5265953"><ele>196.0</ele><time>2026-04-05T11:46:53.983Z</time></trkpt><trkpt lat="43.0712912" lon="12.5262984"><ele>195.5</ele><time>2026-04-05T11:46:54.982Z</time></trkpt><trkpt lat="43.0713839" lon="12.5260001"><ele>195.0</ele><time>2026-04-05T11:46:55.982Z</time></trkpt><trkpt lat="43.0714733" lon="12.5256949"><ele>196.0</ele><time>2026-04-05T11:46:56.983Z</time></trkpt><trkpt lat="43.0715551" lon="12.5253854"><ele>197.0</ele><time>2026-04-05T11:46:57.983Z</time></trkpt><trkpt lat="43.0716322" lon="12.5250709"><ele>197.5</ele><time>2026-04-05T11:46:58.983Z</time></trkpt><trkpt lat="43.0717014" lon="12.5247433"><ele>198.0</ele><time>2026-04-05T11:46:59.983Z</time></trkpt><trkpt lat="43.0717641" lon="12.5244258"><ele>198.5</ele><time>2026-04-05T11:47:00.982Z</time></trkpt><trkpt lat="43.0718249" lon="12.5241076"><ele>199.0</ele><time>2026-04-05T11:47:01.983Z</time></trkpt><trkpt lat="43.071886" lon="12.5237845"><ele>198.5</ele><time>2026-04-05T11:47:02.983Z</time></trkpt><trkpt lat="43.071946" lon="12.5234538"><ele>198.0</ele><time>2026-04-05T11:47:03.983Z</time></trkpt><trkpt lat="43.0720035" lon="12.5231323"><ele>197.0</ele><time>2026-04-05T11:47:04.983Z</time></trkpt><trkpt lat="43.0720705" lon="12.5227971"><ele>196.0</ele><time>2026-04-05T11:47:05.982Z</time></trkpt><trkpt lat="43.0721347" lon="12.5224705"><ele>196.0</ele><time>2026-04-05T11:47:06.983Z</time></trkpt><trkpt lat="43.0722003" lon="12.522147"><ele>196.0</ele><time>2026-04-05T11:47:07.983Z</time></trkpt><trkpt lat="43.0722577" lon="12.5218221"><ele>195.0</ele><time>2026-04-05T11:47:08.982Z</time></trkpt><trkpt lat="43.0723163" lon="12.5214949"><ele>194.0</ele><time>2026-04-05T11:47:09.983Z</time></trkpt><trkpt lat="43.0723717" lon="12.5211699"><ele>194.0</ele><time>2026-04-05T11:47:10.983Z</time></trkpt><trkpt lat="43.0724287" lon="12.5208556"><ele>194.0</ele><time>2026-04-05T11:47:11.983Z</time></trkpt><trkpt lat="43.0724853" lon="12.5205247"><ele>196.0</ele><time>2026-04-05T11:47:12.983Z</time></trkpt><trkpt lat="43.0725434" lon="12.5201994"><ele>198.0</ele><time>2026-04-05T11:47:13.982Z</time></trkpt><trkpt lat="43.0726017" lon="12.5198721"><ele>197.5</ele><time>2026-04-05T11:47:14.983Z</time></trkpt><trkpt lat="43.0726621" lon="12.5195482"><ele>197.0</ele><time>2026-04-05T11:47:15.983Z</time></trkpt><trkpt lat="43.0727241" lon="12.5192372"><ele>197.0</ele><time>2026-04-05T11:47:16.983Z</time></trkpt><trkpt lat="43.0727879" lon="12.5189156"><ele>197.0</ele><time>2026-04-05T11:47:17.983Z</time></trkpt><trkpt lat="43.0728472" lon="12.5185931"><ele>197.0</ele><time>2026-04-05T11:47:18.983Z</time></trkpt><trkpt lat="43.0729063" lon="12.5182738"><ele>197.0</ele><time>2026-04-05T11:47:19.983Z</time></trkpt><trkpt lat="43.0729594" lon="12.5179461"><ele>196.5</ele><time>2026-04-05T11:47:20.983Z</time></trkpt><trkpt lat="43.0730182" lon="12.5176274"><ele>196.0</ele><time>2026-04-05T11:47:21.983Z</time></trkpt><trkpt lat="43.0730768" lon="12.5173062"><ele>195.5</ele><time>2026-04-05T11:47:22.983Z</time></trkpt><trkpt lat="43.0731347" lon="12.5169875"><ele>195.0</ele><time>2026-04-05T11:47:23.983Z</time></trkpt><trkpt lat="43.0731944" lon="12.5166713"><ele>195.0</ele><time>2026-04-05T11:47:24.983Z</time></trkpt><trkpt lat="43.0732565" lon="12.5163475"><ele>195.0</ele><time>2026-04-05T11:47:25.983Z</time></trkpt><trkpt lat="43.0733171" lon="12.5160285"><ele>196.0</ele><time>2026-04-05T11:47:26.983Z</time></trkpt><trkpt lat="43.07338" lon="12.5157068"><ele>197.0</ele><time>2026-04-05T11:47:27.982Z</time></trkpt><trkpt lat="43.0734386" lon="12.5153808"><ele>197.0</ele><time>2026-04-05T11:47:28.983Z</time></trkpt><trkpt lat="43.0734964" lon="12.5150662"><ele>197.0</ele><time>2026-04-05T11:47:29.983Z</time></trkpt><trkpt lat="43.073556" lon="12.5147497"><ele>196.0</ele><time>2026-04-05T11:47:30.983Z</time></trkpt><trkpt lat="43.0736167" lon="12.5144274"><ele>195.0</ele><time>2026-04-05T11:47:31.983Z</time></trkpt><trkpt lat="43.0736735" lon="12.5141013"><ele>195.0</ele><time>2026-04-05T11:47:32.983Z</time></trkpt><trkpt lat="43.0737316" lon="12.5137774"><ele>195.0</ele><time>2026-04-05T11:47:33.983Z</time></trkpt><trkpt lat="43.0737934" lon="12.5134575"><ele>194.5</ele><time>2026-04-05T11:47:34.982Z</time></trkpt><trkpt lat="43.0738542" lon="12.5131344"><ele>194.0</ele><time>2026-04-05T11:47:35.983Z</time></trkpt><trkpt lat="43.0739121" lon="12.5128131"><ele>194.0</ele><time>2026-04-05T11:47:36.983Z</time></trkpt><trkpt lat="43.0739734" lon="12.512492"><ele>194.0</ele><time>2026-04-05T11:47:37.983Z</time></trkpt><trkpt lat="43.0740347" lon="12.5121701"><ele>194.0</ele><time>2026-04-05T11:47:38.982Z</time></trkpt><trkpt lat="43.0740889" lon="12.5118516"><ele>194.0</ele><time>2026-04-05T11:47:39.983Z</time></trkpt><trkpt lat="43.0741423" lon="12.5115292"><ele>195.0</ele><time>2026-04-05T11:47:40.983Z</time></trkpt><trkpt lat="43.0741978" lon="12.511205"><ele>196.0</ele><time>2026-04-05T11:47:41.983Z</time></trkpt><trkpt lat="43.0742583" lon="12.5108834"><ele>196.0</ele><time>2026-04-05T11:47:42.983Z</time></trkpt><trkpt lat="43.0743187" lon="12.510566"><ele>196.0</ele><time>2026-04-05T11:47:43.983Z</time></trkpt><trkpt lat="43.0743775" lon="12.5102469"><ele>196.0</ele><time>2026-04-05T11:47:44.983Z</time></trkpt><trkpt lat="43.074439" lon="12.5099299"><ele>196.0</ele><time>2026-04-05T11:47:45.983Z</time></trkpt><trkpt lat="43.0745024" lon="12.5096163"><ele>196.0</ele><time>2026-04-05T11:47:46.983Z</time></trkpt><trkpt lat="43.0745527" lon="12.5092903"><ele>196.0</ele><time>2026-04-05T11:47:47.982Z</time></trkpt><trkpt lat="43.0746117" lon="12.5089716"><ele>196.0</ele><time>2026-04-05T11:47:48.983Z</time></trkpt><trkpt lat="43.0746688" lon="12.5086558"><ele>196.0</ele><time>2026-04-05T11:47:49.982Z</time></trkpt><trkpt lat="43.0747268" lon="12.5083398"><ele>196.0</ele><time>2026-04-05T11:47:50.983Z</time></trkpt><trkpt lat="43.0747944" lon="12.508018"><ele>196.0</ele><time>2026-04-05T11:47:51.983Z</time></trkpt><trkpt lat="43.0748537" lon="12.5077019"><ele>196.5</ele><time>2026-04-05T11:47:52.983Z</time></trkpt><trkpt lat="43.074918" lon="12.5073861"><ele>197.0</ele><time>2026-04-05T11:47:53.983Z</time></trkpt><trkpt lat="43.0749783" lon="12.5070701"><ele>196.0</ele><time>2026-04-05T11:47:54.983Z</time></trkpt><trkpt lat="43.0750459" lon="12.5067461"><ele>195.0</ele><time>2026-04-05T11:47:55.983Z</time></trkpt><trkpt lat="43.0751133" lon="12.5064308"><ele>195.5</ele><time>2026-04-05T11:47:56.982Z</time></trkpt><trkpt lat="43.075191" lon="12.5061219"><ele>196.0</ele><time>2026-04-05T11:47:57.983Z</time></trkpt><trkpt lat="43.0752832" lon="12.5058186"><ele>196.0</ele><time>2026-04-05T11:47:58.983Z</time></trkpt><trkpt lat="43.0753912" lon="12.5055197"><ele>196.0</ele><time>2026-04-05T11:47:59.983Z</time></trkpt><trkpt lat="43.0755012" lon="12.5052206"><ele>196.0</ele><time>2026-04-05T11:48:00.983Z</time></trkpt><trkpt lat="43.07563" lon="12.5049433"><ele>196.0</ele><time>2026-04-05T11:48:01.982Z</time></trkpt><trkpt lat="43.0757724" lon="12.5046733"><ele>196.0</ele><time>2026-04-05T11:48:02.982Z</time></trkpt><trkpt lat="43.075926" lon="12.5044006"><ele>196.0</ele><time>2026-04-05T11:48:03.983Z</time></trkpt><trkpt lat="43.0760848" lon="12.5041429"><ele>196.0</ele><time>2026-04-05T11:48:04.983Z</time></trkpt><trkpt lat="43.0762467" lon="12.5038916"><ele>196.0</ele><time>2026-04-05T11:48:05.983Z</time></trkpt><trkpt lat="43.0764177" lon="12.5036505"><ele>197.0</ele><time>2026-04-05T11:48:06.983Z</time></trkpt><trkpt lat="43.0765876" lon="12.5034124"><ele>198.0</ele><time>2026-04-05T11:48:07.983Z</time></trkpt><trkpt lat="43.076765" lon="12.5031729"><ele>198.0</ele><time>2026-04-05T11:48:08.983Z</time></trkpt><trkpt lat="43.0769396" lon="12.502934"><ele>198.0</ele><time>2026-04-05T11:48:09.983Z</time></trkpt><trkpt lat="43.0771125" lon="12.5026922"><ele>198.0</ele><time>2026-04-05T11:48:10.983Z</time></trkpt><trkpt lat="43.0772867" lon="12.5024507"><ele>198.0</ele><time>2026-04-05T11:48:11.983Z</time></trkpt><trkpt lat="43.0774539" lon="12.5022067"><ele>197.5</ele><time>2026-04-05T11:48:12.983Z</time></trkpt><trkpt lat="43.0776265" lon="12.5019669"><ele>197.0</ele><time>2026-04-05T11:48:13.983Z</time></trkpt><trkpt lat="43.0778024" lon="12.5017276"><ele>197.0</ele><time>2026-04-05T11:48:14.983Z</time></trkpt><trkpt lat="43.0779695" lon="12.5014861"><ele>197.0</ele><time>2026-04-05T11:48:15.983Z</time></trkpt><trkpt lat="43.0781356" lon="12.5012533"><ele>198.0</ele><time>2026-04-05T11:48:16.982Z</time></trkpt><trkpt lat="43.0783059" lon="12.5010187"><ele>199.0</ele><time>2026-04-05T11:48:17.982Z</time></trkpt><trkpt lat="43.0784713" lon="12.5007791"><ele>199.0</ele><time>2026-04-05T11:48:18.983Z</time></trkpt><trkpt lat="43.0786381" lon="12.5005424"><ele>199.0</ele><time>2026-04-05T11:48:19.983Z</time></trkpt><trkpt lat="43.0788113" lon="12.5003086"><ele>199.0</ele><time>2026-04-05T11:48:20.983Z</time></trkpt><trkpt lat="43.0789733" lon="12.500071"><ele>199.0</ele><time>2026-04-05T11:48:21.983Z</time></trkpt><trkpt lat="43.0791434" lon="12.4998356"><ele>198.5</ele><time>2026-04-05T11:48:22.983Z</time></trkpt><trkpt lat="43.0793123" lon="12.4995996"><ele>198.0</ele><time>2026-04-05T11:48:23.983Z</time></trkpt><trkpt lat="43.0794805" lon="12.4993662"><ele>198.0</ele><time>2026-04-05T11:48:24.983Z</time></trkpt><trkpt lat="43.0796484" lon="12.4991244"><ele>198.0</ele><time>2026-04-05T11:48:25.983Z</time></trkpt><trkpt lat="43.0798122" lon="12.4988944"><ele>197.0</ele><time>2026-04-05T11:48:26.982Z</time></trkpt><trkpt lat="43.0799727" lon="12.4986576"><ele>196.0</ele><time>2026-04-05T11:48:27.983Z</time></trkpt><trkpt lat="43.0801233" lon="12.4984096"><ele>196.0</ele><time>2026-04-05T11:48:28.982Z</time></trkpt><trkpt lat="43.0802713" lon="12.4981532"><ele>196.0</ele><time>2026-04-05T11:48:29.982Z</time></trkpt><trkpt lat="43.0804027" lon="12.497878"><ele>196.5</ele><time>2026-04-05T11:48:30.982Z</time></trkpt><trkpt lat="43.0805315" lon="12.4976018"><ele>197.0</ele><time>2026-04-05T11:48:31.983Z</time></trkpt><trkpt lat="43.0806465" lon="12.4973136"><ele>197.0</ele><time>2026-04-05T11:48:32.982Z</time></trkpt><trkpt lat="43.0807536" lon="12.4970183"><ele>197.0</ele><time>2026-04-05T11:48:33.983Z</time></trkpt><trkpt lat="43.0808505" lon="12.4967132"><ele>197.0</ele><time>2026-04-05T11:48:34.983Z</time></trkpt><trkpt lat="43.0809343" lon="12.4964028"><ele>197.0</ele><time>2026-04-05T11:48:35.983Z</time></trkpt><trkpt lat="43.0810062" lon="12.4960785"><ele>196.5</ele><time>2026-04-05T11:48:36.983Z</time></trkpt><trkpt lat="43.0810714" lon="12.495758"><ele>196.0</ele><time>2026-04-05T11:48:37.983Z</time></trkpt><trkpt lat="43.0811365" lon="12.4954368"><ele>195.5</ele><time>2026-04-05T11:48:38.983Z</time></trkpt><trkpt lat="43.0812009" lon="12.4951144"><ele>195.0</ele><time>2026-04-05T11:48:39.982Z</time></trkpt><trkpt lat="43.0812628" lon="12.4947917"><ele>194.5</ele><time>2026-04-05T11:48:40.982Z</time></trkpt><trkpt lat="43.0813249" lon="12.4944645"><ele>194.0</ele><time>2026-04-05T11:48:41.982Z</time></trkpt><trkpt lat="43.0813841" lon="12.4941368"><ele>194.0</ele><time>2026-04-05T11:48:42.983Z</time></trkpt><trkpt lat="43.0814405" lon="12.4938022"><ele>194.0</ele><time>2026-04-05T11:48:43.982Z</time></trkpt><trkpt lat="43.0814943" lon="12.4934655"><ele>194.0</ele><time>2026-04-05T11:48:44.982Z</time></trkpt><trkpt lat="43.0815521" lon="12.493132"><ele>194.0</ele><time>2026-04-05T11:48:45.982Z</time></trkpt><trkpt lat="43.081609" lon="12.4928056"><ele>194.5</ele><time>2026-04-05T11:48:46.983Z</time></trkpt><trkpt lat="43.0816666" lon="12.4924773"><ele>195.0</ele><time>2026-04-05T11:48:47.982Z</time></trkpt><trkpt lat="43.0817312" lon="12.4921432"><ele>195.0</ele><time>2026-04-05T11:48:48.983Z</time></trkpt><trkpt lat="43.081786" lon="12.4918201"><ele>195.0</ele><time>2026-04-05T11:48:49.983Z</time></trkpt><trkpt lat="43.0818456" lon="12.4915025"><ele>196.0</ele><time>2026-04-05T11:48:50.983Z</time></trkpt><trkpt lat="43.0819066" lon="12.4911795"><ele>197.0</ele><time>2026-04-05T11:48:51.983Z</time></trkpt><trkpt lat="43.0819786" lon="12.4908635"><ele>197.0</ele><time>2026-04-05T11:48:52.982Z</time></trkpt><trkpt lat="43.0820593" lon="12.4905493"><ele>197.0</ele><time>2026-04-05T11:48:53.983Z</time></trkpt><trkpt lat="43.0821601" lon="12.4902392"><ele>197.0</ele><time>2026-04-05T11:48:54.983Z</time></trkpt><trkpt lat="43.0822685" lon="12.4899263"><ele>197.0</ele><time>2026-04-05T11:48:55.982Z</time></trkpt><trkpt lat="43.0823854" lon="12.489627"><ele>197.5</ele><time>2026-04-05T11:48:56.982Z</time></trkpt><trkpt lat="43.0825161" lon="12.4893497"><ele>198.0</ele><time>2026-04-05T11:48:57.982Z</time></trkpt><trkpt lat="43.0826598" lon="12.489073"><ele>198.0</ele><time>2026-04-05T11:48:58.983Z</time></trkpt><trkpt lat="43.0828195" lon="12.4888122"><ele>198.0</ele><time>2026-04-05T11:48:59.983Z</time></trkpt><trkpt lat="43.0829812" lon="12.4885608"><ele>198.5</ele><time>2026-04-05T11:49:00.983Z</time></trkpt><trkpt lat="43.0831478" lon="12.4883162"><ele>199.0</ele><time>2026-04-05T11:49:01.983Z</time></trkpt><trkpt lat="43.0833118" lon="12.4880748"><ele>199.0</ele><time>2026-04-05T11:49:02.983Z</time></trkpt><trkpt lat="43.0834693" lon="12.4878237"><ele>199.0</ele><time>2026-04-05T11:49:03.982Z</time></trkpt><trkpt lat="43.0836297" lon="12.4875837"><ele>199.0</ele><time>2026-04-05T11:49:04.983Z</time></trkpt><trkpt lat="43.0837872" lon="12.4873482"><ele>199.0</ele><time>2026-04-05T11:49:05.983Z</time></trkpt><trkpt lat="43.083943" lon="12.4871028"><ele>199.0</ele><time>2026-04-05T11:49:06.982Z</time></trkpt><trkpt lat="43.0840934" lon="12.486849"><ele>199.0</ele><time>2026-04-05T11:49:07.982Z</time></trkpt><trkpt lat="43.0842524" lon="12.4865999"><ele>199.0</ele><time>2026-04-05T11:49:08.983Z</time></trkpt><trkpt lat="43.0844168" lon="12.4863596"><ele>199.0</ele><time>2026-04-05T11:49:09.983Z</time></trkpt><trkpt lat="43.0845804" lon="12.4861207"><ele>200.0</ele><time>2026-04-05T11:49:10.982Z</time></trkpt><trkpt lat="43.0847424" lon="12.4858812"><ele>201.0</ele><time>2026-04-05T11:49:11.982Z</time></trkpt><trkpt lat="43.0848983" lon="12.4856429"><ele>201.5</ele><time>2026-04-05T11:49:12.983Z</time></trkpt><trkpt lat="43.0850616" lon="12.4854008"><ele>202.0</ele><time>2026-04-05T11:49:13.983Z</time></trkpt><trkpt lat="43.0852242" lon="12.485151"><ele>202.0</ele><time>2026-04-05T11:49:14.983Z</time></trkpt><trkpt lat="43.0853796" lon="12.4849041"><ele>202.0</ele><time>2026-04-05T11:49:15.983Z</time></trkpt><trkpt lat="43.0855367" lon="12.484665"><ele>202.0</ele><time>2026-04-05T11:49:16.983Z</time></trkpt><trkpt lat="43.0856959" lon="12.4844239"><ele>202.0</ele><time>2026-04-05T11:49:17.983Z</time></trkpt><trkpt lat="43.0858533" lon="12.4841785"><ele>202.0</ele><time>2026-04-05T11:49:18.983Z</time></trkpt><trkpt lat="43.0860113" lon="12.4839418"><ele>202.0</ele><time>2026-04-05T11:49:19.983Z</time></trkpt><trkpt lat="43.0861633" lon="12.4837062"><ele>202.5</ele><time>2026-04-05T11:49:20.983Z</time></trkpt><trkpt lat="43.0863174" lon="12.4834759"><ele>203.0</ele><time>2026-04-05T11:49:21.983Z</time></trkpt><trkpt lat="43.0864688" lon="12.4832432"><ele>203.0</ele><time>2026-04-05T11:49:22.982Z</time></trkpt><trkpt lat="43.0866184" lon="12.4830149"><ele>203.0</ele><time>2026-04-05T11:49:23.983Z</time></trkpt><trkpt lat="43.0867705" lon="12.4827901"><ele>203.0</ele><time>2026-04-05T11:49:24.983Z</time></trkpt><trkpt lat="43.086917" lon="12.4825633"><ele>205.5</ele><time>2026-04-05T11:49:25.983Z</time></trkpt><trkpt lat="43.0870587" lon="12.4823228"><ele>208.0</ele><time>2026-04-05T11:49:26.982Z</time></trkpt><trkpt lat="43.0871949" lon="12.4820719"><ele>209.0</ele><time>2026-04-05T11:49:27.982Z</time></trkpt><trkpt lat="43.0873091" lon="12.4817971"><ele>210.0</ele><time>2026-04-05T11:49:28.982Z</time></trkpt><trkpt lat="43.0874058" lon="12.48151"><ele>210.0</ele><time>2026-04-05T11:49:29.983Z</time></trkpt><trkpt lat="43.0874817" lon="12.4812048"><ele>210.0</ele><time>2026-04-05T11:49:30.983Z</time></trkpt><trkpt lat="43.0875342" lon="12.4808952"><ele>210.0</ele><time>2026-04-05T11:49:31.983Z</time></trkpt><trkpt lat="43.0875725" lon="12.4805801"><ele>210.0</ele><time>2026-04-05T11:49:32.982Z</time></trkpt><trkpt lat="43.0875977" lon="12.4802591"><ele>209.0</ele><time>2026-04-05T11:49:33.983Z</time></trkpt><trkpt lat="43.087618" lon="12.479938"><ele>208.0</ele><time>2026-04-05T11:49:34.982Z</time></trkpt><trkpt lat="43.0876332" lon="12.4796156"><ele>207.0</ele><time>2026-04-05T11:49:35.983Z</time></trkpt><trkpt lat="43.0876532" lon="12.4792946"><ele>206.0</ele><time>2026-04-05T11:49:36.982Z</time></trkpt><trkpt lat="43.0876753" lon="12.478973"><ele>205.5</ele><time>2026-04-05T11:49:37.982Z</time></trkpt><trkpt lat="43.0876961" lon="12.4786519"><ele>205.0</ele><time>2026-04-05T11:49:38.983Z</time></trkpt><trkpt lat="43.0877178" lon="12.4783481"><ele>205.0</ele><time>2026-04-05T11:49:39.983Z</time></trkpt><trkpt lat="43.0877382" lon="12.4780526"><ele>205.0</ele><time>2026-04-05T11:49:40.982Z</time></trkpt><trkpt lat="43.0877584" lon="12.4777633"><ele>205.0</ele><time>2026-04-05T11:49:41.982Z</time></trkpt><trkpt lat="43.0877714" lon="12.4774866"><ele>205.66666666666666</ele><time>2026-04-05T11:49:42.982Z</time></trkpt><trkpt lat="43.0877814" lon="12.4772379"><ele>206.33333333333331</ele><time>2026-04-05T11:49:43.983Z</time></trkpt><trkpt lat="43.0878032" lon="12.4769809"><ele>207.0</ele><time>2026-04-05T11:49:44.983Z</time></trkpt><trkpt lat="43.0878173" lon="12.4767432"><ele>207.66666666666669</ele><time>2026-04-05T11:49:45.982Z</time></trkpt><trkpt lat="43.0878378" lon="12.4765009"><ele>208.33333333333334</ele><time>2026-04-05T11:49:46.982Z</time></trkpt><trkpt lat="43.0878648" lon="12.4762576"><ele>209.0</ele><time>2026-04-05T11:49:47.982Z</time></trkpt><trkpt lat="43.0878931" lon="12.4760308"><ele>209.0</ele><time>2026-04-05T11:49:48.983Z</time></trkpt><trkpt lat="43.0879248" lon="12.4758046"><ele>209.0</ele><time>2026-04-05T11:49:49.982Z</time></trkpt><trkpt lat="43.0879519" lon="12.4755827"><ele>209.0</ele><time>2026-04-05T11:49:50.982Z</time></trkpt><trkpt lat="43.0879749" lon="12.4753775"><ele>209.75</ele><time>2026-04-05T11:49:51.983Z</time></trkpt><trkpt lat="43.0879955" lon="12.4751922"><ele>210.5</ele><time>2026-04-05T11:49:52.983Z</time></trkpt><trkpt lat="43.0880316" lon="12.4750226"><ele>211.25</ele><time>2026-04-05T11:49:53.983Z</time></trkpt><trkpt lat="43.0880742" lon="12.4748496"><ele>212.0</ele><time>2026-04-05T11:49:54.983Z</time></trkpt><trkpt lat="43.0881548" lon="12.474698"><ele>212.5</ele><time>2026-04-05T11:49:55.983Z</time></trkpt><trkpt lat="43.0882485" lon="12.4745577"><ele>213.0</ele><time>2026-04-05T11:49:56.983Z</time></trkpt><trkpt lat="43.0883613" lon="12.4744426"><ele>213.5</ele><time>2026-04-05T11:49:57.983Z</time></trkpt><trkpt lat="43.0884895" lon="12.4743613"><ele>214.0</ele><time>2026-04-05T11:49:58.982Z</time></trkpt><trkpt lat="43.0886262" lon="12.4743141"><ele>211.0</ele><time>2026-04-05T11:49:59.983Z</time></trkpt><trkpt lat="43.0887634" lon="12.4742949"><ele>208.0</ele><time>2026-04-05T11:50:00.983Z</time></trkpt><trkpt lat="43.088906" lon="12.4743229"><ele>205.0</ele><time>2026-04-05T11:50:01.983Z</time></trkpt><trkpt lat="43.0890577" lon="12.4743577"><ele>202.0</ele><time>2026-04-05T11:50:02.983Z</time></trkpt><trkpt lat="43.089227" lon="12.4743947"><ele>200.66666666666666</ele><time>2026-04-05T11:50:03.983Z</time></trkpt><trkpt lat="43.0894161" lon="12.4744342"><ele>199.33333333333331</ele><time>2026-04-05T11:50:04.983Z</time></trkpt><trkpt lat="43.0896232" lon="12.474471"><ele>198.0</ele><time>2026-04-05T11:50:05.983Z</time></trkpt><trkpt lat="43.0898347" lon="12.4745129"><ele>197.0</ele><time>2026-04-05T11:50:06.983Z</time></trkpt><trkpt lat="43.0900569" lon="12.4745454"><ele>196.0</ele><time>2026-04-05T11:50:07.983Z</time></trkpt><trkpt lat="43.0902959" lon="12.4745856"><ele>197.5</ele><time>2026-04-05T11:50:08.982Z</time></trkpt><trkpt lat="43.0905299" lon="12.4746252"><ele>199.0</ele><time>2026-04-05T11:50:09.983Z</time></trkpt><trkpt lat="43.0907665" lon="12.474668"><ele>200.0</ele><time>2026-04-05T11:50:10.983Z</time></trkpt><trkpt lat="43.0910134" lon="12.4747174"><ele>201.0</ele><time>2026-04-05T11:50:11.983Z</time></trkpt><trkpt lat="43.091273" lon="12.4747762"><ele>201.0</ele><time>2026-04-05T11:50:12.982Z</time></trkpt><trkpt lat="43.0915299" lon="12.4748377"><ele>201.0</ele><time>2026-04-05T11:50:13.983Z</time></trkpt><trkpt lat="43.0917845" lon="12.4748933"><ele>202.0</ele><time>2026-04-05T11:50:14.983Z</time></trkpt><trkpt lat="43.0920412" lon="12.4749469"><ele>203.0</ele><time>2026-04-05T11:50:15.983Z</time></trkpt><trkpt lat="43.0922954" lon="12.4750089"><ele>202.0</ele><time>2026-04-05T11:50:16.983Z</time></trkpt><trkpt lat="43.0925393" lon="12.4750637"><ele>201.0</ele><time>2026-04-05T11:50:17.983Z</time></trkpt><trkpt lat="43.0927982" lon="12.475127"><ele>201.0</ele><time>2026-04-05T11:50:18.983Z</time></trkpt><trkpt lat="43.0930509" lon="12.4751776"><ele>201.0</ele><time>2026-04-05T11:50:19.982Z</time></trkpt><trkpt lat="43.0933034" lon="12.4752341"><ele>197.5</ele><time>2026-04-05T11:50:20.983Z</time></trkpt><trkpt lat="43.0935578" lon="12.4752896"><ele>194.0</ele><time>2026-04-05T11:50:21.983Z</time></trkpt><trkpt lat="43.0938177" lon="12.4753445"><ele>194.0</ele><time>2026-04-05T11:50:22.983Z</time></trkpt><trkpt lat="43.0940759" lon="12.475404"><ele>194.0</ele><time>2026-04-05T11:50:23.983Z</time></trkpt><trkpt lat="43.0943335" lon="12.4754632"><ele>192.0</ele><time>2026-04-05T11:50:24.983Z</time></trkpt><trkpt lat="43.0945924" lon="12.4755162"><ele>190.0</ele><time>2026-04-05T11:50:25.982Z</time></trkpt><trkpt lat="43.0948541" lon="12.4755741"><ele>190.0</ele><time>2026-04-05T11:50:26.983Z</time></trkpt><trkpt lat="43.0951148" lon="12.4756385"><ele>190.0</ele><time>2026-04-05T11:50:27.983Z</time></trkpt><trkpt lat="43.0953705" lon="12.4756914"><ele>190.0</ele><time>2026-04-05T11:50:28.983Z</time></trkpt><trkpt lat="43.0956264" lon="12.4757394"><ele>190.0</ele><time>2026-04-05T11:50:29.983Z</time></trkpt><trkpt lat="43.095884" lon="12.475792"><ele>189.5</ele><time>2026-04-05T11:50:30.983Z</time></trkpt><trkpt lat="43.0961453" lon="12.4758453"><ele>189.0</ele><time>2026-04-05T11:50:31.983Z</time></trkpt><trkpt lat="43.0963989" lon="12.4758934"><ele>190.0</ele><time>2026-04-05T11:50:32.983Z</time></trkpt><trkpt lat="43.0966548" lon="12.4759436"><ele>191.0</ele><time>2026-04-05T11:50:33.983Z</time></trkpt><trkpt lat="43.0969174" lon="12.4759989"><ele>191.0</ele><time>2026-04-05T11:50:34.982Z</time></trkpt><trkpt lat="43.0971737" lon="12.476046"><ele>191.0</ele><time>2026-04-05T11:50:35.983Z</time></trkpt><trkpt lat="43.0974286" lon="12.4760827"><ele>191.0</ele><time>2026-04-05T11:50:36.982Z</time></trkpt><trkpt lat="43.0976865" lon="12.4761276"><ele>191.0</ele><time>2026-04-05T11:50:37.983Z</time></trkpt><trkpt lat="43.0979487" lon="12.4761637"><ele>191.0</ele><time>2026-04-05T11:50:38.983Z</time></trkpt><trkpt lat="43.0982159" lon="12.4762007"><ele>191.0</ele><time>2026-04-05T11:50:39.983Z</time></trkpt><trkpt lat="43.0984752" lon="12.4762482"><ele>190.5</ele><time>2026-04-05T11:50:40.983Z</time></trkpt><trkpt lat="43.0987362" lon="12.4762869"><ele>190.0</ele><time>2026-04-05T11:50:41.982Z</time></trkpt><trkpt lat="43.0989987" lon="12.4763197"><ele>190.0</ele><time>2026-04-05T11:50:42.983Z</time></trkpt><trkpt lat="43.0992608" lon="12.4763553"><ele>190.0</ele><time>2026-04-05T11:50:43.983Z</time></trkpt><trkpt lat="43.0995237" lon="12.4763969"><ele>190.0</ele><time>2026-04-05T11:50:44.982Z</time></trkpt><trkpt lat="43.0997837" lon="12.4764375"><ele>190.0</ele><time>2026-04-05T11:50:45.982Z</time></trkpt><trkpt lat="43.1000465" lon="12.4764748"><ele>189.5</ele><time>2026-04-05T11:50:46.983Z</time></trkpt><trkpt lat="43.1003056" lon="12.4765075"><ele>189.0</ele><time>2026-04-05T11:50:47.983Z</time></trkpt><trkpt lat="43.1005666" lon="12.4765392"><ele>188.5</ele><time>2026-04-05T11:50:48.982Z</time></trkpt><trkpt lat="43.100831" lon="12.4765646"><ele>188.0</ele><time>2026-04-05T11:50:49.983Z</time></trkpt><trkpt lat="43.1010964" lon="12.4766064"><ele>188.0</ele><time>2026-04-05T11:50:50.982Z</time></trkpt><trkpt lat="43.1013619" lon="12.4766315"><ele>188.0</ele><time>2026-04-05T11:50:51.983Z</time></trkpt><trkpt lat="43.1016249" lon="12.4766567"><ele>189.5</ele><time>2026-04-05T11:50:52.983Z</time></trkpt><trkpt lat="43.1018919" lon="12.4766805"><ele>191.0</ele><time>2026-04-05T11:50:53.983Z</time></trkpt><trkpt lat="43.102164" lon="12.4766884"><ele>191.0</ele><time>2026-04-05T11:50:54.983Z</time></trkpt><trkpt lat="43.102424" lon="12.4767088"><ele>191.0</ele><time>2026-04-05T11:50:55.982Z</time></trkpt><trkpt lat="43.1026829" lon="12.4767282"><ele>191.0</ele><time>2026-04-05T11:50:56.983Z</time></trkpt><trkpt lat="43.1029408" lon="12.4767441"><ele>191.0</ele><time>2026-04-05T11:50:57.982Z</time></trkpt><trkpt lat="43.1032012" lon="12.4767688"><ele>192.0</ele><time>2026-04-05T11:50:58.982Z</time></trkpt><trkpt lat="43.1034557" lon="12.476795"><ele>193.0</ele><time>2026-04-05T11:50:59.983Z</time></trkpt><trkpt lat="43.103713" lon="12.4768094"><ele>193.0</ele><time>2026-04-05T11:51:00.983Z</time></trkpt><trkpt lat="43.1039652" lon="12.476821"><ele>193.0</ele><time>2026-04-05T11:51:01.983Z</time></trkpt><trkpt lat="43.1042136" lon="12.4768082"><ele>192.5</ele><time>2026-04-05T11:51:02.982Z</time></trkpt><trkpt lat="43.1044629" lon="12.4767763"><ele>192.0</ele><time>2026-04-05T11:51:03.983Z</time></trkpt><trkpt lat="43.1047049" lon="12.4767072"><ele>192.5</ele><time>2026-04-05T11:51:04.982Z</time></trkpt><trkpt lat="43.1049488" lon="12.4766202"><ele>193.0</ele><time>2026-04-05T11:51:05.982Z</time></trkpt><trkpt lat="43.1051796" lon="12.4765016"><ele>193.0</ele><time>2026-04-05T11:51:06.982Z</time></trkpt><trkpt lat="43.1054183" lon="12.4763498"><ele>193.0</ele><time>2026-04-05T11:51:07.983Z</time></trkpt><trkpt lat="43.1056357" lon="12.4761866"><ele>192.0</ele><time>2026-04-05T11:51:08.983Z</time></trkpt><trkpt lat="43.1058409" lon="12.4759927"><ele>191.0</ele><time>2026-04-05T11:51:09.983Z</time></trkpt><trkpt lat="43.1060404" lon="12.4757809"><ele>191.0</ele><time>2026-04-05T11:51:10.982Z</time></trkpt><trkpt lat="43.1062343" lon="12.4755663"><ele>191.0</ele><time>2026-04-05T11:51:11.983Z</time></trkpt><trkpt lat="43.1064295" lon="12.4753493"><ele>192.5</ele><time>2026-04-05T11:51:12.983Z</time></trkpt><trkpt lat="43.1066235" lon="12.4751372"><ele>194.0</ele><time>2026-04-05T11:51:13.983Z</time></trkpt><trkpt lat="43.106819" lon="12.4749204"><ele>194.0</ele><time>2026-04-05T11:51:14.983Z</time></trkpt><trkpt lat="43.1070071" lon="12.4747159"><ele>194.0</ele><time>2026-04-05T11:51:15.983Z</time></trkpt><trkpt lat="43.1071991" lon="12.4745104"><ele>194.0</ele><time>2026-04-05T11:51:16.983Z</time></trkpt><trkpt lat="43.1073889" lon="12.474301"><ele>194.0</ele><time>2026-04-05T11:51:17.983Z</time></trkpt><trkpt lat="43.1075778" lon="12.4740956"><ele>194.0</ele><time>2026-04-05T11:51:18.982Z</time></trkpt><trkpt lat="43.1077513" lon="12.473878"><ele>194.0</ele><time>2026-04-05T11:51:19.982Z</time></trkpt><trkpt lat="43.1079202" lon="12.4736405"><ele>193.5</ele><time>2026-04-05T11:51:20.983Z</time></trkpt><trkpt lat="43.108063" lon="12.4733818"><ele>193.0</ele><time>2026-04-05T11:51:21.983Z</time></trkpt><trkpt lat="43.1081985" lon="12.4731087"><ele>193.0</ele><time>2026-04-05T11:51:22.983Z</time></trkpt><trkpt lat="43.1083133" lon="12.4728236"><ele>193.0</ele><time>2026-04-05T11:51:23.983Z</time></trkpt><trkpt lat="43.1084054" lon="12.4725207"><ele>193.0</ele><time>2026-04-05T11:51:24.983Z</time></trkpt><trkpt lat="43.1084767" lon="12.4722105"><ele>193.0</ele><time>2026-04-05T11:51:25.983Z</time></trkpt><trkpt lat="43.1085338" lon="12.4718908"><ele>192.5</ele><time>2026-04-05T11:51:26.983Z</time></trkpt><trkpt lat="43.108566" lon="12.4715572"><ele>192.0</ele><time>2026-04-05T11:51:27.982Z</time></trkpt><trkpt lat="43.1085841" lon="12.4712221"><ele>191.5</ele><time>2026-04-05T11:51:28.983Z</time></trkpt><trkpt lat="43.1085964" lon="12.4708839"><ele>191.0</ele><time>2026-04-05T11:51:29.982Z</time></trkpt><trkpt lat="43.1086077" lon="12.4705477"><ele>191.0</ele><time>2026-04-05T11:51:30.983Z</time></trkpt><trkpt lat="43.1086133" lon="12.4702141"><ele>191.0</ele><time>2026-04-05T11:51:31.983Z</time></trkpt><trkpt lat="43.1086104" lon="12.4698822"><ele>190.0</ele><time>2026-04-05T11:51:32.982Z</time></trkpt><trkpt lat="43.1086159" lon="12.4695486"><ele>189.0</ele><time>2026-04-05T11:51:33.982Z</time></trkpt><trkpt lat="43.1086208" lon="12.4692152"><ele>189.0</ele><time>2026-04-05T11:51:34.983Z</time></trkpt><trkpt lat="43.1086282" lon="12.468881"><ele>189.0</ele><time>2026-04-05T11:51:35.983Z</time></trkpt><trkpt lat="43.1086371" lon="12.4685432"><ele>189.5</ele><time>2026-04-05T11:51:36.983Z</time></trkpt><trkpt lat="43.1086408" lon="12.4682135"><ele>190.0</ele><time>2026-04-05T11:51:37.983Z</time></trkpt><trkpt lat="43.1086495" lon="12.4678832"><ele>190.0</ele><time>2026-04-05T11:51:38.982Z</time></trkpt><trkpt lat="43.1086621" lon="12.4675523"><ele>190.0</ele><time>2026-04-05T11:51:39.983Z</time></trkpt><trkpt lat="43.1086715" lon="12.4672231"><ele>190.0</ele><time>2026-04-05T11:51:40.983Z</time></trkpt><trkpt lat="43.1086884" lon="12.4668865"><ele>190.0</ele><time>2026-04-05T11:51:41.983Z</time></trkpt><trkpt lat="43.1086975" lon="12.4665612"><ele>191.5</ele><time>2026-04-05T11:51:42.983Z</time></trkpt><trkpt lat="43.108708" lon="12.4662353"><ele>193.0</ele><time>2026-04-05T11:51:43.982Z</time></trkpt><trkpt lat="43.1087208" lon="12.4658988"><ele>193.0</ele><time>2026-04-05T11:51:44.983Z</time></trkpt><trkpt lat="43.1087232" lon="12.4655611"><ele>193.0</ele><time>2026-04-05T11:51:45.982Z</time></trkpt><trkpt lat="43.1087304" lon="12.4652265"><ele>193.0</ele><time>2026-04-05T11:51:46.982Z</time></trkpt><trkpt lat="43.1087366" lon="12.4648941"><ele>193.0</ele><time>2026-04-05T11:51:47.982Z</time></trkpt><trkpt lat="43.1087479" lon="12.4645572"><ele>193.0</ele><time>2026-04-05T11:51:48.983Z</time></trkpt><trkpt lat="43.1087566" lon="12.4642247"><ele>193.0</ele><time>2026-04-05T11:51:49.983Z</time></trkpt><trkpt lat="43.1087659" lon="12.4638924"><ele>193.0</ele><time>2026-04-05T11:51:50.983Z</time></trkpt><trkpt lat="43.1087735" lon="12.463554"><ele>193.0</ele><time>2026-04-05T11:51:51.983Z</time></trkpt><trkpt lat="43.1087845" lon="12.4632258"><ele>192.5</ele><time>2026-04-05T11:51:52.983Z</time></trkpt><trkpt lat="43.1088077" lon="12.4628902"><ele>192.0</ele><time>2026-04-05T11:51:53.983Z</time></trkpt><trkpt lat="43.1088404" lon="12.4625667"><ele>192.0</ele><time>2026-04-05T11:51:54.983Z</time></trkpt><trkpt lat="43.1088945" lon="12.4622487"><ele>192.0</ele><time>2026-04-05T11:51:55.983Z</time></trkpt><trkpt lat="43.1089676" lon="12.4619347"><ele>192.5</ele><time>2026-04-05T11:51:56.983Z</time></trkpt><trkpt lat="43.1090569" lon="12.4616297"><ele>193.0</ele><time>2026-04-05T11:51:57.982Z</time></trkpt><trkpt lat="43.109175" lon="12.4613361"><ele>192.0</ele><time>2026-04-05T11:51:58.983Z</time></trkpt><trkpt lat="43.1093079" lon="12.4610623"><ele>191.0</ele><time>2026-04-05T11:51:59.983Z</time></trkpt><trkpt lat="43.1094631" lon="12.4608057"><ele>191.0</ele><time>2026-04-05T11:52:00.982Z</time></trkpt><trkpt lat="43.1096359" lon="12.4605654"><ele>191.0</ele><time>2026-04-05T11:52:01.983Z</time></trkpt><trkpt lat="43.1098178" lon="12.460335"><ele>191.0</ele><time>2026-04-05T11:52:02.983Z</time></trkpt><trkpt lat="43.110005" lon="12.4601192"><ele>191.0</ele><time>2026-04-05T11:52:03.983Z</time></trkpt><trkpt lat="43.1101957" lon="12.4598955"><ele>191.0</ele><time>2026-04-05T11:52:04.983Z</time></trkpt><trkpt lat="43.110384" lon="12.4596673"><ele>191.0</ele><time>2026-04-05T11:52:05.983Z</time></trkpt><trkpt lat="43.1105761" lon="12.4594458"><ele>192.0</ele><time>2026-04-05T11:52:06.983Z</time></trkpt><trkpt lat="43.1107609" lon="12.4592112"><ele>193.0</ele><time>2026-04-05T11:52:07.982Z</time></trkpt><trkpt lat="43.1109519" lon="12.4589728"><ele>193.0</ele><time>2026-04-05T11:52:08.983Z</time></trkpt><trkpt lat="43.111136" lon="12.4587301"><ele>193.0</ele><time>2026-04-05T11:52:09.983Z</time></trkpt><trkpt lat="43.1113247" lon="12.4585005"><ele>193.0</ele><time>2026-04-05T11:52:10.983Z</time></trkpt><trkpt lat="43.1115145" lon="12.4582695"><ele>193.0</ele><time>2026-04-05T11:52:11.982Z</time></trkpt><trkpt lat="43.1117045" lon="12.458039"><ele>193.0</ele><time>2026-04-05T11:52:12.982Z</time></trkpt><trkpt lat="43.1118942" lon="12.4578112"><ele>193.0</ele><time>2026-04-05T11:52:13.983Z</time></trkpt><trkpt lat="43.1120884" lon="12.457579"><ele>193.0</ele><time>2026-04-05T11:52:14.983Z</time></trkpt><trkpt lat="43.1122782" lon="12.4573479"><ele>193.0</ele><time>2026-04-05T11:52:15.982Z</time></trkpt><trkpt lat="43.1124685" lon="12.4571169"><ele>192.5</ele><time>2026-04-05T11:52:16.982Z</time></trkpt><trkpt lat="43.1126562" lon="12.4568784"><ele>192.0</ele><time>2026-04-05T11:52:17.983Z</time></trkpt><trkpt lat="43.1128426" lon="12.4566423"><ele>192.0</ele><time>2026-04-05T11:52:18.983Z</time></trkpt><trkpt lat="43.1130292" lon="12.4564042"><ele>192.0</ele><time>2026-04-05T11:52:19.982Z</time></trkpt><trkpt lat="43.1132177" lon="12.4561804"><ele>192.0</ele><time>2026-04-05T11:52:20.982Z</time></trkpt><trkpt lat="43.1134067" lon="12.4559519"><ele>192.0</ele><time>2026-04-05T11:52:21.983Z</time></trkpt><trkpt lat="43.1135981" lon="12.4557172"><ele>192.0</ele><time>2026-04-05T11:52:22.983Z</time></trkpt><trkpt lat="43.1137865" lon="12.455487"><ele>192.0</ele><time>2026-04-05T11:52:23.982Z</time></trkpt><trkpt lat="43.1139689" lon="12.4552573"><ele>193.5</ele><time>2026-04-05T11:52:24.983Z</time></trkpt><trkpt lat="43.1141555" lon="12.455031"><ele>195.0</ele><time>2026-04-05T11:52:25.983Z</time></trkpt><trkpt lat="43.1143419" lon="12.4548044"><ele>193.5</ele><time>2026-04-05T11:52:26.983Z</time></trkpt><trkpt lat="43.1145265" lon="12.4545788"><ele>192.0</ele><time>2026-04-05T11:52:27.983Z</time></trkpt><trkpt lat="43.1147114" lon="12.4543571"><ele>192.0</ele><time>2026-04-05T11:52:28.983Z</time></trkpt><trkpt lat="43.1149018" lon="12.4541329"><ele>192.0</ele><time>2026-04-05T11:52:29.982Z</time></trkpt><trkpt lat="43.1150813" lon="12.4539152"><ele>193.0</ele><time>2026-04-05T11:52:30.983Z</time></trkpt><trkpt lat="43.1152683" lon="12.4537089"><ele>194.0</ele><time>2026-04-05T11:52:31.983Z</time></trkpt><trkpt lat="43.1154652" lon="12.4535058"><ele>194.0</ele><time>2026-04-05T11:52:32.982Z</time></trkpt><trkpt lat="43.1156728" lon="12.4533186"><ele>194.0</ele><time>2026-04-05T11:52:33.982Z</time></trkpt><trkpt lat="43.1158801" lon="12.4531343"><ele>194.0</ele><time>2026-04-05T11:52:34.983Z</time></trkpt><trkpt lat="43.1160987" lon="12.4529564"><ele>194.0</ele><time>2026-04-05T11:52:35.982Z</time></trkpt><trkpt lat="43.1163186" lon="12.4527906"><ele>194.0</ele><time>2026-04-05T11:52:36.983Z</time></trkpt><trkpt lat="43.1165408" lon="12.4526332"><ele>194.0</ele><time>2026-04-05T11:52:37.983Z</time></trkpt><trkpt lat="43.116766" lon="12.4524903"><ele>195.0</ele><time>2026-04-05T11:52:38.983Z</time></trkpt><trkpt lat="43.1170011" lon="12.4523615"><ele>196.0</ele><time>2026-04-05T11:52:39.983Z</time></trkpt><trkpt lat="43.11724" lon="12.4522454"><ele>196.0</ele><time>2026-04-05T11:52:40.982Z</time></trkpt><trkpt lat="43.1174818" lon="12.4521452"><ele>196.0</ele><time>2026-04-05T11:52:41.983Z</time></trkpt><trkpt lat="43.1177263" lon="12.4520631"><ele>196.0</ele><time>2026-04-05T11:52:42.983Z</time></trkpt><trkpt lat="43.1179758" lon="12.4519926"><ele>196.0</ele><time>2026-04-05T11:52:43.982Z</time></trkpt><trkpt lat="43.1182252" lon="12.4519307"><ele>196.5</ele><time>2026-04-05T11:52:44.983Z</time></trkpt><trkpt lat="43.1184729" lon="12.4518744"><ele>197.0</ele><time>2026-04-05T11:52:45.982Z</time></trkpt><trkpt lat="43.1187269" lon="12.4518439"><ele>197.0</ele><time>2026-04-05T11:52:46.983Z</time></trkpt><trkpt lat="43.1189774" lon="12.4518189"><ele>197.0</ele><time>2026-04-05T11:52:47.983Z</time></trkpt><trkpt lat="43.1192263" lon="12.4518101"><ele>198.5</ele><time>2026-04-05T11:52:48.983Z</time></trkpt><trkpt lat="43.1194756" lon="12.4518043"><ele>200.0</ele><time>2026-04-05T11:52:49.983Z</time></trkpt><trkpt lat="43.1197188" lon="12.4518051"><ele>200.5</ele><time>2026-04-05T11:52:50.983Z</time></trkpt><trkpt lat="43.119961" lon="12.4517961"><ele>201.0</ele><time>2026-04-05T11:52:51.982Z</time></trkpt><trkpt lat="43.120206" lon="12.4517911"><ele>201.0</ele><time>2026-04-05T11:52:52.982Z</time></trkpt><trkpt lat="43.1204489" lon="12.451783"><ele>201.0</ele><time>2026-04-05T11:52:53.983Z</time></trkpt><trkpt lat="43.1206991" lon="12.4517787"><ele>202.5</ele><time>2026-04-05T11:52:54.983Z</time></trkpt><trkpt lat="43.1209513" lon="12.4517759"><ele>204.0</ele><time>2026-04-05T11:52:55.983Z</time></trkpt><trkpt lat="43.1212046" lon="12.4517663"><ele>204.0</ele><time>2026-04-05T11:52:56.983Z</time></trkpt><trkpt lat="43.1214566" lon="12.4517649"><ele>204.0</ele><time>2026-04-05T11:52:57.983Z</time></trkpt><trkpt lat="43.1217059" lon="12.4517611"><ele>204.0</ele><time>2026-04-05T11:52:58.983Z</time></trkpt><trkpt lat="43.1219591" lon="12.4517521"><ele>204.0</ele><time>2026-04-05T11:52:59.983Z</time></trkpt><trkpt lat="43.1222108" lon="12.4517498"><ele>204.0</ele><time>2026-04-05T11:53:00.983Z</time></trkpt><trkpt lat="43.1224592" lon="12.4517429"><ele>204.0</ele><time>2026-04-05T11:53:01.983Z</time></trkpt><trkpt lat="43.1227084" lon="12.4517324"><ele>204.0</ele><time>2026-04-05T11:53:02.983Z</time></trkpt><trkpt lat="43.1229591" lon="12.4517314"><ele>204.0</ele><time>2026-04-05T11:53:03.983Z</time></trkpt><trkpt lat="43.123206" lon="12.4517301"><ele>205.0</ele><time>2026-04-05T11:53:04.982Z</time></trkpt><trkpt lat="43.1234521" lon="12.4517176"><ele>206.0</ele><time>2026-04-05T11:53:05.982Z</time></trkpt><trkpt lat="43.1236944" lon="12.4517099"><ele>206.0</ele><time>2026-04-05T11:53:06.983Z</time></trkpt><trkpt lat="43.1239326" lon="12.4517038"><ele>206.0</ele><time>2026-04-05T11:53:07.983Z</time></trkpt><trkpt lat="43.1241734" lon="12.4516987"><ele>205.5</ele><time>2026-04-05T11:53:08.983Z</time></trkpt><trkpt lat="43.1244122" lon="12.4516996"><ele>205.0</ele><time>2026-04-05T11:53:09.983Z</time></trkpt><trkpt lat="43.1246534" lon="12.4516947"><ele>205.0</ele><time>2026-04-05T11:53:10.982Z</time></trkpt><trkpt lat="43.1248922" lon="12.45169"><ele>205.0</ele><time>2026-04-05T11:53:11.983Z</time></trkpt><trkpt lat="43.1251321" lon="12.4516859"><ele>204.0</ele><time>2026-04-05T11:53:12.982Z</time></trkpt><trkpt lat="43.125375" lon="12.4516875"><ele>203.0</ele><time>2026-04-05T11:53:13.983Z</time></trkpt><trkpt lat="43.1256192" lon="12.4516807"><ele>203.0</ele><time>2026-04-05T11:53:14.983Z</time></trkpt><trkpt lat="43.125861" lon="12.4516799"><ele>203.0</ele><time>2026-04-05T11:53:15.983Z</time></trkpt><trkpt lat="43.1261087" lon="12.4516786"><ele>203.0</ele><time>2026-04-05T11:53:16.983Z</time></trkpt><trkpt lat="43.1263589" lon="12.451668"><ele>203.0</ele><time>2026-04-05T11:53:17.982Z</time></trkpt><trkpt lat="43.1266041" lon="12.4516617"><ele>204.0</ele><time>2026-04-05T11:53:18.983Z</time></trkpt><trkpt lat="43.1268557" lon="12.4516518"><ele>205.0</ele><time>2026-04-05T11:53:19.983Z</time></trkpt><trkpt lat="43.1271078" lon="12.4516483"><ele>205.0</ele><time>2026-04-05T11:53:20.983Z</time></trkpt><trkpt lat="43.1273627" lon="12.451635"><ele>205.0</ele><time>2026-04-05T11:53:21.982Z</time></trkpt><trkpt lat="43.1276173" lon="12.4516257"><ele>204.0</ele><time>2026-04-05T11:53:22.982Z</time></trkpt><trkpt lat="43.1278725" lon="12.4516088"><ele>203.0</ele><time>2026-04-05T11:53:23.982Z</time></trkpt><trkpt lat="43.1281293" lon="12.4515843"><ele>203.5</ele><time>2026-04-05T11:53:24.983Z</time></trkpt><trkpt lat="43.1283859" lon="12.4515652"><ele>204.0</ele><time>2026-04-05T11:53:25.983Z</time></trkpt><trkpt lat="43.1286407" lon="12.4515633"><ele>204.0</ele><time>2026-04-05T11:53:26.983Z</time></trkpt><trkpt lat="43.1288947" lon="12.4515638"><ele>204.0</ele><time>2026-04-05T11:53:27.982Z</time></trkpt><trkpt lat="43.1291535" lon="12.4515659"><ele>204.0</ele><time>2026-04-05T11:53:28.983Z</time></trkpt><trkpt lat="43.1294137" lon="12.4515653"><ele>204.0</ele><time>2026-04-05T11:53:29.982Z</time></trkpt><trkpt lat="43.1296733" lon="12.4515594"><ele>203.5</ele><time>2026-04-05T11:53:30.983Z</time></trkpt><trkpt lat="43.1299317" lon="12.4515529"><ele>203.0</ele><time>2026-04-05T11:53:31.983Z</time></trkpt><trkpt lat="43.1301855" lon="12.451544"><ele>203.0</ele><time>2026-04-05T11:53:32.983Z</time></trkpt><trkpt lat="43.1304418" lon="12.4515388"><ele>203.0</ele><time>2026-04-05T11:53:33.982Z</time></trkpt><trkpt lat="43.130697" lon="12.4515343"><ele>203.5</ele><time>2026-04-05T11:53:34.982Z</time></trkpt><trkpt lat="43.1309519" lon="12.4515303"><ele>204.0</ele><time>2026-04-05T11:53:35.983Z</time></trkpt><trkpt lat="43.1312038" lon="12.4515263"><ele>204.0</ele><time>2026-04-05T11:53:36.982Z</time></trkpt><trkpt lat="43.1314548" lon="12.4515223"><ele>204.0</ele><time>2026-04-05T11:53:37.983Z</time></trkpt><trkpt lat="43.1317096" lon="12.4515171"><ele>205.0</ele><time>2026-04-05T11:53:38.983Z</time></trkpt><trkpt lat="43.1319581" lon="12.4515072"><ele>206.0</ele><time>2026-04-05T11:53:39.983Z</time></trkpt><trkpt lat="43.1322146" lon="12.4514976"><ele>205.0</ele><time>2026-04-05T11:53:40.983Z</time></trkpt><trkpt lat="43.132463" lon="12.4514988"><ele>204.0</ele><time>2026-04-05T11:53:41.982Z</time></trkpt><trkpt lat="43.1327099" lon="12.4515111"><ele>204.0</ele><time>2026-04-05T11:53:42.983Z</time></trkpt><trkpt lat="43.1329519" lon="12.4515441"><ele>204.0</ele><time>2026-04-05T11:53:43.983Z</time></trkpt><trkpt lat="43.1331956" lon="12.4515945"><ele>204.0</ele><time>2026-04-05T11:53:44.983Z</time></trkpt><trkpt lat="43.1334399" lon="12.4516651"><ele>204.0</ele><time>2026-04-05T11:53:45.983Z</time></trkpt><trkpt lat="43.1336797" lon="12.4517544"><ele>204.0</ele><time>2026-04-05T11:53:46.983Z</time></trkpt><trkpt lat="43.1339125" lon="12.4518587"><ele>204.0</ele><time>2026-04-05T11:53:47.983Z</time></trkpt><trkpt lat="43.1341447" lon="12.4519715"><ele>203.5</ele><time>2026-04-05T11:53:48.982Z</time></trkpt><trkpt lat="43.1343737" lon="12.4521006"><ele>203.0</ele><time>2026-04-05T11:53:49.983Z</time></trkpt><trkpt lat="43.1345975" lon="12.452232"><ele>203.0</ele><time>2026-04-05T11:53:50.983Z</time></trkpt><trkpt lat="43.1348234" lon="12.45238"><ele>203.0</ele><time>2026-04-05T11:53:51.982Z</time></trkpt><trkpt lat="43.1350395" lon="12.4525394"><ele>203.0</ele><time>2026-04-05T11:53:52.983Z</time></trkpt><trkpt lat="43.1352488" lon="12.4527153"><ele>203.0</ele><time>2026-04-05T11:53:53.983Z</time></trkpt><trkpt lat="43.1354472" lon="12.4529058"><ele>203.0</ele><time>2026-04-05T11:53:54.982Z</time></trkpt><trkpt lat="43.1356418" lon="12.4531002"><ele>203.0</ele><time>2026-04-05T11:53:55.983Z</time></trkpt><trkpt lat="43.1358354" lon="12.4533074"><ele>203.5</ele><time>2026-04-05T11:53:56.983Z</time></trkpt><trkpt lat="43.1360278" lon="12.4535039"><ele>204.0</ele><time>2026-04-05T11:53:57.982Z</time></trkpt><trkpt lat="43.1362232" lon="12.4537129"><ele>206.0</ele><time>2026-04-05T11:53:58.983Z</time></trkpt><trkpt lat="43.1364182" lon="12.4539171"><ele>208.0</ele><time>2026-04-05T11:53:59.982Z</time></trkpt><trkpt lat="43.1366151" lon="12.4541262"><ele>208.0</ele><time>2026-04-05T11:54:00.983Z</time></trkpt><trkpt lat="43.1368105" lon="12.4543313"><ele>208.0</ele><time>2026-04-05T11:54:01.983Z</time></trkpt><trkpt lat="43.1370032" lon="12.4545371"><ele>217.0</ele><time>2026-04-05T11:54:02.982Z</time></trkpt><trkpt lat="43.1371947" lon="12.454742"><ele>226.0</ele><time>2026-04-05T11:54:03.983Z</time></trkpt><trkpt lat="43.1373847" lon="12.4549481"><ele>217.5</ele><time>2026-04-05T11:54:04.983Z</time></trkpt><trkpt lat="43.1375684" lon="12.455164"><ele>209.0</ele><time>2026-04-05T11:54:05.983Z</time></trkpt><trkpt lat="43.1377503" lon="12.4553836"><ele>217.0</ele><time>2026-04-05T11:54:06.983Z</time></trkpt><trkpt lat="43.1379298" lon="12.4556155"><ele>225.0</ele><time>2026-04-05T11:54:07.982Z</time></trkpt><trkpt lat="43.138095" lon="12.455849"><ele>222.5</ele><time>2026-04-05T11:54:08.983Z</time></trkpt><trkpt lat="43.1382607" lon="12.4560849"><ele>220.0</ele><time>2026-04-05T11:54:09.983Z</time></trkpt><trkpt lat="43.1384188" lon="12.4563264"><ele>220.0</ele><time>2026-04-05T11:54:10.983Z</time></trkpt><trkpt lat="43.1385728" lon="12.4565747"><ele>220.0</ele><time>2026-04-05T11:54:11.983Z</time></trkpt><trkpt lat="43.1387305" lon="12.456831"><ele>220.0</ele><time>2026-04-05T11:54:12.982Z</time></trkpt><trkpt lat="43.1388819" lon="12.4570827"><ele>220.0</ele><time>2026-04-05T11:54:13.983Z</time></trkpt><trkpt lat="43.139032" lon="12.457334"><ele>216.5</ele><time>2026-04-05T11:54:14.983Z</time></trkpt><trkpt lat="43.1391761" lon="12.4575881"><ele>213.0</ele><time>2026-04-05T11:54:15.983Z</time></trkpt><trkpt lat="43.1393293" lon="12.4578482"><ele>219.0</ele><time>2026-04-05T11:54:16.983Z</time></trkpt><trkpt lat="43.1394771" lon="12.458097"><ele>225.0</ele><time>2026-04-05T11:54:17.982Z</time></trkpt><trkpt lat="43.139624" lon="12.4583484"><ele>225.0</ele><time>2026-04-05T11:54:18.982Z</time></trkpt><trkpt lat="43.139771" lon="12.4586002"><ele>225.0</ele><time>2026-04-05T11:54:19.982Z</time></trkpt><trkpt lat="43.1399143" lon="12.4588567"><ele>223.5</ele><time>2026-04-05T11:54:20.983Z</time></trkpt><trkpt lat="43.1400595" lon="12.4591201"><ele>222.0</ele><time>2026-04-05T11:54:21.982Z</time></trkpt><trkpt lat="43.1401986" lon="12.4593925"><ele>225.0</ele><time>2026-04-05T11:54:22.982Z</time></trkpt><trkpt lat="43.1403361" lon="12.4596567"><ele>228.0</ele><time>2026-04-05T11:54:23.983Z</time></trkpt><trkpt lat="43.1404707" lon="12.459928"><ele>228.0</ele><time>2026-04-05T11:54:24.983Z</time></trkpt><trkpt lat="43.1406064" lon="12.4602096"><ele>228.0</ele><time>2026-04-05T11:54:25.982Z</time></trkpt><trkpt lat="43.1407327" lon="12.4604838"><ele>221.0</ele><time>2026-04-05T11:54:26.982Z</time></trkpt><trkpt lat="43.1408605" lon="12.4607568"><ele>214.0</ele><time>2026-04-05T11:54:27.983Z</time></trkpt><trkpt lat="43.1409952" lon="12.4610333"><ele>214.5</ele><time>2026-04-05T11:54:28.983Z</time></trkpt><trkpt lat="43.1411254" lon="12.4613003"><ele>215.0</ele><time>2026-04-05T11:54:29.982Z</time></trkpt><trkpt lat="43.1412556" lon="12.4615689"><ele>215.0</ele><time>2026-04-05T11:54:30.983Z</time></trkpt><trkpt lat="43.1413847" lon="12.4618363"><ele>215.0</ele><time>2026-04-05T11:54:31.983Z</time></trkpt><trkpt lat="43.1415135" lon="12.4621031"><ele>212.5</ele><time>2026-04-05T11:54:32.983Z</time></trkpt><trkpt lat="43.1416408" lon="12.4623699"><ele>210.0</ele><time>2026-04-05T11:54:33.983Z</time></trkpt><trkpt lat="43.1417774" lon="12.4626333"><ele>210.0</ele><time>2026-04-05T11:54:34.982Z</time></trkpt><trkpt lat="43.1419196" lon="12.4628855"><ele>210.0</ele><time>2026-04-05T11:54:35.982Z</time></trkpt><trkpt lat="43.142072" lon="12.4631286"><ele>209.5</ele><time>2026-04-05T11:54:36.983Z</time></trkpt><trkpt lat="43.1422333" lon="12.4633655"><ele>209.0</ele><time>2026-04-05T11:54:37.983Z</time></trkpt><trkpt lat="43.1424038" lon="12.4635902"><ele>207.5</ele><time>2026-04-05T11:54:38.982Z</time></trkpt><trkpt lat="43.1425881" lon="12.4638128"><ele>206.0</ele><time>2026-04-05T11:54:39.983Z</time></trkpt><trkpt lat="43.1427741" lon="12.4640171"><ele>206.0</ele><time>2026-04-05T11:54:40.983Z</time></trkpt><trkpt lat="43.1429649" lon="12.4642129"><ele>206.0</ele><time>2026-04-05T11:54:41.982Z</time></trkpt><trkpt lat="43.1431586" lon="12.4643964"><ele>205.5</ele><time>2026-04-05T11:54:42.982Z</time></trkpt><trkpt lat="43.1433591" lon="12.4645741"><ele>205.0</ele><time>2026-04-05T11:54:43.983Z</time></trkpt><trkpt lat="43.1435685" lon="12.4647437"><ele>206.0</ele><time>2026-04-05T11:54:44.983Z</time></trkpt><trkpt lat="43.1437804" lon="12.4649006"><ele>207.0</ele><time>2026-04-05T11:54:45.982Z</time></trkpt><trkpt lat="43.1439965" lon="12.4650413"><ele>208.5</ele><time>2026-04-05T11:54:46.983Z</time></trkpt><trkpt lat="43.1442195" lon="12.4651674"><ele>210.0</ele><time>2026-04-05T11:54:47.983Z</time></trkpt><trkpt lat="43.1444513" lon="12.4652821"><ele>210.0</ele><time>2026-04-05T11:54:48.982Z</time></trkpt><trkpt lat="43.1446844" lon="12.4653857"><ele>210.0</ele><time>2026-04-05T11:54:49.982Z</time></trkpt><trkpt lat="43.1449189" lon="12.4654751"><ele>211.5</ele><time>2026-04-05T11:54:50.983Z</time></trkpt><trkpt lat="43.1451548" lon="12.4655329"><ele>213.0</ele><time>2026-04-05T11:54:51.983Z</time></trkpt><trkpt lat="43.1453984" lon="12.4655831"><ele>213.0</ele><time>2026-04-05T11:54:52.983Z</time></trkpt><trkpt lat="43.1456436" lon="12.4656248"><ele>213.0</ele><time>2026-04-05T11:54:53.983Z</time></trkpt><trkpt lat="43.1458912" lon="12.4656582"><ele>211.0</ele><time>2026-04-05T11:54:54.983Z</time></trkpt><trkpt lat="43.1461414" lon="12.4656613"><ele>209.0</ele><time>2026-04-05T11:54:55.983Z</time></trkpt><trkpt lat="43.1463972" lon="12.4656471"><ele>205.5</ele><time>2026-04-05T11:54:56.983Z</time></trkpt><trkpt lat="43.146652" lon="12.46562"><ele>202.0</ele><time>2026-04-05T11:54:57.983Z</time></trkpt><trkpt lat="43.1469046" lon="12.4655763"><ele>202.0</ele><time>2026-04-05T11:54:58.982Z</time></trkpt><trkpt lat="43.147155" lon="12.4655237"><ele>202.0</ele><time>2026-04-05T11:54:59.982Z</time></trkpt><trkpt lat="43.1474092" lon="12.4654556"><ele>201.5</ele><time>2026-04-05T11:55:00.983Z</time></trkpt><trkpt lat="43.1476605" lon="12.4653796"><ele>201.0</ele><time>2026-04-05T11:55:01.983Z</time></trkpt><trkpt lat="43.1479156" lon="12.4652982"><ele>201.0</ele><time>2026-04-05T11:55:02.983Z</time></trkpt><trkpt lat="43.1481624" lon="12.4652185"><ele>201.0</ele><time>2026-04-05T11:55:03.983Z</time></trkpt><trkpt lat="43.1484251" lon="12.4651395"><ele>202.0</ele><time>2026-04-05T11:55:04.983Z</time></trkpt><trkpt lat="43.1486761" lon="12.4650626"><ele>203.0</ele><time>2026-04-05T11:55:05.983Z</time></trkpt><trkpt lat="43.1489242" lon="12.4649831"><ele>201.5</ele><time>2026-04-05T11:55:06.983Z</time></trkpt><trkpt lat="43.1491735" lon="12.4649024"><ele>200.0</ele><time>2026-04-05T11:55:07.983Z</time></trkpt><trkpt lat="43.1494278" lon="12.4648255"><ele>200.0</ele><time>2026-04-05T11:55:08.983Z</time></trkpt><trkpt lat="43.1496732" lon="12.4647434"><ele>200.0</ele><time>2026-04-05T11:55:09.982Z</time></trkpt><trkpt lat="43.1499202" lon="12.4646614"><ele>200.0</ele><time>2026-04-05T11:55:10.982Z</time></trkpt><trkpt lat="43.1501693" lon="12.4645752"><ele>200.0</ele><time>2026-04-05T11:55:11.983Z</time></trkpt><trkpt lat="43.1504178" lon="12.4644953"><ele>200.0</ele><time>2026-04-05T11:55:12.983Z</time></trkpt><trkpt lat="43.1506711" lon="12.4644132"><ele>200.0</ele><time>2026-04-05T11:55:13.983Z</time></trkpt><trkpt lat="43.1509234" lon="12.4643334"><ele>201.0</ele><time>2026-04-05T11:55:14.983Z</time></trkpt><trkpt lat="43.1511754" lon="12.4642517"><ele>202.0</ele><time>2026-04-05T11:55:15.983Z</time></trkpt><trkpt lat="43.1514268" lon="12.4641673"><ele>202.5</ele><time>2026-04-05T11:55:16.983Z</time></trkpt><trkpt lat="43.1516778" lon="12.4640843"><ele>203.0</ele><time>2026-04-05T11:55:17.982Z</time></trkpt><trkpt lat="43.1519306" lon="12.4640037"><ele>203.0</ele><time>2026-04-05T11:55:18.983Z</time></trkpt><trkpt lat="43.152183" lon="12.4639247"><ele>203.0</ele><time>2026-04-05T11:55:19.983Z</time></trkpt><trkpt lat="43.1524323" lon="12.4638353"><ele>202.5</ele><time>2026-04-05T11:55:20.983Z</time></trkpt><trkpt lat="43.1526932" lon="12.463758"><ele>202.0</ele><time>2026-04-05T11:55:21.983Z</time></trkpt><trkpt lat="43.152946" lon="12.4636719"><ele>202.0</ele><time>2026-04-05T11:55:22.983Z</time></trkpt><trkpt lat="43.1532033" lon="12.463602"><ele>202.0</ele><time>2026-04-05T11:55:23.983Z</time></trkpt><trkpt lat="43.1534598" lon="12.4635156"><ele>203.5</ele><time>2026-04-05T11:55:24.982Z</time></trkpt><trkpt lat="43.1537188" lon="12.4634329"><ele>205.0</ele><time>2026-04-05T11:55:25.983Z</time></trkpt><trkpt lat="43.1539786" lon="12.4633535"><ele>206.5</ele><time>2026-04-05T11:55:26.982Z</time></trkpt><trkpt lat="43.1542373" lon="12.463268"><ele>208.0</ele><time>2026-04-05T11:55:27.983Z</time></trkpt><trkpt lat="43.1544985" lon="12.4631808"><ele>208.0</ele><time>2026-04-05T11:55:28.983Z</time></trkpt><trkpt lat="43.154764" lon="12.4631032"><ele>208.0</ele><time>2026-04-05T11:55:29.983Z</time></trkpt><trkpt lat="43.1550241" lon="12.4630206"><ele>206.5</ele><time>2026-04-05T11:55:30.982Z</time></trkpt><trkpt lat="43.155281" lon="12.4629383"><ele>205.0</ele><time>2026-04-05T11:55:31.983Z</time></trkpt><trkpt lat="43.1555421" lon="12.4628552"><ele>206.0</ele><time>2026-04-05T11:55:32.983Z</time></trkpt><trkpt lat="43.1558013" lon="12.4627695"><ele>207.0</ele><time>2026-04-05T11:55:33.983Z</time></trkpt><trkpt lat="43.1560621" lon="12.4626873"><ele>207.0</ele><time>2026-04-05T11:55:34.983Z</time></trkpt><trkpt lat="43.1563198" lon="12.4626108"><ele>207.0</ele><time>2026-04-05T11:55:35.983Z</time></trkpt><trkpt lat="43.1565695" lon="12.4625315"><ele>207.5</ele><time>2026-04-05T11:55:36.983Z</time></trkpt><trkpt lat="43.1568227" lon="12.4624482"><ele>208.0</ele><time>2026-04-05T11:55:37.983Z</time></trkpt><trkpt lat="43.1570815" lon="12.4623592"><ele>208.0</ele><time>2026-04-05T11:55:38.983Z</time></trkpt><trkpt lat="43.1573358" lon="12.4622635"><ele>208.0</ele><time>2026-04-05T11:55:39.983Z</time></trkpt><trkpt lat="43.1575868" lon="12.4621679"><ele>208.5</ele><time>2026-04-05T11:55:40.983Z</time></trkpt><trkpt lat="43.157835" lon="12.4620611"><ele>209.0</ele><time>2026-04-05T11:55:41.983Z</time></trkpt><trkpt lat="43.1580806" lon="12.4619468"><ele>209.0</ele><time>2026-04-05T11:55:42.983Z</time></trkpt><trkpt lat="43.1583253" lon="12.4618176"><ele>209.0</ele><time>2026-04-05T11:55:43.982Z</time></trkpt><trkpt lat="43.1585701" lon="12.4616881"><ele>209.0</ele><time>2026-04-05T11:55:44.983Z</time></trkpt><trkpt lat="43.158819" lon="12.461545"><ele>209.0</ele><time>2026-04-05T11:55:45.983Z</time></trkpt><trkpt lat="43.1590609" lon="12.4613938"><ele>210.0</ele><time>2026-04-05T11:55:46.982Z</time></trkpt><trkpt lat="43.1593024" lon="12.4612372"><ele>211.0</ele><time>2026-04-05T11:55:47.983Z</time></trkpt><trkpt lat="43.1595427" lon="12.4610721"><ele>211.0</ele><time>2026-04-05T11:55:48.982Z</time></trkpt><trkpt lat="43.1597781" lon="12.4609012"><ele>211.0</ele><time>2026-04-05T11:55:49.982Z</time></trkpt><trkpt lat="43.1600076" lon="12.460717"><ele>211.5</ele><time>2026-04-05T11:55:50.983Z</time></trkpt><trkpt lat="43.1602323" lon="12.4605207"><ele>212.0</ele><time>2026-04-05T11:55:51.982Z</time></trkpt><trkpt lat="43.1604566" lon="12.4603233"><ele>212.0</ele><time>2026-04-05T11:55:52.983Z</time></trkpt><trkpt lat="43.1606813" lon="12.4601074"><ele>212.0</ele><time>2026-04-05T11:55:53.982Z</time></trkpt><trkpt lat="43.1608981" lon="12.4598872"><ele>212.0</ele><time>2026-04-05T11:55:54.983Z</time></trkpt><trkpt lat="43.1611114" lon="12.4596666"><ele>212.0</ele><time>2026-04-05T11:55:55.983Z</time></trkpt><trkpt lat="43.1613241" lon="12.4594374"><ele>212.5</ele><time>2026-04-05T11:55:56.983Z</time></trkpt><trkpt lat="43.1615328" lon="12.4592017"><ele>213.0</ele><time>2026-04-05T11:55:57.983Z</time></trkpt><trkpt lat="43.1617347" lon="12.4589591"><ele>213.5</ele><time>2026-04-05T11:55:58.983Z</time></trkpt><trkpt lat="43.1619329" lon="12.4587069"><ele>214.0</ele><time>2026-04-05T11:55:59.982Z</time></trkpt><trkpt lat="43.1621413" lon="12.458446"><ele>214.0</ele><time>2026-04-05T11:56:00.983Z</time></trkpt><trkpt lat="43.1623455" lon="12.4581842"><ele>214.0</ele><time>2026-04-05T11:56:01.982Z</time></trkpt><trkpt lat="43.162546" lon="12.457926"><ele>214.0</ele><time>2026-04-05T11:56:02.983Z</time></trkpt><trkpt lat="43.162744" lon="12.4576573"><ele>214.0</ele><time>2026-04-05T11:56:03.983Z</time></trkpt><trkpt lat="43.1629449" lon="12.4573988"><ele>214.0</ele><time>2026-04-05T11:56:04.983Z</time></trkpt><trkpt lat="43.1631489" lon="12.4571358"><ele>214.0</ele><time>2026-04-05T11:56:05.982Z</time></trkpt><trkpt lat="43.1633535" lon="12.4568758"><ele>214.0</ele><time>2026-04-05T11:56:06.983Z</time></trkpt><trkpt lat="43.1635561" lon="12.4566162"><ele>214.0</ele><time>2026-04-05T11:56:07.983Z</time></trkpt><trkpt lat="43.163762" lon="12.4563539"><ele>214.0</ele><time>2026-04-05T11:56:08.982Z</time></trkpt><trkpt lat="43.1639676" lon="12.4560886"><ele>214.0</ele><time>2026-04-05T11:56:09.983Z</time></trkpt><trkpt lat="43.1641712" lon="12.4558138"><ele>214.5</ele><time>2026-04-05T11:56:10.983Z</time></trkpt><trkpt lat="43.1643778" lon="12.4555503"><ele>215.0</ele><time>2026-04-05T11:56:11.983Z</time></trkpt><trkpt lat="43.1645851" lon="12.4552846"><ele>215.0</ele><time>2026-04-05T11:56:12.983Z</time></trkpt><trkpt lat="43.1647896" lon="12.4550212"><ele>215.0</ele><time>2026-04-05T11:56:13.983Z</time></trkpt><trkpt lat="43.1649986" lon="12.454752"><ele>213.0</ele><time>2026-04-05T11:56:14.982Z</time></trkpt><trkpt lat="43.1652033" lon="12.4544907"><ele>211.0</ele><time>2026-04-05T11:56:15.983Z</time></trkpt><trkpt lat="43.1654103" lon="12.4542325"><ele>211.0</ele><time>2026-04-05T11:56:16.983Z</time></trkpt><trkpt lat="43.1656101" lon="12.4539797"><ele>211.0</ele><time>2026-04-05T11:56:17.983Z</time></trkpt><trkpt lat="43.1658115" lon="12.4537257"><ele>212.0</ele><time>2026-04-05T11:56:18.983Z</time></trkpt><trkpt lat="43.1660097" lon="12.4534676"><ele>213.0</ele><time>2026-04-05T11:56:19.983Z</time></trkpt><trkpt lat="43.1662072" lon="12.4532123"><ele>213.0</ele><time>2026-04-05T11:56:20.982Z</time></trkpt><trkpt lat="43.1664019" lon="12.452962"><ele>213.0</ele><time>2026-04-05T11:56:21.983Z</time></trkpt><trkpt lat="43.1666043" lon="12.4526956"><ele>213.0</ele><time>2026-04-05T11:56:22.983Z</time></trkpt><trkpt lat="43.1668057" lon="12.4524328"><ele>213.0</ele><time>2026-04-05T11:56:23.982Z</time></trkpt><trkpt lat="43.167003" lon="12.4521838"><ele>213.0</ele><time>2026-04-05T11:56:24.983Z</time></trkpt><trkpt lat="43.1672002" lon="12.4519306"><ele>213.0</ele><time>2026-04-05T11:56:25.983Z</time></trkpt><trkpt lat="43.1673956" lon="12.4516708"><ele>213.0</ele><time>2026-04-05T11:56:26.982Z</time></trkpt><trkpt lat="43.1675927" lon="12.4514207"><ele>213.0</ele><time>2026-04-05T11:56:27.983Z</time></trkpt><trkpt lat="43.1677918" lon="12.4511663"><ele>212.0</ele><time>2026-04-05T11:56:28.982Z</time></trkpt><trkpt lat="43.1679891" lon="12.4509009"><ele>211.0</ele><time>2026-04-05T11:56:29.982Z</time></trkpt><trkpt lat="43.1681865" lon="12.4506487"><ele>211.0</ele><time>2026-04-05T11:56:30.983Z</time></trkpt><trkpt lat="43.1683875" lon="12.4503964"><ele>211.0</ele><time>2026-04-05T11:56:31.983Z</time></trkpt><trkpt lat="43.1685889" lon="12.4501472"><ele>211.0</ele><time>2026-04-05T11:56:32.983Z</time></trkpt><trkpt lat="43.1687923" lon="12.4499012"><ele>211.0</ele><time>2026-04-05T11:56:33.983Z</time></trkpt><trkpt lat="43.169006" lon="12.4496724"><ele>211.5</ele><time>2026-04-05T11:56:34.983Z</time></trkpt><trkpt lat="43.1692246" lon="12.4494374"><ele>212.0</ele><time>2026-04-05T11:56:35.983Z</time></trkpt><trkpt lat="43.1694362" lon="12.4492169"><ele>212.0</ele><time>2026-04-05T11:56:36.982Z</time></trkpt><trkpt lat="43.1696518" lon="12.4489858"><ele>212.0</ele><time>2026-04-05T11:56:37.983Z</time></trkpt><trkpt lat="43.169867" lon="12.448761"><ele>212.5</ele><time>2026-04-05T11:56:38.982Z</time></trkpt><trkpt lat="43.1700845" lon="12.4485319"><ele>213.0</ele><time>2026-04-05T11:56:39.983Z</time></trkpt><trkpt lat="43.170304" lon="12.4483132"><ele>213.0</ele><time>2026-04-05T11:56:40.983Z</time></trkpt><trkpt lat="43.1705285" lon="12.4480924"><ele>213.0</ele><time>2026-04-05T11:56:41.982Z</time></trkpt><trkpt lat="43.1707589" lon="12.4478882"><ele>213.5</ele><time>2026-04-05T11:56:42.982Z</time></trkpt><trkpt lat="43.1709875" lon="12.447676"><ele>214.0</ele><time>2026-04-05T11:56:43.983Z</time></trkpt><trkpt lat="43.1712189" lon="12.4474634"><ele>214.0</ele><time>2026-04-05T11:56:44.982Z</time></trkpt><trkpt lat="43.1714529" lon="12.4472598"><ele>214.0</ele><time>2026-04-05T11:56:45.983Z</time></trkpt><trkpt lat="43.1716835" lon="12.4470655"><ele>214.0</ele><time>2026-04-05T11:56:46.983Z</time></trkpt><trkpt lat="43.1719169" lon="12.4468745"><ele>214.0</ele><time>2026-04-05T11:56:47.982Z</time></trkpt><trkpt lat="43.1721583" lon="12.4466864"><ele>213.5</ele><time>2026-04-05T11:56:48.983Z</time></trkpt><trkpt lat="43.1723948" lon="12.446491"><ele>213.0</ele><time>2026-04-05T11:56:49.983Z</time></trkpt><trkpt lat="43.1726322" lon="12.4463011"><ele>213.0</ele><time>2026-04-05T11:56:50.983Z</time></trkpt><trkpt lat="43.1728678" lon="12.4461104"><ele>213.0</ele><time>2026-04-05T11:56:51.982Z</time></trkpt><trkpt lat="43.1731041" lon="12.4459145"><ele>214.0</ele><time>2026-04-05T11:56:52.983Z</time></trkpt><trkpt lat="43.173345" lon="12.4457205"><ele>215.0</ele><time>2026-04-05T11:56:53.983Z</time></trkpt><trkpt lat="43.1735833" lon="12.4455273"><ele>214.0</ele><time>2026-04-05T11:56:54.982Z</time></trkpt><trkpt lat="43.1738206" lon="12.4453367"><ele>213.0</ele><time>2026-04-05T11:56:55.982Z</time></trkpt><trkpt lat="43.1740507" lon="12.4451446"><ele>213.0</ele><time>2026-04-05T11:56:56.983Z</time></trkpt><trkpt lat="43.1742875" lon="12.4449558"><ele>213.0</ele><time>2026-04-05T11:56:57.983Z</time></trkpt><trkpt lat="43.1745247" lon="12.4447723"><ele>212.5</ele><time>2026-04-05T11:56:58.983Z</time></trkpt><trkpt lat="43.1747582" lon="12.4445905"><ele>212.0</ele><time>2026-04-05T11:56:59.983Z</time></trkpt><trkpt lat="43.1749926" lon="12.4444053"><ele>211.0</ele><time>2026-04-05T11:57:00.983Z</time></trkpt><trkpt lat="43.1752283" lon="12.444224"><ele>210.0</ele><time>2026-04-05T11:57:01.983Z</time></trkpt><trkpt lat="43.1754696" lon="12.4440517"><ele>211.5</ele><time>2026-04-05T11:57:02.982Z</time></trkpt><trkpt lat="43.1757086" lon="12.4438816"><ele>213.0</ele><time>2026-04-05T11:57:03.983Z</time></trkpt><trkpt lat="43.1759402" lon="12.4437121"><ele>213.0</ele><time>2026-04-05T11:57:04.983Z</time></trkpt><trkpt lat="43.1761743" lon="12.4435351"><ele>213.0</ele><time>2026-04-05T11:57:05.983Z</time></trkpt><trkpt lat="43.1764096" lon="12.4433567"><ele>215.0</ele><time>2026-04-05T11:57:06.983Z</time></trkpt><trkpt lat="43.1766397" lon="12.4431755"><ele>217.0</ele><time>2026-04-05T11:57:07.983Z</time></trkpt><trkpt lat="43.1768808" lon="12.442987"><ele>216.5</ele><time>2026-04-05T11:57:08.983Z</time></trkpt><trkpt lat="43.17711" lon="12.4428103"><ele>216.0</ele><time>2026-04-05T11:57:09.983Z</time></trkpt><trkpt lat="43.1773396" lon="12.4426327"><ele>216.0</ele><time>2026-04-05T11:57:10.983Z</time></trkpt><trkpt lat="43.1775671" lon="12.4424576"><ele>216.0</ele><time>2026-04-05T11:57:11.983Z</time></trkpt><trkpt lat="43.1777964" lon="12.4422814"><ele>216.5</ele><time>2026-04-05T11:57:12.983Z</time></trkpt><trkpt lat="43.1780221" lon="12.4421007"><ele>217.0</ele><time>2026-04-05T11:57:13.983Z</time></trkpt><trkpt lat="43.1782473" lon="12.4419244"><ele>217.0</ele><time>2026-04-05T11:57:14.982Z</time></trkpt><trkpt lat="43.1784731" lon="12.441737"><ele>217.0</ele><time>2026-04-05T11:57:15.982Z</time></trkpt><trkpt lat="43.1786967" lon="12.4415635"><ele>217.0</ele><time>2026-04-05T11:57:16.983Z</time></trkpt><trkpt lat="43.1789222" lon="12.4413889"><ele>217.0</ele><time>2026-04-05T11:57:17.983Z</time></trkpt><trkpt lat="43.1791472" lon="12.4412179"><ele>218.5</ele><time>2026-04-05T11:57:18.982Z</time></trkpt><trkpt lat="43.1793802" lon="12.4410465"><ele>220.0</ele><time>2026-04-05T11:57:19.982Z</time></trkpt><trkpt lat="43.1796085" lon="12.4408719"><ele>220.0</ele><time>2026-04-05T11:57:20.983Z</time></trkpt><trkpt lat="43.1798333" lon="12.4406934"><ele>220.0</ele><time>2026-04-05T11:57:21.983Z</time></trkpt><trkpt lat="43.1800626" lon="12.4405188"><ele>218.5</ele><time>2026-04-05T11:57:22.982Z</time></trkpt><trkpt lat="43.1802904" lon="12.440343"><ele>217.0</ele><time>2026-04-05T11:57:23.983Z</time></trkpt><trkpt lat="43.1805138" lon="12.4401776"><ele>218.5</ele><time>2026-04-05T11:57:24.983Z</time></trkpt><trkpt lat="43.180742" lon="12.4399915"><ele>220.0</ele><time>2026-04-05T11:57:25.983Z</time></trkpt><trkpt lat="43.1809658" lon="12.4398126"><ele>220.0</ele><time>2026-04-05T11:57:26.983Z</time></trkpt><trkpt lat="43.1811924" lon="12.4396353"><ele>220.0</ele><time>2026-04-05T11:57:27.983Z</time></trkpt><trkpt lat="43.1814212" lon="12.4394602"><ele>219.5</ele><time>2026-04-05T11:57:28.983Z</time></trkpt><trkpt lat="43.1816458" lon="12.439279"><ele>219.0</ele><time>2026-04-05T11:57:29.982Z</time></trkpt><trkpt lat="43.1818723" lon="12.4391058"><ele>219.0</ele><time>2026-04-05T11:57:30.983Z</time></trkpt><trkpt lat="43.1820948" lon="12.4389328"><ele>219.0</ele><time>2026-04-05T11:57:31.983Z</time></trkpt><trkpt lat="43.1823178" lon="12.4387559"><ele>218.5</ele><time>2026-04-05T11:57:32.983Z</time></trkpt><trkpt lat="43.1825436" lon="12.4385728"><ele>218.0</ele><time>2026-04-05T11:57:33.983Z</time></trkpt><trkpt lat="43.1827661" lon="12.4383998"><ele>218.0</ele><time>2026-04-05T11:57:34.983Z</time></trkpt><trkpt lat="43.1829961" lon="12.4382222"><ele>218.0</ele><time>2026-04-05T11:57:35.983Z</time></trkpt><trkpt lat="43.1832173" lon="12.4380461"><ele>218.0</ele><time>2026-04-05T11:57:36.983Z</time></trkpt><trkpt lat="43.1834413" lon="12.4378676"><ele>218.0</ele><time>2026-04-05T11:57:37.983Z</time></trkpt><trkpt lat="43.1836675" lon="12.4376913"><ele>218.0</ele><time>2026-04-05T11:57:38.982Z</time></trkpt><trkpt lat="43.1838929" lon="12.4375129"><ele>218.0</ele><time>2026-04-05T11:57:39.983Z</time></trkpt><trkpt lat="43.1841179" lon="12.4373341"><ele>218.0</ele><time>2026-04-05T11:57:40.983Z</time></trkpt><trkpt lat="43.1843453" lon="12.4371582"><ele>218.0</ele><time>2026-04-05T11:57:41.983Z</time></trkpt><trkpt lat="43.1845748" lon="12.4369814"><ele>218.0</ele><time>2026-04-05T11:57:42.982Z</time></trkpt><trkpt lat="43.1848008" lon="12.4368021"><ele>218.0</ele><time>2026-04-05T11:57:43.983Z</time></trkpt><trkpt lat="43.1850268" lon="12.4366165"><ele>218.0</ele><time>2026-04-05T11:57:44.983Z</time></trkpt><trkpt lat="43.1852402" lon="12.4364249"><ele>218.0</ele><time>2026-04-05T11:57:45.983Z</time></trkpt><trkpt lat="43.1854708" lon="12.4362418"><ele>218.5</ele><time>2026-04-05T11:57:46.983Z</time></trkpt><trkpt lat="43.1856921" lon="12.4360509"><ele>219.0</ele><time>2026-04-05T11:57:47.983Z</time></trkpt><trkpt lat="43.1859158" lon="12.4358663"><ele>219.0</ele><time>2026-04-05T11:57:48.983Z</time></trkpt><trkpt lat="43.1861473" lon="12.435677"><ele>219.0</ele><time>2026-04-05T11:57:49.983Z</time></trkpt><trkpt lat="43.1863701" lon="12.4354917"><ele>219.5</ele><time>2026-04-05T11:57:50.983Z</time></trkpt><trkpt lat="43.1865951" lon="12.435299"><ele>220.0</ele><time>2026-04-05T11:57:51.983Z</time></trkpt><trkpt lat="43.186813" lon="12.4350986"><ele>220.0</ele><time>2026-04-05T11:57:52.983Z</time></trkpt><trkpt lat="43.1870361" lon="12.4348968"><ele>220.0</ele><time>2026-04-05T11:57:53.983Z</time></trkpt><trkpt lat="43.1872534" lon="12.4347003"><ele>220.5</ele><time>2026-04-05T11:57:54.983Z</time></trkpt><trkpt lat="43.1874681" lon="12.4344953"><ele>221.0</ele><time>2026-04-05T11:57:55.983Z</time></trkpt><trkpt lat="43.1876781" lon="12.4342934"><ele>221.0</ele><time>2026-04-05T11:57:56.983Z</time></trkpt><trkpt lat="43.1878995" lon="12.4340995"><ele>221.0</ele><time>2026-04-05T11:57:57.983Z</time></trkpt><trkpt lat="43.188113" lon="12.4339016"><ele>222.0</ele><time>2026-04-05T11:57:58.983Z</time></trkpt><trkpt lat="43.1883259" lon="12.4337001"><ele>223.0</ele><time>2026-04-05T11:57:59.983Z</time></trkpt><trkpt lat="43.1885343" lon="12.4335031"><ele>223.0</ele><time>2026-04-05T11:58:00.983Z</time></trkpt><trkpt lat="43.1887452" lon="12.4333006"><ele>223.0</ele><time>2026-04-05T11:58:01.983Z</time></trkpt><trkpt lat="43.1889571" lon="12.4331064"><ele>223.0</ele><time>2026-04-05T11:58:02.983Z</time></trkpt><trkpt lat="43.1891667" lon="12.4329087"><ele>223.0</ele><time>2026-04-05T11:58:03.983Z</time></trkpt><trkpt lat="43.189374" lon="12.4327114"><ele>223.0</ele><time>2026-04-05T11:58:04.982Z</time></trkpt><trkpt lat="43.189583" lon="12.4325242"><ele>223.0</ele><time>2026-04-05T11:58:05.983Z</time></trkpt><trkpt lat="43.1897877" lon="12.4323292"><ele>224.0</ele><time>2026-04-05T11:58:06.982Z</time></trkpt><trkpt lat="43.1899929" lon="12.4321357"><ele>225.0</ele><time>2026-04-05T11:58:07.983Z</time></trkpt><trkpt lat="43.1902024" lon="12.431936"><ele>225.0</ele><time>2026-04-05T11:58:08.983Z</time></trkpt><trkpt lat="43.1904087" lon="12.4317395"><ele>225.0</ele><time>2026-04-05T11:58:09.983Z</time></trkpt><trkpt lat="43.1906187" lon="12.4315435"><ele>224.5</ele><time>2026-04-05T11:58:10.983Z</time></trkpt><trkpt lat="43.1908286" lon="12.4313427"><ele>224.0</ele><time>2026-04-05T11:58:11.983Z</time></trkpt><trkpt lat="43.1910426" lon="12.4311427"><ele>224.0</ele><time>2026-04-05T11:58:12.983Z</time></trkpt><trkpt lat="43.1912576" lon="12.4309479"><ele>224.0</ele><time>2026-04-05T11:58:13.983Z</time></trkpt><trkpt lat="43.191479" lon="12.4307404"><ele>224.5</ele><time>2026-04-05T11:58:14.982Z</time></trkpt><trkpt lat="43.1916931" lon="12.4305362"><ele>225.0</ele><time>2026-04-05T11:58:15.982Z</time></trkpt><trkpt lat="43.1919084" lon="12.4303328"><ele>225.5</ele><time>2026-04-05T11:58:16.983Z</time></trkpt><trkpt lat="43.1921251" lon="12.4301303"><ele>226.0</ele><time>2026-04-05T11:58:17.983Z</time></trkpt><trkpt lat="43.1923406" lon="12.4299328"><ele>226.0</ele><time>2026-04-05T11:58:18.983Z</time></trkpt><trkpt lat="43.1925541" lon="12.4297198"><ele>226.0</ele><time>2026-04-05T11:58:19.983Z</time></trkpt><trkpt lat="43.1927717" lon="12.4295157"><ele>226.5</ele><time>2026-04-05T11:58:20.983Z</time></trkpt><trkpt lat="43.1929854" lon="12.4293099"><ele>227.0</ele><time>2026-04-05T11:58:21.983Z</time></trkpt><trkpt lat="43.1932018" lon="12.429107"><ele>227.0</ele><time>2026-04-05T11:58:22.983Z</time></trkpt><trkpt lat="43.1934184" lon="12.4289029"><ele>227.0</ele><time>2026-04-05T11:58:23.982Z</time></trkpt><trkpt lat="43.1936369" lon="12.4287005"><ele>226.5</ele><time>2026-04-05T11:58:24.983Z</time></trkpt><trkpt lat="43.1938599" lon="12.4284948"><ele>226.0</ele><time>2026-04-05T11:58:25.983Z</time></trkpt><trkpt lat="43.1940766" lon="12.4282919"><ele>226.0</ele><time>2026-04-05T11:58:26.983Z</time></trkpt><trkpt lat="43.1942924" lon="12.4280922"><ele>226.0</ele><time>2026-04-05T11:58:27.983Z</time></trkpt><trkpt lat="43.194509" lon="12.4278867"><ele>224.5</ele><time>2026-04-05T11:58:28.983Z</time></trkpt><trkpt lat="43.1947273" lon="12.4276756"><ele>223.0</ele><time>2026-04-05T11:58:29.983Z</time></trkpt><trkpt lat="43.1949487" lon="12.427472"><ele>223.0</ele><time>2026-04-05T11:58:30.982Z</time></trkpt><trkpt lat="43.1951665" lon="12.4272726"><ele>223.0</ele><time>2026-04-05T11:58:31.982Z</time></trkpt><trkpt lat="43.1953811" lon="12.427071"><ele>222.5</ele><time>2026-04-05T11:58:32.982Z</time></trkpt><trkpt lat="43.1955967" lon="12.4268637"><ele>222.0</ele><time>2026-04-05T11:58:33.983Z</time></trkpt><trkpt lat="43.1958088" lon="12.4266591"><ele>222.0</ele><time>2026-04-05T11:58:34.983Z</time></trkpt><trkpt lat="43.196025" lon="12.4264528"><ele>222.0</ele><time>2026-04-05T11:58:35.983Z</time></trkpt><trkpt lat="43.1962374" lon="12.4262436"><ele>222.0</ele><time>2026-04-05T11:58:36.983Z</time></trkpt><trkpt lat="43.1964472" lon="12.4260191"><ele>222.0</ele><time>2026-04-05T11:58:37.983Z</time></trkpt><trkpt lat="43.1966434" lon="12.4257894"><ele>222.0</ele><time>2026-04-05T11:58:38.983Z</time></trkpt><trkpt lat="43.1968406" lon="12.4255551"><ele>222.0</ele><time>2026-04-05T11:58:39.983Z</time></trkpt><trkpt lat="43.197027" lon="12.4253084"><ele>221.0</ele><time>2026-04-05T11:58:40.983Z</time></trkpt><trkpt lat="43.1972072" lon="12.4250566"><ele>220.0</ele><time>2026-04-05T11:58:41.983Z</time></trkpt><trkpt lat="43.197387" lon="12.4247972"><ele>219.0</ele><time>2026-04-05T11:58:42.983Z</time></trkpt><trkpt lat="43.1975517" lon="12.424534"><ele>218.0</ele><time>2026-04-05T11:58:43.983Z</time></trkpt><trkpt lat="43.1977106" lon="12.4242632"><ele>218.0</ele><time>2026-04-05T11:58:44.982Z</time></trkpt><trkpt lat="43.1978706" lon="12.4239885"><ele>218.0</ele><time>2026-04-05T11:58:45.982Z</time></trkpt><trkpt lat="43.1980209" lon="12.4237099"><ele>218.0</ele><time>2026-04-05T11:58:46.983Z</time></trkpt><trkpt lat="43.1981651" lon="12.423422"><ele>218.0</ele><time>2026-04-05T11:58:47.983Z</time></trkpt><trkpt lat="43.1983049" lon="12.4231422"><ele>218.0</ele><time>2026-04-05T11:58:48.983Z</time></trkpt><trkpt lat="43.1984402" lon="12.4228584"><ele>218.0</ele><time>2026-04-05T11:58:49.982Z</time></trkpt><trkpt lat="43.1985787" lon="12.4225682"><ele>218.0</ele><time>2026-04-05T11:58:50.982Z</time></trkpt><trkpt lat="43.1987122" lon="12.4222821"><ele>218.0</ele><time>2026-04-05T11:58:51.982Z</time></trkpt><trkpt lat="43.1988498" lon="12.4219983"><ele>218.0</ele><time>2026-04-05T11:58:52.982Z</time></trkpt><trkpt lat="43.19898" lon="12.4217171"><ele>218.0</ele><time>2026-04-05T11:58:53.983Z</time></trkpt><trkpt lat="43.1991167" lon="12.4214335"><ele>218.0</ele><time>2026-04-05T11:58:54.983Z</time></trkpt><trkpt lat="43.1992584" lon="12.4211597"><ele>218.0</ele><time>2026-04-05T11:58:55.983Z</time></trkpt><trkpt lat="43.1994093" lon="12.4208878"><ele>218.0</ele><time>2026-04-05T11:58:56.983Z</time></trkpt><trkpt lat="43.1995675" lon="12.4206284"><ele>218.0</ele><time>2026-04-05T11:58:57.983Z</time></trkpt><trkpt lat="43.1997357" lon="12.4203784"><ele>218.0</ele><time>2026-04-05T11:58:58.983Z</time></trkpt><trkpt lat="43.1999065" lon="12.4201342"><ele>218.0</ele><time>2026-04-05T11:58:59.983Z</time></trkpt><trkpt lat="43.2000843" lon="12.4198928"><ele>218.0</ele><time>2026-04-05T11:59:00.983Z</time></trkpt><trkpt lat="43.2002674" lon="12.4196675"><ele>218.0</ele><time>2026-04-05T11:59:01.982Z</time></trkpt><trkpt lat="43.2004583" lon="12.419446"><ele>217.5</ele><time>2026-04-05T11:59:02.982Z</time></trkpt><trkpt lat="43.2006548" lon="12.4192392"><ele>217.0</ele><time>2026-04-05T11:59:03.983Z</time></trkpt><trkpt lat="43.200862" lon="12.4190299"><ele>217.0</ele><time>2026-04-05T11:59:04.983Z</time></trkpt><trkpt lat="43.2010708" lon="12.4188379"><ele>217.0</ele><time>2026-04-05T11:59:05.983Z</time></trkpt><trkpt lat="43.2012794" lon="12.4186544"><ele>216.5</ele><time>2026-04-05T11:59:06.983Z</time></trkpt><trkpt lat="43.2014945" lon="12.4184861"><ele>216.0</ele><time>2026-04-05T11:59:07.983Z</time></trkpt><trkpt lat="43.201714" lon="12.4183211"><ele>216.0</ele><time>2026-04-05T11:59:08.983Z</time></trkpt><trkpt lat="43.2019399" lon="12.4181724"><ele>216.0</ele><time>2026-04-05T11:59:09.983Z</time></trkpt><trkpt lat="43.2021685" lon="12.4180331"><ele>216.0</ele><time>2026-04-05T11:59:10.983Z</time></trkpt><trkpt lat="43.2024023" lon="12.4179011"><ele>216.0</ele><time>2026-04-05T11:59:11.982Z</time></trkpt><trkpt lat="43.202632" lon="12.4177761"><ele>216.0</ele><time>2026-04-05T11:59:12.983Z</time></trkpt><trkpt lat="43.2028652" lon="12.4176561"><ele>216.0</ele><time>2026-04-05T11:59:13.983Z</time></trkpt><trkpt lat="43.2031017" lon="12.4175398"><ele>216.5</ele><time>2026-04-05T11:59:14.982Z</time></trkpt><trkpt lat="43.2033437" lon="12.4174189"><ele>217.0</ele><time>2026-04-05T11:59:15.982Z</time></trkpt><trkpt lat="43.2035834" lon="12.4172997"><ele>217.0</ele><time>2026-04-05T11:59:16.983Z</time></trkpt><trkpt lat="43.2038172" lon="12.4171791"><ele>217.0</ele><time>2026-04-05T11:59:17.983Z</time></trkpt><trkpt lat="43.2040496" lon="12.4170558"><ele>215.5</ele><time>2026-04-05T11:59:18.982Z</time></trkpt><trkpt lat="43.204286" lon="12.4169389"><ele>214.0</ele><time>2026-04-05T11:59:19.983Z</time></trkpt><trkpt lat="43.2045291" lon="12.41681"><ele>214.0</ele><time>2026-04-05T11:59:20.983Z</time></trkpt><trkpt lat="43.204765" lon="12.4166883"><ele>214.0</ele><time>2026-04-05T11:59:21.982Z</time></trkpt><trkpt lat="43.2050065" lon="12.4165582"><ele>215.5</ele><time>2026-04-05T11:59:22.983Z</time></trkpt><trkpt lat="43.205249" lon="12.416432"><ele>217.0</ele><time>2026-04-05T11:59:23.983Z</time></trkpt><trkpt lat="43.2054873" lon="12.416305"><ele>217.0</ele><time>2026-04-05T11:59:24.983Z</time></trkpt><trkpt lat="43.2057281" lon="12.4161809"><ele>217.0</ele><time>2026-04-05T11:59:25.983Z</time></trkpt><trkpt lat="43.2059699" lon="12.4160507"><ele>217.0</ele><time>2026-04-05T11:59:26.983Z</time></trkpt><trkpt lat="43.2062135" lon="12.4159255"><ele>217.0</ele><time>2026-04-05T11:59:27.983Z</time></trkpt><trkpt lat="43.206456" lon="12.4157992"><ele>218.0</ele><time>2026-04-05T11:59:28.983Z</time></trkpt><trkpt lat="43.2067015" lon="12.4156767"><ele>219.0</ele><time>2026-04-05T11:59:29.982Z</time></trkpt><trkpt lat="43.2069455" lon="12.41555"><ele>218.5</ele><time>2026-04-05T11:59:30.982Z</time></trkpt><trkpt lat="43.2071896" lon="12.4154262"><ele>218.0</ele><time>2026-04-05T11:59:31.982Z</time></trkpt><trkpt lat="43.2074389" lon="12.4152931"><ele>217.0</ele><time>2026-04-05T11:59:32.983Z</time></trkpt><trkpt lat="43.2076852" lon="12.4151618"><ele>216.0</ele><time>2026-04-05T11:59:33.983Z</time></trkpt><trkpt lat="43.2079369" lon="12.4150353"><ele>216.5</ele><time>2026-04-05T11:59:34.983Z</time></trkpt><trkpt lat="43.2081834" lon="12.4149017"><ele>217.0</ele><time>2026-04-05T11:59:35.983Z</time></trkpt><trkpt lat="43.208428" lon="12.4147677"><ele>216.0</ele><time>2026-04-05T11:59:36.983Z</time></trkpt><trkpt lat="43.2086723" lon="12.4146368"><ele>215.0</ele><time>2026-04-05T11:59:37.982Z</time></trkpt><trkpt lat="43.2089211" lon="12.4145072"><ele>216.5</ele><time>2026-04-05T11:59:38.982Z</time></trkpt><trkpt lat="43.2091703" lon="12.4143767"><ele>218.0</ele><time>2026-04-05T11:59:39.982Z</time></trkpt><trkpt lat="43.209419" lon="12.4142584"><ele>218.0</ele><time>2026-04-05T11:59:40.983Z</time></trkpt><trkpt lat="43.2096607" lon="12.4141326"><ele>218.0</ele><time>2026-04-05T11:59:41.982Z</time></trkpt><trkpt lat="43.2099093" lon="12.4140011"><ele>216.0</ele><time>2026-04-05T11:59:42.983Z</time></trkpt><trkpt lat="43.2101526" lon="12.4138691"><ele>214.0</ele><time>2026-04-05T11:59:43.983Z</time></trkpt><trkpt lat="43.2103978" lon="12.4137468"><ele>214.0</ele><time>2026-04-05T11:59:44.983Z</time></trkpt><trkpt lat="43.2106434" lon="12.4136248"><ele>214.0</ele><time>2026-04-05T11:59:45.983Z</time></trkpt><trkpt lat="43.2108834" lon="12.4135027"><ele>214.5</ele><time>2026-04-05T11:59:46.983Z</time></trkpt><trkpt lat="43.2111278" lon="12.413369"><ele>215.0</ele><time>2026-04-05T11:59:47.983Z</time></trkpt><trkpt lat="43.211362" lon="12.4132393"><ele>215.0</ele><time>2026-04-05T11:59:48.983Z</time></trkpt><trkpt lat="43.2116061" lon="12.4131129"><ele>215.0</ele><time>2026-04-05T11:59:49.982Z</time></trkpt><trkpt lat="43.2118416" lon="12.4129813"><ele>215.0</ele><time>2026-04-05T11:59:50.982Z</time></trkpt><trkpt lat="43.2120824" lon="12.4128557"><ele>215.0</ele><time>2026-04-05T11:59:51.983Z</time></trkpt><trkpt lat="43.2123212" lon="12.4127317"><ele>215.5</ele><time>2026-04-05T11:59:52.982Z</time></trkpt><trkpt lat="43.2125578" lon="12.4126071"><ele>216.0</ele><time>2026-04-05T11:59:53.983Z</time></trkpt><trkpt lat="43.2128007" lon="12.4124863"><ele>216.0</ele><time>2026-04-05T11:59:54.983Z</time></trkpt><trkpt lat="43.2130433" lon="12.4123625"><ele>216.0</ele><time>2026-04-05T11:59:55.983Z</time></trkpt><trkpt lat="43.2132924" lon="12.4122366"><ele>217.0</ele><time>2026-04-05T11:59:56.983Z</time></trkpt><trkpt lat="43.2135337" lon="12.4121059"><ele>218.0</ele><time>2026-04-05T11:59:57.983Z</time></trkpt><trkpt lat="43.2137771" lon="12.4119766"><ele>217.5</ele><time>2026-04-05T11:59:58.983Z</time></trkpt><trkpt lat="43.21402" lon="12.4118465"><ele>217.0</ele><time>2026-04-05T11:59:59.982Z</time></trkpt><trkpt lat="43.2142604" lon="12.4117233"><ele>217.0</ele><time>2026-04-05T12:00:00.983Z</time></trkpt><trkpt lat="43.2145038" lon="12.4115942"><ele>217.0</ele><time>2026-04-05T12:00:01.983Z</time></trkpt><trkpt lat="43.2147409" lon="12.4114659"><ele>217.5</ele><time>2026-04-05T12:00:02.983Z</time></trkpt><trkpt lat="43.2149851" lon="12.4113386"><ele>218.0</ele><time>2026-04-05T12:00:03.983Z</time></trkpt><trkpt lat="43.2152286" lon="12.4112164"><ele>217.0</ele><time>2026-04-05T12:00:04.982Z</time></trkpt><trkpt lat="43.2154715" lon="12.4110859"><ele>216.0</ele><time>2026-04-05T12:00:05.982Z</time></trkpt><trkpt lat="43.2157103" lon="12.4109607"><ele>216.0</ele><time>2026-04-05T12:00:06.982Z</time></trkpt><trkpt lat="43.2159502" lon="12.4108391"><ele>216.0</ele><time>2026-04-05T12:00:07.983Z</time></trkpt><trkpt lat="43.2161884" lon="12.4107112"><ele>216.0</ele><time>2026-04-05T12:00:08.983Z</time></trkpt><trkpt lat="43.2164319" lon="12.4105904"><ele>216.0</ele><time>2026-04-05T12:00:09.982Z</time></trkpt><trkpt lat="43.2166704" lon="12.4104702"><ele>215.5</ele><time>2026-04-05T12:00:10.983Z</time></trkpt><trkpt lat="43.2169116" lon="12.4103474"><ele>215.0</ele><time>2026-04-05T12:00:11.983Z</time></trkpt><trkpt lat="43.2171457" lon="12.4102284"><ele>217.0</ele><time>2026-04-05T12:00:12.982Z</time></trkpt><trkpt lat="43.2173962" lon="12.4101168"><ele>219.0</ele><time>2026-04-05T12:00:13.982Z</time></trkpt><trkpt lat="43.2176382" lon="12.4100108"><ele>219.0</ele><time>2026-04-05T12:00:14.983Z</time></trkpt><trkpt lat="43.2178849" lon="12.4099143"><ele>219.0</ele><time>2026-04-05T12:00:15.983Z</time></trkpt><trkpt lat="43.2181294" lon="12.4098184"><ele>220.5</ele><time>2026-04-05T12:00:16.983Z</time></trkpt><trkpt lat="43.2183763" lon="12.4097305"><ele>222.0</ele><time>2026-04-05T12:00:17.983Z</time></trkpt><trkpt lat="43.2186198" lon="12.4096382"><ele>222.0</ele><time>2026-04-05T12:00:18.983Z</time></trkpt><trkpt lat="43.218863" lon="12.4095579"><ele>222.0</ele><time>2026-04-05T12:00:19.983Z</time></trkpt><trkpt lat="43.2191101" lon="12.4094833"><ele>222.0</ele><time>2026-04-05T12:00:20.982Z</time></trkpt><trkpt lat="43.2193524" lon="12.4094098"><ele>222.0</ele><time>2026-04-05T12:00:21.983Z</time></trkpt><trkpt lat="43.2196057" lon="12.409332"><ele>222.5</ele><time>2026-04-05T12:00:22.983Z</time></trkpt><trkpt lat="43.2198484" lon="12.4092552"><ele>223.0</ele><time>2026-04-05T12:00:23.983Z</time></trkpt><trkpt lat="43.2200891" lon="12.4091777"><ele>223.0</ele><time>2026-04-05T12:00:24.983Z</time></trkpt><trkpt lat="43.2203327" lon="12.4090962"><ele>223.0</ele><time>2026-04-05T12:00:25.982Z</time></trkpt><trkpt lat="43.2205707" lon="12.4090163"><ele>224.5</ele><time>2026-04-05T12:00:26.983Z</time></trkpt><trkpt lat="43.2208093" lon="12.4089405"><ele>226.0</ele><time>2026-04-05T12:00:27.983Z</time></trkpt><trkpt lat="43.2210645" lon="12.4088613"><ele>226.0</ele><time>2026-04-05T12:00:28.982Z</time></trkpt><trkpt lat="43.2213061" lon="12.4087792"><ele>226.0</ele><time>2026-04-05T12:00:29.983Z</time></trkpt><trkpt lat="43.2215489" lon="12.4086948"><ele>226.0</ele><time>2026-04-05T12:00:30.983Z</time></trkpt><trkpt lat="43.2217935" lon="12.4086151"><ele>226.0</ele><time>2026-04-05T12:00:31.983Z</time></trkpt><trkpt lat="43.2220384" lon="12.4085358"><ele>226.0</ele><time>2026-04-05T12:00:32.982Z</time></trkpt><trkpt lat="43.222291" lon="12.4084591"><ele>226.0</ele><time>2026-04-05T12:00:33.983Z</time></trkpt><trkpt lat="43.2225401" lon="12.4083776"><ele>226.0</ele><time>2026-04-05T12:00:34.983Z</time></trkpt><trkpt lat="43.2227903" lon="12.4082997"><ele>226.0</ele><time>2026-04-05T12:00:35.983Z</time></trkpt><trkpt lat="43.2230364" lon="12.4082224"><ele>224.5</ele><time>2026-04-05T12:00:36.982Z</time></trkpt><trkpt lat="43.2232816" lon="12.4081503"><ele>223.0</ele><time>2026-04-05T12:00:37.983Z</time></trkpt><trkpt lat="43.2235258" lon="12.4080691"><ele>223.0</ele><time>2026-04-05T12:00:38.983Z</time></trkpt><trkpt lat="43.2237698" lon="12.4079854"><ele>223.0</ele><time>2026-04-05T12:00:39.983Z</time></trkpt><trkpt lat="43.2240135" lon="12.407905"><ele>223.5</ele><time>2026-04-05T12:00:40.982Z</time></trkpt><trkpt lat="43.2242545" lon="12.4078277"><ele>224.0</ele><time>2026-04-05T12:00:41.982Z</time></trkpt><trkpt lat="43.2244955" lon="12.4077498"><ele>224.0</ele><time>2026-04-05T12:00:42.983Z</time></trkpt><trkpt lat="43.2247384" lon="12.4076719"><ele>224.0</ele><time>2026-04-05T12:00:43.983Z</time></trkpt><trkpt lat="43.2249871" lon="12.4075901"><ele>223.5</ele><time>2026-04-05T12:00:44.983Z</time></trkpt><trkpt lat="43.2252248" lon="12.4075101"><ele>223.0</ele><time>2026-04-05T12:00:45.983Z</time></trkpt><trkpt lat="43.2254642" lon="12.407426"><ele>223.5</ele><time>2026-04-05T12:00:46.983Z</time></trkpt><trkpt lat="43.2257041" lon="12.4073496"><ele>224.0</ele><time>2026-04-05T12:00:47.982Z</time></trkpt><trkpt lat="43.2259434" lon="12.4072681"><ele>224.0</ele><time>2026-04-05T12:00:48.983Z</time></trkpt><trkpt lat="43.2261817" lon="12.4071945"><ele>224.0</ele><time>2026-04-05T12:00:49.983Z</time></trkpt><trkpt lat="43.2264244" lon="12.4071178"><ele>223.0</ele><time>2026-04-05T12:00:50.982Z</time></trkpt><trkpt lat="43.2266699" lon="12.4070424"><ele>222.0</ele><time>2026-04-05T12:00:51.983Z</time></trkpt><trkpt lat="43.2269112" lon="12.406971"><ele>222.0</ele><time>2026-04-05T12:00:52.983Z</time></trkpt><trkpt lat="43.2271508" lon="12.4068896"><ele>222.0</ele><time>2026-04-05T12:00:53.982Z</time></trkpt><trkpt lat="43.227389" lon="12.4068091"><ele>222.5</ele><time>2026-04-05T12:00:54.983Z</time></trkpt><trkpt lat="43.2276303" lon="12.4067373"><ele>223.0</ele><time>2026-04-05T12:00:55.983Z</time></trkpt><trkpt lat="43.2278727" lon="12.4066593"><ele>223.0</ele><time>2026-04-05T12:00:56.983Z</time></trkpt><trkpt lat="43.228115" lon="12.4065868"><ele>223.0</ele><time>2026-04-05T12:00:57.982Z</time></trkpt><trkpt lat="43.228356" lon="12.406511"><ele>223.0</ele><time>2026-04-05T12:00:58.983Z</time></trkpt><trkpt lat="43.2285933" lon="12.406434"><ele>223.0</ele><time>2026-04-05T12:00:59.982Z</time></trkpt><trkpt lat="43.2288348" lon="12.4063605"><ele>223.0</ele><time>2026-04-05T12:01:00.982Z</time></trkpt><trkpt lat="43.2290755" lon="12.4062804"><ele>223.0</ele><time>2026-04-05T12:01:01.983Z</time></trkpt><trkpt lat="43.229313" lon="12.4062038"><ele>223.0</ele><time>2026-04-05T12:01:02.983Z</time></trkpt><trkpt lat="43.2295518" lon="12.4061296"><ele>223.0</ele><time>2026-04-05T12:01:03.983Z</time></trkpt><trkpt lat="43.229794" lon="12.4060492"><ele>222.5</ele><time>2026-04-05T12:01:04.983Z</time></trkpt><trkpt lat="43.2300341" lon="12.4059724"><ele>222.0</ele><time>2026-04-05T12:01:05.983Z</time></trkpt><trkpt lat="43.2302713" lon="12.4058915"><ele>222.0</ele><time>2026-04-05T12:01:06.983Z</time></trkpt><trkpt lat="43.2305117" lon="12.4058182"><ele>222.0</ele><time>2026-04-05T12:01:07.983Z</time></trkpt><trkpt lat="43.2307524" lon="12.4057355"><ele>222.5</ele><time>2026-04-05T12:01:08.982Z</time></trkpt><trkpt lat="43.2309991" lon="12.405655"><ele>223.0</ele><time>2026-04-05T12:01:09.982Z</time></trkpt><trkpt lat="43.2312427" lon="12.4055721"><ele>224.0</ele><time>2026-04-05T12:01:10.983Z</time></trkpt><trkpt lat="43.2314842" lon="12.4054949"><ele>225.0</ele><time>2026-04-05T12:01:11.983Z</time></trkpt><trkpt lat="43.2317288" lon="12.4054142"><ele>225.0</ele><time>2026-04-05T12:01:12.983Z</time></trkpt><trkpt lat="43.2319695" lon="12.4053287"><ele>225.0</ele><time>2026-04-05T12:01:13.983Z</time></trkpt><trkpt lat="43.2322163" lon="12.4052464"><ele>225.0</ele><time>2026-04-05T12:01:14.983Z</time></trkpt><trkpt lat="43.2324617" lon="12.4051702"><ele>225.0</ele><time>2026-04-05T12:01:15.983Z</time></trkpt><trkpt lat="43.2327145" lon="12.4050903"><ele>225.0</ele><time>2026-04-05T12:01:16.982Z</time></trkpt><trkpt lat="43.2329589" lon="12.4050147"><ele>225.0</ele><time>2026-04-05T12:01:17.983Z</time></trkpt><trkpt lat="43.2332043" lon="12.4049414"><ele>225.0</ele><time>2026-04-05T12:01:18.982Z</time></trkpt><trkpt lat="43.2334464" lon="12.4048657"><ele>225.0</ele><time>2026-04-05T12:01:19.983Z</time></trkpt><trkpt lat="43.2336892" lon="12.4047951"><ele>225.0</ele><time>2026-04-05T12:01:20.983Z</time></trkpt><trkpt lat="43.2339354" lon="12.4047258"><ele>225.0</ele><time>2026-04-05T12:01:21.983Z</time></trkpt><trkpt lat="43.2341806" lon="12.4046627"><ele>224.5</ele><time>2026-04-05T12:01:22.983Z</time></trkpt><trkpt lat="43.2344287" lon="12.4045986"><ele>224.0</ele><time>2026-04-05T12:01:23.983Z</time></trkpt><trkpt lat="43.2346772" lon="12.4045357"><ele>225.0</ele><time>2026-04-05T12:01:24.983Z</time></trkpt><trkpt lat="43.2349253" lon="12.4044756"><ele>226.0</ele><time>2026-04-05T12:01:25.982Z</time></trkpt><trkpt lat="43.2351702" lon="12.404417"><ele>226.0</ele><time>2026-04-05T12:01:26.983Z</time></trkpt><trkpt lat="43.2354173" lon="12.4043611"><ele>226.0</ele><time>2026-04-05T12:01:27.983Z</time></trkpt><trkpt lat="43.235662" lon="12.4043041"><ele>227.5</ele><time>2026-04-05T12:01:28.983Z</time></trkpt><trkpt lat="43.2359156" lon="12.4042444"><ele>229.0</ele><time>2026-04-05T12:01:29.983Z</time></trkpt><trkpt lat="43.2361623" lon="12.4041841"><ele>229.0</ele><time>2026-04-05T12:01:30.982Z</time></trkpt><trkpt lat="43.2364049" lon="12.4041278"><ele>229.0</ele><time>2026-04-05T12:01:31.983Z</time></trkpt><trkpt lat="43.2366521" lon="12.4040751"><ele>228.5</ele><time>2026-04-05T12:01:32.982Z</time></trkpt><trkpt lat="43.236898" lon="12.40402"><ele>228.0</ele><time>2026-04-05T12:01:33.983Z</time></trkpt><trkpt lat="43.2371454" lon="12.4039624"><ele>228.0</ele><time>2026-04-05T12:01:34.983Z</time></trkpt><trkpt lat="43.2373918" lon="12.403911"><ele>228.0</ele><time>2026-04-05T12:01:35.983Z</time></trkpt><trkpt lat="43.2376385" lon="12.4038522"><ele>227.5</ele><time>2026-04-05T12:01:36.983Z</time></trkpt><trkpt lat="43.2378898" lon="12.4037932"><ele>227.0</ele><time>2026-04-05T12:01:37.983Z</time></trkpt><trkpt lat="43.2381323" lon="12.4037376"><ele>227.5</ele><time>2026-04-05T12:01:38.982Z</time></trkpt><trkpt lat="43.2383825" lon="12.4036836"><ele>228.0</ele><time>2026-04-05T12:01:39.983Z</time></trkpt><trkpt lat="43.2386282" lon="12.403628"><ele>228.0</ele><time>2026-04-05T12:01:40.983Z</time></trkpt><trkpt lat="43.2388737" lon="12.4035735"><ele>228.0</ele><time>2026-04-05T12:01:41.983Z</time></trkpt><trkpt lat="43.2391198" lon="12.4035209"><ele>227.5</ele><time>2026-04-05T12:01:42.983Z</time></trkpt><trkpt lat="43.2393638" lon="12.4034642"><ele>227.0</ele><time>2026-04-05T12:01:43.983Z</time></trkpt><trkpt lat="43.2396125" lon="12.4034083"><ele>227.0</ele><time>2026-04-05T12:01:44.983Z</time></trkpt><trkpt lat="43.2398555" lon="12.4033558"><ele>227.0</ele><time>2026-04-05T12:01:45.983Z</time></trkpt><trkpt lat="43.240096" lon="12.4032985"><ele>227.0</ele><time>2026-04-05T12:01:46.983Z</time></trkpt><trkpt lat="43.2403366" lon="12.4032426"><ele>227.0</ele><time>2026-04-05T12:01:47.983Z</time></trkpt><trkpt lat="43.240578" lon="12.4031837"><ele>227.5</ele><time>2026-04-05T12:01:48.983Z</time></trkpt><trkpt lat="43.2408229" lon="12.4031253"><ele>228.0</ele><time>2026-04-05T12:01:49.983Z</time></trkpt><trkpt lat="43.2410687" lon="12.4030706"><ele>228.0</ele><time>2026-04-05T12:01:50.983Z</time></trkpt><trkpt lat="43.2413101" lon="12.403017"><ele>228.0</ele><time>2026-04-05T12:01:51.983Z</time></trkpt><trkpt lat="43.2415562" lon="12.4029563"><ele>226.5</ele><time>2026-04-05T12:01:52.982Z</time></trkpt><trkpt lat="43.2418029" lon="12.4028994"><ele>225.0</ele><time>2026-04-05T12:01:53.983Z</time></trkpt><trkpt lat="43.2420441" lon="12.4028322"><ele>225.0</ele><time>2026-04-05T12:01:54.982Z</time></trkpt><trkpt lat="43.2422829" lon="12.4027626"><ele>225.0</ele><time>2026-04-05T12:01:55.983Z</time></trkpt><trkpt lat="43.2425241" lon="12.4026887"><ele>225.0</ele><time>2026-04-05T12:01:56.983Z</time></trkpt><trkpt lat="43.2427605" lon="12.4026016"><ele>225.0</ele><time>2026-04-05T12:01:57.983Z</time></trkpt><trkpt lat="43.2430008" lon="12.4025076"><ele>226.5</ele><time>2026-04-05T12:01:58.983Z</time></trkpt><trkpt lat="43.2432374" lon="12.4024015"><ele>228.0</ele><time>2026-04-05T12:01:59.983Z</time></trkpt><trkpt lat="43.2434694" lon="12.4022853"><ele>228.0</ele><time>2026-04-05T12:02:00.983Z</time></trkpt><trkpt lat="43.2436985" lon="12.4021664"><ele>228.0</ele><time>2026-04-05T12:02:01.983Z</time></trkpt><trkpt lat="43.2439299" lon="12.4020429"><ele>228.5</ele><time>2026-04-05T12:02:02.982Z</time></trkpt><trkpt lat="43.2441569" lon="12.4019129"><ele>229.0</ele><time>2026-04-05T12:02:03.983Z</time></trkpt><trkpt lat="43.2443863" lon="12.4017784"><ele>229.0</ele><time>2026-04-05T12:02:04.983Z</time></trkpt><trkpt lat="43.2446135" lon="12.4016325"><ele>229.0</ele><time>2026-04-05T12:02:05.983Z</time></trkpt><trkpt lat="43.2448427" lon="12.4014866"><ele>229.0</ele><time>2026-04-05T12:02:06.983Z</time></trkpt><trkpt lat="43.245071" lon="12.4013385"><ele>229.0</ele><time>2026-04-05T12:02:07.983Z</time></trkpt><trkpt lat="43.2452983" lon="12.4011922"><ele>229.0</ele><time>2026-04-05T12:02:08.983Z</time></trkpt><trkpt lat="43.2455274" lon="12.4010445"><ele>229.0</ele><time>2026-04-05T12:02:09.983Z</time></trkpt><trkpt lat="43.2457607" lon="12.4009001"><ele>229.5</ele><time>2026-04-05T12:02:10.982Z</time></trkpt><trkpt lat="43.2459957" lon="12.4007572"><ele>230.0</ele><time>2026-04-05T12:02:11.983Z</time></trkpt><trkpt lat="43.2462237" lon="12.4006134"><ele>229.5</ele><time>2026-04-05T12:02:12.983Z</time></trkpt><trkpt lat="43.2464515" lon="12.4004735"><ele>229.0</ele><time>2026-04-05T12:02:13.982Z</time></trkpt><trkpt lat="43.2466775" lon="12.4003259"><ele>229.0</ele><time>2026-04-05T12:02:14.982Z</time></trkpt><trkpt lat="43.2469002" lon="12.40018"><ele>229.0</ele><time>2026-04-05T12:02:15.982Z</time></trkpt><trkpt lat="43.2471317" lon="12.4000339"><ele>229.0</ele><time>2026-04-05T12:02:16.983Z</time></trkpt><trkpt lat="43.247362" lon="12.3998859"><ele>229.0</ele><time>2026-04-05T12:02:17.983Z</time></trkpt><trkpt lat="43.2475947" lon="12.3997406"><ele>228.0</ele><time>2026-04-05T12:02:18.983Z</time></trkpt><trkpt lat="43.2478298" lon="12.3995933"><ele>227.0</ele><time>2026-04-05T12:02:19.983Z</time></trkpt><trkpt lat="43.2480622" lon="12.399448"><ele>228.0</ele><time>2026-04-05T12:02:20.983Z</time></trkpt><trkpt lat="43.2482967" lon="12.3993009"><ele>229.0</ele><time>2026-04-05T12:02:21.983Z</time></trkpt><trkpt lat="43.2485278" lon="12.3991536"><ele>229.0</ele><time>2026-04-05T12:02:22.983Z</time></trkpt><trkpt lat="43.2487515" lon="12.3990055"><ele>229.0</ele><time>2026-04-05T12:02:23.982Z</time></trkpt><trkpt lat="43.248989" lon="12.398856"><ele>230.0</ele><time>2026-04-05T12:02:24.982Z</time></trkpt><trkpt lat="43.2492267" lon="12.3987064"><ele>231.0</ele><time>2026-04-05T12:02:25.983Z</time></trkpt><trkpt lat="43.2494622" lon="12.3985497"><ele>231.0</ele><time>2026-04-05T12:02:26.982Z</time></trkpt><trkpt lat="43.2497009" lon="12.3983929"><ele>231.0</ele><time>2026-04-05T12:02:27.983Z</time></trkpt><trkpt lat="43.2499365" lon="12.3982453"><ele>231.5</ele><time>2026-04-05T12:02:28.983Z</time></trkpt><trkpt lat="43.2501725" lon="12.3980956"><ele>232.0</ele><time>2026-04-05T12:02:29.983Z</time></trkpt><trkpt lat="43.2504099" lon="12.3979467"><ele>232.0</ele><time>2026-04-05T12:02:30.983Z</time></trkpt><trkpt lat="43.2506416" lon="12.3977977"><ele>232.0</ele><time>2026-04-05T12:02:31.983Z</time></trkpt><trkpt lat="43.2508739" lon="12.3976386"><ele>232.0</ele><time>2026-04-05T12:02:32.983Z</time></trkpt><trkpt lat="43.2511011" lon="12.3974795"><ele>232.0</ele><time>2026-04-05T12:02:33.983Z</time></trkpt><trkpt lat="43.2513264" lon="12.397307"><ele>229.5</ele><time>2026-04-05T12:02:34.983Z</time></trkpt><trkpt lat="43.2515475" lon="12.3971134"><ele>227.0</ele><time>2026-04-05T12:02:35.983Z</time></trkpt><trkpt lat="43.2517685" lon="12.3969297"><ele>227.0</ele><time>2026-04-05T12:02:36.983Z</time></trkpt><trkpt lat="43.251985" lon="12.396738"><ele>227.0</ele><time>2026-04-05T12:02:37.983Z</time></trkpt><trkpt lat="43.2522051" lon="12.3965364"><ele>227.0</ele><time>2026-04-05T12:02:38.983Z</time></trkpt><trkpt lat="43.2524223" lon="12.3963452"><ele>227.0</ele><time>2026-04-05T12:02:39.982Z</time></trkpt><trkpt lat="43.2526421" lon="12.3961552"><ele>227.0</ele><time>2026-04-05T12:02:40.982Z</time></trkpt><trkpt lat="43.2528609" lon="12.3959614"><ele>227.0</ele><time>2026-04-05T12:02:41.983Z</time></trkpt><trkpt lat="43.2530824" lon="12.3957721"><ele>226.5</ele><time>2026-04-05T12:02:42.983Z</time></trkpt><trkpt lat="43.2532966" lon="12.3955857"><ele>226.0</ele><time>2026-04-05T12:02:43.982Z</time></trkpt><trkpt lat="43.2535127" lon="12.3953942"><ele>226.0</ele><time>2026-04-05T12:02:44.983Z</time></trkpt><trkpt lat="43.2537317" lon="12.3952058"><ele>226.0</ele><time>2026-04-05T12:02:45.983Z</time></trkpt><trkpt lat="43.2539548" lon="12.3950168"><ele>226.5</ele><time>2026-04-05T12:02:46.983Z</time></trkpt><trkpt lat="43.2541756" lon="12.3948235"><ele>227.0</ele><time>2026-04-05T12:02:47.983Z</time></trkpt><trkpt lat="43.2543914" lon="12.3946289"><ele>226.0</ele><time>2026-04-05T12:02:48.983Z</time></trkpt><trkpt lat="43.2546145" lon="12.3944362"><ele>225.0</ele><time>2026-04-05T12:02:49.982Z</time></trkpt><trkpt lat="43.2548384" lon="12.394244"><ele>227.5</ele><time>2026-04-05T12:02:50.983Z</time></trkpt><trkpt lat="43.2550618" lon="12.3940499"><ele>230.0</ele><time>2026-04-05T12:02:51.983Z</time></trkpt><trkpt lat="43.2552832" lon="12.3938589"><ele>230.0</ele><time>2026-04-05T12:02:52.983Z</time></trkpt><trkpt lat="43.2555102" lon="12.3936572"><ele>230.0</ele><time>2026-04-05T12:02:53.982Z</time></trkpt><trkpt lat="43.2557354" lon="12.3934585"><ele>230.0</ele><time>2026-04-05T12:02:54.983Z</time></trkpt><trkpt lat="43.2559605" lon="12.3932613"><ele>230.0</ele><time>2026-04-05T12:02:55.982Z</time></trkpt><trkpt lat="43.2561883" lon="12.3930614"><ele>230.0</ele><time>2026-04-05T12:02:56.982Z</time></trkpt><trkpt lat="43.256411" lon="12.3928567"><ele>230.0</ele><time>2026-04-05T12:02:57.983Z</time></trkpt><trkpt lat="43.256635" lon="12.392661"><ele>228.5</ele><time>2026-04-05T12:02:58.983Z</time></trkpt><trkpt lat="43.256863" lon="12.3924655"><ele>227.0</ele><time>2026-04-05T12:02:59.982Z</time></trkpt><trkpt lat="43.2570893" lon="12.3922683"><ele>228.0</ele><time>2026-04-05T12:03:00.983Z</time></trkpt><trkpt lat="43.2573156" lon="12.3920708"><ele>229.0</ele><time>2026-04-05T12:03:01.983Z</time></trkpt><trkpt lat="43.257542" lon="12.3918722"><ele>229.0</ele><time>2026-04-05T12:03:02.983Z</time></trkpt><trkpt lat="43.25777" lon="12.3916714"><ele>229.0</ele><time>2026-04-05T12:03:03.982Z</time></trkpt><trkpt lat="43.257998" lon="12.3914642"><ele>229.0</ele><time>2026-04-05T12:03:04.983Z</time></trkpt><trkpt lat="43.2582286" lon="12.3912644"><ele>229.0</ele><time>2026-04-05T12:03:05.983Z</time></trkpt><trkpt lat="43.2584626" lon="12.3910626"><ele>229.0</ele><time>2026-04-05T12:03:06.982Z</time></trkpt><trkpt lat="43.2586895" lon="12.3908569"><ele>229.0</ele><time>2026-04-05T12:03:07.982Z</time></trkpt><trkpt lat="43.2589208" lon="12.3906566"><ele>226.5</ele><time>2026-04-05T12:03:08.982Z</time></trkpt><trkpt lat="43.2591459" lon="12.3904523"><ele>224.0</ele><time>2026-04-05T12:03:09.983Z</time></trkpt><trkpt lat="43.2593697" lon="12.3902553"><ele>224.0</ele><time>2026-04-05T12:03:10.982Z</time></trkpt><trkpt lat="43.2595962" lon="12.3900572"><ele>224.0</ele><time>2026-04-05T12:03:11.983Z</time></trkpt><trkpt lat="43.2598245" lon="12.3898613"><ele>224.5</ele><time>2026-04-05T12:03:12.982Z</time></trkpt><trkpt lat="43.2600506" lon="12.3896693"><ele>225.0</ele><time>2026-04-05T12:03:13.983Z</time></trkpt><trkpt lat="43.2602733" lon="12.389473"><ele>225.0</ele><time>2026-04-05T12:03:14.983Z</time></trkpt><trkpt lat="43.2604996" lon="12.3892716"><ele>225.0</ele><time>2026-04-05T12:03:15.983Z</time></trkpt><trkpt lat="43.2607217" lon="12.3890746"><ele>225.5</ele><time>2026-04-05T12:03:16.983Z</time></trkpt><trkpt lat="43.2609422" lon="12.3888738"><ele>226.0</ele><time>2026-04-05T12:03:17.982Z</time></trkpt><trkpt lat="43.2611626" lon="12.3886762"><ele>225.5</ele><time>2026-04-05T12:03:18.983Z</time></trkpt><trkpt lat="43.2613825" lon="12.3884789"><ele>225.0</ele><time>2026-04-05T12:03:19.983Z</time></trkpt><trkpt lat="43.2616026" lon="12.3882882"><ele>225.0</ele><time>2026-04-05T12:03:20.982Z</time></trkpt><trkpt lat="43.2618149" lon="12.3880992"><ele>225.0</ele><time>2026-04-05T12:03:21.983Z</time></trkpt><trkpt lat="43.2620337" lon="12.387922"><ele>225.0</ele><time>2026-04-05T12:03:22.983Z</time></trkpt><trkpt lat="43.2622607" lon="12.3877607"><ele>225.0</ele><time>2026-04-05T12:03:23.982Z</time></trkpt><trkpt lat="43.2624875" lon="12.3876076"><ele>227.5</ele><time>2026-04-05T12:03:24.983Z</time></trkpt><trkpt lat="43.2627076" lon="12.3874655"><ele>230.0</ele><time>2026-04-05T12:03:25.983Z</time></trkpt><trkpt lat="43.2629355" lon="12.3873301"><ele>231.5</ele><time>2026-04-05T12:03:26.982Z</time></trkpt><trkpt lat="43.2631642" lon="12.3872123"><ele>233.0</ele><time>2026-04-05T12:03:27.983Z</time></trkpt><trkpt lat="43.2634008" lon="12.387096"><ele>233.0</ele><time>2026-04-05T12:03:28.982Z</time></trkpt><trkpt lat="43.2636367" lon="12.3869923"><ele>233.0</ele><time>2026-04-05T12:03:29.982Z</time></trkpt><trkpt lat="43.2638793" lon="12.3869007"><ele>233.5</ele><time>2026-04-05T12:03:30.983Z</time></trkpt><trkpt lat="43.2641183" lon="12.3868144"><ele>234.0</ele><time>2026-04-05T12:03:31.983Z</time></trkpt><trkpt lat="43.2643627" lon="12.3867353"><ele>234.0</ele><time>2026-04-05T12:03:32.982Z</time></trkpt><trkpt lat="43.2646057" lon="12.3866623"><ele>234.0</ele><time>2026-04-05T12:03:33.983Z</time></trkpt><trkpt lat="43.2648545" lon="12.3865956"><ele>236.0</ele><time>2026-04-05T12:03:34.982Z</time></trkpt><trkpt lat="43.2651001" lon="12.3865279"><ele>238.0</ele><time>2026-04-05T12:03:35.983Z</time></trkpt><trkpt lat="43.2653423" lon="12.3864618"><ele>238.0</ele><time>2026-04-05T12:03:36.983Z</time></trkpt><trkpt lat="43.2655869" lon="12.3863892"><ele>238.0</ele><time>2026-04-05T12:03:37.982Z</time></trkpt><trkpt lat="43.265831" lon="12.386321"><ele>237.0</ele><time>2026-04-05T12:03:38.983Z</time></trkpt><trkpt lat="43.2660737" lon="12.3862583"><ele>236.0</ele><time>2026-04-05T12:03:39.983Z</time></trkpt><trkpt lat="43.2663175" lon="12.3861993"><ele>238.5</ele><time>2026-04-05T12:03:40.983Z</time></trkpt><trkpt lat="43.2665594" lon="12.386133"><ele>241.0</ele><time>2026-04-05T12:03:41.983Z</time></trkpt><trkpt lat="43.2668037" lon="12.386068"><ele>241.0</ele><time>2026-04-05T12:03:42.983Z</time></trkpt><trkpt lat="43.2670499" lon="12.3859951"><ele>241.0</ele><time>2026-04-05T12:03:43.982Z</time></trkpt><trkpt lat="43.2672943" lon="12.3859273"><ele>242.5</ele><time>2026-04-05T12:03:44.983Z</time></trkpt><trkpt lat="43.2675402" lon="12.3858609"><ele>244.0</ele><time>2026-04-05T12:03:45.983Z</time></trkpt><trkpt lat="43.2677906" lon="12.3857819"><ele>244.0</ele><time>2026-04-05T12:03:46.983Z</time></trkpt><trkpt lat="43.2680365" lon="12.3857143"><ele>244.0</ele><time>2026-04-05T12:03:47.983Z</time></trkpt><trkpt lat="43.2682818" lon="12.3856444"><ele>245.0</ele><time>2026-04-05T12:03:48.983Z</time></trkpt><trkpt lat="43.2685276" lon="12.3855808"><ele>246.0</ele><time>2026-04-05T12:03:49.983Z</time></trkpt><trkpt lat="43.2687796" lon="12.3855134"><ele>246.0</ele><time>2026-04-05T12:03:50.983Z</time></trkpt><trkpt lat="43.2690287" lon="12.3854405"><ele>246.0</ele><time>2026-04-05T12:03:51.983Z</time></trkpt><trkpt lat="43.2692798" lon="12.3853806"><ele>246.0</ele><time>2026-04-05T12:03:52.983Z</time></trkpt><trkpt lat="43.2695327" lon="12.3853149"><ele>246.0</ele><time>2026-04-05T12:03:53.983Z</time></trkpt><trkpt lat="43.269788" lon="12.3852448"><ele>249.0</ele><time>2026-04-05T12:03:54.982Z</time></trkpt><trkpt lat="43.2700371" lon="12.3851772"><ele>252.0</ele><time>2026-04-05T12:03:55.982Z</time></trkpt><trkpt lat="43.2702864" lon="12.3851095"><ele>252.0</ele><time>2026-04-05T12:03:56.983Z</time></trkpt><trkpt lat="43.2705357" lon="12.3850394"><ele>252.0</ele><time>2026-04-05T12:03:57.983Z</time></trkpt><trkpt lat="43.2707876" lon="12.3849635"><ele>257.0</ele><time>2026-04-05T12:03:58.983Z</time></trkpt><trkpt lat="43.271046" lon="12.3849054"><ele>262.0</ele><time>2026-04-05T12:03:59.983Z</time></trkpt><trkpt lat="43.2712981" lon="12.3848369"><ele>265.0</ele><time>2026-04-05T12:04:00.983Z</time></trkpt><trkpt lat="43.2715475" lon="12.3847708"><ele>268.0</ele><time>2026-04-05T12:04:01.983Z</time></trkpt><trkpt lat="43.2717941" lon="12.3847033"><ele>268.5</ele><time>2026-04-05T12:04:02.983Z</time></trkpt><trkpt lat="43.2720405" lon="12.3846379"><ele>269.0</ele><time>2026-04-05T12:04:03.982Z</time></trkpt><trkpt lat="43.2722876" lon="12.3845755"><ele>269.0</ele><time>2026-04-05T12:04:04.983Z</time></trkpt><trkpt lat="43.2725306" lon="12.3845061"><ele>269.0</ele><time>2026-04-05T12:04:05.982Z</time></trkpt><trkpt lat="43.27278" lon="12.3844323"><ele>269.0</ele><time>2026-04-05T12:04:06.983Z</time></trkpt><trkpt lat="43.2730231" lon="12.3843633"><ele>269.0</ele><time>2026-04-05T12:04:07.983Z</time></trkpt><trkpt lat="43.2732707" lon="12.3842956"><ele>268.5</ele><time>2026-04-05T12:04:08.983Z</time></trkpt><trkpt lat="43.2735203" lon="12.3842313"><ele>268.0</ele><time>2026-04-05T12:04:09.982Z</time></trkpt><trkpt lat="43.2737677" lon="12.3841621"><ele>268.5</ele><time>2026-04-05T12:04:10.983Z</time></trkpt><trkpt lat="43.2740163" lon="12.3840902"><ele>269.0</ele><time>2026-04-05T12:04:11.983Z</time></trkpt><trkpt lat="43.2742628" lon="12.3840176"><ele>269.0</ele><time>2026-04-05T12:04:12.983Z</time></trkpt><trkpt lat="43.2745105" lon="12.3839449"><ele>269.0</ele><time>2026-04-05T12:04:13.983Z</time></trkpt><trkpt lat="43.2747558" lon="12.383875"><ele>267.5</ele><time>2026-04-05T12:04:14.983Z</time></trkpt><trkpt lat="43.274998" lon="12.383813"><ele>266.0</ele><time>2026-04-05T12:04:15.983Z</time></trkpt><trkpt lat="43.2752463" lon="12.3837423"><ele>266.0</ele><time>2026-04-05T12:04:16.982Z</time></trkpt><trkpt lat="43.2754872" lon="12.3836695"><ele>266.0</ele><time>2026-04-05T12:04:17.982Z</time></trkpt><trkpt lat="43.2757391" lon="12.3836103"><ele>267.0</ele><time>2026-04-05T12:04:18.982Z</time></trkpt><trkpt lat="43.275986" lon="12.3835452"><ele>268.0</ele><time>2026-04-05T12:04:19.982Z</time></trkpt><trkpt lat="43.2762367" lon="12.3834833"><ele>268.0</ele><time>2026-04-05T12:04:20.983Z</time></trkpt><trkpt lat="43.276484" lon="12.3834156"><ele>268.0</ele><time>2026-04-05T12:04:21.983Z</time></trkpt><trkpt lat="43.276728" lon="12.3833439"><ele>268.0</ele><time>2026-04-05T12:04:22.983Z</time></trkpt><trkpt lat="43.2769708" lon="12.3832705"><ele>268.0</ele><time>2026-04-05T12:04:23.983Z</time></trkpt><trkpt lat="43.2772162" lon="12.3832027"><ele>265.5</ele><time>2026-04-05T12:04:24.982Z</time></trkpt><trkpt lat="43.2774659" lon="12.3831399"><ele>263.0</ele><time>2026-04-05T12:04:25.982Z</time></trkpt><trkpt lat="43.2777108" lon="12.3830705"><ele>261.0</ele><time>2026-04-05T12:04:26.983Z</time></trkpt><trkpt lat="43.2779594" lon="12.3830129"><ele>259.0</ele><time>2026-04-05T12:04:27.983Z</time></trkpt><trkpt lat="43.2782029" lon="12.3829425"><ele>259.0</ele><time>2026-04-05T12:04:28.983Z</time></trkpt><trkpt lat="43.2784445" lon="12.3828756"><ele>259.0</ele><time>2026-04-05T12:04:29.983Z</time></trkpt><trkpt lat="43.2786893" lon="12.3828014"><ele>259.0</ele><time>2026-04-05T12:04:30.983Z</time></trkpt><trkpt lat="43.2789333" lon="12.382723"><ele>259.0</ele><time>2026-04-05T12:04:31.983Z</time></trkpt><trkpt lat="43.279174" lon="12.3826406"><ele>260.5</ele><time>2026-04-05T12:04:32.983Z</time></trkpt><trkpt lat="43.2794151" lon="12.3825385"><ele>262.0</ele><time>2026-04-05T12:04:33.983Z</time></trkpt><trkpt lat="43.279654" lon="12.3824276"><ele>263.5</ele><time>2026-04-05T12:04:34.983Z</time></trkpt><trkpt lat="43.2798898" lon="12.3823049"><ele>265.0</ele><time>2026-04-05T12:04:35.983Z</time></trkpt><trkpt lat="43.2801157" lon="12.3821647"><ele>262.0</ele><time>2026-04-05T12:04:36.983Z</time></trkpt><trkpt lat="43.2803408" lon="12.382016"><ele>259.0</ele><time>2026-04-05T12:04:37.982Z</time></trkpt><trkpt lat="43.2805614" lon="12.3818503"><ele>262.5</ele><time>2026-04-05T12:04:38.982Z</time></trkpt><trkpt lat="43.2807774" lon="12.381675"><ele>266.0</ele><time>2026-04-05T12:04:39.983Z</time></trkpt><trkpt lat="43.2809947" lon="12.3814936"><ele>263.5</ele><time>2026-04-05T12:04:40.983Z</time></trkpt><trkpt lat="43.2812063" lon="12.3813044"><ele>261.0</ele><time>2026-04-05T12:04:41.983Z</time></trkpt><trkpt lat="43.2814086" lon="12.3810907"><ele>262.5</ele><time>2026-04-05T12:04:42.983Z</time></trkpt><trkpt lat="43.2816047" lon="12.3808696"><ele>264.0</ele><time>2026-04-05T12:04:43.982Z</time></trkpt><trkpt lat="43.2818017" lon="12.3806366"><ele>260.5</ele><time>2026-04-05T12:04:44.983Z</time></trkpt><trkpt lat="43.2819895" lon="12.380395"><ele>257.0</ele><time>2026-04-05T12:04:45.983Z</time></trkpt><trkpt lat="43.2821761" lon="12.38015"><ele>256.5</ele><time>2026-04-05T12:04:46.983Z</time></trkpt><trkpt lat="43.2823602" lon="12.3799015"><ele>256.0</ele><time>2026-04-05T12:04:47.983Z</time></trkpt><trkpt lat="43.2825427" lon="12.3796498"><ele>256.0</ele><time>2026-04-05T12:04:48.983Z</time></trkpt><trkpt lat="43.2827221" lon="12.3794049"><ele>256.0</ele><time>2026-04-05T12:04:49.982Z</time></trkpt><trkpt lat="43.2829024" lon="12.3791605"><ele>256.0</ele><time>2026-04-05T12:04:50.983Z</time></trkpt><trkpt lat="43.2830847" lon="12.3789179"><ele>256.0</ele><time>2026-04-05T12:04:51.983Z</time></trkpt><trkpt lat="43.2832675" lon="12.3786742"><ele>255.0</ele><time>2026-04-05T12:04:52.983Z</time></trkpt><trkpt lat="43.2834518" lon="12.37843"><ele>254.0</ele><time>2026-04-05T12:04:53.983Z</time></trkpt><trkpt lat="43.2836346" lon="12.378185"><ele>254.0</ele><time>2026-04-05T12:04:54.982Z</time></trkpt><trkpt lat="43.2838108" lon="12.3779388"><ele>254.0</ele><time>2026-04-05T12:04:55.982Z</time></trkpt><trkpt lat="43.283992" lon="12.3776863"><ele>254.0</ele><time>2026-04-05T12:04:56.982Z</time></trkpt><trkpt lat="43.2841783" lon="12.377433"><ele>254.0</ele><time>2026-04-05T12:04:57.983Z</time></trkpt><trkpt lat="43.2843754" lon="12.3771739"><ele>252.0</ele><time>2026-04-05T12:04:58.983Z</time></trkpt><trkpt lat="43.2845635" lon="12.3769267"><ele>250.0</ele><time>2026-04-05T12:04:59.983Z</time></trkpt><trkpt lat="43.2847496" lon="12.3766733"><ele>250.5</ele><time>2026-04-05T12:05:00.983Z</time></trkpt><trkpt lat="43.2849377" lon="12.3764182"><ele>251.0</ele><time>2026-04-05T12:05:01.983Z</time></trkpt><trkpt lat="43.2851235" lon="12.3761658"><ele>249.5</ele><time>2026-04-05T12:05:02.983Z</time></trkpt><trkpt lat="43.2853128" lon="12.3759136"><ele>248.0</ele><time>2026-04-05T12:05:03.982Z</time></trkpt><trkpt lat="43.2855011" lon="12.3756581"><ele>249.0</ele><time>2026-04-05T12:05:04.983Z</time></trkpt><trkpt lat="43.2856909" lon="12.3753956"><ele>250.0</ele><time>2026-04-05T12:05:05.983Z</time></trkpt><trkpt lat="43.2858793" lon="12.3751394"><ele>250.0</ele><time>2026-04-05T12:05:06.983Z</time></trkpt><trkpt lat="43.2860669" lon="12.3748854"><ele>250.0</ele><time>2026-04-05T12:05:07.983Z</time></trkpt><trkpt lat="43.2862609" lon="12.3746287"><ele>249.5</ele><time>2026-04-05T12:05:08.983Z</time></trkpt><trkpt lat="43.2864486" lon="12.3743764"><ele>249.0</ele><time>2026-04-05T12:05:09.983Z</time></trkpt><trkpt lat="43.2866327" lon="12.3741251"><ele>249.0</ele><time>2026-04-05T12:05:10.982Z</time></trkpt><trkpt lat="43.2868222" lon="12.3738765"><ele>249.0</ele><time>2026-04-05T12:05:11.983Z</time></trkpt><trkpt lat="43.2870132" lon="12.3736287"><ele>249.0</ele><time>2026-04-05T12:05:12.983Z</time></trkpt><trkpt lat="43.2871989" lon="12.3733728"><ele>249.0</ele><time>2026-04-05T12:05:13.982Z</time></trkpt><trkpt lat="43.2873885" lon="12.3731231"><ele>247.0</ele><time>2026-04-05T12:05:14.983Z</time></trkpt><trkpt lat="43.2875745" lon="12.3728744"><ele>245.0</ele><time>2026-04-05T12:05:15.983Z</time></trkpt><trkpt lat="43.2877619" lon="12.3726254"><ele>245.0</ele><time>2026-04-05T12:05:16.983Z</time></trkpt><trkpt lat="43.2879517" lon="12.3723734"><ele>245.0</ele><time>2026-04-05T12:05:17.983Z</time></trkpt><trkpt lat="43.2881372" lon="12.3721231"><ele>244.0</ele><time>2026-04-05T12:05:18.983Z</time></trkpt><trkpt lat="43.2883217" lon="12.3718733"><ele>243.0</ele><time>2026-04-05T12:05:19.982Z</time></trkpt><trkpt lat="43.2885083" lon="12.3716287"><ele>243.0</ele><time>2026-04-05T12:05:20.983Z</time></trkpt><trkpt lat="43.2886933" lon="12.3713768"><ele>243.0</ele><time>2026-04-05T12:05:21.983Z</time></trkpt><trkpt lat="43.2888769" lon="12.3711299"><ele>243.0</ele><time>2026-04-05T12:05:22.982Z</time></trkpt><trkpt lat="43.2890588" lon="12.3708803"><ele>243.0</ele><time>2026-04-05T12:05:23.983Z</time></trkpt><trkpt lat="43.2892497" lon="12.3706252"><ele>243.5</ele><time>2026-04-05T12:05:24.983Z</time></trkpt><trkpt lat="43.2894355" lon="12.3703768"><ele>244.0</ele><time>2026-04-05T12:05:25.982Z</time></trkpt><trkpt lat="43.2896185" lon="12.3701277"><ele>242.0</ele><time>2026-04-05T12:05:26.982Z</time></trkpt><trkpt lat="43.2898025" lon="12.3698756"><ele>240.0</ele><time>2026-04-05T12:05:27.983Z</time></trkpt><trkpt lat="43.2899913" lon="12.3696254"><ele>238.5</ele><time>2026-04-05T12:05:28.983Z</time></trkpt><trkpt lat="43.2901819" lon="12.3693716"><ele>237.0</ele><time>2026-04-05T12:05:29.983Z</time></trkpt><trkpt lat="43.2903669" lon="12.3691211"><ele>237.0</ele><time>2026-04-05T12:05:30.982Z</time></trkpt><trkpt lat="43.2905517" lon="12.3688759"><ele>237.0</ele><time>2026-04-05T12:05:31.983Z</time></trkpt><trkpt lat="43.2907374" lon="12.3686173"><ele>238.0</ele><time>2026-04-05T12:05:32.982Z</time></trkpt><trkpt lat="43.2909224" lon="12.3683678"><ele>239.0</ele><time>2026-04-05T12:05:33.983Z</time></trkpt><trkpt lat="43.2911091" lon="12.3681187"><ele>237.5</ele><time>2026-04-05T12:05:34.982Z</time></trkpt><trkpt lat="43.2912939" lon="12.3678737"><ele>236.0</ele><time>2026-04-05T12:05:35.983Z</time></trkpt><trkpt lat="43.2914761" lon="12.3676344"><ele>239.0</ele><time>2026-04-05T12:05:36.983Z</time></trkpt><trkpt lat="43.2916572" lon="12.3673915"><ele>242.0</ele><time>2026-04-05T12:05:37.983Z</time></trkpt><trkpt lat="43.2918397" lon="12.3671517"><ele>242.0</ele><time>2026-04-05T12:05:38.982Z</time></trkpt><trkpt lat="43.2920234" lon="12.3669153"><ele>242.0</ele><time>2026-04-05T12:05:39.983Z</time></trkpt><trkpt lat="43.2922011" lon="12.3666807"><ele>243.0</ele><time>2026-04-05T12:05:40.983Z</time></trkpt><trkpt lat="43.2923754" lon="12.3664467"><ele>244.0</ele><time>2026-04-05T12:05:41.983Z</time></trkpt><trkpt lat="43.2925495" lon="12.3662114"><ele>245.0</ele><time>2026-04-05T12:05:42.983Z</time></trkpt><trkpt lat="43.2927231" lon="12.3659774"><ele>246.0</ele><time>2026-04-05T12:05:43.982Z</time></trkpt><trkpt lat="43.2928957" lon="12.3657494"><ele>245.5</ele><time>2026-04-05T12:05:44.983Z</time></trkpt><trkpt lat="43.2930654" lon="12.3655155"><ele>245.0</ele><time>2026-04-05T12:05:45.983Z</time></trkpt><trkpt lat="43.2932382" lon="12.3652786"><ele>245.0</ele><time>2026-04-05T12:05:46.983Z</time></trkpt><trkpt lat="43.2934105" lon="12.3650466"><ele>245.0</ele><time>2026-04-05T12:05:47.983Z</time></trkpt><trkpt lat="43.2935821" lon="12.3648153"><ele>245.0</ele><time>2026-04-05T12:05:48.983Z</time></trkpt><trkpt lat="43.2937552" lon="12.3645746"><ele>245.0</ele><time>2026-04-05T12:05:49.982Z</time></trkpt><trkpt lat="43.2939302" lon="12.3643447"><ele>247.5</ele><time>2026-04-05T12:05:50.983Z</time></trkpt><trkpt lat="43.2941076" lon="12.3641124"><ele>250.0</ele><time>2026-04-05T12:05:51.983Z</time></trkpt><trkpt lat="43.2942853" lon="12.3638761"><ele>253.0</ele><time>2026-04-05T12:05:52.983Z</time></trkpt><trkpt lat="43.2944628" lon="12.3636347"><ele>256.0</ele><time>2026-04-05T12:05:53.982Z</time></trkpt><trkpt lat="43.2946394" lon="12.3633942"><ele>261.0</ele><time>2026-04-05T12:05:54.983Z</time></trkpt><trkpt lat="43.2948205" lon="12.3631602"><ele>266.0</ele><time>2026-04-05T12:05:55.983Z</time></trkpt><trkpt lat="43.2949939" lon="12.3629195"><ele>266.5</ele><time>2026-04-05T12:05:56.983Z</time></trkpt><trkpt lat="43.2951771" lon="12.3626811"><ele>267.0</ele><time>2026-04-05T12:05:57.982Z</time></trkpt><trkpt lat="43.2953523" lon="12.3624404"><ele>267.0</ele><time>2026-04-05T12:05:58.982Z</time></trkpt><trkpt lat="43.2955344" lon="12.3622005"><ele>267.0</ele><time>2026-04-05T12:05:59.983Z</time></trkpt><trkpt lat="43.295712" lon="12.361963"><ele>271.5</ele><time>2026-04-05T12:06:00.983Z</time></trkpt><trkpt lat="43.2958942" lon="12.361726"><ele>276.0</ele><time>2026-04-05T12:06:01.983Z</time></trkpt><trkpt lat="43.2960707" lon="12.3614895"><ele>275.0</ele><time>2026-04-05T12:06:02.983Z</time></trkpt><trkpt lat="43.2962544" lon="12.3612478"><ele>274.0</ele><time>2026-04-05T12:06:03.983Z</time></trkpt><trkpt lat="43.2964339" lon="12.3610131"><ele>274.0</ele><time>2026-04-05T12:06:04.982Z</time></trkpt><trkpt lat="43.2966138" lon="12.3607741"><ele>274.0</ele><time>2026-04-05T12:06:05.983Z</time></trkpt><trkpt lat="43.2968004" lon="12.3605245"><ele>274.0</ele><time>2026-04-05T12:06:06.983Z</time></trkpt><trkpt lat="43.296985" lon="12.3602834"><ele>274.0</ele><time>2026-04-05T12:06:07.983Z</time></trkpt><trkpt lat="43.2971659" lon="12.3600361"><ele>274.0</ele><time>2026-04-05T12:06:08.983Z</time></trkpt><trkpt lat="43.2973455" lon="12.359791"><ele>274.0</ele><time>2026-04-05T12:06:09.983Z</time></trkpt><trkpt lat="43.2975246" lon="12.3595392"><ele>274.0</ele><time>2026-04-05T12:06:10.983Z</time></trkpt><trkpt lat="43.2977038" lon="12.3592942"><ele>274.0</ele><time>2026-04-05T12:06:11.983Z</time></trkpt><trkpt lat="43.2978794" lon="12.359049"><ele>273.0</ele><time>2026-04-05T12:06:12.982Z</time></trkpt><trkpt lat="43.2980585" lon="12.3588044"><ele>272.0</ele><time>2026-04-05T12:06:13.983Z</time></trkpt><trkpt lat="43.2982392" lon="12.3585658"><ele>274.0</ele><time>2026-04-05T12:06:14.983Z</time></trkpt><trkpt lat="43.2984171" lon="12.3583269"><ele>276.0</ele><time>2026-04-05T12:06:15.983Z</time></trkpt><trkpt lat="43.298592" lon="12.3580883"><ele>275.0</ele><time>2026-04-05T12:06:16.983Z</time></trkpt><trkpt lat="43.2987659" lon="12.3578488"><ele>274.0</ele><time>2026-04-05T12:06:17.983Z</time></trkpt><trkpt lat="43.2989416" lon="12.3576133"><ele>275.5</ele><time>2026-04-05T12:06:18.983Z</time></trkpt><trkpt lat="43.2991218" lon="12.3573773"><ele>277.0</ele><time>2026-04-05T12:06:19.983Z</time></trkpt><trkpt lat="43.2993011" lon="12.3571476"><ele>277.0</ele><time>2026-04-05T12:06:20.982Z</time></trkpt><trkpt lat="43.2994802" lon="12.3569219"><ele>277.0</ele><time>2026-04-05T12:06:21.982Z</time></trkpt><trkpt lat="43.2996624" lon="12.3567029"><ele>278.0</ele><time>2026-04-05T12:06:22.983Z</time></trkpt><trkpt lat="43.2998503" lon="12.3564897"><ele>279.0</ele><time>2026-04-05T12:06:23.983Z</time></trkpt><trkpt lat="43.3000452" lon="12.3562953"><ele>279.0</ele><time>2026-04-05T12:06:24.983Z</time></trkpt><trkpt lat="43.3002444" lon="12.3561084"><ele>279.0</ele><time>2026-04-05T12:06:25.982Z</time></trkpt><trkpt lat="43.300455" lon="12.3559237"><ele>284.5</ele><time>2026-04-05T12:06:26.983Z</time></trkpt><trkpt lat="43.3006679" lon="12.3557517"><ele>290.0</ele><time>2026-04-05T12:06:27.983Z</time></trkpt><trkpt lat="43.3008798" lon="12.3555873"><ele>288.5</ele><time>2026-04-05T12:06:28.983Z</time></trkpt><trkpt lat="43.3011025" lon="12.3554324"><ele>287.0</ele><time>2026-04-05T12:06:29.983Z</time></trkpt><trkpt lat="43.3013253" lon="12.3552756"><ele>287.0</ele><time>2026-04-05T12:06:30.983Z</time></trkpt><trkpt lat="43.3015511" lon="12.3551247"><ele>287.0</ele><time>2026-04-05T12:06:31.983Z</time></trkpt><trkpt lat="43.3017777" lon="12.3549646"><ele>287.0</ele><time>2026-04-05T12:06:32.983Z</time></trkpt><trkpt lat="43.3020039" lon="12.3548029"><ele>287.0</ele><time>2026-04-05T12:06:33.982Z</time></trkpt><trkpt lat="43.3022277" lon="12.3546516"><ele>283.0</ele><time>2026-04-05T12:06:34.982Z</time></trkpt><trkpt lat="43.302452" lon="12.3544921"><ele>279.0</ele><time>2026-04-05T12:06:35.983Z</time></trkpt><trkpt lat="43.3026758" lon="12.3543443"><ele>279.0</ele><time>2026-04-05T12:06:36.983Z</time></trkpt><trkpt lat="43.3029031" lon="12.3541973"><ele>279.0</ele><time>2026-04-05T12:06:37.982Z</time></trkpt><trkpt lat="43.3031237" lon="12.35404"><ele>282.0</ele><time>2026-04-05T12:06:38.982Z</time></trkpt><trkpt lat="43.303347" lon="12.353887"><ele>285.0</ele><time>2026-04-05T12:06:39.983Z</time></trkpt><trkpt lat="43.3035651" lon="12.3537363"><ele>285.0</ele><time>2026-04-05T12:06:40.983Z</time></trkpt><trkpt lat="43.3037877" lon="12.3535864"><ele>285.0</ele><time>2026-04-05T12:06:41.982Z</time></trkpt><trkpt lat="43.3040078" lon="12.3534521"><ele>288.0</ele><time>2026-04-05T12:06:42.983Z</time></trkpt><trkpt lat="43.3042331" lon="12.3533322"><ele>291.0</ele><time>2026-04-05T12:06:43.982Z</time></trkpt><trkpt lat="43.3044674" lon="12.3532314"><ele>291.0</ele><time>2026-04-05T12:06:44.983Z</time></trkpt><trkpt lat="43.3047019" lon="12.3531415"><ele>291.0</ele><time>2026-04-05T12:06:45.983Z</time></trkpt><trkpt lat="43.3049372" lon="12.3530641"><ele>292.0</ele><time>2026-04-05T12:06:46.983Z</time></trkpt><trkpt lat="43.3051812" lon="12.3530153"><ele>293.0</ele><time>2026-04-05T12:06:47.982Z</time></trkpt><trkpt lat="43.30543" lon="12.352991"><ele>291.0</ele><time>2026-04-05T12:06:48.983Z</time></trkpt><trkpt lat="43.3056843" lon="12.3529902"><ele>289.0</ele><time>2026-04-05T12:06:49.983Z</time></trkpt><trkpt lat="43.3059369" lon="12.352996"><ele>289.0</ele><time>2026-04-05T12:06:50.983Z</time></trkpt><trkpt lat="43.3061827" lon="12.3530185"><ele>289.0</ele><time>2026-04-05T12:06:51.982Z</time></trkpt><trkpt lat="43.3064319" lon="12.3530535"><ele>290.5</ele><time>2026-04-05T12:06:52.982Z</time></trkpt><trkpt lat="43.3066815" lon="12.3530894"><ele>292.0</ele><time>2026-04-05T12:06:53.982Z</time></trkpt><trkpt lat="43.3069304" lon="12.3531234"><ele>292.0</ele><time>2026-04-05T12:06:54.983Z</time></trkpt><trkpt lat="43.3071749" lon="12.3531426"><ele>292.0</ele><time>2026-04-05T12:06:55.982Z</time></trkpt><trkpt lat="43.3074249" lon="12.3531615"><ele>291.0</ele><time>2026-04-05T12:06:56.983Z</time></trkpt><trkpt lat="43.3076719" lon="12.3531634"><ele>290.0</ele><time>2026-04-05T12:06:57.983Z</time></trkpt><trkpt lat="43.3079217" lon="12.3531511"><ele>293.0</ele><time>2026-04-05T12:06:58.983Z</time></trkpt><trkpt lat="43.3081677" lon="12.3531138"><ele>296.0</ele><time>2026-04-05T12:06:59.982Z</time></trkpt><trkpt lat="43.308412" lon="12.3530592"><ele>294.5</ele><time>2026-04-05T12:07:00.983Z</time></trkpt><trkpt lat="43.3086572" lon="12.3529832"><ele>293.0</ele><time>2026-04-05T12:07:01.983Z</time></trkpt><trkpt lat="43.3088979" lon="12.3528926"><ele>294.0</ele><time>2026-04-05T12:07:02.983Z</time></trkpt><trkpt lat="43.3091312" lon="12.352786"><ele>295.0</ele><time>2026-04-05T12:07:03.982Z</time></trkpt><trkpt lat="43.3093598" lon="12.3526705"><ele>295.0</ele><time>2026-04-05T12:07:04.983Z</time></trkpt><trkpt lat="43.3095781" lon="12.3525317"><ele>295.0</ele><time>2026-04-05T12:07:05.982Z</time></trkpt><trkpt lat="43.3097918" lon="12.3523695"><ele>293.5</ele><time>2026-04-05T12:07:06.983Z</time></trkpt><trkpt lat="43.3100007" lon="12.3521985"><ele>292.0</ele><time>2026-04-05T12:07:07.983Z</time></trkpt><trkpt lat="43.3102039" lon="12.352015"><ele>292.0</ele><time>2026-04-05T12:07:08.983Z</time></trkpt><trkpt lat="43.3103989" lon="12.3518067"><ele>292.0</ele><time>2026-04-05T12:07:09.982Z</time></trkpt><trkpt lat="43.3105938" lon="12.3515804"><ele>289.5</ele><time>2026-04-05T12:07:10.983Z</time></trkpt><trkpt lat="43.3107708" lon="12.3513468"><ele>287.0</ele><time>2026-04-05T12:07:11.983Z</time></trkpt><trkpt lat="43.3109361" lon="12.3511015"><ele>287.0</ele><time>2026-04-05T12:07:12.983Z</time></trkpt><trkpt lat="43.311094" lon="12.3508469"><ele>287.0</ele><time>2026-04-05T12:07:13.983Z</time></trkpt><trkpt lat="43.3112507" lon="12.3505768"><ele>285.5</ele><time>2026-04-05T12:07:14.983Z</time></trkpt><trkpt lat="43.3113933" lon="12.3503018"><ele>284.0</ele><time>2026-04-05T12:07:15.982Z</time></trkpt><trkpt lat="43.3115203" lon="12.3500081"><ele>290.0</ele><time>2026-04-05T12:07:16.983Z</time></trkpt><trkpt lat="43.3116428" lon="12.3496983"><ele>296.0</ele><time>2026-04-05T12:07:17.983Z</time></trkpt><trkpt lat="43.3117541" lon="12.349382"><ele>296.0</ele><time>2026-04-05T12:07:18.983Z</time></trkpt><trkpt lat="43.3118625" lon="12.3490622"><ele>296.0</ele><time>2026-04-05T12:07:19.982Z</time></trkpt><trkpt lat="43.3119656" lon="12.3487435"><ele>297.0</ele><time>2026-04-05T12:07:20.983Z</time></trkpt><trkpt lat="43.3120701" lon="12.3484228"><ele>298.0</ele><time>2026-04-05T12:07:21.983Z</time></trkpt><trkpt lat="43.3121727" lon="12.3481057"><ele>298.0</ele><time>2026-04-05T12:07:22.982Z</time></trkpt><trkpt lat="43.3122826" lon="12.3477882"><ele>298.0</ele><time>2026-04-05T12:07:23.982Z</time></trkpt><trkpt lat="43.3123898" lon="12.3474697"><ele>298.0</ele><time>2026-04-05T12:07:24.983Z</time></trkpt><trkpt lat="43.312495" lon="12.347146"><ele>298.0</ele><time>2026-04-05T12:07:25.983Z</time></trkpt><trkpt lat="43.3126" lon="12.3468232"><ele>298.0</ele><time>2026-04-05T12:07:26.982Z</time></trkpt><trkpt lat="43.312703" lon="12.3464971"><ele>298.0</ele><time>2026-04-05T12:07:27.982Z</time></trkpt><trkpt lat="43.3128108" lon="12.3461717"><ele>298.0</ele><time>2026-04-05T12:07:28.983Z</time></trkpt><trkpt lat="43.3129208" lon="12.3458457"><ele>298.0</ele><time>2026-04-05T12:07:29.982Z</time></trkpt><trkpt lat="43.3130274" lon="12.3455188"><ele>290.5</ele><time>2026-04-05T12:07:30.983Z</time></trkpt><trkpt lat="43.3131314" lon="12.3451927"><ele>283.0</ele><time>2026-04-05T12:07:31.983Z</time></trkpt><trkpt lat="43.3132265" lon="12.3448551"><ele>279.5</ele><time>2026-04-05T12:07:32.983Z</time></trkpt><trkpt lat="43.3133332" lon="12.3445275"><ele>276.0</ele><time>2026-04-05T12:07:33.982Z</time></trkpt><trkpt lat="43.3134357" lon="12.3442018"><ele>272.5</ele><time>2026-04-05T12:07:34.983Z</time></trkpt><trkpt lat="43.313543" lon="12.3438739"><ele>269.0</ele><time>2026-04-05T12:07:35.983Z</time></trkpt><trkpt lat="43.3136489" lon="12.3435482"><ele>269.0</ele><time>2026-04-05T12:07:36.982Z</time></trkpt><trkpt lat="43.3137532" lon="12.3432244"><ele>269.0</ele><time>2026-04-05T12:07:37.983Z</time></trkpt><trkpt lat="43.3138587" lon="12.3429002"><ele>270.0</ele><time>2026-04-05T12:07:38.983Z</time></trkpt><trkpt lat="43.3139686" lon="12.3425754"><ele>271.0</ele><time>2026-04-05T12:07:39.983Z</time></trkpt><trkpt lat="43.3140745" lon="12.3422538"><ele>272.5</ele><time>2026-04-05T12:07:40.982Z</time></trkpt><trkpt lat="43.3141805" lon="12.341929"><ele>274.0</ele><time>2026-04-05T12:07:41.983Z</time></trkpt><trkpt lat="43.3142786" lon="12.3416026"><ele>275.0</ele><time>2026-04-05T12:07:42.983Z</time></trkpt><trkpt lat="43.3143852" lon="12.341278"><ele>276.0</ele><time>2026-04-05T12:07:43.983Z</time></trkpt><trkpt lat="43.314485" lon="12.340949"><ele>276.0</ele><time>2026-04-05T12:07:44.982Z</time></trkpt><trkpt lat="43.3145915" lon="12.3406214"><ele>276.0</ele><time>2026-04-05T12:07:45.983Z</time></trkpt><trkpt lat="43.3147003" lon="12.3402924"><ele>282.5</ele><time>2026-04-05T12:07:46.982Z</time></trkpt><trkpt lat="43.3148085" lon="12.3399684"><ele>289.0</ele><time>2026-04-05T12:07:47.982Z</time></trkpt><trkpt lat="43.3149167" lon="12.3396429"><ele>289.0</ele><time>2026-04-05T12:07:48.982Z</time></trkpt><trkpt lat="43.3150267" lon="12.3393203"><ele>289.0</ele><time>2026-04-05T12:07:49.982Z</time></trkpt><trkpt lat="43.3151376" lon="12.3389947"><ele>290.5</ele><time>2026-04-05T12:07:50.983Z</time></trkpt><trkpt lat="43.3152399" lon="12.3386678"><ele>292.0</ele><time>2026-04-05T12:07:51.982Z</time></trkpt><trkpt lat="43.3153474" lon="12.338343"><ele>293.0</ele><time>2026-04-05T12:07:52.982Z</time></trkpt><trkpt lat="43.3154538" lon="12.3380122"><ele>294.0</ele><time>2026-04-05T12:07:53.983Z</time></trkpt><trkpt lat="43.3155635" lon="12.3376745"><ele>293.5</ele><time>2026-04-05T12:07:54.983Z</time></trkpt><trkpt lat="43.3156698" lon="12.3373323"><ele>293.0</ele><time>2026-04-05T12:07:55.982Z</time></trkpt><trkpt lat="43.3157783" lon="12.3369937"><ele>291.5</ele><time>2026-04-05T12:07:56.983Z</time></trkpt><trkpt lat="43.3158827" lon="12.336652"><ele>290.0</ele><time>2026-04-05T12:07:57.982Z</time></trkpt><trkpt lat="43.3159944" lon="12.3363175"><ele>289.0</ele><time>2026-04-05T12:07:58.983Z</time></trkpt><trkpt lat="43.3161123" lon="12.3359825"><ele>288.0</ele><time>2026-04-05T12:07:59.983Z</time></trkpt><trkpt lat="43.3162262" lon="12.3356563"><ele>286.0</ele><time>2026-04-05T12:08:00.983Z</time></trkpt><trkpt lat="43.316337" lon="12.3353309"><ele>284.0</ele><time>2026-04-05T12:08:01.982Z</time></trkpt><trkpt lat="43.316449" lon="12.3350009"><ele>282.0</ele><time>2026-04-05T12:08:02.983Z</time></trkpt><trkpt lat="43.3165681" lon="12.3346702"><ele>280.0</ele><time>2026-04-05T12:08:03.983Z</time></trkpt><trkpt lat="43.3166876" lon="12.3343464"><ele>280.0</ele><time>2026-04-05T12:08:04.982Z</time></trkpt><trkpt lat="43.3168124" lon="12.3340281"><ele>280.0</ele><time>2026-04-05T12:08:05.982Z</time></trkpt><trkpt lat="43.3169421" lon="12.3337122"><ele>280.0</ele><time>2026-04-05T12:08:06.983Z</time></trkpt><trkpt lat="43.317072" lon="12.3333889"><ele>280.0</ele><time>2026-04-05T12:08:07.983Z</time></trkpt><trkpt lat="43.3172067" lon="12.3330686"><ele>278.0</ele><time>2026-04-05T12:08:08.983Z</time></trkpt><trkpt lat="43.3173457" lon="12.3327619"><ele>276.0</ele><time>2026-04-05T12:08:09.983Z</time></trkpt><trkpt lat="43.3174887" lon="12.3324531"><ele>273.5</ele><time>2026-04-05T12:08:10.982Z</time></trkpt><trkpt lat="43.317644" lon="12.3321461"><ele>271.0</ele><time>2026-04-05T12:08:11.983Z</time></trkpt><trkpt lat="43.3177935" lon="12.3318503"><ele>271.0</ele><time>2026-04-05T12:08:12.983Z</time></trkpt><trkpt lat="43.3179455" lon="12.331536"><ele>271.0</ele><time>2026-04-05T12:08:13.982Z</time></trkpt><trkpt lat="43.3180983" lon="12.331235"><ele>273.0</ele><time>2026-04-05T12:08:14.982Z</time></trkpt><trkpt lat="43.3182488" lon="12.3309387"><ele>275.0</ele><time>2026-04-05T12:08:15.983Z</time></trkpt><trkpt lat="43.3183938" lon="12.3306391"><ele>274.0</ele><time>2026-04-05T12:08:16.982Z</time></trkpt><trkpt lat="43.3185464" lon="12.3303401"><ele>273.0</ele><time>2026-04-05T12:08:17.983Z</time></trkpt><trkpt lat="43.3186978" lon="12.3300428"><ele>273.0</ele><time>2026-04-05T12:08:18.982Z</time></trkpt><trkpt lat="43.3188519" lon="12.3297354"><ele>273.0</ele><time>2026-04-05T12:08:19.982Z</time></trkpt><trkpt lat="43.3190043" lon="12.3294357"><ele>274.0</ele><time>2026-04-05T12:08:20.983Z</time></trkpt><trkpt lat="43.3191574" lon="12.3291348"><ele>275.0</ele><time>2026-04-05T12:08:21.983Z</time></trkpt><trkpt lat="43.3193086" lon="12.328831"><ele>275.0</ele><time>2026-04-05T12:08:22.982Z</time></trkpt><trkpt lat="43.3194605" lon="12.3285279"><ele>275.0</ele><time>2026-04-05T12:08:23.983Z</time></trkpt><trkpt lat="43.3196118" lon="12.328229"><ele>272.0</ele><time>2026-04-05T12:08:24.983Z</time></trkpt><trkpt lat="43.3197597" lon="12.327937"><ele>269.0</ele><time>2026-04-05T12:08:25.983Z</time></trkpt><trkpt lat="43.3199082" lon="12.3276393"><ele>269.0</ele><time>2026-04-05T12:08:26.983Z</time></trkpt><trkpt lat="43.3200587" lon="12.3273318"><ele>269.0</ele><time>2026-04-05T12:08:27.982Z</time></trkpt><trkpt lat="43.3202084" lon="12.3270281"><ele>263.5</ele><time>2026-04-05T12:08:28.983Z</time></trkpt><trkpt lat="43.3203551" lon="12.3267182"><ele>258.0</ele><time>2026-04-05T12:08:29.983Z</time></trkpt><trkpt lat="43.3204951" lon="12.3264119"><ele>256.0</ele><time>2026-04-05T12:08:30.983Z</time></trkpt><trkpt lat="43.3206342" lon="12.326102"><ele>254.0</ele><time>2026-04-05T12:08:31.983Z</time></trkpt><trkpt lat="43.3207712" lon="12.3257903"><ele>254.0</ele><time>2026-04-05T12:08:32.982Z</time></trkpt><trkpt lat="43.320908" lon="12.3254831"><ele>254.0</ele><time>2026-04-05T12:08:33.983Z</time></trkpt><trkpt lat="43.3210467" lon="12.3251711"><ele>254.0</ele><time>2026-04-05T12:08:34.983Z</time></trkpt><trkpt lat="43.3211731" lon="12.3248658"><ele>254.0</ele><time>2026-04-05T12:08:35.983Z</time></trkpt><trkpt lat="43.3213001" lon="12.3245537"><ele>253.0</ele><time>2026-04-05T12:08:36.983Z</time></trkpt><trkpt lat="43.321425" lon="12.3242379"><ele>252.0</ele><time>2026-04-05T12:08:37.983Z</time></trkpt><trkpt lat="43.3215479" lon="12.323928"><ele>252.0</ele><time>2026-04-05T12:08:38.982Z</time></trkpt><trkpt lat="43.3216694" lon="12.3236189"><ele>252.0</ele><time>2026-04-05T12:08:39.982Z</time></trkpt><trkpt lat="43.3217947" lon="12.3233112"><ele>251.0</ele><time>2026-04-05T12:08:40.983Z</time></trkpt><trkpt lat="43.3219152" lon="12.3230092"><ele>250.0</ele><time>2026-04-05T12:08:41.983Z</time></trkpt><trkpt lat="43.3220399" lon="12.3227096"><ele>250.0</ele><time>2026-04-05T12:08:42.983Z</time></trkpt><trkpt lat="43.3221649" lon="12.3224104"><ele>250.0</ele><time>2026-04-05T12:08:43.983Z</time></trkpt><trkpt lat="43.3222931" lon="12.3221123"><ele>250.0</ele><time>2026-04-05T12:08:44.983Z</time></trkpt><trkpt lat="43.3224222" lon="12.3218124"><ele>250.0</ele><time>2026-04-05T12:08:45.983Z</time></trkpt><trkpt lat="43.3225639" lon="12.3215188"><ele>249.5</ele><time>2026-04-05T12:08:46.983Z</time></trkpt><trkpt lat="43.3227074" lon="12.3212263"><ele>249.0</ele><time>2026-04-05T12:08:47.982Z</time></trkpt><trkpt lat="43.3228531" lon="12.3209342"><ele>249.0</ele><time>2026-04-05T12:08:48.982Z</time></trkpt><trkpt lat="43.3230044" lon="12.3206455"><ele>249.0</ele><time>2026-04-05T12:08:49.983Z</time></trkpt><trkpt lat="43.3231626" lon="12.320348"><ele>250.0</ele><time>2026-04-05T12:08:50.983Z</time></trkpt><trkpt lat="43.3233243" lon="12.3200677"><ele>251.0</ele><time>2026-04-05T12:08:51.983Z</time></trkpt><trkpt lat="43.3234933" lon="12.319792"><ele>250.5</ele><time>2026-04-05T12:08:52.983Z</time></trkpt><trkpt lat="43.3236636" lon="12.3195277"><ele>250.0</ele><time>2026-04-05T12:08:53.983Z</time></trkpt><trkpt lat="43.3238368" lon="12.319266"><ele>251.5</ele><time>2026-04-05T12:08:54.982Z</time></trkpt><trkpt lat="43.3240219" lon="12.3190085"><ele>253.0</ele><time>2026-04-05T12:08:55.983Z</time></trkpt><trkpt lat="43.3242076" lon="12.3187537"><ele>253.0</ele><time>2026-04-05T12:08:56.982Z</time></trkpt><trkpt lat="43.3243972" lon="12.3185027"><ele>253.0</ele><time>2026-04-05T12:08:57.982Z</time></trkpt><trkpt lat="43.3245948" lon="12.3182535"><ele>254.5</ele><time>2026-04-05T12:08:58.983Z</time></trkpt><trkpt lat="43.324794" lon="12.3180129"><ele>256.0</ele><time>2026-04-05T12:08:59.983Z</time></trkpt><trkpt lat="43.3249953" lon="12.3177725"><ele>256.0</ele><time>2026-04-05T12:09:00.983Z</time></trkpt><trkpt lat="43.3252007" lon="12.3175456"><ele>256.0</ele><time>2026-04-05T12:09:01.983Z</time></trkpt><trkpt lat="43.325416" lon="12.3173282"><ele>256.5</ele><time>2026-04-05T12:09:02.983Z</time></trkpt><trkpt lat="43.3256291" lon="12.3171111"><ele>257.0</ele><time>2026-04-05T12:09:03.983Z</time></trkpt><trkpt lat="43.3258434" lon="12.3168999"><ele>257.0</ele><time>2026-04-05T12:09:04.982Z</time></trkpt><trkpt lat="43.3260586" lon="12.3166932"><ele>257.0</ele><time>2026-04-05T12:09:05.983Z</time></trkpt><trkpt lat="43.3262777" lon="12.3164881"><ele>255.5</ele><time>2026-04-05T12:09:06.982Z</time></trkpt><trkpt lat="43.3265052" lon="12.3163014"><ele>254.0</ele><time>2026-04-05T12:09:07.983Z</time></trkpt><trkpt lat="43.3267371" lon="12.316114"><ele>254.0</ele><time>2026-04-05T12:09:08.983Z</time></trkpt><trkpt lat="43.3269706" lon="12.315933"><ele>254.0</ele><time>2026-04-05T12:09:09.982Z</time></trkpt><trkpt lat="43.3272061" lon="12.3157601"><ele>256.0</ele><time>2026-04-05T12:09:10.982Z</time></trkpt><trkpt lat="43.327445" lon="12.3155895"><ele>258.0</ele><time>2026-04-05T12:09:11.983Z</time></trkpt><trkpt lat="43.3276906" lon="12.315417"><ele>253.5</ele><time>2026-04-05T12:09:12.982Z</time></trkpt><trkpt lat="43.3279315" lon="12.3152613"><ele>249.0</ele><time>2026-04-05T12:09:13.983Z</time></trkpt><trkpt lat="43.3281741" lon="12.3151108"><ele>248.5</ele><time>2026-04-05T12:09:14.983Z</time></trkpt><trkpt lat="43.3284182" lon="12.3149603"><ele>248.0</ele><time>2026-04-05T12:09:15.982Z</time></trkpt><trkpt lat="43.3286599" lon="12.3148084"><ele>247.5</ele><time>2026-04-05T12:09:16.983Z</time></trkpt><trkpt lat="43.3288948" lon="12.3146558"><ele>247.0</ele><time>2026-04-05T12:09:17.983Z</time></trkpt><trkpt lat="43.3291305" lon="12.3145005"><ele>247.0</ele><time>2026-04-05T12:09:18.983Z</time></trkpt><trkpt lat="43.3293723" lon="12.3143433"><ele>247.0</ele><time>2026-04-05T12:09:19.983Z</time></trkpt><trkpt lat="43.3296091" lon="12.3141941"><ele>246.5</ele><time>2026-04-05T12:09:20.983Z</time></trkpt><trkpt lat="43.3298453" lon="12.3140495"><ele>246.0</ele><time>2026-04-05T12:09:21.983Z</time></trkpt><trkpt lat="43.3300835" lon="12.3138985"><ele>246.5</ele><time>2026-04-05T12:09:22.983Z</time></trkpt><trkpt lat="43.3303181" lon="12.3137494"><ele>247.0</ele><time>2026-04-05T12:09:23.982Z</time></trkpt><trkpt lat="43.3305585" lon="12.3136002"><ele>247.0</ele><time>2026-04-05T12:09:24.982Z</time></trkpt><trkpt lat="43.3307945" lon="12.3134492"><ele>247.0</ele><time>2026-04-05T12:09:25.983Z</time></trkpt><trkpt lat="43.3310336" lon="12.3133007"><ele>247.0</ele><time>2026-04-05T12:09:26.983Z</time></trkpt><trkpt lat="43.3312727" lon="12.3131519"><ele>247.0</ele><time>2026-04-05T12:09:27.983Z</time></trkpt><trkpt lat="43.331509" lon="12.3130007"><ele>245.0</ele><time>2026-04-05T12:09:28.983Z</time></trkpt><trkpt lat="43.33174" lon="12.3128515"><ele>243.0</ele><time>2026-04-05T12:09:29.982Z</time></trkpt><trkpt lat="43.3319758" lon="12.3127047"><ele>243.0</ele><time>2026-04-05T12:09:30.983Z</time></trkpt><trkpt lat="43.3322086" lon="12.3125607"><ele>243.0</ele><time>2026-04-05T12:09:31.983Z</time></trkpt><trkpt lat="43.3324436" lon="12.3124097"><ele>243.0</ele><time>2026-04-05T12:09:32.983Z</time></trkpt><trkpt lat="43.3326765" lon="12.3122657"><ele>243.0</ele><time>2026-04-05T12:09:33.983Z</time></trkpt><trkpt lat="43.33291" lon="12.3121175"><ele>243.5</ele><time>2026-04-05T12:09:34.982Z</time></trkpt><trkpt lat="43.3331381" lon="12.3119616"><ele>244.0</ele><time>2026-04-05T12:09:35.983Z</time></trkpt><trkpt lat="43.3333726" lon="12.3118099"><ele>244.0</ele><time>2026-04-05T12:09:36.983Z</time></trkpt><trkpt lat="43.3336033" lon="12.3116673"><ele>244.0</ele><time>2026-04-05T12:09:37.983Z</time></trkpt><trkpt lat="43.3338335" lon="12.3115245"><ele>245.0</ele><time>2026-04-05T12:09:38.983Z</time></trkpt><trkpt lat="43.3340662" lon="12.3113799"><ele>246.0</ele><time>2026-04-05T12:09:39.983Z</time></trkpt><trkpt lat="43.3342992" lon="12.3112362"><ele>246.0</ele><time>2026-04-05T12:09:40.983Z</time></trkpt><trkpt lat="43.334531" lon="12.311088"><ele>246.0</ele><time>2026-04-05T12:09:41.982Z</time></trkpt><trkpt lat="43.3347642" lon="12.3109395"><ele>245.5</ele><time>2026-04-05T12:09:42.983Z</time></trkpt><trkpt lat="43.3350001" lon="12.3107803"><ele>245.0</ele><time>2026-04-05T12:09:43.982Z</time></trkpt><trkpt lat="43.3352328" lon="12.310631"><ele>245.5</ele><time>2026-04-05T12:09:44.983Z</time></trkpt><trkpt lat="43.3354612" lon="12.3104733"><ele>246.0</ele><time>2026-04-05T12:09:45.982Z</time></trkpt><trkpt lat="43.3356898" lon="12.310307"><ele>246.0</ele><time>2026-04-05T12:09:46.982Z</time></trkpt><trkpt lat="43.3359128" lon="12.310137"><ele>246.0</ele><time>2026-04-05T12:09:47.983Z</time></trkpt><trkpt lat="43.3361347" lon="12.3099699"><ele>246.0</ele><time>2026-04-05T12:09:48.982Z</time></trkpt><trkpt lat="43.3363526" lon="12.3097995"><ele>246.0</ele><time>2026-04-05T12:09:49.983Z</time></trkpt><trkpt lat="43.3365729" lon="12.3096205"><ele>244.5</ele><time>2026-04-05T12:09:50.983Z</time></trkpt><trkpt lat="43.3367827" lon="12.309425"><ele>243.0</ele><time>2026-04-05T12:09:51.983Z</time></trkpt><trkpt lat="43.3369991" lon="12.30924"><ele>243.0</ele><time>2026-04-05T12:09:52.982Z</time></trkpt><trkpt lat="43.3372078" lon="12.3090458"><ele>243.0</ele><time>2026-04-05T12:09:53.983Z</time></trkpt><trkpt lat="43.3374143" lon="12.3088491"><ele>243.5</ele><time>2026-04-05T12:09:54.982Z</time></trkpt><trkpt lat="43.3376207" lon="12.3086479"><ele>244.0</ele><time>2026-04-05T12:09:55.983Z</time></trkpt><trkpt lat="43.3378233" lon="12.3084475"><ele>244.0</ele><time>2026-04-05T12:09:56.983Z</time></trkpt><trkpt lat="43.3380245" lon="12.3082415"><ele>244.0</ele><time>2026-04-05T12:09:57.983Z</time></trkpt><trkpt lat="43.3382249" lon="12.3080303"><ele>245.0</ele><time>2026-04-05T12:09:58.983Z</time></trkpt><trkpt lat="43.3384202" lon="12.3078254"><ele>246.0</ele><time>2026-04-05T12:09:59.983Z</time></trkpt><trkpt lat="43.3386153" lon="12.3076152"><ele>246.0</ele><time>2026-04-05T12:10:00.983Z</time></trkpt><trkpt lat="43.3388081" lon="12.3073948"><ele>246.0</ele><time>2026-04-05T12:10:01.982Z</time></trkpt><trkpt lat="43.3389979" lon="12.3071756"><ele>247.0</ele><time>2026-04-05T12:10:02.983Z</time></trkpt><trkpt lat="43.3391805" lon="12.3069551"><ele>248.0</ele><time>2026-04-05T12:10:03.983Z</time></trkpt><trkpt lat="43.3393615" lon="12.3067267"><ele>248.0</ele><time>2026-04-05T12:10:04.983Z</time></trkpt><trkpt lat="43.3395439" lon="12.3064973"><ele>248.0</ele><time>2026-04-05T12:10:05.983Z</time></trkpt><trkpt lat="43.3397178" lon="12.3062674"><ele>248.0</ele><time>2026-04-05T12:10:06.983Z</time></trkpt><trkpt lat="43.3398903" lon="12.3060352"><ele>248.0</ele><time>2026-04-05T12:10:07.983Z</time></trkpt><trkpt lat="43.3400609" lon="12.3057992"><ele>249.0</ele><time>2026-04-05T12:10:08.983Z</time></trkpt><trkpt lat="43.3402314" lon="12.3055598"><ele>250.0</ele><time>2026-04-05T12:10:09.983Z</time></trkpt><trkpt lat="43.3403982" lon="12.3053152"><ele>249.0</ele><time>2026-04-05T12:10:10.983Z</time></trkpt><trkpt lat="43.3405634" lon="12.3050719"><ele>248.0</ele><time>2026-04-05T12:10:11.983Z</time></trkpt><trkpt lat="43.3407264" lon="12.3048236"><ele>248.5</ele><time>2026-04-05T12:10:12.982Z</time></trkpt><trkpt lat="43.340887" lon="12.3045697"><ele>249.0</ele><time>2026-04-05T12:10:13.983Z</time></trkpt><trkpt lat="43.3410416" lon="12.3043175"><ele>249.0</ele><time>2026-04-05T12:10:14.982Z</time></trkpt><trkpt lat="43.3411946" lon="12.3040556"><ele>249.0</ele><time>2026-04-05T12:10:15.983Z</time></trkpt><trkpt lat="43.3413519" lon="12.3037796"><ele>249.0</ele><time>2026-04-05T12:10:16.983Z</time></trkpt><trkpt lat="43.3415056" lon="12.3035019"><ele>249.0</ele><time>2026-04-05T12:10:17.983Z</time></trkpt><trkpt lat="43.3416531" lon="12.303231"><ele>250.0</ele><time>2026-04-05T12:10:18.982Z</time></trkpt><trkpt lat="43.3418001" lon="12.3029592"><ele>251.0</ele><time>2026-04-05T12:10:19.982Z</time></trkpt><trkpt lat="43.3419412" lon="12.3026846"><ele>251.0</ele><time>2026-04-05T12:10:20.983Z</time></trkpt><trkpt lat="43.3420782" lon="12.3024069"><ele>251.0</ele><time>2026-04-05T12:10:21.983Z</time></trkpt><trkpt lat="43.3422153" lon="12.3021276"><ele>250.0</ele><time>2026-04-05T12:10:22.983Z</time></trkpt><trkpt lat="43.3423553" lon="12.3018459"><ele>249.0</ele><time>2026-04-05T12:10:23.983Z</time></trkpt><trkpt lat="43.3424907" lon="12.3015671"><ele>249.5</ele><time>2026-04-05T12:10:24.983Z</time></trkpt><trkpt lat="43.3426251" lon="12.3012912"><ele>250.0</ele><time>2026-04-05T12:10:25.983Z</time></trkpt><trkpt lat="43.3427613" lon="12.3010091"><ele>250.0</ele><time>2026-04-05T12:10:26.982Z</time></trkpt><trkpt lat="43.342898" lon="12.3007314"><ele>250.0</ele><time>2026-04-05T12:10:27.983Z</time></trkpt><trkpt lat="43.3430414" lon="12.3004534"><ele>249.0</ele><time>2026-04-05T12:10:28.983Z</time></trkpt><trkpt lat="43.3431867" lon="12.3001721"><ele>248.0</ele><time>2026-04-05T12:10:29.983Z</time></trkpt><trkpt lat="43.3433229" lon="12.2998948"><ele>247.5</ele><time>2026-04-05T12:10:30.983Z</time></trkpt><trkpt lat="43.3434588" lon="12.299618"><ele>247.0</ele><time>2026-04-05T12:10:31.982Z</time></trkpt><trkpt lat="43.3435989" lon="12.2993379"><ele>247.0</ele><time>2026-04-05T12:10:32.983Z</time></trkpt><trkpt lat="43.3437403" lon="12.2990619"><ele>247.0</ele><time>2026-04-05T12:10:33.983Z</time></trkpt><trkpt lat="43.3438861" lon="12.2987821"><ele>248.0</ele><time>2026-04-05T12:10:34.982Z</time></trkpt><trkpt lat="43.3440209" lon="12.2985009"><ele>249.0</ele><time>2026-04-05T12:10:35.983Z</time></trkpt><trkpt lat="43.344173" lon="12.2982286"><ele>250.5</ele><time>2026-04-05T12:10:36.983Z</time></trkpt><trkpt lat="43.3443299" lon="12.2979538"><ele>252.0</ele><time>2026-04-05T12:10:37.983Z</time></trkpt><trkpt lat="43.3444984" lon="12.2976896"><ele>252.0</ele><time>2026-04-05T12:10:38.983Z</time></trkpt><trkpt lat="43.344663" lon="12.2974316"><ele>252.0</ele><time>2026-04-05T12:10:39.982Z</time></trkpt><trkpt lat="43.3448241" lon="12.2971797"><ele>253.5</ele><time>2026-04-05T12:10:40.983Z</time></trkpt><trkpt lat="43.3449888" lon="12.2969303"><ele>255.0</ele><time>2026-04-05T12:10:41.982Z</time></trkpt><trkpt lat="43.3451591" lon="12.2966803"><ele>255.0</ele><time>2026-04-05T12:10:42.983Z</time></trkpt><trkpt lat="43.3453314" lon="12.2964256"><ele>255.0</ele><time>2026-04-05T12:10:43.982Z</time></trkpt><trkpt lat="43.3455022" lon="12.2961794"><ele>257.5</ele><time>2026-04-05T12:10:44.983Z</time></trkpt><trkpt lat="43.3456717" lon="12.2959296"><ele>260.0</ele><time>2026-04-05T12:10:45.982Z</time></trkpt><trkpt lat="43.3458409" lon="12.2956783"><ele>258.5</ele><time>2026-04-05T12:10:46.983Z</time></trkpt><trkpt lat="43.346013" lon="12.2954269"><ele>257.0</ele><time>2026-04-05T12:10:47.983Z</time></trkpt><trkpt lat="43.346186" lon="12.2951712"><ele>257.0</ele><time>2026-04-05T12:10:48.983Z</time></trkpt><trkpt lat="43.3463604" lon="12.294917"><ele>257.0</ele><time>2026-04-05T12:10:49.983Z</time></trkpt><trkpt lat="43.3465351" lon="12.2946644"><ele>256.0</ele><time>2026-04-05T12:10:50.982Z</time></trkpt><trkpt lat="43.3467072" lon="12.2944134"><ele>255.0</ele><time>2026-04-05T12:10:51.982Z</time></trkpt><trkpt lat="43.3468837" lon="12.2941538"><ele>254.5</ele><time>2026-04-05T12:10:52.982Z</time></trkpt><trkpt lat="43.3470602" lon="12.2938989"><ele>254.0</ele><time>2026-04-05T12:10:53.983Z</time></trkpt><trkpt lat="43.3472381" lon="12.2936462"><ele>256.0</ele><time>2026-04-05T12:10:54.983Z</time></trkpt><trkpt lat="43.3474111" lon="12.2933904"><ele>258.0</ele><time>2026-04-05T12:10:55.982Z</time></trkpt><trkpt lat="43.3475848" lon="12.2931355"><ele>258.5</ele><time>2026-04-05T12:10:56.983Z</time></trkpt><trkpt lat="43.3477592" lon="12.2928811"><ele>259.0</ele><time>2026-04-05T12:10:57.983Z</time></trkpt><trkpt lat="43.3479322" lon="12.2926263"><ele>258.5</ele><time>2026-04-05T12:10:58.983Z</time></trkpt><trkpt lat="43.3481028" lon="12.2923735"><ele>258.0</ele><time>2026-04-05T12:10:59.982Z</time></trkpt><trkpt lat="43.3482772" lon="12.2921243"><ele>259.5</ele><time>2026-04-05T12:11:00.983Z</time></trkpt><trkpt lat="43.3484506" lon="12.2918686"><ele>261.0</ele><time>2026-04-05T12:11:01.982Z</time></trkpt><trkpt lat="43.3486204" lon="12.291616"><ele>263.0</ele><time>2026-04-05T12:11:02.983Z</time></trkpt><trkpt lat="43.3488004" lon="12.2913563"><ele>265.0</ele><time>2026-04-05T12:11:03.983Z</time></trkpt><trkpt lat="43.3489688" lon="12.2911097"><ele>265.0</ele><time>2026-04-05T12:11:04.982Z</time></trkpt><trkpt lat="43.3491359" lon="12.2908612"><ele>265.0</ele><time>2026-04-05T12:11:05.983Z</time></trkpt><trkpt lat="43.3493082" lon="12.2906158"><ele>264.0</ele><time>2026-04-05T12:11:06.983Z</time></trkpt><trkpt lat="43.3494791" lon="12.2903605"><ele>263.0</ele><time>2026-04-05T12:11:07.983Z</time></trkpt><trkpt lat="43.3496481" lon="12.2901173"><ele>264.5</ele><time>2026-04-05T12:11:08.983Z</time></trkpt><trkpt lat="43.3498184" lon="12.2898704"><ele>266.0</ele><time>2026-04-05T12:11:09.983Z</time></trkpt><trkpt lat="43.3499868" lon="12.2896256"><ele>262.5</ele><time>2026-04-05T12:11:10.983Z</time></trkpt><trkpt lat="43.3501553" lon="12.2893744"><ele>259.0</ele><time>2026-04-05T12:11:11.983Z</time></trkpt><trkpt lat="43.3503247" lon="12.289124"><ele>258.0</ele><time>2026-04-05T12:11:12.983Z</time></trkpt><trkpt lat="43.3504911" lon="12.2888754"><ele>257.0</ele><time>2026-04-05T12:11:13.983Z</time></trkpt><trkpt lat="43.3506605" lon="12.2886288"><ele>257.0</ele><time>2026-04-05T12:11:14.983Z</time></trkpt><trkpt lat="43.350831" lon="12.2883773"><ele>257.0</ele><time>2026-04-05T12:11:15.983Z</time></trkpt><trkpt lat="43.3509987" lon="12.2881286"><ele>255.5</ele><time>2026-04-05T12:11:16.982Z</time></trkpt><trkpt lat="43.3511674" lon="12.2878749"><ele>254.0</ele><time>2026-04-05T12:11:17.983Z</time></trkpt><trkpt lat="43.3513382" lon="12.2876182"><ele>254.5</ele><time>2026-04-05T12:11:18.983Z</time></trkpt><trkpt lat="43.3515093" lon="12.287362"><ele>255.0</ele><time>2026-04-05T12:11:19.982Z</time></trkpt><trkpt lat="43.3516822" lon="12.2871075"><ele>255.0</ele><time>2026-04-05T12:11:20.983Z</time></trkpt><trkpt lat="43.3518574" lon="12.2868561"><ele>255.0</ele><time>2026-04-05T12:11:21.983Z</time></trkpt><trkpt lat="43.3520324" lon="12.2865972"><ele>254.5</ele><time>2026-04-05T12:11:22.983Z</time></trkpt><trkpt lat="43.3522099" lon="12.286335"><ele>254.0</ele><time>2026-04-05T12:11:23.983Z</time></trkpt><trkpt lat="43.352386" lon="12.2860798"><ele>254.0</ele><time>2026-04-05T12:11:24.983Z</time></trkpt><trkpt lat="43.3525629" lon="12.2858228"><ele>254.0</ele><time>2026-04-05T12:11:25.983Z</time></trkpt><trkpt lat="43.3527426" lon="12.2855656"><ele>253.5</ele><time>2026-04-05T12:11:26.983Z</time></trkpt><trkpt lat="43.3529216" lon="12.2853096"><ele>253.0</ele><time>2026-04-05T12:11:27.983Z</time></trkpt><trkpt lat="43.3530967" lon="12.2850477"><ele>253.0</ele><time>2026-04-05T12:11:28.983Z</time></trkpt><trkpt lat="43.3532751" lon="12.2847888"><ele>253.0</ele><time>2026-04-05T12:11:29.983Z</time></trkpt><trkpt lat="43.3534537" lon="12.2845322"><ele>253.5</ele><time>2026-04-05T12:11:30.983Z</time></trkpt><trkpt lat="43.3536342" lon="12.2842765"><ele>254.0</ele><time>2026-04-05T12:11:31.982Z</time></trkpt><trkpt lat="43.3538129" lon="12.2840138"><ele>254.0</ele><time>2026-04-05T12:11:32.982Z</time></trkpt><trkpt lat="43.3539863" lon="12.2837588"><ele>254.0</ele><time>2026-04-05T12:11:33.983Z</time></trkpt><trkpt lat="43.3541612" lon="12.2835013"><ele>254.0</ele><time>2026-04-05T12:11:34.983Z</time></trkpt><trkpt lat="43.3543348" lon="12.2832358"><ele>254.0</ele><time>2026-04-05T12:11:35.983Z</time></trkpt><trkpt lat="43.354512" lon="12.2829739"><ele>254.0</ele><time>2026-04-05T12:11:36.983Z</time></trkpt><trkpt lat="43.3546891" lon="12.2827137"><ele>254.0</ele><time>2026-04-05T12:11:37.983Z</time></trkpt><trkpt lat="43.3548704" lon="12.2824597"><ele>256.0</ele><time>2026-04-05T12:11:38.982Z</time></trkpt><trkpt lat="43.35505" lon="12.2822109"><ele>258.0</ele><time>2026-04-05T12:11:39.983Z</time></trkpt><trkpt lat="43.3552385" lon="12.2819649"><ele>258.0</ele><time>2026-04-05T12:11:40.983Z</time></trkpt><trkpt lat="43.35543" lon="12.2817253"><ele>258.0</ele><time>2026-04-05T12:11:41.982Z</time></trkpt><trkpt lat="43.3556252" lon="12.2814979"><ele>258.5</ele><time>2026-04-05T12:11:42.983Z</time></trkpt><trkpt lat="43.3558217" lon="12.2812818"><ele>259.0</ele><time>2026-04-05T12:11:43.983Z</time></trkpt><trkpt lat="43.356018" lon="12.2810667"><ele>259.0</ele><time>2026-04-05T12:11:44.983Z</time></trkpt><trkpt lat="43.3562166" lon="12.2808531"><ele>259.0</ele><time>2026-04-05T12:11:45.983Z</time></trkpt><trkpt lat="43.3564139" lon="12.2806465"><ele>261.5</ele><time>2026-04-05T12:11:46.983Z</time></trkpt><trkpt lat="43.3566128" lon="12.2804286"><ele>264.0</ele><time>2026-04-05T12:11:47.982Z</time></trkpt><trkpt lat="43.3568119" lon="12.2802216"><ele>264.0</ele><time>2026-04-05T12:11:48.983Z</time></trkpt><trkpt lat="43.3570078" lon="12.280013"><ele>264.0</ele><time>2026-04-05T12:11:49.983Z</time></trkpt><trkpt lat="43.357204" lon="12.279807"><ele>268.5</ele><time>2026-04-05T12:11:50.983Z</time></trkpt><trkpt lat="43.3574073" lon="12.2795995"><ele>273.0</ele><time>2026-04-05T12:11:51.982Z</time></trkpt><trkpt lat="43.3576131" lon="12.2793911"><ele>273.0</ele><time>2026-04-05T12:11:52.982Z</time></trkpt><trkpt lat="43.3578168" lon="12.279187"><ele>273.0</ele><time>2026-04-05T12:11:53.983Z</time></trkpt><trkpt lat="43.3580143" lon="12.2789719"><ele>273.5</ele><time>2026-04-05T12:11:54.983Z</time></trkpt><trkpt lat="43.3582147" lon="12.2787608"><ele>274.0</ele><time>2026-04-05T12:11:55.983Z</time></trkpt><trkpt lat="43.3584222" lon="12.2785486"><ele>274.0</ele><time>2026-04-05T12:11:56.982Z</time></trkpt><trkpt lat="43.3586321" lon="12.278329"><ele>274.0</ele><time>2026-04-05T12:11:57.982Z</time></trkpt><trkpt lat="43.358841" lon="12.2781064"><ele>273.5</ele><time>2026-04-05T12:11:58.983Z</time></trkpt><trkpt lat="43.3590474" lon="12.277886"><ele>273.0</ele><time>2026-04-05T12:11:59.983Z</time></trkpt><trkpt lat="43.3592532" lon="12.2776575"><ele>273.0</ele><time>2026-04-05T12:12:00.982Z</time></trkpt><trkpt lat="43.3594503" lon="12.2774115"><ele>273.0</ele><time>2026-04-05T12:12:01.983Z</time></trkpt><trkpt lat="43.3596474" lon="12.2771676"><ele>273.0</ele><time>2026-04-05T12:12:02.982Z</time></trkpt><trkpt lat="43.3598469" lon="12.2769127"><ele>273.0</ele><time>2026-04-05T12:12:03.983Z</time></trkpt><trkpt lat="43.3600467" lon="12.2766502"><ele>271.5</ele><time>2026-04-05T12:12:04.983Z</time></trkpt><trkpt lat="43.3602361" lon="12.276384"><ele>270.0</ele><time>2026-04-05T12:12:05.983Z</time></trkpt><trkpt lat="43.360424" lon="12.2761118"><ele>270.5</ele><time>2026-04-05T12:12:06.982Z</time></trkpt><trkpt lat="43.3606079" lon="12.2758395"><ele>271.0</ele><time>2026-04-05T12:12:07.982Z</time></trkpt><trkpt lat="43.3607858" lon="12.2755631"><ele>269.0</ele><time>2026-04-05T12:12:08.983Z</time></trkpt><trkpt lat="43.3609573" lon="12.2752844"><ele>267.0</ele><time>2026-04-05T12:12:09.982Z</time></trkpt><trkpt lat="43.3611204" lon="12.2749901"><ele>267.0</ele><time>2026-04-05T12:12:10.983Z</time></trkpt><trkpt lat="43.3612851" lon="12.2746979"><ele>267.0</ele><time>2026-04-05T12:12:11.983Z</time></trkpt><trkpt lat="43.3614437" lon="12.2744105"><ele>268.0</ele><time>2026-04-05T12:12:12.983Z</time></trkpt><trkpt lat="43.3615931" lon="12.2741161"><ele>269.0</ele><time>2026-04-05T12:12:13.983Z</time></trkpt><trkpt lat="43.3617408" lon="12.2738208"><ele>269.0</ele><time>2026-04-05T12:12:14.983Z</time></trkpt><trkpt lat="43.3618815" lon="12.2735265"><ele>269.0</ele><time>2026-04-05T12:12:15.982Z</time></trkpt><trkpt lat="43.3620177" lon="12.2732302"><ele>267.0</ele><time>2026-04-05T12:12:16.982Z</time></trkpt><trkpt lat="43.3621426" lon="12.2729349"><ele>265.0</ele><time>2026-04-05T12:12:17.982Z</time></trkpt><trkpt lat="43.3622754" lon="12.2726368"><ele>265.0</ele><time>2026-04-05T12:12:18.983Z</time></trkpt><trkpt lat="43.3624053" lon="12.272335"><ele>265.0</ele><time>2026-04-05T12:12:19.982Z</time></trkpt><trkpt lat="43.3625365" lon="12.272039"><ele>266.0</ele><time>2026-04-05T12:12:20.983Z</time></trkpt><trkpt lat="43.3626683" lon="12.271745"><ele>267.0</ele><time>2026-04-05T12:12:21.983Z</time></trkpt><trkpt lat="43.3627976" lon="12.2714537"><ele>269.5</ele><time>2026-04-05T12:12:22.982Z</time></trkpt><trkpt lat="43.362925" lon="12.2711703"><ele>272.0</ele><time>2026-04-05T12:12:23.983Z</time></trkpt><trkpt lat="43.3630605" lon="12.2708724"><ele>272.5</ele><time>2026-04-05T12:12:24.983Z</time></trkpt><trkpt lat="43.3631915" lon="12.2705846"><ele>273.0</ele><time>2026-04-05T12:12:25.982Z</time></trkpt><trkpt lat="43.36332" lon="12.2702989"><ele>273.0</ele><time>2026-04-05T12:12:26.982Z</time></trkpt><trkpt lat="43.3634479" lon="12.2700085"><ele>273.0</ele><time>2026-04-05T12:12:27.983Z</time></trkpt><trkpt lat="43.363574" lon="12.2697212"><ele>276.0</ele><time>2026-04-05T12:12:28.982Z</time></trkpt><trkpt lat="43.3637036" lon="12.2694357"><ele>279.0</ele><time>2026-04-05T12:12:29.983Z</time></trkpt><trkpt lat="43.3638351" lon="12.2691461"><ele>278.5</ele><time>2026-04-05T12:12:30.983Z</time></trkpt><trkpt lat="43.3639643" lon="12.2688573"><ele>278.0</ele><time>2026-04-05T12:12:31.983Z</time></trkpt><trkpt lat="43.3640947" lon="12.2685725"><ele>278.0</ele><time>2026-04-05T12:12:32.983Z</time></trkpt><trkpt lat="43.3642252" lon="12.268285"><ele>278.0</ele><time>2026-04-05T12:12:33.983Z</time></trkpt><trkpt lat="43.3643546" lon="12.2679946"><ele>276.0</ele><time>2026-04-05T12:12:34.982Z</time></trkpt><trkpt lat="43.3644894" lon="12.2677047"><ele>274.0</ele><time>2026-04-05T12:12:35.983Z</time></trkpt><trkpt lat="43.3646196" lon="12.2674135"><ele>278.0</ele><time>2026-04-05T12:12:36.982Z</time></trkpt><trkpt lat="43.364753" lon="12.2671183"><ele>282.0</ele><time>2026-04-05T12:12:37.982Z</time></trkpt><trkpt lat="43.3648895" lon="12.2668317"><ele>282.0</ele><time>2026-04-05T12:12:38.983Z</time></trkpt><trkpt lat="43.3650269" lon="12.2665468"><ele>282.0</ele><time>2026-04-05T12:12:39.983Z</time></trkpt><trkpt lat="43.3651687" lon="12.2662566"><ele>280.5</ele><time>2026-04-05T12:12:40.982Z</time></trkpt><trkpt lat="43.3653191" lon="12.2659745"><ele>279.0</ele><time>2026-04-05T12:12:41.983Z</time></trkpt><trkpt lat="43.3654654" lon="12.2657025"><ele>279.0</ele><time>2026-04-05T12:12:42.982Z</time></trkpt><trkpt lat="43.3656122" lon="12.2654324"><ele>279.0</ele><time>2026-04-05T12:12:43.983Z</time></trkpt><trkpt lat="43.3657666" lon="12.2651638"><ele>279.0</ele><time>2026-04-05T12:12:44.982Z</time></trkpt><trkpt lat="43.3659342" lon="12.2648889"><ele>279.0</ele><time>2026-04-05T12:12:45.983Z</time></trkpt><trkpt lat="43.366098" lon="12.2646287"><ele>279.5</ele><time>2026-04-05T12:12:46.983Z</time></trkpt><trkpt lat="43.3662654" lon="12.2643695"><ele>280.0</ele><time>2026-04-05T12:12:47.982Z</time></trkpt><trkpt lat="43.3664344" lon="12.2641154"><ele>279.0</ele><time>2026-04-05T12:12:48.982Z</time></trkpt><trkpt lat="43.3666064" lon="12.2638655"><ele>278.0</ele><time>2026-04-05T12:12:49.983Z</time></trkpt><trkpt lat="43.3667866" lon="12.2636162"><ele>278.0</ele><time>2026-04-05T12:12:50.982Z</time></trkpt><trkpt lat="43.3669705" lon="12.2633782"><ele>278.0</ele><time>2026-04-05T12:12:51.982Z</time></trkpt><trkpt lat="43.3671615" lon="12.2631395"><ele>278.0</ele><time>2026-04-05T12:12:52.983Z</time></trkpt><trkpt lat="43.3673528" lon="12.2629091"><ele>278.0</ele><time>2026-04-05T12:12:53.983Z</time></trkpt><trkpt lat="43.3675398" lon="12.2626892"><ele>278.0</ele><time>2026-04-05T12:12:54.983Z</time></trkpt><trkpt lat="43.3677294" lon="12.2624603"><ele>278.0</ele><time>2026-04-05T12:12:55.982Z</time></trkpt><trkpt lat="43.3679228" lon="12.262236"><ele>280.0</ele><time>2026-04-05T12:12:56.982Z</time></trkpt><trkpt lat="43.3681238" lon="12.2620277"><ele>282.0</ele><time>2026-04-05T12:12:57.982Z</time></trkpt><trkpt lat="43.3683278" lon="12.261823"><ele>282.0</ele><time>2026-04-05T12:12:58.982Z</time></trkpt><trkpt lat="43.3685334" lon="12.2616226"><ele>282.0</ele><time>2026-04-05T12:12:59.983Z</time></trkpt><trkpt lat="43.3687467" lon="12.2614291"><ele>283.5</ele><time>2026-04-05T12:13:00.982Z</time></trkpt><trkpt lat="43.3689633" lon="12.261243"><ele>285.0</ele><time>2026-04-05T12:13:01.982Z</time></trkpt><trkpt lat="43.3691852" lon="12.2610597"><ele>285.0</ele><time>2026-04-05T12:13:02.982Z</time></trkpt><trkpt lat="43.3694073" lon="12.2608745"><ele>285.0</ele><time>2026-04-05T12:13:03.983Z</time></trkpt><trkpt lat="43.3696255" lon="12.2606895"><ele>286.0</ele><time>2026-04-05T12:13:04.983Z</time></trkpt><trkpt lat="43.3698448" lon="12.2605203"><ele>287.0</ele><time>2026-04-05T12:13:05.983Z</time></trkpt><trkpt lat="43.3700714" lon="12.2603477"><ele>287.0</ele><time>2026-04-05T12:13:06.983Z</time></trkpt><trkpt lat="43.3702948" lon="12.260172"><ele>287.0</ele><time>2026-04-05T12:13:07.983Z</time></trkpt><trkpt lat="43.3705171" lon="12.2599975"><ele>282.0</ele><time>2026-04-05T12:13:08.982Z</time></trkpt><trkpt lat="43.3707448" lon="12.2598196"><ele>277.0</ele><time>2026-04-05T12:13:09.983Z</time></trkpt><trkpt lat="43.3709727" lon="12.2596425"><ele>275.0</ele><time>2026-04-05T12:13:10.983Z</time></trkpt><trkpt lat="43.3711964" lon="12.2594593"><ele>273.0</ele><time>2026-04-05T12:13:11.983Z</time></trkpt><trkpt lat="43.3714276" lon="12.2592829"><ele>272.5</ele><time>2026-04-05T12:13:12.982Z</time></trkpt><trkpt lat="43.3716538" lon="12.2591025"><ele>272.0</ele><time>2026-04-05T12:13:13.982Z</time></trkpt><trkpt lat="43.3718742" lon="12.2589278"><ele>272.0</ele><time>2026-04-05T12:13:14.983Z</time></trkpt><trkpt lat="43.3721008" lon="12.2587477"><ele>272.0</ele><time>2026-04-05T12:13:15.983Z</time></trkpt><trkpt lat="43.372328" lon="12.2585735"><ele>273.0</ele><time>2026-04-05T12:13:16.982Z</time></trkpt><trkpt lat="43.3725519" lon="12.2584065"><ele>274.0</ele><time>2026-04-05T12:13:17.982Z</time></trkpt><trkpt lat="43.3727773" lon="12.258225"><ele>274.0</ele><time>2026-04-05T12:13:18.983Z</time></trkpt><trkpt lat="43.3730012" lon="12.2580477"><ele>274.0</ele><time>2026-04-05T12:13:19.983Z</time></trkpt><trkpt lat="43.3732225" lon="12.2578755"><ele>275.5</ele><time>2026-04-05T12:13:20.983Z</time></trkpt><trkpt lat="43.3734409" lon="12.2576942"><ele>277.0</ele><time>2026-04-05T12:13:21.983Z</time></trkpt><trkpt lat="43.3736674" lon="12.2575127"><ele>277.5</ele><time>2026-04-05T12:13:22.982Z</time></trkpt><trkpt lat="43.3738927" lon="12.2573339"><ele>278.0</ele><time>2026-04-05T12:13:23.982Z</time></trkpt><trkpt lat="43.3741141" lon="12.2571639"><ele>278.0</ele><time>2026-04-05T12:13:24.983Z</time></trkpt><trkpt lat="43.3743374" lon="12.256993"><ele>278.0</ele><time>2026-04-05T12:13:25.982Z</time></trkpt><trkpt lat="43.3745572" lon="12.2568185"><ele>278.5</ele><time>2026-04-05T12:13:26.982Z</time></trkpt><trkpt lat="43.3747808" lon="12.2566398"><ele>279.0</ele><time>2026-04-05T12:13:27.983Z</time></trkpt><trkpt lat="43.3750084" lon="12.2564638"><ele>277.5</ele><time>2026-04-05T12:13:28.982Z</time></trkpt><trkpt lat="43.3752323" lon="12.2562913"><ele>276.0</ele><time>2026-04-05T12:13:29.983Z</time></trkpt><trkpt lat="43.3754549" lon="12.2561178"><ele>276.0</ele><time>2026-04-05T12:13:30.982Z</time></trkpt><trkpt lat="43.375681" lon="12.2559386"><ele>276.0</ele><time>2026-04-05T12:13:31.983Z</time></trkpt><trkpt lat="43.3759035" lon="12.2557615"><ele>275.0</ele><time>2026-04-05T12:13:32.983Z</time></trkpt><trkpt lat="43.376132" lon="12.2555822"><ele>274.0</ele><time>2026-04-05T12:13:33.983Z</time></trkpt><trkpt lat="43.376358" lon="12.2554107"><ele>273.5</ele><time>2026-04-05T12:13:34.982Z</time></trkpt><trkpt lat="43.3765848" lon="12.2552322"><ele>273.0</ele><time>2026-04-05T12:13:35.983Z</time></trkpt><trkpt lat="43.3768125" lon="12.2550543"><ele>273.0</ele><time>2026-04-05T12:13:36.983Z</time></trkpt><trkpt lat="43.3770369" lon="12.2548766"><ele>273.0</ele><time>2026-04-05T12:13:37.983Z</time></trkpt><trkpt lat="43.377268" lon="12.2546935"><ele>273.5</ele><time>2026-04-05T12:13:38.983Z</time></trkpt><trkpt lat="43.3774997" lon="12.2545106"><ele>274.0</ele><time>2026-04-05T12:13:39.982Z</time></trkpt><trkpt lat="43.3777297" lon="12.2543251"><ele>274.0</ele><time>2026-04-05T12:13:40.983Z</time></trkpt><trkpt lat="43.377962" lon="12.254139"><ele>274.0</ele><time>2026-04-05T12:13:41.983Z</time></trkpt><trkpt lat="43.3781989" lon="12.2539534"><ele>271.0</ele><time>2026-04-05T12:13:42.983Z</time></trkpt><trkpt lat="43.3784339" lon="12.2537691"><ele>268.0</ele><time>2026-04-05T12:13:43.983Z</time></trkpt><trkpt lat="43.3786711" lon="12.2535858"><ele>269.0</ele><time>2026-04-05T12:13:44.983Z</time></trkpt><trkpt lat="43.3789078" lon="12.2533987"><ele>270.0</ele><time>2026-04-05T12:13:45.983Z</time></trkpt><trkpt lat="43.3791413" lon="12.2532094"><ele>267.5</ele><time>2026-04-05T12:13:46.983Z</time></trkpt><trkpt lat="43.3793799" lon="12.2530248"><ele>265.0</ele><time>2026-04-05T12:13:47.983Z</time></trkpt><trkpt lat="43.3796181" lon="12.2528406"><ele>265.0</ele><time>2026-04-05T12:13:48.982Z</time></trkpt><trkpt lat="43.3798566" lon="12.2526584"><ele>265.0</ele><time>2026-04-05T12:13:49.982Z</time></trkpt><trkpt lat="43.3800945" lon="12.2524779"><ele>265.0</ele><time>2026-04-05T12:13:50.982Z</time></trkpt><trkpt lat="43.3803396" lon="12.2523113"><ele>265.0</ele><time>2026-04-05T12:13:51.983Z</time></trkpt><trkpt lat="43.3805867" lon="12.2521592"><ele>264.5</ele><time>2026-04-05T12:13:52.982Z</time></trkpt><trkpt lat="43.380832" lon="12.2520059"><ele>264.0</ele><time>2026-04-05T12:13:53.983Z</time></trkpt><trkpt lat="43.3810785" lon="12.2518581"><ele>264.0</ele><time>2026-04-05T12:13:54.983Z</time></trkpt><trkpt lat="43.3813294" lon="12.2517171"><ele>264.0</ele><time>2026-04-05T12:13:55.983Z</time></trkpt><trkpt lat="43.3815843" lon="12.2515908"><ele>264.0</ele><time>2026-04-05T12:13:56.983Z</time></trkpt><trkpt lat="43.3818405" lon="12.2514704"><ele>264.0</ele><time>2026-04-05T12:13:57.983Z</time></trkpt><trkpt lat="43.382101" lon="12.2513525"><ele>264.0</ele><time>2026-04-05T12:13:58.983Z</time></trkpt><trkpt lat="43.3823677" lon="12.2512415"><ele>264.0</ele><time>2026-04-05T12:13:59.982Z</time></trkpt><trkpt lat="43.3826292" lon="12.2511319"><ele>264.0</ele><time>2026-04-05T12:14:00.983Z</time></trkpt><trkpt lat="43.3828984" lon="12.2510248"><ele>264.0</ele><time>2026-04-05T12:14:01.983Z</time></trkpt><trkpt lat="43.3831653" lon="12.2509361"><ele>263.5</ele><time>2026-04-05T12:14:02.983Z</time></trkpt><trkpt lat="43.3834309" lon="12.2508424"><ele>263.0</ele><time>2026-04-05T12:14:03.982Z</time></trkpt><trkpt lat="43.3837007" lon="12.2507664"><ele>263.0</ele><time>2026-04-05T12:14:04.983Z</time></trkpt><trkpt lat="43.3839694" lon="12.2506949"><ele>263.0</ele><time>2026-04-05T12:14:05.983Z</time></trkpt><trkpt lat="43.3842424" lon="12.2506387"><ele>263.0</ele><time>2026-04-05T12:14:06.983Z</time></trkpt><trkpt lat="43.3845111" lon="12.2505874"><ele>263.0</ele><time>2026-04-05T12:14:07.983Z</time></trkpt><trkpt lat="43.384784" lon="12.2505424"><ele>263.0</ele><time>2026-04-05T12:14:08.982Z</time></trkpt><trkpt lat="43.3850518" lon="12.2505032"><ele>263.0</ele><time>2026-04-05T12:14:09.983Z</time></trkpt><trkpt lat="43.3853288" lon="12.2504818"><ele>262.5</ele><time>2026-04-05T12:14:10.983Z</time></trkpt><trkpt lat="43.385601" lon="12.2504585"><ele>262.0</ele><time>2026-04-05T12:14:11.982Z</time></trkpt><trkpt lat="43.3858746" lon="12.2504412"><ele>262.0</ele><time>2026-04-05T12:14:12.983Z</time></trkpt><trkpt lat="43.3861388" lon="12.2504111"><ele>262.0</ele><time>2026-04-05T12:14:13.982Z</time></trkpt><trkpt lat="43.3864166" lon="12.2503946"><ele>261.0</ele><time>2026-04-05T12:14:14.983Z</time></trkpt><trkpt lat="43.386687" lon="12.2503778"><ele>260.0</ele><time>2026-04-05T12:14:15.983Z</time></trkpt><trkpt lat="43.386958" lon="12.250362"><ele>259.5</ele><time>2026-04-05T12:14:16.983Z</time></trkpt><trkpt lat="43.3872294" lon="12.2503416"><ele>259.0</ele><time>2026-04-05T12:14:17.982Z</time></trkpt><trkpt lat="43.387498" lon="12.2503289"><ele>259.0</ele><time>2026-04-05T12:14:18.983Z</time></trkpt><trkpt lat="43.3877666" lon="12.2503086"><ele>259.0</ele><time>2026-04-05T12:14:19.983Z</time></trkpt><trkpt lat="43.388035" lon="12.2502845"><ele>260.5</ele><time>2026-04-05T12:14:20.982Z</time></trkpt><trkpt lat="43.3883065" lon="12.2502709"><ele>262.0</ele><time>2026-04-05T12:14:21.983Z</time></trkpt><trkpt lat="43.3885766" lon="12.2502424"><ele>262.5</ele><time>2026-04-05T12:14:22.983Z</time></trkpt><trkpt lat="43.3888437" lon="12.2502283"><ele>263.0</ele><time>2026-04-05T12:14:23.983Z</time></trkpt><trkpt lat="43.3891072" lon="12.2502161"><ele>263.0</ele><time>2026-04-05T12:14:24.982Z</time></trkpt><trkpt lat="43.3893745" lon="12.2502068"><ele>263.0</ele><time>2026-04-05T12:14:25.983Z</time></trkpt><trkpt lat="43.3896358" lon="12.2501917"><ele>264.0</ele><time>2026-04-05T12:14:26.983Z</time></trkpt><trkpt lat="43.3898994" lon="12.2501695"><ele>265.0</ele><time>2026-04-05T12:14:27.983Z</time></trkpt><trkpt lat="43.3901662" lon="12.2501557"><ele>265.0</ele><time>2026-04-05T12:14:28.983Z</time></trkpt><trkpt lat="43.3904329" lon="12.2501426"><ele>265.0</ele><time>2026-04-05T12:14:29.983Z</time></trkpt><trkpt lat="43.3906986" lon="12.2501215"><ele>265.5</ele><time>2026-04-05T12:14:30.982Z</time></trkpt><trkpt lat="43.390966" lon="12.2501145"><ele>266.0</ele><time>2026-04-05T12:14:31.983Z</time></trkpt><trkpt lat="43.3912354" lon="12.2500956"><ele>266.5</ele><time>2026-04-05T12:14:32.983Z</time></trkpt><trkpt lat="43.3915046" lon="12.2500764"><ele>267.0</ele><time>2026-04-05T12:14:33.982Z</time></trkpt><trkpt lat="43.3917727" lon="12.2500584"><ele>267.0</ele><time>2026-04-05T12:14:34.983Z</time></trkpt><trkpt lat="43.39204" lon="12.2500429"><ele>267.0</ele><time>2026-04-05T12:14:35.983Z</time></trkpt><trkpt lat="43.3923067" lon="12.2500244"><ele>266.5</ele><time>2026-04-05T12:14:36.982Z</time></trkpt><trkpt lat="43.3925724" lon="12.2500022"><ele>266.0</ele><time>2026-04-05T12:14:37.983Z</time></trkpt><trkpt lat="43.3928396" lon="12.2499861"><ele>265.5</ele><time>2026-04-05T12:14:38.983Z</time></trkpt><trkpt lat="43.3931078" lon="12.2499693"><ele>265.0</ele><time>2026-04-05T12:14:39.982Z</time></trkpt><trkpt lat="43.3933719" lon="12.2499538"><ele>265.0</ele><time>2026-04-05T12:14:40.983Z</time></trkpt><trkpt lat="43.3936404" lon="12.2499449"><ele>265.0</ele><time>2026-04-05T12:14:41.983Z</time></trkpt><trkpt lat="43.3939013" lon="12.2499236"><ele>266.5</ele><time>2026-04-05T12:14:42.983Z</time></trkpt><trkpt lat="43.3941659" lon="12.2499094"><ele>268.0</ele><time>2026-04-05T12:14:43.983Z</time></trkpt><trkpt lat="43.3944339" lon="12.2498916"><ele>267.5</ele><time>2026-04-05T12:14:44.983Z</time></trkpt><trkpt lat="43.3947041" lon="12.2498775"><ele>267.0</ele><time>2026-04-05T12:14:45.982Z</time></trkpt><trkpt lat="43.394973" lon="12.2498627"><ele>267.0</ele><time>2026-04-05T12:14:46.983Z</time></trkpt><trkpt lat="43.3952392" lon="12.2498421"><ele>267.0</ele><time>2026-04-05T12:14:47.983Z</time></trkpt><trkpt lat="43.3955022" lon="12.2498327"><ele>264.5</ele><time>2026-04-05T12:14:48.983Z</time></trkpt><trkpt lat="43.3957678" lon="12.2498173"><ele>262.0</ele><time>2026-04-05T12:14:49.982Z</time></trkpt><trkpt lat="43.3960296" lon="12.2498048"><ele>261.0</ele><time>2026-04-05T12:14:50.982Z</time></trkpt><trkpt lat="43.3962899" lon="12.2497852"><ele>260.0</ele><time>2026-04-05T12:14:51.982Z</time></trkpt><trkpt lat="43.3965509" lon="12.2497605"><ele>260.0</ele><time>2026-04-05T12:14:52.983Z</time></trkpt><trkpt lat="43.3968193" lon="12.2497425"><ele>260.0</ele><time>2026-04-05T12:14:53.983Z</time></trkpt><trkpt lat="43.3970837" lon="12.2497307"><ele>260.5</ele><time>2026-04-05T12:14:54.983Z</time></trkpt><trkpt lat="43.3973472" lon="12.2497156"><ele>261.0</ele><time>2026-04-05T12:14:55.983Z</time></trkpt><trkpt lat="43.3976138" lon="12.2496994"><ele>261.0</ele><time>2026-04-05T12:14:56.983Z</time></trkpt><trkpt lat="43.397884" lon="12.2496785"><ele>261.0</ele><time>2026-04-05T12:14:57.983Z</time></trkpt><trkpt lat="43.3981505" lon="12.2496636"><ele>261.0</ele><time>2026-04-05T12:14:58.983Z</time></trkpt><trkpt lat="43.3984182" lon="12.2496467"><ele>261.0</ele><time>2026-04-05T12:14:59.983Z</time></trkpt><trkpt lat="43.3986853" lon="12.2496232"><ele>261.0</ele><time>2026-04-05T12:15:00.983Z</time></trkpt><trkpt lat="43.3989536" lon="12.249612"><ele>261.0</ele><time>2026-04-05T12:15:01.983Z</time></trkpt><trkpt lat="43.3992206" lon="12.2495978"><ele>261.0</ele><time>2026-04-05T12:15:02.982Z</time></trkpt><trkpt lat="43.3994897" lon="12.2495803"><ele>261.0</ele><time>2026-04-05T12:15:03.983Z</time></trkpt><trkpt lat="43.3997587" lon="12.2495582"><ele>262.0</ele><time>2026-04-05T12:15:04.983Z</time></trkpt><trkpt lat="43.4000274" lon="12.2495477"><ele>263.0</ele><time>2026-04-05T12:15:05.983Z</time></trkpt><trkpt lat="43.400299" lon="12.249527"><ele>263.0</ele><time>2026-04-05T12:15:06.982Z</time></trkpt><trkpt lat="43.4005664" lon="12.2495084"><ele>263.0</ele><time>2026-04-05T12:15:07.983Z</time></trkpt><trkpt lat="43.4008363" lon="12.2494853"><ele>263.0</ele><time>2026-04-05T12:15:08.982Z</time></trkpt><trkpt lat="43.4011061" lon="12.2494651"><ele>263.0</ele><time>2026-04-05T12:15:09.983Z</time></trkpt><trkpt lat="43.4013719" lon="12.2494489"><ele>262.5</ele><time>2026-04-05T12:15:10.983Z</time></trkpt><trkpt lat="43.4016345" lon="12.2494327"><ele>262.0</ele><time>2026-04-05T12:15:11.982Z</time></trkpt><trkpt lat="43.4018991" lon="12.2494186"><ele>263.5</ele><time>2026-04-05T12:15:12.982Z</time></trkpt><trkpt lat="43.4021655" lon="12.2494043"><ele>265.0</ele><time>2026-04-05T12:15:13.983Z</time></trkpt><trkpt lat="43.4024229" lon="12.2493833"><ele>265.0</ele><time>2026-04-05T12:15:14.983Z</time></trkpt><trkpt lat="43.4026835" lon="12.2493698"><ele>265.0</ele><time>2026-04-05T12:15:15.982Z</time></trkpt><trkpt lat="43.4029365" lon="12.2493509"><ele>263.5</ele><time>2026-04-05T12:15:16.983Z</time></trkpt><trkpt lat="43.4031938" lon="12.2493374"><ele>262.0</ele><time>2026-04-05T12:15:17.982Z</time></trkpt><trkpt lat="43.4034547" lon="12.2493245"><ele>262.0</ele><time>2026-04-05T12:15:18.983Z</time></trkpt><trkpt lat="43.4037127" lon="12.2493089"><ele>262.0</ele><time>2026-04-05T12:15:19.982Z</time></trkpt><trkpt lat="43.4039686" lon="12.2492807"><ele>262.5</ele><time>2026-04-05T12:15:20.982Z</time></trkpt><trkpt lat="43.40423" lon="12.2492618"><ele>263.0</ele><time>2026-04-05T12:15:21.983Z</time></trkpt><trkpt lat="43.4044961" lon="12.2492448"><ele>263.5</ele><time>2026-04-05T12:15:22.983Z</time></trkpt><trkpt lat="43.4047584" lon="12.2492302"><ele>264.0</ele><time>2026-04-05T12:15:23.982Z</time></trkpt><trkpt lat="43.4050239" lon="12.2492212"><ele>264.0</ele><time>2026-04-05T12:15:24.983Z</time></trkpt><trkpt lat="43.4052816" lon="12.2492032"><ele>264.0</ele><time>2026-04-05T12:15:25.983Z</time></trkpt><trkpt lat="43.4055459" lon="12.2491855"><ele>266.5</ele><time>2026-04-05T12:15:26.983Z</time></trkpt><trkpt lat="43.4058105" lon="12.2491702"><ele>269.0</ele><time>2026-04-05T12:15:27.983Z</time></trkpt><trkpt lat="43.406074" lon="12.2491525"><ele>271.5</ele><time>2026-04-05T12:15:28.983Z</time></trkpt><trkpt lat="43.4063384" lon="12.2491363"><ele>274.0</ele><time>2026-04-05T12:15:29.982Z</time></trkpt><trkpt lat="43.4065967" lon="12.2491347"><ele>274.0</ele><time>2026-04-05T12:15:30.983Z</time></trkpt><trkpt lat="43.4068561" lon="12.2491156"><ele>274.0</ele><time>2026-04-05T12:15:31.983Z</time></trkpt><trkpt lat="43.407119" lon="12.2490938"><ele>273.5</ele><time>2026-04-05T12:15:32.983Z</time></trkpt><trkpt lat="43.4073822" lon="12.249068"><ele>273.0</ele><time>2026-04-05T12:15:33.983Z</time></trkpt><trkpt lat="43.407639" lon="12.2490321"><ele>273.0</ele><time>2026-04-05T12:15:34.983Z</time></trkpt><trkpt lat="43.4079013" lon="12.2489902"><ele>273.0</ele><time>2026-04-05T12:15:35.983Z</time></trkpt><trkpt lat="43.4081524" lon="12.2489413"><ele>269.0</ele><time>2026-04-05T12:15:36.983Z</time></trkpt><trkpt lat="43.4084074" lon="12.2488912"><ele>265.0</ele><time>2026-04-05T12:15:37.983Z</time></trkpt><trkpt lat="43.4086608" lon="12.2488463"><ele>267.5</ele><time>2026-04-05T12:15:38.983Z</time></trkpt><trkpt lat="43.4089157" lon="12.2488007"><ele>270.0</ele><time>2026-04-05T12:15:39.983Z</time></trkpt><trkpt lat="43.4091683" lon="12.2487564"><ele>270.0</ele><time>2026-04-05T12:15:40.983Z</time></trkpt><trkpt lat="43.4094228" lon="12.2487109"><ele>270.0</ele><time>2026-04-05T12:15:41.982Z</time></trkpt><trkpt lat="43.4096767" lon="12.2486618"><ele>268.0</ele><time>2026-04-05T12:15:42.983Z</time></trkpt><trkpt lat="43.4099236" lon="12.2486123"><ele>266.0</ele><time>2026-04-05T12:15:43.983Z</time></trkpt><trkpt lat="43.4101734" lon="12.2485604"><ele>266.0</ele><time>2026-04-05T12:15:44.983Z</time></trkpt><trkpt lat="43.4104229" lon="12.2485173"><ele>266.0</ele><time>2026-04-05T12:15:45.983Z</time></trkpt><trkpt lat="43.4106709" lon="12.2484729"><ele>265.0</ele><time>2026-04-05T12:15:46.982Z</time></trkpt><trkpt lat="43.4109191" lon="12.2484242"><ele>264.0</ele><time>2026-04-05T12:15:47.983Z</time></trkpt><trkpt lat="43.4111665" lon="12.2483782"><ele>265.0</ele><time>2026-04-05T12:15:48.983Z</time></trkpt><trkpt lat="43.4114129" lon="12.2483318"><ele>266.0</ele><time>2026-04-05T12:15:49.983Z</time></trkpt><trkpt lat="43.4116584" lon="12.2482837"><ele>266.0</ele><time>2026-04-05T12:15:50.982Z</time></trkpt><trkpt lat="43.4119129" lon="12.2482313"><ele>266.0</ele><time>2026-04-05T12:15:51.983Z</time></trkpt><trkpt lat="43.4121587" lon="12.2481874"><ele>266.0</ele><time>2026-04-05T12:15:52.983Z</time></trkpt><trkpt lat="43.4124086" lon="12.2481402"><ele>266.0</ele><time>2026-04-05T12:15:53.983Z</time></trkpt><trkpt lat="43.4126605" lon="12.2480931"><ele>266.0</ele><time>2026-04-05T12:15:54.983Z</time></trkpt><trkpt lat="43.4129082" lon="12.248047"><ele>266.0</ele><time>2026-04-05T12:15:55.983Z</time></trkpt><trkpt lat="43.4131582" lon="12.2479977"><ele>266.0</ele><time>2026-04-05T12:15:56.982Z</time></trkpt><trkpt lat="43.4134075" lon="12.2479508"><ele>266.0</ele><time>2026-04-05T12:15:57.983Z</time></trkpt><trkpt lat="43.4136544" lon="12.2479019"><ele>266.5</ele><time>2026-04-05T12:15:58.983Z</time></trkpt><trkpt lat="43.4139026" lon="12.2478547"><ele>267.0</ele><time>2026-04-05T12:15:59.983Z</time></trkpt><trkpt lat="43.4141506" lon="12.2478071"><ele>267.0</ele><time>2026-04-05T12:16:00.983Z</time></trkpt><trkpt lat="43.4143961" lon="12.2477625"><ele>267.0</ele><time>2026-04-05T12:16:01.983Z</time></trkpt><trkpt lat="43.4146482" lon="12.2477075"><ele>269.5</ele><time>2026-04-05T12:16:02.983Z</time></trkpt><trkpt lat="43.4148966" lon="12.2476686"><ele>272.0</ele><time>2026-04-05T12:16:03.982Z</time></trkpt><trkpt lat="43.4151419" lon="12.2476224"><ele>272.0</ele><time>2026-04-05T12:16:04.983Z</time></trkpt><trkpt lat="43.4153862" lon="12.2475707"><ele>272.0</ele><time>2026-04-05T12:16:05.983Z</time></trkpt><trkpt lat="43.4156325" lon="12.247512"><ele>272.5</ele><time>2026-04-05T12:16:06.982Z</time></trkpt><trkpt lat="43.4158698" lon="12.2474584"><ele>273.0</ele><time>2026-04-05T12:16:07.982Z</time></trkpt><trkpt lat="43.4161121" lon="12.2474173"><ele>273.5</ele><time>2026-04-05T12:16:08.983Z</time></trkpt><trkpt lat="43.416354" lon="12.2473769"><ele>274.0</ele><time>2026-04-05T12:16:09.982Z</time></trkpt><trkpt lat="43.4165968" lon="12.2473343"><ele>273.0</ele><time>2026-04-05T12:16:10.983Z</time></trkpt><trkpt lat="43.4168359" lon="12.2472936"><ele>272.0</ele><time>2026-04-05T12:16:11.982Z</time></trkpt><trkpt lat="43.4170826" lon="12.2472518"><ele>274.5</ele><time>2026-04-05T12:16:12.983Z</time></trkpt><trkpt lat="43.4173278" lon="12.2472001"><ele>277.0</ele><time>2026-04-05T12:16:13.983Z</time></trkpt><trkpt lat="43.4175722" lon="12.2471576"><ele>277.0</ele><time>2026-04-05T12:16:14.983Z</time></trkpt><trkpt lat="43.4178224" lon="12.2471146"><ele>277.0</ele><time>2026-04-05T12:16:15.982Z</time></trkpt><trkpt lat="43.4180721" lon="12.2470669"><ele>278.0</ele><time>2026-04-05T12:16:16.983Z</time></trkpt><trkpt lat="43.4183217" lon="12.2470162"><ele>279.0</ele><time>2026-04-05T12:16:17.983Z</time></trkpt><trkpt lat="43.4185728" lon="12.2469709"><ele>278.0</ele><time>2026-04-05T12:16:18.983Z</time></trkpt><trkpt lat="43.4188198" lon="12.2469261"><ele>277.0</ele><time>2026-04-05T12:16:19.982Z</time></trkpt><trkpt lat="43.419069" lon="12.2468807"><ele>277.0</ele><time>2026-04-05T12:16:20.983Z</time></trkpt><trkpt lat="43.419318" lon="12.2468272"><ele>277.0</ele><time>2026-04-05T12:16:21.982Z</time></trkpt><trkpt lat="43.4195695" lon="12.2467734"><ele>276.0</ele><time>2026-04-05T12:16:22.983Z</time></trkpt><trkpt lat="43.4198243" lon="12.246718"><ele>275.0</ele><time>2026-04-05T12:16:23.982Z</time></trkpt><trkpt lat="43.4200758" lon="12.2466682"><ele>275.0</ele><time>2026-04-05T12:16:24.983Z</time></trkpt><trkpt lat="43.420325" lon="12.2466226"><ele>275.0</ele><time>2026-04-05T12:16:25.983Z</time></trkpt><trkpt lat="43.420568" lon="12.246568"><ele>276.0</ele><time>2026-04-05T12:16:26.983Z</time></trkpt><trkpt lat="43.4208185" lon="12.2465219"><ele>277.0</ele><time>2026-04-05T12:16:27.982Z</time></trkpt><trkpt lat="43.4210709" lon="12.2464781"><ele>276.5</ele><time>2026-04-05T12:16:28.983Z</time></trkpt><trkpt lat="43.4213264" lon="12.2464362"><ele>276.0</ele><time>2026-04-05T12:16:29.983Z</time></trkpt><trkpt lat="43.4215816" lon="12.2463882"><ele>276.0</ele><time>2026-04-05T12:16:30.983Z</time></trkpt><trkpt lat="43.4218297" lon="12.246341"><ele>276.0</ele><time>2026-04-05T12:16:31.982Z</time></trkpt><trkpt lat="43.4220766" lon="12.2462939"><ele>275.0</ele><time>2026-04-05T12:16:32.983Z</time></trkpt><trkpt lat="43.4223225" lon="12.2462449"><ele>274.0</ele><time>2026-04-05T12:16:33.983Z</time></trkpt><trkpt lat="43.4225704" lon="12.2461977"><ele>274.0</ele><time>2026-04-05T12:16:34.983Z</time></trkpt><trkpt lat="43.422813" lon="12.2461496"><ele>274.0</ele><time>2026-04-05T12:16:35.983Z</time></trkpt><trkpt lat="43.4230589" lon="12.2461072"><ele>274.5</ele><time>2026-04-05T12:16:36.982Z</time></trkpt><trkpt lat="43.4233065" lon="12.2460621"><ele>275.0</ele><time>2026-04-05T12:16:37.983Z</time></trkpt><trkpt lat="43.4235531" lon="12.2460177"><ele>275.0</ele><time>2026-04-05T12:16:38.983Z</time></trkpt><trkpt lat="43.4238019" lon="12.2459675"><ele>275.0</ele><time>2026-04-05T12:16:39.983Z</time></trkpt><trkpt lat="43.4240483" lon="12.2459204"><ele>275.5</ele><time>2026-04-05T12:16:40.982Z</time></trkpt><trkpt lat="43.4242969" lon="12.2458774"><ele>276.0</ele><time>2026-04-05T12:16:41.982Z</time></trkpt><trkpt lat="43.4245451" lon="12.2458334"><ele>275.5</ele><time>2026-04-05T12:16:42.983Z</time></trkpt><trkpt lat="43.4247942" lon="12.2457881"><ele>275.0</ele><time>2026-04-05T12:16:43.983Z</time></trkpt><trkpt lat="43.4250435" lon="12.2457454"><ele>275.0</ele><time>2026-04-05T12:16:44.982Z</time></trkpt><trkpt lat="43.4252976" lon="12.2456935"><ele>275.0</ele><time>2026-04-05T12:16:45.982Z</time></trkpt><trkpt lat="43.4255516" lon="12.2456484"><ele>276.0</ele><time>2026-04-05T12:16:46.982Z</time></trkpt><trkpt lat="43.4258008" lon="12.2456027"><ele>277.0</ele><time>2026-04-05T12:16:47.983Z</time></trkpt><trkpt lat="43.4260457" lon="12.2455582"><ele>277.0</ele><time>2026-04-05T12:16:48.982Z</time></trkpt><trkpt lat="43.4262921" lon="12.2455129"><ele>277.0</ele><time>2026-04-05T12:16:49.982Z</time></trkpt><trkpt lat="43.4265394" lon="12.2454663"><ele>276.5</ele><time>2026-04-05T12:16:50.983Z</time></trkpt><trkpt lat="43.4267858" lon="12.2454235"><ele>276.0</ele><time>2026-04-05T12:16:51.983Z</time></trkpt><trkpt lat="43.4270264" lon="12.2453781"><ele>276.0</ele><time>2026-04-05T12:16:52.982Z</time></trkpt><trkpt lat="43.4272658" lon="12.245333"><ele>276.0</ele><time>2026-04-05T12:16:53.983Z</time></trkpt><trkpt lat="43.4275045" lon="12.2452908"><ele>276.0</ele><time>2026-04-05T12:16:54.983Z</time></trkpt><trkpt lat="43.4277482" lon="12.2452441"><ele>276.0</ele><time>2026-04-05T12:16:55.983Z</time></trkpt><trkpt lat="43.4279896" lon="12.2451971"><ele>277.5</ele><time>2026-04-05T12:16:56.982Z</time></trkpt><trkpt lat="43.4282434" lon="12.245159"><ele>279.0</ele><time>2026-04-05T12:16:57.983Z</time></trkpt><trkpt lat="43.4284892" lon="12.2451116"><ele>279.0</ele><time>2026-04-05T12:16:58.983Z</time></trkpt><trkpt lat="43.4287352" lon="12.2450578"><ele>279.0</ele><time>2026-04-05T12:16:59.982Z</time></trkpt><trkpt lat="43.4289886" lon="12.2450105"><ele>278.0</ele><time>2026-04-05T12:17:00.983Z</time></trkpt><trkpt lat="43.4292453" lon="12.2449666"><ele>277.0</ele><time>2026-04-05T12:17:01.983Z</time></trkpt><trkpt lat="43.4294967" lon="12.2449216"><ele>275.0</ele><time>2026-04-05T12:17:02.983Z</time></trkpt><trkpt lat="43.4297607" lon="12.244876"><ele>273.0</ele><time>2026-04-05T12:17:03.983Z</time></trkpt><trkpt lat="43.4300258" lon="12.2448242"><ele>273.0</ele><time>2026-04-05T12:17:04.982Z</time></trkpt><trkpt lat="43.4302901" lon="12.2447748"><ele>273.0</ele><time>2026-04-05T12:17:05.983Z</time></trkpt><trkpt lat="43.4305554" lon="12.2447238"><ele>272.5</ele><time>2026-04-05T12:17:06.983Z</time></trkpt><trkpt lat="43.4308195" lon="12.2446722"><ele>272.0</ele><time>2026-04-05T12:17:07.982Z</time></trkpt><trkpt lat="43.4310966" lon="12.2446237"><ele>273.0</ele><time>2026-04-05T12:17:08.983Z</time></trkpt><trkpt lat="43.4313591" lon="12.2445788"><ele>274.0</ele><time>2026-04-05T12:17:09.983Z</time></trkpt><trkpt lat="43.4316262" lon="12.2445306"><ele>274.0</ele><time>2026-04-05T12:17:10.983Z</time></trkpt><trkpt lat="43.4318897" lon="12.2444816"><ele>274.0</ele><time>2026-04-05T12:17:11.983Z</time></trkpt><trkpt lat="43.4321566" lon="12.2444327"><ele>273.0</ele><time>2026-04-05T12:17:12.983Z</time></trkpt><trkpt lat="43.432428" lon="12.2443878"><ele>272.0</ele><time>2026-04-05T12:17:13.982Z</time></trkpt><trkpt lat="43.432691" lon="12.2443351"><ele>272.0</ele><time>2026-04-05T12:17:14.983Z</time></trkpt><trkpt lat="43.4329571" lon="12.2442825"><ele>272.0</ele><time>2026-04-05T12:17:15.983Z</time></trkpt><trkpt lat="43.4332182" lon="12.2442257"><ele>271.5</ele><time>2026-04-05T12:17:16.982Z</time></trkpt><trkpt lat="43.433478" lon="12.2441719"><ele>271.0</ele><time>2026-04-05T12:17:17.983Z</time></trkpt><trkpt lat="43.4337425" lon="12.2441144"><ele>272.5</ele><time>2026-04-05T12:17:18.983Z</time></trkpt><trkpt lat="43.4340075" lon="12.244061"><ele>274.0</ele><time>2026-04-05T12:17:19.983Z</time></trkpt><trkpt lat="43.4342697" lon="12.2440064"><ele>275.0</ele><time>2026-04-05T12:17:20.983Z</time></trkpt><trkpt lat="43.4345234" lon="12.2439632"><ele>276.0</ele><time>2026-04-05T12:17:21.983Z</time></trkpt><trkpt lat="43.4347767" lon="12.2439198"><ele>276.0</ele><time>2026-04-05T12:17:22.982Z</time></trkpt><trkpt lat="43.4350241" lon="12.2438744"><ele>276.0</ele><time>2026-04-05T12:17:23.982Z</time></trkpt><trkpt lat="43.4352727" lon="12.2438238"><ele>277.0</ele><time>2026-04-05T12:17:24.983Z</time></trkpt><trkpt lat="43.435519" lon="12.2437706"><ele>278.0</ele><time>2026-04-05T12:17:25.982Z</time></trkpt><trkpt lat="43.4357632" lon="12.2437097"><ele>278.0</ele><time>2026-04-05T12:17:26.983Z</time></trkpt><trkpt lat="43.4360068" lon="12.2436408"><ele>278.0</ele><time>2026-04-05T12:17:27.983Z</time></trkpt><trkpt lat="43.4362456" lon="12.2435654"><ele>279.0</ele><time>2026-04-05T12:17:28.981Z</time></trkpt><trkpt lat="43.4364803" lon="12.2434755"><ele>280.0</ele><time>2026-04-05T12:17:29.983Z</time></trkpt><trkpt lat="43.4367164" lon="12.2433768"><ele>280.0</ele><time>2026-04-05T12:17:30.983Z</time></trkpt><trkpt lat="43.4369477" lon="12.2432729"><ele>280.0</ele><time>2026-04-05T12:17:31.983Z</time></trkpt><trkpt lat="43.4371796" lon="12.2431563"><ele>281.5</ele><time>2026-04-05T12:17:32.982Z</time></trkpt><trkpt lat="43.4374117" lon="12.2430355"><ele>283.0</ele><time>2026-04-05T12:17:33.982Z</time></trkpt><trkpt lat="43.4376368" lon="12.2429072"><ele>283.0</ele><time>2026-04-05T12:17:34.983Z</time></trkpt><trkpt lat="43.4378632" lon="12.2427621"><ele>283.0</ele><time>2026-04-05T12:17:35.983Z</time></trkpt><trkpt lat="43.4380791" lon="12.2426072"><ele>283.0</ele><time>2026-04-05T12:17:36.983Z</time></trkpt><trkpt lat="43.4383045" lon="12.2424461"><ele>283.0</ele><time>2026-04-05T12:17:37.983Z</time></trkpt><trkpt lat="43.4385223" lon="12.2422755"><ele>285.5</ele><time>2026-04-05T12:17:38.983Z</time></trkpt><trkpt lat="43.438734" lon="12.2421026"><ele>288.0</ele><time>2026-04-05T12:17:39.983Z</time></trkpt><trkpt lat="43.4389358" lon="12.2419133"><ele>288.0</ele><time>2026-04-05T12:17:40.982Z</time></trkpt><trkpt lat="43.4391411" lon="12.2417279"><ele>288.0</ele><time>2026-04-05T12:17:41.983Z</time></trkpt><trkpt lat="43.4393409" lon="12.2415314"><ele>293.0</ele><time>2026-04-05T12:17:42.983Z</time></trkpt><trkpt lat="43.4395348" lon="12.2413309"><ele>298.0</ele><time>2026-04-05T12:17:43.983Z</time></trkpt><trkpt lat="43.4397256" lon="12.2411296"><ele>298.0</ele><time>2026-04-05T12:17:44.983Z</time></trkpt><trkpt lat="43.4399111" lon="12.240921"><ele>298.0</ele><time>2026-04-05T12:17:45.983Z</time></trkpt><trkpt lat="43.4401026" lon="12.2407125"><ele>306.5</ele><time>2026-04-05T12:17:46.982Z</time></trkpt><trkpt lat="43.4402923" lon="12.2405092"><ele>315.0</ele><time>2026-04-05T12:17:47.983Z</time></trkpt><trkpt lat="43.4404826" lon="12.240308"><ele>315.0</ele><time>2026-04-05T12:17:48.983Z</time></trkpt><trkpt lat="43.4406728" lon="12.2401081"><ele>315.0</ele><time>2026-04-05T12:17:49.982Z</time></trkpt><trkpt lat="43.4408632" lon="12.2399087"><ele>299.0</ele><time>2026-04-05T12:17:50.983Z</time></trkpt><trkpt lat="43.4416637" lon="12.2390737"><ele>303.5</ele><time>2026-04-05T12:17:54.983Z</time></trkpt><trkpt lat="43.4418752" lon="12.2388705"><ele>308.0</ele><time>2026-04-05T12:17:55.983Z</time></trkpt><trkpt lat="43.4420794" lon="12.2386707"><ele>303.5</ele><time>2026-04-05T12:17:56.983Z</time></trkpt><trkpt lat="43.4422884" lon="12.2384795"><ele>299.0</ele><time>2026-04-05T12:17:57.983Z</time></trkpt><trkpt lat="43.4425043" lon="12.2383043"><ele>303.0</ele><time>2026-04-05T12:17:58.983Z</time></trkpt><trkpt lat="43.4427153" lon="12.2381342"><ele>307.0</ele><time>2026-04-05T12:17:59.982Z</time></trkpt><trkpt lat="43.442932" lon="12.2379714"><ele>307.5</ele><time>2026-04-05T12:18:00.983Z</time></trkpt><trkpt lat="43.4431517" lon="12.237825"><ele>308.0</ele><time>2026-04-05T12:18:01.983Z</time></trkpt><trkpt lat="43.4433841" lon="12.2376832"><ele>308.0</ele><time>2026-04-05T12:18:02.983Z</time></trkpt><trkpt lat="43.4436222" lon="12.2375582"><ele>308.0</ele><time>2026-04-05T12:18:03.983Z</time></trkpt><trkpt lat="43.4438577" lon="12.2374455"><ele>306.5</ele><time>2026-04-05T12:18:04.982Z</time></trkpt><trkpt lat="43.4440958" lon="12.2373406"><ele>305.0</ele><time>2026-04-05T12:18:05.983Z</time></trkpt><trkpt lat="43.4443366" lon="12.2372439"><ele>306.0</ele><time>2026-04-05T12:18:06.983Z</time></trkpt><trkpt lat="43.4445846" lon="12.2371455"><ele>307.0</ele><time>2026-04-05T12:18:07.983Z</time></trkpt><trkpt lat="43.444829" lon="12.2370556"><ele>307.0</ele><time>2026-04-05T12:18:08.982Z</time></trkpt><trkpt lat="43.4450745" lon="12.2369732"><ele>307.0</ele><time>2026-04-05T12:18:09.983Z</time></trkpt><trkpt lat="43.4453182" lon="12.2368924"><ele>305.0</ele><time>2026-04-05T12:18:10.983Z</time></trkpt><trkpt lat="43.4455637" lon="12.2368119"><ele>303.0</ele><time>2026-04-05T12:18:11.982Z</time></trkpt><trkpt lat="43.4457943" lon="12.2367202"><ele>303.0</ele><time>2026-04-05T12:18:12.983Z</time></trkpt><trkpt lat="43.4460367" lon="12.2366427"><ele>303.0</ele><time>2026-04-05T12:18:13.983Z</time></trkpt><trkpt lat="43.4462768" lon="12.2365662"><ele>301.0</ele><time>2026-04-05T12:18:14.982Z</time></trkpt><trkpt lat="43.4465209" lon="12.2364861"><ele>299.0</ele><time>2026-04-05T12:18:15.983Z</time></trkpt><trkpt lat="43.4467647" lon="12.2364109"><ele>303.5</ele><time>2026-04-05T12:18:16.983Z</time></trkpt><trkpt lat="43.4470028" lon="12.2363333"><ele>308.0</ele><time>2026-04-05T12:18:17.983Z</time></trkpt><trkpt lat="43.4472434" lon="12.2362564"><ele>309.5</ele><time>2026-04-05T12:18:18.983Z</time></trkpt><trkpt lat="43.447481" lon="12.2361771"><ele>311.0</ele><time>2026-04-05T12:18:19.983Z</time></trkpt><trkpt lat="43.4477147" lon="12.2361018"><ele>311.0</ele><time>2026-04-05T12:18:20.982Z</time></trkpt><trkpt lat="43.4479487" lon="12.2360275"><ele>311.0</ele><time>2026-04-05T12:18:21.983Z</time></trkpt><trkpt lat="43.4481869" lon="12.2359501"><ele>312.0</ele><time>2026-04-05T12:18:22.983Z</time></trkpt><trkpt lat="43.4484239" lon="12.2358706"><ele>313.0</ele><time>2026-04-05T12:18:23.983Z</time></trkpt><trkpt lat="43.4486594" lon="12.2357959"><ele>312.5</ele><time>2026-04-05T12:18:24.983Z</time></trkpt><trkpt lat="43.4489031" lon="12.2357167"><ele>312.0</ele><time>2026-04-05T12:18:25.982Z</time></trkpt><trkpt lat="43.44914" lon="12.2356385"><ele>317.0</ele><time>2026-04-05T12:18:26.983Z</time></trkpt><trkpt lat="43.4493725" lon="12.2355489"><ele>322.0</ele><time>2026-04-05T12:18:27.983Z</time></trkpt><trkpt lat="43.4496039" lon="12.2354475"><ele>318.0</ele><time>2026-04-05T12:18:28.983Z</time></trkpt><trkpt lat="43.4498338" lon="12.2353378"><ele>314.0</ele><time>2026-04-05T12:18:29.983Z</time></trkpt><trkpt lat="43.4500666" lon="12.2352138"><ele>314.0</ele><time>2026-04-05T12:18:30.983Z</time></trkpt><trkpt lat="43.4502969" lon="12.2350802"><ele>314.0</ele><time>2026-04-05T12:18:31.983Z</time></trkpt><trkpt lat="43.4505198" lon="12.2349347"><ele>315.0</ele><time>2026-04-05T12:18:32.983Z</time></trkpt><trkpt lat="43.4507391" lon="12.234768"><ele>316.0</ele><time>2026-04-05T12:18:33.983Z</time></trkpt><trkpt lat="43.4509523" lon="12.2345912"><ele>316.0</ele><time>2026-04-05T12:18:34.982Z</time></trkpt><trkpt lat="43.4511616" lon="12.2344075"><ele>316.0</ele><time>2026-04-05T12:18:35.983Z</time></trkpt><trkpt lat="43.4513639" lon="12.2342095"><ele>313.0</ele><time>2026-04-05T12:18:36.982Z</time></trkpt><trkpt lat="43.4515651" lon="12.2339966"><ele>310.0</ele><time>2026-04-05T12:18:37.983Z</time></trkpt><trkpt lat="43.451764" lon="12.2337781"><ele>310.0</ele><time>2026-04-05T12:18:38.983Z</time></trkpt><trkpt lat="43.4519572" lon="12.2335504"><ele>310.0</ele><time>2026-04-05T12:18:39.982Z</time></trkpt><trkpt lat="43.4521537" lon="12.2333157"><ele>310.5</ele><time>2026-04-05T12:18:40.982Z</time></trkpt><trkpt lat="43.452347" lon="12.2330868"><ele>311.0</ele><time>2026-04-05T12:18:41.983Z</time></trkpt><trkpt lat="43.4525356" lon="12.2328504"><ele>311.0</ele><time>2026-04-05T12:18:42.982Z</time></trkpt><trkpt lat="43.4527278" lon="12.2326017"><ele>311.0</ele><time>2026-04-05T12:18:43.983Z</time></trkpt><trkpt lat="43.4529196" lon="12.2323654"><ele>306.0</ele><time>2026-04-05T12:18:44.983Z</time></trkpt><trkpt lat="43.4531138" lon="12.2321359"><ele>301.0</ele><time>2026-04-05T12:18:45.982Z</time></trkpt><trkpt lat="43.4533063" lon="12.23191"><ele>301.0</ele><time>2026-04-05T12:18:46.983Z</time></trkpt><trkpt lat="43.4535015" lon="12.2316735"><ele>301.0</ele><time>2026-04-05T12:18:47.983Z</time></trkpt><trkpt lat="43.4536883" lon="12.2314364"><ele>301.0</ele><time>2026-04-05T12:18:48.983Z</time></trkpt><trkpt lat="43.4538801" lon="12.2312034"><ele>301.0</ele><time>2026-04-05T12:18:49.983Z</time></trkpt><trkpt lat="43.4540695" lon="12.2309706"><ele>301.0</ele><time>2026-04-05T12:18:50.983Z</time></trkpt><trkpt lat="43.4542597" lon="12.2307406"><ele>301.0</ele><time>2026-04-05T12:18:51.982Z</time></trkpt><trkpt lat="43.4544474" lon="12.2305135"><ele>299.5</ele><time>2026-04-05T12:18:52.982Z</time></trkpt><trkpt lat="43.454634" lon="12.2302901"><ele>298.0</ele><time>2026-04-05T12:18:53.982Z</time></trkpt><trkpt lat="43.4548229" lon="12.2300682"><ele>298.0</ele><time>2026-04-05T12:18:54.983Z</time></trkpt><trkpt lat="43.4550063" lon="12.2298482"><ele>298.0</ele><time>2026-04-05T12:18:55.983Z</time></trkpt><trkpt lat="43.4551906" lon="12.2296273"><ele>297.5</ele><time>2026-04-05T12:18:56.982Z</time></trkpt><trkpt lat="43.4553741" lon="12.2294105"><ele>297.0</ele><time>2026-04-05T12:18:57.982Z</time></trkpt><trkpt lat="43.4555539" lon="12.2292"><ele>297.0</ele><time>2026-04-05T12:18:58.982Z</time></trkpt><trkpt lat="43.4557329" lon="12.2289786"><ele>297.0</ele><time>2026-04-05T12:18:59.983Z</time></trkpt><trkpt lat="43.4559148" lon="12.2287638"><ele>301.5</ele><time>2026-04-05T12:19:00.982Z</time></trkpt><trkpt lat="43.4560916" lon="12.2285538"><ele>306.0</ele><time>2026-04-05T12:19:01.983Z</time></trkpt><trkpt lat="43.4562722" lon="12.2283466"><ele>308.0</ele><time>2026-04-05T12:19:02.982Z</time></trkpt><trkpt lat="43.4564536" lon="12.2281417"><ele>310.0</ele><time>2026-04-05T12:19:03.983Z</time></trkpt><trkpt lat="43.4566421" lon="12.2279536"><ele>310.0</ele><time>2026-04-05T12:19:04.983Z</time></trkpt><trkpt lat="43.4568371" lon="12.2277745"><ele>310.0</ele><time>2026-04-05T12:19:05.983Z</time></trkpt><trkpt lat="43.4570414" lon="12.2276091"><ele>310.5</ele><time>2026-04-05T12:19:06.983Z</time></trkpt><trkpt lat="43.4572492" lon="12.2274495"><ele>311.0</ele><time>2026-04-05T12:19:07.983Z</time></trkpt><trkpt lat="43.4574622" lon="12.227298"><ele>311.0</ele><time>2026-04-05T12:19:08.983Z</time></trkpt><trkpt lat="43.4576827" lon="12.2271648"><ele>311.0</ele><time>2026-04-05T12:19:09.983Z</time></trkpt><trkpt lat="43.4579092" lon="12.2270305"><ele>309.0</ele><time>2026-04-05T12:19:10.983Z</time></trkpt><trkpt lat="43.4581395" lon="12.2269215"><ele>307.0</ele><time>2026-04-05T12:19:11.982Z</time></trkpt><trkpt lat="43.4583694" lon="12.2268212"><ele>307.0</ele><time>2026-04-05T12:19:12.983Z</time></trkpt><trkpt lat="43.4586094" lon="12.2267382"><ele>307.0</ele><time>2026-04-05T12:19:13.983Z</time></trkpt><trkpt lat="43.4588485" lon="12.2266653"><ele>307.5</ele><time>2026-04-05T12:19:14.983Z</time></trkpt><trkpt lat="43.4590889" lon="12.2266024"><ele>308.0</ele><time>2026-04-05T12:19:15.983Z</time></trkpt><trkpt lat="43.4593345" lon="12.2265645"><ele>308.0</ele><time>2026-04-05T12:19:16.983Z</time></trkpt><trkpt lat="43.4595819" lon="12.2265359"><ele>308.0</ele><time>2026-04-05T12:19:17.983Z</time></trkpt><trkpt lat="43.4598291" lon="12.2265219"><ele>306.0</ele><time>2026-04-05T12:19:18.982Z</time></trkpt><trkpt lat="43.4600777" lon="12.2265256"><ele>304.0</ele><time>2026-04-05T12:19:19.983Z</time></trkpt><trkpt lat="43.4603263" lon="12.2265456"><ele>303.5</ele><time>2026-04-05T12:19:20.983Z</time></trkpt><trkpt lat="43.4605763" lon="12.2265782"><ele>303.0</ele><time>2026-04-05T12:19:21.982Z</time></trkpt><trkpt lat="43.4608259" lon="12.2266215"><ele>303.0</ele><time>2026-04-05T12:19:22.982Z</time></trkpt><trkpt lat="43.4610792" lon="12.2266664"><ele>303.0</ele><time>2026-04-05T12:19:23.982Z</time></trkpt><trkpt lat="43.4613307" lon="12.2267117"><ele>302.5</ele><time>2026-04-05T12:19:24.982Z</time></trkpt><trkpt lat="43.4615889" lon="12.2267738"><ele>302.0</ele><time>2026-04-05T12:19:25.983Z</time></trkpt><trkpt lat="43.4618402" lon="12.2268265"><ele>302.0</ele><time>2026-04-05T12:19:26.983Z</time></trkpt><trkpt lat="43.4620883" lon="12.2268798"><ele>302.0</ele><time>2026-04-05T12:19:27.981Z</time></trkpt><trkpt lat="43.4623373" lon="12.2269419"><ele>297.5</ele><time>2026-04-05T12:19:28.982Z</time></trkpt><trkpt lat="43.462588" lon="12.2269934"><ele>293.0</ele><time>2026-04-05T12:19:29.983Z</time></trkpt><trkpt lat="43.4628351" lon="12.2270459"><ele>288.0</ele><time>2026-04-05T12:19:30.982Z</time></trkpt><trkpt lat="43.4630784" lon="12.2270976"><ele>283.0</ele><time>2026-04-05T12:19:31.983Z</time></trkpt><trkpt lat="43.4633255" lon="12.2271495"><ele>283.0</ele><time>2026-04-05T12:19:32.982Z</time></trkpt><trkpt lat="43.4635676" lon="12.227204"><ele>283.0</ele><time>2026-04-05T12:19:33.983Z</time></trkpt><trkpt lat="43.46381" lon="12.2272519"><ele>281.5</ele><time>2026-04-05T12:19:34.983Z</time></trkpt><trkpt lat="43.4640515" lon="12.2273013"><ele>280.0</ele><time>2026-04-05T12:19:35.983Z</time></trkpt><trkpt lat="43.464291" lon="12.2273558"><ele>279.5</ele><time>2026-04-05T12:19:36.983Z</time></trkpt><trkpt lat="43.4645334" lon="12.2274094"><ele>279.0</ele><time>2026-04-05T12:19:37.982Z</time></trkpt><trkpt lat="43.4647764" lon="12.2274596"><ele>281.0</ele><time>2026-04-05T12:19:38.982Z</time></trkpt><trkpt lat="43.4650225" lon="12.2274998"><ele>283.0</ele><time>2026-04-05T12:19:39.983Z</time></trkpt><trkpt lat="43.4652726" lon="12.2275399"><ele>283.0</ele><time>2026-04-05T12:19:40.983Z</time></trkpt><trkpt lat="43.4655178" lon="12.2275702"><ele>283.0</ele><time>2026-04-05T12:19:41.983Z</time></trkpt><trkpt lat="43.4657654" lon="12.2275953"><ele>283.0</ele><time>2026-04-05T12:19:42.983Z</time></trkpt><trkpt lat="43.4660124" lon="12.2276068"><ele>283.0</ele><time>2026-04-05T12:19:43.982Z</time></trkpt><trkpt lat="43.4662607" lon="12.2275934"><ele>283.0</ele><time>2026-04-05T12:19:44.983Z</time></trkpt><trkpt lat="43.4665206" lon="12.2275723"><ele>283.0</ele><time>2026-04-05T12:19:45.983Z</time></trkpt><trkpt lat="43.4667769" lon="12.2275384"><ele>283.0</ele><time>2026-04-05T12:19:46.982Z</time></trkpt><trkpt lat="43.4670331" lon="12.2274889"><ele>283.0</ele><time>2026-04-05T12:19:47.983Z</time></trkpt><trkpt lat="43.4672935" lon="12.2274224"><ele>282.5</ele><time>2026-04-05T12:19:48.983Z</time></trkpt><trkpt lat="43.4675453" lon="12.2273471"><ele>282.0</ele><time>2026-04-05T12:19:49.983Z</time></trkpt><trkpt lat="43.4677951" lon="12.2272621"><ele>283.0</ele><time>2026-04-05T12:19:50.983Z</time></trkpt><trkpt lat="43.4680368" lon="12.2271696"><ele>284.0</ele><time>2026-04-05T12:19:51.983Z</time></trkpt><trkpt lat="43.46828" lon="12.2270749"><ele>284.0</ele><time>2026-04-05T12:19:52.983Z</time></trkpt><trkpt lat="43.4685144" lon="12.2269633"><ele>284.0</ele><time>2026-04-05T12:19:53.983Z</time></trkpt><trkpt lat="43.4687419" lon="12.2268343"><ele>283.5</ele><time>2026-04-05T12:19:54.983Z</time></trkpt><trkpt lat="43.4689701" lon="12.2266915"><ele>283.0</ele><time>2026-04-05T12:19:55.983Z</time></trkpt><trkpt lat="43.4692015" lon="12.2265273"><ele>282.5</ele><time>2026-04-05T12:19:56.982Z</time></trkpt><trkpt lat="43.4694211" lon="12.2263594"><ele>282.0</ele><time>2026-04-05T12:19:57.982Z</time></trkpt><trkpt lat="43.4696421" lon="12.2261856"><ele>281.5</ele><time>2026-04-05T12:19:58.982Z</time></trkpt><trkpt lat="43.4698652" lon="12.2260063"><ele>281.0</ele><time>2026-04-05T12:19:59.983Z</time></trkpt><trkpt lat="43.4700833" lon="12.2258142"><ele>280.5</ele><time>2026-04-05T12:20:00.983Z</time></trkpt><trkpt lat="43.4703011" lon="12.2256205"><ele>280.0</ele><time>2026-04-05T12:20:01.982Z</time></trkpt><trkpt lat="43.470518" lon="12.2254261"><ele>279.5</ele><time>2026-04-05T12:20:02.983Z</time></trkpt><trkpt lat="43.4707326" lon="12.2252297"><ele>279.0</ele><time>2026-04-05T12:20:03.982Z</time></trkpt><trkpt lat="43.4709455" lon="12.2250374"><ele>279.0</ele><time>2026-04-05T12:20:04.983Z</time></trkpt><trkpt lat="43.4711594" lon="12.224846"><ele>279.0</ele><time>2026-04-05T12:20:05.983Z</time></trkpt><trkpt lat="43.4713719" lon="12.2246582"><ele>279.5</ele><time>2026-04-05T12:20:06.981Z</time></trkpt><trkpt lat="43.471584" lon="12.224469"><ele>280.0</ele><time>2026-04-05T12:20:07.982Z</time></trkpt><trkpt lat="43.4717951" lon="12.2242745"><ele>280.0</ele><time>2026-04-05T12:20:08.982Z</time></trkpt><trkpt lat="43.4720071" lon="12.2240838"><ele>280.0</ele><time>2026-04-05T12:20:09.982Z</time></trkpt><trkpt lat="43.4722172" lon="12.2238841"><ele>280.5</ele><time>2026-04-05T12:20:10.982Z</time></trkpt><trkpt lat="43.4724289" lon="12.2236885"><ele>281.0</ele><time>2026-04-05T12:20:11.983Z</time></trkpt><trkpt lat="43.4726394" lon="12.2234935"><ele>281.0</ele><time>2026-04-05T12:20:12.982Z</time></trkpt><trkpt lat="43.4728484" lon="12.2233061"><ele>281.0</ele><time>2026-04-05T12:20:13.982Z</time></trkpt><trkpt lat="43.4730536" lon="12.2231176"><ele>281.5</ele><time>2026-04-05T12:20:14.983Z</time></trkpt><trkpt lat="43.4732601" lon="12.2229274"><ele>282.0</ele><time>2026-04-05T12:20:15.982Z</time></trkpt><trkpt lat="43.473465" lon="12.2227377"><ele>282.0</ele><time>2026-04-05T12:20:16.983Z</time></trkpt><trkpt lat="43.47367" lon="12.2225533"><ele>282.0</ele><time>2026-04-05T12:20:17.983Z</time></trkpt><trkpt lat="43.4738816" lon="12.2223666"><ele>281.0</ele><time>2026-04-05T12:20:18.983Z</time></trkpt><trkpt lat="43.474091" lon="12.2221777"><ele>280.0</ele><time>2026-04-05T12:20:19.983Z</time></trkpt><trkpt lat="43.474299" lon="12.2219929"><ele>280.0</ele><time>2026-04-05T12:20:20.983Z</time></trkpt><trkpt lat="43.4745139" lon="12.2217997"><ele>280.0</ele><time>2026-04-05T12:20:21.983Z</time></trkpt><trkpt lat="43.4747198" lon="12.2216104"><ele>281.0</ele><time>2026-04-05T12:20:22.983Z</time></trkpt><trkpt lat="43.4749309" lon="12.2214222"><ele>282.0</ele><time>2026-04-05T12:20:23.982Z</time></trkpt><trkpt lat="43.4751404" lon="12.221226"><ele>282.0</ele><time>2026-04-05T12:20:24.983Z</time></trkpt><trkpt lat="43.4753497" lon="12.2210423"><ele>282.0</ele><time>2026-04-05T12:20:25.982Z</time></trkpt><trkpt lat="43.47556" lon="12.2208515"><ele>281.5</ele><time>2026-04-05T12:20:26.983Z</time></trkpt><trkpt lat="43.4757673" lon="12.2206585"><ele>281.0</ele><time>2026-04-05T12:20:27.983Z</time></trkpt><trkpt lat="43.4759828" lon="12.2204585"><ele>281.0</ele><time>2026-04-05T12:20:28.983Z</time></trkpt><trkpt lat="43.4761934" lon="12.2202675"><ele>281.0</ele><time>2026-04-05T12:20:29.983Z</time></trkpt><trkpt lat="43.4764038" lon="12.2200781"><ele>280.5</ele><time>2026-04-05T12:20:30.982Z</time></trkpt><trkpt lat="43.4766161" lon="12.2198919"><ele>280.0</ele><time>2026-04-05T12:20:31.982Z</time></trkpt><trkpt lat="43.4768315" lon="12.219707"><ele>280.0</ele><time>2026-04-05T12:20:32.983Z</time></trkpt><trkpt lat="43.4770459" lon="12.2195184"><ele>280.0</ele><time>2026-04-05T12:20:33.983Z</time></trkpt><trkpt lat="43.4772632" lon="12.219336"><ele>279.5</ele><time>2026-04-05T12:20:34.983Z</time></trkpt><trkpt lat="43.477479" lon="12.2191539"><ele>279.0</ele><time>2026-04-05T12:20:35.983Z</time></trkpt><trkpt lat="43.477692" lon="12.2189763"><ele>279.0</ele><time>2026-04-05T12:20:36.983Z</time></trkpt><trkpt lat="43.477904" lon="12.2187905"><ele>279.0</ele><time>2026-04-05T12:20:37.982Z</time></trkpt><trkpt lat="43.4781225" lon="12.2186108"><ele>280.0</ele><time>2026-04-05T12:20:38.982Z</time></trkpt><trkpt lat="43.478336" lon="12.2184347"><ele>281.0</ele><time>2026-04-05T12:20:39.983Z</time></trkpt><trkpt lat="43.47855" lon="12.2182558"><ele>281.5</ele><time>2026-04-05T12:20:40.983Z</time></trkpt><trkpt lat="43.4787668" lon="12.2180788"><ele>282.0</ele><time>2026-04-05T12:20:41.982Z</time></trkpt><trkpt lat="43.4789811" lon="12.2179015"><ele>282.0</ele><time>2026-04-05T12:20:42.983Z</time></trkpt><trkpt lat="43.4791946" lon="12.2177202"><ele>282.0</ele><time>2026-04-05T12:20:43.983Z</time></trkpt><trkpt lat="43.4794077" lon="12.2175405"><ele>282.0</ele><time>2026-04-05T12:20:44.982Z</time></trkpt><trkpt lat="43.4796188" lon="12.2173587"><ele>282.0</ele><time>2026-04-05T12:20:45.983Z</time></trkpt><trkpt lat="43.4798334" lon="12.217179"><ele>282.0</ele><time>2026-04-05T12:20:46.982Z</time></trkpt><trkpt lat="43.4800496" lon="12.2170014"><ele>282.0</ele><time>2026-04-05T12:20:47.983Z</time></trkpt><trkpt lat="43.4802656" lon="12.2168268"><ele>282.5</ele><time>2026-04-05T12:20:48.982Z</time></trkpt><trkpt lat="43.4804843" lon="12.2166564"><ele>283.0</ele><time>2026-04-05T12:20:49.983Z</time></trkpt><trkpt lat="43.4806963" lon="12.216479"><ele>282.0</ele><time>2026-04-05T12:20:50.983Z</time></trkpt><trkpt lat="43.4809108" lon="12.2162948"><ele>281.0</ele><time>2026-04-05T12:20:51.983Z</time></trkpt><trkpt lat="43.481125" lon="12.216116"><ele>283.5</ele><time>2026-04-05T12:20:52.982Z</time></trkpt><trkpt lat="43.4813401" lon="12.2159316"><ele>286.0</ele><time>2026-04-05T12:20:53.982Z</time></trkpt><trkpt lat="43.4815567" lon="12.2157543"><ele>284.5</ele><time>2026-04-05T12:20:54.983Z</time></trkpt><trkpt lat="43.4817692" lon="12.2155669"><ele>283.0</ele><time>2026-04-05T12:20:55.983Z</time></trkpt><trkpt lat="43.4819807" lon="12.2153828"><ele>285.5</ele><time>2026-04-05T12:20:56.983Z</time></trkpt><trkpt lat="43.4821885" lon="12.215193"><ele>288.0</ele><time>2026-04-05T12:20:57.982Z</time></trkpt><trkpt lat="43.4824024" lon="12.215004"><ele>285.0</ele><time>2026-04-05T12:20:58.983Z</time></trkpt><trkpt lat="43.4826063" lon="12.2148074"><ele>282.0</ele><time>2026-04-05T12:20:59.983Z</time></trkpt><trkpt lat="43.4828108" lon="12.2145955"><ele>283.0</ele><time>2026-04-05T12:21:00.982Z</time></trkpt><trkpt lat="43.483012" lon="12.2143856"><ele>284.0</ele><time>2026-04-05T12:21:01.983Z</time></trkpt><trkpt lat="43.4832062" lon="12.2141637"><ele>284.0</ele><time>2026-04-05T12:21:02.983Z</time></trkpt><trkpt lat="43.4833967" lon="12.213944"><ele>284.0</ele><time>2026-04-05T12:21:03.982Z</time></trkpt><trkpt lat="43.4835946" lon="12.2137243"><ele>285.0</ele><time>2026-04-05T12:21:04.982Z</time></trkpt><trkpt lat="43.4837846" lon="12.2135051"><ele>286.0</ele><time>2026-04-05T12:21:05.983Z</time></trkpt><trkpt lat="43.4839825" lon="12.213281"><ele>285.0</ele><time>2026-04-05T12:21:06.982Z</time></trkpt><trkpt lat="43.4841788" lon="12.2130616"><ele>284.0</ele><time>2026-04-05T12:21:07.983Z</time></trkpt><trkpt lat="43.4843719" lon="12.2128378"><ele>284.0</ele><time>2026-04-05T12:21:08.983Z</time></trkpt><trkpt lat="43.4845645" lon="12.2126146"><ele>284.0</ele><time>2026-04-05T12:21:09.983Z</time></trkpt><trkpt lat="43.4847549" lon="12.2123895"><ele>284.5</ele><time>2026-04-05T12:21:10.983Z</time></trkpt><trkpt lat="43.4849465" lon="12.2121715"><ele>285.0</ele><time>2026-04-05T12:21:11.982Z</time></trkpt><trkpt lat="43.4851397" lon="12.2119541"><ele>285.0</ele><time>2026-04-05T12:21:12.983Z</time></trkpt><trkpt lat="43.4853351" lon="12.2117338"><ele>285.0</ele><time>2026-04-05T12:21:13.983Z</time></trkpt><trkpt lat="43.4855297" lon="12.2115166"><ele>284.5</ele><time>2026-04-05T12:21:14.982Z</time></trkpt><trkpt lat="43.4857214" lon="12.2113037"><ele>284.0</ele><time>2026-04-05T12:21:15.983Z</time></trkpt><trkpt lat="43.4859138" lon="12.2110875"><ele>284.0</ele><time>2026-04-05T12:21:16.983Z</time></trkpt><trkpt lat="43.4861056" lon="12.2108612"><ele>284.0</ele><time>2026-04-05T12:21:17.983Z</time></trkpt><trkpt lat="43.4862954" lon="12.2106401"><ele>285.5</ele><time>2026-04-05T12:21:18.983Z</time></trkpt><trkpt lat="43.4864851" lon="12.2104184"><ele>287.0</ele><time>2026-04-05T12:21:19.983Z</time></trkpt><trkpt lat="43.4866844" lon="12.2102013"><ele>287.0</ele><time>2026-04-05T12:21:20.983Z</time></trkpt><trkpt lat="43.4868755" lon="12.2099854"><ele>287.0</ele><time>2026-04-05T12:21:21.983Z</time></trkpt><trkpt lat="43.4870709" lon="12.2097689"><ele>286.5</ele><time>2026-04-05T12:21:22.983Z</time></trkpt><trkpt lat="43.4872651" lon="12.2095486"><ele>286.0</ele><time>2026-04-05T12:21:23.982Z</time></trkpt><trkpt lat="43.4874591" lon="12.2093299"><ele>286.0</ele><time>2026-04-05T12:21:24.982Z</time></trkpt><trkpt lat="43.4876568" lon="12.2091098"><ele>286.0</ele><time>2026-04-05T12:21:25.983Z</time></trkpt><trkpt lat="43.4878543" lon="12.2088824"><ele>285.5</ele><time>2026-04-05T12:21:26.983Z</time></trkpt><trkpt lat="43.4880508" lon="12.2086603"><ele>285.0</ele><time>2026-04-05T12:21:27.983Z</time></trkpt><trkpt lat="43.4882408" lon="12.2084452"><ele>285.0</ele><time>2026-04-05T12:21:28.982Z</time></trkpt><trkpt lat="43.4884409" lon="12.2082278"><ele>285.0</ele><time>2026-04-05T12:21:29.983Z</time></trkpt><trkpt lat="43.4886386" lon="12.2080122"><ele>286.5</ele><time>2026-04-05T12:21:30.983Z</time></trkpt><trkpt lat="43.4888366" lon="12.2077961"><ele>288.0</ele><time>2026-04-05T12:21:31.982Z</time></trkpt><trkpt lat="43.4890383" lon="12.2075812"><ele>288.0</ele><time>2026-04-05T12:21:32.982Z</time></trkpt><trkpt lat="43.4892442" lon="12.2073731"><ele>288.0</ele><time>2026-04-05T12:21:33.982Z</time></trkpt><trkpt lat="43.4894563" lon="12.2071549"><ele>288.5</ele><time>2026-04-05T12:21:34.982Z</time></trkpt><trkpt lat="43.4896652" lon="12.2069407"><ele>289.0</ele><time>2026-04-05T12:21:35.983Z</time></trkpt><trkpt lat="43.4898756" lon="12.2067341"><ele>289.0</ele><time>2026-04-05T12:21:36.983Z</time></trkpt><trkpt lat="43.4900903" lon="12.2065211"><ele>289.0</ele><time>2026-04-05T12:21:37.983Z</time></trkpt><trkpt lat="43.4903059" lon="12.2063165"><ele>289.5</ele><time>2026-04-05T12:21:38.983Z</time></trkpt><trkpt lat="43.4905186" lon="12.2061091"><ele>290.0</ele><time>2026-04-05T12:21:39.982Z</time></trkpt><trkpt lat="43.4907419" lon="12.2058917"><ele>290.0</ele><time>2026-04-05T12:21:40.982Z</time></trkpt><trkpt lat="43.4909633" lon="12.2056853"><ele>290.0</ele><time>2026-04-05T12:21:41.983Z</time></trkpt><trkpt lat="43.491183" lon="12.2054776"><ele>290.5</ele><time>2026-04-05T12:21:42.983Z</time></trkpt><trkpt lat="43.4914001" lon="12.205272"><ele>291.0</ele><time>2026-04-05T12:21:43.983Z</time></trkpt><trkpt lat="43.4916208" lon="12.2050621"><ele>291.0</ele><time>2026-04-05T12:21:44.983Z</time></trkpt><trkpt lat="43.4918428" lon="12.2048538"><ele>291.0</ele><time>2026-04-05T12:21:45.982Z</time></trkpt><trkpt lat="43.4920684" lon="12.2046473"><ele>290.5</ele><time>2026-04-05T12:21:46.983Z</time></trkpt><trkpt lat="43.4922888" lon="12.2044471"><ele>290.0</ele><time>2026-04-05T12:21:47.983Z</time></trkpt><trkpt lat="43.4925114" lon="12.2042413"><ele>290.0</ele><time>2026-04-05T12:21:48.983Z</time></trkpt><trkpt lat="43.4927296" lon="12.2040367"><ele>290.0</ele><time>2026-04-05T12:21:49.982Z</time></trkpt><trkpt lat="43.4929459" lon="12.2038314"><ele>290.0</ele><time>2026-04-05T12:21:50.983Z</time></trkpt><trkpt lat="43.4931597" lon="12.2036263"><ele>290.0</ele><time>2026-04-05T12:21:51.983Z</time></trkpt><trkpt lat="43.4933731" lon="12.2034173"><ele>290.0</ele><time>2026-04-05T12:21:52.983Z</time></trkpt><trkpt lat="43.4935882" lon="12.2032072"><ele>290.0</ele><time>2026-04-05T12:21:53.983Z</time></trkpt><trkpt lat="43.4938057" lon="12.2030076"><ele>290.0</ele><time>2026-04-05T12:21:54.982Z</time></trkpt><trkpt lat="43.4940191" lon="12.2028131"><ele>290.0</ele><time>2026-04-05T12:21:55.983Z</time></trkpt><trkpt lat="43.4942285" lon="12.2026187"><ele>290.0</ele><time>2026-04-05T12:21:56.983Z</time></trkpt><trkpt lat="43.4944381" lon="12.2024182"><ele>290.0</ele><time>2026-04-05T12:21:57.983Z</time></trkpt><trkpt lat="43.4946451" lon="12.2022132"><ele>290.0</ele><time>2026-04-05T12:21:58.983Z</time></trkpt><trkpt lat="43.4948552" lon="12.2020145"><ele>290.0</ele><time>2026-04-05T12:21:59.983Z</time></trkpt><trkpt lat="43.4950649" lon="12.2018103"><ele>290.0</ele><time>2026-04-05T12:22:00.983Z</time></trkpt><trkpt lat="43.4952727" lon="12.2016126"><ele>290.0</ele><time>2026-04-05T12:22:01.982Z</time></trkpt><trkpt lat="43.4954812" lon="12.2014118"><ele>290.0</ele><time>2026-04-05T12:22:02.983Z</time></trkpt><trkpt lat="43.4956886" lon="12.2012083"><ele>290.0</ele><time>2026-04-05T12:22:03.983Z</time></trkpt><trkpt lat="43.4958956" lon="12.2010024"><ele>290.0</ele><time>2026-04-05T12:22:04.982Z</time></trkpt><trkpt lat="43.4960975" lon="12.200798"><ele>290.0</ele><time>2026-04-05T12:22:05.983Z</time></trkpt><trkpt lat="43.496302" lon="12.2005891"><ele>290.0</ele><time>2026-04-05T12:22:06.983Z</time></trkpt><trkpt lat="43.4965029" lon="12.2003774"><ele>290.0</ele><time>2026-04-05T12:22:07.983Z</time></trkpt><trkpt lat="43.4967028" lon="12.200152"><ele>290.0</ele><time>2026-04-05T12:22:08.983Z</time></trkpt><trkpt lat="43.4969051" lon="12.1999455"><ele>290.0</ele><time>2026-04-05T12:22:09.983Z</time></trkpt><trkpt lat="43.49711" lon="12.1997251"><ele>290.5</ele><time>2026-04-05T12:22:10.982Z</time></trkpt><trkpt lat="43.4973088" lon="12.199503"><ele>291.0</ele><time>2026-04-05T12:22:11.982Z</time></trkpt><trkpt lat="43.4975055" lon="12.1992903"><ele>291.0</ele><time>2026-04-05T12:22:12.983Z</time></trkpt><trkpt lat="43.4977063" lon="12.1990777"><ele>291.0</ele><time>2026-04-05T12:22:13.983Z</time></trkpt><trkpt lat="43.497904" lon="12.1988668"><ele>292.0</ele><time>2026-04-05T12:22:14.983Z</time></trkpt><trkpt lat="43.4980976" lon="12.1986545"><ele>293.0</ele><time>2026-04-05T12:22:15.983Z</time></trkpt><trkpt lat="43.4982933" lon="12.1984317"><ele>293.0</ele><time>2026-04-05T12:22:16.983Z</time></trkpt><trkpt lat="43.4984903" lon="12.1982183"><ele>293.0</ele><time>2026-04-05T12:22:17.982Z</time></trkpt><trkpt lat="43.4987026" lon="12.1979914"><ele>292.0</ele><time>2026-04-05T12:22:18.982Z</time></trkpt><trkpt lat="43.4988999" lon="12.1977777"><ele>291.0</ele><time>2026-04-05T12:22:19.983Z</time></trkpt><trkpt lat="43.4990958" lon="12.197563"><ele>291.0</ele><time>2026-04-05T12:22:20.983Z</time></trkpt><trkpt lat="43.4992888" lon="12.1973507"><ele>291.0</ele><time>2026-04-05T12:22:21.983Z</time></trkpt><trkpt lat="43.499486" lon="12.1971287"><ele>291.5</ele><time>2026-04-05T12:22:22.983Z</time></trkpt><trkpt lat="43.4996822" lon="12.1969165"><ele>292.0</ele><time>2026-04-05T12:22:23.983Z</time></trkpt><trkpt lat="43.4998743" lon="12.1967048"><ele>292.0</ele><time>2026-04-05T12:22:24.983Z</time></trkpt><trkpt lat="43.5000718" lon="12.1964904"><ele>292.0</ele><time>2026-04-05T12:22:25.982Z</time></trkpt><trkpt lat="43.5002702" lon="12.1962784"><ele>292.5</ele><time>2026-04-05T12:22:26.983Z</time></trkpt><trkpt lat="43.5004677" lon="12.1960681"><ele>293.0</ele><time>2026-04-05T12:22:27.982Z</time></trkpt><trkpt lat="43.5006659" lon="12.1958648"><ele>292.5</ele><time>2026-04-05T12:22:28.981Z</time></trkpt><trkpt lat="43.5008616" lon="12.1956633"><ele>292.0</ele><time>2026-04-05T12:22:29.982Z</time></trkpt><trkpt lat="43.5010576" lon="12.1954653"><ele>292.5</ele><time>2026-04-05T12:22:30.983Z</time></trkpt><trkpt lat="43.5012568" lon="12.1952657"><ele>293.0</ele><time>2026-04-05T12:22:31.982Z</time></trkpt><trkpt lat="43.5014558" lon="12.195069"><ele>293.0</ele><time>2026-04-05T12:22:32.983Z</time></trkpt><trkpt lat="43.5016549" lon="12.1948739"><ele>293.0</ele><time>2026-04-05T12:22:33.982Z</time></trkpt><trkpt lat="43.5018568" lon="12.1946816"><ele>293.5</ele><time>2026-04-05T12:22:34.983Z</time></trkpt><trkpt lat="43.5020617" lon="12.1944957"><ele>294.0</ele><time>2026-04-05T12:22:35.982Z</time></trkpt><trkpt lat="43.5022675" lon="12.1943133"><ele>294.5</ele><time>2026-04-05T12:22:36.983Z</time></trkpt><trkpt lat="43.5024773" lon="12.1941256"><ele>295.0</ele><time>2026-04-05T12:22:37.983Z</time></trkpt><trkpt lat="43.5026827" lon="12.1939427"><ele>294.5</ele><time>2026-04-05T12:22:38.983Z</time></trkpt><trkpt lat="43.5028857" lon="12.1937448"><ele>294.0</ele><time>2026-04-05T12:22:39.983Z</time></trkpt><trkpt lat="43.5030924" lon="12.1935582"><ele>294.0</ele><time>2026-04-05T12:22:40.983Z</time></trkpt><trkpt lat="43.5033001" lon="12.1933778"><ele>294.0</ele><time>2026-04-05T12:22:41.983Z</time></trkpt><trkpt lat="43.5035092" lon="12.1932012"><ele>294.0</ele><time>2026-04-05T12:22:42.983Z</time></trkpt><trkpt lat="43.50372" lon="12.193022"><ele>294.0</ele><time>2026-04-05T12:22:43.982Z</time></trkpt><trkpt lat="43.5039266" lon="12.1928424"><ele>294.0</ele><time>2026-04-05T12:22:44.983Z</time></trkpt><trkpt lat="43.5041341" lon="12.1926576"><ele>294.0</ele><time>2026-04-05T12:22:45.982Z</time></trkpt><trkpt lat="43.5043422" lon="12.1924782"><ele>294.5</ele><time>2026-04-05T12:22:46.982Z</time></trkpt><trkpt lat="43.5045439" lon="12.192295"><ele>295.0</ele><time>2026-04-05T12:22:47.983Z</time></trkpt><trkpt lat="43.5047502" lon="12.1921146"><ele>295.0</ele><time>2026-04-05T12:22:48.983Z</time></trkpt><trkpt lat="43.5049576" lon="12.191941"><ele>295.0</ele><time>2026-04-05T12:22:49.983Z</time></trkpt><trkpt lat="43.5051648" lon="12.1917613"><ele>295.0</ele><time>2026-04-05T12:22:50.983Z</time></trkpt><trkpt lat="43.5053715" lon="12.1915806"><ele>295.0</ele><time>2026-04-05T12:22:51.983Z</time></trkpt><trkpt lat="43.5055793" lon="12.1914056"><ele>295.5</ele><time>2026-04-05T12:22:52.982Z</time></trkpt><trkpt lat="43.5057874" lon="12.1912224"><ele>296.0</ele><time>2026-04-05T12:22:53.983Z</time></trkpt><trkpt lat="43.5059916" lon="12.1910467"><ele>296.0</ele><time>2026-04-05T12:22:54.982Z</time></trkpt><trkpt lat="43.5062031" lon="12.1908612"><ele>296.0</ele><time>2026-04-05T12:22:55.983Z</time></trkpt><trkpt lat="43.5064046" lon="12.1906853"><ele>295.0</ele><time>2026-04-05T12:22:56.983Z</time></trkpt><trkpt lat="43.5066107" lon="12.1905062"><ele>294.0</ele><time>2026-04-05T12:22:57.982Z</time></trkpt><trkpt lat="43.506817" lon="12.1903267"><ele>294.0</ele><time>2026-04-05T12:22:58.983Z</time></trkpt><trkpt lat="43.5070227" lon="12.190148"><ele>294.0</ele><time>2026-04-05T12:22:59.983Z</time></trkpt><trkpt lat="43.5072333" lon="12.1899675"><ele>294.0</ele><time>2026-04-05T12:23:00.983Z</time></trkpt><trkpt lat="43.5074453" lon="12.1897861"><ele>294.0</ele><time>2026-04-05T12:23:01.982Z</time></trkpt><trkpt lat="43.5076572" lon="12.189605"><ele>294.0</ele><time>2026-04-05T12:23:02.983Z</time></trkpt><trkpt lat="43.5078672" lon="12.1894262"><ele>294.0</ele><time>2026-04-05T12:23:03.983Z</time></trkpt><trkpt lat="43.5080746" lon="12.1892425"><ele>294.0</ele><time>2026-04-05T12:23:04.983Z</time></trkpt><trkpt lat="43.5082858" lon="12.1890567"><ele>294.0</ele><time>2026-04-05T12:23:05.983Z</time></trkpt><trkpt lat="43.5084983" lon="12.1888689"><ele>294.0</ele><time>2026-04-05T12:23:06.983Z</time></trkpt><trkpt lat="43.5087102" lon="12.1886878"><ele>294.0</ele><time>2026-04-05T12:23:07.982Z</time></trkpt><trkpt lat="43.5089184" lon="12.1885015"><ele>294.0</ele><time>2026-04-05T12:23:08.983Z</time></trkpt><trkpt lat="43.5091273" lon="12.1883217"><ele>294.0</ele><time>2026-04-05T12:23:09.982Z</time></trkpt><trkpt lat="43.5093362" lon="12.1881386"><ele>294.0</ele><time>2026-04-05T12:23:10.983Z</time></trkpt><trkpt lat="43.5095448" lon="12.1879628"><ele>294.0</ele><time>2026-04-05T12:23:11.981Z</time></trkpt><trkpt lat="43.5097545" lon="12.1877709"><ele>295.0</ele><time>2026-04-05T12:23:12.982Z</time></trkpt><trkpt lat="43.5099618" lon="12.1875936"><ele>296.0</ele><time>2026-04-05T12:23:13.983Z</time></trkpt><trkpt lat="43.5101719" lon="12.1874164"><ele>295.0</ele><time>2026-04-05T12:23:14.983Z</time></trkpt><trkpt lat="43.5103797" lon="12.1872373"><ele>294.0</ele><time>2026-04-05T12:23:15.982Z</time></trkpt><trkpt lat="43.5105887" lon="12.1870574"><ele>293.0</ele><time>2026-04-05T12:23:16.982Z</time></trkpt><trkpt lat="43.5107974" lon="12.1868826"><ele>292.0</ele><time>2026-04-05T12:23:17.983Z</time></trkpt><trkpt lat="43.5110042" lon="12.1867044"><ele>292.0</ele><time>2026-04-05T12:23:18.983Z</time></trkpt><trkpt lat="43.5112111" lon="12.1865236"><ele>292.0</ele><time>2026-04-05T12:23:19.983Z</time></trkpt><trkpt lat="43.5114171" lon="12.1863407"><ele>293.5</ele><time>2026-04-05T12:23:20.982Z</time></trkpt><trkpt lat="43.5116239" lon="12.1861627"><ele>295.0</ele><time>2026-04-05T12:23:21.982Z</time></trkpt><trkpt lat="43.5118352" lon="12.1859822"><ele>295.0</ele><time>2026-04-05T12:23:22.983Z</time></trkpt><trkpt lat="43.5120441" lon="12.1857997"><ele>295.0</ele><time>2026-04-05T12:23:23.982Z</time></trkpt><trkpt lat="43.5122532" lon="12.1856171"><ele>295.0</ele><time>2026-04-05T12:23:24.983Z</time></trkpt><trkpt lat="43.5124684" lon="12.1854293"><ele>295.0</ele><time>2026-04-05T12:23:25.983Z</time></trkpt><trkpt lat="43.5126798" lon="12.1852483"><ele>295.0</ele><time>2026-04-05T12:23:26.982Z</time></trkpt><trkpt lat="43.5128896" lon="12.1850618"><ele>295.0</ele><time>2026-04-05T12:23:27.983Z</time></trkpt><trkpt lat="43.5130942" lon="12.184879"><ele>295.5</ele><time>2026-04-05T12:23:28.982Z</time></trkpt><trkpt lat="43.513301" lon="12.1846842"><ele>296.0</ele><time>2026-04-05T12:23:29.982Z</time></trkpt><trkpt lat="43.5135117" lon="12.1844956"><ele>296.0</ele><time>2026-04-05T12:23:30.982Z</time></trkpt><trkpt lat="43.5137189" lon="12.1843094"><ele>296.0</ele><time>2026-04-05T12:23:31.983Z</time></trkpt><trkpt lat="43.5139271" lon="12.1841184"><ele>295.5</ele><time>2026-04-05T12:23:32.982Z</time></trkpt><trkpt lat="43.5141352" lon="12.1839206"><ele>295.0</ele><time>2026-04-05T12:23:33.983Z</time></trkpt><trkpt lat="43.5143417" lon="12.1837269"><ele>295.0</ele><time>2026-04-05T12:23:34.982Z</time></trkpt><trkpt lat="43.5145492" lon="12.1835319"><ele>295.0</ele><time>2026-04-05T12:23:35.983Z</time></trkpt><trkpt lat="43.5147555" lon="12.1833413"><ele>294.0</ele><time>2026-04-05T12:23:36.983Z</time></trkpt><trkpt lat="43.5149628" lon="12.1831553"><ele>293.0</ele><time>2026-04-05T12:23:37.983Z</time></trkpt><trkpt lat="43.5151703" lon="12.1829591"><ele>293.0</ele><time>2026-04-05T12:23:38.983Z</time></trkpt><trkpt lat="43.5153775" lon="12.1827717"><ele>293.0</ele><time>2026-04-05T12:23:39.983Z</time></trkpt><trkpt lat="43.5155844" lon="12.1825827"><ele>293.5</ele><time>2026-04-05T12:23:40.983Z</time></trkpt><trkpt lat="43.5157884" lon="12.1823895"><ele>294.0</ele><time>2026-04-05T12:23:41.983Z</time></trkpt><trkpt lat="43.5159879" lon="12.1821948"><ele>294.0</ele><time>2026-04-05T12:23:42.983Z</time></trkpt><trkpt lat="43.516194" lon="12.18201"><ele>294.0</ele><time>2026-04-05T12:23:43.983Z</time></trkpt><trkpt lat="43.5163992" lon="12.1818173"><ele>294.0</ele><time>2026-04-05T12:23:44.983Z</time></trkpt><trkpt lat="43.5166035" lon="12.1816224"><ele>294.0</ele><time>2026-04-05T12:23:45.983Z</time></trkpt><trkpt lat="43.5168055" lon="12.1814335"><ele>294.0</ele><time>2026-04-05T12:23:46.983Z</time></trkpt><trkpt lat="43.517004" lon="12.1812409"><ele>294.0</ele><time>2026-04-05T12:23:47.983Z</time></trkpt><trkpt lat="43.5172043" lon="12.1810487"><ele>294.0</ele><time>2026-04-05T12:23:48.983Z</time></trkpt><trkpt lat="43.517413" lon="12.1808564"><ele>294.0</ele><time>2026-04-05T12:23:49.983Z</time></trkpt><trkpt lat="43.5176166" lon="12.1806627"><ele>294.0</ele><time>2026-04-05T12:23:50.982Z</time></trkpt><trkpt lat="43.5178214" lon="12.1804753"><ele>294.0</ele><time>2026-04-05T12:23:51.983Z</time></trkpt><trkpt lat="43.5180242" lon="12.1802829"><ele>293.0</ele><time>2026-04-05T12:23:52.983Z</time></trkpt><trkpt lat="43.5182252" lon="12.1800932"><ele>292.0</ele><time>2026-04-05T12:23:53.983Z</time></trkpt><trkpt lat="43.5184292" lon="12.1799018"><ele>291.5</ele><time>2026-04-05T12:23:54.983Z</time></trkpt><trkpt lat="43.5186305" lon="12.1797113"><ele>291.0</ele><time>2026-04-05T12:23:55.983Z</time></trkpt><trkpt lat="43.5188331" lon="12.1795241"><ele>291.0</ele><time>2026-04-05T12:23:56.983Z</time></trkpt><trkpt lat="43.5190358" lon="12.1793348"><ele>291.0</ele><time>2026-04-05T12:23:57.982Z</time></trkpt><trkpt lat="43.5192365" lon="12.1791469"><ele>291.0</ele><time>2026-04-05T12:23:58.983Z</time></trkpt><trkpt lat="43.5194363" lon="12.1789566"><ele>291.0</ele><time>2026-04-05T12:23:59.983Z</time></trkpt><trkpt lat="43.519637" lon="12.1787674"><ele>292.5</ele><time>2026-04-05T12:24:00.983Z</time></trkpt><trkpt lat="43.5198378" lon="12.1785783"><ele>294.0</ele><time>2026-04-05T12:24:01.983Z</time></trkpt><trkpt lat="43.5200457" lon="12.1783862"><ele>294.0</ele><time>2026-04-05T12:24:02.983Z</time></trkpt><trkpt lat="43.5202506" lon="12.178191"><ele>294.0</ele><time>2026-04-05T12:24:03.982Z</time></trkpt><trkpt lat="43.520453" lon="12.1780045"><ele>293.0</ele><time>2026-04-05T12:24:04.983Z</time></trkpt><trkpt lat="43.5206546" lon="12.1778182"><ele>292.0</ele><time>2026-04-05T12:24:05.983Z</time></trkpt><trkpt lat="43.5208571" lon="12.1776261"><ele>292.0</ele><time>2026-04-05T12:24:06.983Z</time></trkpt><trkpt lat="43.5210602" lon="12.1774401"><ele>292.0</ele><time>2026-04-05T12:24:07.982Z</time></trkpt><trkpt lat="43.5212624" lon="12.17725"><ele>291.5</ele><time>2026-04-05T12:24:08.983Z</time></trkpt><trkpt lat="43.5214701" lon="12.1770493"><ele>291.0</ele><time>2026-04-05T12:24:09.982Z</time></trkpt><trkpt lat="43.5216726" lon="12.1768636"><ele>291.0</ele><time>2026-04-05T12:24:10.983Z</time></trkpt><trkpt lat="43.5218719" lon="12.1766672"><ele>291.0</ele><time>2026-04-05T12:24:11.983Z</time></trkpt><trkpt lat="43.5220755" lon="12.1764774"><ele>292.0</ele><time>2026-04-05T12:24:12.982Z</time></trkpt><trkpt lat="43.5222782" lon="12.1762886"><ele>293.0</ele><time>2026-04-05T12:24:13.983Z</time></trkpt><trkpt lat="43.5224815" lon="12.1760957"><ele>293.0</ele><time>2026-04-05T12:24:14.983Z</time></trkpt><trkpt lat="43.5226856" lon="12.175906"><ele>293.0</ele><time>2026-04-05T12:24:15.982Z</time></trkpt><trkpt lat="43.5228893" lon="12.175709"><ele>293.0</ele><time>2026-04-05T12:24:16.982Z</time></trkpt><trkpt lat="43.5230896" lon="12.1755128"><ele>293.0</ele><time>2026-04-05T12:24:17.983Z</time></trkpt><trkpt lat="43.5232955" lon="12.175317"><ele>293.0</ele><time>2026-04-05T12:24:18.983Z</time></trkpt><trkpt lat="43.5235032" lon="12.1751271"><ele>293.0</ele><time>2026-04-05T12:24:19.982Z</time></trkpt><trkpt lat="43.5237079" lon="12.1749368"><ele>292.5</ele><time>2026-04-05T12:24:20.983Z</time></trkpt><trkpt lat="43.5239136" lon="12.1747454"><ele>292.0</ele><time>2026-04-05T12:24:21.983Z</time></trkpt><trkpt lat="43.5241191" lon="12.1745476"><ele>292.0</ele><time>2026-04-05T12:24:22.983Z</time></trkpt><trkpt lat="43.5243275" lon="12.1743597"><ele>292.0</ele><time>2026-04-05T12:24:23.982Z</time></trkpt><trkpt lat="43.5245355" lon="12.1741634"><ele>292.0</ele><time>2026-04-05T12:24:24.983Z</time></trkpt><trkpt lat="43.5247477" lon="12.1739686"><ele>292.0</ele><time>2026-04-05T12:24:25.981Z</time></trkpt><trkpt lat="43.5249555" lon="12.1737721"><ele>292.0</ele><time>2026-04-05T12:24:26.983Z</time></trkpt><trkpt lat="43.525161" lon="12.1735718"><ele>292.0</ele><time>2026-04-05T12:24:27.982Z</time></trkpt><trkpt lat="43.5253651" lon="12.1733733"><ele>291.5</ele><time>2026-04-05T12:24:28.983Z</time></trkpt><trkpt lat="43.5255735" lon="12.1731724"><ele>291.0</ele><time>2026-04-05T12:24:29.982Z</time></trkpt><trkpt lat="43.5257774" lon="12.1729697"><ele>291.0</ele><time>2026-04-05T12:24:30.983Z</time></trkpt><trkpt lat="43.5259771" lon="12.1727637"><ele>291.0</ele><time>2026-04-05T12:24:31.982Z</time></trkpt><trkpt lat="43.5261795" lon="12.1725539"><ele>292.0</ele><time>2026-04-05T12:24:32.982Z</time></trkpt><trkpt lat="43.526381" lon="12.1723469"><ele>293.0</ele><time>2026-04-05T12:24:33.982Z</time></trkpt><trkpt lat="43.5265794" lon="12.1721374"><ele>293.0</ele><time>2026-04-05T12:24:34.982Z</time></trkpt><trkpt lat="43.5267789" lon="12.1719244"><ele>293.0</ele><time>2026-04-05T12:24:35.983Z</time></trkpt><trkpt lat="43.5269783" lon="12.1717083"><ele>292.5</ele><time>2026-04-05T12:24:36.983Z</time></trkpt><trkpt lat="43.5271761" lon="12.1714931"><ele>292.0</ele><time>2026-04-05T12:24:37.983Z</time></trkpt><trkpt lat="43.5273741" lon="12.1712781"><ele>292.0</ele><time>2026-04-05T12:24:38.983Z</time></trkpt><trkpt lat="43.5275721" lon="12.1710606"><ele>292.0</ele><time>2026-04-05T12:24:39.983Z</time></trkpt><trkpt lat="43.5277699" lon="12.1708465"><ele>292.0</ele><time>2026-04-05T12:24:40.983Z</time></trkpt><trkpt lat="43.5279715" lon="12.170634"><ele>292.0</ele><time>2026-04-05T12:24:41.983Z</time></trkpt><trkpt lat="43.5281708" lon="12.1704224"><ele>292.0</ele><time>2026-04-05T12:24:42.982Z</time></trkpt><trkpt lat="43.5283704" lon="12.1702098"><ele>292.0</ele><time>2026-04-05T12:24:43.983Z</time></trkpt><trkpt lat="43.5285655" lon="12.1699969"><ele>293.5</ele><time>2026-04-05T12:24:44.983Z</time></trkpt><trkpt lat="43.5287635" lon="12.1697879"><ele>295.0</ele><time>2026-04-05T12:24:45.983Z</time></trkpt><trkpt lat="43.5289607" lon="12.1695765"><ele>295.0</ele><time>2026-04-05T12:24:46.982Z</time></trkpt><trkpt lat="43.5291572" lon="12.1693561"><ele>295.0</ele><time>2026-04-05T12:24:47.982Z</time></trkpt><trkpt lat="43.5293526" lon="12.1691392"><ele>295.0</ele><time>2026-04-05T12:24:48.983Z</time></trkpt><trkpt lat="43.529545" lon="12.1689214"><ele>295.0</ele><time>2026-04-05T12:24:49.983Z</time></trkpt><trkpt lat="43.5297438" lon="12.1687095"><ele>296.0</ele><time>2026-04-05T12:24:50.983Z</time></trkpt><trkpt lat="43.5299374" lon="12.1684899"><ele>297.0</ele><time>2026-04-05T12:24:51.982Z</time></trkpt><trkpt lat="43.5301337" lon="12.1682778"><ele>297.0</ele><time>2026-04-05T12:24:52.982Z</time></trkpt><trkpt lat="43.5303331" lon="12.1680598"><ele>297.0</ele><time>2026-04-05T12:24:53.983Z</time></trkpt><trkpt lat="43.530532" lon="12.1678402"><ele>296.5</ele><time>2026-04-05T12:24:54.983Z</time></trkpt><trkpt lat="43.530727" lon="12.1676222"><ele>296.0</ele><time>2026-04-05T12:24:55.982Z</time></trkpt><trkpt lat="43.5309276" lon="12.1674084"><ele>295.5</ele><time>2026-04-05T12:24:56.983Z</time></trkpt><trkpt lat="43.5311293" lon="12.1671932"><ele>295.0</ele><time>2026-04-05T12:24:57.982Z</time></trkpt><trkpt lat="43.5313305" lon="12.166974"><ele>295.0</ele><time>2026-04-05T12:24:58.983Z</time></trkpt><trkpt lat="43.5315345" lon="12.166755"><ele>295.0</ele><time>2026-04-05T12:24:59.983Z</time></trkpt><trkpt lat="43.5317369" lon="12.1665402"><ele>295.0</ele><time>2026-04-05T12:25:00.983Z</time></trkpt><trkpt lat="43.5319403" lon="12.1663211"><ele>295.0</ele><time>2026-04-05T12:25:01.983Z</time></trkpt><trkpt lat="43.5321419" lon="12.1660999"><ele>294.5</ele><time>2026-04-05T12:25:02.982Z</time></trkpt><trkpt lat="43.5323437" lon="12.1658833"><ele>294.0</ele><time>2026-04-05T12:25:03.983Z</time></trkpt><trkpt lat="43.5325452" lon="12.1656705"><ele>294.0</ele><time>2026-04-05T12:25:04.982Z</time></trkpt><trkpt lat="43.5327424" lon="12.1654452"><ele>294.0</ele><time>2026-04-05T12:25:05.983Z</time></trkpt><trkpt lat="43.532944" lon="12.1652331"><ele>294.0</ele><time>2026-04-05T12:25:06.983Z</time></trkpt><trkpt lat="43.5331435" lon="12.1650156"><ele>294.0</ele><time>2026-04-05T12:25:07.983Z</time></trkpt><trkpt lat="43.533344" lon="12.1648034"><ele>294.0</ele><time>2026-04-05T12:25:08.982Z</time></trkpt><trkpt lat="43.5335428" lon="12.1645843"><ele>294.0</ele><time>2026-04-05T12:25:09.983Z</time></trkpt><trkpt lat="43.53374" lon="12.1643683"><ele>294.5</ele><time>2026-04-05T12:25:10.983Z</time></trkpt><trkpt lat="43.5339392" lon="12.1641615"><ele>295.0</ele><time>2026-04-05T12:25:11.983Z</time></trkpt><trkpt lat="43.5341434" lon="12.1639429"><ele>295.0</ele><time>2026-04-05T12:25:12.983Z</time></trkpt><trkpt lat="43.5343396" lon="12.1637253"><ele>295.0</ele><time>2026-04-05T12:25:13.983Z</time></trkpt><trkpt lat="43.5345347" lon="12.1635116"><ele>295.0</ele><time>2026-04-05T12:25:14.983Z</time></trkpt><trkpt lat="43.5347275" lon="12.1632954"><ele>295.0</ele><time>2026-04-05T12:25:15.983Z</time></trkpt><trkpt lat="43.5349221" lon="12.1630799"><ele>296.5</ele><time>2026-04-05T12:25:16.982Z</time></trkpt><trkpt lat="43.5351233" lon="12.1628717"><ele>298.0</ele><time>2026-04-05T12:25:17.982Z</time></trkpt><trkpt lat="43.5353222" lon="12.1626681"><ele>297.0</ele><time>2026-04-05T12:25:18.983Z</time></trkpt><trkpt lat="43.5355145" lon="12.1624563"><ele>296.0</ele><time>2026-04-05T12:25:19.983Z</time></trkpt><trkpt lat="43.5357073" lon="12.1622467"><ele>296.0</ele><time>2026-04-05T12:25:20.982Z</time></trkpt><trkpt lat="43.5359013" lon="12.1620375"><ele>296.0</ele><time>2026-04-05T12:25:21.982Z</time></trkpt><trkpt lat="43.5360946" lon="12.1618199"><ele>295.5</ele><time>2026-04-05T12:25:22.982Z</time></trkpt><trkpt lat="43.5362809" lon="12.1616045"><ele>295.0</ele><time>2026-04-05T12:25:23.982Z</time></trkpt><trkpt lat="43.5364937" lon="12.1613702"><ele>296.0</ele><time>2026-04-05T12:25:24.983Z</time></trkpt><trkpt lat="43.5366839" lon="12.1611638"><ele>297.0</ele><time>2026-04-05T12:25:25.983Z</time></trkpt><trkpt lat="43.5368754" lon="12.1609576"><ele>297.5</ele><time>2026-04-05T12:25:26.983Z</time></trkpt><trkpt lat="43.5370721" lon="12.1607561"><ele>298.0</ele><time>2026-04-05T12:25:27.983Z</time></trkpt><trkpt lat="43.5372656" lon="12.1605494"><ele>298.0</ele><time>2026-04-05T12:25:28.983Z</time></trkpt><trkpt lat="43.537462" lon="12.1603516"><ele>298.0</ele><time>2026-04-05T12:25:29.982Z</time></trkpt><trkpt lat="43.5376578" lon="12.1601594"><ele>298.0</ele><time>2026-04-05T12:25:30.983Z</time></trkpt><trkpt lat="43.5378522" lon="12.1599638"><ele>298.0</ele><time>2026-04-05T12:25:31.982Z</time></trkpt><trkpt lat="43.5380478" lon="12.1597693"><ele>297.5</ele><time>2026-04-05T12:25:32.982Z</time></trkpt><trkpt lat="43.5382469" lon="12.1595795"><ele>297.0</ele><time>2026-04-05T12:25:33.983Z</time></trkpt><trkpt lat="43.5384445" lon="12.1593939"><ele>297.0</ele><time>2026-04-05T12:25:34.982Z</time></trkpt><trkpt lat="43.5386394" lon="12.1592025"><ele>297.0</ele><time>2026-04-05T12:25:35.982Z</time></trkpt><trkpt lat="43.5388408" lon="12.1590179"><ele>297.0</ele><time>2026-04-05T12:25:36.982Z</time></trkpt><trkpt lat="43.539042" lon="12.1588302"><ele>297.0</ele><time>2026-04-05T12:25:37.983Z</time></trkpt><trkpt lat="43.5392397" lon="12.1586403"><ele>297.0</ele><time>2026-04-05T12:25:38.983Z</time></trkpt><trkpt lat="43.5394409" lon="12.1584469"><ele>297.0</ele><time>2026-04-05T12:25:39.982Z</time></trkpt><trkpt lat="43.5396386" lon="12.1582499"><ele>298.5</ele><time>2026-04-05T12:25:40.983Z</time></trkpt><trkpt lat="43.5398381" lon="12.1580631"><ele>300.0</ele><time>2026-04-05T12:25:41.982Z</time></trkpt><trkpt lat="43.5400371" lon="12.1578714"><ele>300.0</ele><time>2026-04-05T12:25:42.982Z</time></trkpt><trkpt lat="43.5402377" lon="12.1576689"><ele>300.0</ele><time>2026-04-05T12:25:43.982Z</time></trkpt><trkpt lat="43.5404382" lon="12.1574762"><ele>301.5</ele><time>2026-04-05T12:25:44.981Z</time></trkpt><trkpt lat="43.5406321" lon="12.1572868"><ele>303.0</ele><time>2026-04-05T12:25:45.982Z</time></trkpt><trkpt lat="43.5408333" lon="12.1571015"><ele>303.0</ele><time>2026-04-05T12:25:46.982Z</time></trkpt><trkpt lat="43.5410282" lon="12.1569139"><ele>303.0</ele><time>2026-04-05T12:25:47.982Z</time></trkpt><trkpt lat="43.5412276" lon="12.1567275"><ele>303.0</ele><time>2026-04-05T12:25:48.982Z</time></trkpt><trkpt lat="43.541425" lon="12.1565374"><ele>303.0</ele><time>2026-04-05T12:25:49.982Z</time></trkpt><trkpt lat="43.5416241" lon="12.1563479"><ele>302.0</ele><time>2026-04-05T12:25:50.983Z</time></trkpt><trkpt lat="43.5418205" lon="12.1561582"><ele>301.0</ele><time>2026-04-05T12:25:51.983Z</time></trkpt><trkpt lat="43.5420163" lon="12.1559625"><ele>301.5</ele><time>2026-04-05T12:25:52.983Z</time></trkpt><trkpt lat="43.5422166" lon="12.155776"><ele>302.0</ele><time>2026-04-05T12:25:53.982Z</time></trkpt><trkpt lat="43.5424054" lon="12.1555852"><ele>302.0</ele><time>2026-04-05T12:25:54.983Z</time></trkpt><trkpt lat="43.5426048" lon="12.1553985"><ele>302.0</ele><time>2026-04-05T12:25:55.983Z</time></trkpt><trkpt lat="43.542805" lon="12.1552079"><ele>302.0</ele><time>2026-04-05T12:25:56.983Z</time></trkpt><trkpt lat="43.5430042" lon="12.1550245"><ele>302.0</ele><time>2026-04-05T12:25:57.983Z</time></trkpt><trkpt lat="43.5432066" lon="12.1548447"><ele>302.0</ele><time>2026-04-05T12:25:58.982Z</time></trkpt><trkpt lat="43.5434018" lon="12.1546555"><ele>302.0</ele><time>2026-04-05T12:25:59.983Z</time></trkpt><trkpt lat="43.5436" lon="12.1544645"><ele>302.0</ele><time>2026-04-05T12:26:00.983Z</time></trkpt><trkpt lat="43.5437959" lon="12.1542725"><ele>302.0</ele><time>2026-04-05T12:26:01.983Z</time></trkpt><trkpt lat="43.5439884" lon="12.1540865"><ele>302.0</ele><time>2026-04-05T12:26:02.983Z</time></trkpt><trkpt lat="43.5441856" lon="12.1538998"><ele>302.0</ele><time>2026-04-05T12:26:03.982Z</time></trkpt><trkpt lat="43.5443882" lon="12.1537056"><ele>302.0</ele><time>2026-04-05T12:26:04.983Z</time></trkpt><trkpt lat="43.5445898" lon="12.1535102"><ele>302.0</ele><time>2026-04-05T12:26:05.983Z</time></trkpt><trkpt lat="43.5447938" lon="12.1533163"><ele>302.0</ele><time>2026-04-05T12:26:06.982Z</time></trkpt><trkpt lat="43.5449988" lon="12.1531174"><ele>302.0</ele><time>2026-04-05T12:26:07.983Z</time></trkpt><trkpt lat="43.545208" lon="12.1529182"><ele>302.5</ele><time>2026-04-05T12:26:08.983Z</time></trkpt><trkpt lat="43.5454103" lon="12.1527245"><ele>303.0</ele><time>2026-04-05T12:26:09.982Z</time></trkpt><trkpt lat="43.545611" lon="12.1525361"><ele>303.5</ele><time>2026-04-05T12:26:10.983Z</time></trkpt><trkpt lat="43.5458121" lon="12.1523385"><ele>304.0</ele><time>2026-04-05T12:26:11.983Z</time></trkpt><trkpt lat="43.5460113" lon="12.1521438"><ele>304.0</ele><time>2026-04-05T12:26:12.983Z</time></trkpt><trkpt lat="43.5462104" lon="12.1519521"><ele>304.0</ele><time>2026-04-05T12:26:13.983Z</time></trkpt><trkpt lat="43.5464134" lon="12.1517569"><ele>304.0</ele><time>2026-04-05T12:26:14.983Z</time></trkpt><trkpt lat="43.5466208" lon="12.1515618"><ele>304.0</ele><time>2026-04-05T12:26:15.982Z</time></trkpt><trkpt lat="43.5468204" lon="12.1513633"><ele>304.0</ele><time>2026-04-05T12:26:16.982Z</time></trkpt><trkpt lat="43.5470213" lon="12.1511642"><ele>304.0</ele><time>2026-04-05T12:26:17.983Z</time></trkpt><trkpt lat="43.5472197" lon="12.1509589"><ele>304.0</ele><time>2026-04-05T12:26:18.983Z</time></trkpt><trkpt lat="43.5474192" lon="12.1507484"><ele>304.0</ele><time>2026-04-05T12:26:19.983Z</time></trkpt><trkpt lat="43.5476186" lon="12.1505399"><ele>305.0</ele><time>2026-04-05T12:26:20.983Z</time></trkpt><trkpt lat="43.5478068" lon="12.1503252"><ele>306.0</ele><time>2026-04-05T12:26:21.982Z</time></trkpt><trkpt lat="43.547997" lon="12.1501117"><ele>306.0</ele><time>2026-04-05T12:26:22.982Z</time></trkpt><trkpt lat="43.5481872" lon="12.1498939"><ele>306.0</ele><time>2026-04-05T12:26:23.983Z</time></trkpt><trkpt lat="43.5483705" lon="12.1496746"><ele>306.0</ele><time>2026-04-05T12:26:24.983Z</time></trkpt><trkpt lat="43.5485511" lon="12.1494583"><ele>306.0</ele><time>2026-04-05T12:26:25.983Z</time></trkpt><trkpt lat="43.5487315" lon="12.1492343"><ele>307.5</ele><time>2026-04-05T12:26:26.983Z</time></trkpt><trkpt lat="43.5489129" lon="12.1490027"><ele>309.0</ele><time>2026-04-05T12:26:27.982Z</time></trkpt><trkpt lat="43.5490904" lon="12.1487716"><ele>309.0</ele><time>2026-04-05T12:26:28.983Z</time></trkpt><trkpt lat="43.5492762" lon="12.1485307"><ele>309.0</ele><time>2026-04-05T12:26:29.982Z</time></trkpt><trkpt lat="43.5494501" lon="12.1482913"><ele>308.0</ele><time>2026-04-05T12:26:30.983Z</time></trkpt><trkpt lat="43.5496229" lon="12.1480604"><ele>307.0</ele><time>2026-04-05T12:26:31.981Z</time></trkpt><trkpt lat="43.5497926" lon="12.147817"><ele>307.0</ele><time>2026-04-05T12:26:32.983Z</time></trkpt><trkpt lat="43.5499709" lon="12.1475763"><ele>307.0</ele><time>2026-04-05T12:26:33.983Z</time></trkpt><trkpt lat="43.5501467" lon="12.1473351"><ele>307.0</ele><time>2026-04-05T12:26:34.983Z</time></trkpt><trkpt lat="43.5503146" lon="12.1470903"><ele>307.0</ele><time>2026-04-05T12:26:35.983Z</time></trkpt><trkpt lat="43.5504862" lon="12.1468483"><ele>307.0</ele><time>2026-04-05T12:26:36.982Z</time></trkpt><trkpt lat="43.5506625" lon="12.1466092"><ele>307.0</ele><time>2026-04-05T12:26:37.982Z</time></trkpt><trkpt lat="43.550839" lon="12.1463744"><ele>308.5</ele><time>2026-04-05T12:26:38.981Z</time></trkpt><trkpt lat="43.551014" lon="12.1461258"><ele>310.0</ele><time>2026-04-05T12:26:39.983Z</time></trkpt><trkpt lat="43.5511869" lon="12.14588"><ele>309.0</ele><time>2026-04-05T12:26:40.982Z</time></trkpt><trkpt lat="43.5513587" lon="12.145634"><ele>308.0</ele><time>2026-04-05T12:26:41.983Z</time></trkpt><trkpt lat="43.5515323" lon="12.145388"><ele>308.0</ele><time>2026-04-05T12:26:42.982Z</time></trkpt><trkpt lat="43.5517065" lon="12.1451443"><ele>308.0</ele><time>2026-04-05T12:26:43.982Z</time></trkpt><trkpt lat="43.5518852" lon="12.1448951"><ele>308.0</ele><time>2026-04-05T12:26:44.983Z</time></trkpt><trkpt lat="43.5520635" lon="12.144652"><ele>308.0</ele><time>2026-04-05T12:26:45.982Z</time></trkpt><trkpt lat="43.5522425" lon="12.1444042"><ele>308.0</ele><time>2026-04-05T12:26:46.981Z</time></trkpt><trkpt lat="43.5524177" lon="12.1441601"><ele>308.0</ele><time>2026-04-05T12:26:47.982Z</time></trkpt><trkpt lat="43.5525984" lon="12.143918"><ele>308.0</ele><time>2026-04-05T12:26:48.982Z</time></trkpt><trkpt lat="43.5527715" lon="12.1436765"><ele>308.0</ele><time>2026-04-05T12:26:49.982Z</time></trkpt><trkpt lat="43.5529495" lon="12.1434288"><ele>308.0</ele><time>2026-04-05T12:26:50.982Z</time></trkpt><trkpt lat="43.5531265" lon="12.1431826"><ele>308.0</ele><time>2026-04-05T12:26:51.981Z</time></trkpt><trkpt lat="43.5533031" lon="12.1429419"><ele>308.0</ele><time>2026-04-05T12:26:52.983Z</time></trkpt><trkpt lat="43.5534781" lon="12.142692"><ele>308.0</ele><time>2026-04-05T12:26:53.983Z</time></trkpt><trkpt lat="43.5536562" lon="12.1424502"><ele>309.0</ele><time>2026-04-05T12:26:54.983Z</time></trkpt><trkpt lat="43.5538331" lon="12.1422047"><ele>310.0</ele><time>2026-04-05T12:26:55.982Z</time></trkpt><trkpt lat="43.5540058" lon="12.1419561"><ele>310.0</ele><time>2026-04-05T12:26:56.982Z</time></trkpt><trkpt lat="43.5541785" lon="12.141707"><ele>310.0</ele><time>2026-04-05T12:26:57.982Z</time></trkpt><trkpt lat="43.5543505" lon="12.1414666"><ele>309.5</ele><time>2026-04-05T12:26:58.983Z</time></trkpt><trkpt lat="43.5545306" lon="12.1412303"><ele>309.0</ele><time>2026-04-05T12:26:59.983Z</time></trkpt><trkpt lat="43.554705" lon="12.1409782"><ele>308.5</ele><time>2026-04-05T12:27:00.983Z</time></trkpt><trkpt lat="43.5548803" lon="12.1407234"><ele>308.0</ele><time>2026-04-05T12:27:01.983Z</time></trkpt><trkpt lat="43.5550606" lon="12.1404784"><ele>307.5</ele><time>2026-04-05T12:27:02.982Z</time></trkpt><trkpt lat="43.5552405" lon="12.1402254"><ele>307.0</ele><time>2026-04-05T12:27:03.983Z</time></trkpt><trkpt lat="43.5554228" lon="12.1399722"><ele>308.5</ele><time>2026-04-05T12:27:04.983Z</time></trkpt><trkpt lat="43.5556041" lon="12.1397232"><ele>310.0</ele><time>2026-04-05T12:27:05.982Z</time></trkpt><trkpt lat="43.5557824" lon="12.1394769"><ele>310.0</ele><time>2026-04-05T12:27:06.983Z</time></trkpt><trkpt lat="43.5559672" lon="12.1392316"><ele>310.0</ele><time>2026-04-05T12:27:07.983Z</time></trkpt><trkpt lat="43.5561523" lon="12.1389898"><ele>309.5</ele><time>2026-04-05T12:27:08.982Z</time></trkpt><trkpt lat="43.5563269" lon="12.138738"><ele>309.0</ele><time>2026-04-05T12:27:09.983Z</time></trkpt><trkpt lat="43.5565051" lon="12.1384909"><ele>309.0</ele><time>2026-04-05T12:27:10.983Z</time></trkpt><trkpt lat="43.5566821" lon="12.1382409"><ele>309.0</ele><time>2026-04-05T12:27:11.982Z</time></trkpt><trkpt lat="43.5568573" lon="12.1379937"><ele>309.0</ele><time>2026-04-05T12:27:12.983Z</time></trkpt><trkpt lat="43.5570323" lon="12.1377389"><ele>309.0</ele><time>2026-04-05T12:27:13.983Z</time></trkpt><trkpt lat="43.5572103" lon="12.1374961"><ele>309.0</ele><time>2026-04-05T12:27:14.982Z</time></trkpt><trkpt lat="43.5573888" lon="12.1372553"><ele>309.0</ele><time>2026-04-05T12:27:15.983Z</time></trkpt><trkpt lat="43.5575637" lon="12.137009"><ele>309.0</ele><time>2026-04-05T12:27:16.983Z</time></trkpt><trkpt lat="43.5577475" lon="12.1367563"><ele>309.0</ele><time>2026-04-05T12:27:17.983Z</time></trkpt><trkpt lat="43.5579269" lon="12.1365066"><ele>309.0</ele><time>2026-04-05T12:27:18.983Z</time></trkpt><trkpt lat="43.5581089" lon="12.1362502"><ele>309.0</ele><time>2026-04-05T12:27:19.983Z</time></trkpt><trkpt lat="43.5582875" lon="12.1360015"><ele>309.0</ele><time>2026-04-05T12:27:20.983Z</time></trkpt><trkpt lat="43.5584676" lon="12.1357604"><ele>309.0</ele><time>2026-04-05T12:27:21.982Z</time></trkpt><trkpt lat="43.5586424" lon="12.1355139"><ele>308.0</ele><time>2026-04-05T12:27:22.982Z</time></trkpt><trkpt lat="43.5588179" lon="12.1352667"><ele>307.0</ele><time>2026-04-05T12:27:23.983Z</time></trkpt><trkpt lat="43.5589948" lon="12.1350214"><ele>307.5</ele><time>2026-04-05T12:27:24.983Z</time></trkpt><trkpt lat="43.5591694" lon="12.1347771"><ele>308.0</ele><time>2026-04-05T12:27:25.983Z</time></trkpt><trkpt lat="43.5593486" lon="12.1345254"><ele>308.0</ele><time>2026-04-05T12:27:26.983Z</time></trkpt><trkpt lat="43.5595302" lon="12.1342725"><ele>308.0</ele><time>2026-04-05T12:27:27.983Z</time></trkpt><trkpt lat="43.5597161" lon="12.1340256"><ele>307.5</ele><time>2026-04-05T12:27:28.983Z</time></trkpt><trkpt lat="43.559893" lon="12.1337801"><ele>307.0</ele><time>2026-04-05T12:27:29.983Z</time></trkpt><trkpt lat="43.56007" lon="12.133525"><ele>307.0</ele><time>2026-04-05T12:27:30.983Z</time></trkpt><trkpt lat="43.5602502" lon="12.1332713"><ele>307.0</ele><time>2026-04-05T12:27:31.983Z</time></trkpt><trkpt lat="43.5604278" lon="12.133014"><ele>306.0</ele><time>2026-04-05T12:27:32.983Z</time></trkpt><trkpt lat="43.5606079" lon="12.132761"><ele>305.0</ele><time>2026-04-05T12:27:33.982Z</time></trkpt><trkpt lat="43.5607871" lon="12.1325132"><ele>306.0</ele><time>2026-04-05T12:27:34.982Z</time></trkpt><trkpt lat="43.5609694" lon="12.1322634"><ele>307.0</ele><time>2026-04-05T12:27:35.982Z</time></trkpt><trkpt lat="43.5611541" lon="12.1320153"><ele>307.5</ele><time>2026-04-05T12:27:36.983Z</time></trkpt><trkpt lat="43.5613349" lon="12.1317662"><ele>308.0</ele><time>2026-04-05T12:27:37.983Z</time></trkpt><trkpt lat="43.5615173" lon="12.1315158"><ele>308.0</ele><time>2026-04-05T12:27:38.983Z</time></trkpt><trkpt lat="43.5617" lon="12.1312628"><ele>308.0</ele><time>2026-04-05T12:27:39.982Z</time></trkpt><trkpt lat="43.561877" lon="12.13101"><ele>307.5</ele><time>2026-04-05T12:27:40.982Z</time></trkpt><trkpt lat="43.5620564" lon="12.1307595"><ele>307.0</ele><time>2026-04-05T12:27:41.98Z</time></trkpt><trkpt lat="43.5622393" lon="12.1305047"><ele>307.0</ele><time>2026-04-05T12:27:42.982Z</time></trkpt><trkpt lat="43.5624133" lon="12.1302556"><ele>307.0</ele><time>2026-04-05T12:27:43.983Z</time></trkpt><trkpt lat="43.5625964" lon="12.130002"><ele>306.5</ele><time>2026-04-05T12:27:44.983Z</time></trkpt><trkpt lat="43.5627793" lon="12.1297455"><ele>306.0</ele><time>2026-04-05T12:27:45.982Z</time></trkpt><trkpt lat="43.562963" lon="12.1294899"><ele>307.0</ele><time>2026-04-05T12:27:46.983Z</time></trkpt><trkpt lat="43.5631509" lon="12.1292362"><ele>308.0</ele><time>2026-04-05T12:27:47.982Z</time></trkpt><trkpt lat="43.5633319" lon="12.1289807"><ele>309.0</ele><time>2026-04-05T12:27:48.982Z</time></trkpt><trkpt lat="43.5635147" lon="12.1287191"><ele>310.0</ele><time>2026-04-05T12:27:49.983Z</time></trkpt><trkpt lat="43.5636985" lon="12.1284695"><ele>311.0</ele><time>2026-04-05T12:27:50.983Z</time></trkpt><trkpt lat="43.5638855" lon="12.1282098"><ele>312.0</ele><time>2026-04-05T12:27:51.983Z</time></trkpt><trkpt lat="43.5640657" lon="12.1279569"><ele>312.0</ele><time>2026-04-05T12:27:52.983Z</time></trkpt><trkpt lat="43.5642473" lon="12.1277075"><ele>312.0</ele><time>2026-04-05T12:27:53.983Z</time></trkpt><trkpt lat="43.5644228" lon="12.1274601"><ele>312.0</ele><time>2026-04-05T12:27:54.983Z</time></trkpt><trkpt lat="43.5645998" lon="12.127215"><ele>312.0</ele><time>2026-04-05T12:27:55.982Z</time></trkpt><trkpt lat="43.564782" lon="12.1269619"><ele>312.0</ele><time>2026-04-05T12:27:56.983Z</time></trkpt><trkpt lat="43.5649677" lon="12.1267206"><ele>312.0</ele><time>2026-04-05T12:27:57.983Z</time></trkpt><trkpt lat="43.5651487" lon="12.1264787"><ele>311.0</ele><time>2026-04-05T12:27:58.983Z</time></trkpt><trkpt lat="43.5653451" lon="12.1262394"><ele>310.0</ele><time>2026-04-05T12:27:59.983Z</time></trkpt><trkpt lat="43.5655335" lon="12.1260136"><ele>309.5</ele><time>2026-04-05T12:28:00.982Z</time></trkpt><trkpt lat="43.565722" lon="12.125789"><ele>309.0</ele><time>2026-04-05T12:28:01.982Z</time></trkpt><trkpt lat="43.5659156" lon="12.125563"><ele>309.5</ele><time>2026-04-05T12:28:02.983Z</time></trkpt><trkpt lat="43.5661076" lon="12.1253366"><ele>310.0</ele><time>2026-04-05T12:28:03.983Z</time></trkpt><trkpt lat="43.566309" lon="12.1251159"><ele>310.0</ele><time>2026-04-05T12:28:04.983Z</time></trkpt><trkpt lat="43.5665105" lon="12.1249019"><ele>310.0</ele><time>2026-04-05T12:28:05.983Z</time></trkpt><trkpt lat="43.5667139" lon="12.1246926"><ele>310.0</ele><time>2026-04-05T12:28:06.982Z</time></trkpt><trkpt lat="43.566922" lon="12.124491"><ele>310.0</ele><time>2026-04-05T12:28:07.982Z</time></trkpt><trkpt lat="43.5671337" lon="12.1242902"><ele>310.0</ele><time>2026-04-05T12:28:08.982Z</time></trkpt><trkpt lat="43.5673452" lon="12.1240945"><ele>310.0</ele><time>2026-04-05T12:28:09.983Z</time></trkpt><trkpt lat="43.5675624" lon="12.1239011"><ele>310.0</ele><time>2026-04-05T12:28:10.983Z</time></trkpt><trkpt lat="43.5677781" lon="12.1237083"><ele>310.0</ele><time>2026-04-05T12:28:11.983Z</time></trkpt><trkpt lat="43.5679949" lon="12.1235203"><ele>310.5</ele><time>2026-04-05T12:28:12.982Z</time></trkpt><trkpt lat="43.5682172" lon="12.123335"><ele>311.0</ele><time>2026-04-05T12:28:13.983Z</time></trkpt><trkpt lat="43.5684386" lon="12.1231574"><ele>311.0</ele><time>2026-04-05T12:28:14.982Z</time></trkpt><trkpt lat="43.5686596" lon="12.1229821"><ele>311.0</ele><time>2026-04-05T12:28:15.982Z</time></trkpt><trkpt lat="43.5688807" lon="12.1228078"><ele>311.5</ele><time>2026-04-05T12:28:16.983Z</time></trkpt><trkpt lat="43.5691052" lon="12.1226414"><ele>312.0</ele><time>2026-04-05T12:28:17.983Z</time></trkpt><trkpt lat="43.5693286" lon="12.1224793"><ele>313.5</ele><time>2026-04-05T12:28:18.983Z</time></trkpt><trkpt lat="43.5695581" lon="12.1223248"><ele>315.0</ele><time>2026-04-05T12:28:19.983Z</time></trkpt><trkpt lat="43.5697904" lon="12.1221705"><ele>315.0</ele><time>2026-04-05T12:28:20.983Z</time></trkpt><trkpt lat="43.5700191" lon="12.1220354"><ele>315.0</ele><time>2026-04-05T12:28:21.983Z</time></trkpt><trkpt lat="43.5702506" lon="12.1219015"><ele>315.0</ele><time>2026-04-05T12:28:22.981Z</time></trkpt><trkpt lat="43.5704738" lon="12.1217634"><ele>315.0</ele><time>2026-04-05T12:28:23.983Z</time></trkpt><trkpt lat="43.5707047" lon="12.1216254"><ele>315.0</ele><time>2026-04-05T12:28:24.983Z</time></trkpt><trkpt lat="43.5709442" lon="12.1214847"><ele>315.0</ele><time>2026-04-05T12:28:25.982Z</time></trkpt><trkpt lat="43.571171" lon="12.1213479"><ele>315.0</ele><time>2026-04-05T12:28:26.983Z</time></trkpt><trkpt lat="43.5714004" lon="12.1212103"><ele>315.0</ele><time>2026-04-05T12:28:27.983Z</time></trkpt><trkpt lat="43.5716308" lon="12.1210763"><ele>315.0</ele><time>2026-04-05T12:28:28.983Z</time></trkpt><trkpt lat="43.5718639" lon="12.1209446"><ele>315.0</ele><time>2026-04-05T12:28:29.983Z</time></trkpt><trkpt lat="43.572095" lon="12.1208067"><ele>315.5</ele><time>2026-04-05T12:28:30.982Z</time></trkpt><trkpt lat="43.5723225" lon="12.1206721"><ele>316.0</ele><time>2026-04-05T12:28:31.983Z</time></trkpt><trkpt lat="43.5725515" lon="12.1205379"><ele>316.0</ele><time>2026-04-05T12:28:32.982Z</time></trkpt><trkpt lat="43.5727804" lon="12.1204065"><ele>316.0</ele><time>2026-04-05T12:28:33.982Z</time></trkpt><trkpt lat="43.5730095" lon="12.1202729"><ele>316.5</ele><time>2026-04-05T12:28:34.983Z</time></trkpt><trkpt lat="43.5732441" lon="12.1201356"><ele>317.0</ele><time>2026-04-05T12:28:35.982Z</time></trkpt><trkpt lat="43.573471" lon="12.1199985"><ele>316.5</ele><time>2026-04-05T12:28:36.983Z</time></trkpt><trkpt lat="43.5736927" lon="12.119861"><ele>316.0</ele><time>2026-04-05T12:28:37.982Z</time></trkpt><trkpt lat="43.5739111" lon="12.1197262"><ele>316.0</ele><time>2026-04-05T12:28:38.981Z</time></trkpt><trkpt lat="43.5741146" lon="12.1196045"><ele>316.0</ele><time>2026-04-05T12:28:39.983Z</time></trkpt><trkpt lat="43.5743079" lon="12.1194946"><ele>316.0</ele><time>2026-04-05T12:28:40.982Z</time></trkpt><trkpt lat="43.5744936" lon="12.1193793"><ele>316.66666666666663</ele><time>2026-04-05T12:28:41.983Z</time></trkpt><trkpt lat="43.5746719" lon="12.1192803"><ele>317.3333333333333</ele><time>2026-04-05T12:28:42.983Z</time></trkpt><trkpt lat="43.5748269" lon="12.1191869"><ele>318.0</ele><time>2026-04-05T12:28:43.983Z</time></trkpt><trkpt lat="43.5749793" lon="12.1190977"><ele>317.75</ele><time>2026-04-05T12:28:44.983Z</time></trkpt><trkpt lat="43.5751261" lon="12.1190164"><ele>317.5</ele><time>2026-04-05T12:28:45.982Z</time></trkpt><trkpt lat="43.5752622" lon="12.1189438"><ele>317.25</ele><time>2026-04-05T12:28:46.983Z</time></trkpt><trkpt lat="43.575386" lon="12.1188791"><ele>317.0</ele><time>2026-04-05T12:28:47.983Z</time></trkpt><trkpt lat="43.5755032" lon="12.1188239"><ele>317.4</ele><time>2026-04-05T12:28:48.983Z</time></trkpt><trkpt lat="43.5756122" lon="12.1187722"><ele>317.79999999999995</ele><time>2026-04-05T12:28:49.983Z</time></trkpt><trkpt lat="43.5757169" lon="12.1187415"><ele>318.2</ele><time>2026-04-05T12:28:50.983Z</time></trkpt><trkpt lat="43.5758146" lon="12.1187414"><ele>318.59999999999997</ele><time>2026-04-05T12:28:51.983Z</time></trkpt><trkpt lat="43.5759016" lon="12.1187614"><ele>319.0</ele><time>2026-04-05T12:28:52.983Z</time></trkpt><trkpt lat="43.5759809" lon="12.1187923"><ele>319.0</ele><time>2026-04-05T12:28:53.983Z</time></trkpt><trkpt lat="43.5760479" lon="12.1188077"><ele>319.0</ele><time>2026-04-05T12:28:54.983Z</time></trkpt><trkpt lat="43.5761748" lon="12.1188197"><ele>319.0</ele><time>2026-04-05T12:28:56.982Z</time></trkpt><trkpt lat="43.5762905" lon="12.118807"><ele>319.0</ele><time>2026-04-05T12:28:58.983Z</time></trkpt><trkpt lat="43.5763822" lon="12.118768"><ele>319.0</ele><time>2026-04-05T12:29:00.983Z</time></trkpt><trkpt lat="43.5764444" lon="12.1187481"><ele>319.14285714285717</ele><time>2026-04-05T12:29:02.982Z</time></trkpt><trkpt lat="43.5765062" lon="12.1187213"><ele>319.2857142857143</ele><time>2026-04-05T12:29:51.982Z</time></trkpt><trkpt lat="43.5765661" lon="12.118674"><ele>319.42857142857144</ele><time>2026-04-05T12:35:19.982Z</time></trkpt><trkpt lat="43.5765031" lon="12.1186785"><ele>319.57142857142856</ele><time>2026-04-05T12:35:36.981Z</time></trkpt><trkpt lat="43.5764612" lon="12.1187536"><ele>319.7142857142857</ele><time>2026-04-05T12:35:41.981Z</time></trkpt><trkpt lat="43.5765265" lon="12.1187566"><ele>319.85714285714283</ele><time>2026-04-05T12:36:38.981Z</time></trkpt><trkpt lat="43.5765802" lon="12.1187059"><ele>320.0</ele><time>2026-04-05T12:36:43.982Z</time></trkpt><trkpt lat="43.576515" lon="12.1187001"><ele>320.0</ele><time>2026-04-05T12:36:50.981Z</time></trkpt><trkpt lat="43.5764532" lon="12.1187322"><ele>320.0</ele><time>2026-04-05T12:36:58.982Z</time></trkpt><trkpt lat="43.5765118" lon="12.1187818"><ele>320.0</ele><time>2026-04-05T12:40:05.98Z</time></trkpt><trkpt lat="43.5765767" lon="12.1188514"><ele>320.0</ele><time>2026-04-05T12:40:08.98Z</time></trkpt><trkpt lat="43.5766356" lon="12.1188876"><ele>320.0</ele><time>2026-04-05T12:40:10.942Z</time></trkpt><trkpt lat="43.5767039" lon="12.1185157"><ele>320.0</ele><time>2026-04-05T12:40:11.98Z</time></trkpt><trkpt lat="43.5767261" lon="12.1183691"><ele>320.0</ele><time>2026-04-05T12:40:13.979Z</time></trkpt><trkpt lat="43.5767623" lon="12.1182233"><ele>320.0</ele><time>2026-04-05T12:40:15.98Z</time></trkpt><trkpt lat="43.576812" lon="12.1181174"><ele>320.0</ele><time>2026-04-05T12:40:17.98Z</time></trkpt><trkpt lat="43.576898" lon="12.1180464"><ele>320.0</ele><time>2026-04-05T12:40:19.979Z</time></trkpt><trkpt lat="43.5769573" lon="12.118005"><ele>320.0</ele><time>2026-04-05T12:40:20.98Z</time></trkpt><trkpt lat="43.5770328" lon="12.1179453"><ele>320.0</ele><time>2026-04-05T12:40:21.98Z</time></trkpt><trkpt lat="43.5771087" lon="12.1178876"><ele>320.0</ele><time>2026-04-05T12:40:22.98Z</time></trkpt><trkpt lat="43.577206" lon="12.1178221"><ele>320.0</ele><time>2026-04-05T12:40:23.98Z</time></trkpt><trkpt lat="43.5773188" lon="12.1177476"><ele>320.0</ele><time>2026-04-05T12:40:24.979Z</time></trkpt><trkpt lat="43.5774354" lon="12.1176749"><ele>320.0</ele><time>2026-04-05T12:40:25.98Z</time></trkpt><trkpt lat="43.5775586" lon="12.1175963"><ele>320.0</ele><time>2026-04-05T12:40:26.98Z</time></trkpt><trkpt lat="43.5776914" lon="12.1175182"><ele>320.0</ele><time>2026-04-05T12:40:27.98Z</time></trkpt><trkpt lat="43.5778334" lon="12.1174335"><ele>320.0</ele><time>2026-04-05T12:40:28.98Z</time></trkpt><trkpt lat="43.5779874" lon="12.117343"><ele>320.6666666666667</ele><time>2026-04-05T12:40:29.98Z</time></trkpt><trkpt lat="43.5781414" lon="12.1172532"><ele>321.3333333333333</ele><time>2026-04-05T12:40:30.98Z</time></trkpt><trkpt lat="43.5782994" lon="12.117159"><ele>322.0</ele><time>2026-04-05T12:40:31.98Z</time></trkpt><trkpt lat="43.5784652" lon="12.11706"><ele>322.0</ele><time>2026-04-05T12:40:32.98Z</time></trkpt><trkpt lat="43.5786383" lon="12.1169544"><ele>322.0</ele><time>2026-04-05T12:40:33.98Z</time></trkpt><trkpt lat="43.5788188" lon="12.1168493"><ele>322.0</ele><time>2026-04-05T12:40:34.979Z</time></trkpt><trkpt lat="43.5789953" lon="12.116744"><ele>322.0</ele><time>2026-04-05T12:40:35.98Z</time></trkpt><trkpt lat="43.5791755" lon="12.1166315"><ele>322.0</ele><time>2026-04-05T12:40:36.979Z</time></trkpt><trkpt lat="43.5793631" lon="12.1165139"><ele>322.0</ele><time>2026-04-05T12:40:37.98Z</time></trkpt><trkpt lat="43.5795609" lon="12.116394"><ele>322.0</ele><time>2026-04-05T12:40:38.98Z</time></trkpt><trkpt lat="43.579761" lon="12.1162743"><ele>322.0</ele><time>2026-04-05T12:40:39.979Z</time></trkpt><trkpt lat="43.5799611" lon="12.1161594"><ele>322.0</ele><time>2026-04-05T12:40:40.979Z</time></trkpt><trkpt lat="43.5801593" lon="12.1160367"><ele>321.66666666666663</ele><time>2026-04-05T12:40:41.98Z</time></trkpt><trkpt lat="43.5803559" lon="12.1159024"><ele>321.3333333333333</ele><time>2026-04-05T12:40:42.98Z</time></trkpt><trkpt lat="43.5805513" lon="12.1157559"><ele>321.0</ele><time>2026-04-05T12:40:43.98Z</time></trkpt><trkpt lat="43.5807445" lon="12.1155966"><ele>321.0</ele><time>2026-04-05T12:40:44.98Z</time></trkpt><trkpt lat="43.5809354" lon="12.1154301"><ele>321.0</ele><time>2026-04-05T12:40:45.979Z</time></trkpt><trkpt lat="43.581125" lon="12.1152495"><ele>323.0</ele><time>2026-04-05T12:40:46.98Z</time></trkpt><trkpt lat="43.5813118" lon="12.1150578"><ele>325.0</ele><time>2026-04-05T12:40:47.979Z</time></trkpt><trkpt lat="43.5814956" lon="12.1148525"><ele>325.0</ele><time>2026-04-05T12:40:48.98Z</time></trkpt><trkpt lat="43.5816785" lon="12.1146358"><ele>325.0</ele><time>2026-04-05T12:40:49.98Z</time></trkpt><trkpt lat="43.5818555" lon="12.1144109"><ele>325.0</ele><time>2026-04-05T12:40:50.979Z</time></trkpt><trkpt lat="43.5820327" lon="12.114177"><ele>325.0</ele><time>2026-04-05T12:40:51.979Z</time></trkpt><trkpt lat="43.5822097" lon="12.113942"><ele>324.5</ele><time>2026-04-05T12:40:52.979Z</time></trkpt><trkpt lat="43.5823855" lon="12.1137001"><ele>324.0</ele><time>2026-04-05T12:40:53.979Z</time></trkpt><trkpt lat="43.5825576" lon="12.1134631"><ele>324.0</ele><time>2026-04-05T12:40:54.979Z</time></trkpt><trkpt lat="43.5827353" lon="12.1132291"><ele>324.0</ele><time>2026-04-05T12:40:55.98Z</time></trkpt><trkpt lat="43.5829138" lon="12.1129855"><ele>324.0</ele><time>2026-04-05T12:40:56.98Z</time></trkpt><trkpt lat="43.5831029" lon="12.1127524"><ele>324.0</ele><time>2026-04-05T12:40:57.98Z</time></trkpt><trkpt lat="43.5832832" lon="12.112523"><ele>323.5</ele><time>2026-04-05T12:40:58.98Z</time></trkpt><trkpt lat="43.5834622" lon="12.1123001"><ele>323.0</ele><time>2026-04-05T12:40:59.98Z</time></trkpt><trkpt lat="43.5836406" lon="12.1120648"><ele>326.5</ele><time>2026-04-05T12:41:00.98Z</time></trkpt><trkpt lat="43.5838101" lon="12.1118364"><ele>330.0</ele><time>2026-04-05T12:41:01.98Z</time></trkpt><trkpt lat="43.5839845" lon="12.1116001"><ele>330.0</ele><time>2026-04-05T12:41:02.98Z</time></trkpt><trkpt lat="43.5841532" lon="12.1113629"><ele>330.0</ele><time>2026-04-05T12:41:03.979Z</time></trkpt><trkpt lat="43.5843307" lon="12.1111357"><ele>330.0</ele><time>2026-04-05T12:41:04.98Z</time></trkpt><trkpt lat="43.5845089" lon="12.1109046"><ele>330.0</ele><time>2026-04-05T12:41:05.98Z</time></trkpt><trkpt lat="43.5846889" lon="12.1106696"><ele>332.5</ele><time>2026-04-05T12:41:06.98Z</time></trkpt><trkpt lat="43.5848625" lon="12.1104353"><ele>335.0</ele><time>2026-04-05T12:41:07.979Z</time></trkpt><trkpt lat="43.5850329" lon="12.110203"><ele>335.0</ele><time>2026-04-05T12:41:08.98Z</time></trkpt><trkpt lat="43.5852187" lon="12.1099547"><ele>335.0</ele><time>2026-04-05T12:41:09.98Z</time></trkpt><trkpt lat="43.5853957" lon="12.1097099"><ele>335.5</ele><time>2026-04-05T12:41:10.98Z</time></trkpt><trkpt lat="43.5855681" lon="12.1094847"><ele>336.0</ele><time>2026-04-05T12:41:11.979Z</time></trkpt><trkpt lat="43.5857422" lon="12.1092572"><ele>335.0</ele><time>2026-04-05T12:41:12.98Z</time></trkpt><trkpt lat="43.5859141" lon="12.1090265"><ele>334.0</ele><time>2026-04-05T12:41:13.98Z</time></trkpt><trkpt lat="43.5860851" lon="12.1087964"><ele>337.5</ele><time>2026-04-05T12:41:14.98Z</time></trkpt><trkpt lat="43.5862606" lon="12.1085717"><ele>341.0</ele><time>2026-04-05T12:41:15.98Z</time></trkpt><trkpt lat="43.5864365" lon="12.108342"><ele>341.5</ele><time>2026-04-05T12:41:16.98Z</time></trkpt><trkpt lat="43.5866165" lon="12.1080976"><ele>342.0</ele><time>2026-04-05T12:41:17.98Z</time></trkpt><trkpt lat="43.5867989" lon="12.1078541"><ele>342.0</ele><time>2026-04-05T12:41:18.98Z</time></trkpt><trkpt lat="43.5869742" lon="12.1076229"><ele>342.0</ele><time>2026-04-05T12:41:19.98Z</time></trkpt><trkpt lat="43.5871508" lon="12.1073893"><ele>347.0</ele><time>2026-04-05T12:41:20.98Z</time></trkpt><trkpt lat="43.587333" lon="12.1071465"><ele>352.0</ele><time>2026-04-05T12:41:21.98Z</time></trkpt><trkpt lat="43.587511" lon="12.1069185"><ele>352.0</ele><time>2026-04-05T12:41:22.98Z</time></trkpt><trkpt lat="43.5876806" lon="12.106687"><ele>352.0</ele><time>2026-04-05T12:41:23.98Z</time></trkpt><trkpt lat="43.5878565" lon="12.1064546"><ele>354.5</ele><time>2026-04-05T12:41:24.98Z</time></trkpt><trkpt lat="43.5880302" lon="12.1062226"><ele>357.0</ele><time>2026-04-05T12:41:25.98Z</time></trkpt><trkpt lat="43.5882073" lon="12.1059916"><ele>357.0</ele><time>2026-04-05T12:41:26.98Z</time></trkpt><trkpt lat="43.5883849" lon="12.105765"><ele>357.0</ele><time>2026-04-05T12:41:27.98Z</time></trkpt><trkpt lat="43.5885635" lon="12.1055291"><ele>358.5</ele><time>2026-04-05T12:41:28.98Z</time></trkpt><trkpt lat="43.5887336" lon="12.1052853"><ele>360.0</ele><time>2026-04-05T12:41:29.98Z</time></trkpt><trkpt lat="43.5889109" lon="12.1050416"><ele>358.0</ele><time>2026-04-05T12:41:30.98Z</time></trkpt><trkpt lat="43.5890906" lon="12.1048026"><ele>356.0</ele><time>2026-04-05T12:41:31.98Z</time></trkpt><trkpt lat="43.5892701" lon="12.1045664"><ele>356.0</ele><time>2026-04-05T12:41:32.98Z</time></trkpt><trkpt lat="43.5894469" lon="12.1043332"><ele>356.0</ele><time>2026-04-05T12:41:33.98Z</time></trkpt><trkpt lat="43.5896337" lon="12.1040924"><ele>358.5</ele><time>2026-04-05T12:41:34.979Z</time></trkpt><trkpt lat="43.589814" lon="12.1038571"><ele>361.0</ele><time>2026-04-05T12:41:35.979Z</time></trkpt><trkpt lat="43.5899904" lon="12.1036172"><ele>361.0</ele><time>2026-04-05T12:41:36.98Z</time></trkpt><trkpt lat="43.5901636" lon="12.1033667"><ele>361.0</ele><time>2026-04-05T12:41:37.979Z</time></trkpt><trkpt lat="43.5903362" lon="12.1031171"><ele>359.0</ele><time>2026-04-05T12:41:38.98Z</time></trkpt><trkpt lat="43.5905018" lon="12.102862"><ele>357.0</ele><time>2026-04-05T12:41:39.98Z</time></trkpt><trkpt lat="43.5906701" lon="12.1026008"><ele>355.0</ele><time>2026-04-05T12:41:40.979Z</time></trkpt><trkpt lat="43.5908276" lon="12.1023389"><ele>353.0</ele><time>2026-04-05T12:41:41.98Z</time></trkpt><trkpt lat="43.5909951" lon="12.1020785"><ele>353.0</ele><time>2026-04-05T12:41:42.98Z</time></trkpt><trkpt lat="43.5911578" lon="12.1018204"><ele>353.0</ele><time>2026-04-05T12:41:43.979Z</time></trkpt><trkpt lat="43.5913175" lon="12.1015596"><ele>361.5</ele><time>2026-04-05T12:41:44.98Z</time></trkpt><trkpt lat="43.5914794" lon="12.1013009"><ele>370.0</ele><time>2026-04-05T12:41:45.98Z</time></trkpt><trkpt lat="43.5916385" lon="12.1010556"><ele>370.0</ele><time>2026-04-05T12:41:46.979Z</time></trkpt><trkpt lat="43.5918004" lon="12.1008032"><ele>370.0</ele><time>2026-04-05T12:41:47.98Z</time></trkpt><trkpt lat="43.5919637" lon="12.1005584"><ele>380.0</ele><time>2026-04-05T12:41:48.979Z</time></trkpt><trkpt lat="43.5921352" lon="12.1003224"><ele>390.0</ele><time>2026-04-05T12:41:49.98Z</time></trkpt><trkpt lat="43.5923099" lon="12.1001"><ele>385.0</ele><time>2026-04-05T12:41:50.98Z</time></trkpt><trkpt lat="43.5924897" lon="12.0998832"><ele>380.0</ele><time>2026-04-05T12:41:51.98Z</time></trkpt><trkpt lat="43.5926785" lon="12.0996767"><ele>389.0</ele><time>2026-04-05T12:41:52.98Z</time></trkpt><trkpt lat="43.59287" lon="12.0994791"><ele>398.0</ele><time>2026-04-05T12:41:53.98Z</time></trkpt><trkpt lat="43.5930647" lon="12.0992778"><ele>398.0</ele><time>2026-04-05T12:41:54.979Z</time></trkpt><trkpt lat="43.59327" lon="12.0990863"><ele>398.0</ele><time>2026-04-05T12:41:55.979Z</time></trkpt><trkpt lat="43.5934806" lon="12.0989139"><ele>399.0</ele><time>2026-04-05T12:41:56.979Z</time></trkpt><trkpt lat="43.5937093" lon="12.0987409"><ele>400.0</ele><time>2026-04-05T12:41:57.98Z</time></trkpt><trkpt lat="43.5939317" lon="12.0985812"><ele>400.0</ele><time>2026-04-05T12:41:58.98Z</time></trkpt><trkpt lat="43.594157" lon="12.0984366"><ele>400.0</ele><time>2026-04-05T12:41:59.98Z</time></trkpt><trkpt lat="43.5943841" lon="12.0982949"><ele>398.0</ele><time>2026-04-05T12:42:00.98Z</time></trkpt><trkpt lat="43.5946157" lon="12.0981611"><ele>396.0</ele><time>2026-04-05T12:42:01.979Z</time></trkpt><trkpt lat="43.5948465" lon="12.0980238"><ele>396.0</ele><time>2026-04-05T12:42:02.98Z</time></trkpt><trkpt lat="43.5950806" lon="12.0978808"><ele>396.0</ele><time>2026-04-05T12:42:03.98Z</time></trkpt><trkpt lat="43.5953145" lon="12.0977423"><ele>394.5</ele><time>2026-04-05T12:42:04.98Z</time></trkpt><trkpt lat="43.5955535" lon="12.0976092"><ele>393.0</ele><time>2026-04-05T12:42:05.979Z</time></trkpt><trkpt lat="43.5957932" lon="12.0974802"><ele>392.5</ele><time>2026-04-05T12:42:06.98Z</time></trkpt><trkpt lat="43.5960337" lon="12.09736"><ele>392.0</ele><time>2026-04-05T12:42:07.98Z</time></trkpt><trkpt lat="43.5962743" lon="12.0972309"><ele>392.0</ele><time>2026-04-05T12:42:08.979Z</time></trkpt><trkpt lat="43.5965149" lon="12.097101"><ele>392.0</ele><time>2026-04-05T12:42:09.979Z</time></trkpt><trkpt lat="43.5967508" lon="12.0969736"><ele>392.0</ele><time>2026-04-05T12:42:10.979Z</time></trkpt><trkpt lat="43.5969891" lon="12.0968464"><ele>392.0</ele><time>2026-04-05T12:42:11.98Z</time></trkpt><trkpt lat="43.5972248" lon="12.0967211"><ele>392.5</ele><time>2026-04-05T12:42:12.979Z</time></trkpt><trkpt lat="43.5974661" lon="12.0965978"><ele>393.0</ele><time>2026-04-05T12:42:13.98Z</time></trkpt><trkpt lat="43.5977094" lon="12.0964738"><ele>392.5</ele><time>2026-04-05T12:42:14.98Z</time></trkpt><trkpt lat="43.597953" lon="12.0963529"><ele>392.0</ele><time>2026-04-05T12:42:15.98Z</time></trkpt><trkpt lat="43.5981971" lon="12.0962317"><ele>392.0</ele><time>2026-04-05T12:42:16.98Z</time></trkpt><trkpt lat="43.5984423" lon="12.0961083"><ele>392.0</ele><time>2026-04-05T12:42:17.98Z</time></trkpt><trkpt lat="43.5986828" lon="12.0959795"><ele>394.0</ele><time>2026-04-05T12:42:18.98Z</time></trkpt><trkpt lat="43.5989203" lon="12.0958427"><ele>396.0</ele><time>2026-04-05T12:42:19.98Z</time></trkpt><trkpt lat="43.5991585" lon="12.0956996"><ele>396.0</ele><time>2026-04-05T12:42:20.98Z</time></trkpt><trkpt lat="43.5993847" lon="12.0955492"><ele>396.0</ele><time>2026-04-05T12:42:21.98Z</time></trkpt><trkpt lat="43.5996086" lon="12.0953906"><ele>400.0</ele><time>2026-04-05T12:42:22.98Z</time></trkpt><trkpt lat="43.5998251" lon="12.0952147"><ele>404.0</ele><time>2026-04-05T12:42:23.98Z</time></trkpt><trkpt lat="43.6000423" lon="12.0950353"><ele>403.5</ele><time>2026-04-05T12:42:24.98Z</time></trkpt><trkpt lat="43.6002545" lon="12.0948282"><ele>403.0</ele><time>2026-04-05T12:42:25.979Z</time></trkpt><trkpt lat="43.6004529" lon="12.0946214"><ele>407.0</ele><time>2026-04-05T12:42:26.98Z</time></trkpt><trkpt lat="43.6006572" lon="12.0944076"><ele>411.0</ele><time>2026-04-05T12:42:27.98Z</time></trkpt><trkpt lat="43.6008422" lon="12.0941919"><ele>416.5</ele><time>2026-04-05T12:42:28.979Z</time></trkpt><trkpt lat="43.6010166" lon="12.093955"><ele>422.0</ele><time>2026-04-05T12:42:29.98Z</time></trkpt><trkpt lat="43.6011871" lon="12.0937114"><ele>430.0</ele><time>2026-04-05T12:42:30.98Z</time></trkpt><trkpt lat="43.6013486" lon="12.0934589"><ele>438.0</ele><time>2026-04-05T12:42:31.979Z</time></trkpt><trkpt lat="43.6015121" lon="12.0932092"><ele>441.5</ele><time>2026-04-05T12:42:32.98Z</time></trkpt><trkpt lat="43.60167" lon="12.092952"><ele>445.0</ele><time>2026-04-05T12:42:33.98Z</time></trkpt><trkpt lat="43.6041267" lon="12.0888033"><ele>445.0</ele><time>2026-04-05T12:42:49.98Z</time></trkpt><trkpt lat="43.6042464" lon="12.0885598"><ele>445.0</ele><time>2026-04-05T12:42:50.98Z</time></trkpt><trkpt lat="43.6043779" lon="12.0882875"><ele>447.5</ele><time>2026-04-05T12:42:51.979Z</time></trkpt><trkpt lat="43.6045053" lon="12.0880142"><ele>450.0</ele><time>2026-04-05T12:42:52.979Z</time></trkpt><trkpt lat="43.6046369" lon="12.0877443"><ele>450.0</ele><time>2026-04-05T12:42:53.98Z</time></trkpt><trkpt lat="43.6047688" lon="12.0874726"><ele>450.0</ele><time>2026-04-05T12:42:54.979Z</time></trkpt><trkpt lat="43.6049084" lon="12.0872033"><ele>444.5</ele><time>2026-04-05T12:42:55.98Z</time></trkpt><trkpt lat="43.6050449" lon="12.0869355"><ele>439.0</ele><time>2026-04-05T12:42:56.98Z</time></trkpt><trkpt lat="43.6051864" lon="12.0866655"><ele>438.5</ele><time>2026-04-05T12:42:57.979Z</time></trkpt><trkpt lat="43.6053319" lon="12.0864033"><ele>438.0</ele><time>2026-04-05T12:42:58.98Z</time></trkpt><trkpt lat="43.605484" lon="12.0861347"><ele>438.0</ele><time>2026-04-05T12:42:59.98Z</time></trkpt><trkpt lat="43.6056326" lon="12.085866"><ele>438.0</ele><time>2026-04-05T12:43:00.979Z</time></trkpt><trkpt lat="43.6057829" lon="12.0855983"><ele>438.0</ele><time>2026-04-05T12:43:01.98Z</time></trkpt><trkpt lat="43.6059302" lon="12.085333"><ele>438.0</ele><time>2026-04-05T12:43:02.98Z</time></trkpt><trkpt lat="43.6060814" lon="12.0850672"><ele>442.5</ele><time>2026-04-05T12:43:03.98Z</time></trkpt><trkpt lat="43.6062327" lon="12.0847958"><ele>447.0</ele><time>2026-04-05T12:43:04.98Z</time></trkpt><trkpt lat="43.6063902" lon="12.0845253"><ele>447.0</ele><time>2026-04-05T12:43:05.98Z</time></trkpt><trkpt lat="43.6065454" lon="12.0842525"><ele>447.0</ele><time>2026-04-05T12:43:06.979Z</time></trkpt><trkpt lat="43.6067022" lon="12.0839788"><ele>448.0</ele><time>2026-04-05T12:43:07.98Z</time></trkpt><trkpt lat="43.6068591" lon="12.0836968"><ele>449.0</ele><time>2026-04-05T12:43:08.98Z</time></trkpt><trkpt lat="43.6070184" lon="12.0834122"><ele>447.0</ele><time>2026-04-05T12:43:09.98Z</time></trkpt><trkpt lat="43.6071735" lon="12.0831351"><ele>445.0</ele><time>2026-04-05T12:43:10.98Z</time></trkpt><trkpt lat="43.6073235" lon="12.0828595"><ele>445.0</ele><time>2026-04-05T12:43:11.98Z</time></trkpt><trkpt lat="43.6074793" lon="12.0825557"><ele>445.0</ele><time>2026-04-05T12:43:12.98Z</time></trkpt><trkpt lat="43.6076407" lon="12.0822673"><ele>445.5</ele><time>2026-04-05T12:43:13.98Z</time></trkpt><trkpt lat="43.6078023" lon="12.0819813"><ele>446.0</ele><time>2026-04-05T12:43:14.979Z</time></trkpt><trkpt lat="43.6079685" lon="12.0816967"><ele>444.5</ele><time>2026-04-05T12:43:15.98Z</time></trkpt><trkpt lat="43.608142" lon="12.0814185"><ele>443.0</ele><time>2026-04-05T12:43:16.979Z</time></trkpt><trkpt lat="43.6083211" lon="12.0811501"><ele>443.0</ele><time>2026-04-05T12:43:17.98Z</time></trkpt><trkpt lat="43.6085121" lon="12.0808989"><ele>443.0</ele><time>2026-04-05T12:43:18.98Z</time></trkpt><trkpt lat="43.6087167" lon="12.0806556"><ele>442.0</ele><time>2026-04-05T12:43:19.98Z</time></trkpt><trkpt lat="43.6089202" lon="12.0804244"><ele>441.0</ele><time>2026-04-05T12:43:20.98Z</time></trkpt><trkpt lat="43.6091257" lon="12.080207"><ele>441.0</ele><time>2026-04-05T12:43:21.98Z</time></trkpt><trkpt lat="43.6093364" lon="12.0800001"><ele>441.0</ele><time>2026-04-05T12:43:22.98Z</time></trkpt><trkpt lat="43.6095498" lon="12.0798107"><ele>437.5</ele><time>2026-04-05T12:43:23.98Z</time></trkpt><trkpt lat="43.6097684" lon="12.0796307"><ele>434.0</ele><time>2026-04-05T12:43:24.98Z</time></trkpt><trkpt lat="43.6099897" lon="12.079463"><ele>434.0</ele><time>2026-04-05T12:43:25.979Z</time></trkpt><trkpt lat="43.610215" lon="12.0793079"><ele>434.0</ele><time>2026-04-05T12:43:26.98Z</time></trkpt><trkpt lat="43.6104518" lon="12.0791707"><ele>431.0</ele><time>2026-04-05T12:43:27.979Z</time></trkpt><trkpt lat="43.6106872" lon="12.0790432"><ele>428.0</ele><time>2026-04-05T12:43:28.98Z</time></trkpt><trkpt lat="43.6109298" lon="12.0789318"><ele>424.5</ele><time>2026-04-05T12:43:29.979Z</time></trkpt><trkpt lat="43.6111732" lon="12.0788301"><ele>421.0</ele><time>2026-04-05T12:43:30.98Z</time></trkpt><trkpt lat="43.6114147" lon="12.0787406"><ele>421.0</ele><time>2026-04-05T12:43:31.98Z</time></trkpt><trkpt lat="43.6116642" lon="12.0786763"><ele>421.0</ele><time>2026-04-05T12:43:32.98Z</time></trkpt><trkpt lat="43.6119191" lon="12.0786189"><ele>417.5</ele><time>2026-04-05T12:43:33.979Z</time></trkpt><trkpt lat="43.6121687" lon="12.0785695"><ele>414.0</ele><time>2026-04-05T12:43:34.98Z</time></trkpt><trkpt lat="43.6124259" lon="12.0785363"><ele>414.0</ele><time>2026-04-05T12:43:35.979Z</time></trkpt><trkpt lat="43.6126818" lon="12.0785136"><ele>414.0</ele><time>2026-04-05T12:43:36.98Z</time></trkpt><trkpt lat="43.6129406" lon="12.0785083"><ele>415.0</ele><time>2026-04-05T12:43:37.979Z</time></trkpt><trkpt lat="43.6131983" lon="12.0785139"><ele>416.0</ele><time>2026-04-05T12:43:38.98Z</time></trkpt><trkpt lat="43.6134585" lon="12.0785338"><ele>417.5</ele><time>2026-04-05T12:43:39.98Z</time></trkpt><trkpt lat="43.613717" lon="12.07857"><ele>419.0</ele><time>2026-04-05T12:43:40.98Z</time></trkpt><trkpt lat="43.6139763" lon="12.0786116"><ele>419.0</ele><time>2026-04-05T12:43:41.98Z</time></trkpt><trkpt lat="43.6142366" lon="12.0786595"><ele>419.0</ele><time>2026-04-05T12:43:42.98Z</time></trkpt><trkpt lat="43.6144934" lon="12.0787075"><ele>418.5</ele><time>2026-04-05T12:43:43.98Z</time></trkpt><trkpt lat="43.6147554" lon="12.0787563"><ele>418.0</ele><time>2026-04-05T12:43:44.98Z</time></trkpt><trkpt lat="43.6150188" lon="12.0788074"><ele>418.0</ele><time>2026-04-05T12:43:45.979Z</time></trkpt><trkpt lat="43.615277" lon="12.0788584"><ele>418.0</ele><time>2026-04-05T12:43:46.98Z</time></trkpt><trkpt lat="43.6155354" lon="12.0789088"><ele>412.0</ele><time>2026-04-05T12:43:47.98Z</time></trkpt><trkpt lat="43.6157921" lon="12.0789597"><ele>406.0</ele><time>2026-04-05T12:43:48.98Z</time></trkpt><trkpt lat="43.6160484" lon="12.0790093"><ele>405.0</ele><time>2026-04-05T12:43:49.98Z</time></trkpt><trkpt lat="43.6163034" lon="12.079058"><ele>404.0</ele><time>2026-04-05T12:43:50.98Z</time></trkpt><trkpt lat="43.6165552" lon="12.079107"><ele>409.5</ele><time>2026-04-05T12:43:51.979Z</time></trkpt><trkpt lat="43.6168061" lon="12.0791641"><ele>415.0</ele><time>2026-04-05T12:43:52.979Z</time></trkpt><trkpt lat="43.6170639" lon="12.079219"><ele>415.0</ele><time>2026-04-05T12:43:53.98Z</time></trkpt><trkpt lat="43.6173136" lon="12.0792716"><ele>415.0</ele><time>2026-04-05T12:43:54.98Z</time></trkpt><trkpt lat="43.6175727" lon="12.0793279"><ele>411.5</ele><time>2026-04-05T12:43:55.98Z</time></trkpt><trkpt lat="43.6178303" lon="12.0793795"><ele>408.0</ele><time>2026-04-05T12:43:56.98Z</time></trkpt><trkpt lat="43.6180837" lon="12.0794301"><ele>408.0</ele><time>2026-04-05T12:43:57.98Z</time></trkpt><trkpt lat="43.6183363" lon="12.0794786"><ele>408.0</ele><time>2026-04-05T12:43:58.979Z</time></trkpt><trkpt lat="43.6185917" lon="12.0795236"><ele>406.0</ele><time>2026-04-05T12:43:59.979Z</time></trkpt><trkpt lat="43.6188446" lon="12.0795691"><ele>404.0</ele><time>2026-04-05T12:44:00.98Z</time></trkpt><trkpt lat="43.6190946" lon="12.0796196"><ele>404.0</ele><time>2026-04-05T12:44:01.98Z</time></trkpt><trkpt lat="43.6193425" lon="12.0796657"><ele>404.0</ele><time>2026-04-05T12:44:02.979Z</time></trkpt><trkpt lat="43.6195936" lon="12.0797141"><ele>404.0</ele><time>2026-04-05T12:44:03.98Z</time></trkpt><trkpt lat="43.6198447" lon="12.0797579"><ele>404.0</ele><time>2026-04-05T12:44:04.98Z</time></trkpt><trkpt lat="43.6200893" lon="12.079798"><ele>404.0</ele><time>2026-04-05T12:44:05.979Z</time></trkpt><trkpt lat="43.6203376" lon="12.079825"><ele>404.0</ele><time>2026-04-05T12:44:06.979Z</time></trkpt><trkpt lat="43.6205839" lon="12.0798419"><ele>404.0</ele><time>2026-04-05T12:44:07.979Z</time></trkpt><trkpt lat="43.6208307" lon="12.079844"><ele>404.0</ele><time>2026-04-05T12:44:08.98Z</time></trkpt><trkpt lat="43.6210768" lon="12.0798322"><ele>403.5</ele><time>2026-04-05T12:44:09.979Z</time></trkpt><trkpt lat="43.6213205" lon="12.0798017"><ele>403.0</ele><time>2026-04-05T12:44:10.979Z</time></trkpt><trkpt lat="43.6215628" lon="12.0797585"><ele>403.0</ele><time>2026-04-05T12:44:11.98Z</time></trkpt><trkpt lat="43.6218035" lon="12.0796969"><ele>403.0</ele><time>2026-04-05T12:44:12.979Z</time></trkpt><trkpt lat="43.622039" lon="12.0796202"><ele>404.0</ele><time>2026-04-05T12:44:13.98Z</time></trkpt><trkpt lat="43.6222728" lon="12.0795282"><ele>405.0</ele><time>2026-04-05T12:44:14.98Z</time></trkpt><trkpt lat="43.6225051" lon="12.0794277"><ele>405.0</ele><time>2026-04-05T12:44:15.978Z</time></trkpt><trkpt lat="43.6227323" lon="12.079308"><ele>405.0</ele><time>2026-04-05T12:44:16.98Z</time></trkpt><trkpt lat="43.6229545" lon="12.0791747"><ele>403.0</ele><time>2026-04-05T12:44:17.979Z</time></trkpt><trkpt lat="43.6231764" lon="12.0790319"><ele>401.0</ele><time>2026-04-05T12:44:18.98Z</time></trkpt><trkpt lat="43.6233985" lon="12.0788759"><ele>401.0</ele><time>2026-04-05T12:44:19.98Z</time></trkpt><trkpt lat="43.6236201" lon="12.0787165"><ele>401.0</ele><time>2026-04-05T12:44:20.98Z</time></trkpt><trkpt lat="43.6238443" lon="12.0785538"><ele>398.0</ele><time>2026-04-05T12:44:21.98Z</time></trkpt><trkpt lat="43.6240648" lon="12.0783983"><ele>395.0</ele><time>2026-04-05T12:44:22.979Z</time></trkpt><trkpt lat="43.6242848" lon="12.0782355"><ele>398.0</ele><time>2026-04-05T12:44:23.98Z</time></trkpt><trkpt lat="43.6245034" lon="12.0780714"><ele>401.0</ele><time>2026-04-05T12:44:24.98Z</time></trkpt><trkpt lat="43.6247216" lon="12.0779109"><ele>401.0</ele><time>2026-04-05T12:44:25.979Z</time></trkpt><trkpt lat="43.6249435" lon="12.0777534"><ele>401.0</ele><time>2026-04-05T12:44:26.979Z</time></trkpt><trkpt lat="43.6251627" lon="12.0775952"><ele>397.0</ele><time>2026-04-05T12:44:27.98Z</time></trkpt><trkpt lat="43.625382" lon="12.0774386"><ele>393.0</ele><time>2026-04-05T12:44:28.98Z</time></trkpt><trkpt lat="43.6255973" lon="12.0772811"><ele>391.0</ele><time>2026-04-05T12:44:29.979Z</time></trkpt><trkpt lat="43.6258138" lon="12.0771241"><ele>389.0</ele><time>2026-04-05T12:44:30.979Z</time></trkpt><trkpt lat="43.6260277" lon="12.0769701"><ele>390.0</ele><time>2026-04-05T12:44:31.98Z</time></trkpt><trkpt lat="43.6262403" lon="12.0768127"><ele>391.0</ele><time>2026-04-05T12:44:32.979Z</time></trkpt><trkpt lat="43.6264547" lon="12.0766524"><ele>390.5</ele><time>2026-04-05T12:44:33.979Z</time></trkpt><trkpt lat="43.626669" lon="12.0764957"><ele>390.0</ele><time>2026-04-05T12:44:34.979Z</time></trkpt><trkpt lat="43.6268819" lon="12.0763375"><ele>393.5</ele><time>2026-04-05T12:44:35.979Z</time></trkpt><trkpt lat="43.6270936" lon="12.076183"><ele>397.0</ele><time>2026-04-05T12:44:36.98Z</time></trkpt><trkpt lat="43.6273173" lon="12.0760105"><ele>397.0</ele><time>2026-04-05T12:44:37.979Z</time></trkpt><trkpt lat="43.6275261" lon="12.0758562"><ele>397.0</ele><time>2026-04-05T12:44:38.979Z</time></trkpt><trkpt lat="43.6277336" lon="12.0757006"><ele>398.5</ele><time>2026-04-05T12:44:39.98Z</time></trkpt><trkpt lat="43.6279443" lon="12.0755461"><ele>400.0</ele><time>2026-04-05T12:44:40.979Z</time></trkpt><trkpt lat="43.628152" lon="12.0753894"><ele>400.0</ele><time>2026-04-05T12:44:41.98Z</time></trkpt><trkpt lat="43.6283562" lon="12.075225"><ele>400.0</ele><time>2026-04-05T12:44:42.98Z</time></trkpt><trkpt lat="43.6285605" lon="12.0750523"><ele>400.5</ele><time>2026-04-05T12:44:43.98Z</time></trkpt><trkpt lat="43.628758" lon="12.0748733"><ele>401.0</ele><time>2026-04-05T12:44:44.98Z</time></trkpt><trkpt lat="43.6289495" lon="12.0746808"><ele>401.0</ele><time>2026-04-05T12:44:45.98Z</time></trkpt><trkpt lat="43.6291297" lon="12.074476"><ele>401.0</ele><time>2026-04-05T12:44:46.979Z</time></trkpt><trkpt lat="43.6293062" lon="12.0742617"><ele>402.5</ele><time>2026-04-05T12:44:47.979Z</time></trkpt><trkpt lat="43.6294824" lon="12.0740268"><ele>404.0</ele><time>2026-04-05T12:44:48.98Z</time></trkpt><trkpt lat="43.6296484" lon="12.0738096"><ele>404.0</ele><time>2026-04-05T12:44:49.98Z</time></trkpt><trkpt lat="43.6298112" lon="12.0735753"><ele>404.0</ele><time>2026-04-05T12:44:50.979Z</time></trkpt><trkpt lat="43.6299692" lon="12.0733429"><ele>400.0</ele><time>2026-04-05T12:44:51.98Z</time></trkpt><trkpt lat="43.6301195" lon="12.0731147"><ele>396.0</ele><time>2026-04-05T12:44:52.98Z</time></trkpt><trkpt lat="43.6302745" lon="12.0728793"><ele>397.5</ele><time>2026-04-05T12:44:53.979Z</time></trkpt><trkpt lat="43.630436" lon="12.0726396"><ele>399.0</ele><time>2026-04-05T12:44:54.979Z</time></trkpt><trkpt lat="43.6306085" lon="12.0723889"><ele>399.0</ele><time>2026-04-05T12:44:55.98Z</time></trkpt><trkpt lat="43.6307643" lon="12.0721525"><ele>399.0</ele><time>2026-04-05T12:44:56.98Z</time></trkpt><trkpt lat="43.6309244" lon="12.0719097"><ele>399.0</ele><time>2026-04-05T12:44:57.979Z</time></trkpt><trkpt lat="43.6310822" lon="12.0716773"><ele>399.0</ele><time>2026-04-05T12:44:58.98Z</time></trkpt><trkpt lat="43.6312374" lon="12.0714389"><ele>400.0</ele><time>2026-04-05T12:44:59.98Z</time></trkpt><trkpt lat="43.6313938" lon="12.0712026"><ele>401.0</ele><time>2026-04-05T12:45:00.98Z</time></trkpt><trkpt lat="43.6315561" lon="12.0709832"><ele>395.5</ele><time>2026-04-05T12:45:01.98Z</time></trkpt><trkpt lat="43.6317201" lon="12.0707572"><ele>390.0</ele><time>2026-04-05T12:45:02.98Z</time></trkpt><trkpt lat="43.6318906" lon="12.0705339"><ele>396.0</ele><time>2026-04-05T12:45:03.98Z</time></trkpt><trkpt lat="43.6320596" lon="12.0703244"><ele>402.0</ele><time>2026-04-05T12:45:04.979Z</time></trkpt><trkpt lat="43.632237" lon="12.0700885"><ele>395.5</ele><time>2026-04-05T12:45:05.98Z</time></trkpt><trkpt lat="43.6324214" lon="12.06989"><ele>389.0</ele><time>2026-04-05T12:45:06.98Z</time></trkpt><trkpt lat="43.6326019" lon="12.0696909"><ele>389.0</ele><time>2026-04-05T12:45:07.98Z</time></trkpt><trkpt lat="43.6327892" lon="12.0694918"><ele>389.0</ele><time>2026-04-05T12:45:08.979Z</time></trkpt><trkpt lat="43.6329782" lon="12.0692965"><ele>388.0</ele><time>2026-04-05T12:45:09.98Z</time></trkpt><trkpt lat="43.6331728" lon="12.0691059"><ele>387.0</ele><time>2026-04-05T12:45:10.98Z</time></trkpt><trkpt lat="43.6333728" lon="12.0689257"><ele>387.0</ele><time>2026-04-05T12:45:11.98Z</time></trkpt><trkpt lat="43.6335736" lon="12.0687473"><ele>387.0</ele><time>2026-04-05T12:45:12.98Z</time></trkpt><trkpt lat="43.6337804" lon="12.0685854"><ele>386.5</ele><time>2026-04-05T12:45:13.979Z</time></trkpt><trkpt lat="43.6339884" lon="12.0684253"><ele>386.0</ele><time>2026-04-05T12:45:14.98Z</time></trkpt><trkpt lat="43.6342008" lon="12.0682749"><ele>386.0</ele><time>2026-04-05T12:45:15.98Z</time></trkpt><trkpt lat="43.6344198" lon="12.0681441"><ele>386.0</ele><time>2026-04-05T12:45:16.98Z</time></trkpt><trkpt lat="43.6346357" lon="12.0680181"><ele>389.5</ele><time>2026-04-05T12:45:17.979Z</time></trkpt><trkpt lat="43.6348552" lon="12.0678918"><ele>393.0</ele><time>2026-04-05T12:45:18.98Z</time></trkpt><trkpt lat="43.6350765" lon="12.0677749"><ele>396.5</ele><time>2026-04-05T12:45:19.98Z</time></trkpt><trkpt lat="43.6353045" lon="12.0676656"><ele>400.0</ele><time>2026-04-05T12:45:20.98Z</time></trkpt><trkpt lat="43.6355352" lon="12.0675657"><ele>400.0</ele><time>2026-04-05T12:45:21.98Z</time></trkpt><trkpt lat="43.6357649" lon="12.067473"><ele>400.0</ele><time>2026-04-05T12:45:22.98Z</time></trkpt><trkpt lat="43.6359987" lon="12.0673879"><ele>397.0</ele><time>2026-04-05T12:45:23.979Z</time></trkpt><trkpt lat="43.6362304" lon="12.0672999"><ele>394.0</ele><time>2026-04-05T12:45:24.98Z</time></trkpt><trkpt lat="43.6364614" lon="12.0672135"><ele>394.0</ele><time>2026-04-05T12:45:25.98Z</time></trkpt><trkpt lat="43.6366899" lon="12.0671249"><ele>394.0</ele><time>2026-04-05T12:45:26.98Z</time></trkpt><trkpt lat="43.6369243" lon="12.0670353"><ele>396.0</ele><time>2026-04-05T12:45:27.979Z</time></trkpt><trkpt lat="43.637158" lon="12.0669519"><ele>398.0</ele><time>2026-04-05T12:45:28.979Z</time></trkpt><trkpt lat="43.6373904" lon="12.0668676"><ele>398.0</ele><time>2026-04-05T12:45:29.979Z</time></trkpt><trkpt lat="43.6376232" lon="12.0667854"><ele>398.0</ele><time>2026-04-05T12:45:30.979Z</time></trkpt><trkpt lat="43.6378547" lon="12.0666919"><ele>397.0</ele><time>2026-04-05T12:45:31.979Z</time></trkpt><trkpt lat="43.6380885" lon="12.0666075"><ele>396.0</ele><time>2026-04-05T12:45:32.98Z</time></trkpt><trkpt lat="43.6383204" lon="12.0665225"><ele>396.0</ele><time>2026-04-05T12:45:33.979Z</time></trkpt><trkpt lat="43.6385485" lon="12.0664378"><ele>396.0</ele><time>2026-04-05T12:45:34.979Z</time></trkpt><trkpt lat="43.6387778" lon="12.0663529"><ele>397.0</ele><time>2026-04-05T12:45:35.98Z</time></trkpt><trkpt lat="43.6390072" lon="12.066269"><ele>398.0</ele><time>2026-04-05T12:45:36.98Z</time></trkpt><trkpt lat="43.6392317" lon="12.0661828"><ele>398.0</ele><time>2026-04-05T12:45:37.98Z</time></trkpt><trkpt lat="43.6394575" lon="12.0660944"><ele>398.0</ele><time>2026-04-05T12:45:38.98Z</time></trkpt><trkpt lat="43.63968" lon="12.0659932"><ele>399.5</ele><time>2026-04-05T12:45:39.98Z</time></trkpt><trkpt lat="43.6399076" lon="12.065895"><ele>401.0</ele><time>2026-04-05T12:45:40.979Z</time></trkpt><trkpt lat="43.6401289" lon="12.0657794"><ele>400.5</ele><time>2026-04-05T12:45:41.98Z</time></trkpt><trkpt lat="43.6403491" lon="12.0656607"><ele>400.0</ele><time>2026-04-05T12:45:42.979Z</time></trkpt><trkpt lat="43.6405629" lon="12.065537"><ele>400.0</ele><time>2026-04-05T12:45:43.98Z</time></trkpt><trkpt lat="43.6407706" lon="12.0654006"><ele>400.0</ele><time>2026-04-05T12:45:44.98Z</time></trkpt><trkpt lat="43.6409765" lon="12.0652519"><ele>402.5</ele><time>2026-04-05T12:45:45.98Z</time></trkpt><trkpt lat="43.6411794" lon="12.0650896"><ele>405.0</ele><time>2026-04-05T12:45:46.98Z</time></trkpt><trkpt lat="43.6413784" lon="12.0649185"><ele>406.5</ele><time>2026-04-05T12:45:47.979Z</time></trkpt><trkpt lat="43.6415755" lon="12.0647519"><ele>408.0</ele><time>2026-04-05T12:45:48.98Z</time></trkpt><trkpt lat="43.6417738" lon="12.0645729"><ele>408.0</ele><time>2026-04-05T12:45:49.98Z</time></trkpt><trkpt lat="43.6419631" lon="12.0643896"><ele>408.0</ele><time>2026-04-05T12:45:50.979Z</time></trkpt><trkpt lat="43.6421466" lon="12.0641818"><ele>406.0</ele><time>2026-04-05T12:45:51.98Z</time></trkpt><trkpt lat="43.6423298" lon="12.063981"><ele>404.0</ele><time>2026-04-05T12:45:52.98Z</time></trkpt><trkpt lat="43.6425057" lon="12.0637638"><ele>404.0</ele><time>2026-04-05T12:45:53.98Z</time></trkpt><trkpt lat="43.6426787" lon="12.0635508"><ele>404.0</ele><time>2026-04-05T12:45:54.98Z</time></trkpt><trkpt lat="43.6428484" lon="12.0633181"><ele>401.0</ele><time>2026-04-05T12:45:55.979Z</time></trkpt><trkpt lat="43.6430157" lon="12.0630816"><ele>398.0</ele><time>2026-04-05T12:45:56.979Z</time></trkpt><trkpt lat="43.6431751" lon="12.0628466"><ele>398.0</ele><time>2026-04-05T12:45:57.979Z</time></trkpt><trkpt lat="43.6433357" lon="12.06258"><ele>398.0</ele><time>2026-04-05T12:45:58.979Z</time></trkpt><trkpt lat="43.6434881" lon="12.0623231"><ele>398.5</ele><time>2026-04-05T12:45:59.979Z</time></trkpt><trkpt lat="43.6436346" lon="12.062052"><ele>399.0</ele><time>2026-04-05T12:46:00.98Z</time></trkpt><trkpt lat="43.6437722" lon="12.0617864"><ele>398.5</ele><time>2026-04-05T12:46:01.979Z</time></trkpt><trkpt lat="43.6439036" lon="12.061524"><ele>398.0</ele><time>2026-04-05T12:46:02.98Z</time></trkpt><trkpt lat="43.6440291" lon="12.0612511"><ele>398.0</ele><time>2026-04-05T12:46:03.979Z</time></trkpt><trkpt lat="43.6441469" lon="12.060972"><ele>398.0</ele><time>2026-04-05T12:46:04.98Z</time></trkpt><trkpt lat="43.6442601" lon="12.0606886"><ele>398.5</ele><time>2026-04-05T12:46:05.98Z</time></trkpt><trkpt lat="43.6443661" lon="12.0604"><ele>399.0</ele><time>2026-04-05T12:46:06.979Z</time></trkpt><trkpt lat="43.6444676" lon="12.0601269"><ele>400.0</ele><time>2026-04-05T12:46:07.98Z</time></trkpt><trkpt lat="43.6445813" lon="12.0598345"><ele>401.0</ele><time>2026-04-05T12:46:08.98Z</time></trkpt><trkpt lat="43.6446901" lon="12.059539"><ele>401.0</ele><time>2026-04-05T12:46:09.98Z</time></trkpt><trkpt lat="43.6447866" lon="12.0592433"><ele>401.0</ele><time>2026-04-05T12:46:10.979Z</time></trkpt><trkpt lat="43.6448868" lon="12.0589534"><ele>401.0</ele><time>2026-04-05T12:46:11.98Z</time></trkpt><trkpt lat="43.6449885" lon="12.0586589"><ele>401.0</ele><time>2026-04-05T12:46:12.979Z</time></trkpt><trkpt lat="43.6450983" lon="12.0583616"><ele>400.5</ele><time>2026-04-05T12:46:13.98Z</time></trkpt><trkpt lat="43.6452018" lon="12.0580699"><ele>400.0</ele><time>2026-04-05T12:46:14.979Z</time></trkpt><trkpt lat="43.6453062" lon="12.0577767"><ele>403.0</ele><time>2026-04-05T12:46:15.98Z</time></trkpt><trkpt lat="43.6454162" lon="12.0574839"><ele>406.0</ele><time>2026-04-05T12:46:16.98Z</time></trkpt><trkpt lat="43.6455334" lon="12.0571928"><ele>406.0</ele><time>2026-04-05T12:46:17.98Z</time></trkpt><trkpt lat="43.6456509" lon="12.0569168"><ele>406.0</ele><time>2026-04-05T12:46:18.98Z</time></trkpt><trkpt lat="43.6457903" lon="12.0566524"><ele>406.5</ele><time>2026-04-05T12:46:19.979Z</time></trkpt><trkpt lat="43.6459361" lon="12.0563994"><ele>407.0</ele><time>2026-04-05T12:46:20.98Z</time></trkpt><trkpt lat="43.6460915" lon="12.0561541"><ele>407.5</ele><time>2026-04-05T12:46:21.98Z</time></trkpt><trkpt lat="43.6462561" lon="12.0559138"><ele>408.0</ele><time>2026-04-05T12:46:22.98Z</time></trkpt><trkpt lat="43.6464247" lon="12.055693"><ele>408.0</ele><time>2026-04-05T12:46:23.98Z</time></trkpt><trkpt lat="43.6466044" lon="12.0554866"><ele>408.0</ele><time>2026-04-05T12:46:24.98Z</time></trkpt><trkpt lat="43.6467939" lon="12.0552923"><ele>406.5</ele><time>2026-04-05T12:46:25.98Z</time></trkpt><trkpt lat="43.6469982" lon="12.0551111"><ele>405.0</ele><time>2026-04-05T12:46:26.98Z</time></trkpt><trkpt lat="43.6472026" lon="12.0549406"><ele>405.0</ele><time>2026-04-05T12:46:27.979Z</time></trkpt><trkpt lat="43.6474138" lon="12.0547862"><ele>405.0</ele><time>2026-04-05T12:46:28.98Z</time></trkpt><trkpt lat="43.6476307" lon="12.0546502"><ele>406.0</ele><time>2026-04-05T12:46:29.98Z</time></trkpt><trkpt lat="43.6478532" lon="12.0545265"><ele>407.0</ele><time>2026-04-05T12:46:30.98Z</time></trkpt><trkpt lat="43.6480739" lon="12.0544358"><ele>407.0</ele><time>2026-04-05T12:46:31.979Z</time></trkpt><trkpt lat="43.6482995" lon="12.0543457"><ele>407.0</ele><time>2026-04-05T12:46:32.979Z</time></trkpt><trkpt lat="43.6485379" lon="12.0542845"><ele>408.0</ele><time>2026-04-05T12:46:33.98Z</time></trkpt><trkpt lat="43.6487746" lon="12.0542345"><ele>409.0</ele><time>2026-04-05T12:46:34.98Z</time></trkpt><trkpt lat="43.6490135" lon="12.0541931"><ele>409.0</ele><time>2026-04-05T12:46:35.979Z</time></trkpt><trkpt lat="43.6492543" lon="12.0541629"><ele>409.0</ele><time>2026-04-05T12:46:36.98Z</time></trkpt><trkpt lat="43.6494957" lon="12.0541421"><ele>407.5</ele><time>2026-04-05T12:46:37.98Z</time></trkpt><trkpt lat="43.6497372" lon="12.0541205"><ele>406.0</ele><time>2026-04-05T12:46:38.98Z</time></trkpt><trkpt lat="43.6499795" lon="12.0541136"><ele>406.0</ele><time>2026-04-05T12:46:39.979Z</time></trkpt><trkpt lat="43.650221" lon="12.0540997"><ele>406.0</ele><time>2026-04-05T12:46:40.979Z</time></trkpt><trkpt lat="43.650466" lon="12.0540872"><ele>406.5</ele><time>2026-04-05T12:46:41.98Z</time></trkpt><trkpt lat="43.6507083" lon="12.0540736"><ele>407.0</ele><time>2026-04-05T12:46:42.98Z</time></trkpt><trkpt lat="43.650954" lon="12.0540598"><ele>408.0</ele><time>2026-04-05T12:46:43.98Z</time></trkpt><trkpt lat="43.6511925" lon="12.054039"><ele>409.0</ele><time>2026-04-05T12:46:44.979Z</time></trkpt><trkpt lat="43.6514449" lon="12.0540121"><ele>409.0</ele><time>2026-04-05T12:46:45.98Z</time></trkpt><trkpt lat="43.6516806" lon="12.0539753"><ele>409.0</ele><time>2026-04-05T12:46:46.98Z</time></trkpt><trkpt lat="43.651916" lon="12.0539329"><ele>409.5</ele><time>2026-04-05T12:46:47.979Z</time></trkpt><trkpt lat="43.6521582" lon="12.0538819"><ele>410.0</ele><time>2026-04-05T12:46:48.98Z</time></trkpt><trkpt lat="43.6523953" lon="12.0538263"><ele>410.0</ele><time>2026-04-05T12:46:49.98Z</time></trkpt><trkpt lat="43.6526336" lon="12.0537657"><ele>410.0</ele><time>2026-04-05T12:46:50.98Z</time></trkpt><trkpt lat="43.6528675" lon="12.0537016"><ele>410.0</ele><time>2026-04-05T12:46:51.979Z</time></trkpt><trkpt lat="43.6531052" lon="12.0536328"><ele>410.0</ele><time>2026-04-05T12:46:52.979Z</time></trkpt><trkpt lat="43.6533373" lon="12.0535648"><ele>410.0</ele><time>2026-04-05T12:46:53.98Z</time></trkpt><trkpt lat="43.6535757" lon="12.0534968"><ele>410.0</ele><time>2026-04-05T12:46:54.979Z</time></trkpt><trkpt lat="43.6538166" lon="12.0534327"><ele>412.5</ele><time>2026-04-05T12:46:55.98Z</time></trkpt><trkpt lat="43.654057" lon="12.0533668"><ele>415.0</ele><time>2026-04-05T12:46:56.98Z</time></trkpt><trkpt lat="43.6542973" lon="12.053301"><ele>413.5</ele><time>2026-04-05T12:46:57.979Z</time></trkpt><trkpt lat="43.6545369" lon="12.053236"><ele>412.0</ele><time>2026-04-05T12:46:58.98Z</time></trkpt><trkpt lat="43.6547755" lon="12.0531736"><ele>412.0</ele><time>2026-04-05T12:46:59.979Z</time></trkpt><trkpt lat="43.6550131" lon="12.0531086"><ele>412.0</ele><time>2026-04-05T12:47:00.98Z</time></trkpt><trkpt lat="43.6552489" lon="12.0530437"><ele>412.5</ele><time>2026-04-05T12:47:01.98Z</time></trkpt><trkpt lat="43.655479" lon="12.0529796"><ele>413.0</ele><time>2026-04-05T12:47:02.98Z</time></trkpt><trkpt lat="43.6557089" lon="12.0529141"><ele>413.0</ele><time>2026-04-05T12:47:03.98Z</time></trkpt><trkpt lat="43.6559375" lon="12.0528522"><ele>413.0</ele><time>2026-04-05T12:47:04.979Z</time></trkpt><trkpt lat="43.6561608" lon="12.052793"><ele>413.0</ele><time>2026-04-05T12:47:05.98Z</time></trkpt><trkpt lat="43.6563836" lon="12.0527303"><ele>413.0</ele><time>2026-04-05T12:47:06.979Z</time></trkpt><trkpt lat="43.6566036" lon="12.0526668"><ele>413.0</ele><time>2026-04-05T12:47:07.979Z</time></trkpt><trkpt lat="43.6568211" lon="12.0526087"><ele>413.0</ele><time>2026-04-05T12:47:08.979Z</time></trkpt><trkpt lat="43.6570369" lon="12.0525544"><ele>413.0</ele><time>2026-04-05T12:47:09.98Z</time></trkpt><trkpt lat="43.657251" lon="12.0525011"><ele>418.0</ele><time>2026-04-05T12:47:10.98Z</time></trkpt><trkpt lat="43.6574633" lon="12.0524378"><ele>423.0</ele><time>2026-04-05T12:47:11.979Z</time></trkpt><trkpt lat="43.6576742" lon="12.0523804"><ele>428.0</ele><time>2026-04-05T12:47:12.979Z</time></trkpt><trkpt lat="43.6578863" lon="12.0523211"><ele>428.3333333333333</ele><time>2026-04-05T12:47:13.98Z</time></trkpt><trkpt lat="43.6580959" lon="12.0522644"><ele>428.66666666666663</ele><time>2026-04-05T12:47:14.979Z</time></trkpt><trkpt lat="43.6583044" lon="12.0522088"><ele>429.0</ele><time>2026-04-05T12:47:15.98Z</time></trkpt><trkpt lat="43.6585129" lon="12.0521521"><ele>428.33333333333337</ele><time>2026-04-05T12:47:16.979Z</time></trkpt><trkpt lat="43.6587215" lon="12.0520923"><ele>427.6666666666667</ele><time>2026-04-05T12:47:17.98Z</time></trkpt><trkpt lat="43.6589208" lon="12.0520322"><ele>427.0</ele><time>2026-04-05T12:47:18.98Z</time></trkpt><trkpt lat="43.6591088" lon="12.05197"><ele>427.0</ele><time>2026-04-05T12:47:19.979Z</time></trkpt><trkpt lat="43.6593007" lon="12.0519086"><ele>427.0</ele><time>2026-04-05T12:47:20.979Z</time></trkpt><trkpt lat="43.6594774" lon="12.051812"><ele>427.0</ele><time>2026-04-05T12:47:21.98Z</time></trkpt><trkpt lat="43.6596454" lon="12.0517014"><ele>432.0</ele><time>2026-04-05T12:47:22.98Z</time></trkpt><trkpt lat="43.6598059" lon="12.051575"><ele>437.0</ele><time>2026-04-05T12:47:23.979Z</time></trkpt><trkpt lat="43.6599716" lon="12.0514432"><ele>442.0</ele><time>2026-04-05T12:47:24.98Z</time></trkpt><trkpt lat="43.6601382" lon="12.0513146"><ele>436.6666666666667</ele><time>2026-04-05T12:47:25.98Z</time></trkpt><trkpt lat="43.6603036" lon="12.0511735"><ele>431.33333333333337</ele><time>2026-04-05T12:47:26.979Z</time></trkpt><trkpt lat="43.6604648" lon="12.051019"><ele>426.0</ele><time>2026-04-05T12:47:27.98Z</time></trkpt><trkpt lat="43.6606191" lon="12.0508604"><ele>432.0</ele><time>2026-04-05T12:47:28.98Z</time></trkpt><trkpt lat="43.6607677" lon="12.0506922"><ele>438.0</ele><time>2026-04-05T12:47:29.98Z</time></trkpt><trkpt lat="43.6609127" lon="12.050518"><ele>444.0</ele><time>2026-04-05T12:47:30.98Z</time></trkpt><trkpt lat="43.6610561" lon="12.050331"><ele>440.33333333333337</ele><time>2026-04-05T12:47:31.98Z</time></trkpt><trkpt lat="43.6612006" lon="12.050123"><ele>436.6666666666667</ele><time>2026-04-05T12:47:32.98Z</time></trkpt><trkpt lat="43.6613247" lon="12.0499158"><ele>433.0</ele><time>2026-04-05T12:47:33.98Z</time></trkpt><trkpt lat="43.6614462" lon="12.0497058"><ele>433.0</ele><time>2026-04-05T12:47:34.98Z</time></trkpt><trkpt lat="43.6615673" lon="12.0494886"><ele>433.0</ele><time>2026-04-05T12:47:35.98Z</time></trkpt><trkpt lat="43.6616876" lon="12.0492673"><ele>433.0</ele><time>2026-04-05T12:47:36.98Z</time></trkpt><trkpt lat="43.6618109" lon="12.0490396"><ele>432.6666666666667</ele><time>2026-04-05T12:47:37.98Z</time></trkpt><trkpt lat="43.6619216" lon="12.0488119"><ele>432.33333333333337</ele><time>2026-04-05T12:47:38.98Z</time></trkpt><trkpt lat="43.6620312" lon="12.0485819"><ele>432.0</ele><time>2026-04-05T12:47:39.979Z</time></trkpt><trkpt lat="43.662152" lon="12.0483495"><ele>434.33333333333337</ele><time>2026-04-05T12:47:40.98Z</time></trkpt><trkpt lat="43.6622671" lon="12.0481153"><ele>436.6666666666667</ele><time>2026-04-05T12:47:41.979Z</time></trkpt><trkpt lat="43.6623833" lon="12.0478874"><ele>439.0</ele><time>2026-04-05T12:47:42.98Z</time></trkpt><trkpt lat="43.6624943" lon="12.0476542"><ele>437.33333333333337</ele><time>2026-04-05T12:47:43.98Z</time></trkpt><trkpt lat="43.6626058" lon="12.0474283"><ele>435.66666666666663</ele><time>2026-04-05T12:47:44.98Z</time></trkpt><trkpt lat="43.6627218" lon="12.0471992"><ele>434.0</ele><time>2026-04-05T12:47:45.98Z</time></trkpt><trkpt lat="43.6628374" lon="12.0469652"><ele>434.0</ele><time>2026-04-05T12:47:46.98Z</time></trkpt><trkpt lat="43.6629495" lon="12.0467377"><ele>434.0</ele><time>2026-04-05T12:47:47.979Z</time></trkpt><trkpt lat="43.6630661" lon="12.0465019"><ele>434.0</ele><time>2026-04-05T12:47:48.98Z</time></trkpt><trkpt lat="43.6631809" lon="12.0462692"><ele>435.66666666666663</ele><time>2026-04-05T12:47:49.98Z</time></trkpt><trkpt lat="43.6632966" lon="12.0460389"><ele>437.33333333333337</ele><time>2026-04-05T12:47:50.98Z</time></trkpt><trkpt lat="43.663414" lon="12.0458136"><ele>439.0</ele><time>2026-04-05T12:47:51.98Z</time></trkpt><trkpt lat="43.6635282" lon="12.0455875"><ele>438.0</ele><time>2026-04-05T12:47:52.98Z</time></trkpt><trkpt lat="43.6636428" lon="12.0453623"><ele>437.0</ele><time>2026-04-05T12:47:53.98Z</time></trkpt><trkpt lat="43.6637691" lon="12.0451229"><ele>436.0</ele><time>2026-04-05T12:47:54.98Z</time></trkpt><trkpt lat="43.6638844" lon="12.0448998"><ele>436.0</ele><time>2026-04-05T12:47:55.98Z</time></trkpt><trkpt lat="43.6640004" lon="12.044671"><ele>436.0</ele><time>2026-04-05T12:47:56.98Z</time></trkpt><trkpt lat="43.6641069" lon="12.044446"><ele>436.0</ele><time>2026-04-05T12:47:57.98Z</time></trkpt><trkpt lat="43.6642182" lon="12.0442206"><ele>436.33333333333337</ele><time>2026-04-05T12:47:58.98Z</time></trkpt><trkpt lat="43.6643334" lon="12.0439878"><ele>436.66666666666663</ele><time>2026-04-05T12:47:59.979Z</time></trkpt><trkpt lat="43.6644527" lon="12.0437637"><ele>437.0</ele><time>2026-04-05T12:48:00.98Z</time></trkpt><trkpt lat="43.664564" lon="12.0435412"><ele>437.0</ele><time>2026-04-05T12:48:01.98Z</time></trkpt><trkpt lat="43.6646825" lon="12.043318"><ele>437.0</ele><time>2026-04-05T12:48:02.98Z</time></trkpt><trkpt lat="43.6648095" lon="12.0430955"><ele>437.0</ele><time>2026-04-05T12:48:03.98Z</time></trkpt><trkpt lat="43.6649374" lon="12.0428811"><ele>439.66666666666663</ele><time>2026-04-05T12:48:04.98Z</time></trkpt><trkpt lat="43.6650683" lon="12.0426719"><ele>442.33333333333337</ele><time>2026-04-05T12:48:05.98Z</time></trkpt><trkpt lat="43.6652043" lon="12.0424562"><ele>445.0</ele><time>2026-04-05T12:48:06.98Z</time></trkpt><trkpt lat="43.6653424" lon="12.0422493"><ele>445.0</ele><time>2026-04-05T12:48:07.98Z</time></trkpt><trkpt lat="43.6654871" lon="12.042045"><ele>445.0</ele><time>2026-04-05T12:48:08.979Z</time></trkpt><trkpt lat="43.6656356" lon="12.0418532"><ele>445.0</ele><time>2026-04-05T12:48:09.979Z</time></trkpt><trkpt lat="43.6657878" lon="12.0416561"><ele>445.6666666666667</ele><time>2026-04-05T12:48:10.98Z</time></trkpt><trkpt lat="43.665944" lon="12.0414645"><ele>446.33333333333337</ele><time>2026-04-05T12:48:11.98Z</time></trkpt><trkpt lat="43.6661083" lon="12.0412555"><ele>447.0</ele><time>2026-04-05T12:48:12.98Z</time></trkpt><trkpt lat="43.6662706" lon="12.0410801"><ele>447.0</ele><time>2026-04-05T12:48:13.98Z</time></trkpt><trkpt lat="43.6664363" lon="12.0409039"><ele>447.0</ele><time>2026-04-05T12:48:14.98Z</time></trkpt><trkpt lat="43.666606" lon="12.0407344"><ele>447.0</ele><time>2026-04-05T12:48:15.98Z</time></trkpt><trkpt lat="43.6667741" lon="12.0405613"><ele>446.66666666666663</ele><time>2026-04-05T12:48:16.979Z</time></trkpt><trkpt lat="43.6669495" lon="12.0403962"><ele>446.3333333333333</ele><time>2026-04-05T12:48:17.98Z</time></trkpt><trkpt lat="43.667119" lon="12.0402266"><ele>446.0</ele><time>2026-04-05T12:48:18.979Z</time></trkpt><trkpt lat="43.6672908" lon="12.0400541"><ele>448.3333333333333</ele><time>2026-04-05T12:48:19.98Z</time></trkpt><trkpt lat="43.6674601" lon="12.0398897"><ele>450.66666666666663</ele><time>2026-04-05T12:48:20.98Z</time></trkpt><trkpt lat="43.6676337" lon="12.039724"><ele>453.0</ele><time>2026-04-05T12:48:21.98Z</time></trkpt><trkpt lat="43.6678061" lon="12.0395545"><ele>453.0</ele><time>2026-04-05T12:48:22.979Z</time></trkpt><trkpt lat="43.6679792" lon="12.0393862"><ele>453.0</ele><time>2026-04-05T12:48:23.98Z</time></trkpt><trkpt lat="43.668154" lon="12.0392295"><ele>453.0</ele><time>2026-04-05T12:48:24.979Z</time></trkpt><trkpt lat="43.6683276" lon="12.0390577"><ele>452.33333333333337</ele><time>2026-04-05T12:48:25.98Z</time></trkpt><trkpt lat="43.6685008" lon="12.0388874"><ele>451.6666666666667</ele><time>2026-04-05T12:48:26.979Z</time></trkpt><trkpt lat="43.6686739" lon="12.0387153"><ele>451.0</ele><time>2026-04-05T12:48:27.979Z</time></trkpt><trkpt lat="43.6688514" lon="12.0385412"><ele>451.0</ele><time>2026-04-05T12:48:28.98Z</time></trkpt><trkpt lat="43.6690281" lon="12.0383659"><ele>451.0</ele><time>2026-04-05T12:48:29.979Z</time></trkpt><trkpt lat="43.6692074" lon="12.0381943"><ele>451.0</ele><time>2026-04-05T12:48:30.979Z</time></trkpt><trkpt lat="43.6693795" lon="12.0380224"><ele>451.33333333333337</ele><time>2026-04-05T12:48:31.98Z</time></trkpt><trkpt lat="43.6695563" lon="12.0378481"><ele>451.66666666666663</ele><time>2026-04-05T12:48:32.98Z</time></trkpt><trkpt lat="43.6697349" lon="12.0376745"><ele>452.0</ele><time>2026-04-05T12:48:33.98Z</time></trkpt><trkpt lat="43.669915" lon="12.0375014"><ele>454.3333333333333</ele><time>2026-04-05T12:48:34.98Z</time></trkpt><trkpt lat="43.6700838" lon="12.0373324"><ele>456.66666666666663</ele><time>2026-04-05T12:48:35.98Z</time></trkpt><trkpt lat="43.6702627" lon="12.0371652"><ele>459.0</ele><time>2026-04-05T12:48:36.98Z</time></trkpt><trkpt lat="43.6704438" lon="12.0370039"><ele>455.0</ele><time>2026-04-05T12:48:37.98Z</time></trkpt><trkpt lat="43.6706346" lon="12.0368491"><ele>451.0</ele><time>2026-04-05T12:48:38.979Z</time></trkpt><trkpt lat="43.6708298" lon="12.0366918"><ele>447.0</ele><time>2026-04-05T12:48:39.98Z</time></trkpt><trkpt lat="43.6710221" lon="12.0365573"><ele>446.0</ele><time>2026-04-05T12:48:40.98Z</time></trkpt><trkpt lat="43.6712181" lon="12.0364351"><ele>445.0</ele><time>2026-04-05T12:48:41.98Z</time></trkpt><trkpt lat="43.6714201" lon="12.0363279"><ele>444.0</ele><time>2026-04-05T12:48:42.98Z</time></trkpt><trkpt lat="43.6716315" lon="12.0362385"><ele>444.0</ele><time>2026-04-05T12:48:43.98Z</time></trkpt><trkpt lat="43.6718371" lon="12.0361779"><ele>444.0</ele><time>2026-04-05T12:48:44.98Z</time></trkpt><trkpt lat="43.6720405" lon="12.0361275"><ele>444.0</ele><time>2026-04-05T12:48:45.98Z</time></trkpt><trkpt lat="43.6722525" lon="12.0360763"><ele>445.33333333333337</ele><time>2026-04-05T12:48:46.98Z</time></trkpt><trkpt lat="43.6724688" lon="12.0360379"><ele>446.6666666666667</ele><time>2026-04-05T12:48:47.98Z</time></trkpt><trkpt lat="43.6726807" lon="12.0360157"><ele>448.0</ele><time>2026-04-05T12:48:48.98Z</time></trkpt><trkpt lat="43.6728952" lon="12.0360092"><ele>449.33333333333337</ele><time>2026-04-05T12:48:49.98Z</time></trkpt><trkpt lat="43.6731095" lon="12.0360044"><ele>450.66666666666663</ele><time>2026-04-05T12:48:50.979Z</time></trkpt><trkpt lat="43.6733218" lon="12.0360146"><ele>452.0</ele><time>2026-04-05T12:48:51.98Z</time></trkpt><trkpt lat="43.6735403" lon="12.03604"><ele>452.66666666666663</ele><time>2026-04-05T12:48:52.979Z</time></trkpt><trkpt lat="43.6737467" lon="12.0360716"><ele>453.33333333333337</ele><time>2026-04-05T12:48:53.98Z</time></trkpt><trkpt lat="43.6739595" lon="12.0361111"><ele>454.0</ele><time>2026-04-05T12:48:54.98Z</time></trkpt><trkpt lat="43.6741672" lon="12.0361514"><ele>454.0</ele><time>2026-04-05T12:48:55.979Z</time></trkpt><trkpt lat="43.6743849" lon="12.0361812"><ele>454.0</ele><time>2026-04-05T12:48:56.98Z</time></trkpt><trkpt lat="43.6745935" lon="12.0362129"><ele>454.0</ele><time>2026-04-05T12:48:57.98Z</time></trkpt><trkpt lat="43.6748082" lon="12.0362443"><ele>453.0</ele><time>2026-04-05T12:48:58.979Z</time></trkpt><trkpt lat="43.6750162" lon="12.0362766"><ele>452.0</ele><time>2026-04-05T12:48:59.98Z</time></trkpt><trkpt lat="43.6752233" lon="12.0363051"><ele>451.0</ele><time>2026-04-05T12:49:00.979Z</time></trkpt><trkpt lat="43.6754309" lon="12.0363289"><ele>451.0</ele><time>2026-04-05T12:49:01.98Z</time></trkpt><trkpt lat="43.6756419" lon="12.0363657"><ele>451.0</ele><time>2026-04-05T12:49:02.98Z</time></trkpt><trkpt lat="43.675847" lon="12.0364099"><ele>451.0</ele><time>2026-04-05T12:49:03.98Z</time></trkpt><trkpt lat="43.6760542" lon="12.0364451"><ele>451.6666666666667</ele><time>2026-04-05T12:49:04.979Z</time></trkpt><trkpt lat="43.6762703" lon="12.0364833"><ele>452.33333333333337</ele><time>2026-04-05T12:49:05.979Z</time></trkpt><trkpt lat="43.6764759" lon="12.0365107"><ele>453.0</ele><time>2026-04-05T12:49:06.98Z</time></trkpt><trkpt lat="43.676683" lon="12.0365394"><ele>453.0</ele><time>2026-04-05T12:49:07.979Z</time></trkpt><trkpt lat="43.6768867" lon="12.0365647"><ele>453.0</ele><time>2026-04-05T12:49:08.98Z</time></trkpt><trkpt lat="43.6770924" lon="12.0365939"><ele>453.0</ele><time>2026-04-05T12:49:09.979Z</time></trkpt><trkpt lat="43.6772977" lon="12.0366202"><ele>452.66666666666663</ele><time>2026-04-05T12:49:10.98Z</time></trkpt><trkpt lat="43.6775015" lon="12.0366517"><ele>452.3333333333333</ele><time>2026-04-05T12:49:11.98Z</time></trkpt><trkpt lat="43.6777086" lon="12.0366614"><ele>452.0</ele><time>2026-04-05T12:49:12.979Z</time></trkpt><trkpt lat="43.677913" lon="12.0366714"><ele>452.0</ele><time>2026-04-05T12:49:13.979Z</time></trkpt><trkpt lat="43.6781182" lon="12.0366774"><ele>452.0</ele><time>2026-04-05T12:49:14.98Z</time></trkpt><trkpt lat="43.6783235" lon="12.036688"><ele>452.0</ele><time>2026-04-05T12:49:15.98Z</time></trkpt><trkpt lat="43.6785326" lon="12.0367028"><ele>451.66666666666663</ele><time>2026-04-05T12:49:16.98Z</time></trkpt><trkpt lat="43.6787354" lon="12.0367403"><ele>451.33333333333337</ele><time>2026-04-05T12:49:17.98Z</time></trkpt><trkpt lat="43.6789367" lon="12.0367855"><ele>451.0</ele><time>2026-04-05T12:49:18.979Z</time></trkpt><trkpt lat="43.6791373" lon="12.0368121"><ele>451.0</ele><time>2026-04-05T12:49:19.98Z</time></trkpt><trkpt lat="43.6793328" lon="12.0368294"><ele>451.0</ele><time>2026-04-05T12:49:20.979Z</time></trkpt><trkpt lat="43.6795167" lon="12.0368382"><ele>451.0</ele><time>2026-04-05T12:49:21.98Z</time></trkpt><trkpt lat="43.6797042" lon="12.0368404"><ele>450.0</ele><time>2026-04-05T12:49:22.98Z</time></trkpt><trkpt lat="43.6799013" lon="12.0368379"><ele>449.0</ele><time>2026-04-05T12:49:23.98Z</time></trkpt><trkpt lat="43.6801059" lon="12.0368442"><ele>448.0</ele><time>2026-04-05T12:49:24.98Z</time></trkpt><trkpt lat="43.6803141" lon="12.0368543"><ele>448.0</ele><time>2026-04-05T12:49:25.98Z</time></trkpt><trkpt lat="43.680522" lon="12.036883"><ele>448.0</ele><time>2026-04-05T12:49:26.98Z</time></trkpt><trkpt lat="43.6807339" lon="12.036924"><ele>448.0</ele><time>2026-04-05T12:49:27.98Z</time></trkpt><trkpt lat="43.6809394" lon="12.0369821"><ele>448.0</ele><time>2026-04-05T12:49:28.98Z</time></trkpt><trkpt lat="43.6811428" lon="12.0370552"><ele>448.0</ele><time>2026-04-05T12:49:29.979Z</time></trkpt><trkpt lat="43.6813553" lon="12.0371233"><ele>448.0</ele><time>2026-04-05T12:49:30.98Z</time></trkpt><trkpt lat="43.6815541" lon="12.0371956"><ele>448.0</ele><time>2026-04-05T12:49:31.979Z</time></trkpt><trkpt lat="43.6817632" lon="12.0372799"><ele>448.0</ele><time>2026-04-05T12:49:32.98Z</time></trkpt><trkpt lat="43.6819715" lon="12.0373506"><ele>448.0</ele><time>2026-04-05T12:49:33.98Z</time></trkpt><trkpt lat="43.6821746" lon="12.037428"><ele>448.0</ele><time>2026-04-05T12:49:34.98Z</time></trkpt><trkpt lat="43.6823818" lon="12.0375037"><ele>448.0</ele><time>2026-04-05T12:49:35.98Z</time></trkpt><trkpt lat="43.6825862" lon="12.0375801"><ele>448.0</ele><time>2026-04-05T12:49:36.979Z</time></trkpt><trkpt lat="43.6827897" lon="12.0376637"><ele>448.0</ele><time>2026-04-05T12:49:37.98Z</time></trkpt><trkpt lat="43.6829899" lon="12.0377543"><ele>448.0</ele><time>2026-04-05T12:49:38.979Z</time></trkpt><trkpt lat="43.6831894" lon="12.0378438"><ele>448.0</ele><time>2026-04-05T12:49:39.98Z</time></trkpt><trkpt lat="43.6833869" lon="12.0379366"><ele>448.0</ele><time>2026-04-05T12:49:40.98Z</time></trkpt><trkpt lat="43.6835832" lon="12.0380222"><ele>448.0</ele><time>2026-04-05T12:49:41.98Z</time></trkpt><trkpt lat="43.6837836" lon="12.0381111"><ele>448.0</ele><time>2026-04-05T12:49:42.98Z</time></trkpt><trkpt lat="43.6839799" lon="12.0381976"><ele>448.6666666666667</ele><time>2026-04-05T12:49:43.98Z</time></trkpt><trkpt lat="43.6841816" lon="12.0382719"><ele>449.33333333333337</ele><time>2026-04-05T12:49:44.979Z</time></trkpt><trkpt lat="43.6843852" lon="12.0383419"><ele>450.0</ele><time>2026-04-05T12:49:45.98Z</time></trkpt><trkpt lat="43.6845736" lon="12.0384412"><ele>451.0</ele><time>2026-04-05T12:49:46.98Z</time></trkpt><trkpt lat="43.684774" lon="12.038523"><ele>452.0</ele><time>2026-04-05T12:49:47.98Z</time></trkpt><trkpt lat="43.6849783" lon="12.0386081"><ele>453.0</ele><time>2026-04-05T12:49:48.979Z</time></trkpt><trkpt lat="43.6851848" lon="12.0386785"><ele>453.33333333333337</ele><time>2026-04-05T12:49:49.979Z</time></trkpt><trkpt lat="43.6853973" lon="12.0387368"><ele>453.6666666666667</ele><time>2026-04-05T12:49:50.98Z</time></trkpt><trkpt lat="43.6856081" lon="12.0387868"><ele>454.0</ele><time>2026-04-05T12:49:51.98Z</time></trkpt><trkpt lat="43.6858215" lon="12.0388214"><ele>454.0</ele><time>2026-04-05T12:49:52.979Z</time></trkpt><trkpt lat="43.6860362" lon="12.0388381"><ele>454.0</ele><time>2026-04-05T12:49:53.98Z</time></trkpt><trkpt lat="43.6862498" lon="12.0388385"><ele>454.0</ele><time>2026-04-05T12:49:54.979Z</time></trkpt><trkpt lat="43.6864631" lon="12.0388265"><ele>454.33333333333337</ele><time>2026-04-05T12:49:55.98Z</time></trkpt><trkpt lat="43.6866801" lon="12.0388008"><ele>454.66666666666663</ele><time>2026-04-05T12:49:56.98Z</time></trkpt><trkpt lat="43.6868957" lon="12.0387604"><ele>455.0</ele><time>2026-04-05T12:49:57.98Z</time></trkpt><trkpt lat="43.6871138" lon="12.0387062"><ele>458.0</ele><time>2026-04-05T12:49:58.98Z</time></trkpt><trkpt lat="43.6873259" lon="12.0386387"><ele>461.0</ele><time>2026-04-05T12:49:59.979Z</time></trkpt><trkpt lat="43.6875423" lon="12.0385617"><ele>464.0</ele><time>2026-04-05T12:50:00.98Z</time></trkpt><trkpt lat="43.6877495" lon="12.0384603"><ele>464.66666666666663</ele><time>2026-04-05T12:50:01.98Z</time></trkpt><trkpt lat="43.6879538" lon="12.0383467"><ele>465.33333333333337</ele><time>2026-04-05T12:50:02.98Z</time></trkpt><trkpt lat="43.6881563" lon="12.0382276"><ele>466.0</ele><time>2026-04-05T12:50:03.979Z</time></trkpt><trkpt lat="43.6883569" lon="12.0381031"><ele>476.0</ele><time>2026-04-05T12:50:04.979Z</time></trkpt><trkpt lat="43.6885539" lon="12.0379695"><ele>486.0</ele><time>2026-04-05T12:50:05.98Z</time></trkpt><trkpt lat="43.6891192" lon="12.0374164"><ele>486.66666666666663</ele><time>2026-04-05T12:50:08.98Z</time></trkpt><trkpt lat="43.6892747" lon="12.0372324"><ele>487.3333333333333</ele><time>2026-04-05T12:50:09.979Z</time></trkpt><trkpt lat="43.689449" lon="12.0370607"><ele>488.0</ele><time>2026-04-05T12:50:10.98Z</time></trkpt><trkpt lat="43.6896311" lon="12.0368912"><ele>488.0</ele><time>2026-04-05T12:50:11.979Z</time></trkpt><trkpt lat="43.6898101" lon="12.0367387"><ele>488.0</ele><time>2026-04-05T12:50:12.98Z</time></trkpt><trkpt lat="43.6900012" lon="12.0366012"><ele>488.0</ele><time>2026-04-05T12:50:13.979Z</time></trkpt><trkpt lat="43.6901959" lon="12.0364828"><ele>484.0</ele><time>2026-04-05T12:50:14.979Z</time></trkpt><trkpt lat="43.6903903" lon="12.0363832"><ele>480.0</ele><time>2026-04-05T12:50:15.98Z</time></trkpt><trkpt lat="43.6905958" lon="12.0362894"><ele>476.0</ele><time>2026-04-05T12:50:16.98Z</time></trkpt><trkpt lat="43.6908022" lon="12.0362035"><ele>476.0</ele><time>2026-04-05T12:50:17.98Z</time></trkpt><trkpt lat="43.6910172" lon="12.0361356"><ele>476.0</ele><time>2026-04-05T12:50:18.979Z</time></trkpt><trkpt lat="43.6912327" lon="12.036079"><ele>476.0</ele><time>2026-04-05T12:50:19.98Z</time></trkpt><trkpt lat="43.691448" lon="12.0360384"><ele>476.66666666666663</ele><time>2026-04-05T12:50:20.98Z</time></trkpt><trkpt lat="43.6916633" lon="12.0360139"><ele>477.33333333333337</ele><time>2026-04-05T12:50:21.98Z</time></trkpt><trkpt lat="43.6918795" lon="12.0360033"><ele>478.0</ele><time>2026-04-05T12:50:22.98Z</time></trkpt><trkpt lat="43.6920961" lon="12.0360078"><ele>480.6666666666667</ele><time>2026-04-05T12:50:23.98Z</time></trkpt><trkpt lat="43.6923109" lon="12.0360298"><ele>483.33333333333337</ele><time>2026-04-05T12:50:24.979Z</time></trkpt><trkpt lat="43.6925245" lon="12.0360579"><ele>486.0</ele><time>2026-04-05T12:50:25.979Z</time></trkpt><trkpt lat="43.6927342" lon="12.0361013"><ele>491.33333333333337</ele><time>2026-04-05T12:50:26.979Z</time></trkpt><trkpt lat="43.6929421" lon="12.036156"><ele>496.6666666666667</ele><time>2026-04-05T12:50:27.98Z</time></trkpt><trkpt lat="43.6931472" lon="12.0362119"><ele>502.0</ele><time>2026-04-05T12:50:28.98Z</time></trkpt><trkpt lat="43.6933545" lon="12.0362674"><ele>502.0</ele><time>2026-04-05T12:50:29.979Z</time></trkpt><trkpt lat="43.6935636" lon="12.0363265"><ele>502.0</ele><time>2026-04-05T12:50:30.98Z</time></trkpt><trkpt lat="43.6937785" lon="12.0363807"><ele>502.0</ele><time>2026-04-05T12:50:31.98Z</time></trkpt><trkpt lat="43.6939885" lon="12.0364159"><ele>499.33333333333337</ele><time>2026-04-05T12:50:32.98Z</time></trkpt><trkpt lat="43.6941969" lon="12.0364357"><ele>496.66666666666663</ele><time>2026-04-05T12:50:33.98Z</time></trkpt><trkpt lat="43.6944159" lon="12.0364498"><ele>494.0</ele><time>2026-04-05T12:50:34.979Z</time></trkpt><trkpt lat="43.6946315" lon="12.0364505"><ele>494.0</ele><time>2026-04-05T12:50:35.98Z</time></trkpt><trkpt lat="43.6948455" lon="12.0364474"><ele>494.0</ele><time>2026-04-05T12:50:36.98Z</time></trkpt><trkpt lat="43.6950719" lon="12.0364283"><ele>494.0</ele><time>2026-04-05T12:50:37.979Z</time></trkpt><trkpt lat="43.6952857" lon="12.036386"><ele>491.3333333333333</ele><time>2026-04-05T12:50:38.98Z</time></trkpt><trkpt lat="43.6955016" lon="12.0363317"><ele>488.66666666666663</ele><time>2026-04-05T12:50:39.98Z</time></trkpt><trkpt lat="43.6957146" lon="12.0362603"><ele>486.0</ele><time>2026-04-05T12:50:40.98Z</time></trkpt><trkpt lat="43.695926" lon="12.0361788"><ele>482.33333333333337</ele><time>2026-04-05T12:50:41.979Z</time></trkpt><trkpt lat="43.6961343" lon="12.0360865"><ele>478.6666666666667</ele><time>2026-04-05T12:50:42.98Z</time></trkpt><trkpt lat="43.6963455" lon="12.0359897"><ele>475.0</ele><time>2026-04-05T12:50:43.979Z</time></trkpt><trkpt lat="43.696549" lon="12.0358885"><ele>478.0</ele><time>2026-04-05T12:50:44.98Z</time></trkpt><trkpt lat="43.6967556" lon="12.0357883"><ele>481.0</ele><time>2026-04-05T12:50:45.979Z</time></trkpt><trkpt lat="43.6969622" lon="12.0356854"><ele>484.0</ele><time>2026-04-05T12:50:46.98Z</time></trkpt><trkpt lat="43.6971668" lon="12.0355926"><ele>484.0</ele><time>2026-04-05T12:50:47.979Z</time></trkpt><trkpt lat="43.6973718" lon="12.0355217"><ele>484.0</ele><time>2026-04-05T12:50:48.98Z</time></trkpt><trkpt lat="43.6975742" lon="12.0354567"><ele>484.0</ele><time>2026-04-05T12:50:49.98Z</time></trkpt><trkpt lat="43.6977802" lon="12.0353784"><ele>482.6666666666667</ele><time>2026-04-05T12:50:50.98Z</time></trkpt><trkpt lat="43.6979853" lon="12.0352872"><ele>481.33333333333337</ele><time>2026-04-05T12:50:51.98Z</time></trkpt><trkpt lat="43.6981969" lon="12.0351905"><ele>480.0</ele><time>2026-04-05T12:50:52.98Z</time></trkpt><trkpt lat="43.6984013" lon="12.0350844"><ele>481.0</ele><time>2026-04-05T12:50:53.98Z</time></trkpt><trkpt lat="43.6986047" lon="12.0349856"><ele>482.0</ele><time>2026-04-05T12:50:54.98Z</time></trkpt><trkpt lat="43.6988084" lon="12.0348865"><ele>483.0</ele><time>2026-04-05T12:50:55.979Z</time></trkpt><trkpt lat="43.6990118" lon="12.0347859"><ele>484.66666666666663</ele><time>2026-04-05T12:50:56.979Z</time></trkpt><trkpt lat="43.6992121" lon="12.0346849"><ele>486.3333333333333</ele><time>2026-04-05T12:50:57.979Z</time></trkpt><trkpt lat="43.6994142" lon="12.0345736"><ele>488.0</ele><time>2026-04-05T12:50:58.98Z</time></trkpt><trkpt lat="43.6996196" lon="12.0344497"><ele>488.0</ele><time>2026-04-05T12:50:59.979Z</time></trkpt><trkpt lat="43.6998118" lon="12.0343162"><ele>488.0</ele><time>2026-04-05T12:51:00.98Z</time></trkpt><trkpt lat="43.6999977" lon="12.0341652"><ele>488.0</ele><time>2026-04-05T12:51:01.98Z</time></trkpt><trkpt lat="43.700182" lon="12.0340041"><ele>490.3333333333333</ele><time>2026-04-05T12:51:02.98Z</time></trkpt><trkpt lat="43.7003595" lon="12.0338282"><ele>492.66666666666663</ele><time>2026-04-05T12:51:03.98Z</time></trkpt><trkpt lat="43.7005317" lon="12.03364"><ele>495.0</ele><time>2026-04-05T12:51:04.979Z</time></trkpt><trkpt lat="43.7007005" lon="12.0334405"><ele>494.66666666666663</ele><time>2026-04-05T12:51:05.979Z</time></trkpt><trkpt lat="43.7008623" lon="12.0332359"><ele>494.3333333333333</ele><time>2026-04-05T12:51:06.979Z</time></trkpt><trkpt lat="43.7010189" lon="12.0330227"><ele>494.0</ele><time>2026-04-05T12:51:07.979Z</time></trkpt><trkpt lat="43.701179" lon="12.0328156"><ele>495.0</ele><time>2026-04-05T12:51:08.98Z</time></trkpt><trkpt lat="43.7013275" lon="12.0325958"><ele>496.0</ele><time>2026-04-05T12:51:09.98Z</time></trkpt><trkpt lat="43.7014823" lon="12.0323881"><ele>497.0</ele><time>2026-04-05T12:51:10.98Z</time></trkpt><trkpt lat="43.7016398" lon="12.0321752"><ele>498.0</ele><time>2026-04-05T12:51:11.98Z</time></trkpt><trkpt lat="43.7017967" lon="12.0319677"><ele>499.0</ele><time>2026-04-05T12:51:12.98Z</time></trkpt><trkpt lat="43.7019565" lon="12.031758"><ele>500.0</ele><time>2026-04-05T12:51:13.98Z</time></trkpt><trkpt lat="43.7021159" lon="12.0315472"><ele>500.0</ele><time>2026-04-05T12:51:14.98Z</time></trkpt><trkpt lat="43.7022745" lon="12.0313358"><ele>500.0</ele><time>2026-04-05T12:51:15.98Z</time></trkpt><trkpt lat="43.7024323" lon="12.0311291"><ele>500.0</ele><time>2026-04-05T12:51:16.98Z</time></trkpt><trkpt lat="43.7025923" lon="12.0309296"><ele>499.66666666666663</ele><time>2026-04-05T12:51:17.98Z</time></trkpt><trkpt lat="43.7027473" lon="12.030715"><ele>499.33333333333337</ele><time>2026-04-05T12:51:18.98Z</time></trkpt><trkpt lat="43.7029085" lon="12.0305081"><ele>499.0</ele><time>2026-04-05T12:51:19.979Z</time></trkpt><trkpt lat="43.7030613" lon="12.0303004"><ele>499.0</ele><time>2026-04-05T12:51:20.98Z</time></trkpt><trkpt lat="43.70322" lon="12.0301004"><ele>499.0</ele><time>2026-04-05T12:51:21.979Z</time></trkpt><trkpt lat="43.7033868" lon="12.0299117"><ele>499.0</ele><time>2026-04-05T12:51:22.98Z</time></trkpt><trkpt lat="43.7035625" lon="12.0297314"><ele>496.33333333333337</ele><time>2026-04-05T12:51:23.98Z</time></trkpt><trkpt lat="43.7037421" lon="12.0295624"><ele>493.66666666666663</ele><time>2026-04-05T12:51:24.98Z</time></trkpt><trkpt lat="43.7039284" lon="12.0294023"><ele>491.0</ele><time>2026-04-05T12:51:25.98Z</time></trkpt><trkpt lat="43.7041203" lon="12.0292553"><ele>496.0</ele><time>2026-04-05T12:51:26.98Z</time></trkpt><trkpt lat="43.7043175" lon="12.0291203"><ele>501.0</ele><time>2026-04-05T12:51:27.98Z</time></trkpt><trkpt lat="43.704515" lon="12.0289965"><ele>506.0</ele><time>2026-04-05T12:51:28.98Z</time></trkpt><trkpt lat="43.7047181" lon="12.028891"><ele>506.0</ele><time>2026-04-05T12:51:29.98Z</time></trkpt><trkpt lat="43.7049209" lon="12.0287981"><ele>506.0</ele><time>2026-04-05T12:51:30.979Z</time></trkpt><trkpt lat="43.705127" lon="12.0287232"><ele>506.0</ele><time>2026-04-05T12:51:31.98Z</time></trkpt><trkpt lat="43.7053327" lon="12.0286542"><ele>508.3333333333333</ele><time>2026-04-05T12:51:32.98Z</time></trkpt><trkpt lat="43.7055407" lon="12.028599"><ele>510.66666666666663</ele><time>2026-04-05T12:51:33.98Z</time></trkpt><trkpt lat="43.7057444" lon="12.0285509"><ele>513.0</ele><time>2026-04-05T12:51:34.979Z</time></trkpt><trkpt lat="43.7059489" lon="12.0285224"><ele>514.3333333333334</ele><time>2026-04-05T12:51:35.98Z</time></trkpt><trkpt lat="43.7061561" lon="12.0285041"><ele>515.6666666666667</ele><time>2026-04-05T12:51:36.979Z</time></trkpt><trkpt lat="43.7063681" lon="12.0285029"><ele>517.0</ele><time>2026-04-05T12:51:37.98Z</time></trkpt><trkpt lat="43.706576" lon="12.0285103"><ele>517.0</ele><time>2026-04-05T12:51:38.98Z</time></trkpt><trkpt lat="43.706781" lon="12.028528"><ele>517.0</ele><time>2026-04-05T12:51:39.98Z</time></trkpt><trkpt lat="43.7069889" lon="12.0285503"><ele>517.0</ele><time>2026-04-05T12:51:40.979Z</time></trkpt><trkpt lat="43.7072052" lon="12.0285752"><ele>516.6666666666667</ele><time>2026-04-05T12:51:41.98Z</time></trkpt><trkpt lat="43.7074111" lon="12.0286014"><ele>516.3333333333334</ele><time>2026-04-05T12:51:42.98Z</time></trkpt><trkpt lat="43.7076172" lon="12.0286212"><ele>516.0</ele><time>2026-04-05T12:51:43.98Z</time></trkpt><trkpt lat="43.7078224" lon="12.0286432"><ele>515.6666666666666</ele><time>2026-04-05T12:51:44.98Z</time></trkpt><trkpt lat="43.7080241" lon="12.0286656"><ele>515.3333333333333</ele><time>2026-04-05T12:51:45.98Z</time></trkpt><trkpt lat="43.7082291" lon="12.0286876"><ele>515.0</ele><time>2026-04-05T12:51:46.979Z</time></trkpt><trkpt lat="43.708434" lon="12.0287116"><ele>514.0</ele><time>2026-04-05T12:51:47.979Z</time></trkpt><trkpt lat="43.7086341" lon="12.0287374"><ele>513.0</ele><time>2026-04-05T12:51:48.98Z</time></trkpt><trkpt lat="43.7088339" lon="12.0287635"><ele>512.0</ele><time>2026-04-05T12:51:49.979Z</time></trkpt><trkpt lat="43.7090355" lon="12.0287924"><ele>512.0</ele><time>2026-04-05T12:51:50.98Z</time></trkpt><trkpt lat="43.7092429" lon="12.0288194"><ele>512.0</ele><time>2026-04-05T12:51:51.98Z</time></trkpt><trkpt lat="43.70945" lon="12.0288423"><ele>512.0</ele><time>2026-04-05T12:51:52.98Z</time></trkpt><trkpt lat="43.7096604" lon="12.0288668"><ele>509.66666666666663</ele><time>2026-04-05T12:51:53.98Z</time></trkpt><trkpt lat="43.7098752" lon="12.0289028"><ele>507.33333333333337</ele><time>2026-04-05T12:51:54.98Z</time></trkpt><trkpt lat="43.7100936" lon="12.0289297"><ele>505.0</ele><time>2026-04-05T12:51:55.979Z</time></trkpt><trkpt lat="43.7103061" lon="12.0289577"><ele>504.33333333333337</ele><time>2026-04-05T12:51:56.979Z</time></trkpt><trkpt lat="43.7105201" lon="12.0289851"><ele>503.66666666666663</ele><time>2026-04-05T12:51:57.98Z</time></trkpt><trkpt lat="43.7107313" lon="12.0290124"><ele>503.0</ele><time>2026-04-05T12:51:58.98Z</time></trkpt><trkpt lat="43.7109437" lon="12.0290374"><ele>503.0</ele><time>2026-04-05T12:51:59.98Z</time></trkpt><trkpt lat="43.711159" lon="12.0290632"><ele>503.0</ele><time>2026-04-05T12:52:00.98Z</time></trkpt><trkpt lat="43.7113686" lon="12.0290885"><ele>503.0</ele><time>2026-04-05T12:52:01.98Z</time></trkpt><trkpt lat="43.7115771" lon="12.0291104"><ele>503.0</ele><time>2026-04-05T12:52:02.98Z</time></trkpt><trkpt lat="43.7117857" lon="12.0291384"><ele>503.0</ele><time>2026-04-05T12:52:03.98Z</time></trkpt><trkpt lat="43.7119953" lon="12.0291667"><ele>503.0</ele><time>2026-04-05T12:52:04.979Z</time></trkpt><trkpt lat="43.712207" lon="12.0291928"><ele>504.66666666666663</ele><time>2026-04-05T12:52:05.98Z</time></trkpt><trkpt lat="43.7124099" lon="12.0292198"><ele>506.33333333333337</ele><time>2026-04-05T12:52:06.98Z</time></trkpt><trkpt lat="43.7126235" lon="12.0292458"><ele>508.0</ele><time>2026-04-05T12:52:07.98Z</time></trkpt><trkpt lat="43.7128357" lon="12.0292732"><ele>508.0</ele><time>2026-04-05T12:52:08.98Z</time></trkpt><trkpt lat="43.7130479" lon="12.029301"><ele>508.0</ele><time>2026-04-05T12:52:09.98Z</time></trkpt><trkpt lat="43.7132606" lon="12.0293276"><ele>508.0</ele><time>2026-04-05T12:52:10.98Z</time></trkpt><trkpt lat="43.7134679" lon="12.0293575"><ele>508.0</ele><time>2026-04-05T12:52:11.98Z</time></trkpt><trkpt lat="43.713679" lon="12.0293783"><ele>508.0</ele><time>2026-04-05T12:52:12.98Z</time></trkpt><trkpt lat="43.7138923" lon="12.0294002"><ele>508.0</ele><time>2026-04-05T12:52:13.98Z</time></trkpt><trkpt lat="43.7141059" lon="12.0294292"><ele>508.0</ele><time>2026-04-05T12:52:14.98Z</time></trkpt><trkpt lat="43.7143212" lon="12.0294555"><ele>508.0</ele><time>2026-04-05T12:52:15.98Z</time></trkpt><trkpt lat="43.7145351" lon="12.029481"><ele>508.0</ele><time>2026-04-05T12:52:16.979Z</time></trkpt><trkpt lat="43.714746" lon="12.0295079"><ele>508.0</ele><time>2026-04-05T12:52:17.98Z</time></trkpt><trkpt lat="43.7149593" lon="12.0295355"><ele>508.0</ele><time>2026-04-05T12:52:18.98Z</time></trkpt><trkpt lat="43.7151751" lon="12.029565"><ele>508.0</ele><time>2026-04-05T12:52:19.98Z</time></trkpt><trkpt lat="43.7153866" lon="12.0295925"><ele>509.33333333333337</ele><time>2026-04-05T12:52:20.98Z</time></trkpt><trkpt lat="43.7156002" lon="12.0296245"><ele>510.66666666666663</ele><time>2026-04-05T12:52:21.98Z</time></trkpt><trkpt lat="43.715813" lon="12.0296631"><ele>512.0</ele><time>2026-04-05T12:52:22.979Z</time></trkpt><trkpt lat="43.7160252" lon="12.0297066"><ele>514.6666666666666</ele><time>2026-04-05T12:52:23.98Z</time></trkpt><trkpt lat="43.7162354" lon="12.0297523"><ele>517.3333333333334</ele><time>2026-04-05T12:52:24.979Z</time></trkpt><trkpt lat="43.7164389" lon="12.0297891"><ele>520.0</ele><time>2026-04-05T12:52:25.98Z</time></trkpt><trkpt lat="43.7166482" lon="12.0298361"><ele>520.0</ele><time>2026-04-05T12:52:26.98Z</time></trkpt><trkpt lat="43.716856" lon="12.0298829"><ele>520.0</ele><time>2026-04-05T12:52:27.98Z</time></trkpt><trkpt lat="43.717071" lon="12.02993"><ele>520.0</ele><time>2026-04-05T12:52:28.979Z</time></trkpt><trkpt lat="43.7172921" lon="12.0299768"><ele>518.6666666666667</ele><time>2026-04-05T12:52:29.98Z</time></trkpt><trkpt lat="43.7175032" lon="12.0300177"><ele>517.3333333333334</ele><time>2026-04-05T12:52:30.98Z</time></trkpt><trkpt lat="43.7177099" lon="12.0300638"><ele>516.0</ele><time>2026-04-05T12:52:31.98Z</time></trkpt><trkpt lat="43.7179225" lon="12.0301125"><ele>515.6666666666666</ele><time>2026-04-05T12:52:32.98Z</time></trkpt><trkpt lat="43.7181377" lon="12.0301598"><ele>515.3333333333333</ele><time>2026-04-05T12:52:33.979Z</time></trkpt><trkpt lat="43.7183547" lon="12.0302089"><ele>515.0</ele><time>2026-04-05T12:52:34.979Z</time></trkpt><trkpt lat="43.7185712" lon="12.030249"><ele>515.0</ele><time>2026-04-05T12:52:35.98Z</time></trkpt><trkpt lat="43.7187867" lon="12.0302932"><ele>515.0</ele><time>2026-04-05T12:52:36.98Z</time></trkpt><trkpt lat="43.7190023" lon="12.0303445"><ele>515.0</ele><time>2026-04-05T12:52:37.98Z</time></trkpt><trkpt lat="43.719222" lon="12.0303907"><ele>516.6666666666666</ele><time>2026-04-05T12:52:38.979Z</time></trkpt><trkpt lat="43.7194422" lon="12.0304408"><ele>518.3333333333334</ele><time>2026-04-05T12:52:39.979Z</time></trkpt><trkpt lat="43.7196586" lon="12.0304865"><ele>520.0</ele><time>2026-04-05T12:52:40.98Z</time></trkpt><trkpt lat="43.7198768" lon="12.0305326"><ele>520.0</ele><time>2026-04-05T12:52:41.98Z</time></trkpt><trkpt lat="43.7200896" lon="12.0305809"><ele>520.0</ele><time>2026-04-05T12:52:42.979Z</time></trkpt><trkpt lat="43.7203049" lon="12.0306299"><ele>520.0</ele><time>2026-04-05T12:52:43.979Z</time></trkpt><trkpt lat="43.7205215" lon="12.0306774"><ele>520.6666666666667</ele><time>2026-04-05T12:52:44.98Z</time></trkpt><trkpt lat="43.7207388" lon="12.0307241"><ele>521.3333333333334</ele><time>2026-04-05T12:52:45.979Z</time></trkpt><trkpt lat="43.720954" lon="12.0307689"><ele>522.0</ele><time>2026-04-05T12:52:46.979Z</time></trkpt><trkpt lat="43.721174" lon="12.0308087"><ele>522.0</ele><time>2026-04-05T12:52:47.98Z</time></trkpt><trkpt lat="43.7213872" lon="12.0308556"><ele>522.0</ele><time>2026-04-05T12:52:48.98Z</time></trkpt><trkpt lat="43.7216048" lon="12.0309037"><ele>522.0</ele><time>2026-04-05T12:52:49.98Z</time></trkpt><trkpt lat="43.7218226" lon="12.0309466"><ele>522.6666666666666</ele><time>2026-04-05T12:52:50.98Z</time></trkpt><trkpt lat="43.7220425" lon="12.0309937"><ele>523.3333333333333</ele><time>2026-04-05T12:52:51.979Z</time></trkpt><trkpt lat="43.7222639" lon="12.0310433"><ele>524.0</ele><time>2026-04-05T12:52:52.98Z</time></trkpt><trkpt lat="43.7224841" lon="12.0310895"><ele>524.0</ele><time>2026-04-05T12:52:53.979Z</time></trkpt><trkpt lat="43.7227047" lon="12.0311403"><ele>524.0</ele><time>2026-04-05T12:52:54.98Z</time></trkpt><trkpt lat="43.7229224" lon="12.0311825"><ele>524.0</ele><time>2026-04-05T12:52:55.98Z</time></trkpt><trkpt lat="43.723145" lon="12.0312202"><ele>525.0</ele><time>2026-04-05T12:52:56.979Z</time></trkpt><trkpt lat="43.7233692" lon="12.0312578"><ele>526.0</ele><time>2026-04-05T12:52:57.98Z</time></trkpt><trkpt lat="43.7235864" lon="12.0312799"><ele>527.0</ele><time>2026-04-05T12:52:58.979Z</time></trkpt><trkpt lat="43.7238071" lon="12.0312924"><ele>528.3333333333333</ele><time>2026-04-05T12:52:59.98Z</time></trkpt><trkpt lat="43.7240252" lon="12.0312904"><ele>529.6666666666666</ele><time>2026-04-05T12:53:00.98Z</time></trkpt><trkpt lat="43.7242441" lon="12.0312701"><ele>531.0</ele><time>2026-04-05T12:53:01.98Z</time></trkpt><trkpt lat="43.724468" lon="12.0312326"><ele>532.3333333333334</ele><time>2026-04-05T12:53:02.98Z</time></trkpt><trkpt lat="43.7246858" lon="12.0311883"><ele>533.6666666666667</ele><time>2026-04-05T12:53:03.979Z</time></trkpt><trkpt lat="43.7249042" lon="12.031127"><ele>535.0</ele><time>2026-04-05T12:53:04.98Z</time></trkpt><trkpt lat="43.7251217" lon="12.0310632"><ele>538.3333333333334</ele><time>2026-04-05T12:53:05.98Z</time></trkpt><trkpt lat="43.7253333" lon="12.0309918"><ele>541.6666666666666</ele><time>2026-04-05T12:53:06.979Z</time></trkpt><trkpt lat="43.7255434" lon="12.0309069"><ele>545.0</ele><time>2026-04-05T12:53:07.979Z</time></trkpt><trkpt lat="43.7257434" lon="12.0308093"><ele>545.6666666666666</ele><time>2026-04-05T12:53:08.979Z</time></trkpt><trkpt lat="43.7259463" lon="12.030698"><ele>546.3333333333334</ele><time>2026-04-05T12:53:09.98Z</time></trkpt><trkpt lat="43.7261408" lon="12.0305798"><ele>547.0</ele><time>2026-04-05T12:53:10.979Z</time></trkpt><trkpt lat="43.7263332" lon="12.0304535"><ele>547.0</ele><time>2026-04-05T12:53:11.979Z</time></trkpt><trkpt lat="43.726527" lon="12.0303165"><ele>547.0</ele><time>2026-04-05T12:53:12.98Z</time></trkpt><trkpt lat="43.7267175" lon="12.0301717"><ele>547.0</ele><time>2026-04-05T12:53:13.979Z</time></trkpt><trkpt lat="43.7269066" lon="12.0300177"><ele>546.3333333333334</ele><time>2026-04-05T12:53:14.979Z</time></trkpt><trkpt lat="43.7270978" lon="12.0298566"><ele>545.6666666666666</ele><time>2026-04-05T12:53:15.98Z</time></trkpt><trkpt lat="43.7272887" lon="12.0296995"><ele>545.0</ele><time>2026-04-05T12:53:16.98Z</time></trkpt><trkpt lat="43.7274783" lon="12.0295382"><ele>545.0</ele><time>2026-04-05T12:53:17.98Z</time></trkpt><trkpt lat="43.7276776" lon="12.0293853"><ele>545.0</ele><time>2026-04-05T12:53:18.98Z</time></trkpt><trkpt lat="43.7278712" lon="12.0292257"><ele>544.0</ele><time>2026-04-05T12:53:19.98Z</time></trkpt><trkpt lat="43.7280627" lon="12.0290675"><ele>543.0</ele><time>2026-04-05T12:53:20.98Z</time></trkpt><trkpt lat="43.7282546" lon="12.0289066"><ele>542.0</ele><time>2026-04-05T12:53:21.98Z</time></trkpt><trkpt lat="43.7284494" lon="12.0287493"><ele>543.3333333333333</ele><time>2026-04-05T12:53:22.98Z</time></trkpt><trkpt lat="43.7286419" lon="12.0285922"><ele>544.6666666666666</ele><time>2026-04-05T12:53:23.98Z</time></trkpt><trkpt lat="43.7288363" lon="12.0284335"><ele>546.0</ele><time>2026-04-05T12:53:24.98Z</time></trkpt><trkpt lat="43.7290327" lon="12.0282815"><ele>546.0</ele><time>2026-04-05T12:53:25.98Z</time></trkpt><trkpt lat="43.7292207" lon="12.0281272"><ele>546.0</ele><time>2026-04-05T12:53:26.979Z</time></trkpt><trkpt lat="43.7294081" lon="12.0279808"><ele>546.0</ele><time>2026-04-05T12:53:27.98Z</time></trkpt><trkpt lat="43.7296008" lon="12.0278391"><ele>546.0</ele><time>2026-04-05T12:53:28.98Z</time></trkpt><trkpt lat="43.729795" lon="12.0277033"><ele>546.0</ele><time>2026-04-05T12:53:29.98Z</time></trkpt><trkpt lat="43.7299904" lon="12.0275792"><ele>546.0</ele><time>2026-04-05T12:53:30.98Z</time></trkpt><trkpt lat="43.7301898" lon="12.0274566"><ele>550.3333333333334</ele><time>2026-04-05T12:53:31.979Z</time></trkpt><trkpt lat="43.7303925" lon="12.0273656"><ele>554.6666666666667</ele><time>2026-04-05T12:53:32.98Z</time></trkpt><trkpt lat="43.7305942" lon="12.0272705"><ele>559.0</ele><time>2026-04-05T12:53:33.979Z</time></trkpt><trkpt lat="43.7308066" lon="12.0271841"><ele>559.0</ele><time>2026-04-05T12:53:34.98Z</time></trkpt><trkpt lat="43.7310205" lon="12.0271081"><ele>559.0</ele><time>2026-04-05T12:53:35.98Z</time></trkpt><trkpt lat="43.7312346" lon="12.0270459"><ele>559.0</ele><time>2026-04-05T12:53:36.979Z</time></trkpt><trkpt lat="43.7314559" lon="12.0269943"><ele>558.6666666666667</ele><time>2026-04-05T12:53:37.98Z</time></trkpt><trkpt lat="43.7316754" lon="12.0269494"><ele>558.3333333333334</ele><time>2026-04-05T12:53:38.98Z</time></trkpt><trkpt lat="43.7319004" lon="12.0269201"><ele>558.0</ele><time>2026-04-05T12:53:39.98Z</time></trkpt><trkpt lat="43.7321228" lon="12.0269006"><ele>551.0</ele><time>2026-04-05T12:53:40.979Z</time></trkpt><trkpt lat="43.7323529" lon="12.026896"><ele>544.0</ele><time>2026-04-05T12:53:41.98Z</time></trkpt><trkpt lat="43.7325841" lon="12.0268991"><ele>543.5</ele><time>2026-04-05T12:53:42.98Z</time></trkpt><trkpt lat="43.7328142" lon="12.0269199"><ele>543.0</ele><time>2026-04-05T12:53:43.98Z</time></trkpt><trkpt lat="43.7330419" lon="12.0269529"><ele>543.0</ele><time>2026-04-05T12:53:44.98Z</time></trkpt><trkpt lat="43.7332686" lon="12.0269937"><ele>543.0</ele><time>2026-04-05T12:53:45.98Z</time></trkpt><trkpt lat="43.7334987" lon="12.0270414"><ele>543.5</ele><time>2026-04-05T12:53:46.979Z</time></trkpt><trkpt lat="43.7337258" lon="12.0271053"><ele>544.0</ele><time>2026-04-05T12:53:47.979Z</time></trkpt><trkpt lat="43.7339495" lon="12.0271812"><ele>544.0</ele><time>2026-04-05T12:53:48.98Z</time></trkpt><trkpt lat="43.7341725" lon="12.0272737"><ele>544.0</ele><time>2026-04-05T12:53:49.98Z</time></trkpt><trkpt lat="43.7343901" lon="12.0273794"><ele>546.0</ele><time>2026-04-05T12:53:50.979Z</time></trkpt><trkpt lat="43.734602" lon="12.0274905"><ele>548.0</ele><time>2026-04-05T12:53:51.98Z</time></trkpt><trkpt lat="43.7348071" lon="12.027605"><ele>550.0</ele><time>2026-04-05T12:53:52.979Z</time></trkpt><trkpt lat="43.7350005" lon="12.0277215"><ele>550.0</ele><time>2026-04-05T12:53:53.98Z</time></trkpt><trkpt lat="43.7351817" lon="12.0278286"><ele>550.0</ele><time>2026-04-05T12:53:54.98Z</time></trkpt><trkpt lat="43.7353621" lon="12.0279359"><ele>550.0</ele><time>2026-04-05T12:53:55.98Z</time></trkpt><trkpt lat="43.7355364" lon="12.028041"><ele>557.3333333333334</ele><time>2026-04-05T12:53:56.979Z</time></trkpt><trkpt lat="43.7357104" lon="12.0281336"><ele>564.6666666666666</ele><time>2026-04-05T12:53:57.979Z</time></trkpt><trkpt lat="43.7358778" lon="12.0282169"><ele>572.0</ele><time>2026-04-05T12:53:58.979Z</time></trkpt><trkpt lat="43.7360315" lon="12.0283096"><ele>573.6666666666666</ele><time>2026-04-05T12:53:59.98Z</time></trkpt><trkpt lat="43.7361931" lon="12.0283969"><ele>575.3333333333334</ele><time>2026-04-05T12:54:00.98Z</time></trkpt><trkpt lat="43.7363512" lon="12.0284874"><ele>577.0</ele><time>2026-04-05T12:54:01.979Z</time></trkpt><trkpt lat="43.7365069" lon="12.0285745"><ele>577.0</ele><time>2026-04-05T12:54:02.98Z</time></trkpt><trkpt lat="43.7366556" lon="12.0286603"><ele>577.0</ele><time>2026-04-05T12:54:03.979Z</time></trkpt><trkpt lat="43.7367945" lon="12.0287469"><ele>577.0</ele><time>2026-04-05T12:54:04.98Z</time></trkpt><trkpt lat="43.7369465" lon="12.0288297"><ele>571.6666666666667</ele><time>2026-04-05T12:54:05.98Z</time></trkpt><trkpt lat="43.7370901" lon="12.0289188"><ele>566.3333333333334</ele><time>2026-04-05T12:54:06.98Z</time></trkpt><trkpt lat="43.7372367" lon="12.0290067"><ele>561.0</ele><time>2026-04-05T12:54:07.979Z</time></trkpt><trkpt lat="43.7373842" lon="12.0290985"><ele>563.3333333333334</ele><time>2026-04-05T12:54:08.979Z</time></trkpt><trkpt lat="43.7375366" lon="12.0291923"><ele>565.6666666666667</ele><time>2026-04-05T12:54:09.979Z</time></trkpt><trkpt lat="43.737689" lon="12.0292822"><ele>568.0</ele><time>2026-04-05T12:54:10.98Z</time></trkpt><trkpt lat="43.7378396" lon="12.0293725"><ele>571.3333333333334</ele><time>2026-04-05T12:54:11.98Z</time></trkpt><trkpt lat="43.7379884" lon="12.0294562"><ele>574.6666666666666</ele><time>2026-04-05T12:54:12.98Z</time></trkpt><trkpt lat="43.7381386" lon="12.0295454"><ele>578.0</ele><time>2026-04-05T12:54:13.98Z</time></trkpt><trkpt lat="43.7382918" lon="12.0296296"><ele>578.0</ele><time>2026-04-05T12:54:14.978Z</time></trkpt><trkpt lat="43.7384407" lon="12.0297144"><ele>578.0</ele><time>2026-04-05T12:54:15.98Z</time></trkpt><trkpt lat="43.7385893" lon="12.0297967"><ele>578.0</ele><time>2026-04-05T12:54:16.979Z</time></trkpt><trkpt lat="43.7387364" lon="12.0298857"><ele>584.6666666666666</ele><time>2026-04-05T12:54:17.979Z</time></trkpt><trkpt lat="43.7388819" lon="12.0299744"><ele>591.3333333333334</ele><time>2026-04-05T12:54:18.98Z</time></trkpt><trkpt lat="43.7390296" lon="12.0300658"><ele>598.0</ele><time>2026-04-05T12:54:19.98Z</time></trkpt><trkpt lat="43.7391822" lon="12.030152"><ele>598.0</ele><time>2026-04-05T12:54:20.98Z</time></trkpt><trkpt lat="43.7393293" lon="12.030236"><ele>598.0</ele><time>2026-04-05T12:54:21.98Z</time></trkpt><trkpt lat="43.7394787" lon="12.0303252"><ele>598.0</ele><time>2026-04-05T12:54:22.98Z</time></trkpt><trkpt lat="43.7396315" lon="12.0304254"><ele>604.6666666666667</ele><time>2026-04-05T12:54:23.98Z</time></trkpt><trkpt lat="43.739786" lon="12.0305184"><ele>611.3333333333334</ele><time>2026-04-05T12:54:24.98Z</time></trkpt><trkpt lat="43.7399415" lon="12.030606"><ele>618.0</ele><time>2026-04-05T12:54:25.98Z</time></trkpt><trkpt lat="43.740103" lon="12.0306886"><ele>616.6666666666666</ele><time>2026-04-05T12:54:26.979Z</time></trkpt><trkpt lat="43.740267" lon="12.030776"><ele>615.3333333333333</ele><time>2026-04-05T12:54:27.979Z</time></trkpt><trkpt lat="43.7404386" lon="12.0308513"><ele>614.0</ele><time>2026-04-05T12:54:28.979Z</time></trkpt><trkpt lat="43.7406097" lon="12.0309394"><ele>614.0</ele><time>2026-04-05T12:54:29.979Z</time></trkpt><trkpt lat="43.7407821" lon="12.0310178"><ele>614.0</ele><time>2026-04-05T12:54:30.98Z</time></trkpt><trkpt lat="43.7409549" lon="12.0310846"><ele>614.0</ele><time>2026-04-05T12:54:31.98Z</time></trkpt><trkpt lat="43.7411283" lon="12.0311441"><ele>621.3333333333333</ele><time>2026-04-05T12:54:32.98Z</time></trkpt><trkpt lat="43.741305" lon="12.0312041"><ele>628.6666666666666</ele><time>2026-04-05T12:54:33.979Z</time></trkpt><trkpt lat="43.7414757" lon="12.0312625"><ele>636.0</ele><time>2026-04-05T12:54:34.98Z</time></trkpt><trkpt lat="43.7416546" lon="12.0313264"><ele>636.0</ele><time>2026-04-05T12:54:35.98Z</time></trkpt><trkpt lat="43.7418285" lon="12.0313864"><ele>636.0</ele><time>2026-04-05T12:54:36.979Z</time></trkpt><trkpt lat="43.7419987" lon="12.0314475"><ele>636.0</ele><time>2026-04-05T12:54:37.979Z</time></trkpt><trkpt lat="43.7421655" lon="12.0315081"><ele>635.3333333333334</ele><time>2026-04-05T12:54:38.98Z</time></trkpt><trkpt lat="43.7423331" lon="12.0315594"><ele>634.6666666666667</ele><time>2026-04-05T12:54:39.98Z</time></trkpt><trkpt lat="43.7425006" lon="12.0316137"><ele>634.0</ele><time>2026-04-05T12:54:40.979Z</time></trkpt><trkpt lat="43.7426711" lon="12.0316731"><ele>615.0</ele><time>2026-04-05T12:54:41.98Z</time></trkpt><trkpt lat="43.7428446" lon="12.0317343"><ele>596.0</ele><time>2026-04-05T12:54:42.98Z</time></trkpt><trkpt lat="43.7430137" lon="12.0318007"><ele>577.0</ele><time>2026-04-05T12:54:43.979Z</time></trkpt><trkpt lat="43.7431853" lon="12.0318578"><ele>577.0</ele><time>2026-04-05T12:54:44.98Z</time></trkpt><trkpt lat="43.7433612" lon="12.0319202"><ele>577.0</ele><time>2026-04-05T12:54:45.979Z</time></trkpt><trkpt lat="43.7435359" lon="12.0319819"><ele>577.0</ele><time>2026-04-05T12:54:46.979Z</time></trkpt><trkpt lat="43.7437123" lon="12.0320473"><ele>578.6666666666667</ele><time>2026-04-05T12:54:47.98Z</time></trkpt><trkpt lat="43.7438904" lon="12.032108"><ele>580.3333333333334</ele><time>2026-04-05T12:54:48.98Z</time></trkpt><trkpt lat="43.7440768" lon="12.0321684"><ele>582.0</ele><time>2026-04-05T12:54:49.98Z</time></trkpt><trkpt lat="43.7442603" lon="12.0322296"><ele>583.3333333333334</ele><time>2026-04-05T12:54:50.979Z</time></trkpt><trkpt lat="43.7444436" lon="12.0322876"><ele>584.6666666666667</ele><time>2026-04-05T12:54:51.98Z</time></trkpt><trkpt lat="43.7446265" lon="12.0323514"><ele>586.0</ele><time>2026-04-05T12:54:52.979Z</time></trkpt><trkpt lat="43.7448062" lon="12.0324143"><ele>587.6666666666667</ele><time>2026-04-05T12:54:53.979Z</time></trkpt><trkpt lat="43.7449904" lon="12.0324782"><ele>589.3333333333334</ele><time>2026-04-05T12:54:54.98Z</time></trkpt><trkpt lat="43.7451709" lon="12.0325428"><ele>591.0</ele><time>2026-04-05T12:54:55.979Z</time></trkpt><trkpt lat="43.7453504" lon="12.0325988"><ele>592.0</ele><time>2026-04-05T12:54:56.979Z</time></trkpt><trkpt lat="43.745535" lon="12.0326591"><ele>593.0</ele><time>2026-04-05T12:54:57.98Z</time></trkpt><trkpt lat="43.7457165" lon="12.032724"><ele>594.0</ele><time>2026-04-05T12:54:58.98Z</time></trkpt><trkpt lat="43.7458974" lon="12.0327878"><ele>593.6666666666666</ele><time>2026-04-05T12:54:59.98Z</time></trkpt><trkpt lat="43.7460744" lon="12.0328552"><ele>593.3333333333333</ele><time>2026-04-05T12:55:00.98Z</time></trkpt><trkpt lat="43.7462485" lon="12.0329228"><ele>593.0</ele><time>2026-04-05T12:55:01.98Z</time></trkpt><trkpt lat="43.7464265" lon="12.0329941"><ele>593.0</ele><time>2026-04-05T12:55:02.979Z</time></trkpt><trkpt lat="43.7466024" lon="12.0330623"><ele>593.0</ele><time>2026-04-05T12:55:03.979Z</time></trkpt><trkpt lat="43.7467772" lon="12.0331407"><ele>593.0</ele><time>2026-04-05T12:55:04.979Z</time></trkpt><trkpt lat="43.7469521" lon="12.0332188"><ele>592.6666666666666</ele><time>2026-04-05T12:55:05.98Z</time></trkpt><trkpt lat="43.7471245" lon="12.0333041"><ele>592.3333333333334</ele><time>2026-04-05T12:55:06.98Z</time></trkpt><trkpt lat="43.747295" lon="12.0333932"><ele>592.0</ele><time>2026-04-05T12:55:07.98Z</time></trkpt><trkpt lat="43.7474627" lon="12.0334901"><ele>595.3333333333334</ele><time>2026-04-05T12:55:08.98Z</time></trkpt><trkpt lat="43.7476326" lon="12.0335859"><ele>598.6666666666666</ele><time>2026-04-05T12:55:09.979Z</time></trkpt><trkpt lat="43.7478011" lon="12.0336894"><ele>602.0</ele><time>2026-04-05T12:55:10.98Z</time></trkpt><trkpt lat="43.747969" lon="12.0337972"><ele>602.0</ele><time>2026-04-05T12:55:11.98Z</time></trkpt><trkpt lat="43.7481344" lon="12.033911"><ele>602.0</ele><time>2026-04-05T12:55:12.98Z</time></trkpt><trkpt lat="43.748298" lon="12.0340182"><ele>602.0</ele><time>2026-04-05T12:55:13.98Z</time></trkpt><trkpt lat="43.7484628" lon="12.0341322"><ele>601.3333333333333</ele><time>2026-04-05T12:55:14.98Z</time></trkpt><trkpt lat="43.7486238" lon="12.0342434"><ele>600.6666666666666</ele><time>2026-04-05T12:55:15.979Z</time></trkpt><trkpt lat="43.7487777" lon="12.0343545"><ele>600.0</ele><time>2026-04-05T12:55:16.98Z</time></trkpt><trkpt lat="43.74892" lon="12.0344556"><ele>600.0</ele><time>2026-04-05T12:55:17.98Z</time></trkpt><trkpt lat="43.7490548" lon="12.0345499"><ele>600.0</ele><time>2026-04-05T12:55:18.979Z</time></trkpt><trkpt lat="43.7491923" lon="12.034645"><ele>600.0</ele><time>2026-04-05T12:55:19.98Z</time></trkpt><trkpt lat="43.7493301" lon="12.0347435"><ele>603.3333333333334</ele><time>2026-04-05T12:55:20.98Z</time></trkpt><trkpt lat="43.7494629" lon="12.0348425"><ele>606.6666666666667</ele><time>2026-04-05T12:55:21.98Z</time></trkpt><trkpt lat="43.7496007" lon="12.0349376"><ele>610.0</ele><time>2026-04-05T12:55:22.979Z</time></trkpt><trkpt lat="43.7497443" lon="12.0350359"><ele>610.0</ele><time>2026-04-05T12:55:23.98Z</time></trkpt><trkpt lat="43.7498989" lon="12.0351372"><ele>610.0</ele><time>2026-04-05T12:55:24.98Z</time></trkpt><trkpt lat="43.7500511" lon="12.0352302"><ele>610.0</ele><time>2026-04-05T12:55:25.98Z</time></trkpt><trkpt lat="43.7502035" lon="12.0353236"><ele>609.6666666666667</ele><time>2026-04-05T12:55:26.98Z</time></trkpt><trkpt lat="43.7503601" lon="12.035416"><ele>609.3333333333334</ele><time>2026-04-05T12:55:27.98Z</time></trkpt><trkpt lat="43.7505175" lon="12.0355092"><ele>609.0</ele><time>2026-04-05T12:55:28.98Z</time></trkpt><trkpt lat="43.7506776" lon="12.0356051"><ele>609.0</ele><time>2026-04-05T12:55:29.98Z</time></trkpt><trkpt lat="43.7508431" lon="12.0356986"><ele>609.0</ele><time>2026-04-05T12:55:30.979Z</time></trkpt><trkpt lat="43.751007" lon="12.0357919"><ele>609.0</ele><time>2026-04-05T12:55:31.98Z</time></trkpt><trkpt lat="43.7511724" lon="12.0358819"><ele>610.3333333333334</ele><time>2026-04-05T12:55:32.98Z</time></trkpt><trkpt lat="43.7513396" lon="12.0359613"><ele>611.6666666666667</ele><time>2026-04-05T12:55:33.98Z</time></trkpt><trkpt lat="43.7515098" lon="12.0360429"><ele>613.0</ele><time>2026-04-05T12:55:34.98Z</time></trkpt><trkpt lat="43.7516798" lon="12.036126"><ele>613.0</ele><time>2026-04-05T12:55:35.979Z</time></trkpt><trkpt lat="43.7518514" lon="12.0362073"><ele>613.0</ele><time>2026-04-05T12:55:36.98Z</time></trkpt><trkpt lat="43.7520211" lon="12.036286"><ele>613.0</ele><time>2026-04-05T12:55:37.98Z</time></trkpt><trkpt lat="43.7521949" lon="12.0363608"><ele>611.6666666666667</ele><time>2026-04-05T12:55:38.98Z</time></trkpt><trkpt lat="43.7523715" lon="12.0364319"><ele>610.3333333333334</ele><time>2026-04-05T12:55:39.98Z</time></trkpt><trkpt lat="43.7525448" lon="12.0365014"><ele>609.0</ele><time>2026-04-05T12:55:40.98Z</time></trkpt><trkpt lat="43.7527205" lon="12.0365733"><ele>614.0</ele><time>2026-04-05T12:55:41.98Z</time></trkpt><trkpt lat="43.7528954" lon="12.0366464"><ele>619.0</ele><time>2026-04-05T12:55:42.979Z</time></trkpt><trkpt lat="43.7530754" lon="12.0367101"><ele>624.0</ele><time>2026-04-05T12:55:43.98Z</time></trkpt><trkpt lat="43.7532513" lon="12.0367687"><ele>624.0</ele><time>2026-04-05T12:55:44.98Z</time></trkpt><trkpt lat="43.7534292" lon="12.0368271"><ele>624.0</ele><time>2026-04-05T12:55:45.98Z</time></trkpt><trkpt lat="43.7536231" lon="12.0368856"><ele>624.0</ele><time>2026-04-05T12:55:46.98Z</time></trkpt><trkpt lat="43.7538069" lon="12.0369432"><ele>626.3333333333334</ele><time>2026-04-05T12:55:47.98Z</time></trkpt><trkpt lat="43.7539925" lon="12.0369971"><ele>628.6666666666667</ele><time>2026-04-05T12:55:48.98Z</time></trkpt><trkpt lat="43.7541756" lon="12.0370486"><ele>631.0</ele><time>2026-04-05T12:55:49.98Z</time></trkpt><trkpt lat="43.7543562" lon="12.0370987"><ele>643.6666666666667</ele><time>2026-04-05T12:55:50.979Z</time></trkpt><trkpt lat="43.7545378" lon="12.0371476"><ele>656.3333333333334</ele><time>2026-04-05T12:55:51.98Z</time></trkpt><trkpt lat="43.7547177" lon="12.037199"><ele>669.0</ele><time>2026-04-05T12:55:52.979Z</time></trkpt><trkpt lat="43.7548958" lon="12.0372488"><ele>669.0</ele><time>2026-04-05T12:55:53.98Z</time></trkpt><trkpt lat="43.7550727" lon="12.0372976"><ele>669.0</ele><time>2026-04-05T12:55:54.98Z</time></trkpt><trkpt lat="43.7552495" lon="12.0373488"><ele>669.0</ele><time>2026-04-05T12:55:55.978Z</time></trkpt><trkpt lat="43.7554298" lon="12.0373977"><ele>671.3333333333334</ele><time>2026-04-05T12:55:56.979Z</time></trkpt><trkpt lat="43.7556333" lon="12.0374295"><ele>673.6666666666667</ele><time>2026-04-05T12:55:57.979Z</time></trkpt><trkpt lat="43.7558145" lon="12.0374762"><ele>676.0</ele><time>2026-04-05T12:55:58.979Z</time></trkpt><trkpt lat="43.7559949" lon="12.0375239"><ele>671.6666666666667</ele><time>2026-04-05T12:55:59.98Z</time></trkpt><trkpt lat="43.7561741" lon="12.037575"><ele>667.3333333333334</ele><time>2026-04-05T12:56:00.979Z</time></trkpt><trkpt lat="43.7563519" lon="12.0376276"><ele>663.0</ele><time>2026-04-05T12:56:01.98Z</time></trkpt><trkpt lat="43.7565298" lon="12.0376733"><ele>663.0</ele><time>2026-04-05T12:56:02.98Z</time></trkpt><trkpt lat="43.7567079" lon="12.0377156"><ele>663.0</ele><time>2026-04-05T12:56:03.98Z</time></trkpt><trkpt lat="43.756883" lon="12.0377628"><ele>663.0</ele><time>2026-04-05T12:56:04.979Z</time></trkpt><trkpt lat="43.7570585" lon="12.0378099"><ele>662.6666666666666</ele><time>2026-04-05T12:56:05.98Z</time></trkpt><trkpt lat="43.7572326" lon="12.0378538"><ele>662.3333333333333</ele><time>2026-04-05T12:56:06.98Z</time></trkpt><trkpt lat="43.7574021" lon="12.0379039"><ele>662.0</ele><time>2026-04-05T12:56:07.98Z</time></trkpt><trkpt lat="43.7575731" lon="12.037942"><ele>670.0</ele><time>2026-04-05T12:56:08.98Z</time></trkpt><trkpt lat="43.7577477" lon="12.0380006"><ele>678.0</ele><time>2026-04-05T12:56:09.98Z</time></trkpt><trkpt lat="43.7579333" lon="12.038047"><ele>686.0</ele><time>2026-04-05T12:56:10.98Z</time></trkpt><trkpt lat="43.7580989" lon="12.0380946"><ele>686.0</ele><time>2026-04-05T12:56:11.98Z</time></trkpt><trkpt lat="43.7582728" lon="12.0381418"><ele>686.0</ele><time>2026-04-05T12:56:12.98Z</time></trkpt><trkpt lat="43.7584319" lon="12.0381876"><ele>686.0</ele><time>2026-04-05T12:56:13.979Z</time></trkpt><trkpt lat="43.7586045" lon="12.0382256"><ele>691.0</ele><time>2026-04-05T12:56:14.98Z</time></trkpt><trkpt lat="43.7587725" lon="12.0382714"><ele>696.0</ele><time>2026-04-05T12:56:15.979Z</time></trkpt><trkpt lat="43.7589457" lon="12.0383217"><ele>701.0</ele><time>2026-04-05T12:56:16.98Z</time></trkpt><trkpt lat="43.7591189" lon="12.0383661"><ele>701.0</ele><time>2026-04-05T12:56:17.98Z</time></trkpt><trkpt lat="43.7592952" lon="12.0384144"><ele>701.0</ele><time>2026-04-05T12:56:18.98Z</time></trkpt><trkpt lat="43.7594708" lon="12.0384596"><ele>701.0</ele><time>2026-04-05T12:56:19.979Z</time></trkpt><trkpt lat="43.7596446" lon="12.0385055"><ele>702.0</ele><time>2026-04-05T12:56:20.98Z</time></trkpt><trkpt lat="43.7598239" lon="12.0385444"><ele>703.0</ele><time>2026-04-05T12:56:21.979Z</time></trkpt><trkpt lat="43.7600179" lon="12.0385863"><ele>704.0</ele><time>2026-04-05T12:56:22.98Z</time></trkpt><trkpt lat="43.7601983" lon="12.0386079"><ele>706.3333333333333</ele><time>2026-04-05T12:56:23.98Z</time></trkpt><trkpt lat="43.7603781" lon="12.0386153"><ele>708.6666666666666</ele><time>2026-04-05T12:56:24.98Z</time></trkpt><trkpt lat="43.7605633" lon="12.0386142"><ele>711.0</ele><time>2026-04-05T12:56:25.98Z</time></trkpt><trkpt lat="43.7607529" lon="12.0386046"><ele>711.0</ele><time>2026-04-05T12:56:26.98Z</time></trkpt><trkpt lat="43.7609432" lon="12.0385891"><ele>711.0</ele><time>2026-04-05T12:56:27.98Z</time></trkpt><trkpt lat="43.7611357" lon="12.0385591"><ele>711.0</ele><time>2026-04-05T12:56:28.98Z</time></trkpt><trkpt lat="43.7613258" lon="12.0385192"><ele>710.0</ele><time>2026-04-05T12:56:29.98Z</time></trkpt><trkpt lat="43.761515" lon="12.038466"><ele>709.0</ele><time>2026-04-05T12:56:30.98Z</time></trkpt><trkpt lat="43.7616975" lon="12.0384041"><ele>708.0</ele><time>2026-04-05T12:56:31.98Z</time></trkpt><trkpt lat="43.7618729" lon="12.0383314"><ele>710.6666666666666</ele><time>2026-04-05T12:56:32.98Z</time></trkpt><trkpt lat="43.7620462" lon="12.0382544"><ele>713.3333333333333</ele><time>2026-04-05T12:56:33.98Z</time></trkpt><trkpt lat="43.7622172" lon="12.0381852"><ele>716.0</ele><time>2026-04-05T12:56:34.98Z</time></trkpt><trkpt lat="43.7623841" lon="12.0381117"><ele>716.0</ele><time>2026-04-05T12:56:35.98Z</time></trkpt><trkpt lat="43.762552" lon="12.0380308"><ele>716.0</ele><time>2026-04-05T12:56:36.979Z</time></trkpt><trkpt lat="43.7627372" lon="12.0379283"><ele>716.0</ele><time>2026-04-05T12:56:37.98Z</time></trkpt><trkpt lat="43.7629124" lon="12.0378222"><ele>716.0</ele><time>2026-04-05T12:56:38.98Z</time></trkpt><trkpt lat="43.7630927" lon="12.0377061"><ele>716.0</ele><time>2026-04-05T12:56:39.98Z</time></trkpt><trkpt lat="43.7632694" lon="12.0375883"><ele>716.0</ele><time>2026-04-05T12:56:40.98Z</time></trkpt><trkpt lat="43.7634508" lon="12.0374797"><ele>717.6666666666666</ele><time>2026-04-05T12:56:41.979Z</time></trkpt><trkpt lat="43.7636332" lon="12.0373481"><ele>719.3333333333334</ele><time>2026-04-05T12:56:42.98Z</time></trkpt><trkpt lat="43.7638121" lon="12.0372153"><ele>721.0</ele><time>2026-04-05T12:56:43.979Z</time></trkpt><trkpt lat="43.7639864" lon="12.0370776"><ele>721.0</ele><time>2026-04-05T12:56:44.979Z</time></trkpt><trkpt lat="43.7641515" lon="12.0369338"><ele>721.0</ele><time>2026-04-05T12:56:45.98Z</time></trkpt><trkpt lat="43.7643202" lon="12.0367785"><ele>721.0</ele><time>2026-04-05T12:56:46.98Z</time></trkpt><trkpt lat="43.7644819" lon="12.0366271"><ele>722.0</ele><time>2026-04-05T12:56:47.98Z</time></trkpt><trkpt lat="43.7646453" lon="12.0364623"><ele>723.0</ele><time>2026-04-05T12:56:48.98Z</time></trkpt><trkpt lat="43.7648082" lon="12.0362852"><ele>724.0</ele><time>2026-04-05T12:56:49.98Z</time></trkpt><trkpt lat="43.7649688" lon="12.0360903"><ele>724.0</ele><time>2026-04-05T12:56:50.98Z</time></trkpt><trkpt lat="43.7651279" lon="12.0358692"><ele>724.0</ele><time>2026-04-05T12:56:51.979Z</time></trkpt><trkpt lat="43.7652857" lon="12.035639"><ele>721.5</ele><time>2026-04-05T12:56:52.98Z</time></trkpt><trkpt lat="43.7654472" lon="12.0353933"><ele>719.0</ele><time>2026-04-05T12:56:53.98Z</time></trkpt><trkpt lat="43.7656086" lon="12.0351383"><ele>722.0</ele><time>2026-04-05T12:56:54.979Z</time></trkpt><trkpt lat="43.7657735" lon="12.0348672"><ele>725.0</ele><time>2026-04-05T12:56:55.98Z</time></trkpt><trkpt lat="43.7659402" lon="12.0345924"><ele>722.0</ele><time>2026-04-05T12:56:56.98Z</time></trkpt><trkpt lat="43.766104" lon="12.0343107"><ele>719.0</ele><time>2026-04-05T12:56:57.98Z</time></trkpt><trkpt lat="43.7662663" lon="12.0340399"><ele>719.0</ele><time>2026-04-05T12:56:58.98Z</time></trkpt><trkpt lat="43.766426" lon="12.0337701"><ele>719.0</ele><time>2026-04-05T12:56:59.979Z</time></trkpt><trkpt lat="43.7665782" lon="12.0335045"><ele>715.0</ele><time>2026-04-05T12:57:00.98Z</time></trkpt><trkpt lat="43.7667345" lon="12.0332475"><ele>711.0</ele><time>2026-04-05T12:57:01.98Z</time></trkpt><trkpt lat="43.766887" lon="12.0329905"><ele>711.0</ele><time>2026-04-05T12:57:02.98Z</time></trkpt><trkpt lat="43.7670377" lon="12.0327463"><ele>711.0</ele><time>2026-04-05T12:57:03.98Z</time></trkpt><trkpt lat="43.7671861" lon="12.0324957"><ele>710.0</ele><time>2026-04-05T12:57:04.979Z</time></trkpt><trkpt lat="43.767332" lon="12.0322552"><ele>709.0</ele><time>2026-04-05T12:57:05.98Z</time></trkpt><trkpt lat="43.7674702" lon="12.032004"><ele>709.0</ele><time>2026-04-05T12:57:06.979Z</time></trkpt><trkpt lat="43.7676011" lon="12.0317501"><ele>709.0</ele><time>2026-04-05T12:57:07.98Z</time></trkpt><trkpt lat="43.7677279" lon="12.0314892"><ele>718.0</ele><time>2026-04-05T12:57:08.98Z</time></trkpt><trkpt lat="43.7678466" lon="12.0312266"><ele>727.0</ele><time>2026-04-05T12:57:09.979Z</time></trkpt><trkpt lat="43.7679546" lon="12.0309581"><ele>736.0</ele><time>2026-04-05T12:57:10.98Z</time></trkpt><trkpt lat="43.7680534" lon="12.0306811"><ele>739.0</ele><time>2026-04-05T12:57:11.98Z</time></trkpt><trkpt lat="43.7681406" lon="12.0303951"><ele>742.0</ele><time>2026-04-05T12:57:12.979Z</time></trkpt><trkpt lat="43.768215" lon="12.0301068"><ele>745.0</ele><time>2026-04-05T12:57:13.98Z</time></trkpt><trkpt lat="43.7682806" lon="12.0298119"><ele>745.0</ele><time>2026-04-05T12:57:14.98Z</time></trkpt><trkpt lat="43.7683458" lon="12.0295221"><ele>745.0</ele><time>2026-04-05T12:57:15.98Z</time></trkpt><trkpt lat="43.768393" lon="12.0292241"><ele>745.0</ele><time>2026-04-05T12:57:16.98Z</time></trkpt><trkpt lat="43.7684268" lon="12.0289184"><ele>746.3333333333334</ele><time>2026-04-05T12:57:17.979Z</time></trkpt><trkpt lat="43.7684552" lon="12.0286144"><ele>747.6666666666666</ele><time>2026-04-05T12:57:18.979Z</time></trkpt><trkpt lat="43.7684869" lon="12.0283063"><ele>749.0</ele><time>2026-04-05T12:57:19.98Z</time></trkpt><trkpt lat="43.7685043" lon="12.0279972"><ele>749.0</ele><time>2026-04-05T12:57:20.98Z</time></trkpt><trkpt lat="43.7685231" lon="12.0276871"><ele>749.0</ele><time>2026-04-05T12:57:21.98Z</time></trkpt><trkpt lat="43.7685421" lon="12.0273794"><ele>749.0</ele><time>2026-04-05T12:57:22.98Z</time></trkpt><trkpt lat="43.7685647" lon="12.0270736"><ele>760.3333333333333</ele><time>2026-04-05T12:57:23.98Z</time></trkpt><trkpt lat="43.7686038" lon="12.0267685"><ele>771.6666666666666</ele><time>2026-04-05T12:57:24.98Z</time></trkpt><trkpt lat="43.7686392" lon="12.0264651"><ele>783.0</ele><time>2026-04-05T12:57:25.98Z</time></trkpt><trkpt lat="43.7686932" lon="12.026158"><ele>783.0</ele><time>2026-04-05T12:57:26.979Z</time></trkpt><trkpt lat="43.7687491" lon="12.0258576"><ele>783.0</ele><time>2026-04-05T12:57:27.98Z</time></trkpt><trkpt lat="43.7688168" lon="12.0255609"><ele>783.0</ele><time>2026-04-05T12:57:28.979Z</time></trkpt><trkpt lat="43.7689031" lon="12.0252668"><ele>777.0</ele><time>2026-04-05T12:57:29.98Z</time></trkpt><trkpt lat="43.7689899" lon="12.0249828"><ele>771.0</ele><time>2026-04-05T12:57:30.979Z</time></trkpt><trkpt lat="43.7690895" lon="12.024699"><ele>769.0</ele><time>2026-04-05T12:57:31.98Z</time></trkpt><trkpt lat="43.7691973" lon="12.0244296"><ele>767.0</ele><time>2026-04-05T12:57:32.98Z</time></trkpt><trkpt lat="43.7693098" lon="12.0241647"><ele>765.0</ele><time>2026-04-05T12:57:33.979Z</time></trkpt><trkpt lat="43.7694337" lon="12.0239116"><ele>765.0</ele><time>2026-04-05T12:57:34.979Z</time></trkpt><trkpt lat="43.7695728" lon="12.0236764"><ele>765.0</ele><time>2026-04-05T12:57:35.979Z</time></trkpt><trkpt lat="43.7697158" lon="12.0234472"><ele>765.0</ele><time>2026-04-05T12:57:36.979Z</time></trkpt><trkpt lat="43.7698747" lon="12.0232232"><ele>764.0</ele><time>2026-04-05T12:57:37.98Z</time></trkpt><trkpt lat="43.7700333" lon="12.0230102"><ele>763.0</ele><time>2026-04-05T12:57:38.979Z</time></trkpt><trkpt lat="43.7702027" lon="12.0228054"><ele>762.0</ele><time>2026-04-05T12:57:39.979Z</time></trkpt><trkpt lat="43.7703835" lon="12.0226348"><ele>765.6666666666667</ele><time>2026-04-05T12:57:40.98Z</time></trkpt><trkpt lat="43.7705684" lon="12.0224716"><ele>769.3333333333334</ele><time>2026-04-05T12:57:41.98Z</time></trkpt><trkpt lat="43.7707548" lon="12.0223118"><ele>773.0</ele><time>2026-04-05T12:57:42.98Z</time></trkpt><trkpt lat="43.770948" lon="12.0221673"><ele>776.6666666666667</ele><time>2026-04-05T12:57:43.98Z</time></trkpt><trkpt lat="43.771147" lon="12.0220473"><ele>780.3333333333333</ele><time>2026-04-05T12:57:44.979Z</time></trkpt><trkpt lat="43.7713501" lon="12.0219211"><ele>784.0</ele><time>2026-04-05T12:57:45.979Z</time></trkpt><trkpt lat="43.7715501" lon="12.0217946"><ele>784.0</ele><time>2026-04-05T12:57:46.98Z</time></trkpt><trkpt lat="43.7717555" lon="12.021676"><ele>784.0</ele><time>2026-04-05T12:57:47.98Z</time></trkpt><trkpt lat="43.7719657" lon="12.0215604"><ele>784.0</ele><time>2026-04-05T12:57:48.979Z</time></trkpt><trkpt lat="43.7721703" lon="12.0214459"><ele>783.0</ele><time>2026-04-05T12:57:49.979Z</time></trkpt><trkpt lat="43.7723735" lon="12.0213329"><ele>782.0</ele><time>2026-04-05T12:57:50.98Z</time></trkpt><trkpt lat="43.7725762" lon="12.0212158"><ele>781.0</ele><time>2026-04-05T12:57:51.979Z</time></trkpt><trkpt lat="43.7727836" lon="12.0211051"><ele>783.6666666666666</ele><time>2026-04-05T12:57:52.98Z</time></trkpt><trkpt lat="43.7729922" lon="12.0209923"><ele>786.3333333333333</ele><time>2026-04-05T12:57:53.98Z</time></trkpt><trkpt lat="43.7731985" lon="12.0208795"><ele>789.0</ele><time>2026-04-05T12:57:54.98Z</time></trkpt><trkpt lat="43.7734096" lon="12.0207602"><ele>792.5</ele><time>2026-04-05T12:57:55.98Z</time></trkpt><trkpt lat="43.7736194" lon="12.0206458"><ele>796.0</ele><time>2026-04-05T12:57:56.98Z</time></trkpt><trkpt lat="43.7738378" lon="12.0205293"><ele>796.0</ele><time>2026-04-05T12:57:57.98Z</time></trkpt><trkpt lat="43.7740523" lon="12.0204157"><ele>796.0</ele><time>2026-04-05T12:57:58.98Z</time></trkpt><trkpt lat="43.7742656" lon="12.0203025"><ele>794.5</ele><time>2026-04-05T12:57:59.979Z</time></trkpt><trkpt lat="43.774479" lon="12.0201957"><ele>793.0</ele><time>2026-04-05T12:58:00.98Z</time></trkpt><trkpt lat="43.7746928" lon="12.0200855"><ele>796.5</ele><time>2026-04-05T12:58:01.98Z</time></trkpt><trkpt lat="43.7749069" lon="12.01998"><ele>800.0</ele><time>2026-04-05T12:58:02.98Z</time></trkpt><trkpt lat="43.7751167" lon="12.0198637"><ele>801.5</ele><time>2026-04-05T12:58:03.98Z</time></trkpt><trkpt lat="43.7753335" lon="12.0197526"><ele>803.0</ele><time>2026-04-05T12:58:04.98Z</time></trkpt><trkpt lat="43.775539" lon="12.0196407"><ele>803.0</ele><time>2026-04-05T12:58:05.979Z</time></trkpt><trkpt lat="43.7757418" lon="12.0195268"><ele>803.0</ele><time>2026-04-05T12:58:06.98Z</time></trkpt><trkpt lat="43.7759465" lon="12.019413"><ele>803.0</ele><time>2026-04-05T12:58:07.98Z</time></trkpt><trkpt lat="43.7761511" lon="12.0192996"><ele>805.0</ele><time>2026-04-05T12:58:08.979Z</time></trkpt><trkpt lat="43.7763566" lon="12.019186"><ele>807.0</ele><time>2026-04-05T12:58:09.979Z</time></trkpt><trkpt lat="43.7765636" lon="12.0190702"><ele>809.0</ele><time>2026-04-05T12:58:10.98Z</time></trkpt><trkpt lat="43.7767707" lon="12.0189527"><ele>814.5</ele><time>2026-04-05T12:58:11.98Z</time></trkpt><trkpt lat="43.7769794" lon="12.0188355"><ele>820.0</ele><time>2026-04-05T12:58:12.979Z</time></trkpt><trkpt lat="43.7771879" lon="12.01872"><ele>820.0</ele><time>2026-04-05T12:58:13.979Z</time></trkpt><trkpt lat="43.7773952" lon="12.0186083"><ele>820.0</ele><time>2026-04-05T12:58:14.979Z</time></trkpt><trkpt lat="43.7776032" lon="12.0184953"><ele>820.0</ele><time>2026-04-05T12:58:15.98Z</time></trkpt><trkpt lat="43.7778459" lon="12.0184336"><ele>776.0</ele><time>2026-04-05T12:58:16.98Z</time></trkpt><trkpt lat="43.7846571" lon="12.0143731"><ele>776.0</ele><time>2026-04-05T12:58:45.979Z</time></trkpt><trkpt lat="43.7848858" lon="12.0141899"><ele>776.0</ele><time>2026-04-05T12:58:46.98Z</time></trkpt><trkpt lat="43.7851066" lon="12.0140035"><ele>772.0</ele><time>2026-04-05T12:58:47.98Z</time></trkpt><trkpt lat="43.7853159" lon="12.0137998"><ele>768.0</ele><time>2026-04-05T12:58:48.979Z</time></trkpt><trkpt lat="43.7855252" lon="12.0135988"><ele>768.0</ele><time>2026-04-05T12:58:49.98Z</time></trkpt><trkpt lat="43.7857289" lon="12.0133903"><ele>768.0</ele><time>2026-04-05T12:58:50.98Z</time></trkpt><trkpt lat="43.7859274" lon="12.013168"><ele>771.0</ele><time>2026-04-05T12:58:51.98Z</time></trkpt><trkpt lat="43.786117" lon="12.0129396"><ele>774.0</ele><time>2026-04-05T12:58:52.98Z</time></trkpt><trkpt lat="43.7863024" lon="12.012711"><ele>784.5</ele><time>2026-04-05T12:58:53.979Z</time></trkpt><trkpt lat="43.7864849" lon="12.0124755"><ele>795.0</ele><time>2026-04-05T12:58:54.98Z</time></trkpt><trkpt lat="43.7866641" lon="12.0122312"><ele>731.0</ele><time>2026-04-05T12:58:55.98Z</time></trkpt><trkpt lat="43.7880489" lon="12.0097991"><ele>731.0</ele><time>2026-04-05T12:59:04.98Z</time></trkpt><trkpt lat="43.7882063" lon="12.009456"><ele>731.0</ele><time>2026-04-05T12:59:05.979Z</time></trkpt><trkpt lat="43.7883866" lon="12.0090448"><ele>730.5</ele><time>2026-04-05T12:59:06.98Z</time></trkpt><trkpt lat="43.7885438" lon="12.0087356"><ele>730.0</ele><time>2026-04-05T12:59:07.979Z</time></trkpt><trkpt lat="43.7886873" lon="12.0084399"><ele>728.5</ele><time>2026-04-05T12:59:08.98Z</time></trkpt><trkpt lat="43.7888313" lon="12.0081431"><ele>727.0</ele><time>2026-04-05T12:59:09.98Z</time></trkpt><trkpt lat="43.788971" lon="12.0078443"><ele>727.0</ele><time>2026-04-05T12:59:10.98Z</time></trkpt><trkpt lat="43.7891117" lon="12.0075439"><ele>727.0</ele><time>2026-04-05T12:59:11.98Z</time></trkpt><trkpt lat="43.7892547" lon="12.0072506"><ele>733.0</ele><time>2026-04-05T12:59:12.98Z</time></trkpt><trkpt lat="43.7893972" lon="12.0069552"><ele>739.0</ele><time>2026-04-05T12:59:13.979Z</time></trkpt><trkpt lat="43.789537" lon="12.0066572"><ele>739.0</ele><time>2026-04-05T12:59:14.98Z</time></trkpt><trkpt lat="43.7896857" lon="12.0063569"><ele>739.0</ele><time>2026-04-05T12:59:15.98Z</time></trkpt><trkpt lat="43.7898269" lon="12.0060651"><ele>733.0</ele><time>2026-04-05T12:59:16.98Z</time></trkpt><trkpt lat="43.789968" lon="12.0057696"><ele>727.0</ele><time>2026-04-05T12:59:17.98Z</time></trkpt><trkpt lat="43.7901129" lon="12.0054686"><ele>730.5</ele><time>2026-04-05T12:59:18.98Z</time></trkpt><trkpt lat="43.7902543" lon="12.0051814"><ele>734.0</ele><time>2026-04-05T12:59:19.98Z</time></trkpt><trkpt lat="43.7903996" lon="12.0048826"><ele>734.0</ele><time>2026-04-05T12:59:20.98Z</time></trkpt><trkpt lat="43.790545" lon="12.0045969"><ele>734.0</ele><time>2026-04-05T12:59:21.98Z</time></trkpt><trkpt lat="43.7906883" lon="12.0043126"><ele>737.0</ele><time>2026-04-05T12:59:22.979Z</time></trkpt><trkpt lat="43.7908442" lon="12.004044"><ele>740.0</ele><time>2026-04-05T12:59:23.979Z</time></trkpt><trkpt lat="43.7910112" lon="12.0037901"><ele>760.0</ele><time>2026-04-05T12:59:24.98Z</time></trkpt><trkpt lat="43.7911823" lon="12.0035356"><ele>780.0</ele><time>2026-04-05T12:59:25.98Z</time></trkpt><trkpt lat="43.7913635" lon="12.0032943"><ele>788.0</ele><time>2026-04-05T12:59:26.98Z</time></trkpt><trkpt lat="43.7915465" lon="12.0030606"><ele>796.0</ele><time>2026-04-05T12:59:27.98Z</time></trkpt><trkpt lat="43.7939019" lon="12.0002687"><ele>748.0</ele><time>2026-04-05T12:59:39.979Z</time></trkpt><trkpt lat="43.7941083" lon="12.0000317"><ele>700.0</ele><time>2026-04-05T12:59:40.98Z</time></trkpt><trkpt lat="43.7943157" lon="11.9997886"><ele>693.0</ele><time>2026-04-05T12:59:41.979Z</time></trkpt><trkpt lat="43.7945174" lon="11.9995245"><ele>686.0</ele><time>2026-04-05T12:59:42.98Z</time></trkpt><trkpt lat="43.7947142" lon="11.9992662"><ele>687.0</ele><time>2026-04-05T12:59:43.979Z</time></trkpt><trkpt lat="43.7949141" lon="11.9990258"><ele>688.0</ele><time>2026-04-05T12:59:44.98Z</time></trkpt><trkpt lat="43.7951107" lon="11.9987712"><ele>697.0</ele><time>2026-04-05T12:59:45.979Z</time></trkpt><trkpt lat="43.7953073" lon="11.9985274"><ele>706.0</ele><time>2026-04-05T12:59:46.98Z</time></trkpt><trkpt lat="43.7955056" lon="11.9982818"><ele>708.0</ele><time>2026-04-05T12:59:47.979Z</time></trkpt><trkpt lat="43.7957003" lon="11.99804"><ele>710.0</ele><time>2026-04-05T12:59:48.979Z</time></trkpt><trkpt lat="43.7958978" lon="11.9977918"><ele>712.5</ele><time>2026-04-05T12:59:49.979Z</time></trkpt><trkpt lat="43.7960955" lon="11.9975554"><ele>715.0</ele><time>2026-04-05T12:59:50.98Z</time></trkpt><trkpt lat="43.7962927" lon="11.9973146"><ele>715.0</ele><time>2026-04-05T12:59:51.98Z</time></trkpt><trkpt lat="43.796491" lon="11.9970793"><ele>715.0</ele><time>2026-04-05T12:59:52.979Z</time></trkpt><trkpt lat="43.7966809" lon="11.9968428"><ele>712.0</ele><time>2026-04-05T12:59:53.98Z</time></trkpt><trkpt lat="43.7968653" lon="11.9966081"><ele>709.0</ele><time>2026-04-05T12:59:54.98Z</time></trkpt><trkpt lat="43.7970421" lon="11.9963701"><ele>709.0</ele><time>2026-04-05T12:59:55.98Z</time></trkpt><trkpt lat="43.7972151" lon="11.996118"><ele>709.0</ele><time>2026-04-05T12:59:56.98Z</time></trkpt><trkpt lat="43.7973827" lon="11.9958444"><ele>708.5</ele><time>2026-04-05T12:59:57.979Z</time></trkpt><trkpt lat="43.7975419" lon="11.9955598"><ele>708.0</ele><time>2026-04-05T12:59:58.98Z</time></trkpt><trkpt lat="43.7976875" lon="11.9952718"><ele>696.0</ele><time>2026-04-05T12:59:59.98Z</time></trkpt><trkpt lat="43.7978291" lon="11.9949638"><ele>684.0</ele><time>2026-04-05T13:00:00.98Z</time></trkpt><trkpt lat="43.7979683" lon="11.9946681"><ele>684.0</ele><time>2026-04-05T13:00:01.979Z</time></trkpt><trkpt lat="43.7980957" lon="11.9943474"><ele>684.0</ele><time>2026-04-05T13:00:02.98Z</time></trkpt><trkpt lat="43.7982083" lon="11.9940065"><ele>678.0</ele><time>2026-04-05T13:00:03.979Z</time></trkpt><trkpt lat="43.7983205" lon="11.9936491"><ele>672.0</ele><time>2026-04-05T13:00:04.98Z</time></trkpt><trkpt lat="43.798415" lon="11.9932871"><ele>669.0</ele><time>2026-04-05T13:00:05.98Z</time></trkpt><trkpt lat="43.7984985" lon="11.9929136"><ele>666.0</ele><time>2026-04-05T13:00:06.98Z</time></trkpt><trkpt lat="43.7985689" lon="11.9925348"><ele>674.5</ele><time>2026-04-05T13:00:07.98Z</time></trkpt><trkpt lat="43.7986227" lon="11.9921504"><ele>683.0</ele><time>2026-04-05T13:00:08.98Z</time></trkpt><trkpt lat="43.7986653" lon="11.9917623"><ele>674.0</ele><time>2026-04-05T13:00:09.98Z</time></trkpt><trkpt lat="43.7986963" lon="11.9913713"><ele>665.0</ele><time>2026-04-05T13:00:10.98Z</time></trkpt><trkpt lat="43.798714" lon="11.9909797"><ele>658.0</ele><time>2026-04-05T13:00:11.98Z</time></trkpt><trkpt lat="43.798719" lon="11.9905873"><ele>651.0</ele><time>2026-04-05T13:00:12.98Z</time></trkpt><trkpt lat="43.7987138" lon="11.9901932"><ele>648.5</ele><time>2026-04-05T13:00:13.98Z</time></trkpt><trkpt lat="43.798698" lon="11.9897991"><ele>646.0</ele><time>2026-04-05T13:00:14.98Z</time></trkpt><trkpt lat="43.798675" lon="11.989402"><ele>642.5</ele><time>2026-04-05T13:00:15.98Z</time></trkpt><trkpt lat="43.7986476" lon="11.9890045"><ele>639.0</ele><time>2026-04-05T13:00:16.979Z</time></trkpt><trkpt lat="43.798611" lon="11.9886091"><ele>634.5</ele><time>2026-04-05T13:00:17.98Z</time></trkpt><trkpt lat="43.7985668" lon="11.9882162"><ele>630.0</ele><time>2026-04-05T13:00:18.98Z</time></trkpt><trkpt lat="43.7985174" lon="11.9878231"><ele>631.5</ele><time>2026-04-05T13:00:19.979Z</time></trkpt><trkpt lat="43.7984656" lon="11.9874339"><ele>633.0</ele><time>2026-04-05T13:00:20.98Z</time></trkpt><trkpt lat="43.7984098" lon="11.9870616"><ele>633.0</ele><time>2026-04-05T13:00:21.98Z</time></trkpt><trkpt lat="43.7983344" lon="11.9866791"><ele>633.0</ele><time>2026-04-05T13:00:22.98Z</time></trkpt><trkpt lat="43.7982568" lon="11.9863023"><ele>633.0</ele><time>2026-04-05T13:00:23.98Z</time></trkpt><trkpt lat="43.7981788" lon="11.9859251"><ele>633.0</ele><time>2026-04-05T13:00:24.98Z</time></trkpt><trkpt lat="43.7980909" lon="11.9855646"><ele>632.0</ele><time>2026-04-05T13:00:25.98Z</time></trkpt><trkpt lat="43.7980039" lon="11.9852052"><ele>631.0</ele><time>2026-04-05T13:00:26.98Z</time></trkpt><trkpt lat="43.7979105" lon="11.9848385"><ele>631.0</ele><time>2026-04-05T13:00:27.98Z</time></trkpt><trkpt lat="43.797816" lon="11.984488"><ele>631.0</ele><time>2026-04-05T13:00:28.98Z</time></trkpt><trkpt lat="43.7977227" lon="11.9841352"><ele>630.0</ele><time>2026-04-05T13:00:29.98Z</time></trkpt><trkpt lat="43.7976378" lon="11.9837922"><ele>629.0</ele><time>2026-04-05T13:00:30.98Z</time></trkpt><trkpt lat="43.7975699" lon="11.9834406"><ele>622.5</ele><time>2026-04-05T13:00:31.98Z</time></trkpt><trkpt lat="43.797517" lon="11.9830933"><ele>616.0</ele><time>2026-04-05T13:00:32.98Z</time></trkpt><trkpt lat="43.7974864" lon="11.9827417"><ele>615.5</ele><time>2026-04-05T13:00:33.979Z</time></trkpt><trkpt lat="43.7974743" lon="11.9823817"><ele>615.0</ele><time>2026-04-05T13:00:34.98Z</time></trkpt><trkpt lat="43.7974775" lon="11.9820192"><ele>618.5</ele><time>2026-04-05T13:00:35.979Z</time></trkpt><trkpt lat="43.7975083" lon="11.9816543"><ele>622.0</ele><time>2026-04-05T13:00:36.98Z</time></trkpt><trkpt lat="43.7975532" lon="11.9812957"><ele>622.0</ele><time>2026-04-05T13:00:37.98Z</time></trkpt><trkpt lat="43.7976163" lon="11.9809373"><ele>622.0</ele><time>2026-04-05T13:00:38.979Z</time></trkpt><trkpt lat="43.7976851" lon="11.9805853"><ele>622.0</ele><time>2026-04-05T13:00:39.98Z</time></trkpt><trkpt lat="43.7977848" lon="11.9802386"><ele>622.0</ele><time>2026-04-05T13:00:40.98Z</time></trkpt><trkpt lat="43.7979122" lon="11.9799102"><ele>622.0</ele><time>2026-04-05T13:00:41.979Z</time></trkpt><trkpt lat="43.7980589" lon="11.9795859"><ele>622.0</ele><time>2026-04-05T13:00:42.98Z</time></trkpt><trkpt lat="43.7982172" lon="11.9792825"><ele>621.5</ele><time>2026-04-05T13:00:43.98Z</time></trkpt><trkpt lat="43.7983889" lon="11.9789961"><ele>621.0</ele><time>2026-04-05T13:00:44.98Z</time></trkpt><trkpt lat="43.7985745" lon="11.9787235"><ele>621.0</ele><time>2026-04-05T13:00:45.98Z</time></trkpt><trkpt lat="43.7988198" lon="11.9784857"><ele>621.0</ele><time>2026-04-05T13:00:46.98Z</time></trkpt><trkpt lat="43.7990437" lon="11.9782476"><ele>611.5</ele><time>2026-04-05T13:00:47.98Z</time></trkpt><trkpt lat="43.7992883" lon="11.9780436"><ele>602.0</ele><time>2026-04-05T13:00:48.98Z</time></trkpt><trkpt lat="43.7995402" lon="11.9778645"><ele>596.0</ele><time>2026-04-05T13:00:49.98Z</time></trkpt><trkpt lat="43.7998018" lon="11.9777071"><ele>590.0</ele><time>2026-04-05T13:00:50.98Z</time></trkpt><trkpt lat="43.8000727" lon="11.977582"><ele>591.0</ele><time>2026-04-05T13:00:51.98Z</time></trkpt><trkpt lat="43.8003533" lon="11.9774889"><ele>592.0</ele><time>2026-04-05T13:00:52.98Z</time></trkpt><trkpt lat="43.8006407" lon="11.9774229"><ele>592.0</ele><time>2026-04-05T13:00:53.979Z</time></trkpt><trkpt lat="43.8009292" lon="11.9773859"><ele>592.0</ele><time>2026-04-05T13:00:54.98Z</time></trkpt><trkpt lat="43.8012203" lon="11.9773538"><ele>593.0</ele><time>2026-04-05T13:00:55.979Z</time></trkpt><trkpt lat="43.8015065" lon="11.9773224"><ele>594.0</ele><time>2026-04-05T13:00:56.98Z</time></trkpt><trkpt lat="43.8017829" lon="11.97729"><ele>591.0</ele><time>2026-04-05T13:00:57.979Z</time></trkpt><trkpt lat="43.8020535" lon="11.9772591"><ele>588.0</ele><time>2026-04-05T13:00:58.98Z</time></trkpt><trkpt lat="43.8023225" lon="11.9772264"><ele>588.0</ele><time>2026-04-05T13:00:59.98Z</time></trkpt><trkpt lat="43.8025839" lon="11.9772001"><ele>588.0</ele><time>2026-04-05T13:01:00.979Z</time></trkpt><trkpt lat="43.8028357" lon="11.9771483"><ele>590.5</ele><time>2026-04-05T13:01:01.98Z</time></trkpt><trkpt lat="43.8030702" lon="11.9770733"><ele>593.0</ele><time>2026-04-05T13:01:02.98Z</time></trkpt><trkpt lat="43.803302" lon="11.9769857"><ele>589.5</ele><time>2026-04-05T13:01:03.979Z</time></trkpt><trkpt lat="43.8035336" lon="11.97688"><ele>586.0</ele><time>2026-04-05T13:01:04.98Z</time></trkpt><trkpt lat="43.8037559" lon="11.9767503"><ele>594.0</ele><time>2026-04-05T13:01:05.98Z</time></trkpt><trkpt lat="43.8039711" lon="11.9765881"><ele>602.0</ele><time>2026-04-05T13:01:06.979Z</time></trkpt><trkpt lat="43.8041804" lon="11.9764146"><ele>595.0</ele><time>2026-04-05T13:01:07.98Z</time></trkpt><trkpt lat="43.8043829" lon="11.9762267"><ele>588.0</ele><time>2026-04-05T13:01:08.98Z</time></trkpt><trkpt lat="43.8045856" lon="11.9760239"><ele>591.0</ele><time>2026-04-05T13:01:09.98Z</time></trkpt><trkpt lat="43.8047703" lon="11.975795"><ele>594.0</ele><time>2026-04-05T13:01:10.98Z</time></trkpt><trkpt lat="43.8049359" lon="11.9755485"><ele>594.0</ele><time>2026-04-05T13:01:11.98Z</time></trkpt><trkpt lat="43.8050966" lon="11.9752897"><ele>594.0</ele><time>2026-04-05T13:01:12.98Z</time></trkpt><trkpt lat="43.8052333" lon="11.975011"><ele>589.5</ele><time>2026-04-05T13:01:13.98Z</time></trkpt><trkpt lat="43.8053566" lon="11.9747172"><ele>585.0</ele><time>2026-04-05T13:01:14.979Z</time></trkpt><trkpt lat="43.8054683" lon="11.9744231"><ele>578.5</ele><time>2026-04-05T13:01:15.979Z</time></trkpt><trkpt lat="43.8055669" lon="11.974109"><ele>572.0</ele><time>2026-04-05T13:01:16.979Z</time></trkpt><trkpt lat="43.8056533" lon="11.9737949"><ele>572.0</ele><time>2026-04-05T13:01:17.98Z</time></trkpt><trkpt lat="43.8057323" lon="11.9734716"><ele>572.0</ele><time>2026-04-05T13:01:18.98Z</time></trkpt><trkpt lat="43.8058096" lon="11.9731492"><ele>572.0</ele><time>2026-04-05T13:01:19.98Z</time></trkpt><trkpt lat="43.8058793" lon="11.9728198"><ele>572.0</ele><time>2026-04-05T13:01:20.98Z</time></trkpt><trkpt lat="43.8059537" lon="11.9725068"><ele>579.0</ele><time>2026-04-05T13:01:21.979Z</time></trkpt><trkpt lat="43.8060298" lon="11.9721878"><ele>586.0</ele><time>2026-04-05T13:01:22.98Z</time></trkpt><trkpt lat="43.8061089" lon="11.9718784"><ele>583.0</ele><time>2026-04-05T13:01:23.98Z</time></trkpt><trkpt lat="43.8061938" lon="11.9715717"><ele>580.0</ele><time>2026-04-05T13:01:24.979Z</time></trkpt><trkpt lat="43.8062894" lon="11.971261"><ele>580.0</ele><time>2026-04-05T13:01:25.98Z</time></trkpt><trkpt lat="43.8063927" lon="11.9709615"><ele>580.0</ele><time>2026-04-05T13:01:26.98Z</time></trkpt><trkpt lat="43.8065102" lon="11.970671"><ele>574.5</ele><time>2026-04-05T13:01:27.98Z</time></trkpt><trkpt lat="43.806638" lon="11.9703867"><ele>569.0</ele><time>2026-04-05T13:01:28.98Z</time></trkpt><trkpt lat="43.8067766" lon="11.970111"><ele>581.5</ele><time>2026-04-05T13:01:29.98Z</time></trkpt><trkpt lat="43.8069255" lon="11.9698449"><ele>594.0</ele><time>2026-04-05T13:01:30.979Z</time></trkpt><trkpt lat="43.8070848" lon="11.9695866"><ele>594.0</ele><time>2026-04-05T13:01:31.979Z</time></trkpt><trkpt lat="43.8072557" lon="11.9693331"><ele>594.0</ele><time>2026-04-05T13:01:32.98Z</time></trkpt><trkpt lat="43.8074349" lon="11.9691054"><ele>596.5</ele><time>2026-04-05T13:01:33.98Z</time></trkpt><trkpt lat="43.8076235" lon="11.968886"><ele>599.0</ele><time>2026-04-05T13:01:34.98Z</time></trkpt><trkpt lat="43.8078259" lon="11.9686766"><ele>599.0</ele><time>2026-04-05T13:01:35.98Z</time></trkpt><trkpt lat="43.8080346" lon="11.9684863"><ele>599.0</ele><time>2026-04-05T13:01:36.98Z</time></trkpt><trkpt lat="43.8082503" lon="11.9683161"><ele>587.5</ele><time>2026-04-05T13:01:37.979Z</time></trkpt><trkpt lat="43.808472" lon="11.9681597"><ele>576.0</ele><time>2026-04-05T13:01:38.98Z</time></trkpt><trkpt lat="43.8087053" lon="11.9680256"><ele>576.0</ele><time>2026-04-05T13:01:39.979Z</time></trkpt><trkpt lat="43.8089421" lon="11.9679041"><ele>576.0</ele><time>2026-04-05T13:01:40.98Z</time></trkpt><trkpt lat="43.8091979" lon="11.9678072"><ele>574.5</ele><time>2026-04-05T13:01:41.98Z</time></trkpt><trkpt lat="43.8094563" lon="11.9677222"><ele>573.0</ele><time>2026-04-05T13:01:42.98Z</time></trkpt><trkpt lat="43.8097187" lon="11.9676615"><ele>573.0</ele><time>2026-04-05T13:01:43.979Z</time></trkpt><trkpt lat="43.8099768" lon="11.9676172"><ele>573.0</ele><time>2026-04-05T13:01:44.98Z</time></trkpt><trkpt lat="43.8102402" lon="11.9675892"><ele>575.5</ele><time>2026-04-05T13:01:45.98Z</time></trkpt><trkpt lat="43.8105017" lon="11.9675801"><ele>578.0</ele><time>2026-04-05T13:01:46.98Z</time></trkpt><trkpt lat="43.8107616" lon="11.9675774"><ele>585.0</ele><time>2026-04-05T13:01:47.98Z</time></trkpt><trkpt lat="43.8110266" lon="11.967578"><ele>592.0</ele><time>2026-04-05T13:01:48.979Z</time></trkpt><trkpt lat="43.8112827" lon="11.9675818"><ele>592.0</ele><time>2026-04-05T13:01:49.98Z</time></trkpt><trkpt lat="43.8115338" lon="11.967584"><ele>592.0</ele><time>2026-04-05T13:01:50.98Z</time></trkpt><trkpt lat="43.8117871" lon="11.9675806"><ele>579.5</ele><time>2026-04-05T13:01:51.98Z</time></trkpt><trkpt lat="43.8120377" lon="11.9675723"><ele>567.0</ele><time>2026-04-05T13:01:52.98Z</time></trkpt><trkpt lat="43.8122916" lon="11.9675711"><ele>567.0</ele><time>2026-04-05T13:01:53.98Z</time></trkpt><trkpt lat="43.812537" lon="11.9675602"><ele>567.0</ele><time>2026-04-05T13:01:54.98Z</time></trkpt><trkpt lat="43.8127871" lon="11.9675473"><ele>558.5</ele><time>2026-04-05T13:01:55.979Z</time></trkpt><trkpt lat="43.8130342" lon="11.9675145"><ele>550.0</ele><time>2026-04-05T13:01:56.979Z</time></trkpt><trkpt lat="43.8132875" lon="11.9674549"><ele>549.0</ele><time>2026-04-05T13:01:57.98Z</time></trkpt><trkpt lat="43.8135269" lon="11.9673837"><ele>548.0</ele><time>2026-04-05T13:01:58.98Z</time></trkpt><trkpt lat="43.8137663" lon="11.9672814"><ele>548.0</ele><time>2026-04-05T13:01:59.98Z</time></trkpt><trkpt lat="43.8140015" lon="11.9671635"><ele>548.0</ele><time>2026-04-05T13:02:00.98Z</time></trkpt><trkpt lat="43.8142221" lon="11.9670193"><ele>551.5</ele><time>2026-04-05T13:02:01.978Z</time></trkpt><trkpt lat="43.814435" lon="11.9668543"><ele>555.0</ele><time>2026-04-05T13:02:02.98Z</time></trkpt><trkpt lat="43.8146444" lon="11.966671"><ele>555.0</ele><time>2026-04-05T13:02:03.98Z</time></trkpt><trkpt lat="43.814848" lon="11.9664758"><ele>555.0</ele><time>2026-04-05T13:02:04.979Z</time></trkpt><trkpt lat="43.8150391" lon="11.9662572"><ele>555.5</ele><time>2026-04-05T13:02:05.98Z</time></trkpt><trkpt lat="43.8152223" lon="11.9660184"><ele>556.0</ele><time>2026-04-05T13:02:06.98Z</time></trkpt><trkpt lat="43.8153929" lon="11.9657665"><ele>552.0</ele><time>2026-04-05T13:02:07.98Z</time></trkpt><trkpt lat="43.8155513" lon="11.9654955"><ele>548.0</ele><time>2026-04-05T13:02:08.98Z</time></trkpt><trkpt lat="43.8156967" lon="11.9651906"><ele>552.5</ele><time>2026-04-05T13:02:09.979Z</time></trkpt><trkpt lat="43.8158328" lon="11.9648884"><ele>557.0</ele><time>2026-04-05T13:02:10.979Z</time></trkpt><trkpt lat="43.8159624" lon="11.9645779"><ele>554.0</ele><time>2026-04-05T13:02:11.98Z</time></trkpt><trkpt lat="43.8160989" lon="11.9642771"><ele>551.0</ele><time>2026-04-05T13:02:12.979Z</time></trkpt><trkpt lat="43.8162429" lon="11.9639895"><ele>551.0</ele><time>2026-04-05T13:02:13.98Z</time></trkpt><trkpt lat="43.8163993" lon="11.963712"><ele>551.0</ele><time>2026-04-05T13:02:14.979Z</time></trkpt><trkpt lat="43.8165651" lon="11.9634489"><ele>551.0</ele><time>2026-04-05T13:02:15.979Z</time></trkpt><trkpt lat="43.8167437" lon="11.9632051"><ele>551.0</ele><time>2026-04-05T13:02:16.979Z</time></trkpt><trkpt lat="43.8169367" lon="11.9629729"><ele>552.0</ele><time>2026-04-05T13:02:17.978Z</time></trkpt><trkpt lat="43.8171372" lon="11.9627613"><ele>553.0</ele><time>2026-04-05T13:02:18.98Z</time></trkpt><trkpt lat="43.817345" lon="11.9625487"><ele>549.5</ele><time>2026-04-05T13:02:19.977Z</time></trkpt><trkpt lat="43.8175526" lon="11.9623415"><ele>546.0</ele><time>2026-04-05T13:02:20.979Z</time></trkpt><trkpt lat="43.8177614" lon="11.9621355"><ele>546.0</ele><time>2026-04-05T13:02:21.979Z</time></trkpt><trkpt lat="43.8179699" lon="11.9619267"><ele>546.0</ele><time>2026-04-05T13:02:22.98Z</time></trkpt><trkpt lat="43.818178" lon="11.9617187"><ele>539.5</ele><time>2026-04-05T13:02:23.978Z</time></trkpt><trkpt lat="43.8183884" lon="11.961506"><ele>533.0</ele><time>2026-04-05T13:02:24.979Z</time></trkpt><trkpt lat="43.8185953" lon="11.9612989"><ele>532.5</ele><time>2026-04-05T13:02:25.98Z</time></trkpt><trkpt lat="43.8188052" lon="11.9610905"><ele>532.0</ele><time>2026-04-05T13:02:26.978Z</time></trkpt><trkpt lat="43.8190144" lon="11.9608862"><ele>529.0</ele><time>2026-04-05T13:02:27.979Z</time></trkpt><trkpt lat="43.8192252" lon="11.9606835"><ele>526.0</ele><time>2026-04-05T13:02:28.98Z</time></trkpt><trkpt lat="43.8194376" lon="11.9604811"><ele>534.5</ele><time>2026-04-05T13:02:29.98Z</time></trkpt><trkpt lat="43.819649" lon="11.9602746"><ele>543.0</ele><time>2026-04-05T13:02:30.98Z</time></trkpt><trkpt lat="43.8198582" lon="11.9600656"><ele>536.0</ele><time>2026-04-05T13:02:31.979Z</time></trkpt><trkpt lat="43.8200649" lon="11.9598599"><ele>529.0</ele><time>2026-04-05T13:02:32.978Z</time></trkpt><trkpt lat="43.8202724" lon="11.9596519"><ele>529.0</ele><time>2026-04-05T13:02:33.98Z</time></trkpt><trkpt lat="43.8204831" lon="11.959443"><ele>529.0</ele><time>2026-04-05T13:02:34.98Z</time></trkpt><trkpt lat="43.8206926" lon="11.9592345"><ele>525.5</ele><time>2026-04-05T13:02:35.98Z</time></trkpt><trkpt lat="43.8209087" lon="11.9590417"><ele>522.0</ele><time>2026-04-05T13:02:36.978Z</time></trkpt><trkpt lat="43.8211364" lon="11.958849"><ele>522.0</ele><time>2026-04-05T13:02:37.98Z</time></trkpt><trkpt lat="43.8213615" lon="11.958682"><ele>522.0</ele><time>2026-04-05T13:02:38.98Z</time></trkpt><trkpt lat="43.8215924" lon="11.9585363"><ele>516.5</ele><time>2026-04-05T13:02:39.98Z</time></trkpt><trkpt lat="43.8218357" lon="11.9584206"><ele>511.0</ele><time>2026-04-05T13:02:40.98Z</time></trkpt><trkpt lat="43.8220891" lon="11.9583233"><ele>511.0</ele><time>2026-04-05T13:02:41.98Z</time></trkpt><trkpt lat="43.8223505" lon="11.9582791"><ele>511.0</ele><time>2026-04-05T13:02:42.979Z</time></trkpt><trkpt lat="43.8226162" lon="11.9582487"><ele>509.0</ele><time>2026-04-05T13:02:43.979Z</time></trkpt><trkpt lat="43.8228794" lon="11.9582383"><ele>507.0</ele><time>2026-04-05T13:02:44.979Z</time></trkpt><trkpt lat="43.823144" lon="11.9582625"><ele>507.0</ele><time>2026-04-05T13:02:45.98Z</time></trkpt><trkpt lat="43.8234093" lon="11.9583093"><ele>507.0</ele><time>2026-04-05T13:02:46.979Z</time></trkpt><trkpt lat="43.8236762" lon="11.9583721"><ele>508.0</ele><time>2026-04-05T13:02:47.98Z</time></trkpt><trkpt lat="43.8239448" lon="11.9584773"><ele>509.0</ele><time>2026-04-05T13:02:48.98Z</time></trkpt><trkpt lat="43.8242071" lon="11.9585953"><ele>507.5</ele><time>2026-04-05T13:02:49.98Z</time></trkpt><trkpt lat="43.8244609" lon="11.9587131"><ele>506.0</ele><time>2026-04-05T13:02:50.979Z</time></trkpt><trkpt lat="43.8247161" lon="11.9588364"><ele>506.0</ele><time>2026-04-05T13:02:51.98Z</time></trkpt><trkpt lat="43.8249681" lon="11.9589587"><ele>506.0</ele><time>2026-04-05T13:02:52.979Z</time></trkpt><trkpt lat="43.8252195" lon="11.9590746"><ele>506.5</ele><time>2026-04-05T13:02:53.98Z</time></trkpt><trkpt lat="43.8254687" lon="11.9591887"><ele>507.0</ele><time>2026-04-05T13:02:54.979Z</time></trkpt><trkpt lat="43.825719" lon="11.9592992"><ele>509.0</ele><time>2026-04-05T13:02:55.979Z</time></trkpt><trkpt lat="43.8259631" lon="11.9594119"><ele>511.0</ele><time>2026-04-05T13:02:56.979Z</time></trkpt><trkpt lat="43.8262096" lon="11.9595233"><ele>511.0</ele><time>2026-04-05T13:02:57.98Z</time></trkpt><trkpt lat="43.8264536" lon="11.9596352"><ele>511.0</ele><time>2026-04-05T13:02:58.98Z</time></trkpt><trkpt lat="43.8266981" lon="11.9597467"><ele>507.0</ele><time>2026-04-05T13:02:59.98Z</time></trkpt><trkpt lat="43.8269363" lon="11.959858"><ele>503.0</ele><time>2026-04-05T13:03:00.979Z</time></trkpt><trkpt lat="43.8271719" lon="11.959975"><ele>516.5</ele><time>2026-04-05T13:03:01.98Z</time></trkpt><trkpt lat="43.8274022" lon="11.9601016"><ele>530.0</ele><time>2026-04-05T13:03:02.98Z</time></trkpt><trkpt lat="43.8276261" lon="11.9602436"><ele>527.5</ele><time>2026-04-05T13:03:03.979Z</time></trkpt><trkpt lat="43.827856" lon="11.9604026"><ele>525.0</ele><time>2026-04-05T13:03:04.98Z</time></trkpt><trkpt lat="43.8280731" lon="11.9605693"><ele>525.0</ele><time>2026-04-05T13:03:05.98Z</time></trkpt><trkpt lat="43.8282932" lon="11.9607446"><ele>525.0</ele><time>2026-04-05T13:03:06.98Z</time></trkpt><trkpt lat="43.8285168" lon="11.9609174"><ele>532.0</ele><time>2026-04-05T13:03:07.98Z</time></trkpt><trkpt lat="43.8287393" lon="11.961083"><ele>539.0</ele><time>2026-04-05T13:03:08.98Z</time></trkpt><trkpt lat="43.8289637" lon="11.9612542"><ele>539.0</ele><time>2026-04-05T13:03:09.98Z</time></trkpt><trkpt lat="43.829187" lon="11.9614236"><ele>539.0</ele><time>2026-04-05T13:03:10.979Z</time></trkpt><trkpt lat="43.829409" lon="11.9615959"><ele>539.0</ele><time>2026-04-05T13:03:11.98Z</time></trkpt><trkpt lat="43.8288226" lon="11.9611433"><ele>571.0</ele><time>2026-04-05T13:03:20.283Z</time></trkpt><trkpt lat="43.8300518" lon="11.9620461"><ele>583.5</ele><time>2026-04-05T13:03:26.325Z</time></trkpt><trkpt lat="43.830228" lon="11.9621037"><ele>596.0</ele><time>2026-04-05T13:03:34.937Z</time></trkpt><trkpt lat="43.82892" lon="11.9612159"><ele>596.0</ele><time>2026-04-05T13:03:43.432Z</time></trkpt><trkpt lat="43.828776" lon="11.9611342"><ele>596.0</ele><time>2026-04-05T13:03:51.822Z</time></trkpt><trkpt lat="43.8301619" lon="11.9621259"><ele>481.0</ele><time>2026-04-05T13:04:08.731Z</time></trkpt><trkpt lat="43.8443971" lon="11.9730569"><ele>481.0</ele><time>2026-04-05T13:04:18.98Z</time></trkpt><trkpt lat="43.8446126" lon="11.9732281"><ele>481.0</ele><time>2026-04-05T13:04:19.98Z</time></trkpt><trkpt lat="43.8448293" lon="11.973399"><ele>480.5</ele><time>2026-04-05T13:04:20.979Z</time></trkpt><trkpt lat="43.8450474" lon="11.9735699"><ele>480.0</ele><time>2026-04-05T13:04:21.979Z</time></trkpt><trkpt lat="43.8452589" lon="11.9737514"><ele>480.0</ele><time>2026-04-05T13:04:22.979Z</time></trkpt><trkpt lat="43.8454723" lon="11.9739365"><ele>480.0</ele><time>2026-04-05T13:04:23.98Z</time></trkpt><trkpt lat="43.845682" lon="11.9741286"><ele>478.5</ele><time>2026-04-05T13:04:24.98Z</time></trkpt><trkpt lat="43.8458919" lon="11.9743201"><ele>477.0</ele><time>2026-04-05T13:04:25.98Z</time></trkpt><trkpt lat="43.8461012" lon="11.9745105"><ele>477.0</ele><time>2026-04-05T13:04:26.98Z</time></trkpt><trkpt lat="43.8463075" lon="11.9747044"><ele>477.0</ele><time>2026-04-05T13:04:27.98Z</time></trkpt><trkpt lat="43.846522" lon="11.9748901"><ele>475.0</ele><time>2026-04-05T13:04:28.98Z</time></trkpt><trkpt lat="43.8467361" lon="11.9750761"><ele>473.0</ele><time>2026-04-05T13:04:29.98Z</time></trkpt><trkpt lat="43.846949" lon="11.9752652"><ele>473.0</ele><time>2026-04-05T13:04:30.98Z</time></trkpt><trkpt lat="43.8471645" lon="11.9754552"><ele>473.0</ele><time>2026-04-05T13:04:31.979Z</time></trkpt><trkpt lat="43.8473796" lon="11.9756458"><ele>473.0</ele><time>2026-04-05T13:04:32.979Z</time></trkpt><trkpt lat="43.8475947" lon="11.9758408"><ele>473.0</ele><time>2026-04-05T13:04:33.979Z</time></trkpt><trkpt lat="43.8478061" lon="11.9760415"><ele>473.5</ele><time>2026-04-05T13:04:34.979Z</time></trkpt><trkpt lat="43.8480257" lon="11.9762358"><ele>474.0</ele><time>2026-04-05T13:04:35.98Z</time></trkpt><trkpt lat="43.8482445" lon="11.9764271"><ele>473.0</ele><time>2026-04-05T13:04:36.98Z</time></trkpt><trkpt lat="43.8484625" lon="11.9766233"><ele>472.0</ele><time>2026-04-05T13:04:37.98Z</time></trkpt><trkpt lat="43.8486803" lon="11.9768178"><ele>474.0</ele><time>2026-04-05T13:04:38.98Z</time></trkpt><trkpt lat="43.8488984" lon="11.9770113"><ele>476.0</ele><time>2026-04-05T13:04:39.98Z</time></trkpt><trkpt lat="43.8491192" lon="11.9772027"><ele>473.5</ele><time>2026-04-05T13:04:40.98Z</time></trkpt><trkpt lat="43.8493355" lon="11.9773964"><ele>471.0</ele><time>2026-04-05T13:04:41.979Z</time></trkpt><trkpt lat="43.8495484" lon="11.9775849"><ele>478.0</ele><time>2026-04-05T13:04:42.98Z</time></trkpt><trkpt lat="43.849767" lon="11.977776"><ele>485.0</ele><time>2026-04-05T13:04:43.98Z</time></trkpt><trkpt lat="43.8499856" lon="11.9779577"><ele>480.0</ele><time>2026-04-05T13:04:44.979Z</time></trkpt><trkpt lat="43.8502064" lon="11.9781249"><ele>475.0</ele><time>2026-04-05T13:04:45.98Z</time></trkpt><trkpt lat="43.8504289" lon="11.9782895"><ele>481.0</ele><time>2026-04-05T13:04:46.98Z</time></trkpt><trkpt lat="43.8506499" lon="11.9784416"><ele>487.0</ele><time>2026-04-05T13:04:47.98Z</time></trkpt><trkpt lat="43.8508713" lon="11.9785864"><ele>481.5</ele><time>2026-04-05T13:04:48.98Z</time></trkpt><trkpt lat="43.8510906" lon="11.9787279"><ele>476.0</ele><time>2026-04-05T13:04:49.979Z</time></trkpt><trkpt lat="43.8513123" lon="11.9788557"><ele>476.0</ele><time>2026-04-05T13:04:50.979Z</time></trkpt><trkpt lat="43.8515347" lon="11.978979"><ele>476.0</ele><time>2026-04-05T13:04:51.98Z</time></trkpt><trkpt lat="43.8517585" lon="11.9790961"><ele>485.0</ele><time>2026-04-05T13:04:52.98Z</time></trkpt><trkpt lat="43.8519836" lon="11.9792046"><ele>494.0</ele><time>2026-04-05T13:04:53.979Z</time></trkpt><trkpt lat="43.8522107" lon="11.9793086"><ele>494.0</ele><time>2026-04-05T13:04:54.979Z</time></trkpt><trkpt lat="43.8524359" lon="11.9794076"><ele>494.0</ele><time>2026-04-05T13:04:55.98Z</time></trkpt><trkpt lat="43.8526617" lon="11.9795032"><ele>494.5</ele><time>2026-04-05T13:04:56.98Z</time></trkpt><trkpt lat="43.8528918" lon="11.9795953"><ele>495.0</ele><time>2026-04-05T13:04:57.98Z</time></trkpt><trkpt lat="43.8531257" lon="11.9796883"><ele>495.0</ele><time>2026-04-05T13:04:58.979Z</time></trkpt><trkpt lat="43.8533623" lon="11.9797805"><ele>495.0</ele><time>2026-04-05T13:04:59.98Z</time></trkpt><trkpt lat="43.8536018" lon="11.9798731"><ele>492.0</ele><time>2026-04-05T13:05:00.98Z</time></trkpt><trkpt lat="43.8538418" lon="11.9799673"><ele>489.0</ele><time>2026-04-05T13:05:01.979Z</time></trkpt><trkpt lat="43.854084" lon="11.9800614"><ele>493.0</ele><time>2026-04-05T13:05:02.98Z</time></trkpt><trkpt lat="43.8543277" lon="11.9801561"><ele>497.0</ele><time>2026-04-05T13:05:03.98Z</time></trkpt><trkpt lat="43.8545713" lon="11.9802523"><ele>497.0</ele><time>2026-04-05T13:05:04.979Z</time></trkpt><trkpt lat="43.8548172" lon="11.9803488"><ele>497.0</ele><time>2026-04-05T13:05:05.98Z</time></trkpt><trkpt lat="43.8550635" lon="11.9804478"><ele>496.0</ele><time>2026-04-05T13:05:06.98Z</time></trkpt><trkpt lat="43.8553106" lon="11.980547"><ele>495.0</ele><time>2026-04-05T13:05:07.98Z</time></trkpt><trkpt lat="43.8555564" lon="11.9806462"><ele>495.0</ele><time>2026-04-05T13:05:08.98Z</time></trkpt><trkpt lat="43.8558055" lon="11.9807475"><ele>495.0</ele><time>2026-04-05T13:05:09.979Z</time></trkpt><trkpt lat="43.8560503" lon="11.9808457"><ele>502.0</ele><time>2026-04-05T13:05:10.978Z</time></trkpt><trkpt lat="43.8562967" lon="11.9809431"><ele>509.0</ele><time>2026-04-05T13:05:11.98Z</time></trkpt><trkpt lat="43.8565449" lon="11.9810411"><ele>506.5</ele><time>2026-04-05T13:05:12.98Z</time></trkpt><trkpt lat="43.856792" lon="11.9811397"><ele>504.0</ele><time>2026-04-05T13:05:13.98Z</time></trkpt><trkpt lat="43.8570378" lon="11.9812374"><ele>504.0</ele><time>2026-04-05T13:05:14.978Z</time></trkpt><trkpt lat="43.8572829" lon="11.9813335"><ele>504.0</ele><time>2026-04-05T13:05:15.98Z</time></trkpt><trkpt lat="43.857525" lon="11.9814275"><ele>495.0</ele><time>2026-04-05T13:05:16.98Z</time></trkpt><trkpt lat="43.8577675" lon="11.9815246"><ele>486.0</ele><time>2026-04-05T13:05:17.979Z</time></trkpt><trkpt lat="43.8580137" lon="11.9816169"><ele>484.0</ele><time>2026-04-05T13:05:18.98Z</time></trkpt><trkpt lat="43.8582553" lon="11.981704"><ele>482.0</ele><time>2026-04-05T13:05:19.98Z</time></trkpt><trkpt lat="43.8584995" lon="11.9817768"><ele>482.0</ele><time>2026-04-05T13:05:20.98Z</time></trkpt><trkpt lat="43.8587432" lon="11.9818309"><ele>482.0</ele><time>2026-04-05T13:05:21.979Z</time></trkpt><trkpt lat="43.8589895" lon="11.9818642"><ele>482.0</ele><time>2026-04-05T13:05:22.979Z</time></trkpt><trkpt lat="43.8592515" lon="11.9818867"><ele>482.0</ele><time>2026-04-05T13:05:23.98Z</time></trkpt><trkpt lat="43.8594996" lon="11.9818724"><ele>477.0</ele><time>2026-04-05T13:05:24.979Z</time></trkpt><trkpt lat="43.8597465" lon="11.9818299"><ele>472.0</ele><time>2026-04-05T13:05:25.98Z</time></trkpt><trkpt lat="43.8599938" lon="11.9817618"><ele>464.5</ele><time>2026-04-05T13:05:26.979Z</time></trkpt><trkpt lat="43.8602357" lon="11.9816694"><ele>457.0</ele><time>2026-04-05T13:05:27.98Z</time></trkpt><trkpt lat="43.8604756" lon="11.9815577"><ele>457.0</ele><time>2026-04-05T13:05:28.98Z</time></trkpt><trkpt lat="43.8607126" lon="11.9814265"><ele>457.0</ele><time>2026-04-05T13:05:29.98Z</time></trkpt><trkpt lat="43.8609471" lon="11.9812848"><ele>457.5</ele><time>2026-04-05T13:05:30.979Z</time></trkpt><trkpt lat="43.861182" lon="11.9811371"><ele>458.0</ele><time>2026-04-05T13:05:31.979Z</time></trkpt><trkpt lat="43.8614177" lon="11.9809871"><ele>457.0</ele><time>2026-04-05T13:05:32.979Z</time></trkpt><trkpt lat="43.861654" lon="11.9808396"><ele>456.0</ele><time>2026-04-05T13:05:33.979Z</time></trkpt><trkpt lat="43.8618931" lon="11.9807006"><ele>454.5</ele><time>2026-04-05T13:05:34.98Z</time></trkpt><trkpt lat="43.8621389" lon="11.9805712"><ele>453.0</ele><time>2026-04-05T13:05:35.979Z</time></trkpt><trkpt lat="43.8623912" lon="11.9804578"><ele>454.0</ele><time>2026-04-05T13:05:36.979Z</time></trkpt><trkpt lat="43.8626504" lon="11.980364"><ele>455.0</ele><time>2026-04-05T13:05:37.98Z</time></trkpt><trkpt lat="43.8629136" lon="11.9802868"><ele>455.0</ele><time>2026-04-05T13:05:38.98Z</time></trkpt><trkpt lat="43.8631798" lon="11.9802208"><ele>455.0</ele><time>2026-04-05T13:05:39.978Z</time></trkpt><trkpt lat="43.8634446" lon="11.9801595"><ele>455.5</ele><time>2026-04-05T13:05:40.98Z</time></trkpt><trkpt lat="43.8637115" lon="11.9801012"><ele>456.0</ele><time>2026-04-05T13:05:41.979Z</time></trkpt><trkpt lat="43.8639778" lon="11.9800408"><ele>456.0</ele><time>2026-04-05T13:05:42.98Z</time></trkpt><trkpt lat="43.8642431" lon="11.9799794"><ele>456.0</ele><time>2026-04-05T13:05:43.979Z</time></trkpt><trkpt lat="43.8645087" lon="11.9799177"><ele>454.0</ele><time>2026-04-05T13:05:44.979Z</time></trkpt><trkpt lat="43.8647734" lon="11.9798586"><ele>452.0</ele><time>2026-04-05T13:05:45.98Z</time></trkpt><trkpt lat="43.8650374" lon="11.9797973"><ele>453.0</ele><time>2026-04-05T13:05:46.979Z</time></trkpt><trkpt lat="43.8652984" lon="11.9797393"><ele>454.0</ele><time>2026-04-05T13:05:47.98Z</time></trkpt><trkpt lat="43.8655582" lon="11.9796816"><ele>454.0</ele><time>2026-04-05T13:05:48.979Z</time></trkpt><trkpt lat="43.8658172" lon="11.9796289"><ele>454.0</ele><time>2026-04-05T13:05:49.98Z</time></trkpt><trkpt lat="43.8660754" lon="11.9795905"><ele>454.0</ele><time>2026-04-05T13:05:50.979Z</time></trkpt><trkpt lat="43.8663326" lon="11.9795606"><ele>454.0</ele><time>2026-04-05T13:05:51.98Z</time></trkpt><trkpt lat="43.8665845" lon="11.9795472"><ele>455.5</ele><time>2026-04-05T13:05:52.98Z</time></trkpt><trkpt lat="43.8668376" lon="11.9795583"><ele>457.0</ele><time>2026-04-05T13:05:53.978Z</time></trkpt><trkpt lat="43.8670943" lon="11.9796026"><ele>457.0</ele><time>2026-04-05T13:05:54.98Z</time></trkpt><trkpt lat="43.867345" lon="11.9796685"><ele>457.0</ele><time>2026-04-05T13:05:55.98Z</time></trkpt><trkpt lat="43.8675964" lon="11.979756"><ele>458.0</ele><time>2026-04-05T13:05:56.98Z</time></trkpt><trkpt lat="43.867843" lon="11.9798519"><ele>459.0</ele><time>2026-04-05T13:05:57.979Z</time></trkpt><trkpt lat="43.8680896" lon="11.9799462"><ele>455.5</ele><time>2026-04-05T13:05:58.98Z</time></trkpt><trkpt lat="43.8683331" lon="11.9800456"><ele>452.0</ele><time>2026-04-05T13:05:59.98Z</time></trkpt><trkpt lat="43.8685765" lon="11.9801446"><ele>452.0</ele><time>2026-04-05T13:06:00.98Z</time></trkpt><trkpt lat="43.8688191" lon="11.9802477"><ele>452.0</ele><time>2026-04-05T13:06:01.98Z</time></trkpt><trkpt lat="43.8690596" lon="11.9803579"><ele>453.5</ele><time>2026-04-05T13:06:02.98Z</time></trkpt><trkpt lat="43.8692935" lon="11.9804856"><ele>455.0</ele><time>2026-04-05T13:06:03.98Z</time></trkpt><trkpt lat="43.8695244" lon="11.9806259"><ele>455.0</ele><time>2026-04-05T13:06:04.98Z</time></trkpt><trkpt lat="43.8697528" lon="11.9807783"><ele>455.0</ele><time>2026-04-05T13:06:05.98Z</time></trkpt><trkpt lat="43.869978" lon="11.9809387"><ele>455.5</ele><time>2026-04-05T13:06:06.979Z</time></trkpt><trkpt lat="43.8701998" lon="11.9811131"><ele>456.0</ele><time>2026-04-05T13:06:07.98Z</time></trkpt><trkpt lat="43.8704158" lon="11.9812966"><ele>456.0</ele><time>2026-04-05T13:06:08.98Z</time></trkpt><trkpt lat="43.8706289" lon="11.9814928"><ele>456.0</ele><time>2026-04-05T13:06:09.98Z</time></trkpt><trkpt lat="43.8708336" lon="11.9817024"><ele>455.5</ele><time>2026-04-05T13:06:10.98Z</time></trkpt><trkpt lat="43.8710291" lon="11.9819306"><ele>455.0</ele><time>2026-04-05T13:06:11.977Z</time></trkpt><trkpt lat="43.8712144" lon="11.9821701"><ele>455.0</ele><time>2026-04-05T13:06:12.98Z</time></trkpt><trkpt lat="43.8713888" lon="11.9824296"><ele>455.0</ele><time>2026-04-05T13:06:13.98Z</time></trkpt><trkpt lat="43.8715536" lon="11.9827021"><ele>451.0</ele><time>2026-04-05T13:06:14.979Z</time></trkpt><trkpt lat="43.8717115" lon="11.9829859"><ele>447.0</ele><time>2026-04-05T13:06:15.98Z</time></trkpt><trkpt lat="43.8718587" lon="11.9832869"><ele>454.0</ele><time>2026-04-05T13:06:16.979Z</time></trkpt><trkpt lat="43.8720031" lon="11.9835932"><ele>461.0</ele><time>2026-04-05T13:06:17.98Z</time></trkpt><trkpt lat="43.8721411" lon="11.9839086"><ele>453.5</ele><time>2026-04-05T13:06:18.98Z</time></trkpt><trkpt lat="43.8722751" lon="11.9842239"><ele>446.0</ele><time>2026-04-05T13:06:19.98Z</time></trkpt><trkpt lat="43.8724103" lon="11.9845364"><ele>446.0</ele><time>2026-04-05T13:06:20.98Z</time></trkpt><trkpt lat="43.8725474" lon="11.9848452"><ele>446.0</ele><time>2026-04-05T13:06:21.979Z</time></trkpt><trkpt lat="43.8726844" lon="11.9851546"><ele>449.5</ele><time>2026-04-05T13:06:22.98Z</time></trkpt><trkpt lat="43.8728183" lon="11.9854673"><ele>453.0</ele><time>2026-04-05T13:06:23.98Z</time></trkpt><trkpt lat="43.8729488" lon="11.9857765"><ele>445.0</ele><time>2026-04-05T13:06:24.98Z</time></trkpt><trkpt lat="43.8730841" lon="11.9860857"><ele>437.0</ele><time>2026-04-05T13:06:25.98Z</time></trkpt><trkpt lat="43.8732158" lon="11.9863986"><ele>431.5</ele><time>2026-04-05T13:06:26.98Z</time></trkpt><trkpt lat="43.8733505" lon="11.9867093"><ele>426.0</ele><time>2026-04-05T13:06:27.979Z</time></trkpt><trkpt lat="43.8734843" lon="11.9870204"><ele>437.5</ele><time>2026-04-05T13:06:28.98Z</time></trkpt><trkpt lat="43.8736189" lon="11.9873304"><ele>449.0</ele><time>2026-04-05T13:06:29.98Z</time></trkpt><trkpt lat="43.8737551" lon="11.9876406"><ele>449.0</ele><time>2026-04-05T13:06:30.98Z</time></trkpt><trkpt lat="43.8738908" lon="11.9879513"><ele>449.0</ele><time>2026-04-05T13:06:31.979Z</time></trkpt><trkpt lat="43.8740267" lon="11.9882622"><ele>452.0</ele><time>2026-04-05T13:06:32.979Z</time></trkpt><trkpt lat="43.8741647" lon="11.988576"><ele>455.0</ele><time>2026-04-05T13:06:33.98Z</time></trkpt><trkpt lat="43.8743001" lon="11.9888877"><ele>449.0</ele><time>2026-04-05T13:06:34.979Z</time></trkpt><trkpt lat="43.8744362" lon="11.989197"><ele>443.0</ele><time>2026-04-05T13:06:35.979Z</time></trkpt><trkpt lat="43.8745778" lon="11.9895068"><ele>443.0</ele><time>2026-04-05T13:06:36.98Z</time></trkpt><trkpt lat="43.8747209" lon="11.9898152"><ele>443.0</ele><time>2026-04-05T13:06:37.98Z</time></trkpt><trkpt lat="43.8748681" lon="11.9901234"><ele>443.5</ele><time>2026-04-05T13:06:38.98Z</time></trkpt><trkpt lat="43.8750183" lon="11.9904346"><ele>444.0</ele><time>2026-04-05T13:06:39.98Z</time></trkpt><trkpt lat="43.8751719" lon="11.9907445"><ele>436.0</ele><time>2026-04-05T13:06:40.979Z</time></trkpt><trkpt lat="43.875332" lon="11.9910511"><ele>428.0</ele><time>2026-04-05T13:06:41.979Z</time></trkpt><trkpt lat="43.87549" lon="11.9913597"><ele>428.0</ele><time>2026-04-05T13:06:42.98Z</time></trkpt><trkpt lat="43.8756492" lon="11.9916639"><ele>428.0</ele><time>2026-04-05T13:06:43.98Z</time></trkpt><trkpt lat="43.8758112" lon="11.9919679"><ele>423.5</ele><time>2026-04-05T13:06:44.98Z</time></trkpt><trkpt lat="43.8759718" lon="11.9922687"><ele>419.0</ele><time>2026-04-05T13:06:45.98Z</time></trkpt><trkpt lat="43.8761403" lon="11.9925627"><ele>419.0</ele><time>2026-04-05T13:06:46.98Z</time></trkpt><trkpt lat="43.8763081" lon="11.9928569"><ele>419.0</ele><time>2026-04-05T13:06:47.979Z</time></trkpt><trkpt lat="43.8764781" lon="11.9931484"><ele>423.5</ele><time>2026-04-05T13:06:48.98Z</time></trkpt><trkpt lat="43.8766487" lon="11.9934387"><ele>428.0</ele><time>2026-04-05T13:06:49.98Z</time></trkpt><trkpt lat="43.876826" lon="11.9937254"><ele>428.0</ele><time>2026-04-05T13:06:50.979Z</time></trkpt><trkpt lat="43.8770009" lon="11.9940088"><ele>428.0</ele><time>2026-04-05T13:06:51.98Z</time></trkpt><trkpt lat="43.8771803" lon="11.9942924"><ele>421.0</ele><time>2026-04-05T13:06:52.98Z</time></trkpt><trkpt lat="43.8773606" lon="11.9945724"><ele>414.0</ele><time>2026-04-05T13:06:53.98Z</time></trkpt><trkpt lat="43.8775442" lon="11.9948454"><ele>415.0</ele><time>2026-04-05T13:06:54.98Z</time></trkpt><trkpt lat="43.8777278" lon="11.9951174"><ele>416.0</ele><time>2026-04-05T13:06:55.979Z</time></trkpt><trkpt lat="43.8779138" lon="11.9953862"><ele>416.0</ele><time>2026-04-05T13:06:56.98Z</time></trkpt><trkpt lat="43.8781014" lon="11.9956539"><ele>416.0</ele><time>2026-04-05T13:06:57.98Z</time></trkpt><trkpt lat="43.8782919" lon="11.9959165"><ele>414.5</ele><time>2026-04-05T13:06:58.979Z</time></trkpt><trkpt lat="43.8784846" lon="11.9961775"><ele>413.0</ele><time>2026-04-05T13:06:59.979Z</time></trkpt><trkpt lat="43.8786772" lon="11.9964356"><ele>408.0</ele><time>2026-04-05T13:07:00.98Z</time></trkpt><trkpt lat="43.8788737" lon="11.9966924"><ele>403.0</ele><time>2026-04-05T13:07:01.98Z</time></trkpt><trkpt lat="43.8790701" lon="11.9969469"><ele>402.0</ele><time>2026-04-05T13:07:02.979Z</time></trkpt><trkpt lat="43.8792704" lon="11.9971995"><ele>401.0</ele><time>2026-04-05T13:07:03.979Z</time></trkpt><trkpt lat="43.8794711" lon="11.9974513"><ele>397.0</ele><time>2026-04-05T13:07:04.98Z</time></trkpt><trkpt lat="43.8796711" lon="11.9977033"><ele>393.0</ele><time>2026-04-05T13:07:05.98Z</time></trkpt><trkpt lat="43.8798741" lon="11.9979542"><ele>393.0</ele><time>2026-04-05T13:07:06.98Z</time></trkpt><trkpt lat="43.880074" lon="11.9982092"><ele>393.0</ele><time>2026-04-05T13:07:07.98Z</time></trkpt><trkpt lat="43.8802721" lon="11.9984663"><ele>388.5</ele><time>2026-04-05T13:07:08.98Z</time></trkpt><trkpt lat="43.8804617" lon="11.9987328"><ele>384.0</ele><time>2026-04-05T13:07:09.979Z</time></trkpt><trkpt lat="43.8806479" lon="11.9990053"><ele>386.5</ele><time>2026-04-05T13:07:10.98Z</time></trkpt><trkpt lat="43.8808199" lon="11.9992979"><ele>389.0</ele><time>2026-04-05T13:07:11.98Z</time></trkpt><trkpt lat="43.8809758" lon="11.9996036"><ele>389.0</ele><time>2026-04-05T13:07:12.98Z</time></trkpt><trkpt lat="43.8811186" lon="11.99992"><ele>389.0</ele><time>2026-04-05T13:07:13.98Z</time></trkpt><trkpt lat="43.8812482" lon="12.0002564"><ele>389.0</ele><time>2026-04-05T13:07:14.979Z</time></trkpt><trkpt lat="43.8813621" lon="12.0005975"><ele>389.0</ele><time>2026-04-05T13:07:15.977Z</time></trkpt><trkpt lat="43.8814628" lon="12.0009485"><ele>384.5</ele><time>2026-04-05T13:07:16.979Z</time></trkpt><trkpt lat="43.8815585" lon="12.0013124"><ele>380.0</ele><time>2026-04-05T13:07:17.979Z</time></trkpt><trkpt lat="43.8816344" lon="12.0016797"><ele>378.0</ele><time>2026-04-05T13:07:18.98Z</time></trkpt><trkpt lat="43.8816882" lon="12.0020542"><ele>376.0</ele><time>2026-04-05T13:07:19.979Z</time></trkpt><trkpt lat="43.8817279" lon="12.0024373"><ele>375.0</ele><time>2026-04-05T13:07:20.979Z</time></trkpt><trkpt lat="43.8817518" lon="12.0028175"><ele>374.0</ele><time>2026-04-05T13:07:21.98Z</time></trkpt><trkpt lat="43.8817636" lon="12.003201"><ele>376.5</ele><time>2026-04-05T13:07:22.98Z</time></trkpt><trkpt lat="43.8817739" lon="12.003585"><ele>379.0</ele><time>2026-04-05T13:07:23.98Z</time></trkpt><trkpt lat="43.8817846" lon="12.0039705"><ele>380.0</ele><time>2026-04-05T13:07:24.98Z</time></trkpt><trkpt lat="43.8817917" lon="12.0043515"><ele>381.0</ele><time>2026-04-05T13:07:25.98Z</time></trkpt><trkpt lat="43.8817996" lon="12.0047315"><ele>383.0</ele><time>2026-04-05T13:07:26.98Z</time></trkpt><trkpt lat="43.8818066" lon="12.0051121"><ele>385.0</ele><time>2026-04-05T13:07:27.979Z</time></trkpt><trkpt lat="43.8818163" lon="12.0054879"><ele>382.5</ele><time>2026-04-05T13:07:28.979Z</time></trkpt><trkpt lat="43.8818246" lon="12.0058603"><ele>380.0</ele><time>2026-04-05T13:07:29.979Z</time></trkpt><trkpt lat="43.8818336" lon="12.0062293"><ele>380.0</ele><time>2026-04-05T13:07:30.98Z</time></trkpt><trkpt lat="43.8818432" lon="12.0066005"><ele>380.0</ele><time>2026-04-05T13:07:31.98Z</time></trkpt><trkpt lat="43.8818531" lon="12.006968"><ele>379.0</ele><time>2026-04-05T13:07:32.98Z</time></trkpt><trkpt lat="43.8818593" lon="12.0073367"><ele>378.0</ele><time>2026-04-05T13:07:33.98Z</time></trkpt><trkpt lat="43.8818687" lon="12.0077031"><ele>376.0</ele><time>2026-04-05T13:07:34.98Z</time></trkpt><trkpt lat="43.8818799" lon="12.0080683"><ele>374.0</ele><time>2026-04-05T13:07:35.978Z</time></trkpt><trkpt lat="43.88189" lon="12.0084312"><ele>371.0</ele><time>2026-04-05T13:07:36.979Z</time></trkpt><trkpt lat="43.8818998" lon="12.0087995"><ele>368.0</ele><time>2026-04-05T13:07:37.979Z</time></trkpt><trkpt lat="43.8819073" lon="12.0091594"><ele>367.0</ele><time>2026-04-05T13:07:38.98Z</time></trkpt><trkpt lat="43.8819172" lon="12.009524"><ele>366.0</ele><time>2026-04-05T13:07:39.977Z</time></trkpt><trkpt lat="43.8819253" lon="12.0098864"><ele>365.0</ele><time>2026-04-05T13:07:40.98Z</time></trkpt><trkpt lat="43.8819351" lon="12.0102523"><ele>364.0</ele><time>2026-04-05T13:07:41.979Z</time></trkpt><trkpt lat="43.8819461" lon="12.0106155"><ele>363.5</ele><time>2026-04-05T13:07:42.979Z</time></trkpt><trkpt lat="43.8819558" lon="12.010984"><ele>363.0</ele><time>2026-04-05T13:07:43.98Z</time></trkpt><trkpt lat="43.8819651" lon="12.0113502"><ele>363.0</ele><time>2026-04-05T13:07:44.98Z</time></trkpt><trkpt lat="43.8819756" lon="12.0117147"><ele>363.0</ele><time>2026-04-05T13:07:45.98Z</time></trkpt><trkpt lat="43.8819857" lon="12.0120794"><ele>363.0</ele><time>2026-04-05T13:07:46.977Z</time></trkpt><trkpt lat="43.8819974" lon="12.0124439"><ele>363.0</ele><time>2026-04-05T13:07:47.98Z</time></trkpt><trkpt lat="43.882006" lon="12.0128072"><ele>364.5</ele><time>2026-04-05T13:07:48.979Z</time></trkpt><trkpt lat="43.8820144" lon="12.013174"><ele>366.0</ele><time>2026-04-05T13:07:49.98Z</time></trkpt><trkpt lat="43.8820235" lon="12.0135328"><ele>366.5</ele><time>2026-04-05T13:07:50.98Z</time></trkpt><trkpt lat="43.8820312" lon="12.0138973"><ele>367.0</ele><time>2026-04-05T13:07:51.979Z</time></trkpt><trkpt lat="43.882041" lon="12.0142524"><ele>367.0</ele><time>2026-04-05T13:07:52.98Z</time></trkpt><trkpt lat="43.8820513" lon="12.0146104"><ele>367.0</ele><time>2026-04-05T13:07:53.98Z</time></trkpt><trkpt lat="43.8820596" lon="12.0149679"><ele>364.0</ele><time>2026-04-05T13:07:54.98Z</time></trkpt><trkpt lat="43.8820689" lon="12.0153207"><ele>361.0</ele><time>2026-04-05T13:07:55.98Z</time></trkpt><trkpt lat="43.8820811" lon="12.0156731"><ele>358.5</ele><time>2026-04-05T13:07:56.98Z</time></trkpt><trkpt lat="43.8821009" lon="12.0160221"><ele>356.0</ele><time>2026-04-05T13:07:57.98Z</time></trkpt><trkpt lat="43.882134" lon="12.016366"><ele>356.5</ele><time>2026-04-05T13:07:58.98Z</time></trkpt><trkpt lat="43.8821808" lon="12.0167046"><ele>357.0</ele><time>2026-04-05T13:07:59.979Z</time></trkpt><trkpt lat="43.882241" lon="12.0170393"><ele>357.0</ele><time>2026-04-05T13:08:00.98Z</time></trkpt><trkpt lat="43.8823136" lon="12.0173621"><ele>357.0</ele><time>2026-04-05T13:08:01.98Z</time></trkpt><trkpt lat="43.8824014" lon="12.0176766"><ele>358.0</ele><time>2026-04-05T13:08:02.98Z</time></trkpt><trkpt lat="43.8825014" lon="12.0179901"><ele>359.0</ele><time>2026-04-05T13:08:03.98Z</time></trkpt><trkpt lat="43.8826173" lon="12.0182933"><ele>358.5</ele><time>2026-04-05T13:08:04.98Z</time></trkpt><trkpt lat="43.8827479" lon="12.0185981"><ele>358.0</ele><time>2026-04-05T13:08:05.98Z</time></trkpt><trkpt lat="43.8828838" lon="12.0188818"><ele>358.5</ele><time>2026-04-05T13:08:06.98Z</time></trkpt><trkpt lat="43.8830384" lon="12.0191553"><ele>359.0</ele><time>2026-04-05T13:08:07.979Z</time></trkpt><trkpt lat="43.8832046" lon="12.0194157"><ele>359.0</ele><time>2026-04-05T13:08:08.979Z</time></trkpt><trkpt lat="43.8833805" lon="12.019674"><ele>359.0</ele><time>2026-04-05T13:08:09.98Z</time></trkpt><trkpt lat="43.8835776" lon="12.0199033"><ele>359.5</ele><time>2026-04-05T13:08:10.98Z</time></trkpt><trkpt lat="43.883771" lon="12.0201166"><ele>360.0</ele><time>2026-04-05T13:08:11.979Z</time></trkpt><trkpt lat="43.88397" lon="12.0203226"><ele>360.0</ele><time>2026-04-05T13:08:12.979Z</time></trkpt><trkpt lat="43.884177" lon="12.0205184"><ele>360.0</ele><time>2026-04-05T13:08:13.98Z</time></trkpt><trkpt lat="43.8843811" lon="12.0207079"><ele>358.5</ele><time>2026-04-05T13:08:14.98Z</time></trkpt><trkpt lat="43.884584" lon="12.0208997"><ele>357.0</ele><time>2026-04-05T13:08:15.98Z</time></trkpt><trkpt lat="43.8847837" lon="12.0210878"><ele>357.0</ele><time>2026-04-05T13:08:16.98Z</time></trkpt><trkpt lat="43.8849728" lon="12.0212961"><ele>357.0</ele><time>2026-04-05T13:08:17.98Z</time></trkpt><trkpt lat="43.8851558" lon="12.0215129"><ele>353.5</ele><time>2026-04-05T13:08:18.98Z</time></trkpt><trkpt lat="43.8853277" lon="12.0217438"><ele>350.0</ele><time>2026-04-05T13:08:19.98Z</time></trkpt><trkpt lat="43.8854982" lon="12.0219849"><ele>350.0</ele><time>2026-04-05T13:08:20.979Z</time></trkpt><trkpt lat="43.8856592" lon="12.0222345"><ele>350.0</ele><time>2026-04-05T13:08:21.98Z</time></trkpt><trkpt lat="43.8858092" lon="12.0225015"><ele>352.5</ele><time>2026-04-05T13:08:22.979Z</time></trkpt><trkpt lat="43.8859423" lon="12.0227749"><ele>355.0</ele><time>2026-04-05T13:08:23.978Z</time></trkpt><trkpt lat="43.8860676" lon="12.023074"><ele>354.5</ele><time>2026-04-05T13:08:24.979Z</time></trkpt><trkpt lat="43.8861823" lon="12.0233668"><ele>354.0</ele><time>2026-04-05T13:08:25.979Z</time></trkpt><trkpt lat="43.8862815" lon="12.023677"><ele>354.0</ele><time>2026-04-05T13:08:26.979Z</time></trkpt><trkpt lat="43.8863755" lon="12.023996"><ele>354.0</ele><time>2026-04-05T13:08:27.98Z</time></trkpt><trkpt lat="43.8864573" lon="12.0243193"><ele>352.5</ele><time>2026-04-05T13:08:28.98Z</time></trkpt><trkpt lat="43.8865193" lon="12.0246491"><ele>351.0</ele><time>2026-04-05T13:08:29.98Z</time></trkpt><trkpt lat="43.8865685" lon="12.0249777"><ele>349.0</ele><time>2026-04-05T13:08:30.98Z</time></trkpt><trkpt lat="43.8866063" lon="12.0253144"><ele>347.0</ele><time>2026-04-05T13:08:31.979Z</time></trkpt><trkpt lat="43.8866443" lon="12.0256505"><ele>347.5</ele><time>2026-04-05T13:08:32.98Z</time></trkpt><trkpt lat="43.8866762" lon="12.025986"><ele>348.0</ele><time>2026-04-05T13:08:33.977Z</time></trkpt><trkpt lat="43.8867029" lon="12.0263294"><ele>345.5</ele><time>2026-04-05T13:08:34.979Z</time></trkpt><trkpt lat="43.8867318" lon="12.0266715"><ele>343.0</ele><time>2026-04-05T13:08:35.98Z</time></trkpt><trkpt lat="43.8867541" lon="12.0270159"><ele>357.5</ele><time>2026-04-05T13:08:36.98Z</time></trkpt><trkpt lat="43.886782" lon="12.0273592"><ele>372.0</ele><time>2026-04-05T13:08:37.979Z</time></trkpt><trkpt lat="43.886811" lon="12.0277028"><ele>377.5</ele><time>2026-04-05T13:08:38.979Z</time></trkpt><trkpt lat="43.886847" lon="12.0280427"><ele>383.0</ele><time>2026-04-05T13:08:39.98Z</time></trkpt><trkpt lat="43.8868923" lon="12.0283792"><ele>383.0</ele><time>2026-04-05T13:08:40.98Z</time></trkpt><trkpt lat="43.8869482" lon="12.0287084"><ele>383.0</ele><time>2026-04-05T13:08:41.98Z</time></trkpt><trkpt lat="43.8870171" lon="12.029035"><ele>378.0</ele><time>2026-04-05T13:08:42.98Z</time></trkpt><trkpt lat="43.8870957" lon="12.0293609"><ele>373.0</ele><time>2026-04-05T13:08:43.979Z</time></trkpt><trkpt lat="43.8871814" lon="12.0296815"><ele>366.5</ele><time>2026-04-05T13:08:44.98Z</time></trkpt><trkpt lat="43.8872722" lon="12.0300059"><ele>360.0</ele><time>2026-04-05T13:08:45.979Z</time></trkpt><trkpt lat="43.8873624" lon="12.030327"><ele>360.0</ele><time>2026-04-05T13:08:46.977Z</time></trkpt><trkpt lat="43.8874554" lon="12.0306489"><ele>360.0</ele><time>2026-04-05T13:08:47.979Z</time></trkpt><trkpt lat="43.8875459" lon="12.0309725"><ele>365.5</ele><time>2026-04-05T13:08:48.98Z</time></trkpt><trkpt lat="43.8876395" lon="12.0312953"><ele>371.0</ele><time>2026-04-05T13:08:49.979Z</time></trkpt><trkpt lat="43.8877335" lon="12.0316225"><ele>365.5</ele><time>2026-04-05T13:08:50.98Z</time></trkpt><trkpt lat="43.8878296" lon="12.0319537"><ele>360.0</ele><time>2026-04-05T13:08:51.98Z</time></trkpt><trkpt lat="43.8879261" lon="12.0322846"><ele>356.0</ele><time>2026-04-05T13:08:52.98Z</time></trkpt><trkpt lat="43.8880212" lon="12.0326219"><ele>352.0</ele><time>2026-04-05T13:08:53.979Z</time></trkpt><trkpt lat="43.8881177" lon="12.0329511"><ele>352.0</ele><time>2026-04-05T13:08:54.979Z</time></trkpt><trkpt lat="43.8882144" lon="12.0332822"><ele>352.0</ele><time>2026-04-05T13:08:55.98Z</time></trkpt><trkpt lat="43.8883119" lon="12.0336241"><ele>349.5</ele><time>2026-04-05T13:08:56.978Z</time></trkpt><trkpt lat="43.8884109" lon="12.0339614"><ele>347.0</ele><time>2026-04-05T13:08:57.979Z</time></trkpt><trkpt lat="43.8885099" lon="12.0342979"><ele>347.0</ele><time>2026-04-05T13:08:58.979Z</time></trkpt><trkpt lat="43.8886087" lon="12.0346371"><ele>347.0</ele><time>2026-04-05T13:08:59.98Z</time></trkpt><trkpt lat="43.8887046" lon="12.0349772"><ele>348.5</ele><time>2026-04-05T13:09:00.979Z</time></trkpt><trkpt lat="43.8888022" lon="12.0353166"><ele>350.0</ele><time>2026-04-05T13:09:01.979Z</time></trkpt><trkpt lat="43.888898" lon="12.0356541"><ele>347.0</ele><time>2026-04-05T13:09:02.979Z</time></trkpt><trkpt lat="43.8889966" lon="12.0359906"><ele>344.0</ele><time>2026-04-05T13:09:03.979Z</time></trkpt><trkpt lat="43.8890926" lon="12.0363292"><ele>340.0</ele><time>2026-04-05T13:09:04.98Z</time></trkpt><trkpt lat="43.8891897" lon="12.0366673"><ele>336.0</ele><time>2026-04-05T13:09:05.98Z</time></trkpt><trkpt lat="43.8893019" lon="12.0370195"><ele>341.5</ele><time>2026-04-05T13:09:06.977Z</time></trkpt><trkpt lat="43.8894007" lon="12.0373544"><ele>347.0</ele><time>2026-04-05T13:09:07.979Z</time></trkpt><trkpt lat="43.8894969" lon="12.0376925"><ele>347.0</ele><time>2026-04-05T13:09:08.979Z</time></trkpt><trkpt lat="43.8895963" lon="12.0380316"><ele>347.0</ele><time>2026-04-05T13:09:09.98Z</time></trkpt><trkpt lat="43.8896909" lon="12.0383676"><ele>344.0</ele><time>2026-04-05T13:09:10.978Z</time></trkpt><trkpt lat="43.8897858" lon="12.0387062"><ele>341.0</ele><time>2026-04-05T13:09:11.98Z</time></trkpt><trkpt lat="43.8898812" lon="12.0390389"><ele>339.5</ele><time>2026-04-05T13:09:12.98Z</time></trkpt><trkpt lat="43.8899746" lon="12.0393658"><ele>338.0</ele><time>2026-04-05T13:09:13.98Z</time></trkpt><trkpt lat="43.8900714" lon="12.0396905"><ele>343.5</ele><time>2026-04-05T13:09:14.98Z</time></trkpt><trkpt lat="43.8901635" lon="12.0400135"><ele>349.0</ele><time>2026-04-05T13:09:15.979Z</time></trkpt><trkpt lat="43.8902573" lon="12.0403364"><ele>349.0</ele><time>2026-04-05T13:09:16.98Z</time></trkpt><trkpt lat="43.8903575" lon="12.0406524"><ele>349.0</ele><time>2026-04-05T13:09:17.98Z</time></trkpt><trkpt lat="43.8904537" lon="12.0409749"><ele>341.0</ele><time>2026-04-05T13:09:18.979Z</time></trkpt><trkpt lat="43.8905692" lon="12.0412934"><ele>333.0</ele><time>2026-04-05T13:09:19.98Z</time></trkpt><trkpt lat="43.8906661" lon="12.0416175"><ele>332.5</ele><time>2026-04-05T13:09:20.98Z</time></trkpt><trkpt lat="43.8907558" lon="12.0419379"><ele>332.0</ele><time>2026-04-05T13:09:21.98Z</time></trkpt><trkpt lat="43.890844" lon="12.0422598"><ele>346.5</ele><time>2026-04-05T13:09:22.98Z</time></trkpt><trkpt lat="43.8909427" lon="12.0425912"><ele>361.0</ele><time>2026-04-05T13:09:23.979Z</time></trkpt><trkpt lat="43.8910153" lon="12.042922"><ele>361.0</ele><time>2026-04-05T13:09:24.979Z</time></trkpt><trkpt lat="43.8910798" lon="12.0432564"><ele>361.0</ele><time>2026-04-05T13:09:25.98Z</time></trkpt><trkpt lat="43.8911354" lon="12.0435972"><ele>353.5</ele><time>2026-04-05T13:09:26.979Z</time></trkpt><trkpt lat="43.8911854" lon="12.0439522"><ele>346.0</ele><time>2026-04-05T13:09:27.979Z</time></trkpt><trkpt lat="43.8912368" lon="12.0443053"><ele>338.0</ele><time>2026-04-05T13:09:28.979Z</time></trkpt><trkpt lat="43.8912647" lon="12.0446612"><ele>330.0</ele><time>2026-04-05T13:09:29.98Z</time></trkpt><trkpt lat="43.8912822" lon="12.0450181"><ele>330.0</ele><time>2026-04-05T13:09:30.98Z</time></trkpt><trkpt lat="43.8912871" lon="12.0453843"><ele>330.0</ele><time>2026-04-05T13:09:31.978Z</time></trkpt><trkpt lat="43.8912798" lon="12.0457441"><ele>328.0</ele><time>2026-04-05T13:09:32.98Z</time></trkpt><trkpt lat="43.8912587" lon="12.0461054"><ele>326.0</ele><time>2026-04-05T13:09:33.98Z</time></trkpt><trkpt lat="43.8912267" lon="12.0464656"><ele>325.0</ele><time>2026-04-05T13:09:34.979Z</time></trkpt><trkpt lat="43.8911833" lon="12.0468226"><ele>324.0</ele><time>2026-04-05T13:09:35.98Z</time></trkpt><trkpt lat="43.8911323" lon="12.0471768"><ele>330.0</ele><time>2026-04-05T13:09:36.979Z</time></trkpt><trkpt lat="43.8910755" lon="12.0475235"><ele>336.0</ele><time>2026-04-05T13:09:37.979Z</time></trkpt><trkpt lat="43.8910062" lon="12.0478661"><ele>336.0</ele><time>2026-04-05T13:09:38.98Z</time></trkpt><trkpt lat="43.8909245" lon="12.0482044"><ele>336.0</ele><time>2026-04-05T13:09:39.98Z</time></trkpt><trkpt lat="43.8908344" lon="12.0485333"><ele>335.0</ele><time>2026-04-05T13:09:40.98Z</time></trkpt><trkpt lat="43.8907358" lon="12.0488563"><ele>334.0</ele><time>2026-04-05T13:09:41.979Z</time></trkpt><trkpt lat="43.8906321" lon="12.0491811"><ele>334.0</ele><time>2026-04-05T13:09:42.98Z</time></trkpt><trkpt lat="43.8905258" lon="12.0495041"><ele>334.0</ele><time>2026-04-05T13:09:43.98Z</time></trkpt><trkpt lat="43.8904173" lon="12.0498272"><ele>338.0</ele><time>2026-04-05T13:09:44.98Z</time></trkpt><trkpt lat="43.8903123" lon="12.0501412"><ele>342.0</ele><time>2026-04-05T13:09:45.98Z</time></trkpt><trkpt lat="43.8902078" lon="12.0504643"><ele>342.0</ele><time>2026-04-05T13:09:46.98Z</time></trkpt><trkpt lat="43.8901021" lon="12.0507853"><ele>342.0</ele><time>2026-04-05T13:09:47.98Z</time></trkpt><trkpt lat="43.8899985" lon="12.0511043"><ele>337.0</ele><time>2026-04-05T13:09:48.98Z</time></trkpt><trkpt lat="43.889897" lon="12.0514219"><ele>332.0</ele><time>2026-04-05T13:09:49.98Z</time></trkpt><trkpt lat="43.8897999" lon="12.0517417"><ele>330.5</ele><time>2026-04-05T13:09:50.979Z</time></trkpt><trkpt lat="43.8897064" lon="12.052062"><ele>329.0</ele><time>2026-04-05T13:09:51.98Z</time></trkpt><trkpt lat="43.8896247" lon="12.0523804"><ele>329.0</ele><time>2026-04-05T13:09:52.98Z</time></trkpt><trkpt lat="43.88955" lon="12.0527082"><ele>329.0</ele><time>2026-04-05T13:09:53.977Z</time></trkpt><trkpt lat="43.8894776" lon="12.0530395"><ele>332.0</ele><time>2026-04-05T13:09:54.979Z</time></trkpt><trkpt lat="43.8894079" lon="12.0533767"><ele>335.0</ele><time>2026-04-05T13:09:55.98Z</time></trkpt><trkpt lat="43.8893454" lon="12.0537073"><ele>335.0</ele><time>2026-04-05T13:09:56.98Z</time></trkpt><trkpt lat="43.8892848" lon="12.0540389"><ele>335.0</ele><time>2026-04-05T13:09:57.98Z</time></trkpt><trkpt lat="43.8892343" lon="12.054378"><ele>330.5</ele><time>2026-04-05T13:09:58.98Z</time></trkpt><trkpt lat="43.889187" lon="12.0547193"><ele>326.0</ele><time>2026-04-05T13:09:59.979Z</time></trkpt><trkpt lat="43.889138" lon="12.0550638"><ele>326.0</ele><time>2026-04-05T13:10:00.98Z</time></trkpt><trkpt lat="43.8891036" lon="12.0554077"><ele>326.0</ele><time>2026-04-05T13:10:01.98Z</time></trkpt><trkpt lat="43.889076" lon="12.0557671"><ele>324.0</ele><time>2026-04-05T13:10:02.98Z</time></trkpt><trkpt lat="43.8890507" lon="12.0561137"><ele>322.0</ele><time>2026-04-05T13:10:03.98Z</time></trkpt><trkpt lat="43.8890271" lon="12.0564541"><ele>322.5</ele><time>2026-04-05T13:10:04.98Z</time></trkpt><trkpt lat="43.8890028" lon="12.0568028"><ele>323.0</ele><time>2026-04-05T13:10:05.98Z</time></trkpt><trkpt lat="43.8889828" lon="12.0571478"><ele>323.0</ele><time>2026-04-05T13:10:06.979Z</time></trkpt><trkpt lat="43.8889593" lon="12.057492"><ele>323.0</ele><time>2026-04-05T13:10:07.98Z</time></trkpt><trkpt lat="43.8889335" lon="12.0578389"><ele>323.0</ele><time>2026-04-05T13:10:08.979Z</time></trkpt><trkpt lat="43.8889064" lon="12.0581837"><ele>323.0</ele><time>2026-04-05T13:10:09.98Z</time></trkpt><trkpt lat="43.8888851" lon="12.0585287"><ele>322.0</ele><time>2026-04-05T13:10:10.98Z</time></trkpt><trkpt lat="43.8888641" lon="12.0588776"><ele>321.0</ele><time>2026-04-05T13:10:11.979Z</time></trkpt><trkpt lat="43.888842" lon="12.0592247"><ele>321.0</ele><time>2026-04-05T13:10:12.98Z</time></trkpt><trkpt lat="43.8888201" lon="12.0595695"><ele>321.0</ele><time>2026-04-05T13:10:13.98Z</time></trkpt><trkpt lat="43.8887954" lon="12.0599197"><ele>321.5</ele><time>2026-04-05T13:10:14.98Z</time></trkpt><trkpt lat="43.8887734" lon="12.0602697"><ele>322.0</ele><time>2026-04-05T13:10:15.979Z</time></trkpt><trkpt lat="43.8887542" lon="12.0606179"><ele>323.5</ele><time>2026-04-05T13:10:16.98Z</time></trkpt><trkpt lat="43.8887336" lon="12.0609666"><ele>325.0</ele><time>2026-04-05T13:10:17.98Z</time></trkpt><trkpt lat="43.8887102" lon="12.0613084"><ele>328.5</ele><time>2026-04-05T13:10:18.979Z</time></trkpt><trkpt lat="43.8886879" lon="12.061656"><ele>332.0</ele><time>2026-04-05T13:10:19.98Z</time></trkpt><trkpt lat="43.888662" lon="12.0620063"><ele>332.0</ele><time>2026-04-05T13:10:20.979Z</time></trkpt><trkpt lat="43.8886411" lon="12.0623545"><ele>332.0</ele><time>2026-04-05T13:10:21.979Z</time></trkpt><trkpt lat="43.8886201" lon="12.0626998"><ele>334.5</ele><time>2026-04-05T13:10:22.98Z</time></trkpt><trkpt lat="43.8885979" lon="12.0630463"><ele>337.0</ele><time>2026-04-05T13:10:23.98Z</time></trkpt><trkpt lat="43.8885753" lon="12.0633947"><ele>338.0</ele><time>2026-04-05T13:10:24.98Z</time></trkpt><trkpt lat="43.8885555" lon="12.0637457"><ele>339.0</ele><time>2026-04-05T13:10:25.98Z</time></trkpt><trkpt lat="43.8885315" lon="12.0640989"><ele>337.5</ele><time>2026-04-05T13:10:26.979Z</time></trkpt><trkpt lat="43.8885098" lon="12.0644462"><ele>336.0</ele><time>2026-04-05T13:10:27.979Z</time></trkpt><trkpt lat="43.8884886" lon="12.0647985"><ele>337.0</ele><time>2026-04-05T13:10:28.98Z</time></trkpt><trkpt lat="43.8884735" lon="12.0651564"><ele>338.0</ele><time>2026-04-05T13:10:29.979Z</time></trkpt><trkpt lat="43.8884623" lon="12.0655175"><ele>338.5</ele><time>2026-04-05T13:10:30.98Z</time></trkpt><trkpt lat="43.8884683" lon="12.0658887"><ele>339.0</ele><time>2026-04-05T13:10:31.98Z</time></trkpt><trkpt lat="43.8884669" lon="12.0662479"><ele>339.0</ele><time>2026-04-05T13:10:32.98Z</time></trkpt><trkpt lat="43.888472" lon="12.0666061"><ele>339.0</ele><time>2026-04-05T13:10:33.98Z</time></trkpt><trkpt lat="43.8884841" lon="12.0669698"><ele>338.0</ele><time>2026-04-05T13:10:34.98Z</time></trkpt><trkpt lat="43.8884986" lon="12.0673318"><ele>337.0</ele><time>2026-04-05T13:10:35.98Z</time></trkpt><trkpt lat="43.8885172" lon="12.0676908"><ele>337.0</ele><time>2026-04-05T13:10:36.98Z</time></trkpt><trkpt lat="43.8885381" lon="12.0680498"><ele>337.0</ele><time>2026-04-05T13:10:37.979Z</time></trkpt><trkpt lat="43.8885777" lon="12.0684108"><ele>335.0</ele><time>2026-04-05T13:10:38.98Z</time></trkpt><trkpt lat="43.8886202" lon="12.0687719"><ele>333.0</ele><time>2026-04-05T13:10:39.98Z</time></trkpt><trkpt lat="43.8886644" lon="12.0691391"><ele>333.0</ele><time>2026-04-05T13:10:40.979Z</time></trkpt><trkpt lat="43.8887074" lon="12.0695022"><ele>333.0</ele><time>2026-04-05T13:10:41.98Z</time></trkpt><trkpt lat="43.8887499" lon="12.0698586"><ele>330.0</ele><time>2026-04-05T13:10:42.98Z</time></trkpt><trkpt lat="43.8888029" lon="12.0702113"><ele>327.0</ele><time>2026-04-05T13:10:43.979Z</time></trkpt><trkpt lat="43.8888588" lon="12.0705692"><ele>324.0</ele><time>2026-04-05T13:10:44.98Z</time></trkpt><trkpt lat="43.8889142" lon="12.0709273"><ele>321.0</ele><time>2026-04-05T13:10:45.98Z</time></trkpt><trkpt lat="43.8889673" lon="12.0712765"><ele>320.0</ele><time>2026-04-05T13:10:46.979Z</time></trkpt><trkpt lat="43.8890227" lon="12.0716405"><ele>319.0</ele><time>2026-04-05T13:10:47.98Z</time></trkpt><trkpt lat="43.8890875" lon="12.0719859"><ele>319.0</ele><time>2026-04-05T13:10:48.98Z</time></trkpt><trkpt lat="43.8891682" lon="12.0723266"><ele>319.0</ele><time>2026-04-05T13:10:49.98Z</time></trkpt><trkpt lat="43.8892587" lon="12.0726609"><ele>321.5</ele><time>2026-04-05T13:10:50.98Z</time></trkpt><trkpt lat="43.8893623" lon="12.0729891"><ele>324.0</ele><time>2026-04-05T13:10:51.98Z</time></trkpt><trkpt lat="43.8894767" lon="12.0733074"><ele>324.0</ele><time>2026-04-05T13:10:52.978Z</time></trkpt><trkpt lat="43.889606" lon="12.0736162"><ele>324.0</ele><time>2026-04-05T13:10:53.98Z</time></trkpt><trkpt lat="43.8897497" lon="12.073917"><ele>325.5</ele><time>2026-04-05T13:10:54.98Z</time></trkpt><trkpt lat="43.8899023" lon="12.0742028"><ele>327.0</ele><time>2026-04-05T13:10:55.98Z</time></trkpt><trkpt lat="43.8900624" lon="12.074479"><ele>331.5</ele><time>2026-04-05T13:10:56.98Z</time></trkpt><trkpt lat="43.890243" lon="12.0747311"><ele>336.0</ele><time>2026-04-05T13:10:57.98Z</time></trkpt><trkpt lat="43.8904295" lon="12.0749723"><ele>336.0</ele><time>2026-04-05T13:10:58.979Z</time></trkpt><trkpt lat="43.8906314" lon="12.0752014"><ele>336.0</ele><time>2026-04-05T13:10:59.98Z</time></trkpt><trkpt lat="43.8908466" lon="12.0754205"><ele>349.0</ele><time>2026-04-05T13:11:00.98Z</time></trkpt><trkpt lat="43.8910552" lon="12.0756291"><ele>362.0</ele><time>2026-04-05T13:11:01.98Z</time></trkpt><trkpt lat="43.8912708" lon="12.0758147"><ele>365.5</ele><time>2026-04-05T13:11:02.979Z</time></trkpt><trkpt lat="43.8914786" lon="12.076019"><ele>369.0</ele><time>2026-04-05T13:11:03.98Z</time></trkpt><trkpt lat="43.9003828" lon="12.1028486"><ele>336.5</ele><time>2026-04-05T13:12:33.98Z</time></trkpt><trkpt lat="43.9004337" lon="12.1031824"><ele>304.0</ele><time>2026-04-05T13:12:34.98Z</time></trkpt><trkpt lat="43.9004865" lon="12.1035144"><ele>304.0</ele><time>2026-04-05T13:12:35.978Z</time></trkpt><trkpt lat="43.9005385" lon="12.1038421"><ele>304.0</ele><time>2026-04-05T13:12:36.979Z</time></trkpt><trkpt lat="43.9005906" lon="12.1041763"><ele>301.0</ele><time>2026-04-05T13:12:37.98Z</time></trkpt><trkpt lat="43.9006506" lon="12.1045091"><ele>298.0</ele><time>2026-04-05T13:12:38.979Z</time></trkpt><trkpt lat="43.9007121" lon="12.1048441"><ele>292.0</ele><time>2026-04-05T13:12:39.98Z</time></trkpt><trkpt lat="43.9007636" lon="12.1051736"><ele>286.0</ele><time>2026-04-05T13:12:40.98Z</time></trkpt><trkpt lat="43.9008114" lon="12.1055073"><ele>293.5</ele><time>2026-04-05T13:12:41.978Z</time></trkpt><trkpt lat="43.9008598" lon="12.1058369"><ele>301.0</ele><time>2026-04-05T13:12:42.98Z</time></trkpt><trkpt lat="43.9009173" lon="12.1061691"><ele>301.0</ele><time>2026-04-05T13:12:43.979Z</time></trkpt><trkpt lat="43.9009869" lon="12.1065004"><ele>301.0</ele><time>2026-04-05T13:12:44.979Z</time></trkpt><trkpt lat="43.9010637" lon="12.106829"><ele>299.0</ele><time>2026-04-05T13:12:45.979Z</time></trkpt><trkpt lat="43.9011499" lon="12.1071572"><ele>297.0</ele><time>2026-04-05T13:12:46.98Z</time></trkpt><trkpt lat="43.9012461" lon="12.1074762"><ele>290.5</ele><time>2026-04-05T13:12:47.98Z</time></trkpt><trkpt lat="43.9013518" lon="12.1077912"><ele>284.0</ele><time>2026-04-05T13:12:48.98Z</time></trkpt><trkpt lat="43.9014629" lon="12.1081014"><ele>273.5</ele><time>2026-04-05T13:12:49.977Z</time></trkpt><trkpt lat="43.9015805" lon="12.1084057"><ele>263.0</ele><time>2026-04-05T13:12:50.98Z</time></trkpt><trkpt lat="43.9017072" lon="12.1087032"><ele>264.0</ele><time>2026-04-05T13:12:51.979Z</time></trkpt><trkpt lat="43.9018417" lon="12.1089927"><ele>265.0</ele><time>2026-04-05T13:12:52.98Z</time></trkpt><trkpt lat="43.9019856" lon="12.1092729"><ele>272.5</ele><time>2026-04-05T13:12:53.98Z</time></trkpt><trkpt lat="43.9021408" lon="12.1095483"><ele>280.0</ele><time>2026-04-05T13:12:54.98Z</time></trkpt><trkpt lat="43.9023033" lon="12.1098103"><ele>283.0</ele><time>2026-04-05T13:12:55.98Z</time></trkpt><trkpt lat="43.9024628" lon="12.1100742"><ele>286.0</ele><time>2026-04-05T13:12:56.98Z</time></trkpt><trkpt lat="43.9026337" lon="12.1103295"><ele>297.5</ele><time>2026-04-05T13:12:57.979Z</time></trkpt><trkpt lat="43.9028101" lon="12.1105749"><ele>309.0</ele><time>2026-04-05T13:12:58.98Z</time></trkpt><trkpt lat="43.9052835" lon="12.1132874"><ele>286.0</ele><time>2026-04-05T13:13:09.98Z</time></trkpt><trkpt lat="43.9055041" lon="12.1135247"><ele>263.0</ele><time>2026-04-05T13:13:10.98Z</time></trkpt><trkpt lat="43.9057187" lon="12.1137704"><ele>261.0</ele><time>2026-04-05T13:13:11.98Z</time></trkpt><trkpt lat="43.9059381" lon="12.1140058"><ele>259.0</ele><time>2026-04-05T13:13:12.98Z</time></trkpt><trkpt lat="43.9061439" lon="12.1142584"><ele>259.0</ele><time>2026-04-05T13:13:13.98Z</time></trkpt><trkpt lat="43.9063503" lon="12.11451"><ele>259.0</ele><time>2026-04-05T13:13:14.978Z</time></trkpt><trkpt lat="43.9065427" lon="12.1147809"><ele>262.0</ele><time>2026-04-05T13:13:15.98Z</time></trkpt><trkpt lat="43.9067177" lon="12.1150699"><ele>265.0</ele><time>2026-04-05T13:13:16.98Z</time></trkpt><trkpt lat="43.9068899" lon="12.1153671"><ele>265.0</ele><time>2026-04-05T13:13:17.979Z</time></trkpt><trkpt lat="43.9070532" lon="12.1156727"><ele>265.0</ele><time>2026-04-05T13:13:18.98Z</time></trkpt><trkpt lat="43.9072109" lon="12.1159861"><ele>262.0</ele><time>2026-04-05T13:13:19.976Z</time></trkpt><trkpt lat="43.9073637" lon="12.1163027"><ele>259.0</ele><time>2026-04-05T13:13:20.979Z</time></trkpt><trkpt lat="43.9075163" lon="12.1166174"><ele>258.0</ele><time>2026-04-05T13:13:21.98Z</time></trkpt><trkpt lat="43.9076705" lon="12.1169306"><ele>257.0</ele><time>2026-04-05T13:13:22.98Z</time></trkpt><trkpt lat="43.9078246" lon="12.1172446"><ele>253.0</ele><time>2026-04-05T13:13:23.979Z</time></trkpt><trkpt lat="43.9079801" lon="12.1175597"><ele>249.0</ele><time>2026-04-05T13:13:24.98Z</time></trkpt><trkpt lat="43.9081326" lon="12.1178792"><ele>249.0</ele><time>2026-04-05T13:13:25.98Z</time></trkpt><trkpt lat="43.9082868" lon="12.1182005"><ele>249.0</ele><time>2026-04-05T13:13:26.98Z</time></trkpt><trkpt lat="43.9084421" lon="12.1185185"><ele>255.0</ele><time>2026-04-05T13:13:27.979Z</time></trkpt><trkpt lat="43.9086001" lon="12.1188349"><ele>261.0</ele><time>2026-04-05T13:13:28.979Z</time></trkpt><trkpt lat="43.90876" lon="12.1191512"><ele>261.0</ele><time>2026-04-05T13:13:29.98Z</time></trkpt><trkpt lat="43.9089176" lon="12.1194677"><ele>261.0</ele><time>2026-04-05T13:13:30.979Z</time></trkpt><trkpt lat="43.9090729" lon="12.1197792"><ele>264.5</ele><time>2026-04-05T13:13:31.98Z</time></trkpt><trkpt lat="43.9092265" lon="12.1200939"><ele>268.0</ele><time>2026-04-05T13:13:32.98Z</time></trkpt><trkpt lat="43.9093794" lon="12.1204071"><ele>268.0</ele><time>2026-04-05T13:13:33.98Z</time></trkpt><trkpt lat="43.9095321" lon="12.1207203"><ele>268.0</ele><time>2026-04-05T13:13:34.979Z</time></trkpt><trkpt lat="43.9096863" lon="12.1210373"><ele>262.5</ele><time>2026-04-05T13:13:35.979Z</time></trkpt><trkpt lat="43.9098459" lon="12.1213697"><ele>257.0</ele><time>2026-04-05T13:13:36.98Z</time></trkpt><trkpt lat="43.9099971" lon="12.1216825"><ele>256.5</ele><time>2026-04-05T13:13:37.979Z</time></trkpt><trkpt lat="43.9101486" lon="12.121994"><ele>256.0</ele><time>2026-04-05T13:13:38.98Z</time></trkpt><trkpt lat="43.9102999" lon="12.122307"><ele>251.5</ele><time>2026-04-05T13:13:39.978Z</time></trkpt><trkpt lat="43.9104496" lon="12.1226165"><ele>247.0</ele><time>2026-04-05T13:13:40.979Z</time></trkpt><trkpt lat="43.9105986" lon="12.1229202"><ele>247.0</ele><time>2026-04-05T13:13:41.98Z</time></trkpt><trkpt lat="43.910744" lon="12.1232202"><ele>247.0</ele><time>2026-04-05T13:13:42.98Z</time></trkpt><trkpt lat="43.9108874" lon="12.1235163"><ele>246.5</ele><time>2026-04-05T13:13:43.98Z</time></trkpt><trkpt lat="43.9110274" lon="12.1238095"><ele>246.0</ele><time>2026-04-05T13:13:44.98Z</time></trkpt><trkpt lat="43.911166" lon="12.124099"><ele>246.0</ele><time>2026-04-05T13:13:45.98Z</time></trkpt><trkpt lat="43.9113074" lon="12.1243842"><ele>246.0</ele><time>2026-04-05T13:13:46.98Z</time></trkpt><trkpt lat="43.9114434" lon="12.1246671"><ele>239.5</ele><time>2026-04-05T13:13:47.98Z</time></trkpt><trkpt lat="43.9115793" lon="12.1249511"><ele>233.0</ele><time>2026-04-05T13:13:48.979Z</time></trkpt><trkpt lat="43.9117098" lon="12.1252351"><ele>239.5</ele><time>2026-04-05T13:13:49.979Z</time></trkpt><trkpt lat="43.9118325" lon="12.1255312"><ele>246.0</ele><time>2026-04-05T13:13:50.98Z</time></trkpt><trkpt lat="43.9119483" lon="12.1258321"><ele>246.0</ele><time>2026-04-05T13:13:51.979Z</time></trkpt><trkpt lat="43.9120565" lon="12.126145"><ele>246.0</ele><time>2026-04-05T13:13:52.98Z</time></trkpt><trkpt lat="43.9121608" lon="12.1264646"><ele>243.0</ele><time>2026-04-05T13:13:53.979Z</time></trkpt><trkpt lat="43.9122531" lon="12.1267864"><ele>240.0</ele><time>2026-04-05T13:13:54.98Z</time></trkpt><trkpt lat="43.9123389" lon="12.1271224"><ele>235.0</ele><time>2026-04-05T13:13:55.98Z</time></trkpt><trkpt lat="43.9124169" lon="12.1274595"><ele>230.0</ele><time>2026-04-05T13:13:56.98Z</time></trkpt><trkpt lat="43.9124806" lon="12.1277985"><ele>230.0</ele><time>2026-04-05T13:13:57.98Z</time></trkpt><trkpt lat="43.9125433" lon="12.1281392"><ele>230.0</ele><time>2026-04-05T13:13:58.98Z</time></trkpt><trkpt lat="43.9125935" lon="12.1284803"><ele>231.0</ele><time>2026-04-05T13:13:59.98Z</time></trkpt><trkpt lat="43.9126314" lon="12.1288235"><ele>232.0</ele><time>2026-04-05T13:14:00.98Z</time></trkpt><trkpt lat="43.9126713" lon="12.1291666"><ele>221.5</ele><time>2026-04-05T13:14:01.98Z</time></trkpt><trkpt lat="43.9126912" lon="12.1295125"><ele>211.0</ele><time>2026-04-05T13:14:02.98Z</time></trkpt><trkpt lat="43.9127003" lon="12.1298613"><ele>201.5</ele><time>2026-04-05T13:14:03.979Z</time></trkpt><trkpt lat="43.912703" lon="12.1302119"><ele>192.0</ele><time>2026-04-05T13:14:04.98Z</time></trkpt><trkpt lat="43.9126934" lon="12.1305654"><ele>190.0</ele><time>2026-04-05T13:14:05.979Z</time></trkpt><trkpt lat="43.9126787" lon="12.1309108"><ele>188.0</ele><time>2026-04-05T13:14:06.979Z</time></trkpt><trkpt lat="43.9126549" lon="12.1312518"><ele>189.5</ele><time>2026-04-05T13:14:07.979Z</time></trkpt><trkpt lat="43.9126282" lon="12.1315888"><ele>191.0</ele><time>2026-04-05T13:14:08.98Z</time></trkpt><trkpt lat="43.9126082" lon="12.1319253"><ele>191.0</ele><time>2026-04-05T13:14:09.98Z</time></trkpt><trkpt lat="43.9125823" lon="12.1322628"><ele>191.0</ele><time>2026-04-05T13:14:10.98Z</time></trkpt><trkpt lat="43.9125626" lon="12.1325971"><ele>195.0</ele><time>2026-04-05T13:14:11.98Z</time></trkpt><trkpt lat="43.9125461" lon="12.1329334"><ele>199.0</ele><time>2026-04-05T13:14:12.98Z</time></trkpt><trkpt lat="43.9125286" lon="12.1332697"><ele>199.0</ele><time>2026-04-05T13:14:13.98Z</time></trkpt><trkpt lat="43.9125179" lon="12.1336117"><ele>199.0</ele><time>2026-04-05T13:14:14.98Z</time></trkpt><trkpt lat="43.9125145" lon="12.1339536"><ele>199.5</ele><time>2026-04-05T13:14:15.98Z</time></trkpt><trkpt lat="43.9125265" lon="12.1343063"><ele>200.0</ele><time>2026-04-05T13:14:16.98Z</time></trkpt><trkpt lat="43.9125399" lon="12.1346534"><ele>203.5</ele><time>2026-04-05T13:14:17.979Z</time></trkpt><trkpt lat="43.9125591" lon="12.1349998"><ele>207.0</ele><time>2026-04-05T13:14:18.979Z</time></trkpt><trkpt lat="43.912585" lon="12.1353396"><ele>204.5</ele><time>2026-04-05T13:14:19.978Z</time></trkpt><trkpt lat="43.9126153" lon="12.1356784"><ele>202.0</ele><time>2026-04-05T13:14:20.978Z</time></trkpt><trkpt lat="43.9126517" lon="12.1360155"><ele>188.0</ele><time>2026-04-05T13:14:21.977Z</time></trkpt><trkpt lat="43.9140136" lon="12.1402925"><ele>188.0</ele><time>2026-04-05T13:14:34.978Z</time></trkpt><trkpt lat="43.9141158" lon="12.1405815"><ele>188.0</ele><time>2026-04-05T13:14:35.979Z</time></trkpt><trkpt lat="43.9142511" lon="12.1408545"><ele>189.5</ele><time>2026-04-05T13:14:36.979Z</time></trkpt><trkpt lat="43.9144054" lon="12.1411151"><ele>191.0</ele><time>2026-04-05T13:14:37.978Z</time></trkpt><trkpt lat="43.9145585" lon="12.1413734"><ele>190.5</ele><time>2026-04-05T13:14:38.979Z</time></trkpt><trkpt lat="43.9147274" lon="12.141643"><ele>190.0</ele><time>2026-04-05T13:14:39.979Z</time></trkpt><trkpt lat="43.9149045" lon="12.141905"><ele>191.0</ele><time>2026-04-05T13:14:40.979Z</time></trkpt><trkpt lat="43.9150894" lon="12.1421677"><ele>192.0</ele><time>2026-04-05T13:14:41.98Z</time></trkpt><trkpt lat="43.915274" lon="12.1424206"><ele>192.0</ele><time>2026-04-05T13:14:42.98Z</time></trkpt><trkpt lat="43.9154667" lon="12.1426718"><ele>192.0</ele><time>2026-04-05T13:14:43.978Z</time></trkpt><trkpt lat="43.9156626" lon="12.142915"><ele>192.0</ele><time>2026-04-05T13:14:44.977Z</time></trkpt><trkpt lat="43.9158633" lon="12.143154"><ele>192.0</ele><time>2026-04-05T13:14:45.979Z</time></trkpt><trkpt lat="43.9160622" lon="12.1433943"><ele>201.0</ele><time>2026-04-05T13:14:46.979Z</time></trkpt><trkpt lat="43.9162565" lon="12.1436325"><ele>210.0</ele><time>2026-04-05T13:14:47.98Z</time></trkpt><trkpt lat="43.9164512" lon="12.1438726"><ele>177.0</ele><time>2026-04-05T13:14:48.979Z</time></trkpt><trkpt lat="43.9188814" lon="12.146843"><ele>177.0</ele><time>2026-04-05T13:15:00.977Z</time></trkpt><trkpt lat="43.9190677" lon="12.1470987"><ele>177.0</ele><time>2026-04-05T13:15:01.978Z</time></trkpt><trkpt lat="43.9192629" lon="12.1473181"><ele>177.5</ele><time>2026-04-05T13:15:02.98Z</time></trkpt><trkpt lat="43.9194543" lon="12.147564"><ele>178.0</ele><time>2026-04-05T13:15:03.978Z</time></trkpt><trkpt lat="43.9196493" lon="12.1478134"><ele>178.0</ele><time>2026-04-05T13:15:04.98Z</time></trkpt><trkpt lat="43.9198431" lon="12.1480521"><ele>178.0</ele><time>2026-04-05T13:15:05.98Z</time></trkpt><trkpt lat="43.9200303" lon="12.148292"><ele>177.5</ele><time>2026-04-05T13:15:06.979Z</time></trkpt><trkpt lat="43.9202272" lon="12.1485306"><ele>177.0</ele><time>2026-04-05T13:15:07.979Z</time></trkpt><trkpt lat="43.9204116" lon="12.1487715"><ele>177.0</ele><time>2026-04-05T13:15:08.98Z</time></trkpt><trkpt lat="43.9205949" lon="12.1490295"><ele>177.0</ele><time>2026-04-05T13:15:09.978Z</time></trkpt><trkpt lat="43.9207731" lon="12.1492931"><ele>179.5</ele><time>2026-04-05T13:15:10.979Z</time></trkpt><trkpt lat="43.9209423" lon="12.1495587"><ele>182.0</ele><time>2026-04-05T13:15:11.98Z</time></trkpt><trkpt lat="43.9211099" lon="12.1498245"><ele>178.0</ele><time>2026-04-05T13:15:12.98Z</time></trkpt><trkpt lat="43.9212685" lon="12.1501019"><ele>174.0</ele><time>2026-04-05T13:15:13.979Z</time></trkpt><trkpt lat="43.9214405" lon="12.1503852"><ele>174.0</ele><time>2026-04-05T13:15:14.978Z</time></trkpt><trkpt lat="43.9215898" lon="12.1506617"><ele>174.0</ele><time>2026-04-05T13:15:15.979Z</time></trkpt><trkpt lat="43.9217373" lon="12.1509518"><ele>175.0</ele><time>2026-04-05T13:15:16.98Z</time></trkpt><trkpt lat="43.9218695" lon="12.1512432"><ele>176.0</ele><time>2026-04-05T13:15:17.98Z</time></trkpt><trkpt lat="43.921996" lon="12.1515416"><ele>174.0</ele><time>2026-04-05T13:15:18.979Z</time></trkpt><trkpt lat="43.9221141" lon="12.1518469"><ele>172.0</ele><time>2026-04-05T13:15:19.977Z</time></trkpt><trkpt lat="43.922224" lon="12.1521608"><ele>172.5</ele><time>2026-04-05T13:15:20.979Z</time></trkpt><trkpt lat="43.9223316" lon="12.1524777"><ele>173.0</ele><time>2026-04-05T13:15:21.978Z</time></trkpt><trkpt lat="43.922429" lon="12.1528005"><ele>173.0</ele><time>2026-04-05T13:15:22.979Z</time></trkpt><trkpt lat="43.9225177" lon="12.1531286"><ele>173.0</ele><time>2026-04-05T13:15:23.98Z</time></trkpt><trkpt lat="43.9226018" lon="12.1534563"><ele>175.5</ele><time>2026-04-05T13:15:24.98Z</time></trkpt><trkpt lat="43.9226759" lon="12.1537857"><ele>178.0</ele><time>2026-04-05T13:15:25.98Z</time></trkpt><trkpt lat="43.9227489" lon="12.1541145"><ele>178.0</ele><time>2026-04-05T13:15:26.98Z</time></trkpt><trkpt lat="43.9228099" lon="12.154448"><ele>178.0</ele><time>2026-04-05T13:15:27.98Z</time></trkpt><trkpt lat="43.9228608" lon="12.15478"><ele>175.0</ele><time>2026-04-05T13:15:28.979Z</time></trkpt><trkpt lat="43.9229117" lon="12.1551101"><ele>172.0</ele><time>2026-04-05T13:15:29.98Z</time></trkpt><trkpt lat="43.9229506" lon="12.1554476"><ele>172.0</ele><time>2026-04-05T13:15:30.979Z</time></trkpt><trkpt lat="43.9229834" lon="12.1557869"><ele>172.0</ele><time>2026-04-05T13:15:31.978Z</time></trkpt><trkpt lat="43.9230066" lon="12.1561245"><ele>172.0</ele><time>2026-04-05T13:15:32.98Z</time></trkpt><trkpt lat="43.9230284" lon="12.1564596"><ele>172.0</ele><time>2026-04-05T13:15:33.978Z</time></trkpt><trkpt lat="43.9230597" lon="12.1567961"><ele>172.5</ele><time>2026-04-05T13:15:34.977Z</time></trkpt><trkpt lat="43.9230871" lon="12.157135"><ele>173.0</ele><time>2026-04-05T13:15:35.976Z</time></trkpt><trkpt lat="43.9231145" lon="12.1574729"><ele>174.5</ele><time>2026-04-05T13:15:36.98Z</time></trkpt><trkpt lat="43.9231396" lon="12.1578121"><ele>176.0</ele><time>2026-04-05T13:15:37.979Z</time></trkpt><trkpt lat="43.9231685" lon="12.1581478"><ele>178.0</ele><time>2026-04-05T13:15:38.98Z</time></trkpt><trkpt lat="43.9231977" lon="12.1584863"><ele>180.0</ele><time>2026-04-05T13:15:39.979Z</time></trkpt><trkpt lat="43.9232242" lon="12.1588211"><ele>182.5</ele><time>2026-04-05T13:15:40.98Z</time></trkpt><trkpt lat="43.9232509" lon="12.1591573"><ele>185.0</ele><time>2026-04-05T13:15:41.98Z</time></trkpt><trkpt lat="43.9232799" lon="12.1594902"><ele>185.0</ele><time>2026-04-05T13:15:42.98Z</time></trkpt><trkpt lat="43.9233057" lon="12.1598226"><ele>185.0</ele><time>2026-04-05T13:15:43.98Z</time></trkpt><trkpt lat="43.9233317" lon="12.1601533"><ele>185.0</ele><time>2026-04-05T13:15:44.98Z</time></trkpt><trkpt lat="43.9233571" lon="12.1604838"><ele>185.0</ele><time>2026-04-05T13:15:45.98Z</time></trkpt><trkpt lat="43.9233815" lon="12.1608118"><ele>194.0</ele><time>2026-04-05T13:15:46.98Z</time></trkpt><trkpt lat="43.9234036" lon="12.1611361"><ele>203.0</ele><time>2026-04-05T13:15:47.98Z</time></trkpt><trkpt lat="43.9234335" lon="12.1614608"><ele>199.5</ele><time>2026-04-05T13:15:48.979Z</time></trkpt><trkpt lat="43.9234732" lon="12.1617917"><ele>196.0</ele><time>2026-04-05T13:15:49.98Z</time></trkpt><trkpt lat="43.9235054" lon="12.1621106"><ele>190.0</ele><time>2026-04-05T13:15:50.98Z</time></trkpt><trkpt lat="43.923533" lon="12.162429"><ele>184.0</ele><time>2026-04-05T13:15:51.98Z</time></trkpt><trkpt lat="43.9235596" lon="12.162738"><ele>184.0</ele><time>2026-04-05T13:15:52.98Z</time></trkpt><trkpt lat="43.9235882" lon="12.1630533"><ele>184.0</ele><time>2026-04-05T13:15:53.979Z</time></trkpt><trkpt lat="43.9236154" lon="12.1633759"><ele>180.5</ele><time>2026-04-05T13:15:54.98Z</time></trkpt><trkpt lat="43.9236362" lon="12.1636917"><ele>177.0</ele><time>2026-04-05T13:15:55.98Z</time></trkpt><trkpt lat="43.9236545" lon="12.1640133"><ele>183.0</ele><time>2026-04-05T13:15:56.98Z</time></trkpt><trkpt lat="43.9236742" lon="12.164336"><ele>189.0</ele><time>2026-04-05T13:15:57.98Z</time></trkpt><trkpt lat="43.9236956" lon="12.1646581"><ele>181.0</ele><time>2026-04-05T13:15:58.979Z</time></trkpt><trkpt lat="43.9238655" lon="12.1670534"><ele>179.5</ele><time>2026-04-05T13:16:05.98Z</time></trkpt><trkpt lat="43.923882" lon="12.1673931"><ele>178.0</ele><time>2026-04-05T13:16:06.98Z</time></trkpt><trkpt lat="43.9239325" lon="12.1677414"><ele>178.0</ele><time>2026-04-05T13:16:07.98Z</time></trkpt><trkpt lat="43.9239986" lon="12.1680776"><ele>178.0</ele><time>2026-04-05T13:16:08.98Z</time></trkpt><trkpt lat="43.9240829" lon="12.1684479"><ele>177.0</ele><time>2026-04-05T13:16:09.98Z</time></trkpt><trkpt lat="43.9241429" lon="12.168791"><ele>176.0</ele><time>2026-04-05T13:16:10.98Z</time></trkpt><trkpt lat="43.9242253" lon="12.1691212"><ele>176.0</ele><time>2026-04-05T13:16:11.98Z</time></trkpt><trkpt lat="43.9243158" lon="12.1694433"><ele>176.0</ele><time>2026-04-05T13:16:12.978Z</time></trkpt><trkpt lat="43.9244207" lon="12.169758"><ele>173.5</ele><time>2026-04-05T13:16:13.979Z</time></trkpt><trkpt lat="43.9245404" lon="12.1700561"><ele>171.0</ele><time>2026-04-05T13:16:14.98Z</time></trkpt><trkpt lat="43.9246726" lon="12.1703444"><ele>171.0</ele><time>2026-04-05T13:16:15.98Z</time></trkpt><trkpt lat="43.9248129" lon="12.1706251"><ele>171.0</ele><time>2026-04-05T13:16:16.98Z</time></trkpt><trkpt lat="43.924966" lon="12.1708823"><ele>167.0</ele><time>2026-04-05T13:16:17.98Z</time></trkpt><trkpt lat="43.9251277" lon="12.1711307"><ele>163.0</ele><time>2026-04-05T13:16:18.979Z</time></trkpt><trkpt lat="43.925302" lon="12.1713618"><ele>167.0</ele><time>2026-04-05T13:16:19.98Z</time></trkpt><trkpt lat="43.9254827" lon="12.1715813"><ele>171.0</ele><time>2026-04-05T13:16:20.98Z</time></trkpt><trkpt lat="43.9256743" lon="12.1717877"><ele>171.0</ele><time>2026-04-05T13:16:21.98Z</time></trkpt><trkpt lat="43.9258761" lon="12.1719754"><ele>171.0</ele><time>2026-04-05T13:16:22.979Z</time></trkpt><trkpt lat="43.9260832" lon="12.1721457"><ele>174.5</ele><time>2026-04-05T13:16:23.98Z</time></trkpt><trkpt lat="43.9262976" lon="12.1722999"><ele>178.0</ele><time>2026-04-05T13:16:24.98Z</time></trkpt><trkpt lat="43.9265159" lon="12.1724309"><ele>182.5</ele><time>2026-04-05T13:16:25.98Z</time></trkpt><trkpt lat="43.9267526" lon="12.1725391"><ele>187.0</ele><time>2026-04-05T13:16:26.979Z</time></trkpt><trkpt lat="43.9269917" lon="12.1726447"><ele>187.0</ele><time>2026-04-05T13:16:27.979Z</time></trkpt><trkpt lat="43.9272314" lon="12.1727374"><ele>187.0</ele><time>2026-04-05T13:16:28.979Z</time></trkpt><trkpt lat="43.927473" lon="12.1728204"><ele>185.5</ele><time>2026-04-05T13:16:29.98Z</time></trkpt><trkpt lat="43.927716" lon="12.1728918"><ele>184.0</ele><time>2026-04-05T13:16:30.979Z</time></trkpt><trkpt lat="43.9279556" lon="12.1729602"><ele>184.0</ele><time>2026-04-05T13:16:31.979Z</time></trkpt><trkpt lat="43.9281968" lon="12.1730238"><ele>184.0</ele><time>2026-04-05T13:16:32.98Z</time></trkpt><trkpt lat="43.9284526" lon="12.173088"><ele>186.5</ele><time>2026-04-05T13:16:33.979Z</time></trkpt><trkpt lat="43.9286962" lon="12.1731449"><ele>189.0</ele><time>2026-04-05T13:16:34.98Z</time></trkpt><trkpt lat="43.9289416" lon="12.1732092"><ele>189.0</ele><time>2026-04-05T13:16:35.98Z</time></trkpt><trkpt lat="43.9291817" lon="12.1732701"><ele>189.0</ele><time>2026-04-05T13:16:36.98Z</time></trkpt><trkpt lat="43.9294223" lon="12.1733376"><ele>183.0</ele><time>2026-04-05T13:16:37.979Z</time></trkpt><trkpt lat="43.9296583" lon="12.1734073"><ele>177.0</ele><time>2026-04-05T13:16:38.978Z</time></trkpt><trkpt lat="43.9299003" lon="12.1734738"><ele>169.5</ele><time>2026-04-05T13:16:39.98Z</time></trkpt><trkpt lat="43.9301458" lon="12.173544"><ele>162.0</ele><time>2026-04-05T13:16:40.98Z</time></trkpt><trkpt lat="43.9303842" lon="12.173618"><ele>162.0</ele><time>2026-04-05T13:16:41.98Z</time></trkpt><trkpt lat="43.9306234" lon="12.1737012"><ele>162.0</ele><time>2026-04-05T13:16:42.98Z</time></trkpt><trkpt lat="43.9308599" lon="12.1737971"><ele>161.0</ele><time>2026-04-05T13:16:43.98Z</time></trkpt><trkpt lat="43.931092" lon="12.1739056"><ele>160.0</ele><time>2026-04-05T13:16:44.979Z</time></trkpt><trkpt lat="43.9313225" lon="12.1740282"><ele>160.0</ele><time>2026-04-05T13:16:45.979Z</time></trkpt><trkpt lat="43.9315521" lon="12.1741641"><ele>160.0</ele><time>2026-04-05T13:16:46.98Z</time></trkpt><trkpt lat="43.9317827" lon="12.1743189"><ele>157.0</ele><time>2026-04-05T13:16:47.98Z</time></trkpt><trkpt lat="43.9319909" lon="12.1744952"><ele>154.0</ele><time>2026-04-05T13:16:48.98Z</time></trkpt><trkpt lat="43.932197" lon="12.1746894"><ele>160.5</ele><time>2026-04-05T13:16:49.98Z</time></trkpt><trkpt lat="43.9323911" lon="12.1748979"><ele>167.0</ele><time>2026-04-05T13:16:50.98Z</time></trkpt><trkpt lat="43.9325815" lon="12.1751153"><ele>167.0</ele><time>2026-04-05T13:16:51.98Z</time></trkpt><trkpt lat="43.932757" lon="12.1753535"><ele>167.0</ele><time>2026-04-05T13:16:52.98Z</time></trkpt><trkpt lat="43.9329264" lon="12.1756003"><ele>177.0</ele><time>2026-04-05T13:16:53.98Z</time></trkpt><trkpt lat="43.933085" lon="12.1758554"><ele>187.0</ele><time>2026-04-05T13:16:54.979Z</time></trkpt><trkpt lat="43.9332376" lon="12.1761209"><ele>187.0</ele><time>2026-04-05T13:16:55.98Z</time></trkpt><trkpt lat="43.9333859" lon="12.1764055"><ele>187.0</ele><time>2026-04-05T13:16:56.979Z</time></trkpt><trkpt lat="43.9335355" lon="12.1766847"><ele>187.5</ele><time>2026-04-05T13:16:57.98Z</time></trkpt><trkpt lat="43.9336821" lon="12.1769605"><ele>188.0</ele><time>2026-04-05T13:16:58.979Z</time></trkpt><trkpt lat="43.9338219" lon="12.1772353"><ele>190.5</ele><time>2026-04-05T13:16:59.98Z</time></trkpt><trkpt lat="43.9339619" lon="12.1775094"><ele>193.0</ele><time>2026-04-05T13:17:00.98Z</time></trkpt><trkpt lat="43.9341007" lon="12.1777817"><ele>190.5</ele><time>2026-04-05T13:17:01.979Z</time></trkpt><trkpt lat="43.9342369" lon="12.1780475"><ele>188.0</ele><time>2026-04-05T13:17:02.98Z</time></trkpt><trkpt lat="43.9343791" lon="12.1783179"><ele>188.0</ele><time>2026-04-05T13:17:03.98Z</time></trkpt><trkpt lat="43.9345173" lon="12.1785912"><ele>188.0</ele><time>2026-04-05T13:17:04.979Z</time></trkpt><trkpt lat="43.934658" lon="12.178864"><ele>192.0</ele><time>2026-04-05T13:17:05.979Z</time></trkpt><trkpt lat="43.9348016" lon="12.1791351"><ele>196.0</ele><time>2026-04-05T13:17:06.98Z</time></trkpt><trkpt lat="43.9349464" lon="12.1794101"><ele>194.5</ele><time>2026-04-05T13:17:07.98Z</time></trkpt><trkpt lat="43.9350875" lon="12.1796875"><ele>193.0</ele><time>2026-04-05T13:17:08.98Z</time></trkpt><trkpt lat="43.9352301" lon="12.1799721"><ele>193.0</ele><time>2026-04-05T13:17:09.979Z</time></trkpt><trkpt lat="43.935375" lon="12.18024"><ele>193.0</ele><time>2026-04-05T13:17:10.979Z</time></trkpt><trkpt lat="43.9355277" lon="12.1805137"><ele>196.5</ele><time>2026-04-05T13:17:11.98Z</time></trkpt><trkpt lat="43.9356675" lon="12.1807954"><ele>200.0</ele><time>2026-04-05T13:17:12.979Z</time></trkpt><trkpt lat="43.935814" lon="12.181075"><ele>196.5</ele><time>2026-04-05T13:17:13.979Z</time></trkpt><trkpt lat="43.9359569" lon="12.1813473"><ele>193.0</ele><time>2026-04-05T13:17:14.979Z</time></trkpt><trkpt lat="43.9361031" lon="12.1816226"><ele>193.0</ele><time>2026-04-05T13:17:15.98Z</time></trkpt><trkpt lat="43.9362551" lon="12.181884"><ele>193.0</ele><time>2026-04-05T13:17:16.98Z</time></trkpt><trkpt lat="43.9364199" lon="12.1821436"><ele>195.5</ele><time>2026-04-05T13:17:17.979Z</time></trkpt><trkpt lat="43.9365874" lon="12.1823986"><ele>198.0</ele><time>2026-04-05T13:17:18.979Z</time></trkpt><trkpt lat="43.9367654" lon="12.1826477"><ele>191.0</ele><time>2026-04-05T13:17:19.98Z</time></trkpt><trkpt lat="43.9369526" lon="12.182891"><ele>184.0</ele><time>2026-04-05T13:17:20.98Z</time></trkpt><trkpt lat="43.9371397" lon="12.1831263"><ele>188.0</ele><time>2026-04-05T13:17:21.98Z</time></trkpt><trkpt lat="43.937333" lon="12.1833541"><ele>192.0</ele><time>2026-04-05T13:17:22.98Z</time></trkpt><trkpt lat="43.9375284" lon="12.1835814"><ele>187.5</ele><time>2026-04-05T13:17:23.979Z</time></trkpt><trkpt lat="43.937738" lon="12.1837876"><ele>183.0</ele><time>2026-04-05T13:17:24.98Z</time></trkpt><trkpt lat="43.9379478" lon="12.1839878"><ele>180.5</ele><time>2026-04-05T13:17:25.979Z</time></trkpt><trkpt lat="43.9381629" lon="12.1841808"><ele>178.0</ele><time>2026-04-05T13:17:26.98Z</time></trkpt><trkpt lat="43.9383848" lon="12.1843606"><ele>178.0</ele><time>2026-04-05T13:17:27.98Z</time></trkpt><trkpt lat="43.9385999" lon="12.1845439"><ele>178.0</ele><time>2026-04-05T13:17:28.98Z</time></trkpt><trkpt lat="43.9388197" lon="12.1847268"><ele>178.0</ele><time>2026-04-05T13:17:29.98Z</time></trkpt><trkpt lat="43.9390523" lon="12.1848821"><ele>178.0</ele><time>2026-04-05T13:17:30.98Z</time></trkpt><trkpt lat="43.939284" lon="12.1850286"><ele>178.0</ele><time>2026-04-05T13:17:31.979Z</time></trkpt><trkpt lat="43.9395238" lon="12.1851661"><ele>178.0</ele><time>2026-04-05T13:17:32.98Z</time></trkpt><trkpt lat="43.9397658" lon="12.185294"><ele>178.0</ele><time>2026-04-05T13:17:33.979Z</time></trkpt><trkpt lat="43.9400068" lon="12.1854163"><ele>178.0</ele><time>2026-04-05T13:17:34.978Z</time></trkpt><trkpt lat="43.9402525" lon="12.1855283"><ele>173.0</ele><time>2026-04-05T13:17:35.979Z</time></trkpt><trkpt lat="43.940506" lon="12.1856265"><ele>168.0</ele><time>2026-04-05T13:17:36.979Z</time></trkpt><trkpt lat="43.9407574" lon="12.1857199"><ele>171.0</ele><time>2026-04-05T13:17:37.98Z</time></trkpt><trkpt lat="43.9410176" lon="12.1858012"><ele>174.0</ele><time>2026-04-05T13:17:38.979Z</time></trkpt><trkpt lat="43.9412792" lon="12.1858802"><ele>174.0</ele><time>2026-04-05T13:17:39.98Z</time></trkpt><trkpt lat="43.9415396" lon="12.1859604"><ele>174.0</ele><time>2026-04-05T13:17:40.979Z</time></trkpt><trkpt lat="43.9418051" lon="12.1860434"><ele>161.5</ele><time>2026-04-05T13:17:41.979Z</time></trkpt><trkpt lat="43.9420728" lon="12.1861265"><ele>149.0</ele><time>2026-04-05T13:17:42.977Z</time></trkpt><trkpt lat="43.942335" lon="12.1862055"><ele>152.5</ele><time>2026-04-05T13:17:43.98Z</time></trkpt><trkpt lat="43.9426027" lon="12.1862906"><ele>156.0</ele><time>2026-04-05T13:17:44.979Z</time></trkpt><trkpt lat="43.9428661" lon="12.1863709"><ele>156.0</ele><time>2026-04-05T13:17:45.979Z</time></trkpt><trkpt lat="43.9431266" lon="12.186453"><ele>156.0</ele><time>2026-04-05T13:17:46.978Z</time></trkpt><trkpt lat="43.9433913" lon="12.1865416"><ele>148.0</ele><time>2026-04-05T13:17:47.98Z</time></trkpt><trkpt lat="43.9436507" lon="12.1866201"><ele>140.0</ele><time>2026-04-05T13:17:48.98Z</time></trkpt><trkpt lat="43.9439024" lon="12.1867057"><ele>140.0</ele><time>2026-04-05T13:17:49.98Z</time></trkpt><trkpt lat="43.9441567" lon="12.1867888"><ele>140.0</ele><time>2026-04-05T13:17:50.98Z</time></trkpt><trkpt lat="43.9444139" lon="12.1868688"><ele>140.0</ele><time>2026-04-05T13:17:51.98Z</time></trkpt><trkpt lat="43.9446681" lon="12.1869397"><ele>140.0</ele><time>2026-04-05T13:17:52.98Z</time></trkpt><trkpt lat="43.9449202" lon="12.1870192"><ele>141.5</ele><time>2026-04-05T13:17:53.979Z</time></trkpt><trkpt lat="43.9451955" lon="12.1870971"><ele>143.0</ele><time>2026-04-05T13:17:54.98Z</time></trkpt><trkpt lat="43.9454497" lon="12.1871747"><ele>143.0</ele><time>2026-04-05T13:17:55.98Z</time></trkpt><trkpt lat="43.9457001" lon="12.1872595"><ele>143.0</ele><time>2026-04-05T13:17:56.98Z</time></trkpt><trkpt lat="43.9459521" lon="12.1873545"><ele>145.0</ele><time>2026-04-05T13:17:57.979Z</time></trkpt><trkpt lat="43.9461983" lon="12.1874595"><ele>147.0</ele><time>2026-04-05T13:17:58.979Z</time></trkpt><trkpt lat="43.9464448" lon="12.1875729"><ele>147.0</ele><time>2026-04-05T13:17:59.978Z</time></trkpt><trkpt lat="43.946683" lon="12.187698"><ele>147.0</ele><time>2026-04-05T13:18:00.98Z</time></trkpt><trkpt lat="43.9469159" lon="12.1878346"><ele>161.0</ele><time>2026-04-05T13:18:01.979Z</time></trkpt><trkpt lat="43.947143" lon="12.1879776"><ele>175.0</ele><time>2026-04-05T13:18:02.98Z</time></trkpt><trkpt lat="43.9473671" lon="12.1881291"><ele>185.0</ele><time>2026-04-05T13:18:03.98Z</time></trkpt><trkpt lat="43.9475859" lon="12.188285"><ele>195.0</ele><time>2026-04-05T13:18:04.98Z</time></trkpt><trkpt lat="43.9477857" lon="12.188453"><ele>195.0</ele><time>2026-04-05T13:18:05.976Z</time></trkpt><trkpt lat="43.9480036" lon="12.1886143"><ele>195.0</ele><time>2026-04-05T13:18:06.979Z</time></trkpt><trkpt lat="43.9482168" lon="12.1887988"><ele>195.0</ele><time>2026-04-05T13:18:07.98Z</time></trkpt><trkpt lat="43.9484274" lon="12.1889903"><ele>195.0</ele><time>2026-04-05T13:18:08.98Z</time></trkpt><trkpt lat="43.9486301" lon="12.1891908"><ele>195.0</ele><time>2026-04-05T13:18:09.979Z</time></trkpt><trkpt lat="43.9488335" lon="12.1893953"><ele>195.0</ele><time>2026-04-05T13:18:10.98Z</time></trkpt><trkpt lat="43.9490225" lon="12.1896118"><ele>194.5</ele><time>2026-04-05T13:18:11.98Z</time></trkpt><trkpt lat="43.9492175" lon="12.189835"><ele>194.0</ele><time>2026-04-05T13:18:12.98Z</time></trkpt><trkpt lat="43.9494166" lon="12.1900603"><ele>193.5</ele><time>2026-04-05T13:18:13.98Z</time></trkpt><trkpt lat="43.9496035" lon="12.1902961"><ele>193.0</ele><time>2026-04-05T13:18:14.979Z</time></trkpt><trkpt lat="43.9497864" lon="12.1905495"><ele>193.0</ele><time>2026-04-05T13:18:15.979Z</time></trkpt><trkpt lat="43.9499615" lon="12.1908023"><ele>193.0</ele><time>2026-04-05T13:18:16.978Z</time></trkpt><trkpt lat="43.9501272" lon="12.1910632"><ele>192.5</ele><time>2026-04-05T13:18:17.98Z</time></trkpt><trkpt lat="43.9502924" lon="12.1913304"><ele>192.0</ele><time>2026-04-05T13:18:18.978Z</time></trkpt><trkpt lat="43.9504597" lon="12.1916045"><ele>191.5</ele><time>2026-04-05T13:18:19.979Z</time></trkpt><trkpt lat="43.9506247" lon="12.1918707"><ele>191.0</ele><time>2026-04-05T13:18:20.979Z</time></trkpt><trkpt lat="43.9507962" lon="12.1921407"><ele>189.0</ele><time>2026-04-05T13:18:21.979Z</time></trkpt><trkpt lat="43.9509693" lon="12.1923984"><ele>187.0</ele><time>2026-04-05T13:18:22.978Z</time></trkpt><trkpt lat="43.9511423" lon="12.192663"><ele>187.0</ele><time>2026-04-05T13:18:23.979Z</time></trkpt><trkpt lat="43.9513077" lon="12.1929248"><ele>187.0</ele><time>2026-04-05T13:18:24.978Z</time></trkpt><trkpt lat="43.9514816" lon="12.1931742"><ele>188.0</ele><time>2026-04-05T13:18:25.976Z</time></trkpt><trkpt lat="43.9516442" lon="12.1934307"><ele>189.0</ele><time>2026-04-05T13:18:26.98Z</time></trkpt><trkpt lat="43.9518167" lon="12.1936871"><ele>187.0</ele><time>2026-04-05T13:18:27.979Z</time></trkpt><trkpt lat="43.9519784" lon="12.1939458"><ele>185.0</ele><time>2026-04-05T13:18:28.979Z</time></trkpt><trkpt lat="43.9521447" lon="12.1941927"><ele>185.0</ele><time>2026-04-05T13:18:29.979Z</time></trkpt><trkpt lat="43.952289" lon="12.1944284"><ele>185.0</ele><time>2026-04-05T13:18:30.98Z</time></trkpt><trkpt lat="43.9524281" lon="12.1946612"><ele>185.0</ele><time>2026-04-05T13:18:31.98Z</time></trkpt><trkpt lat="43.9525797" lon="12.1948846"><ele>179.33333333333331</ele><time>2026-04-05T13:18:32.98Z</time></trkpt><trkpt lat="43.9527158" lon="12.1951163"><ele>173.66666666666666</ele><time>2026-04-05T13:18:33.979Z</time></trkpt><trkpt lat="43.9528472" lon="12.1953305"><ele>168.0</ele><time>2026-04-05T13:18:34.98Z</time></trkpt><trkpt lat="43.952969" lon="12.1955331"><ele>169.66666666666666</ele><time>2026-04-05T13:18:35.98Z</time></trkpt><trkpt lat="43.9530885" lon="12.1957214"><ele>171.33333333333331</ele><time>2026-04-05T13:18:36.98Z</time></trkpt><trkpt lat="43.9532147" lon="12.1959118"><ele>173.0</ele><time>2026-04-05T13:18:37.98Z</time></trkpt><trkpt lat="43.9533467" lon="12.1961021"><ele>174.33333333333331</ele><time>2026-04-05T13:18:38.979Z</time></trkpt><trkpt lat="43.9534816" lon="12.196301"><ele>175.66666666666666</ele><time>2026-04-05T13:18:39.976Z</time></trkpt><trkpt lat="43.9536171" lon="12.1965134"><ele>177.0</ele><time>2026-04-05T13:18:40.98Z</time></trkpt><trkpt lat="43.9537498" lon="12.1967411"><ele>177.0</ele><time>2026-04-05T13:18:41.979Z</time></trkpt><trkpt lat="43.9538917" lon="12.1969682"><ele>177.0</ele><time>2026-04-05T13:18:42.98Z</time></trkpt><trkpt lat="43.9540315" lon="12.197197"><ele>177.0</ele><time>2026-04-05T13:18:43.98Z</time></trkpt><trkpt lat="43.9541723" lon="12.1974231"><ele>176.33333333333334</ele><time>2026-04-05T13:18:44.98Z</time></trkpt><trkpt lat="43.9543097" lon="12.1976519"><ele>175.66666666666669</ele><time>2026-04-05T13:18:45.98Z</time></trkpt><trkpt lat="43.9544469" lon="12.1978701"><ele>175.0</ele><time>2026-04-05T13:18:46.978Z</time></trkpt><trkpt lat="43.9545951" lon="12.1980856"><ele>175.33333333333334</ele><time>2026-04-05T13:18:47.98Z</time></trkpt><trkpt lat="43.9547552" lon="12.19829"><ele>175.66666666666666</ele><time>2026-04-05T13:18:48.979Z</time></trkpt><trkpt lat="43.9549298" lon="12.1984823"><ele>176.0</ele><time>2026-04-05T13:18:49.979Z</time></trkpt><trkpt lat="43.9551049" lon="12.1986761"><ele>176.0</ele><time>2026-04-05T13:18:50.98Z</time></trkpt><trkpt lat="43.9552913" lon="12.1988608"><ele>176.0</ele><time>2026-04-05T13:18:51.979Z</time></trkpt><trkpt lat="43.9554759" lon="12.1990431"><ele>180.0</ele><time>2026-04-05T13:18:52.979Z</time></trkpt><trkpt lat="43.9556665" lon="12.1992222"><ele>184.0</ele><time>2026-04-05T13:18:53.978Z</time></trkpt><trkpt lat="43.9558634" lon="12.1993891"><ele>173.0</ele><time>2026-04-05T13:18:54.98Z</time></trkpt><trkpt lat="43.9561014" lon="12.199504"><ele>162.0</ele><time>2026-04-05T13:18:55.98Z</time></trkpt><trkpt lat="43.9563163" lon="12.1996314"><ele>162.0</ele><time>2026-04-05T13:18:56.979Z</time></trkpt><trkpt lat="43.9565359" lon="12.1997463"><ele>162.0</ele><time>2026-04-05T13:18:57.98Z</time></trkpt><trkpt lat="43.9567631" lon="12.1998542"><ele>164.5</ele><time>2026-04-05T13:18:58.98Z</time></trkpt><trkpt lat="43.9569947" lon="12.19994"><ele>167.0</ele><time>2026-04-05T13:18:59.978Z</time></trkpt><trkpt lat="43.9572254" lon="12.2000183"><ele>167.0</ele><time>2026-04-05T13:19:00.978Z</time></trkpt><trkpt lat="43.957461" lon="12.2000789"><ele>167.0</ele><time>2026-04-05T13:19:01.979Z</time></trkpt><trkpt lat="43.9577001" lon="12.2001314"><ele>165.5</ele><time>2026-04-05T13:19:02.977Z</time></trkpt><trkpt lat="43.9579395" lon="12.2001796"><ele>164.0</ele><time>2026-04-05T13:19:03.979Z</time></trkpt><trkpt lat="43.9581773" lon="12.2002325"><ele>162.0</ele><time>2026-04-05T13:19:04.978Z</time></trkpt><trkpt lat="43.9584154" lon="12.2002892"><ele>160.0</ele><time>2026-04-05T13:19:05.978Z</time></trkpt><trkpt lat="43.9586504" lon="12.2003541"><ele>160.0</ele><time>2026-04-05T13:19:06.98Z</time></trkpt><trkpt lat="43.9588809" lon="12.2004337"><ele>160.0</ele><time>2026-04-05T13:19:07.98Z</time></trkpt><trkpt lat="43.9591164" lon="12.2005166"><ele>159.0</ele><time>2026-04-05T13:19:08.978Z</time></trkpt><trkpt lat="43.9593612" lon="12.2005817"><ele>158.0</ele><time>2026-04-05T13:19:09.979Z</time></trkpt><trkpt lat="43.9596106" lon="12.2006448"><ele>158.0</ele><time>2026-04-05T13:19:10.979Z</time></trkpt><trkpt lat="43.9598553" lon="12.2007102"><ele>158.0</ele><time>2026-04-05T13:19:11.98Z</time></trkpt><trkpt lat="43.9601066" lon="12.2007875"><ele>158.0</ele><time>2026-04-05T13:19:12.978Z</time></trkpt><trkpt lat="43.9603547" lon="12.2008717"><ele>158.0</ele><time>2026-04-05T13:19:13.979Z</time></trkpt><trkpt lat="43.9605981" lon="12.2009701"><ele>158.0</ele><time>2026-04-05T13:19:14.98Z</time></trkpt><trkpt lat="43.9608426" lon="12.2010763"><ele>158.0</ele><time>2026-04-05T13:19:15.979Z</time></trkpt><trkpt lat="43.9610818" lon="12.2011928"><ele>157.0</ele><time>2026-04-05T13:19:16.978Z</time></trkpt><trkpt lat="43.9613143" lon="12.2013081"><ele>156.0</ele><time>2026-04-05T13:19:17.977Z</time></trkpt><trkpt lat="43.9615552" lon="12.2014395"><ele>153.5</ele><time>2026-04-05T13:19:18.978Z</time></trkpt><trkpt lat="43.9617952" lon="12.2015735"><ele>151.0</ele><time>2026-04-05T13:19:19.98Z</time></trkpt><trkpt lat="43.9620328" lon="12.2016953"><ele>151.0</ele><time>2026-04-05T13:19:20.978Z</time></trkpt><trkpt lat="43.9622705" lon="12.2018143"><ele>151.0</ele><time>2026-04-05T13:19:21.979Z</time></trkpt><trkpt lat="43.9625046" lon="12.2019395"><ele>142.0</ele><time>2026-04-05T13:19:22.979Z</time></trkpt><trkpt lat="43.9627399" lon="12.2020672"><ele>133.0</ele><time>2026-04-05T13:19:23.98Z</time></trkpt><trkpt lat="43.9629831" lon="12.202195"><ele>133.0</ele><time>2026-04-05T13:19:24.98Z</time></trkpt><trkpt lat="43.9632259" lon="12.2023211"><ele>133.0</ele><time>2026-04-05T13:19:25.979Z</time></trkpt><trkpt lat="43.9634688" lon="12.2024402"><ele>137.0</ele><time>2026-04-05T13:19:26.98Z</time></trkpt><trkpt lat="43.9637122" lon="12.2025603"><ele>141.0</ele><time>2026-04-05T13:19:27.98Z</time></trkpt><trkpt lat="43.9639544" lon="12.2026727"><ele>139.5</ele><time>2026-04-05T13:19:28.979Z</time></trkpt><trkpt lat="43.9641996" lon="12.2027628"><ele>138.0</ele><time>2026-04-05T13:19:29.98Z</time></trkpt><trkpt lat="43.9644529" lon="12.2028299"><ele>138.0</ele><time>2026-04-05T13:19:30.976Z</time></trkpt><trkpt lat="43.9647077" lon="12.2028908"><ele>138.0</ele><time>2026-04-05T13:19:31.977Z</time></trkpt><trkpt lat="43.9649657" lon="12.2029281"><ele>132.0</ele><time>2026-04-05T13:19:32.98Z</time></trkpt><trkpt lat="43.9652199" lon="12.2029504"><ele>126.0</ele><time>2026-04-05T13:19:33.98Z</time></trkpt><trkpt lat="43.9654861" lon="12.202961"><ele>126.0</ele><time>2026-04-05T13:19:34.98Z</time></trkpt><trkpt lat="43.9657521" lon="12.2029612"><ele>126.0</ele><time>2026-04-05T13:19:35.98Z</time></trkpt><trkpt lat="43.9660094" lon="12.2029799"><ele>127.0</ele><time>2026-04-05T13:19:36.977Z</time></trkpt><trkpt lat="43.9662769" lon="12.2029915"><ele>128.0</ele><time>2026-04-05T13:19:37.979Z</time></trkpt><trkpt lat="43.9665351" lon="12.202997"><ele>128.0</ele><time>2026-04-05T13:19:38.98Z</time></trkpt><trkpt lat="43.9667924" lon="12.203006"><ele>128.0</ele><time>2026-04-05T13:19:39.978Z</time></trkpt><trkpt lat="43.9670541" lon="12.2030103"><ele>128.0</ele><time>2026-04-05T13:19:40.979Z</time></trkpt><trkpt lat="43.9673132" lon="12.2030112"><ele>128.0</ele><time>2026-04-05T13:19:41.978Z</time></trkpt><trkpt lat="43.9675741" lon="12.2030167"><ele>126.5</ele><time>2026-04-05T13:19:42.978Z</time></trkpt><trkpt lat="43.9678301" lon="12.2030182"><ele>125.0</ele><time>2026-04-05T13:19:43.978Z</time></trkpt><trkpt lat="43.9680864" lon="12.2030177"><ele>125.0</ele><time>2026-04-05T13:19:44.98Z</time></trkpt><trkpt lat="43.9683396" lon="12.2030159"><ele>125.0</ele><time>2026-04-05T13:19:45.98Z</time></trkpt><trkpt lat="43.9685911" lon="12.203016"><ele>124.0</ele><time>2026-04-05T13:19:46.979Z</time></trkpt><trkpt lat="43.9688525" lon="12.2030183"><ele>123.0</ele><time>2026-04-05T13:19:47.98Z</time></trkpt><trkpt lat="43.9691243" lon="12.2030092"><ele>122.0</ele><time>2026-04-05T13:19:48.98Z</time></trkpt><trkpt lat="43.9693721" lon="12.2030297"><ele>121.0</ele><time>2026-04-05T13:19:49.979Z</time></trkpt><trkpt lat="43.9696337" lon="12.2030398"><ele>121.0</ele><time>2026-04-05T13:19:50.977Z</time></trkpt><trkpt lat="43.9699001" lon="12.2030428"><ele>121.0</ele><time>2026-04-05T13:19:51.978Z</time></trkpt><trkpt lat="43.9701665" lon="12.2030602"><ele>121.5</ele><time>2026-04-05T13:19:52.98Z</time></trkpt><trkpt lat="43.9704401" lon="12.2030946"><ele>122.0</ele><time>2026-04-05T13:19:53.979Z</time></trkpt><trkpt lat="43.9707031" lon="12.2031301"><ele>119.5</ele><time>2026-04-05T13:19:54.977Z</time></trkpt><trkpt lat="43.9709654" lon="12.203168"><ele>117.0</ele><time>2026-04-05T13:19:55.979Z</time></trkpt><trkpt lat="43.9712254" lon="12.20321"><ele>117.0</ele><time>2026-04-05T13:19:56.98Z</time></trkpt><trkpt lat="43.9714858" lon="12.2032532"><ele>117.0</ele><time>2026-04-05T13:19:57.98Z</time></trkpt><trkpt lat="43.9717398" lon="12.2033144"><ele>118.0</ele><time>2026-04-05T13:19:58.979Z</time></trkpt><trkpt lat="43.9719967" lon="12.2033714"><ele>119.0</ele><time>2026-04-05T13:19:59.98Z</time></trkpt><trkpt lat="43.9722559" lon="12.2034236"><ele>119.0</ele><time>2026-04-05T13:20:00.979Z</time></trkpt><trkpt lat="43.9725127" lon="12.2034831"><ele>119.0</ele><time>2026-04-05T13:20:01.979Z</time></trkpt><trkpt lat="43.9727727" lon="12.203541"><ele>120.5</ele><time>2026-04-05T13:20:02.978Z</time></trkpt><trkpt lat="43.9730357" lon="12.2035947"><ele>122.0</ele><time>2026-04-05T13:20:03.978Z</time></trkpt><trkpt lat="43.9732949" lon="12.2036499"><ele>123.0</ele><time>2026-04-05T13:20:04.98Z</time></trkpt><trkpt lat="43.9735548" lon="12.2037073"><ele>124.0</ele><time>2026-04-05T13:20:05.98Z</time></trkpt><trkpt lat="43.9738189" lon="12.2037712"><ele>124.0</ele><time>2026-04-05T13:20:06.979Z</time></trkpt><trkpt lat="43.9740853" lon="12.2038305"><ele>124.0</ele><time>2026-04-05T13:20:07.979Z</time></trkpt><trkpt lat="43.9743532" lon="12.2038784"><ele>119.0</ele><time>2026-04-05T13:20:08.98Z</time></trkpt><trkpt lat="43.9746224" lon="12.2039384"><ele>114.0</ele><time>2026-04-05T13:20:09.979Z</time></trkpt><trkpt lat="43.9748892" lon="12.2039963"><ele>112.5</ele><time>2026-04-05T13:20:10.979Z</time></trkpt><trkpt lat="43.9751514" lon="12.204055"><ele>111.0</ele><time>2026-04-05T13:20:11.979Z</time></trkpt><trkpt lat="43.9754096" lon="12.2041137"><ele>111.0</ele><time>2026-04-05T13:20:12.98Z</time></trkpt><trkpt lat="43.975672" lon="12.2041706"><ele>111.0</ele><time>2026-04-05T13:20:13.979Z</time></trkpt><trkpt lat="43.9759313" lon="12.2042291"><ele>112.0</ele><time>2026-04-05T13:20:14.98Z</time></trkpt><trkpt lat="43.9761911" lon="12.2042853"><ele>113.0</ele><time>2026-04-05T13:20:15.98Z</time></trkpt><trkpt lat="43.9764547" lon="12.2043484"><ele>113.5</ele><time>2026-04-05T13:20:16.979Z</time></trkpt><trkpt lat="43.9767151" lon="12.2044079"><ele>114.0</ele><time>2026-04-05T13:20:17.98Z</time></trkpt><trkpt lat="43.9769745" lon="12.2044647"><ele>114.0</ele><time>2026-04-05T13:20:18.979Z</time></trkpt><trkpt lat="43.9772367" lon="12.2045158"><ele>114.0</ele><time>2026-04-05T13:20:19.978Z</time></trkpt><trkpt lat="43.9774986" lon="12.204574"><ele>112.5</ele><time>2026-04-05T13:20:20.978Z</time></trkpt><trkpt lat="43.9777604" lon="12.2046319"><ele>111.0</ele><time>2026-04-05T13:20:21.98Z</time></trkpt><trkpt lat="43.9780201" lon="12.2046921"><ele>111.0</ele><time>2026-04-05T13:20:22.977Z</time></trkpt><trkpt lat="43.9782815" lon="12.204752"><ele>111.0</ele><time>2026-04-05T13:20:23.98Z</time></trkpt><trkpt lat="43.9785414" lon="12.2048049"><ele>110.5</ele><time>2026-04-05T13:20:24.979Z</time></trkpt><trkpt lat="43.9788032" lon="12.2048594"><ele>110.0</ele><time>2026-04-05T13:20:25.98Z</time></trkpt><trkpt lat="43.9790644" lon="12.204921"><ele>109.0</ele><time>2026-04-05T13:20:26.979Z</time></trkpt><trkpt lat="43.9793217" lon="12.2049804"><ele>108.0</ele><time>2026-04-05T13:20:27.98Z</time></trkpt><trkpt lat="43.9795823" lon="12.2050367"><ele>108.0</ele><time>2026-04-05T13:20:28.98Z</time></trkpt><trkpt lat="43.9798417" lon="12.2050938"><ele>108.0</ele><time>2026-04-05T13:20:29.979Z</time></trkpt><trkpt lat="43.9801075" lon="12.2051558"><ele>109.0</ele><time>2026-04-05T13:20:30.98Z</time></trkpt><trkpt lat="43.9803728" lon="12.2052109"><ele>110.0</ele><time>2026-04-05T13:20:31.979Z</time></trkpt><trkpt lat="43.980632" lon="12.2052673"><ele>109.5</ele><time>2026-04-05T13:20:32.98Z</time></trkpt><trkpt lat="43.9808949" lon="12.2053204"><ele>109.0</ele><time>2026-04-05T13:20:33.98Z</time></trkpt><trkpt lat="43.9811616" lon="12.2053687"><ele>109.0</ele><time>2026-04-05T13:20:34.976Z</time></trkpt><trkpt lat="43.9814278" lon="12.205414"><ele>109.0</ele><time>2026-04-05T13:20:35.977Z</time></trkpt><trkpt lat="43.9816977" lon="12.2054568"><ele>108.0</ele><time>2026-04-05T13:20:36.976Z</time></trkpt><trkpt lat="43.9819669" lon="12.205483"><ele>107.0</ele><time>2026-04-05T13:20:37.977Z</time></trkpt><trkpt lat="43.9822331" lon="12.2054944"><ele>107.0</ele><time>2026-04-05T13:20:38.977Z</time></trkpt><trkpt lat="43.9825035" lon="12.2054969"><ele>107.0</ele><time>2026-04-05T13:20:39.976Z</time></trkpt><trkpt lat="43.9827802" lon="12.2054936"><ele>107.5</ele><time>2026-04-05T13:20:40.975Z</time></trkpt><trkpt lat="43.9830525" lon="12.2054809"><ele>108.0</ele><time>2026-04-05T13:20:41.977Z</time></trkpt><trkpt lat="43.9833224" lon="12.2054695"><ele>106.5</ele><time>2026-04-05T13:20:42.978Z</time></trkpt><trkpt lat="43.9835842" lon="12.2054581"><ele>105.0</ele><time>2026-04-05T13:20:43.98Z</time></trkpt><trkpt lat="43.9838407" lon="12.2054473"><ele>105.0</ele><time>2026-04-05T13:20:44.979Z</time></trkpt><trkpt lat="43.9840916" lon="12.2054399"><ele>105.0</ele><time>2026-04-05T13:20:45.977Z</time></trkpt><trkpt lat="43.9843381" lon="12.2054283"><ele>104.5</ele><time>2026-04-05T13:20:46.978Z</time></trkpt><trkpt lat="43.9845776" lon="12.2054189"><ele>104.0</ele><time>2026-04-05T13:20:47.978Z</time></trkpt><trkpt lat="43.9848136" lon="12.2054075"><ele>105.0</ele><time>2026-04-05T13:20:48.978Z</time></trkpt><trkpt lat="43.985064" lon="12.2053932"><ele>106.0</ele><time>2026-04-05T13:20:49.979Z</time></trkpt><trkpt lat="43.9852887" lon="12.2053828"><ele>106.0</ele><time>2026-04-05T13:20:50.98Z</time></trkpt><trkpt lat="43.9855103" lon="12.2053768"><ele>106.0</ele><time>2026-04-05T13:20:51.98Z</time></trkpt><trkpt lat="43.9857265" lon="12.205379"><ele>106.0</ele><time>2026-04-05T13:20:52.98Z</time></trkpt><trkpt lat="43.9859421" lon="12.2053711"><ele>106.33333333333334</ele><time>2026-04-05T13:20:53.978Z</time></trkpt><trkpt lat="43.986164" lon="12.2053616"><ele>106.66666666666666</ele><time>2026-04-05T13:20:54.979Z</time></trkpt><trkpt lat="43.9863855" lon="12.2053425"><ele>107.0</ele><time>2026-04-05T13:20:55.98Z</time></trkpt><trkpt lat="43.9866067" lon="12.205334"><ele>106.0</ele><time>2026-04-05T13:20:56.98Z</time></trkpt><trkpt lat="43.9868353" lon="12.2053255"><ele>105.0</ele><time>2026-04-05T13:20:57.979Z</time></trkpt><trkpt lat="43.9870616" lon="12.2053203"><ele>105.0</ele><time>2026-04-05T13:20:58.98Z</time></trkpt><trkpt lat="43.9872885" lon="12.2053065"><ele>105.0</ele><time>2026-04-05T13:20:59.978Z</time></trkpt><trkpt lat="43.9875203" lon="12.2052968"><ele>104.0</ele><time>2026-04-05T13:21:00.979Z</time></trkpt><trkpt lat="43.9877469" lon="12.2052749"><ele>103.0</ele><time>2026-04-05T13:21:01.98Z</time></trkpt><trkpt lat="43.9879727" lon="12.2052547"><ele>103.0</ele><time>2026-04-05T13:21:02.979Z</time></trkpt><trkpt lat="43.9881973" lon="12.2052292"><ele>103.0</ele><time>2026-04-05T13:21:03.98Z</time></trkpt><trkpt lat="43.9884197" lon="12.2052046"><ele>103.0</ele><time>2026-04-05T13:21:04.979Z</time></trkpt><trkpt lat="43.9886569" lon="12.2051828"><ele>102.0</ele><time>2026-04-05T13:21:05.979Z</time></trkpt><trkpt lat="43.9888701" lon="12.2051549"><ele>101.0</ele><time>2026-04-05T13:21:06.98Z</time></trkpt><trkpt lat="43.9890783" lon="12.2051109"><ele>100.0</ele><time>2026-04-05T13:21:07.98Z</time></trkpt><trkpt lat="43.98928" lon="12.2050835"><ele>98.33333333333334</ele><time>2026-04-05T13:21:08.979Z</time></trkpt><trkpt lat="43.989476" lon="12.2050572"><ele>96.66666666666667</ele><time>2026-04-05T13:21:09.977Z</time></trkpt><trkpt lat="43.9896789" lon="12.2050436"><ele>95.0</ele><time>2026-04-05T13:21:10.978Z</time></trkpt><trkpt lat="43.9898654" lon="12.2050155"><ele>95.66666666666667</ele><time>2026-04-05T13:21:11.978Z</time></trkpt><trkpt lat="43.9900438" lon="12.2049804"><ele>96.33333333333334</ele><time>2026-04-05T13:21:12.978Z</time></trkpt><trkpt lat="43.9902159" lon="12.2049564"><ele>97.0</ele><time>2026-04-05T13:21:13.98Z</time></trkpt><trkpt lat="43.9903815" lon="12.2049333"><ele>97.0</ele><time>2026-04-05T13:21:14.978Z</time></trkpt><trkpt lat="43.9905411" lon="12.2049082"><ele>97.0</ele><time>2026-04-05T13:21:15.979Z</time></trkpt><trkpt lat="43.9906965" lon="12.2048829"><ele>97.0</ele><time>2026-04-05T13:21:16.979Z</time></trkpt><trkpt lat="43.9908585" lon="12.2048571"><ele>97.0</ele><time>2026-04-05T13:21:17.98Z</time></trkpt><trkpt lat="43.9910153" lon="12.2048335"><ele>97.0</ele><time>2026-04-05T13:21:18.977Z</time></trkpt><trkpt lat="43.9911903" lon="12.2048236"><ele>97.0</ele><time>2026-04-05T13:21:19.98Z</time></trkpt><trkpt lat="43.9913493" lon="12.2048012"><ele>97.0</ele><time>2026-04-05T13:21:20.978Z</time></trkpt><trkpt lat="43.9915195" lon="12.2047868"><ele>97.0</ele><time>2026-04-05T13:21:21.979Z</time></trkpt><trkpt lat="43.9916956" lon="12.2047591"><ele>97.0</ele><time>2026-04-05T13:21:22.978Z</time></trkpt><trkpt lat="43.9918642" lon="12.2047259"><ele>97.33333333333334</ele><time>2026-04-05T13:21:23.979Z</time></trkpt><trkpt lat="43.9920329" lon="12.2046946"><ele>97.66666666666666</ele><time>2026-04-05T13:21:24.98Z</time></trkpt><trkpt lat="43.9922044" lon="12.2046656"><ele>98.0</ele><time>2026-04-05T13:21:25.979Z</time></trkpt><trkpt lat="43.9923729" lon="12.2046383"><ele>97.66666666666666</ele><time>2026-04-05T13:21:26.976Z</time></trkpt><trkpt lat="43.9925376" lon="12.2046114"><ele>97.33333333333334</ele><time>2026-04-05T13:21:27.98Z</time></trkpt><trkpt lat="43.9927068" lon="12.2045866"><ele>97.0</ele><time>2026-04-05T13:21:28.98Z</time></trkpt><trkpt lat="43.992879" lon="12.2045611"><ele>97.0</ele><time>2026-04-05T13:21:29.978Z</time></trkpt><trkpt lat="43.9930608" lon="12.2045379"><ele>97.0</ele><time>2026-04-05T13:21:30.978Z</time></trkpt><trkpt lat="43.9932374" lon="12.2045113"><ele>97.0</ele><time>2026-04-05T13:21:31.977Z</time></trkpt><trkpt lat="43.9934205" lon="12.2044913"><ele>96.66666666666667</ele><time>2026-04-05T13:21:32.98Z</time></trkpt><trkpt lat="43.9935976" lon="12.2044622"><ele>96.33333333333334</ele><time>2026-04-05T13:21:33.979Z</time></trkpt><trkpt lat="43.9937865" lon="12.2044438"><ele>96.0</ele><time>2026-04-05T13:21:34.978Z</time></trkpt><trkpt lat="43.9939769" lon="12.2044219"><ele>96.0</ele><time>2026-04-05T13:21:35.977Z</time></trkpt><trkpt lat="43.9941525" lon="12.2043982"><ele>96.0</ele><time>2026-04-05T13:21:36.98Z</time></trkpt><trkpt lat="43.9943383" lon="12.2043809"><ele>96.0</ele><time>2026-04-05T13:21:37.979Z</time></trkpt><trkpt lat="43.994513" lon="12.2043564"><ele>95.66666666666667</ele><time>2026-04-05T13:21:38.98Z</time></trkpt><trkpt lat="43.9946858" lon="12.2043259"><ele>95.33333333333334</ele><time>2026-04-05T13:21:39.98Z</time></trkpt><trkpt lat="43.9948606" lon="12.2042999"><ele>95.0</ele><time>2026-04-05T13:21:40.979Z</time></trkpt><trkpt lat="43.9950331" lon="12.2042649"><ele>96.33333333333334</ele><time>2026-04-05T13:21:41.977Z</time></trkpt><trkpt lat="43.9952117" lon="12.2042359"><ele>97.66666666666667</ele><time>2026-04-05T13:21:42.977Z</time></trkpt><trkpt lat="43.9953935" lon="12.204202"><ele>99.0</ele><time>2026-04-05T13:21:43.974Z</time></trkpt><trkpt lat="43.9955745" lon="12.2041736"><ele>99.0</ele><time>2026-04-05T13:21:44.974Z</time></trkpt><trkpt lat="43.9957667" lon="12.2041517"><ele>99.0</ele><time>2026-04-05T13:21:45.978Z</time></trkpt><trkpt lat="43.9959542" lon="12.2041354"><ele>99.0</ele><time>2026-04-05T13:21:46.978Z</time></trkpt><trkpt lat="43.9961348" lon="12.2041073"><ele>99.66666666666666</ele><time>2026-04-05T13:21:47.98Z</time></trkpt><trkpt lat="43.9963207" lon="12.2040827"><ele>100.33333333333333</ele><time>2026-04-05T13:21:48.98Z</time></trkpt><trkpt lat="43.9965026" lon="12.2040516"><ele>101.0</ele><time>2026-04-05T13:21:49.979Z</time></trkpt><trkpt lat="43.9966829" lon="12.2040254"><ele>102.33333333333333</ele><time>2026-04-05T13:21:50.979Z</time></trkpt><trkpt lat="43.996862" lon="12.203997"><ele>103.66666666666666</ele><time>2026-04-05T13:21:51.978Z</time></trkpt><trkpt lat="43.9970428" lon="12.2039703"><ele>105.0</ele><time>2026-04-05T13:21:52.979Z</time></trkpt><trkpt lat="43.9972237" lon="12.2039384"><ele>102.33333333333334</ele><time>2026-04-05T13:21:53.979Z</time></trkpt><trkpt lat="43.9974038" lon="12.2039135"><ele>99.66666666666667</ele><time>2026-04-05T13:21:54.979Z</time></trkpt><trkpt lat="43.9975906" lon="12.2038829"><ele>97.0</ele><time>2026-04-05T13:21:55.979Z</time></trkpt><trkpt lat="43.9977831" lon="12.203862"><ele>96.66666666666667</ele><time>2026-04-05T13:21:56.977Z</time></trkpt><trkpt lat="43.9979719" lon="12.2038389"><ele>96.33333333333334</ele><time>2026-04-05T13:21:57.977Z</time></trkpt><trkpt lat="43.9981713" lon="12.2038193"><ele>96.0</ele><time>2026-04-05T13:21:58.978Z</time></trkpt><trkpt lat="43.9983685" lon="12.2038009"><ele>96.66666666666666</ele><time>2026-04-05T13:21:59.98Z</time></trkpt><trkpt lat="43.9985769" lon="12.2037793"><ele>97.33333333333333</ele><time>2026-04-05T13:22:00.98Z</time></trkpt><trkpt lat="43.9987924" lon="12.2037499"><ele>98.0</ele><time>2026-04-05T13:22:01.975Z</time></trkpt><trkpt lat="43.9990032" lon="12.2037235"><ele>96.0</ele><time>2026-04-05T13:22:02.979Z</time></trkpt><trkpt lat="43.9992304" lon="12.2036997"><ele>94.0</ele><time>2026-04-05T13:22:03.978Z</time></trkpt><trkpt lat="43.9994792" lon="12.2036785"><ele>94.0</ele><time>2026-04-05T13:22:04.978Z</time></trkpt><trkpt lat="43.9997454" lon="12.2036594"><ele>94.0</ele><time>2026-04-05T13:22:05.979Z</time></trkpt><trkpt lat="44.0000223" lon="12.2036418"><ele>94.0</ele><time>2026-04-05T13:22:06.979Z</time></trkpt><trkpt lat="44.0003039" lon="12.2036213"><ele>94.0</ele><time>2026-04-05T13:22:07.978Z</time></trkpt><trkpt lat="44.0005695" lon="12.203604"><ele>93.0</ele><time>2026-04-05T13:22:08.978Z</time></trkpt><trkpt lat="44.0008369" lon="12.2035901"><ele>92.0</ele><time>2026-04-05T13:22:09.979Z</time></trkpt><trkpt lat="44.0011013" lon="12.2035732"><ele>92.0</ele><time>2026-04-05T13:22:10.977Z</time></trkpt><trkpt lat="44.001354" lon="12.203559"><ele>92.0</ele><time>2026-04-05T13:22:11.979Z</time></trkpt><trkpt lat="44.0016091" lon="12.2035437"><ele>90.5</ele><time>2026-04-05T13:22:12.979Z</time></trkpt><trkpt lat="44.0018711" lon="12.2035259"><ele>89.0</ele><time>2026-04-05T13:22:13.979Z</time></trkpt><trkpt lat="44.0021363" lon="12.2035147"><ele>89.0</ele><time>2026-04-05T13:22:14.978Z</time></trkpt><trkpt lat="44.0024047" lon="12.203501"><ele>89.0</ele><time>2026-04-05T13:22:15.98Z</time></trkpt><trkpt lat="44.0026818" lon="12.2034932"><ele>89.5</ele><time>2026-04-05T13:22:16.979Z</time></trkpt><trkpt lat="44.0029603" lon="12.2034873"><ele>90.0</ele><time>2026-04-05T13:22:17.98Z</time></trkpt><trkpt lat="44.0032418" lon="12.2034815"><ele>89.0</ele><time>2026-04-05T13:22:18.977Z</time></trkpt><trkpt lat="44.0035167" lon="12.2034706"><ele>88.0</ele><time>2026-04-05T13:22:19.978Z</time></trkpt><trkpt lat="44.0037901" lon="12.2034516"><ele>88.0</ele><time>2026-04-05T13:22:20.977Z</time></trkpt><trkpt lat="44.0040645" lon="12.2034376"><ele>88.0</ele><time>2026-04-05T13:22:21.978Z</time></trkpt><trkpt lat="44.0043345" lon="12.2034211"><ele>88.5</ele><time>2026-04-05T13:22:22.977Z</time></trkpt><trkpt lat="44.0046087" lon="12.2034088"><ele>89.0</ele><time>2026-04-05T13:22:23.979Z</time></trkpt><trkpt lat="44.0048792" lon="12.2033921"><ele>88.5</ele><time>2026-04-05T13:22:24.978Z</time></trkpt><trkpt lat="44.0051509" lon="12.2033749"><ele>88.0</ele><time>2026-04-05T13:22:25.979Z</time></trkpt><trkpt lat="44.0054219" lon="12.2033596"><ele>88.0</ele><time>2026-04-05T13:22:26.977Z</time></trkpt><trkpt lat="44.0056917" lon="12.2033459"><ele>88.0</ele><time>2026-04-05T13:22:27.977Z</time></trkpt><trkpt lat="44.0059617" lon="12.203331"><ele>88.0</ele><time>2026-04-05T13:22:28.978Z</time></trkpt><trkpt lat="44.0062263" lon="12.2033146"><ele>88.0</ele><time>2026-04-05T13:22:29.98Z</time></trkpt><trkpt lat="44.0064997" lon="12.2033009"><ele>88.5</ele><time>2026-04-05T13:22:30.978Z</time></trkpt><trkpt lat="44.006767" lon="12.2032836"><ele>89.0</ele><time>2026-04-05T13:22:31.978Z</time></trkpt><trkpt lat="44.0070321" lon="12.2032667"><ele>89.0</ele><time>2026-04-05T13:22:32.978Z</time></trkpt><trkpt lat="44.0073096" lon="12.2032327"><ele>89.0</ele><time>2026-04-05T13:22:33.978Z</time></trkpt><trkpt lat="44.0075744" lon="12.2032131"><ele>88.0</ele><time>2026-04-05T13:22:34.979Z</time></trkpt><trkpt lat="44.0078383" lon="12.2031961"><ele>87.0</ele><time>2026-04-05T13:22:35.979Z</time></trkpt><trkpt lat="44.0080988" lon="12.2031809"><ele>87.0</ele><time>2026-04-05T13:22:36.98Z</time></trkpt><trkpt lat="44.0083593" lon="12.2031672"><ele>87.0</ele><time>2026-04-05T13:22:37.977Z</time></trkpt><trkpt lat="44.0086205" lon="12.2031554"><ele>87.0</ele><time>2026-04-05T13:22:38.978Z</time></trkpt><trkpt lat="44.0088767" lon="12.2031426"><ele>87.0</ele><time>2026-04-05T13:22:39.979Z</time></trkpt><trkpt lat="44.0091317" lon="12.2031303"><ele>86.5</ele><time>2026-04-05T13:22:40.977Z</time></trkpt><trkpt lat="44.0093787" lon="12.2031225"><ele>86.0</ele><time>2026-04-05T13:22:41.98Z</time></trkpt><trkpt lat="44.0096334" lon="12.2031103"><ele>86.0</ele><time>2026-04-05T13:22:42.978Z</time></trkpt><trkpt lat="44.0098857" lon="12.2030975"><ele>86.0</ele><time>2026-04-05T13:22:43.979Z</time></trkpt><trkpt lat="44.0101408" lon="12.2030854"><ele>86.0</ele><time>2026-04-05T13:22:44.978Z</time></trkpt><trkpt lat="44.0103939" lon="12.2030791"><ele>86.0</ele><time>2026-04-05T13:22:45.98Z</time></trkpt><trkpt lat="44.0106457" lon="12.2030888"><ele>87.0</ele><time>2026-04-05T13:22:46.977Z</time></trkpt><trkpt lat="44.0108962" lon="12.2031172"><ele>88.0</ele><time>2026-04-05T13:22:47.98Z</time></trkpt><trkpt lat="44.011148" lon="12.203159"><ele>88.5</ele><time>2026-04-05T13:22:48.978Z</time></trkpt><trkpt lat="44.0113981" lon="12.2032038"><ele>89.0</ele><time>2026-04-05T13:22:49.979Z</time></trkpt><trkpt lat="44.0116536" lon="12.2032642"><ele>88.0</ele><time>2026-04-05T13:22:50.978Z</time></trkpt><trkpt lat="44.0119026" lon="12.2033345"><ele>87.0</ele><time>2026-04-05T13:22:51.978Z</time></trkpt><trkpt lat="44.0121562" lon="12.2034245"><ele>87.0</ele><time>2026-04-05T13:22:52.979Z</time></trkpt><trkpt lat="44.0124086" lon="12.2035189"><ele>87.0</ele><time>2026-04-05T13:22:53.979Z</time></trkpt><trkpt lat="44.0126717" lon="12.2036326"><ele>86.5</ele><time>2026-04-05T13:22:54.977Z</time></trkpt><trkpt lat="44.0129151" lon="12.2037353"><ele>86.0</ele><time>2026-04-05T13:22:55.98Z</time></trkpt><trkpt lat="44.0131686" lon="12.2038388"><ele>86.5</ele><time>2026-04-05T13:22:56.977Z</time></trkpt><trkpt lat="44.0134228" lon="12.2039499"><ele>87.0</ele><time>2026-04-05T13:22:57.979Z</time></trkpt><trkpt lat="44.0136812" lon="12.2040403"><ele>87.0</ele><time>2026-04-05T13:22:58.978Z</time></trkpt><trkpt lat="44.0139366" lon="12.2041403"><ele>87.0</ele><time>2026-04-05T13:22:59.977Z</time></trkpt><trkpt lat="44.0141907" lon="12.2042492"><ele>86.5</ele><time>2026-04-05T13:23:00.979Z</time></trkpt><trkpt lat="44.014452" lon="12.2043476"><ele>86.0</ele><time>2026-04-05T13:23:01.979Z</time></trkpt><trkpt lat="44.0147124" lon="12.2044506"><ele>86.0</ele><time>2026-04-05T13:23:02.978Z</time></trkpt><trkpt lat="44.014973" lon="12.2045472"><ele>86.0</ele><time>2026-04-05T13:23:03.979Z</time></trkpt><trkpt lat="44.0152359" lon="12.2046322"><ele>86.0</ele><time>2026-04-05T13:23:04.98Z</time></trkpt><trkpt lat="44.0154974" lon="12.2047003"><ele>86.0</ele><time>2026-04-05T13:23:05.979Z</time></trkpt><trkpt lat="44.0157657" lon="12.2047435"><ele>86.0</ele><time>2026-04-05T13:23:06.976Z</time></trkpt><trkpt lat="44.0160295" lon="12.2047824"><ele>86.0</ele><time>2026-04-05T13:23:07.978Z</time></trkpt><trkpt lat="44.0162955" lon="12.2048096"><ele>86.0</ele><time>2026-04-05T13:23:08.977Z</time></trkpt><trkpt lat="44.0165692" lon="12.2048193"><ele>86.0</ele><time>2026-04-05T13:23:09.978Z</time></trkpt><trkpt lat="44.0168342" lon="12.2048152"><ele>85.0</ele><time>2026-04-05T13:23:10.978Z</time></trkpt><trkpt lat="44.0171009" lon="12.2047941"><ele>84.0</ele><time>2026-04-05T13:23:11.977Z</time></trkpt><trkpt lat="44.0173661" lon="12.204754"><ele>83.5</ele><time>2026-04-05T13:23:12.98Z</time></trkpt><trkpt lat="44.0176316" lon="12.2046926"><ele>83.0</ele><time>2026-04-05T13:23:13.978Z</time></trkpt><trkpt lat="44.0178964" lon="12.2046273"><ele>83.0</ele><time>2026-04-05T13:23:14.98Z</time></trkpt><trkpt lat="44.0181563" lon="12.20455"><ele>83.0</ele><time>2026-04-05T13:23:15.98Z</time></trkpt><trkpt lat="44.0184131" lon="12.2044597"><ele>85.0</ele><time>2026-04-05T13:23:16.979Z</time></trkpt><trkpt lat="44.0186691" lon="12.2043682"><ele>87.0</ele><time>2026-04-05T13:23:17.98Z</time></trkpt><trkpt lat="44.0189278" lon="12.2042759"><ele>87.0</ele><time>2026-04-05T13:23:18.977Z</time></trkpt><trkpt lat="44.0191841" lon="12.2041854"><ele>87.0</ele><time>2026-04-05T13:23:19.98Z</time></trkpt><trkpt lat="44.0194401" lon="12.2041068"><ele>87.0</ele><time>2026-04-05T13:23:20.977Z</time></trkpt><trkpt lat="44.0196954" lon="12.2040196"><ele>87.0</ele><time>2026-04-05T13:23:21.98Z</time></trkpt><trkpt lat="44.0199498" lon="12.2039313"><ele>87.0</ele><time>2026-04-05T13:23:22.979Z</time></trkpt><trkpt lat="44.0202011" lon="12.2038413"><ele>87.0</ele><time>2026-04-05T13:23:23.979Z</time></trkpt><trkpt lat="44.0204564" lon="12.2037502"><ele>87.0</ele><time>2026-04-05T13:23:24.979Z</time></trkpt><trkpt lat="44.0207088" lon="12.2036582"><ele>87.0</ele><time>2026-04-05T13:23:25.979Z</time></trkpt><trkpt lat="44.0209644" lon="12.2035646"><ele>88.0</ele><time>2026-04-05T13:23:26.977Z</time></trkpt><trkpt lat="44.0212213" lon="12.2034724"><ele>89.0</ele><time>2026-04-05T13:23:27.98Z</time></trkpt><trkpt lat="44.0214883" lon="12.2033755"><ele>88.0</ele><time>2026-04-05T13:23:28.979Z</time></trkpt><trkpt lat="44.0217416" lon="12.2032853"><ele>87.0</ele><time>2026-04-05T13:23:29.979Z</time></trkpt><trkpt lat="44.0219941" lon="12.2031952"><ele>86.5</ele><time>2026-04-05T13:23:30.98Z</time></trkpt><trkpt lat="44.0222482" lon="12.2031096"><ele>86.0</ele><time>2026-04-05T13:23:31.98Z</time></trkpt><trkpt lat="44.0225002" lon="12.2030214"><ele>86.0</ele><time>2026-04-05T13:23:32.979Z</time></trkpt><trkpt lat="44.0227499" lon="12.2029334"><ele>86.0</ele><time>2026-04-05T13:23:33.977Z</time></trkpt><trkpt lat="44.0230106" lon="12.2028566"><ele>86.0</ele><time>2026-04-05T13:23:34.979Z</time></trkpt><trkpt lat="44.023255" lon="12.2027644"><ele>86.0</ele><time>2026-04-05T13:23:35.978Z</time></trkpt><trkpt lat="44.023508" lon="12.2026779"><ele>84.5</ele><time>2026-04-05T13:23:36.978Z</time></trkpt><trkpt lat="44.0237631" lon="12.2025875"><ele>83.0</ele><time>2026-04-05T13:23:37.98Z</time></trkpt><trkpt lat="44.0240075" lon="12.2024951"><ele>83.5</ele><time>2026-04-05T13:23:38.977Z</time></trkpt><trkpt lat="44.0242559" lon="12.2024053"><ele>84.0</ele><time>2026-04-05T13:23:39.978Z</time></trkpt><trkpt lat="44.0244941" lon="12.2022976"><ele>82.0</ele><time>2026-04-05T13:23:40.978Z</time></trkpt><trkpt lat="44.0247422" lon="12.2021897"><ele>80.0</ele><time>2026-04-05T13:23:41.977Z</time></trkpt><trkpt lat="44.024987" lon="12.202072"><ele>80.0</ele><time>2026-04-05T13:23:42.978Z</time></trkpt><trkpt lat="44.0252267" lon="12.2019423"><ele>80.0</ele><time>2026-04-05T13:23:43.979Z</time></trkpt><trkpt lat="44.0254617" lon="12.2018124"><ele>80.0</ele><time>2026-04-05T13:23:44.98Z</time></trkpt><trkpt lat="44.0256969" lon="12.2016698"><ele>80.0</ele><time>2026-04-05T13:23:45.98Z</time></trkpt><trkpt lat="44.0259262" lon="12.2015243"><ele>78.5</ele><time>2026-04-05T13:23:46.98Z</time></trkpt><trkpt lat="44.0261535" lon="12.2013619"><ele>77.0</ele><time>2026-04-05T13:23:47.978Z</time></trkpt><trkpt lat="44.0263757" lon="12.2011854"><ele>77.0</ele><time>2026-04-05T13:23:48.98Z</time></trkpt><trkpt lat="44.0265995" lon="12.201002"><ele>77.0</ele><time>2026-04-05T13:23:49.978Z</time></trkpt><trkpt lat="44.0268148" lon="12.2008161"><ele>77.0</ele><time>2026-04-05T13:23:50.977Z</time></trkpt><trkpt lat="44.0270307" lon="12.2006154"><ele>77.0</ele><time>2026-04-05T13:23:51.98Z</time></trkpt><trkpt lat="44.0272434" lon="12.2004076"><ele>77.0</ele><time>2026-04-05T13:23:52.979Z</time></trkpt><trkpt lat="44.027454" lon="12.2001898"><ele>77.0</ele><time>2026-04-05T13:23:53.976Z</time></trkpt><trkpt lat="44.0276621" lon="12.1999667"><ele>76.0</ele><time>2026-04-05T13:23:54.978Z</time></trkpt><trkpt lat="44.0278654" lon="12.1997383"><ele>75.0</ele><time>2026-04-05T13:23:55.98Z</time></trkpt><trkpt lat="44.0280704" lon="12.199508"><ele>75.0</ele><time>2026-04-05T13:23:56.98Z</time></trkpt><trkpt lat="44.0282762" lon="12.1992778"><ele>75.0</ele><time>2026-04-05T13:23:57.978Z</time></trkpt><trkpt lat="44.0284829" lon="12.1990495"><ele>74.5</ele><time>2026-04-05T13:23:58.978Z</time></trkpt><trkpt lat="44.0286877" lon="12.1988232"><ele>74.0</ele><time>2026-04-05T13:23:59.978Z</time></trkpt><trkpt lat="44.0288933" lon="12.1985991"><ele>74.0</ele><time>2026-04-05T13:24:00.98Z</time></trkpt><trkpt lat="44.029097" lon="12.1983741"><ele>74.0</ele><time>2026-04-05T13:24:01.98Z</time></trkpt><trkpt lat="44.0293059" lon="12.198144"><ele>75.5</ele><time>2026-04-05T13:24:02.979Z</time></trkpt><trkpt lat="44.0295101" lon="12.1979153"><ele>77.0</ele><time>2026-04-05T13:24:03.979Z</time></trkpt><trkpt lat="44.0297169" lon="12.1976811"><ele>77.0</ele><time>2026-04-05T13:24:04.98Z</time></trkpt><trkpt lat="44.0299237" lon="12.1974488"><ele>77.0</ele><time>2026-04-05T13:24:05.98Z</time></trkpt><trkpt lat="44.0301307" lon="12.1972186"><ele>78.5</ele><time>2026-04-05T13:24:06.98Z</time></trkpt><trkpt lat="44.0303433" lon="12.1969885"><ele>80.0</ele><time>2026-04-05T13:24:07.98Z</time></trkpt><trkpt lat="44.0305509" lon="12.1967609"><ele>80.0</ele><time>2026-04-05T13:24:08.98Z</time></trkpt><trkpt lat="44.0307596" lon="12.1965301"><ele>80.0</ele><time>2026-04-05T13:24:09.979Z</time></trkpt><trkpt lat="44.0309687" lon="12.1962997"><ele>83.5</ele><time>2026-04-05T13:24:10.98Z</time></trkpt><trkpt lat="44.0311754" lon="12.1960512"><ele>87.0</ele><time>2026-04-05T13:24:11.979Z</time></trkpt><trkpt lat="44.0313871" lon="12.1958189"><ele>86.0</ele><time>2026-04-05T13:24:12.98Z</time></trkpt><trkpt lat="44.0315981" lon="12.1955842"><ele>85.0</ele><time>2026-04-05T13:24:13.979Z</time></trkpt><trkpt lat="44.0318073" lon="12.195345"><ele>85.0</ele><time>2026-04-05T13:24:14.977Z</time></trkpt><trkpt lat="44.0320144" lon="12.1951031"><ele>85.0</ele><time>2026-04-05T13:24:15.976Z</time></trkpt><trkpt lat="44.0322241" lon="12.1948651"><ele>86.0</ele><time>2026-04-05T13:24:16.98Z</time></trkpt><trkpt lat="44.0324334" lon="12.1946346"><ele>87.0</ele><time>2026-04-05T13:24:17.978Z</time></trkpt><trkpt lat="44.0326404" lon="12.1943976"><ele>80.0</ele><time>2026-04-05T13:24:18.98Z</time></trkpt><trkpt lat="44.0328483" lon="12.1941651"><ele>73.0</ele><time>2026-04-05T13:24:19.98Z</time></trkpt><trkpt lat="44.0330522" lon="12.1939386"><ele>73.0</ele><time>2026-04-05T13:24:20.979Z</time></trkpt><trkpt lat="44.03326" lon="12.193708"><ele>73.0</ele><time>2026-04-05T13:24:21.98Z</time></trkpt><trkpt lat="44.033468" lon="12.1934819"><ele>73.5</ele><time>2026-04-05T13:24:22.979Z</time></trkpt><trkpt lat="44.0336738" lon="12.1932575"><ele>74.0</ele><time>2026-04-05T13:24:23.979Z</time></trkpt><trkpt lat="44.0338766" lon="12.1930127"><ele>73.0</ele><time>2026-04-05T13:24:24.98Z</time></trkpt><trkpt lat="44.0340804" lon="12.1927806"><ele>72.0</ele><time>2026-04-05T13:24:25.98Z</time></trkpt><trkpt lat="44.0342845" lon="12.1925527"><ele>71.0</ele><time>2026-04-05T13:24:26.979Z</time></trkpt><trkpt lat="44.0344903" lon="12.1923226"><ele>70.0</ele><time>2026-04-05T13:24:27.979Z</time></trkpt><trkpt lat="44.0346984" lon="12.1920995"><ele>70.0</ele><time>2026-04-05T13:24:28.978Z</time></trkpt><trkpt lat="44.0349057" lon="12.1918715"><ele>70.0</ele><time>2026-04-05T13:24:29.978Z</time></trkpt><trkpt lat="44.0351139" lon="12.1916489"><ele>70.5</ele><time>2026-04-05T13:24:30.977Z</time></trkpt><trkpt lat="44.0353297" lon="12.1914253"><ele>71.0</ele><time>2026-04-05T13:24:31.979Z</time></trkpt><trkpt lat="44.0355408" lon="12.1912043"><ele>71.0</ele><time>2026-04-05T13:24:32.978Z</time></trkpt><trkpt lat="44.0357644" lon="12.1910122"><ele>71.0</ele><time>2026-04-05T13:24:33.98Z</time></trkpt><trkpt lat="44.0359937" lon="12.1908247"><ele>71.5</ele><time>2026-04-05T13:24:34.98Z</time></trkpt><trkpt lat="44.0362255" lon="12.1906394"><ele>72.0</ele><time>2026-04-05T13:24:35.98Z</time></trkpt><trkpt lat="44.0364579" lon="12.1904551"><ele>72.5</ele><time>2026-04-05T13:24:36.98Z</time></trkpt><trkpt lat="44.036699" lon="12.1902813"><ele>73.0</ele><time>2026-04-05T13:24:37.98Z</time></trkpt><trkpt lat="44.0369445" lon="12.1901159"><ele>73.0</ele><time>2026-04-05T13:24:38.978Z</time></trkpt><trkpt lat="44.0372204" lon="12.1899839"><ele>73.0</ele><time>2026-04-05T13:24:39.98Z</time></trkpt><trkpt lat="44.0374755" lon="12.1898407"><ele>73.0</ele><time>2026-04-05T13:24:40.976Z</time></trkpt><trkpt lat="44.0377493" lon="12.1897131"><ele>73.0</ele><time>2026-04-05T13:24:41.976Z</time></trkpt><trkpt lat="44.0379996" lon="12.1895709"><ele>73.0</ele><time>2026-04-05T13:24:42.98Z</time></trkpt><trkpt lat="44.0382421" lon="12.1894299"><ele>73.0</ele><time>2026-04-05T13:24:43.98Z</time></trkpt><trkpt lat="44.0384796" lon="12.1892921"><ele>73.5</ele><time>2026-04-05T13:24:44.98Z</time></trkpt><trkpt lat="44.0387197" lon="12.1891554"><ele>74.0</ele><time>2026-04-05T13:24:45.978Z</time></trkpt><trkpt lat="44.0389579" lon="12.1890135"><ele>72.0</ele><time>2026-04-05T13:24:46.979Z</time></trkpt><trkpt lat="44.0391961" lon="12.1888732"><ele>70.0</ele><time>2026-04-05T13:24:47.979Z</time></trkpt><trkpt lat="44.0394266" lon="12.1887429"><ele>70.0</ele><time>2026-04-05T13:24:48.978Z</time></trkpt><trkpt lat="44.039666" lon="12.1886143"><ele>70.0</ele><time>2026-04-05T13:24:49.979Z</time></trkpt><trkpt lat="44.0399024" lon="12.1884761"><ele>70.0</ele><time>2026-04-05T13:24:50.976Z</time></trkpt><trkpt lat="44.0401405" lon="12.188344"><ele>70.0</ele><time>2026-04-05T13:24:51.979Z</time></trkpt><trkpt lat="44.040377" lon="12.1882086"><ele>69.0</ele><time>2026-04-05T13:24:52.978Z</time></trkpt><trkpt lat="44.0406134" lon="12.1880717"><ele>68.0</ele><time>2026-04-05T13:24:53.98Z</time></trkpt><trkpt lat="44.0408528" lon="12.1879388"><ele>68.0</ele><time>2026-04-05T13:24:54.977Z</time></trkpt><trkpt lat="44.0410861" lon="12.1878059"><ele>68.0</ele><time>2026-04-05T13:24:55.98Z</time></trkpt><trkpt lat="44.0413202" lon="12.1876717"><ele>68.0</ele><time>2026-04-05T13:24:56.979Z</time></trkpt><trkpt lat="44.0415511" lon="12.1875342"><ele>68.0</ele><time>2026-04-05T13:24:57.979Z</time></trkpt><trkpt lat="44.0417822" lon="12.1874085"><ele>70.5</ele><time>2026-04-05T13:24:58.98Z</time></trkpt><trkpt lat="44.0420125" lon="12.1872811"><ele>73.0</ele><time>2026-04-05T13:24:59.98Z</time></trkpt><trkpt lat="44.0422473" lon="12.1871496"><ele>72.5</ele><time>2026-04-05T13:25:00.979Z</time></trkpt><trkpt lat="44.0424766" lon="12.1870165"><ele>72.0</ele><time>2026-04-05T13:25:01.978Z</time></trkpt><trkpt lat="44.0427042" lon="12.1868929"><ele>72.0</ele><time>2026-04-05T13:25:02.979Z</time></trkpt><trkpt lat="44.0429354" lon="12.1867609"><ele>72.0</ele><time>2026-04-05T13:25:03.98Z</time></trkpt><trkpt lat="44.0431671" lon="12.1866297"><ele>72.5</ele><time>2026-04-05T13:25:04.98Z</time></trkpt><trkpt lat="44.0433938" lon="12.1865039"><ele>73.0</ele><time>2026-04-05T13:25:05.98Z</time></trkpt><trkpt lat="44.0436377" lon="12.1864307"><ele>73.0</ele><time>2026-04-05T13:25:06.979Z</time></trkpt><trkpt lat="44.0438639" lon="12.1862839"><ele>73.0</ele><time>2026-04-05T13:25:07.98Z</time></trkpt><trkpt lat="44.0440865" lon="12.186152"><ele>73.5</ele><time>2026-04-05T13:25:08.979Z</time></trkpt><trkpt lat="44.0443156" lon="12.186022"><ele>74.0</ele><time>2026-04-05T13:25:09.98Z</time></trkpt><trkpt lat="44.0445445" lon="12.1858914"><ele>74.0</ele><time>2026-04-05T13:25:10.979Z</time></trkpt><trkpt lat="44.0447793" lon="12.1857491"><ele>74.0</ele><time>2026-04-05T13:25:11.979Z</time></trkpt><trkpt lat="44.0450078" lon="12.1856174"><ele>75.0</ele><time>2026-04-05T13:25:12.98Z</time></trkpt><trkpt lat="44.0452423" lon="12.1854819"><ele>76.0</ele><time>2026-04-05T13:25:13.98Z</time></trkpt><trkpt lat="44.0454752" lon="12.1853506"><ele>76.0</ele><time>2026-04-05T13:25:14.98Z</time></trkpt><trkpt lat="44.0457044" lon="12.1852161"><ele>76.0</ele><time>2026-04-05T13:25:15.98Z</time></trkpt><trkpt lat="44.0459418" lon="12.1850804"><ele>76.5</ele><time>2026-04-05T13:25:16.979Z</time></trkpt><trkpt lat="44.0461752" lon="12.1849512"><ele>77.0</ele><time>2026-04-05T13:25:17.978Z</time></trkpt><trkpt lat="44.0464095" lon="12.1848212"><ele>79.5</ele><time>2026-04-05T13:25:18.979Z</time></trkpt><trkpt lat="44.0466385" lon="12.1846846"><ele>82.0</ele><time>2026-04-05T13:25:19.98Z</time></trkpt><trkpt lat="44.0468711" lon="12.1845463"><ele>82.0</ele><time>2026-04-05T13:25:20.98Z</time></trkpt><trkpt lat="44.0470999" lon="12.1844098"><ele>82.0</ele><time>2026-04-05T13:25:21.979Z</time></trkpt><trkpt lat="44.0473349" lon="12.1842646"><ele>81.5</ele><time>2026-04-05T13:25:22.98Z</time></trkpt><trkpt lat="44.0475695" lon="12.1841192"><ele>81.0</ele><time>2026-04-05T13:25:23.979Z</time></trkpt><trkpt lat="44.0478128" lon="12.1839804"><ele>81.0</ele><time>2026-04-05T13:25:24.98Z</time></trkpt><trkpt lat="44.0480475" lon="12.1838377"><ele>81.0</ele><time>2026-04-05T13:25:25.979Z</time></trkpt><trkpt lat="44.0482818" lon="12.1836876"><ele>79.0</ele><time>2026-04-05T13:25:26.978Z</time></trkpt><trkpt lat="44.0485321" lon="12.1835377"><ele>77.0</ele><time>2026-04-05T13:25:27.98Z</time></trkpt><trkpt lat="44.0487754" lon="12.1834005"><ele>77.0</ele><time>2026-04-05T13:25:28.98Z</time></trkpt><trkpt lat="44.0490216" lon="12.1832692"><ele>77.0</ele><time>2026-04-05T13:25:29.98Z</time></trkpt><trkpt lat="44.0492732" lon="12.183147"><ele>78.0</ele><time>2026-04-05T13:25:30.98Z</time></trkpt><trkpt lat="44.0495276" lon="12.1830349"><ele>79.0</ele><time>2026-04-05T13:25:31.979Z</time></trkpt><trkpt lat="44.0497867" lon="12.1829278"><ele>77.5</ele><time>2026-04-05T13:25:32.98Z</time></trkpt><trkpt lat="44.0500413" lon="12.1828349"><ele>76.0</ele><time>2026-04-05T13:25:33.979Z</time></trkpt><trkpt lat="44.0502986" lon="12.1827402"><ele>76.0</ele><time>2026-04-05T13:25:34.975Z</time></trkpt><trkpt lat="44.0505605" lon="12.1826622"><ele>76.0</ele><time>2026-04-05T13:25:35.98Z</time></trkpt><trkpt lat="44.0508229" lon="12.182588"><ele>73.5</ele><time>2026-04-05T13:25:36.98Z</time></trkpt><trkpt lat="44.0510899" lon="12.1825186"><ele>71.0</ele><time>2026-04-05T13:25:37.979Z</time></trkpt><trkpt lat="44.0513591" lon="12.182456"><ele>71.0</ele><time>2026-04-05T13:25:38.979Z</time></trkpt><trkpt lat="44.0516234" lon="12.1823847"><ele>71.0</ele><time>2026-04-05T13:25:39.979Z</time></trkpt><trkpt lat="44.0518922" lon="12.1823174"><ele>69.0</ele><time>2026-04-05T13:25:40.98Z</time></trkpt><trkpt lat="44.0521556" lon="12.18226"><ele>67.0</ele><time>2026-04-05T13:25:41.98Z</time></trkpt><trkpt lat="44.052422" lon="12.1822179"><ele>66.5</ele><time>2026-04-05T13:25:42.98Z</time></trkpt><trkpt lat="44.0526892" lon="12.1822008"><ele>66.0</ele><time>2026-04-05T13:25:43.979Z</time></trkpt><trkpt lat="44.0529537" lon="12.182193"><ele>66.0</ele><time>2026-04-05T13:25:44.977Z</time></trkpt><trkpt lat="44.05322" lon="12.1822"><ele>66.0</ele><time>2026-04-05T13:25:45.98Z</time></trkpt><trkpt lat="44.0534834" lon="12.1822092"><ele>66.5</ele><time>2026-04-05T13:25:46.979Z</time></trkpt><trkpt lat="44.053754" lon="12.1822184"><ele>67.0</ele><time>2026-04-05T13:25:47.98Z</time></trkpt><trkpt lat="44.0540201" lon="12.182219"><ele>67.0</ele><time>2026-04-05T13:25:48.98Z</time></trkpt><trkpt lat="44.0542898" lon="12.1822265"><ele>67.0</ele><time>2026-04-05T13:25:49.979Z</time></trkpt><trkpt lat="44.0545551" lon="12.182227"><ele>67.0</ele><time>2026-04-05T13:25:50.98Z</time></trkpt><trkpt lat="44.0548208" lon="12.1822227"><ele>67.0</ele><time>2026-04-05T13:25:51.979Z</time></trkpt><trkpt lat="44.0550867" lon="12.182222"><ele>69.0</ele><time>2026-04-05T13:25:52.98Z</time></trkpt><trkpt lat="44.0553518" lon="12.1822414"><ele>71.0</ele><time>2026-04-05T13:25:53.98Z</time></trkpt><trkpt lat="44.0556159" lon="12.1822452"><ele>75.5</ele><time>2026-04-05T13:25:54.98Z</time></trkpt><trkpt lat="44.055883" lon="12.1822438"><ele>80.0</ele><time>2026-04-05T13:25:55.98Z</time></trkpt><trkpt lat="44.0561544" lon="12.1822365"><ele>80.0</ele><time>2026-04-05T13:25:56.98Z</time></trkpt><trkpt lat="44.0564303" lon="12.1822331"><ele>80.0</ele><time>2026-04-05T13:25:57.979Z</time></trkpt><trkpt lat="44.0566975" lon="12.1822326"><ele>83.5</ele><time>2026-04-05T13:25:58.977Z</time></trkpt><trkpt lat="44.0569705" lon="12.1822359"><ele>87.0</ele><time>2026-04-05T13:25:59.979Z</time></trkpt><trkpt lat="44.0572409" lon="12.1822411"><ele>88.0</ele><time>2026-04-05T13:26:00.98Z</time></trkpt><trkpt lat="44.0575086" lon="12.1822384"><ele>89.0</ele><time>2026-04-05T13:26:01.98Z</time></trkpt><trkpt lat="44.0577751" lon="12.1822537"><ele>89.0</ele><time>2026-04-05T13:26:02.98Z</time></trkpt><trkpt lat="44.05804" lon="12.1822628"><ele>89.0</ele><time>2026-04-05T13:26:03.979Z</time></trkpt><trkpt lat="44.0583006" lon="12.1822779"><ele>89.0</ele><time>2026-04-05T13:26:04.978Z</time></trkpt><trkpt lat="44.0585623" lon="12.1822953"><ele>89.0</ele><time>2026-04-05T13:26:05.978Z</time></trkpt><trkpt lat="44.0588222" lon="12.1823081"><ele>89.0</ele><time>2026-04-05T13:26:06.98Z</time></trkpt><trkpt lat="44.0590812" lon="12.1823199"><ele>89.0</ele><time>2026-04-05T13:26:07.979Z</time></trkpt><trkpt lat="44.0593369" lon="12.1823256"><ele>89.0</ele><time>2026-04-05T13:26:08.978Z</time></trkpt><trkpt lat="44.0595904" lon="12.1823311"><ele>89.0</ele><time>2026-04-05T13:26:09.98Z</time></trkpt><trkpt lat="44.059848" lon="12.1823312"><ele>89.5</ele><time>2026-04-05T13:26:10.979Z</time></trkpt><trkpt lat="44.0601003" lon="12.1823356"><ele>90.0</ele><time>2026-04-05T13:26:11.98Z</time></trkpt><trkpt lat="44.0603517" lon="12.1823407"><ele>88.5</ele><time>2026-04-05T13:26:12.979Z</time></trkpt><trkpt lat="44.0605946" lon="12.1823518"><ele>87.0</ele><time>2026-04-05T13:26:13.979Z</time></trkpt><trkpt lat="44.0608416" lon="12.1823855"><ele>86.5</ele><time>2026-04-05T13:26:14.979Z</time></trkpt><trkpt lat="44.0610855" lon="12.1824247"><ele>86.0</ele><time>2026-04-05T13:26:15.98Z</time></trkpt><trkpt lat="44.0613291" lon="12.1824886"><ele>86.0</ele><time>2026-04-05T13:26:16.978Z</time></trkpt><trkpt lat="44.0615744" lon="12.1825676"><ele>86.0</ele><time>2026-04-05T13:26:17.98Z</time></trkpt><trkpt lat="44.0618133" lon="12.1826623"><ele>86.0</ele><time>2026-04-05T13:26:18.979Z</time></trkpt><trkpt lat="44.0620475" lon="12.1827775"><ele>86.0</ele><time>2026-04-05T13:26:19.979Z</time></trkpt><trkpt lat="44.0622827" lon="12.182905"><ele>87.0</ele><time>2026-04-05T13:26:20.978Z</time></trkpt><trkpt lat="44.0625147" lon="12.1830233"><ele>88.0</ele><time>2026-04-05T13:26:21.979Z</time></trkpt><trkpt lat="44.0627449" lon="12.1831473"><ele>87.0</ele><time>2026-04-05T13:26:22.978Z</time></trkpt><trkpt lat="44.0629787" lon="12.1832757"><ele>86.0</ele><time>2026-04-05T13:26:23.98Z</time></trkpt><trkpt lat="44.063207" lon="12.1834035"><ele>86.5</ele><time>2026-04-05T13:26:24.976Z</time></trkpt><trkpt lat="44.0634411" lon="12.1835331"><ele>87.0</ele><time>2026-04-05T13:26:25.98Z</time></trkpt><trkpt lat="44.0636783" lon="12.1836542"><ele>87.0</ele><time>2026-04-05T13:26:26.98Z</time></trkpt><trkpt lat="44.0639142" lon="12.1837826"><ele>87.0</ele><time>2026-04-05T13:26:27.979Z</time></trkpt><trkpt lat="44.0641533" lon="12.1839109"><ele>86.0</ele><time>2026-04-05T13:26:28.979Z</time></trkpt><trkpt lat="44.0643939" lon="12.1840343"><ele>85.0</ele><time>2026-04-05T13:26:29.98Z</time></trkpt><trkpt lat="44.0646368" lon="12.1841591"><ele>85.0</ele><time>2026-04-05T13:26:30.979Z</time></trkpt><trkpt lat="44.0648809" lon="12.1842712"><ele>85.0</ele><time>2026-04-05T13:26:31.979Z</time></trkpt><trkpt lat="44.0651365" lon="12.18435"><ele>83.5</ele><time>2026-04-05T13:26:32.979Z</time></trkpt><trkpt lat="44.0653853" lon="12.1844425"><ele>82.0</ele><time>2026-04-05T13:26:33.979Z</time></trkpt><trkpt lat="44.0656328" lon="12.1845318"><ele>80.0</ele><time>2026-04-05T13:26:34.978Z</time></trkpt><trkpt lat="44.0658801" lon="12.1846248"><ele>78.0</ele><time>2026-04-05T13:26:35.98Z</time></trkpt><trkpt lat="44.0661245" lon="12.1847227"><ele>78.0</ele><time>2026-04-05T13:26:36.977Z</time></trkpt><trkpt lat="44.0663699" lon="12.1848131"><ele>78.0</ele><time>2026-04-05T13:26:37.98Z</time></trkpt><trkpt lat="44.0666163" lon="12.1848997"><ele>80.5</ele><time>2026-04-05T13:26:38.976Z</time></trkpt><trkpt lat="44.0668593" lon="12.1849893"><ele>83.0</ele><time>2026-04-05T13:26:39.979Z</time></trkpt><trkpt lat="44.0671034" lon="12.1850814"><ele>83.0</ele><time>2026-04-05T13:26:40.979Z</time></trkpt><trkpt lat="44.0673446" lon="12.1851839"><ele>83.0</ele><time>2026-04-05T13:26:41.98Z</time></trkpt><trkpt lat="44.0675875" lon="12.1853001"><ele>84.5</ele><time>2026-04-05T13:26:42.978Z</time></trkpt><trkpt lat="44.0678287" lon="12.1854264"><ele>86.0</ele><time>2026-04-05T13:26:43.979Z</time></trkpt><trkpt lat="44.0680671" lon="12.1855593"><ele>85.5</ele><time>2026-04-05T13:26:44.979Z</time></trkpt><trkpt lat="44.0683043" lon="12.1857019"><ele>85.0</ele><time>2026-04-05T13:26:45.978Z</time></trkpt><trkpt lat="44.0685424" lon="12.1858414"><ele>85.0</ele><time>2026-04-05T13:26:46.98Z</time></trkpt><trkpt lat="44.0687787" lon="12.185979"><ele>85.0</ele><time>2026-04-05T13:26:47.98Z</time></trkpt><trkpt lat="44.0690179" lon="12.1861116"><ele>83.5</ele><time>2026-04-05T13:26:48.979Z</time></trkpt><trkpt lat="44.0692512" lon="12.1862496"><ele>82.0</ele><time>2026-04-05T13:26:49.98Z</time></trkpt><trkpt lat="44.0694842" lon="12.1863937"><ele>81.5</ele><time>2026-04-05T13:26:50.975Z</time></trkpt><trkpt lat="44.0697182" lon="12.1865285"><ele>81.0</ele><time>2026-04-05T13:26:51.979Z</time></trkpt><trkpt lat="44.0699513" lon="12.1866653"><ele>81.0</ele><time>2026-04-05T13:26:52.98Z</time></trkpt><trkpt lat="44.070184" lon="12.1868078"><ele>81.0</ele><time>2026-04-05T13:26:53.979Z</time></trkpt><trkpt lat="44.0704171" lon="12.1869479"><ele>81.0</ele><time>2026-04-05T13:26:54.978Z</time></trkpt><trkpt lat="44.0706504" lon="12.1870851"><ele>81.0</ele><time>2026-04-05T13:26:55.98Z</time></trkpt><trkpt lat="44.0708787" lon="12.1872214"><ele>80.5</ele><time>2026-04-05T13:26:56.979Z</time></trkpt><trkpt lat="44.0711146" lon="12.1873555"><ele>80.0</ele><time>2026-04-05T13:26:57.979Z</time></trkpt><trkpt lat="44.0713484" lon="12.187489"><ele>80.0</ele><time>2026-04-05T13:26:58.98Z</time></trkpt><trkpt lat="44.0715838" lon="12.1876247"><ele>80.0</ele><time>2026-04-05T13:26:59.979Z</time></trkpt><trkpt lat="44.0718218" lon="12.1877675"><ele>79.5</ele><time>2026-04-05T13:27:00.979Z</time></trkpt><trkpt lat="44.072058" lon="12.1879084"><ele>79.0</ele><time>2026-04-05T13:27:01.979Z</time></trkpt><trkpt lat="44.0722937" lon="12.1880524"><ele>77.5</ele><time>2026-04-05T13:27:02.979Z</time></trkpt><trkpt lat="44.0725365" lon="12.1881874"><ele>76.0</ele><time>2026-04-05T13:27:03.98Z</time></trkpt><trkpt lat="44.0727776" lon="12.1883266"><ele>76.0</ele><time>2026-04-05T13:27:04.98Z</time></trkpt><trkpt lat="44.0730168" lon="12.1884646"><ele>76.0</ele><time>2026-04-05T13:27:05.979Z</time></trkpt><trkpt lat="44.0732542" lon="12.1886049"><ele>75.0</ele><time>2026-04-05T13:27:06.979Z</time></trkpt><trkpt lat="44.0734935" lon="12.1887465"><ele>74.0</ele><time>2026-04-05T13:27:07.98Z</time></trkpt><trkpt lat="44.0737278" lon="12.1888892"><ele>73.5</ele><time>2026-04-05T13:27:08.979Z</time></trkpt><trkpt lat="44.073971" lon="12.1890264"><ele>73.0</ele><time>2026-04-05T13:27:09.98Z</time></trkpt><trkpt lat="44.0742101" lon="12.1891702"><ele>72.5</ele><time>2026-04-05T13:27:10.979Z</time></trkpt><trkpt lat="44.0744518" lon="12.1893164"><ele>72.0</ele><time>2026-04-05T13:27:11.98Z</time></trkpt><trkpt lat="44.0746924" lon="12.1894582"><ele>72.0</ele><time>2026-04-05T13:27:12.98Z</time></trkpt><trkpt lat="44.0749349" lon="12.1895944"><ele>72.0</ele><time>2026-04-05T13:27:13.98Z</time></trkpt><trkpt lat="44.0751761" lon="12.1897335"><ele>72.0</ele><time>2026-04-05T13:27:14.98Z</time></trkpt><trkpt lat="44.0754175" lon="12.1898754"><ele>72.0</ele><time>2026-04-05T13:27:15.98Z</time></trkpt><trkpt lat="44.0756572" lon="12.1900215"><ele>72.5</ele><time>2026-04-05T13:27:16.978Z</time></trkpt><trkpt lat="44.0758959" lon="12.1901619"><ele>73.0</ele><time>2026-04-05T13:27:17.977Z</time></trkpt><trkpt lat="44.0761451" lon="12.1903059"><ele>73.0</ele><time>2026-04-05T13:27:18.979Z</time></trkpt><trkpt lat="44.0763837" lon="12.1904568"><ele>73.0</ele><time>2026-04-05T13:27:19.978Z</time></trkpt><trkpt lat="44.0766268" lon="12.1906164"><ele>71.5</ele><time>2026-04-05T13:27:20.979Z</time></trkpt><trkpt lat="44.0768617" lon="12.1907747"><ele>70.0</ele><time>2026-04-05T13:27:21.978Z</time></trkpt><trkpt lat="44.0770954" lon="12.1909396"><ele>70.0</ele><time>2026-04-05T13:27:22.979Z</time></trkpt><trkpt lat="44.077328" lon="12.1911008"><ele>70.0</ele><time>2026-04-05T13:27:23.98Z</time></trkpt><trkpt lat="44.077563" lon="12.1912722"><ele>70.5</ele><time>2026-04-05T13:27:24.978Z</time></trkpt><trkpt lat="44.0777956" lon="12.1914349"><ele>71.0</ele><time>2026-04-05T13:27:25.98Z</time></trkpt><trkpt lat="44.0780294" lon="12.1915968"><ele>71.0</ele><time>2026-04-05T13:27:26.975Z</time></trkpt><trkpt lat="44.078266" lon="12.1917527"><ele>71.0</ele><time>2026-04-05T13:27:27.979Z</time></trkpt><trkpt lat="44.0785023" lon="12.1919086"><ele>71.0</ele><time>2026-04-05T13:27:28.98Z</time></trkpt><trkpt lat="44.0787385" lon="12.1920723"><ele>71.0</ele><time>2026-04-05T13:27:29.978Z</time></trkpt><trkpt lat="44.0789721" lon="12.1922291"><ele>72.0</ele><time>2026-04-05T13:27:30.979Z</time></trkpt><trkpt lat="44.0792026" lon="12.1923939"><ele>73.0</ele><time>2026-04-05T13:27:31.976Z</time></trkpt><trkpt lat="44.0794416" lon="12.1925472"><ele>73.0</ele><time>2026-04-05T13:27:32.98Z</time></trkpt><trkpt lat="44.0796772" lon="12.1927127"><ele>73.0</ele><time>2026-04-05T13:27:33.977Z</time></trkpt><trkpt lat="44.0799086" lon="12.1928795"><ele>72.0</ele><time>2026-04-05T13:27:34.979Z</time></trkpt><trkpt lat="44.0801403" lon="12.1930389"><ele>71.0</ele><time>2026-04-05T13:27:35.98Z</time></trkpt><trkpt lat="44.0803732" lon="12.1932016"><ele>70.0</ele><time>2026-04-05T13:27:36.979Z</time></trkpt><trkpt lat="44.0806077" lon="12.1933609"><ele>69.0</ele><time>2026-04-05T13:27:37.98Z</time></trkpt><trkpt lat="44.0808416" lon="12.1935214"><ele>68.0</ele><time>2026-04-05T13:27:38.98Z</time></trkpt><trkpt lat="44.0810796" lon="12.1936838"><ele>67.0</ele><time>2026-04-05T13:27:39.98Z</time></trkpt><trkpt lat="44.0813127" lon="12.1938489"><ele>67.0</ele><time>2026-04-05T13:27:40.979Z</time></trkpt><trkpt lat="44.0815502" lon="12.1940124"><ele>67.0</ele><time>2026-04-05T13:27:41.98Z</time></trkpt><trkpt lat="44.081787" lon="12.194175"><ele>67.0</ele><time>2026-04-05T13:27:42.978Z</time></trkpt><trkpt lat="44.0820272" lon="12.1943379"><ele>67.0</ele><time>2026-04-05T13:27:43.979Z</time></trkpt><trkpt lat="44.0822585" lon="12.1944977"><ele>68.5</ele><time>2026-04-05T13:27:44.98Z</time></trkpt><trkpt lat="44.0824913" lon="12.1946632"><ele>70.0</ele><time>2026-04-05T13:27:45.98Z</time></trkpt><trkpt lat="44.082727" lon="12.1948232"><ele>69.0</ele><time>2026-04-05T13:27:46.98Z</time></trkpt><trkpt lat="44.0829615" lon="12.1949922"><ele>68.0</ele><time>2026-04-05T13:27:47.979Z</time></trkpt><trkpt lat="44.0831964" lon="12.1951504"><ele>68.0</ele><time>2026-04-05T13:27:48.978Z</time></trkpt><trkpt lat="44.0834305" lon="12.1953092"><ele>68.0</ele><time>2026-04-05T13:27:49.98Z</time></trkpt><trkpt lat="44.0836657" lon="12.195469"><ele>68.0</ele><time>2026-04-05T13:27:50.978Z</time></trkpt><trkpt lat="44.0839006" lon="12.1956302"><ele>68.0</ele><time>2026-04-05T13:27:51.978Z</time></trkpt><trkpt lat="44.0841371" lon="12.1957881"><ele>68.0</ele><time>2026-04-05T13:27:52.979Z</time></trkpt><trkpt lat="44.0843738" lon="12.1959517"><ele>68.0</ele><time>2026-04-05T13:27:53.98Z</time></trkpt><trkpt lat="44.0846113" lon="12.1961109"><ele>68.0</ele><time>2026-04-05T13:27:54.98Z</time></trkpt><trkpt lat="44.0848479" lon="12.1962737"><ele>68.0</ele><time>2026-04-05T13:27:55.978Z</time></trkpt><trkpt lat="44.085086" lon="12.1964383"><ele>66.5</ele><time>2026-04-05T13:27:56.98Z</time></trkpt><trkpt lat="44.085325" lon="12.1965979"><ele>65.0</ele><time>2026-04-05T13:27:57.978Z</time></trkpt><trkpt lat="44.0855648" lon="12.1967652"><ele>64.5</ele><time>2026-04-05T13:27:58.978Z</time></trkpt><trkpt lat="44.0858099" lon="12.1969352"><ele>64.0</ele><time>2026-04-05T13:27:59.98Z</time></trkpt><trkpt lat="44.0860476" lon="12.1970967"><ele>64.0</ele><time>2026-04-05T13:28:00.98Z</time></trkpt><trkpt lat="44.086286" lon="12.1972606"><ele>64.0</ele><time>2026-04-05T13:28:01.98Z</time></trkpt><trkpt lat="44.086525" lon="12.1974234"><ele>63.5</ele><time>2026-04-05T13:28:02.98Z</time></trkpt><trkpt lat="44.086764" lon="12.1975942"><ele>63.0</ele><time>2026-04-05T13:28:03.98Z</time></trkpt><trkpt lat="44.0870059" lon="12.197757"><ele>63.0</ele><time>2026-04-05T13:28:04.98Z</time></trkpt><trkpt lat="44.0872477" lon="12.1979136"><ele>63.0</ele><time>2026-04-05T13:28:05.98Z</time></trkpt><trkpt lat="44.0874899" lon="12.1980695"><ele>62.5</ele><time>2026-04-05T13:28:06.98Z</time></trkpt><trkpt lat="44.087734" lon="12.1982293"><ele>62.0</ele><time>2026-04-05T13:28:07.977Z</time></trkpt><trkpt lat="44.0879814" lon="12.198374"><ele>62.0</ele><time>2026-04-05T13:28:08.98Z</time></trkpt><trkpt lat="44.0882342" lon="12.1985003"><ele>62.0</ele><time>2026-04-05T13:28:09.979Z</time></trkpt><trkpt lat="44.0884943" lon="12.1986168"><ele>62.5</ele><time>2026-04-05T13:28:10.98Z</time></trkpt><trkpt lat="44.0887611" lon="12.198717"><ele>63.0</ele><time>2026-04-05T13:28:11.979Z</time></trkpt><trkpt lat="44.0890254" lon="12.1988131"><ele>63.0</ele><time>2026-04-05T13:28:12.98Z</time></trkpt><trkpt lat="44.0892995" lon="12.1988931"><ele>63.0</ele><time>2026-04-05T13:28:13.979Z</time></trkpt><trkpt lat="44.0895631" lon="12.1989593"><ele>61.5</ele><time>2026-04-05T13:28:14.979Z</time></trkpt><trkpt lat="44.0898383" lon="12.1990157"><ele>60.0</ele><time>2026-04-05T13:28:15.98Z</time></trkpt><trkpt lat="44.0901151" lon="12.199052"><ele>57.5</ele><time>2026-04-05T13:28:16.98Z</time></trkpt><trkpt lat="44.0903935" lon="12.1990816"><ele>55.0</ele><time>2026-04-05T13:28:17.979Z</time></trkpt><trkpt lat="44.0906675" lon="12.199099"><ele>52.5</ele><time>2026-04-05T13:28:18.98Z</time></trkpt><trkpt lat="44.0909411" lon="12.1991015"><ele>50.0</ele><time>2026-04-05T13:28:19.979Z</time></trkpt><trkpt lat="44.091223" lon="12.1990911"><ele>50.0</ele><time>2026-04-05T13:28:20.978Z</time></trkpt><trkpt lat="44.091499" lon="12.1990684"><ele>50.0</ele><time>2026-04-05T13:28:21.978Z</time></trkpt><trkpt lat="44.0917675" lon="12.1990418"><ele>53.0</ele><time>2026-04-05T13:28:22.98Z</time></trkpt><trkpt lat="44.0920446" lon="12.1990172"><ele>56.0</ele><time>2026-04-05T13:28:23.978Z</time></trkpt><trkpt lat="44.0923194" lon="12.1989968"><ele>58.0</ele><time>2026-04-05T13:28:24.977Z</time></trkpt><trkpt lat="44.0925947" lon="12.1989634"><ele>60.0</ele><time>2026-04-05T13:28:25.98Z</time></trkpt><trkpt lat="44.0928701" lon="12.1989398"><ele>60.0</ele><time>2026-04-05T13:28:26.98Z</time></trkpt><trkpt lat="44.0931531" lon="12.1989123"><ele>60.0</ele><time>2026-04-05T13:28:27.978Z</time></trkpt><trkpt lat="44.0934323" lon="12.1988897"><ele>60.0</ele><time>2026-04-05T13:28:28.976Z</time></trkpt><trkpt lat="44.0937158" lon="12.1988682"><ele>60.0</ele><time>2026-04-05T13:28:29.98Z</time></trkpt><trkpt lat="44.094" lon="12.1988307"><ele>59.5</ele><time>2026-04-05T13:28:30.976Z</time></trkpt><trkpt lat="44.0942836" lon="12.1987952"><ele>59.0</ele><time>2026-04-05T13:28:31.977Z</time></trkpt><trkpt lat="44.0945649" lon="12.198767"><ele>59.0</ele><time>2026-04-05T13:28:32.978Z</time></trkpt><trkpt lat="44.0948602" lon="12.1987284"><ele>59.0</ele><time>2026-04-05T13:28:33.98Z</time></trkpt><trkpt lat="44.0951521" lon="12.198704"><ele>58.5</ele><time>2026-04-05T13:28:34.98Z</time></trkpt><trkpt lat="44.0954354" lon="12.1986755"><ele>58.0</ele><time>2026-04-05T13:28:35.976Z</time></trkpt><trkpt lat="44.0957197" lon="12.198653"><ele>57.5</ele><time>2026-04-05T13:28:36.976Z</time></trkpt><trkpt lat="44.0960004" lon="12.1986314"><ele>57.0</ele><time>2026-04-05T13:28:37.978Z</time></trkpt><trkpt lat="44.0962833" lon="12.1986087"><ele>57.0</ele><time>2026-04-05T13:28:38.979Z</time></trkpt><trkpt lat="44.0965655" lon="12.1985808"><ele>57.0</ele><time>2026-04-05T13:28:39.977Z</time></trkpt><trkpt lat="44.0968409" lon="12.1985658"><ele>58.0</ele><time>2026-04-05T13:28:40.977Z</time></trkpt><trkpt lat="44.0971172" lon="12.1985638"><ele>59.0</ele><time>2026-04-05T13:28:41.978Z</time></trkpt><trkpt lat="44.0973947" lon="12.1985792"><ele>59.5</ele><time>2026-04-05T13:28:42.978Z</time></trkpt><trkpt lat="44.0976738" lon="12.198598"><ele>60.0</ele><time>2026-04-05T13:28:43.98Z</time></trkpt><trkpt lat="44.0979486" lon="12.1986258"><ele>60.0</ele><time>2026-04-05T13:28:44.978Z</time></trkpt><trkpt lat="44.0982247" lon="12.198666"><ele>60.0</ele><time>2026-04-05T13:28:45.979Z</time></trkpt><trkpt lat="44.0985025" lon="12.1987056"><ele>59.0</ele><time>2026-04-05T13:28:46.979Z</time></trkpt><trkpt lat="44.0987777" lon="12.1987491"><ele>58.0</ele><time>2026-04-05T13:28:47.978Z</time></trkpt><trkpt lat="44.0990602" lon="12.198781"><ele>59.0</ele><time>2026-04-05T13:28:48.978Z</time></trkpt><trkpt lat="44.0993451" lon="12.198811"><ele>60.0</ele><time>2026-04-05T13:28:49.98Z</time></trkpt><trkpt lat="44.0996366" lon="12.1988365"><ele>59.5</ele><time>2026-04-05T13:28:50.976Z</time></trkpt><trkpt lat="44.0999266" lon="12.1988614"><ele>59.0</ele><time>2026-04-05T13:28:51.98Z</time></trkpt><trkpt lat="44.1002157" lon="12.1988966"><ele>59.0</ele><time>2026-04-05T13:28:52.979Z</time></trkpt><trkpt lat="44.100504" lon="12.1989453"><ele>59.0</ele><time>2026-04-05T13:28:53.979Z</time></trkpt><trkpt lat="44.1008012" lon="12.1990277"><ele>59.0</ele><time>2026-04-05T13:28:54.978Z</time></trkpt><trkpt lat="44.1010769" lon="12.1990994"><ele>59.0</ele><time>2026-04-05T13:28:55.979Z</time></trkpt><trkpt lat="44.1013548" lon="12.1991774"><ele>58.5</ele><time>2026-04-05T13:28:56.977Z</time></trkpt><trkpt lat="44.1016274" lon="12.1992475"><ele>58.0</ele><time>2026-04-05T13:28:57.978Z</time></trkpt><trkpt lat="44.1019011" lon="12.1993266"><ele>58.0</ele><time>2026-04-05T13:28:58.979Z</time></trkpt><trkpt lat="44.1021672" lon="12.1994026"><ele>58.0</ele><time>2026-04-05T13:28:59.978Z</time></trkpt><trkpt lat="44.1024332" lon="12.1994883"><ele>58.5</ele><time>2026-04-05T13:29:00.978Z</time></trkpt><trkpt lat="44.1026998" lon="12.1995608"><ele>59.0</ele><time>2026-04-05T13:29:01.98Z</time></trkpt><trkpt lat="44.1029591" lon="12.1996358"><ele>59.0</ele><time>2026-04-05T13:29:02.978Z</time></trkpt><trkpt lat="44.1032185" lon="12.1997053"><ele>59.0</ele><time>2026-04-05T13:29:03.979Z</time></trkpt><trkpt lat="44.1034785" lon="12.1997792"><ele>58.5</ele><time>2026-04-05T13:29:04.977Z</time></trkpt><trkpt lat="44.1037346" lon="12.1998669"><ele>58.0</ele><time>2026-04-05T13:29:05.98Z</time></trkpt><trkpt lat="44.1039861" lon="12.1999672"><ele>56.5</ele><time>2026-04-05T13:29:06.979Z</time></trkpt><trkpt lat="44.1042322" lon="12.2000748"><ele>55.0</ele><time>2026-04-05T13:29:07.978Z</time></trkpt><trkpt lat="44.1044728" lon="12.2001934"><ele>55.0</ele><time>2026-04-05T13:29:08.979Z</time></trkpt><trkpt lat="44.1047112" lon="12.2003165"><ele>55.0</ele><time>2026-04-05T13:29:09.98Z</time></trkpt><trkpt lat="44.1049459" lon="12.2004485"><ele>53.5</ele><time>2026-04-05T13:29:10.978Z</time></trkpt><trkpt lat="44.1051765" lon="12.2005962"><ele>52.0</ele><time>2026-04-05T13:29:11.978Z</time></trkpt><trkpt lat="44.105406" lon="12.2007558"><ele>51.5</ele><time>2026-04-05T13:29:12.979Z</time></trkpt><trkpt lat="44.1056342" lon="12.2009181"><ele>51.0</ele><time>2026-04-05T13:29:13.978Z</time></trkpt><trkpt lat="44.1058631" lon="12.201078"><ele>53.5</ele><time>2026-04-05T13:29:14.979Z</time></trkpt><trkpt lat="44.1060965" lon="12.2012381"><ele>56.0</ele><time>2026-04-05T13:29:15.979Z</time></trkpt><trkpt lat="44.1063241" lon="12.2014009"><ele>55.5</ele><time>2026-04-05T13:29:16.98Z</time></trkpt><trkpt lat="44.1065519" lon="12.2015587"><ele>55.0</ele><time>2026-04-05T13:29:17.98Z</time></trkpt><trkpt lat="44.1067773" lon="12.2017204"><ele>56.0</ele><time>2026-04-05T13:29:18.979Z</time></trkpt><trkpt lat="44.1070098" lon="12.2018849"><ele>57.0</ele><time>2026-04-05T13:29:19.979Z</time></trkpt><trkpt lat="44.1072519" lon="12.2020457"><ele>56.5</ele><time>2026-04-05T13:29:20.978Z</time></trkpt><trkpt lat="44.1075024" lon="12.2022085"><ele>56.0</ele><time>2026-04-05T13:29:21.978Z</time></trkpt><trkpt lat="44.107758" lon="12.2023724"><ele>55.5</ele><time>2026-04-05T13:29:22.979Z</time></trkpt><trkpt lat="44.1080121" lon="12.202533"><ele>55.0</ele><time>2026-04-05T13:29:23.978Z</time></trkpt><trkpt lat="44.1082656" lon="12.2026929"><ele>55.0</ele><time>2026-04-05T13:29:24.978Z</time></trkpt><trkpt lat="44.108516" lon="12.2028463"><ele>55.0</ele><time>2026-04-05T13:29:25.979Z</time></trkpt><trkpt lat="44.1087596" lon="12.2030049"><ele>55.0</ele><time>2026-04-05T13:29:26.978Z</time></trkpt><trkpt lat="44.1090009" lon="12.2031648"><ele>55.0</ele><time>2026-04-05T13:29:27.978Z</time></trkpt><trkpt lat="44.1092337" lon="12.2033177"><ele>55.0</ele><time>2026-04-05T13:29:28.98Z</time></trkpt><trkpt lat="44.1094654" lon="12.2034622"><ele>55.0</ele><time>2026-04-05T13:29:29.979Z</time></trkpt><trkpt lat="44.109695" lon="12.2036057"><ele>54.5</ele><time>2026-04-05T13:29:30.979Z</time></trkpt><trkpt lat="44.1099305" lon="12.2037473"><ele>54.0</ele><time>2026-04-05T13:29:31.978Z</time></trkpt><trkpt lat="44.1101788" lon="12.2038865"><ele>54.5</ele><time>2026-04-05T13:29:32.978Z</time></trkpt><trkpt lat="44.1104179" lon="12.20403"><ele>55.0</ele><time>2026-04-05T13:29:33.976Z</time></trkpt><trkpt lat="44.1106508" lon="12.2041779"><ele>54.5</ele><time>2026-04-05T13:29:34.98Z</time></trkpt><trkpt lat="44.1108818" lon="12.2043181"><ele>54.0</ele><time>2026-04-05T13:29:35.979Z</time></trkpt><trkpt lat="44.1111123" lon="12.2044581"><ele>54.0</ele><time>2026-04-05T13:29:36.977Z</time></trkpt><trkpt lat="44.1113385" lon="12.2045986"><ele>54.0</ele><time>2026-04-05T13:29:37.979Z</time></trkpt><trkpt lat="44.1115635" lon="12.2047403"><ele>54.0</ele><time>2026-04-05T13:29:38.977Z</time></trkpt><trkpt lat="44.1117947" lon="12.2048807"><ele>54.0</ele><time>2026-04-05T13:29:39.979Z</time></trkpt><trkpt lat="44.11202" lon="12.2050142"><ele>54.0</ele><time>2026-04-05T13:29:40.977Z</time></trkpt><trkpt lat="44.1122435" lon="12.2051513"><ele>54.0</ele><time>2026-04-05T13:29:41.977Z</time></trkpt><trkpt lat="44.1124681" lon="12.2052898"><ele>54.0</ele><time>2026-04-05T13:29:42.978Z</time></trkpt><trkpt lat="44.1126913" lon="12.2054325"><ele>54.0</ele><time>2026-04-05T13:29:43.977Z</time></trkpt><trkpt lat="44.1129143" lon="12.2055704"><ele>53.0</ele><time>2026-04-05T13:29:44.975Z</time></trkpt><trkpt lat="44.11314" lon="12.205707"><ele>52.0</ele><time>2026-04-05T13:29:45.979Z</time></trkpt><trkpt lat="44.1133636" lon="12.2058478"><ele>52.0</ele><time>2026-04-05T13:29:46.978Z</time></trkpt><trkpt lat="44.1135888" lon="12.205985"><ele>52.0</ele><time>2026-04-05T13:29:47.979Z</time></trkpt><trkpt lat="44.1138168" lon="12.2061246"><ele>52.0</ele><time>2026-04-05T13:29:48.979Z</time></trkpt><trkpt lat="44.1140392" lon="12.2062666"><ele>52.0</ele><time>2026-04-05T13:29:49.98Z</time></trkpt><trkpt lat="44.114262" lon="12.2064079"><ele>51.5</ele><time>2026-04-05T13:29:50.979Z</time></trkpt><trkpt lat="44.1144839" lon="12.2065544"><ele>51.0</ele><time>2026-04-05T13:29:51.979Z</time></trkpt><trkpt lat="44.1147004" lon="12.2067059"><ele>50.0</ele><time>2026-04-05T13:29:52.978Z</time></trkpt><trkpt lat="44.1149139" lon="12.2068674"><ele>49.0</ele><time>2026-04-05T13:29:53.978Z</time></trkpt><trkpt lat="44.115123" lon="12.2070309"><ele>49.0</ele><time>2026-04-05T13:29:54.978Z</time></trkpt><trkpt lat="44.115329" lon="12.2071937"><ele>49.0</ele><time>2026-04-05T13:29:55.979Z</time></trkpt><trkpt lat="44.1155357" lon="12.207357"><ele>49.5</ele><time>2026-04-05T13:29:56.978Z</time></trkpt><trkpt lat="44.1157432" lon="12.2075203"><ele>50.0</ele><time>2026-04-05T13:29:57.979Z</time></trkpt><trkpt lat="44.115951" lon="12.2076873"><ele>50.0</ele><time>2026-04-05T13:29:58.979Z</time></trkpt><trkpt lat="44.1161619" lon="12.2078475"><ele>50.0</ele><time>2026-04-05T13:29:59.979Z</time></trkpt><trkpt lat="44.1163784" lon="12.2080032"><ele>49.5</ele><time>2026-04-05T13:30:00.979Z</time></trkpt><trkpt lat="44.1165954" lon="12.2081559"><ele>49.0</ele><time>2026-04-05T13:30:01.98Z</time></trkpt><trkpt lat="44.1168135" lon="12.2083104"><ele>49.0</ele><time>2026-04-05T13:30:02.977Z</time></trkpt><trkpt lat="44.1170425" lon="12.2084564"><ele>49.0</ele><time>2026-04-05T13:30:03.98Z</time></trkpt><trkpt lat="44.1172674" lon="12.2085836"><ele>48.5</ele><time>2026-04-05T13:30:04.975Z</time></trkpt><trkpt lat="44.1174915" lon="12.2087176"><ele>48.0</ele><time>2026-04-05T13:30:05.979Z</time></trkpt><trkpt lat="44.1177251" lon="12.2088422"><ele>48.0</ele><time>2026-04-05T13:30:06.978Z</time></trkpt><trkpt lat="44.1179553" lon="12.2089556"><ele>48.0</ele><time>2026-04-05T13:30:07.978Z</time></trkpt><trkpt lat="44.1181879" lon="12.209053"><ele>46.0</ele><time>2026-04-05T13:30:08.974Z</time></trkpt><trkpt lat="44.1184236" lon="12.2091397"><ele>44.0</ele><time>2026-04-05T13:30:09.977Z</time></trkpt><trkpt lat="44.1186615" lon="12.2092121"><ele>44.0</ele><time>2026-04-05T13:30:10.978Z</time></trkpt><trkpt lat="44.1189108" lon="12.2092566"><ele>44.0</ele><time>2026-04-05T13:30:11.978Z</time></trkpt><trkpt lat="44.1191556" lon="12.2093058"><ele>45.0</ele><time>2026-04-05T13:30:12.977Z</time></trkpt><trkpt lat="44.1194009" lon="12.2093338"><ele>46.0</ele><time>2026-04-05T13:30:13.976Z</time></trkpt><trkpt lat="44.1196461" lon="12.2093452"><ele>46.0</ele><time>2026-04-05T13:30:14.979Z</time></trkpt><trkpt lat="44.1198888" lon="12.2093534"><ele>46.0</ele><time>2026-04-05T13:30:15.978Z</time></trkpt><trkpt lat="44.120129" lon="12.209347"><ele>48.0</ele><time>2026-04-05T13:30:16.977Z</time></trkpt><trkpt lat="44.1203598" lon="12.209312"><ele>50.0</ele><time>2026-04-05T13:30:17.977Z</time></trkpt><trkpt lat="44.1205802" lon="12.2092706"><ele>49.66666666666667</ele><time>2026-04-05T13:30:18.978Z</time></trkpt><trkpt lat="44.1208012" lon="12.2092081"><ele>49.33333333333333</ele><time>2026-04-05T13:30:19.98Z</time></trkpt><trkpt lat="44.1210054" lon="12.2091489"><ele>49.0</ele><time>2026-04-05T13:30:20.978Z</time></trkpt><trkpt lat="44.1212013" lon="12.2090823"><ele>49.0</ele><time>2026-04-05T13:30:21.978Z</time></trkpt><trkpt lat="44.1213847" lon="12.2090179"><ele>49.0</ele><time>2026-04-05T13:30:22.976Z</time></trkpt><trkpt lat="44.1215643" lon="12.2089606"><ele>49.0</ele><time>2026-04-05T13:30:23.978Z</time></trkpt><trkpt lat="44.1217274" lon="12.2088984"><ele>49.0</ele><time>2026-04-05T13:30:24.979Z</time></trkpt><trkpt lat="44.121895" lon="12.208854"><ele>49.0</ele><time>2026-04-05T13:30:25.978Z</time></trkpt><trkpt lat="44.122038" lon="12.208805"><ele>49.0</ele><time>2026-04-05T13:30:26.979Z</time></trkpt><trkpt lat="44.1221817" lon="12.2087703"><ele>49.0</ele><time>2026-04-05T13:30:27.979Z</time></trkpt><trkpt lat="44.1223248" lon="12.2087526"><ele>49.0</ele><time>2026-04-05T13:30:28.977Z</time></trkpt><trkpt lat="44.1224672" lon="12.2087617"><ele>49.0</ele><time>2026-04-05T13:30:29.98Z</time></trkpt><trkpt lat="44.1226017" lon="12.2087949"><ele>49.0</ele><time>2026-04-05T13:30:30.976Z</time></trkpt><trkpt lat="44.1227366" lon="12.2088641"><ele>48.5</ele><time>2026-04-05T13:30:31.98Z</time></trkpt><trkpt lat="44.1228677" lon="12.2089363"><ele>48.0</ele><time>2026-04-05T13:30:32.978Z</time></trkpt><trkpt lat="44.1229813" lon="12.209064"><ele>47.5</ele><time>2026-04-05T13:30:33.979Z</time></trkpt><trkpt lat="44.1230919" lon="12.2092168"><ele>47.0</ele><time>2026-04-05T13:30:34.98Z</time></trkpt><trkpt lat="44.1231871" lon="12.2093983"><ele>46.33333333333333</ele><time>2026-04-05T13:30:35.979Z</time></trkpt><trkpt lat="44.1232625" lon="12.2095979"><ele>45.666666666666664</ele><time>2026-04-05T13:30:36.98Z</time></trkpt><trkpt lat="44.1233375" lon="12.209789"><ele>45.0</ele><time>2026-04-05T13:30:37.978Z</time></trkpt><trkpt lat="44.1234021" lon="12.2099718"><ele>44.5</ele><time>2026-04-05T13:30:38.978Z</time></trkpt><trkpt lat="44.1234695" lon="12.2101392"><ele>44.0</ele><time>2026-04-05T13:30:39.98Z</time></trkpt><trkpt lat="44.1235209" lon="12.2102901"><ele>43.5</ele><time>2026-04-05T13:30:40.979Z</time></trkpt><trkpt lat="44.1235425" lon="12.210429"><ele>43.0</ele><time>2026-04-05T13:30:41.978Z</time></trkpt><trkpt lat="44.1235303" lon="12.2105576"><ele>43.5</ele><time>2026-04-05T13:30:42.975Z</time></trkpt><trkpt lat="44.1235194" lon="12.2106718"><ele>44.0</ele><time>2026-04-05T13:30:43.978Z</time></trkpt><trkpt lat="44.1235381" lon="12.2107928"><ele>44.5</ele><time>2026-04-05T13:30:44.98Z</time></trkpt><trkpt lat="44.1235945" lon="12.2108827"><ele>45.0</ele><time>2026-04-05T13:30:45.978Z</time></trkpt><trkpt lat="44.1236701" lon="12.2109558"><ele>45.5</ele><time>2026-04-05T13:30:46.979Z</time></trkpt><trkpt lat="44.123759" lon="12.2109961"><ele>46.0</ele><time>2026-04-05T13:30:47.98Z</time></trkpt><trkpt lat="44.1238493" lon="12.2110249"><ele>46.0</ele><time>2026-04-05T13:30:48.978Z</time></trkpt><trkpt lat="44.1239328" lon="12.2110736"><ele>46.0</ele><time>2026-04-05T13:30:49.977Z</time></trkpt><trkpt lat="44.124017" lon="12.2111469"><ele>46.0</ele><time>2026-04-05T13:30:50.978Z</time></trkpt><trkpt lat="44.1240883" lon="12.2112404"><ele>46.0</ele><time>2026-04-05T13:30:51.978Z</time></trkpt><trkpt lat="44.1241642" lon="12.2113449"><ele>46.0</ele><time>2026-04-05T13:30:52.978Z</time></trkpt><trkpt lat="44.1242337" lon="12.2114425"><ele>46.199999999999996</ele><time>2026-04-05T13:30:53.978Z</time></trkpt><trkpt lat="44.1243092" lon="12.2115295"><ele>46.4</ele><time>2026-04-05T13:30:54.978Z</time></trkpt><trkpt lat="44.124392" lon="12.2116154"><ele>46.6</ele><time>2026-04-05T13:30:55.98Z</time></trkpt><trkpt lat="44.1244836" lon="12.2116962"><ele>46.8</ele><time>2026-04-05T13:30:56.979Z</time></trkpt><trkpt lat="44.1246024" lon="12.2117758"><ele>47.0</ele><time>2026-04-05T13:30:57.979Z</time></trkpt><trkpt lat="44.1247405" lon="12.2118496"><ele>47.0</ele><time>2026-04-05T13:30:58.978Z</time></trkpt><trkpt lat="44.1248866" lon="12.2119322"><ele>47.0</ele><time>2026-04-05T13:30:59.977Z</time></trkpt><trkpt lat="44.1250508" lon="12.2120255"><ele>47.0</ele><time>2026-04-05T13:31:00.978Z</time></trkpt><trkpt lat="44.1252459" lon="12.2121261"><ele>46.33333333333333</ele><time>2026-04-05T13:31:01.977Z</time></trkpt><trkpt lat="44.1254416" lon="12.2122166"><ele>45.666666666666664</ele><time>2026-04-05T13:31:02.977Z</time></trkpt><trkpt lat="44.1256241" lon="12.212309"><ele>45.0</ele><time>2026-04-05T13:31:03.977Z</time></trkpt><trkpt lat="44.1257956" lon="12.212393"><ele>46.0</ele><time>2026-04-05T13:31:04.98Z</time></trkpt><trkpt lat="44.1259577" lon="12.2124656"><ele>47.0</ele><time>2026-04-05T13:31:05.977Z</time></trkpt><trkpt lat="44.1261011" lon="12.2125214"><ele>48.0</ele><time>2026-04-05T13:31:06.978Z</time></trkpt><trkpt lat="44.1262224" lon="12.2125683"><ele>49.0</ele><time>2026-04-05T13:31:07.978Z</time></trkpt><trkpt lat="44.1263248" lon="12.2126265"><ele>49.0</ele><time>2026-04-05T13:31:08.978Z</time></trkpt><trkpt lat="44.1264101" lon="12.2127133"><ele>49.0</ele><time>2026-04-05T13:31:09.98Z</time></trkpt><trkpt lat="44.1264854" lon="12.2127948"><ele>49.0</ele><time>2026-04-05T13:31:10.978Z</time></trkpt><trkpt lat="44.1265633" lon="12.2128494"><ele>49.0</ele><time>2026-04-05T13:31:11.978Z</time></trkpt><trkpt lat="44.1266444" lon="12.2128401"><ele>49.0</ele><time>2026-04-05T13:31:12.978Z</time></trkpt><trkpt lat="44.1267167" lon="12.2127828"><ele>48.2</ele><time>2026-04-05T13:31:13.978Z</time></trkpt><trkpt lat="44.1267634" lon="12.2126816"><ele>47.400000000000006</ele><time>2026-04-05T13:31:14.98Z</time></trkpt><trkpt lat="44.1267965" lon="12.212562"><ele>46.6</ele><time>2026-04-05T13:31:15.976Z</time></trkpt><trkpt lat="44.1267551" lon="12.212419"><ele>45.8</ele><time>2026-04-05T13:31:16.977Z</time></trkpt><trkpt lat="44.1267323" lon="12.2122875"><ele>45.0</ele><time>2026-04-05T13:31:17.978Z</time></trkpt><trkpt lat="44.1267402" lon="12.2121613"><ele>45.0</ele><time>2026-04-05T13:31:18.978Z</time></trkpt><trkpt lat="44.1267754" lon="12.2120409"><ele>45.0</ele><time>2026-04-05T13:31:19.978Z</time></trkpt><trkpt lat="44.1268549" lon="12.2119326"><ele>45.0</ele><time>2026-04-05T13:31:20.978Z</time></trkpt><trkpt lat="44.1269454" lon="12.2118049"><ele>45.0</ele><time>2026-04-05T13:31:21.978Z</time></trkpt><trkpt lat="44.1270439" lon="12.2116791"><ele>45.0</ele><time>2026-04-05T13:31:22.979Z</time></trkpt><trkpt lat="44.1271536" lon="12.2115337"><ele>45.0</ele><time>2026-04-05T13:31:23.977Z</time></trkpt><trkpt lat="44.1272719" lon="12.2113651"><ele>45.0</ele><time>2026-04-05T13:31:24.978Z</time></trkpt><trkpt lat="44.1273882" lon="12.2111979"><ele>44.666666666666664</ele><time>2026-04-05T13:31:25.979Z</time></trkpt><trkpt lat="44.1275051" lon="12.2110317"><ele>44.33333333333333</ele><time>2026-04-05T13:31:26.977Z</time></trkpt><trkpt lat="44.1276174" lon="12.2108681"><ele>44.0</ele><time>2026-04-05T13:31:27.978Z</time></trkpt><trkpt lat="44.1277195" lon="12.2107106"><ele>44.0</ele><time>2026-04-05T13:31:28.978Z</time></trkpt><trkpt lat="44.1278154" lon="12.2105628"><ele>44.0</ele><time>2026-04-05T13:31:29.977Z</time></trkpt><trkpt lat="44.1278983" lon="12.2104314"><ele>44.0</ele><time>2026-04-05T13:31:30.976Z</time></trkpt><trkpt lat="44.1279646" lon="12.2103169"><ele>44.0</ele><time>2026-04-05T13:31:31.978Z</time></trkpt><trkpt lat="44.1280151" lon="12.2102511"><ele>44.0</ele><time>2026-04-05T13:31:32.979Z</time></trkpt><trkpt lat="44.1281386" lon="12.2102317"><ele>44.0</ele><time>2026-04-05T13:31:34.979Z</time></trkpt><trkpt lat="44.1282224" lon="12.2102642"><ele>44.0</ele><time>2026-04-05T13:31:35.977Z</time></trkpt><trkpt lat="44.1283188" lon="12.2103058"><ele>44.0</ele><time>2026-04-05T13:31:36.977Z</time></trkpt><trkpt lat="44.1284252" lon="12.21035"><ele>44.0</ele><time>2026-04-05T13:31:37.978Z</time></trkpt><trkpt lat="44.1285272" lon="12.2103926"><ele>44.0</ele><time>2026-04-05T13:31:38.979Z</time></trkpt><trkpt lat="44.1286212" lon="12.2104259"><ele>43.666666666666664</ele><time>2026-04-05T13:31:39.978Z</time></trkpt><trkpt lat="44.1287077" lon="12.2104585"><ele>43.33333333333333</ele><time>2026-04-05T13:31:40.978Z</time></trkpt><trkpt lat="44.1287818" lon="12.2104814"><ele>43.0</ele><time>2026-04-05T13:31:41.978Z</time></trkpt><trkpt lat="44.1288861" lon="12.2104384"><ele>42.666666666666664</ele><time>2026-04-05T13:31:43.975Z</time></trkpt><trkpt lat="44.1289188" lon="12.2103609"><ele>42.333333333333336</ele><time>2026-04-05T13:31:44.98Z</time></trkpt><trkpt lat="44.1289414" lon="12.2102523"><ele>42.0</ele><time>2026-04-05T13:31:45.98Z</time></trkpt><trkpt lat="44.1289666" lon="12.2101303"><ele>42.0</ele><time>2026-04-05T13:31:46.979Z</time></trkpt><trkpt lat="44.128996" lon="12.2099989"><ele>42.0</ele><time>2026-04-05T13:31:47.978Z</time></trkpt><trkpt lat="44.1290267" lon="12.2098639"><ele>42.0</ele><time>2026-04-05T13:31:48.978Z</time></trkpt><trkpt lat="44.1290688" lon="12.2097639"><ele>42.0</ele><time>2026-04-05T13:31:49.975Z</time></trkpt><trkpt lat="44.1290876" lon="12.2096592"><ele>42.0</ele><time>2026-04-05T13:31:50.98Z</time></trkpt><trkpt lat="44.1291179" lon="12.2095079"><ele>41.0</ele><time>2026-04-05T13:31:52.979Z</time></trkpt><trkpt lat="44.1291589" lon="12.2094336"><ele>41.0</ele><time>2026-04-05T13:31:54.978Z</time></trkpt><trkpt lat="44.1292162" lon="12.2093888"><ele>41.0</ele><time>2026-04-05T13:31:56.979Z</time></trkpt><trkpt lat="44.129272" lon="12.2094312"><ele>41.0</ele><time>2026-04-05T13:33:36.98Z</time></trkpt></trkseg><trkseg><trkpt lat="44.1291924" lon="12.2093343"><ele>41.0</ele><time>2026-04-05T13:46:35.968Z</time></trkpt><trkpt lat="44.1291232" lon="12.2094069"><ele>41.0</ele><time>2026-04-05T13:46:39.968Z</time></trkpt><trkpt lat="44.129053" lon="12.2095853"><ele>41.0</ele><time>2026-04-05T13:46:41.967Z</time></trkpt><trkpt lat="44.1289573" lon="12.2095685"><ele>41.0</ele><time>2026-04-05T13:46:43.968Z</time></trkpt><trkpt lat="44.1288914" lon="12.2095383"><ele>41.0</ele><time>2026-04-05T13:46:44.968Z</time></trkpt><trkpt lat="44.1288248" lon="12.2095119"><ele>41.4</ele><time>2026-04-05T13:46:45.968Z</time></trkpt><trkpt lat="44.1287417" lon="12.2094791"><ele>41.8</ele><time>2026-04-05T13:46:46.967Z</time></trkpt><trkpt lat="44.1286711" lon="12.2094496"><ele>42.199999999999996</ele><time>2026-04-05T13:46:47.968Z</time></trkpt><trkpt lat="44.1286085" lon="12.2094248"><ele>42.599999999999994</ele><time>2026-04-05T13:46:48.968Z</time></trkpt><trkpt lat="44.1285016" lon="12.2093895"><ele>43.0</ele><time>2026-04-05T13:46:50.968Z</time></trkpt><trkpt lat="44.1283857" lon="12.2094783"><ele>43.0</ele><time>2026-04-05T13:46:52.968Z</time></trkpt><trkpt lat="44.1283241" lon="12.2095796"><ele>43.0</ele><time>2026-04-05T13:46:53.967Z</time></trkpt><trkpt lat="44.1282585" lon="12.2097036"><ele>43.0</ele><time>2026-04-05T13:46:54.968Z</time></trkpt><trkpt lat="44.1281928" lon="12.2098402"><ele>43.0</ele><time>2026-04-05T13:46:55.967Z</time></trkpt><trkpt lat="44.1281127" lon="12.2099862"><ele>43.333333333333336</ele><time>2026-04-05T13:46:56.968Z</time></trkpt><trkpt lat="44.1280133" lon="12.2101485"><ele>43.666666666666664</ele><time>2026-04-05T13:46:57.968Z</time></trkpt><trkpt lat="44.127915" lon="12.2103047"><ele>44.0</ele><time>2026-04-05T13:46:58.968Z</time></trkpt><trkpt lat="44.1278093" lon="12.2104673"><ele>44.0</ele><time>2026-04-05T13:46:59.967Z</time></trkpt><trkpt lat="44.1276995" lon="12.2106319"><ele>44.0</ele><time>2026-04-05T13:47:00.967Z</time></trkpt><trkpt lat="44.1275882" lon="12.210797"><ele>44.0</ele><time>2026-04-05T13:47:01.968Z</time></trkpt><trkpt lat="44.127472" lon="12.2109625"><ele>45.33333333333333</ele><time>2026-04-05T13:47:02.967Z</time></trkpt><trkpt lat="44.1273552" lon="12.2111309"><ele>46.666666666666664</ele><time>2026-04-05T13:47:03.968Z</time></trkpt><trkpt lat="44.1272366" lon="12.2112975"><ele>48.0</ele><time>2026-04-05T13:47:04.968Z</time></trkpt><trkpt lat="44.1271275" lon="12.2114539"><ele>47.25</ele><time>2026-04-05T13:47:05.968Z</time></trkpt><trkpt lat="44.1270241" lon="12.2115993"><ele>46.5</ele><time>2026-04-05T13:47:06.968Z</time></trkpt><trkpt lat="44.1269249" lon="12.2117371"><ele>45.75</ele><time>2026-04-05T13:47:07.967Z</time></trkpt><trkpt lat="44.1268378" lon="12.211857"><ele>45.0</ele><time>2026-04-05T13:47:08.968Z</time></trkpt><trkpt lat="44.1267596" lon="12.211967"><ele>45.0</ele><time>2026-04-05T13:47:09.968Z</time></trkpt><trkpt lat="44.1266899" lon="12.2120689"><ele>45.0</ele><time>2026-04-05T13:47:10.968Z</time></trkpt><trkpt lat="44.1266275" lon="12.2121576"><ele>45.0</ele><time>2026-04-05T13:47:11.967Z</time></trkpt><trkpt lat="44.1265663" lon="12.2122389"><ele>45.0</ele><time>2026-04-05T13:47:12.968Z</time></trkpt><trkpt lat="44.1265024" lon="12.2123126"><ele>45.0</ele><time>2026-04-05T13:47:13.968Z</time></trkpt><trkpt lat="44.1264516" lon="12.2123901"><ele>45.0</ele><time>2026-04-05T13:47:14.967Z</time></trkpt><trkpt lat="44.1264037" lon="12.2124806"><ele>45.0</ele><time>2026-04-05T13:47:15.967Z</time></trkpt><trkpt lat="44.1264092" lon="12.212608"><ele>45.0</ele><time>2026-04-05T13:47:16.968Z</time></trkpt><trkpt lat="44.1264527" lon="12.2127109"><ele>45.0</ele><time>2026-04-05T13:47:17.968Z</time></trkpt><trkpt lat="44.1265221" lon="12.2127854"><ele>45.0</ele><time>2026-04-05T13:47:18.968Z</time></trkpt><trkpt lat="44.1266001" lon="12.2128303"><ele>45.0</ele><time>2026-04-05T13:47:19.968Z</time></trkpt><trkpt lat="44.1266924" lon="12.2128285"><ele>45.0</ele><time>2026-04-05T13:47:20.967Z</time></trkpt><trkpt lat="44.1267904" lon="12.2128227"><ele>45.0</ele><time>2026-04-05T13:47:21.967Z</time></trkpt><trkpt lat="44.126905" lon="12.212843"><ele>45.0</ele><time>2026-04-05T13:47:22.967Z</time></trkpt><trkpt lat="44.127029" lon="12.2128799"><ele>45.0</ele><time>2026-04-05T13:47:23.968Z</time></trkpt><trkpt lat="44.1271603" lon="12.2129314"><ele>45.0</ele><time>2026-04-05T13:47:24.968Z</time></trkpt><trkpt lat="44.1272976" lon="12.2129805"><ele>44.333333333333336</ele><time>2026-04-05T13:47:25.968Z</time></trkpt><trkpt lat="44.127446" lon="12.2130361"><ele>43.66666666666667</ele><time>2026-04-05T13:47:26.968Z</time></trkpt><trkpt lat="44.1276028" lon="12.2130934"><ele>43.0</ele><time>2026-04-05T13:47:27.968Z</time></trkpt><trkpt lat="44.1277613" lon="12.2131449"><ele>43.0</ele><time>2026-04-05T13:47:28.968Z</time></trkpt><trkpt lat="44.1279285" lon="12.2131968"><ele>43.0</ele><time>2026-04-05T13:47:29.968Z</time></trkpt><trkpt lat="44.128089" lon="12.2132643"><ele>43.0</ele><time>2026-04-05T13:47:30.968Z</time></trkpt><trkpt lat="44.1282565" lon="12.2133263"><ele>43.0</ele><time>2026-04-05T13:47:31.968Z</time></trkpt><trkpt lat="44.1284216" lon="12.2133896"><ele>43.0</ele><time>2026-04-05T13:47:32.967Z</time></trkpt><trkpt lat="44.128589" lon="12.2134599"><ele>43.0</ele><time>2026-04-05T13:47:33.968Z</time></trkpt><trkpt lat="44.1287479" lon="12.2135299"><ele>43.0</ele><time>2026-04-05T13:47:34.967Z</time></trkpt><trkpt lat="44.1289167" lon="12.2135904"><ele>43.0</ele><time>2026-04-05T13:47:35.967Z</time></trkpt><trkpt lat="44.1290862" lon="12.2136508"><ele>43.0</ele><time>2026-04-05T13:47:36.968Z</time></trkpt><trkpt lat="44.1292536" lon="12.2137168"><ele>43.0</ele><time>2026-04-05T13:47:37.968Z</time></trkpt><trkpt lat="44.1294236" lon="12.2137832"><ele>43.0</ele><time>2026-04-05T13:47:38.967Z</time></trkpt><trkpt lat="44.1295998" lon="12.2138461"><ele>43.0</ele><time>2026-04-05T13:47:39.967Z</time></trkpt><trkpt lat="44.1297722" lon="12.2139135"><ele>42.333333333333336</ele><time>2026-04-05T13:47:40.967Z</time></trkpt><trkpt lat="44.1299477" lon="12.2139796"><ele>41.666666666666664</ele><time>2026-04-05T13:47:41.967Z</time></trkpt><trkpt lat="44.1301258" lon="12.2140461"><ele>41.0</ele><time>2026-04-05T13:47:42.967Z</time></trkpt><trkpt lat="44.1302945" lon="12.2141184"><ele>41.0</ele><time>2026-04-05T13:47:43.967Z</time></trkpt><trkpt lat="44.1304659" lon="12.2141818"><ele>41.0</ele><time>2026-04-05T13:47:44.968Z</time></trkpt><trkpt lat="44.1306391" lon="12.2142458"><ele>41.0</ele><time>2026-04-05T13:47:45.968Z</time></trkpt><trkpt lat="44.130811" lon="12.2143071"><ele>41.0</ele><time>2026-04-05T13:47:46.967Z</time></trkpt><trkpt lat="44.1309743" lon="12.2143741"><ele>41.0</ele><time>2026-04-05T13:47:47.968Z</time></trkpt><trkpt lat="44.1311372" lon="12.2144393"><ele>41.0</ele><time>2026-04-05T13:47:48.968Z</time></trkpt><trkpt lat="44.1313032" lon="12.2145027"><ele>41.0</ele><time>2026-04-05T13:47:49.968Z</time></trkpt><trkpt lat="44.1314625" lon="12.2145639"><ele>41.0</ele><time>2026-04-05T13:47:50.968Z</time></trkpt><trkpt lat="44.1316204" lon="12.2146197"><ele>41.0</ele><time>2026-04-05T13:47:51.967Z</time></trkpt><trkpt lat="44.131777" lon="12.2146798"><ele>41.0</ele><time>2026-04-05T13:47:52.968Z</time></trkpt><trkpt lat="44.1319332" lon="12.2147422"><ele>41.0</ele><time>2026-04-05T13:47:53.968Z</time></trkpt><trkpt lat="44.1320899" lon="12.2148035"><ele>41.0</ele><time>2026-04-05T13:47:54.968Z</time></trkpt><trkpt lat="44.1322482" lon="12.214864"><ele>41.0</ele><time>2026-04-05T13:47:55.968Z</time></trkpt><trkpt lat="44.1324074" lon="12.2149255"><ele>41.0</ele><time>2026-04-05T13:47:56.968Z</time></trkpt><trkpt lat="44.1325662" lon="12.2149881"><ele>41.0</ele><time>2026-04-05T13:47:57.967Z</time></trkpt><trkpt lat="44.1327218" lon="12.215046"><ele>41.0</ele><time>2026-04-05T13:47:58.968Z</time></trkpt><trkpt lat="44.1328783" lon="12.2151042"><ele>41.0</ele><time>2026-04-05T13:47:59.968Z</time></trkpt><trkpt lat="44.1330337" lon="12.2151561"><ele>41.0</ele><time>2026-04-05T13:48:00.968Z</time></trkpt><trkpt lat="44.1331783" lon="12.2152081"><ele>41.0</ele><time>2026-04-05T13:48:01.967Z</time></trkpt><trkpt lat="44.1333178" lon="12.2152629"><ele>41.0</ele><time>2026-04-05T13:48:02.968Z</time></trkpt><trkpt lat="44.1334499" lon="12.2153119"><ele>41.0</ele><time>2026-04-05T13:48:03.968Z</time></trkpt><trkpt lat="44.1335715" lon="12.2153583"><ele>41.0</ele><time>2026-04-05T13:48:04.968Z</time></trkpt><trkpt lat="44.1336792" lon="12.2154036"><ele>41.0</ele><time>2026-04-05T13:48:05.968Z</time></trkpt><trkpt lat="44.1337719" lon="12.2154461"><ele>41.0</ele><time>2026-04-05T13:48:06.968Z</time></trkpt><trkpt lat="44.1338507" lon="12.2154798"><ele>41.0</ele><time>2026-04-05T13:48:07.967Z</time></trkpt><trkpt lat="44.1339155" lon="12.2154893"><ele>41.0</ele><time>2026-04-05T13:48:08.968Z</time></trkpt><trkpt lat="44.133974" lon="12.2155245"><ele>41.0</ele><time>2026-04-05T13:48:12.968Z</time></trkpt><trkpt lat="44.1340408" lon="12.2155795"><ele>41.0</ele><time>2026-04-05T13:48:15.968Z</time></trkpt><trkpt lat="44.1341158" lon="12.2156476"><ele>40.599999999999994</ele><time>2026-04-05T13:48:17.968Z</time></trkpt><trkpt lat="44.1342127" lon="12.2156803"><ele>40.199999999999996</ele><time>2026-04-05T13:48:19.968Z</time></trkpt><trkpt lat="44.1343374" lon="12.2156932"><ele>39.8</ele><time>2026-04-05T13:48:21.968Z</time></trkpt><trkpt lat="44.1344214" lon="12.2156938"><ele>39.4</ele><time>2026-04-05T13:48:22.968Z</time></trkpt><trkpt lat="44.1345324" lon="12.2157075"><ele>39.0</ele><time>2026-04-05T13:48:23.968Z</time></trkpt><trkpt lat="44.1346779" lon="12.2157352"><ele>39.0</ele><time>2026-04-05T13:48:24.968Z</time></trkpt><trkpt lat="44.1348383" lon="12.2157929"><ele>39.0</ele><time>2026-04-05T13:48:25.968Z</time></trkpt><trkpt lat="44.1350138" lon="12.2158709"><ele>39.0</ele><time>2026-04-05T13:48:26.968Z</time></trkpt><trkpt lat="44.1351907" lon="12.215952"><ele>38.666666666666664</ele><time>2026-04-05T13:48:27.968Z</time></trkpt><trkpt lat="44.1353731" lon="12.2160364"><ele>38.33333333333333</ele><time>2026-04-05T13:48:28.968Z</time></trkpt><trkpt lat="44.1355543" lon="12.2161066"><ele>38.0</ele><time>2026-04-05T13:48:29.968Z</time></trkpt><trkpt lat="44.1357363" lon="12.2161734"><ele>37.666666666666664</ele><time>2026-04-05T13:48:30.968Z</time></trkpt><trkpt lat="44.1359189" lon="12.2162528"><ele>37.333333333333336</ele><time>2026-04-05T13:48:31.968Z</time></trkpt><trkpt lat="44.1360979" lon="12.2163225"><ele>37.0</ele><time>2026-04-05T13:48:32.967Z</time></trkpt><trkpt lat="44.1362777" lon="12.2163937"><ele>37.0</ele><time>2026-04-05T13:48:33.968Z</time></trkpt><trkpt lat="44.136457" lon="12.2164642"><ele>37.0</ele><time>2026-04-05T13:48:34.968Z</time></trkpt><trkpt lat="44.1366477" lon="12.216527"><ele>37.0</ele><time>2026-04-05T13:48:35.967Z</time></trkpt><trkpt lat="44.1368272" lon="12.216595"><ele>36.66666666666667</ele><time>2026-04-05T13:48:36.968Z</time></trkpt><trkpt lat="44.1370073" lon="12.216665"><ele>36.333333333333336</ele><time>2026-04-05T13:48:37.968Z</time></trkpt><trkpt lat="44.1371885" lon="12.2167337"><ele>36.0</ele><time>2026-04-05T13:48:38.968Z</time></trkpt><trkpt lat="44.137369" lon="12.2168149"><ele>35.666666666666664</ele><time>2026-04-05T13:48:39.968Z</time></trkpt><trkpt lat="44.1375502" lon="12.216883"><ele>35.33333333333333</ele><time>2026-04-05T13:48:40.968Z</time></trkpt><trkpt lat="44.1377306" lon="12.2169511"><ele>35.0</ele><time>2026-04-05T13:48:41.968Z</time></trkpt><trkpt lat="44.1379092" lon="12.2170207"><ele>35.0</ele><time>2026-04-05T13:48:42.967Z</time></trkpt><trkpt lat="44.1380902" lon="12.217089"><ele>35.0</ele><time>2026-04-05T13:48:43.968Z</time></trkpt><trkpt lat="44.1382702" lon="12.2171611"><ele>35.0</ele><time>2026-04-05T13:48:44.967Z</time></trkpt><trkpt lat="44.1384553" lon="12.2172262"><ele>35.0</ele><time>2026-04-05T13:48:45.968Z</time></trkpt><trkpt lat="44.1386383" lon="12.2172969"><ele>35.0</ele><time>2026-04-05T13:48:46.968Z</time></trkpt><trkpt lat="44.1388228" lon="12.2173649"><ele>35.0</ele><time>2026-04-05T13:48:47.968Z</time></trkpt><trkpt lat="44.1390013" lon="12.2174332"><ele>35.33333333333333</ele><time>2026-04-05T13:48:48.967Z</time></trkpt><trkpt lat="44.1391808" lon="12.2175029"><ele>35.666666666666664</ele><time>2026-04-05T13:48:49.967Z</time></trkpt><trkpt lat="44.1393611" lon="12.2175761"><ele>36.0</ele><time>2026-04-05T13:48:50.968Z</time></trkpt><trkpt lat="44.1395426" lon="12.2176452"><ele>36.0</ele><time>2026-04-05T13:48:51.967Z</time></trkpt><trkpt lat="44.1397214" lon="12.217715"><ele>36.0</ele><time>2026-04-05T13:48:52.967Z</time></trkpt><trkpt lat="44.139897" lon="12.2177828"><ele>36.0</ele><time>2026-04-05T13:48:53.968Z</time></trkpt><trkpt lat="44.140077" lon="12.217861"><ele>36.0</ele><time>2026-04-05T13:48:54.968Z</time></trkpt><trkpt lat="44.1402528" lon="12.2179352"><ele>36.0</ele><time>2026-04-05T13:48:55.968Z</time></trkpt><trkpt lat="44.1404312" lon="12.2180008"><ele>36.0</ele><time>2026-04-05T13:48:56.967Z</time></trkpt><trkpt lat="44.1406061" lon="12.2180724"><ele>36.333333333333336</ele><time>2026-04-05T13:48:57.968Z</time></trkpt><trkpt lat="44.1407832" lon="12.2181428"><ele>36.66666666666667</ele><time>2026-04-05T13:48:58.968Z</time></trkpt><trkpt lat="44.14096" lon="12.2182141"><ele>37.0</ele><time>2026-04-05T13:48:59.968Z</time></trkpt><trkpt lat="44.1411379" lon="12.2182831"><ele>37.0</ele><time>2026-04-05T13:49:00.967Z</time></trkpt><trkpt lat="44.1413134" lon="12.2183516"><ele>37.0</ele><time>2026-04-05T13:49:01.967Z</time></trkpt><trkpt lat="44.1414915" lon="12.218418"><ele>37.0</ele><time>2026-04-05T13:49:02.968Z</time></trkpt><trkpt lat="44.1416701" lon="12.2184859"><ele>36.0</ele><time>2026-04-05T13:49:03.967Z</time></trkpt><trkpt lat="44.1418478" lon="12.2185521"><ele>35.0</ele><time>2026-04-05T13:49:04.968Z</time></trkpt><trkpt lat="44.1420259" lon="12.2186133"><ele>34.0</ele><time>2026-04-05T13:49:05.968Z</time></trkpt><trkpt lat="44.142205" lon="12.2186672"><ele>34.333333333333336</ele><time>2026-04-05T13:49:06.967Z</time></trkpt><trkpt lat="44.1423834" lon="12.2187169"><ele>34.666666666666664</ele><time>2026-04-05T13:49:07.967Z</time></trkpt><trkpt lat="44.1425613" lon="12.2187628"><ele>35.0</ele><time>2026-04-05T13:49:08.968Z</time></trkpt><trkpt lat="44.1427397" lon="12.218804"><ele>35.0</ele><time>2026-04-05T13:49:09.968Z</time></trkpt><trkpt lat="44.1429152" lon="12.2188351"><ele>35.0</ele><time>2026-04-05T13:49:10.968Z</time></trkpt><trkpt lat="44.1430823" lon="12.2188669"><ele>35.0</ele><time>2026-04-05T13:49:11.967Z</time></trkpt><trkpt lat="44.1432442" lon="12.218896"><ele>35.666666666666664</ele><time>2026-04-05T13:49:12.968Z</time></trkpt><trkpt lat="44.1434067" lon="12.2189191"><ele>36.333333333333336</ele><time>2026-04-05T13:49:13.968Z</time></trkpt><trkpt lat="44.1435677" lon="12.2189556"><ele>37.0</ele><time>2026-04-05T13:49:14.967Z</time></trkpt><trkpt lat="44.1437305" lon="12.2189843"><ele>37.0</ele><time>2026-04-05T13:49:15.968Z</time></trkpt><trkpt lat="44.1438886" lon="12.2190131"><ele>37.0</ele><time>2026-04-05T13:49:16.968Z</time></trkpt><trkpt lat="44.1440477" lon="12.2190457"><ele>37.0</ele><time>2026-04-05T13:49:17.968Z</time></trkpt><trkpt lat="44.144202" lon="12.2190649"><ele>37.0</ele><time>2026-04-05T13:49:18.967Z</time></trkpt><trkpt lat="44.1443525" lon="12.2190865"><ele>37.0</ele><time>2026-04-05T13:49:19.968Z</time></trkpt><trkpt lat="44.144495" lon="12.2191164"><ele>37.0</ele><time>2026-04-05T13:49:20.968Z</time></trkpt><trkpt lat="44.1446263" lon="12.2191446"><ele>37.0</ele><time>2026-04-05T13:49:21.968Z</time></trkpt><trkpt lat="44.1447405" lon="12.2191763"><ele>37.0</ele><time>2026-04-05T13:49:22.968Z</time></trkpt><trkpt lat="44.144847" lon="12.2192124"><ele>37.0</ele><time>2026-04-05T13:49:23.968Z</time></trkpt><trkpt lat="44.1449492" lon="12.2192621"><ele>37.0</ele><time>2026-04-05T13:49:24.968Z</time></trkpt><trkpt lat="44.145039" lon="12.2193274"><ele>37.0</ele><time>2026-04-05T13:49:25.967Z</time></trkpt><trkpt lat="44.1451013" lon="12.2194216"><ele>37.0</ele><time>2026-04-05T13:49:26.967Z</time></trkpt><trkpt lat="44.1451459" lon="12.2195501"><ele>36.66666666666667</ele><time>2026-04-05T13:49:27.968Z</time></trkpt><trkpt lat="44.145144" lon="12.2198054"><ele>36.333333333333336</ele><time>2026-04-05T13:49:29.967Z</time></trkpt><trkpt lat="44.1451134" lon="12.2199869"><ele>36.0</ele><time>2026-04-05T13:49:30.967Z</time></trkpt><trkpt lat="44.1450796" lon="12.2201751"><ele>36.0</ele><time>2026-04-05T13:49:31.968Z</time></trkpt><trkpt lat="44.1450414" lon="12.2203666"><ele>36.0</ele><time>2026-04-05T13:49:32.968Z</time></trkpt><trkpt lat="44.1450087" lon="12.2205569"><ele>36.0</ele><time>2026-04-05T13:49:33.968Z</time></trkpt><trkpt lat="44.144976" lon="12.2207395"><ele>36.0</ele><time>2026-04-05T13:49:34.967Z</time></trkpt><trkpt lat="44.1449388" lon="12.2209148"><ele>36.0</ele><time>2026-04-05T13:49:35.968Z</time></trkpt><trkpt lat="44.1448876" lon="12.2210789"><ele>36.0</ele><time>2026-04-05T13:49:36.968Z</time></trkpt><trkpt lat="44.1448346" lon="12.221229"><ele>36.0</ele><time>2026-04-05T13:49:37.968Z</time></trkpt><trkpt lat="44.1447776" lon="12.2213933"><ele>36.0</ele><time>2026-04-05T13:49:38.968Z</time></trkpt><trkpt lat="44.1447194" lon="12.2215535"><ele>35.75</ele><time>2026-04-05T13:49:39.967Z</time></trkpt><trkpt lat="44.144652" lon="12.2216975"><ele>35.5</ele><time>2026-04-05T13:49:40.967Z</time></trkpt><trkpt lat="44.1445817" lon="12.2218516"><ele>35.25</ele><time>2026-04-05T13:49:41.968Z</time></trkpt><trkpt lat="44.1445077" lon="12.2220031"><ele>35.0</ele><time>2026-04-05T13:49:42.968Z</time></trkpt><trkpt lat="44.1444305" lon="12.2221599"><ele>35.0</ele><time>2026-04-05T13:49:43.968Z</time></trkpt><trkpt lat="44.1443469" lon="12.2223096"><ele>35.0</ele><time>2026-04-05T13:49:44.967Z</time></trkpt><trkpt lat="44.1442649" lon="12.2224551"><ele>35.0</ele><time>2026-04-05T13:49:45.967Z</time></trkpt><trkpt lat="44.1441758" lon="12.2226145"><ele>35.0</ele><time>2026-04-05T13:49:46.968Z</time></trkpt><trkpt lat="44.1440904" lon="12.2227757"><ele>35.0</ele><time>2026-04-05T13:49:47.967Z</time></trkpt><trkpt lat="44.1439979" lon="12.222933"><ele>35.0</ele><time>2026-04-05T13:49:48.968Z</time></trkpt><trkpt lat="44.1439182" lon="12.2230875"><ele>35.0</ele><time>2026-04-05T13:49:49.968Z</time></trkpt><trkpt lat="44.1438253" lon="12.2232494"><ele>35.0</ele><time>2026-04-05T13:49:50.968Z</time></trkpt><trkpt lat="44.1437324" lon="12.2234101"><ele>34.666666666666664</ele><time>2026-04-05T13:49:51.968Z</time></trkpt><trkpt lat="44.1436577" lon="12.2236017"><ele>34.333333333333336</ele><time>2026-04-05T13:49:52.968Z</time></trkpt><trkpt lat="44.1435686" lon="12.2237678"><ele>34.0</ele><time>2026-04-05T13:49:53.967Z</time></trkpt><trkpt lat="44.1434822" lon="12.2239349"><ele>34.0</ele><time>2026-04-05T13:49:54.968Z</time></trkpt><trkpt lat="44.1433921" lon="12.2240995"><ele>34.0</ele><time>2026-04-05T13:49:55.967Z</time></trkpt><trkpt lat="44.143297" lon="12.2242545"><ele>34.0</ele><time>2026-04-05T13:49:56.968Z</time></trkpt><trkpt lat="44.1431961" lon="12.2244031"><ele>34.0</ele><time>2026-04-05T13:49:57.968Z</time></trkpt><trkpt lat="44.1430922" lon="12.2245472"><ele>34.25</ele><time>2026-04-05T13:49:58.967Z</time></trkpt><trkpt lat="44.1429783" lon="12.2246752"><ele>34.5</ele><time>2026-04-05T13:49:59.968Z</time></trkpt><trkpt lat="44.1428638" lon="12.2248085"><ele>34.75</ele><time>2026-04-05T13:50:00.968Z</time></trkpt><trkpt lat="44.1427505" lon="12.2249415"><ele>35.0</ele><time>2026-04-05T13:50:01.967Z</time></trkpt><trkpt lat="44.142633" lon="12.2250806"><ele>35.0</ele><time>2026-04-05T13:50:02.968Z</time></trkpt><trkpt lat="44.1425239" lon="12.2252164"><ele>35.0</ele><time>2026-04-05T13:50:03.968Z</time></trkpt><trkpt lat="44.1424065" lon="12.2253461"><ele>35.0</ele><time>2026-04-05T13:50:04.967Z</time></trkpt><trkpt lat="44.1422923" lon="12.2254822"><ele>35.0</ele><time>2026-04-05T13:50:05.967Z</time></trkpt><trkpt lat="44.1421771" lon="12.2256209"><ele>35.0</ele><time>2026-04-05T13:50:06.967Z</time></trkpt><trkpt lat="44.1420681" lon="12.2257622"><ele>35.0</ele><time>2026-04-05T13:50:07.967Z</time></trkpt><trkpt lat="44.1419693" lon="12.2259073"><ele>35.0</ele><time>2026-04-05T13:50:08.968Z</time></trkpt><trkpt lat="44.1418756" lon="12.2260476"><ele>35.0</ele><time>2026-04-05T13:50:09.968Z</time></trkpt><trkpt lat="44.1417913" lon="12.2261901"><ele>35.0</ele><time>2026-04-05T13:50:10.968Z</time></trkpt><trkpt lat="44.1417212" lon="12.2263153"><ele>35.0</ele><time>2026-04-05T13:50:11.968Z</time></trkpt><trkpt lat="44.1416482" lon="12.2264118"><ele>35.0</ele><time>2026-04-05T13:50:12.967Z</time></trkpt><trkpt lat="44.1415716" lon="12.226474"><ele>35.0</ele><time>2026-04-05T13:50:13.968Z</time></trkpt><trkpt lat="44.1414994" lon="12.2265072"><ele>35.0</ele><time>2026-04-05T13:50:14.968Z</time></trkpt><trkpt lat="44.141438" lon="12.2265464"><ele>35.0</ele><time>2026-04-05T13:50:15.967Z</time></trkpt><trkpt lat="44.1413977" lon="12.2266226"><ele>34.8</ele><time>2026-04-05T13:50:16.968Z</time></trkpt><trkpt lat="44.1413843" lon="12.2267325"><ele>34.6</ele><time>2026-04-05T13:50:17.967Z</time></trkpt><trkpt lat="44.1413874" lon="12.2268629"><ele>34.4</ele><time>2026-04-05T13:50:18.967Z</time></trkpt><trkpt lat="44.1413816" lon="12.2270219"><ele>34.2</ele><time>2026-04-05T13:50:19.968Z</time></trkpt><trkpt lat="44.1413476" lon="12.2271674"><ele>34.0</ele><time>2026-04-05T13:50:20.967Z</time></trkpt><trkpt lat="44.1412865" lon="12.2273332"><ele>33.5</ele><time>2026-04-05T13:50:21.968Z</time></trkpt><trkpt lat="44.1412395" lon="12.2275212"><ele>33.0</ele><time>2026-04-05T13:50:22.968Z</time></trkpt><trkpt lat="44.1411972" lon="12.2277169"><ele>32.5</ele><time>2026-04-05T13:50:23.968Z</time></trkpt><trkpt lat="44.1411564" lon="12.2279134"><ele>32.0</ele><time>2026-04-05T13:50:24.968Z</time></trkpt><trkpt lat="44.1411139" lon="12.2281133"><ele>31.75</ele><time>2026-04-05T13:50:25.967Z</time></trkpt><trkpt lat="44.1410745" lon="12.2283112"><ele>31.5</ele><time>2026-04-05T13:50:26.967Z</time></trkpt><trkpt lat="44.1410342" lon="12.2285087"><ele>31.25</ele><time>2026-04-05T13:50:27.968Z</time></trkpt><trkpt lat="44.140994" lon="12.2287122"><ele>31.0</ele><time>2026-04-05T13:50:28.967Z</time></trkpt><trkpt lat="44.1409597" lon="12.2289052"><ele>31.5</ele><time>2026-04-05T13:50:29.968Z</time></trkpt><trkpt lat="44.1409219" lon="12.2290983"><ele>32.0</ele><time>2026-04-05T13:50:30.968Z</time></trkpt><trkpt lat="44.140885" lon="12.2292869"><ele>32.5</ele><time>2026-04-05T13:50:31.968Z</time></trkpt><trkpt lat="44.1408483" lon="12.2294676"><ele>33.0</ele><time>2026-04-05T13:50:32.967Z</time></trkpt><trkpt lat="44.1408176" lon="12.2296375"><ele>33.0</ele><time>2026-04-05T13:50:33.968Z</time></trkpt><trkpt lat="44.1407843" lon="12.2298021"><ele>33.0</ele><time>2026-04-05T13:50:34.968Z</time></trkpt><trkpt lat="44.1407538" lon="12.2299504"><ele>33.0</ele><time>2026-04-05T13:50:35.967Z</time></trkpt><trkpt lat="44.1407219" lon="12.2300921"><ele>33.0</ele><time>2026-04-05T13:50:36.968Z</time></trkpt><trkpt lat="44.1406926" lon="12.2302366"><ele>33.0</ele><time>2026-04-05T13:50:37.967Z</time></trkpt><trkpt lat="44.1406684" lon="12.2303815"><ele>32.5</ele><time>2026-04-05T13:50:38.968Z</time></trkpt><trkpt lat="44.1406476" lon="12.2305068"><ele>32.0</ele><time>2026-04-05T13:50:39.968Z</time></trkpt><trkpt lat="44.1406349" lon="12.230617"><ele>31.5</ele><time>2026-04-05T13:50:40.968Z</time></trkpt><trkpt lat="44.1406355" lon="12.2307288"><ele>31.0</ele><time>2026-04-05T13:50:41.967Z</time></trkpt><trkpt lat="44.14067" lon="12.2308571"><ele>30.5</ele><time>2026-04-05T13:50:43.967Z</time></trkpt><trkpt lat="44.1407263" lon="12.2309481"><ele>30.0</ele><time>2026-04-05T13:50:45.967Z</time></trkpt><trkpt lat="44.1407792" lon="12.2310121"><ele>29.833333333333332</ele><time>2026-04-05T13:50:47.968Z</time></trkpt><trkpt lat="44.1408325" lon="12.23108"><ele>29.666666666666664</ele><time>2026-04-05T13:50:49.968Z</time></trkpt><trkpt lat="44.1408238" lon="12.2311737"><ele>29.5</ele><time>2026-04-05T13:52:51.968Z</time></trkpt><trkpt lat="44.140784" lon="12.2311048"><ele>29.333333333333332</ele><time>2026-04-05T13:54:03.968Z</time></trkpt><trkpt lat="44.1406814" lon="12.2311646"><ele>29.166666666666664</ele><time>2026-04-05T13:54:51.964Z</time></trkpt><trkpt lat="44.1406131" lon="12.2311489"><ele>29.0</ele><time>2026-04-05T13:54:54.965Z</time></trkpt><trkpt lat="44.140527" lon="12.2312074"><ele>29.0</ele><time>2026-04-05T13:54:57.965Z</time></trkpt><trkpt lat="44.140465" lon="12.2313642"><ele>29.0</ele><time>2026-04-05T13:54:59.965Z</time></trkpt><trkpt lat="44.1404389" lon="12.2314757"><ele>29.0</ele><time>2026-04-05T13:55:00.965Z</time></trkpt><trkpt lat="44.1404123" lon="12.231592"><ele>29.0</ele><time>2026-04-05T13:55:01.965Z</time></trkpt><trkpt lat="44.140376" lon="12.2317217"><ele>29.0</ele><time>2026-04-05T13:55:02.965Z</time></trkpt><trkpt lat="44.1403426" lon="12.2318443"><ele>28.999999999999996</ele><time>2026-04-05T13:55:03.965Z</time></trkpt><trkpt lat="44.140312" lon="12.2319569"><ele>29.0</ele><time>2026-04-05T13:55:04.964Z</time></trkpt><trkpt lat="44.1402802" lon="12.2320515"><ele>29.0</ele><time>2026-04-05T13:55:05.965Z</time></trkpt><trkpt lat="44.1402546" lon="12.2321368"><ele>29.0</ele><time>2026-04-05T13:55:06.965Z</time></trkpt><trkpt lat="44.140187" lon="12.2322537"><ele>28.999999999999996</ele><time>2026-04-05T13:55:08.965Z</time></trkpt><trkpt lat="44.1401245" lon="12.232277"><ele>29.0</ele><time>2026-04-05T13:55:09.965Z</time></trkpt><trkpt lat="44.140016" lon="12.2322713"><ele>29.0</ele><time>2026-04-05T13:55:11.965Z</time></trkpt><trkpt lat="44.1399838" lon="12.232192"><ele>29.0</ele><time>2026-04-05T13:55:12.965Z</time></trkpt><trkpt lat="44.1399353" lon="12.2320981"><ele>29.0</ele><time>2026-04-05T13:55:13.964Z</time></trkpt><trkpt lat="44.1398752" lon="12.2319742"><ele>29.0</ele><time>2026-04-05T13:55:14.964Z</time></trkpt><trkpt lat="44.1398183" lon="12.2318558"><ele>29.0</ele><time>2026-04-05T13:55:15.965Z</time></trkpt><trkpt lat="44.1397577" lon="12.2317382"><ele>29.0</ele><time>2026-04-05T13:55:16.965Z</time></trkpt><trkpt lat="44.1396905" lon="12.2316077"><ele>29.0</ele><time>2026-04-05T13:55:17.965Z</time></trkpt><trkpt lat="44.1396207" lon="12.2314764"><ele>29.0</ele><time>2026-04-05T13:55:18.965Z</time></trkpt><trkpt lat="44.1395566" lon="12.2313467"><ele>29.0</ele><time>2026-04-05T13:55:19.964Z</time></trkpt><trkpt lat="44.1394923" lon="12.231211"><ele>29.0</ele><time>2026-04-05T13:55:20.965Z</time></trkpt><trkpt lat="44.1394282" lon="12.231085"><ele>29.0</ele><time>2026-04-05T13:55:21.965Z</time></trkpt><trkpt lat="44.1393627" lon="12.2309624"><ele>29.0</ele><time>2026-04-05T13:55:22.965Z</time></trkpt><trkpt lat="44.1392964" lon="12.2308362"><ele>29.0</ele><time>2026-04-05T13:55:23.965Z</time></trkpt><trkpt lat="44.1392268" lon="12.2307113"><ele>29.0</ele><time>2026-04-05T13:55:24.965Z</time></trkpt><trkpt lat="44.1391575" lon="12.2305876"><ele>29.2</ele><time>2026-04-05T13:55:25.964Z</time></trkpt><trkpt lat="44.1390909" lon="12.2304671"><ele>29.4</ele><time>2026-04-05T13:55:26.964Z</time></trkpt><trkpt lat="44.1390198" lon="12.2303683"><ele>29.6</ele><time>2026-04-05T13:55:27.964Z</time></trkpt><trkpt lat="44.1389557" lon="12.2302621"><ele>29.8</ele><time>2026-04-05T13:55:28.965Z</time></trkpt><trkpt lat="44.1388998" lon="12.2301813"><ele>30.0</ele><time>2026-04-05T13:55:29.965Z</time></trkpt><trkpt lat="44.1388501" lon="12.23011"><ele>30.0</ele><time>2026-04-05T13:55:30.965Z</time></trkpt><trkpt lat="44.1387993" lon="12.2300568"><ele>30.0</ele><time>2026-04-05T13:55:31.965Z</time></trkpt><trkpt lat="44.1387273" lon="12.2299791"><ele>30.0</ele><time>2026-04-05T13:55:33.965Z</time></trkpt><trkpt lat="44.1386589" lon="12.2299368"><ele>30.0</ele><time>2026-04-05T13:55:41.964Z</time></trkpt><trkpt lat="44.1385775" lon="12.229863"><ele>30.0</ele><time>2026-04-05T13:55:43.964Z</time></trkpt><trkpt lat="44.1384699" lon="12.2297729"><ele>30.0</ele><time>2026-04-05T13:55:45.965Z</time></trkpt><trkpt lat="44.1383729" lon="12.2296748"><ele>30.0</ele><time>2026-04-05T13:55:47.964Z</time></trkpt><trkpt lat="44.1382455" lon="12.2296579"><ele>30.0</ele><time>2026-04-05T13:55:48.965Z</time></trkpt><trkpt lat="44.1381491" lon="12.2296203"><ele>30.0</ele><time>2026-04-05T13:55:49.965Z</time></trkpt><trkpt lat="44.1380517" lon="12.2295894"><ele>30.0</ele><time>2026-04-05T13:55:50.964Z</time></trkpt><trkpt lat="44.1379518" lon="12.2295702"><ele>30.25</ele><time>2026-04-05T13:55:51.965Z</time></trkpt><trkpt lat="44.1378445" lon="12.229565"><ele>30.5</ele><time>2026-04-05T13:55:52.965Z</time></trkpt><trkpt lat="44.137732" lon="12.2295629"><ele>30.75</ele><time>2026-04-05T13:55:53.964Z</time></trkpt><trkpt lat="44.1376072" lon="12.2295651"><ele>31.0</ele><time>2026-04-05T13:55:54.965Z</time></trkpt><trkpt lat="44.1374839" lon="12.2295698"><ele>31.0</ele><time>2026-04-05T13:55:55.965Z</time></trkpt><trkpt lat="44.1373664" lon="12.2295725"><ele>31.0</ele><time>2026-04-05T13:55:56.965Z</time></trkpt><trkpt lat="44.1372496" lon="12.2295775"><ele>31.0</ele><time>2026-04-05T13:55:57.965Z</time></trkpt><trkpt lat="44.1371423" lon="12.2295767"><ele>31.0</ele><time>2026-04-05T13:55:58.965Z</time></trkpt><trkpt lat="44.1370395" lon="12.2295799"><ele>31.0</ele><time>2026-04-05T13:55:59.965Z</time></trkpt><trkpt lat="44.1369372" lon="12.2295879"><ele>31.0</ele><time>2026-04-05T13:56:00.964Z</time></trkpt><trkpt lat="44.136841" lon="12.2295926"><ele>31.0</ele><time>2026-04-05T13:56:01.964Z</time></trkpt><trkpt lat="44.1367464" lon="12.229588"><ele>31.0</ele><time>2026-04-05T13:56:02.965Z</time></trkpt><trkpt lat="44.1366507" lon="12.2295862"><ele>31.0</ele><time>2026-04-05T13:56:03.964Z</time></trkpt><trkpt lat="44.1365638" lon="12.2295978"><ele>31.0</ele><time>2026-04-05T13:56:04.965Z</time></trkpt><trkpt lat="44.1364574" lon="12.2296177"><ele>31.75</ele><time>2026-04-05T13:56:05.965Z</time></trkpt><trkpt lat="44.1363345" lon="12.2296138"><ele>32.5</ele><time>2026-04-05T13:56:06.965Z</time></trkpt><trkpt lat="44.1362071" lon="12.2296085"><ele>33.25</ele><time>2026-04-05T13:56:07.965Z</time></trkpt><trkpt lat="44.136073" lon="12.2296133"><ele>34.0</ele><time>2026-04-05T13:56:08.964Z</time></trkpt><trkpt lat="44.1359327" lon="12.2296244"><ele>34.0</ele><time>2026-04-05T13:56:09.965Z</time></trkpt><trkpt lat="44.1357959" lon="12.2296274"><ele>34.0</ele><time>2026-04-05T13:56:10.964Z</time></trkpt><trkpt lat="44.1356494" lon="12.2296477"><ele>34.0</ele><time>2026-04-05T13:56:11.965Z</time></trkpt><trkpt lat="44.1355336" lon="12.2296502"><ele>34.0</ele><time>2026-04-05T13:56:12.965Z</time></trkpt><trkpt lat="44.1354157" lon="12.2296511"><ele>34.4</ele><time>2026-04-05T13:56:13.965Z</time></trkpt><trkpt lat="44.1353095" lon="12.2296478"><ele>34.8</ele><time>2026-04-05T13:56:14.964Z</time></trkpt><trkpt lat="44.1352211" lon="12.2296309"><ele>35.2</ele><time>2026-04-05T13:56:15.964Z</time></trkpt><trkpt lat="44.1350956" lon="12.229608"><ele>35.6</ele><time>2026-04-05T13:56:17.964Z</time></trkpt><trkpt lat="44.1350197" lon="12.2296232"><ele>36.0</ele><time>2026-04-05T13:56:18.965Z</time></trkpt><trkpt lat="44.1349339" lon="12.2296591"><ele>35.8</ele><time>2026-04-05T13:56:19.965Z</time></trkpt><trkpt lat="44.1348507" lon="12.2297021"><ele>35.6</ele><time>2026-04-05T13:56:20.965Z</time></trkpt><trkpt lat="44.1347389" lon="12.2297051"><ele>35.4</ele><time>2026-04-05T13:56:21.964Z</time></trkpt><trkpt lat="44.1346334" lon="12.229701"><ele>35.2</ele><time>2026-04-05T13:56:22.964Z</time></trkpt><trkpt lat="44.134519" lon="12.2297129"><ele>35.0</ele><time>2026-04-05T13:56:23.965Z</time></trkpt><trkpt lat="44.1344016" lon="12.2297103"><ele>35.0</ele><time>2026-04-05T13:56:24.965Z</time></trkpt><trkpt lat="44.1342879" lon="12.2297133"><ele>35.0</ele><time>2026-04-05T13:56:25.964Z</time></trkpt><trkpt lat="44.1341708" lon="12.2297175"><ele>35.0</ele><time>2026-04-05T13:56:26.965Z</time></trkpt><trkpt lat="44.1340602" lon="12.2297221"><ele>35.0</ele><time>2026-04-05T13:56:27.965Z</time></trkpt><trkpt lat="44.1339554" lon="12.229719"><ele>35.0</ele><time>2026-04-05T13:56:28.965Z</time></trkpt><trkpt lat="44.1338617" lon="12.2297147"><ele>35.0</ele><time>2026-04-05T13:56:29.965Z</time></trkpt><trkpt lat="44.1337568" lon="12.2297138"><ele>35.0</ele><time>2026-04-05T13:56:30.965Z</time></trkpt><trkpt lat="44.1336536" lon="12.2297297"><ele>35.0</ele><time>2026-04-05T13:56:31.965Z</time></trkpt><trkpt lat="44.1335936" lon="12.2297825"><ele>35.0</ele><time>2026-04-05T13:56:32.965Z</time></trkpt><trkpt lat="44.1335537" lon="12.2298719"><ele>35.0</ele><time>2026-04-05T13:56:33.965Z</time></trkpt><trkpt lat="44.1335369" lon="12.2299779"><ele>35.0</ele><time>2026-04-05T13:56:34.964Z</time></trkpt><trkpt lat="44.1335365" lon="12.2300928"><ele>35.0</ele><time>2026-04-05T13:56:35.965Z</time></trkpt><trkpt lat="44.1335423" lon="12.2302165"><ele>35.0</ele><time>2026-04-05T13:56:36.965Z</time></trkpt><trkpt lat="44.1335544" lon="12.2303515"><ele>35.0</ele><time>2026-04-05T13:56:37.965Z</time></trkpt><trkpt lat="44.1335679" lon="12.2304894"><ele>35.0</ele><time>2026-04-05T13:56:38.964Z</time></trkpt><trkpt lat="44.1335837" lon="12.230635"><ele>35.0</ele><time>2026-04-05T13:56:39.964Z</time></trkpt><trkpt lat="44.1336064" lon="12.2307956"><ele>34.6</ele><time>2026-04-05T13:56:40.965Z</time></trkpt><trkpt lat="44.133621" lon="12.2309457"><ele>34.2</ele><time>2026-04-05T13:56:41.965Z</time></trkpt><trkpt lat="44.133637" lon="12.2310891"><ele>33.8</ele><time>2026-04-05T13:56:42.965Z</time></trkpt><trkpt lat="44.1336574" lon="12.2312463"><ele>33.4</ele><time>2026-04-05T13:56:43.965Z</time></trkpt><trkpt lat="44.1336782" lon="12.231393"><ele>33.0</ele><time>2026-04-05T13:56:44.965Z</time></trkpt><trkpt lat="44.1336948" lon="12.2315283"><ele>33.0</ele><time>2026-04-05T13:56:45.965Z</time></trkpt><trkpt lat="44.1337144" lon="12.2316595"><ele>33.0</ele><time>2026-04-05T13:56:46.965Z</time></trkpt><trkpt lat="44.1337334" lon="12.2317797"><ele>33.0</ele><time>2026-04-05T13:56:47.965Z</time></trkpt><trkpt lat="44.133749" lon="12.231891"><ele>33.0</ele><time>2026-04-05T13:56:48.965Z</time></trkpt><trkpt lat="44.1337603" lon="12.2320053"><ele>33.0</ele><time>2026-04-05T13:56:49.964Z</time></trkpt><trkpt lat="44.1337812" lon="12.2321335"><ele>33.0</ele><time>2026-04-05T13:56:50.965Z</time></trkpt><trkpt lat="44.13379" lon="12.2322248"><ele>32.25</ele><time>2026-04-05T13:56:51.964Z</time></trkpt><trkpt lat="44.1338011" lon="12.2323375"><ele>31.5</ele><time>2026-04-05T13:56:53.964Z</time></trkpt><trkpt lat="44.133826" lon="12.2324522"><ele>30.75</ele><time>2026-04-05T13:57:00.965Z</time></trkpt><trkpt lat="44.1338563" lon="12.2327062"><ele>30.0</ele><time>2026-04-05T13:57:02.965Z</time></trkpt><trkpt lat="44.1338698" lon="12.2328575"><ele>30.0</ele><time>2026-04-05T13:57:03.964Z</time></trkpt><trkpt lat="44.1338971" lon="12.2330187"><ele>30.0</ele><time>2026-04-05T13:57:04.965Z</time></trkpt><trkpt lat="44.1339056" lon="12.2331879"><ele>30.0</ele><time>2026-04-05T13:57:05.964Z</time></trkpt><trkpt lat="44.1339087" lon="12.2333646"><ele>30.0</ele><time>2026-04-05T13:57:06.964Z</time></trkpt><trkpt lat="44.1339218" lon="12.2335523"><ele>30.0</ele><time>2026-04-05T13:57:07.965Z</time></trkpt><trkpt lat="44.1339309" lon="12.2337458"><ele>30.0</ele><time>2026-04-05T13:57:08.965Z</time></trkpt><trkpt lat="44.13394" lon="12.2339293"><ele>30.0</ele><time>2026-04-05T13:57:09.965Z</time></trkpt><trkpt lat="44.1339468" lon="12.2340957"><ele>30.0</ele><time>2026-04-05T13:57:10.965Z</time></trkpt><trkpt lat="44.133952" lon="12.2342492"><ele>30.0</ele><time>2026-04-05T13:57:11.965Z</time></trkpt><trkpt lat="44.1339568" lon="12.2343995"><ele>30.0</ele><time>2026-04-05T13:57:12.965Z</time></trkpt><trkpt lat="44.1339624" lon="12.2345441"><ele>30.0</ele><time>2026-04-05T13:57:13.965Z</time></trkpt><trkpt lat="44.1339659" lon="12.2346765"><ele>30.0</ele><time>2026-04-05T13:57:14.965Z</time></trkpt><trkpt lat="44.1339578" lon="12.2347774"><ele>30.0</ele><time>2026-04-05T13:57:15.964Z</time></trkpt><trkpt lat="44.1339435" lon="12.2348726"><ele>30.666666666666668</ele><time>2026-04-05T13:57:16.965Z</time></trkpt><trkpt lat="44.1339066" lon="12.2349622"><ele>31.333333333333336</ele><time>2026-04-05T13:57:17.965Z</time></trkpt><trkpt lat="44.1338759" lon="12.2350535"><ele>32.0</ele><time>2026-04-05T13:57:18.965Z</time></trkpt><trkpt lat="44.1338723" lon="12.2351574"><ele>32.66666666666667</ele><time>2026-04-05T13:57:19.964Z</time></trkpt><trkpt lat="44.1339082" lon="12.2352701"><ele>33.333333333333336</ele><time>2026-04-05T13:57:20.965Z</time></trkpt><trkpt lat="44.1339489" lon="12.2353635"><ele>34.0</ele><time>2026-04-05T13:57:21.965Z</time></trkpt><trkpt lat="44.1339825" lon="12.2354674"><ele>34.0</ele><time>2026-04-05T13:57:22.965Z</time></trkpt><trkpt lat="44.1340044" lon="12.2355896"><ele>34.0</ele><time>2026-04-05T13:57:23.965Z</time></trkpt><trkpt lat="44.1340067" lon="12.2357408"><ele>34.0</ele><time>2026-04-05T13:57:24.965Z</time></trkpt><trkpt lat="44.1340171" lon="12.2359021"><ele>34.0</ele><time>2026-04-05T13:57:25.965Z</time></trkpt><trkpt lat="44.1340202" lon="12.2360695"><ele>34.0</ele><time>2026-04-05T13:57:26.965Z</time></trkpt><trkpt lat="44.1340295" lon="12.236248"><ele>34.0</ele><time>2026-04-05T13:57:27.965Z</time></trkpt><trkpt lat="44.1340324" lon="12.2364067"><ele>34.0</ele><time>2026-04-05T13:57:28.964Z</time></trkpt><trkpt lat="44.1340356" lon="12.2365595"><ele>34.0</ele><time>2026-04-05T13:57:29.964Z</time></trkpt><trkpt lat="44.1340422" lon="12.2367015"><ele>34.0</ele><time>2026-04-05T13:57:30.965Z</time></trkpt><trkpt lat="44.1340651" lon="12.2368453"><ele>34.0</ele><time>2026-04-05T13:57:31.965Z</time></trkpt><trkpt lat="44.1341183" lon="12.2369778"><ele>34.0</ele><time>2026-04-05T13:57:32.965Z</time></trkpt><trkpt lat="44.134192" lon="12.237104"><ele>34.0</ele><time>2026-04-05T13:57:33.964Z</time></trkpt><trkpt lat="44.1342986" lon="12.2372313"><ele>34.0</ele><time>2026-04-05T13:57:34.965Z</time></trkpt><trkpt lat="44.1344022" lon="12.2373576"><ele>34.0</ele><time>2026-04-05T13:57:35.965Z</time></trkpt><trkpt lat="44.1345143" lon="12.2374909"><ele>34.0</ele><time>2026-04-05T13:57:36.964Z</time></trkpt><trkpt lat="44.1346283" lon="12.237638"><ele>34.0</ele><time>2026-04-05T13:57:37.965Z</time></trkpt><trkpt lat="44.1347512" lon="12.2377696"><ele>34.0</ele><time>2026-04-05T13:57:38.965Z</time></trkpt><trkpt lat="44.1348676" lon="12.2379176"><ele>34.25</ele><time>2026-04-05T13:57:39.965Z</time></trkpt><trkpt lat="44.1349726" lon="12.2380501"><ele>34.5</ele><time>2026-04-05T13:57:40.964Z</time></trkpt><trkpt lat="44.1350704" lon="12.2381731"><ele>34.75</ele><time>2026-04-05T13:57:41.965Z</time></trkpt><trkpt lat="44.1351539" lon="12.2382873"><ele>35.0</ele><time>2026-04-05T13:57:42.964Z</time></trkpt><trkpt lat="44.1352168" lon="12.2384058"><ele>35.4</ele><time>2026-04-05T13:57:43.965Z</time></trkpt><trkpt lat="44.1352565" lon="12.2385338"><ele>35.8</ele><time>2026-04-05T13:57:44.965Z</time></trkpt><trkpt lat="44.1352784" lon="12.2386859"><ele>36.2</ele><time>2026-04-05T13:57:45.964Z</time></trkpt><trkpt lat="44.1352875" lon="12.2388064"><ele>36.6</ele><time>2026-04-05T13:57:46.965Z</time></trkpt><trkpt lat="44.1352137" lon="12.2389106"><ele>37.0</ele><time>2026-04-05T13:57:47.964Z</time></trkpt><trkpt lat="44.1351436" lon="12.2390027"><ele>39.0</ele><time>2026-04-05T13:57:48.965Z</time></trkpt><trkpt lat="44.1350312" lon="12.2391002"><ele>41.0</ele><time>2026-04-05T13:57:49.965Z</time></trkpt><trkpt lat="44.1349183" lon="12.2391906"><ele>43.0</ele><time>2026-04-05T13:57:50.965Z</time></trkpt><trkpt lat="44.1347996" lon="12.2392597"><ele>45.0</ele><time>2026-04-05T13:57:51.965Z</time></trkpt><trkpt lat="44.1346645" lon="12.2392992"><ele>45.0</ele><time>2026-04-05T13:57:52.965Z</time></trkpt><trkpt lat="44.1345265" lon="12.2393213"><ele>45.0</ele><time>2026-04-05T13:57:53.965Z</time></trkpt><trkpt lat="44.1343699" lon="12.2393143"><ele>45.0</ele><time>2026-04-05T13:57:54.965Z</time></trkpt><trkpt lat="44.1342187" lon="12.2392984"><ele>45.0</ele><time>2026-04-05T13:57:55.964Z</time></trkpt><trkpt lat="44.1340652" lon="12.2392769"><ele>47.0</ele><time>2026-04-05T13:57:56.965Z</time></trkpt><trkpt lat="44.1339171" lon="12.2392533"><ele>49.0</ele><time>2026-04-05T13:57:57.964Z</time></trkpt><trkpt lat="44.1337661" lon="12.2392271"><ele>51.0</ele><time>2026-04-05T13:57:58.965Z</time></trkpt><trkpt lat="44.1336289" lon="12.2392098"><ele>53.0</ele><time>2026-04-05T13:57:59.965Z</time></trkpt><trkpt lat="44.1335049" lon="12.2392076"><ele>53.0</ele><time>2026-04-05T13:58:00.965Z</time></trkpt><trkpt lat="44.1334041" lon="12.2392362"><ele>53.0</ele><time>2026-04-05T13:58:01.965Z</time></trkpt><trkpt lat="44.1333083" lon="12.2393098"><ele>53.0</ele><time>2026-04-05T13:58:02.965Z</time></trkpt><trkpt lat="44.1332394" lon="12.239411"><ele>53.0</ele><time>2026-04-05T13:58:03.965Z</time></trkpt><trkpt lat="44.1331906" lon="12.239539"><ele>53.0</ele><time>2026-04-05T13:58:04.964Z</time></trkpt><trkpt lat="44.1331603" lon="12.2396949"><ele>59.0</ele><time>2026-04-05T13:58:05.965Z</time></trkpt><trkpt lat="44.1331416" lon="12.2398727"><ele>65.0</ele><time>2026-04-05T13:58:06.965Z</time></trkpt><trkpt lat="44.133113" lon="12.2400437"><ele>71.0</ele><time>2026-04-05T13:58:07.965Z</time></trkpt><trkpt lat="44.1330875" lon="12.2402199"><ele>77.0</ele><time>2026-04-05T13:58:08.965Z</time></trkpt><trkpt lat="44.1330519" lon="12.2404576"><ele>71.66666666666667</ele><time>2026-04-05T13:58:09.965Z</time></trkpt><trkpt lat="44.1330077" lon="12.2407023"><ele>66.33333333333333</ele><time>2026-04-05T13:58:10.965Z</time></trkpt><trkpt lat="44.1329781" lon="12.2409429"><ele>61.0</ele><time>2026-04-05T13:58:11.965Z</time></trkpt><trkpt lat="44.1329472" lon="12.2411626"><ele>61.0</ele><time>2026-04-05T13:58:12.965Z</time></trkpt><trkpt lat="44.1329193" lon="12.2413593"><ele>61.0</ele><time>2026-04-05T13:58:13.965Z</time></trkpt><trkpt lat="44.1328978" lon="12.2415488"><ele>61.0</ele><time>2026-04-05T13:58:14.965Z</time></trkpt><trkpt lat="44.1328881" lon="12.2417128"><ele>61.0</ele><time>2026-04-05T13:58:15.965Z</time></trkpt><trkpt lat="44.1328639" lon="12.2418466"><ele>59.199999999999996</ele><time>2026-04-05T13:58:16.964Z</time></trkpt><trkpt lat="44.1328436" lon="12.2419617"><ele>57.39999999999999</ele><time>2026-04-05T13:58:17.965Z</time></trkpt><trkpt lat="44.1327907" lon="12.2420288"><ele>55.6</ele><time>2026-04-05T13:58:18.964Z</time></trkpt><trkpt lat="44.1326319" lon="12.2420856"><ele>53.8</ele><time>2026-04-05T13:58:20.965Z</time></trkpt><trkpt lat="44.1325231" lon="12.2420894"><ele>52.0</ele><time>2026-04-05T13:58:21.965Z</time></trkpt><trkpt lat="44.1324204" lon="12.242113"><ele>51.666666666666664</ele><time>2026-04-05T13:58:22.965Z</time></trkpt><trkpt lat="44.1323352" lon="12.2421642"><ele>51.33333333333333</ele><time>2026-04-05T13:58:23.965Z</time></trkpt><trkpt lat="44.1322657" lon="12.2422423"><ele>51.0</ele><time>2026-04-05T13:58:24.964Z</time></trkpt><trkpt lat="44.1322264" lon="12.2423404"><ele>50.66666666666667</ele><time>2026-04-05T13:58:25.965Z</time></trkpt><trkpt lat="44.1322139" lon="12.2424571"><ele>50.333333333333336</ele><time>2026-04-05T13:58:26.964Z</time></trkpt><trkpt lat="44.1322393" lon="12.2425675"><ele>50.0</ele><time>2026-04-05T13:58:27.965Z</time></trkpt><trkpt lat="44.1322943" lon="12.24265"><ele>49.2</ele><time>2026-04-05T13:58:28.965Z</time></trkpt><trkpt lat="44.1323828" lon="12.2427144"><ele>48.4</ele><time>2026-04-05T13:58:29.964Z</time></trkpt><trkpt lat="44.1324657" lon="12.2427474"><ele>47.599999999999994</ele><time>2026-04-05T13:58:30.965Z</time></trkpt><trkpt lat="44.1325638" lon="12.2427578"><ele>46.8</ele><time>2026-04-05T13:58:31.965Z</time></trkpt><trkpt lat="44.1326604" lon="12.2427486"><ele>46.0</ele><time>2026-04-05T13:58:32.964Z</time></trkpt><trkpt lat="44.1327545" lon="12.2427204"><ele>46.0</ele><time>2026-04-05T13:58:33.964Z</time></trkpt><trkpt lat="44.1328501" lon="12.2426823"><ele>46.0</ele><time>2026-04-05T13:58:34.965Z</time></trkpt><trkpt lat="44.1329497" lon="12.242635"><ele>46.0</ele><time>2026-04-05T13:58:35.965Z</time></trkpt><trkpt lat="44.1330503" lon="12.2426071"><ele>46.0</ele><time>2026-04-05T13:58:36.965Z</time></trkpt><trkpt lat="44.1331466" lon="12.2425895"><ele>46.0</ele><time>2026-04-05T13:58:37.965Z</time></trkpt><trkpt lat="44.1332264" lon="12.2425742"><ele>46.8</ele><time>2026-04-05T13:58:38.964Z</time></trkpt><trkpt lat="44.1333327" lon="12.242571"><ele>47.599999999999994</ele><time>2026-04-05T13:58:40.965Z</time></trkpt><trkpt lat="44.1333739" lon="12.242711"><ele>48.4</ele><time>2026-04-05T13:58:42.965Z</time></trkpt><trkpt lat="44.1333819" lon="12.2428222"><ele>49.2</ele><time>2026-04-05T13:58:43.965Z</time></trkpt><trkpt lat="44.1333826" lon="12.2429234"><ele>50.0</ele><time>2026-04-05T13:58:44.965Z</time></trkpt><trkpt lat="44.1333823" lon="12.2430797"><ele>49.4</ele><time>2026-04-05T13:58:45.965Z</time></trkpt><trkpt lat="44.1333893" lon="12.2432385"><ele>48.8</ele><time>2026-04-05T13:58:46.965Z</time></trkpt><trkpt lat="44.1333972" lon="12.2433954"><ele>48.2</ele><time>2026-04-05T13:58:47.965Z</time></trkpt><trkpt lat="44.1334049" lon="12.2435494"><ele>47.6</ele><time>2026-04-05T13:58:48.964Z</time></trkpt><trkpt lat="44.1334144" lon="12.2436807"><ele>47.0</ele><time>2026-04-05T13:58:49.965Z</time></trkpt><trkpt lat="44.13342" lon="12.2437989"><ele>47.0</ele><time>2026-04-05T13:58:50.965Z</time></trkpt><trkpt lat="44.1334223" lon="12.2438971"><ele>47.0</ele><time>2026-04-05T13:58:51.965Z</time></trkpt><trkpt lat="44.1334224" lon="12.2440307"><ele>47.0</ele><time>2026-04-05T13:58:53.965Z</time></trkpt><trkpt lat="44.133393" lon="12.2441364"><ele>47.0</ele><time>2026-04-05T13:58:56.965Z</time></trkpt><trkpt lat="44.1333064" lon="12.2441909"><ele>47.0</ele><time>2026-04-05T13:58:58.964Z</time></trkpt><trkpt lat="44.1332325" lon="12.2442169"><ele>47.0</ele><time>2026-04-05T13:58:59.964Z</time></trkpt><trkpt lat="44.1331592" lon="12.2442442"><ele>46.666666666666664</ele><time>2026-04-05T13:59:00.965Z</time></trkpt><trkpt lat="44.1330847" lon="12.2442737"><ele>46.33333333333333</ele><time>2026-04-05T13:59:01.965Z</time></trkpt><trkpt lat="44.1330181" lon="12.2444168"><ele>46.0</ele><time>2026-04-05T13:59:03.965Z</time></trkpt><trkpt lat="44.133016" lon="12.2445144"><ele>45.666666666666664</ele><time>2026-04-05T13:59:04.964Z</time></trkpt><trkpt lat="44.1330179" lon="12.2446177"><ele>45.333333333333336</ele><time>2026-04-05T13:59:05.964Z</time></trkpt><trkpt lat="44.1330313" lon="12.24473"><ele>45.0</ele><time>2026-04-05T13:59:06.965Z</time></trkpt><trkpt lat="44.1330349" lon="12.2448538"><ele>44.8</ele><time>2026-04-05T13:59:07.964Z</time></trkpt><trkpt lat="44.1330489" lon="12.2449804"><ele>44.6</ele><time>2026-04-05T13:59:08.964Z</time></trkpt><trkpt lat="44.1330662" lon="12.2451202"><ele>44.400000000000006</ele><time>2026-04-05T13:59:09.965Z</time></trkpt><trkpt lat="44.1330728" lon="12.2452568"><ele>44.2</ele><time>2026-04-05T13:59:10.965Z</time></trkpt><trkpt lat="44.1330751" lon="12.2453793"><ele>44.0</ele><time>2026-04-05T13:59:11.965Z</time></trkpt><trkpt lat="44.1330762" lon="12.2454922"><ele>44.0</ele><time>2026-04-05T13:59:12.964Z</time></trkpt><trkpt lat="44.1330942" lon="12.2456151"><ele>44.0</ele><time>2026-04-05T13:59:14.965Z</time></trkpt><trkpt lat="44.1331058" lon="12.2457558"><ele>44.0</ele><time>2026-04-05T13:59:16.965Z</time></trkpt><trkpt lat="44.1331096" lon="12.2458464"><ele>44.0</ele><time>2026-04-05T13:59:17.965Z</time></trkpt><trkpt lat="44.1331034" lon="12.245941"><ele>44.0</ele><time>2026-04-05T13:59:18.964Z</time></trkpt><trkpt lat="44.1331002" lon="12.2460462"><ele>44.0</ele><time>2026-04-05T13:59:19.965Z</time></trkpt><trkpt lat="44.1330983" lon="12.2461625"><ele>44.0</ele><time>2026-04-05T13:59:20.964Z</time></trkpt><trkpt lat="44.1330994" lon="12.2462872"><ele>44.0</ele><time>2026-04-05T13:59:21.965Z</time></trkpt><trkpt lat="44.1330989" lon="12.2463976"><ele>44.0</ele><time>2026-04-05T13:59:22.965Z</time></trkpt><trkpt lat="44.1331037" lon="12.2464926"><ele>44.0</ele><time>2026-04-05T13:59:23.964Z</time></trkpt><trkpt lat="44.1331602" lon="12.2465997"><ele>44.0</ele><time>2026-04-05T13:59:25.965Z</time></trkpt><trkpt lat="44.1332407" lon="12.2465948"><ele>44.0</ele><time>2026-04-05T13:59:27.965Z</time></trkpt><trkpt lat="44.1333306" lon="12.2465746"><ele>44.0</ele><time>2026-04-05T13:59:29.965Z</time></trkpt><trkpt lat="44.1333932" lon="12.2465536"><ele>44.0</ele><time>2026-04-05T13:59:31.965Z</time></trkpt><trkpt lat="44.133491" lon="12.2464975"><ele>44.0</ele><time>2026-04-05T13:59:33.964Z</time></trkpt><trkpt lat="44.1335977" lon="12.2464287"><ele>44.0</ele><time>2026-04-05T13:59:35.964Z</time></trkpt><trkpt lat="44.1336684" lon="12.2463978"><ele>44.0</ele><time>2026-04-05T13:59:36.965Z</time></trkpt><trkpt lat="44.1337459" lon="12.2463679"><ele>44.0</ele><time>2026-04-05T13:59:37.965Z</time></trkpt><trkpt lat="44.1338256" lon="12.2463358"><ele>44.0</ele><time>2026-04-05T13:59:38.965Z</time></trkpt><trkpt lat="44.1339016" lon="12.2463084"><ele>44.0</ele><time>2026-04-05T13:59:39.965Z</time></trkpt><trkpt lat="44.1339717" lon="12.2462895"><ele>44.0</ele><time>2026-04-05T13:59:40.964Z</time></trkpt><trkpt lat="44.1340557" lon="12.2462614"><ele>44.0</ele><time>2026-04-05T13:59:42.965Z</time></trkpt><trkpt lat="44.1341176" lon="12.2463619"><ele>44.0</ele><time>2026-04-05T13:59:45.964Z</time></trkpt><trkpt lat="44.1341287" lon="12.2464491"><ele>44.0</ele><time>2026-04-05T13:59:46.965Z</time></trkpt><trkpt lat="44.1341359" lon="12.2465561"><ele>44.0</ele><time>2026-04-05T13:59:47.965Z</time></trkpt><trkpt lat="44.1341439" lon="12.2466595"><ele>44.0</ele><time>2026-04-05T13:59:48.965Z</time></trkpt><trkpt lat="44.1341711" lon="12.2468243"><ele>44.0</ele><time>2026-04-05T13:59:50.965Z</time></trkpt><trkpt lat="44.1341046" lon="12.2469126"><ele>44.0</ele><time>2026-04-05T13:59:53.965Z</time></trkpt><trkpt lat="44.1340006" lon="12.2469392"><ele>44.0</ele><time>2026-04-05T13:59:55.964Z</time></trkpt><trkpt lat="44.133892" lon="12.2469772"><ele>44.0</ele><time>2026-04-05T13:59:57.965Z</time></trkpt><trkpt lat="44.1337924" lon="12.2470056"><ele>44.0</ele><time>2026-04-05T13:59:59.965Z</time></trkpt><trkpt lat="44.1337275" lon="12.2470251"><ele>44.0</ele><time>2026-04-05T14:00:26.965Z</time></trkpt><trkpt lat="44.1336745" lon="12.2470958"><ele>44.0</ele><time>2026-04-05T14:00:29.965Z</time></trkpt><trkpt lat="44.1337148" lon="12.2471656"><ele>44.0</ele><time>2026-04-05T14:03:35.964Z</time></trkpt><trkpt lat="44.1336588" lon="12.2471229"><ele>44.0</ele><time>2026-04-05T14:05:12.965Z</time></trkpt><trkpt lat="44.1335971" lon="12.2471021"><ele>44.0</ele><time>2026-04-05T14:08:14.965Z</time></trkpt><trkpt lat="44.1336575" lon="12.2470741"><ele>44.0</ele><time>2026-04-05T14:08:32.903Z</time></trkpt></trkseg></trk></gpx>